<?xml version="1.0" encoding="UTF-8" standalone="no" ?>
<gpx xmlns="http://www.topografix.com/GPX/1/1" xmlns:xsi="http://www.w3.org/2001/XMLSchema-instance" xsi:schemaLocation="http://www.topografix.com/GPX/1/1 http://www.topografix.com/GPX/1/1/gpx.xsd" version="1.1" creator="VisuGPX - https://www.visugpx.com">
  <metadata>
    <name>E-O-Bord de loire Sud Nord Oudon</name>
    <desc><![CDATA[E-O-Bord de loire Sud Nord Oudon]]></desc>
  </metadata>
  <trk>
    <name><![CDATA[2020-10-17 11:33 +02:00]]></name>
    <trkseg>
      <trkpt lat="47.16783" lon="-1.62669">
        <ele>86</ele>
        <time>2020-10-17T09:33:39.000Z</time>
      </trkpt>
      <trkpt lat="47.1678" lon="-1.62654">
        <ele>78</ele>
        <time>2020-10-17T09:33:45.000Z</time>
      </trkpt>
      <trkpt lat="47.1678" lon="-1.62668">
        <ele>99</ele>
        <time>2020-10-17T09:34:01.000Z</time>
      </trkpt>
      <trkpt lat="47.16789" lon="-1.62662">
        <ele>111</ele>
        <time>2020-10-17T09:34:07.000Z</time>
      </trkpt>
      <trkpt lat="47.16798" lon="-1.62649">
        <ele>107</ele>
        <time>2020-10-17T09:34:09.000Z</time>
      </trkpt>
      <trkpt lat="47.16806" lon="-1.62632">
        <ele>102</ele>
        <time>2020-10-17T09:34:11.000Z</time>
      </trkpt>
      <trkpt lat="47.16816" lon="-1.62617">
        <ele>100</ele>
        <time>2020-10-17T09:34:13.000Z</time>
      </trkpt>
      <trkpt lat="47.16824" lon="-1.62601">
        <ele>98</ele>
        <time>2020-10-17T09:34:15.000Z</time>
      </trkpt>
      <trkpt lat="47.16823" lon="-1.62584">
        <ele>96</ele>
        <time>2020-10-17T09:34:17.000Z</time>
      </trkpt>
      <trkpt lat="47.16817" lon="-1.62573">
        <ele>93</ele>
        <time>2020-10-17T09:34:19.000Z</time>
      </trkpt>
      <trkpt lat="47.16809" lon="-1.62561">
        <ele>92</ele>
        <time>2020-10-17T09:34:21.000Z</time>
      </trkpt>
      <trkpt lat="47.16799" lon="-1.62554">
        <ele>91</ele>
        <time>2020-10-17T09:34:23.000Z</time>
      </trkpt>
      <trkpt lat="47.16788" lon="-1.62545">
        <ele>90</ele>
        <time>2020-10-17T09:34:25.000Z</time>
      </trkpt>
      <trkpt lat="47.16777" lon="-1.62537">
        <ele>90</ele>
        <time>2020-10-17T09:34:27.000Z</time>
      </trkpt>
      <trkpt lat="47.16766" lon="-1.62529">
        <ele>90</ele>
        <time>2020-10-17T09:34:29.000Z</time>
      </trkpt>
      <trkpt lat="47.16754" lon="-1.62521">
        <ele>89</ele>
        <time>2020-10-17T09:34:31.000Z</time>
      </trkpt>
      <trkpt lat="47.16743" lon="-1.62514">
        <ele>89</ele>
        <time>2020-10-17T09:34:33.000Z</time>
      </trkpt>
      <trkpt lat="47.16731" lon="-1.62509">
        <ele>88</ele>
        <time>2020-10-17T09:34:35.000Z</time>
      </trkpt>
      <trkpt lat="47.1672" lon="-1.62504">
        <ele>87</ele>
        <time>2020-10-17T09:34:37.000Z</time>
      </trkpt>
      <trkpt lat="47.16711" lon="-1.62493">
        <ele>84</ele>
        <time>2020-10-17T09:34:39.000Z</time>
      </trkpt>
      <trkpt lat="47.16713" lon="-1.62472">
        <ele>82</ele>
        <time>2020-10-17T09:34:41.000Z</time>
      </trkpt>
      <trkpt lat="47.16716" lon="-1.62454">
        <ele>80</ele>
        <time>2020-10-17T09:34:44.000Z</time>
      </trkpt>
      <trkpt lat="47.16718" lon="-1.62434">
        <ele>78</ele>
        <time>2020-10-17T09:34:47.000Z</time>
      </trkpt>
      <trkpt lat="47.16724" lon="-1.62417">
        <ele>77</ele>
        <time>2020-10-17T09:34:49.000Z</time>
      </trkpt>
      <trkpt lat="47.16729" lon="-1.62401">
        <ele>76</ele>
        <time>2020-10-17T09:34:51.000Z</time>
      </trkpt>
      <trkpt lat="47.16733" lon="-1.62384">
        <ele>75</ele>
        <time>2020-10-17T09:34:53.000Z</time>
      </trkpt>
      <trkpt lat="47.16741" lon="-1.62369">
        <ele>75</ele>
        <time>2020-10-17T09:34:55.000Z</time>
      </trkpt>
      <trkpt lat="47.1675" lon="-1.62357">
        <ele>74</ele>
        <time>2020-10-17T09:34:57.000Z</time>
      </trkpt>
      <trkpt lat="47.16761" lon="-1.62347">
        <ele>74</ele>
        <time>2020-10-17T09:34:59.000Z</time>
      </trkpt>
      <trkpt lat="47.16774" lon="-1.62339">
        <ele>74</ele>
        <time>2020-10-17T09:35:01.000Z</time>
      </trkpt>
      <trkpt lat="47.16786" lon="-1.62332">
        <ele>74</ele>
        <time>2020-10-17T09:35:03.000Z</time>
      </trkpt>
      <trkpt lat="47.16798" lon="-1.62326">
        <ele>74</ele>
        <time>2020-10-17T09:35:05.000Z</time>
      </trkpt>
      <trkpt lat="47.1681" lon="-1.62318">
        <ele>73</ele>
        <time>2020-10-17T09:35:07.000Z</time>
      </trkpt>
      <trkpt lat="47.16821" lon="-1.6231">
        <ele>73</ele>
        <time>2020-10-17T09:35:09.000Z</time>
      </trkpt>
      <trkpt lat="47.16831" lon="-1.623">
        <ele>73</ele>
        <time>2020-10-17T09:35:11.000Z</time>
      </trkpt>
      <trkpt lat="47.16842" lon="-1.62289">
        <ele>73</ele>
        <time>2020-10-17T09:35:13.000Z</time>
      </trkpt>
      <trkpt lat="47.16851" lon="-1.62277">
        <ele>73</ele>
        <time>2020-10-17T09:35:15.000Z</time>
      </trkpt>
      <trkpt lat="47.1686" lon="-1.62265">
        <ele>73</ele>
        <time>2020-10-17T09:35:17.000Z</time>
      </trkpt>
      <trkpt lat="47.1687" lon="-1.62252">
        <ele>73</ele>
        <time>2020-10-17T09:35:19.000Z</time>
      </trkpt>
      <trkpt lat="47.16881" lon="-1.62239">
        <ele>74</ele>
        <time>2020-10-17T09:35:21.000Z</time>
      </trkpt>
      <trkpt lat="47.16891" lon="-1.62225">
        <ele>73</ele>
        <time>2020-10-17T09:35:23.000Z</time>
      </trkpt>
      <trkpt lat="47.169" lon="-1.62211">
        <ele>73</ele>
        <time>2020-10-17T09:35:25.000Z</time>
      </trkpt>
      <trkpt lat="47.1691" lon="-1.62196">
        <ele>73</ele>
        <time>2020-10-17T09:35:27.000Z</time>
      </trkpt>
      <trkpt lat="47.1692" lon="-1.62181">
        <ele>73</ele>
        <time>2020-10-17T09:35:29.000Z</time>
      </trkpt>
      <trkpt lat="47.16928" lon="-1.62164">
        <ele>73</ele>
        <time>2020-10-17T09:35:31.000Z</time>
      </trkpt>
      <trkpt lat="47.16936" lon="-1.62148">
        <ele>73</ele>
        <time>2020-10-17T09:35:33.000Z</time>
      </trkpt>
      <trkpt lat="47.16945" lon="-1.62131">
        <ele>73</ele>
        <time>2020-10-17T09:35:35.000Z</time>
      </trkpt>
      <trkpt lat="47.16953" lon="-1.62115">
        <ele>72</ele>
        <time>2020-10-17T09:35:37.000Z</time>
      </trkpt>
      <trkpt lat="47.16961" lon="-1.62099">
        <ele>73</ele>
        <time>2020-10-17T09:35:39.000Z</time>
      </trkpt>
      <trkpt lat="47.1697" lon="-1.62081">
        <ele>73</ele>
        <time>2020-10-17T09:35:41.000Z</time>
      </trkpt>
      <trkpt lat="47.16978" lon="-1.62065">
        <ele>73</ele>
        <time>2020-10-17T09:35:43.000Z</time>
      </trkpt>
      <trkpt lat="47.16987" lon="-1.62049">
        <ele>73</ele>
        <time>2020-10-17T09:35:45.000Z</time>
      </trkpt>
      <trkpt lat="47.16998" lon="-1.62033">
        <ele>74</ele>
        <time>2020-10-17T09:35:47.000Z</time>
      </trkpt>
      <trkpt lat="47.17008" lon="-1.62018">
        <ele>74</ele>
        <time>2020-10-17T09:35:49.000Z</time>
      </trkpt>
      <trkpt lat="47.17018" lon="-1.62004">
        <ele>74</ele>
        <time>2020-10-17T09:35:51.000Z</time>
      </trkpt>
      <trkpt lat="47.17028" lon="-1.6199">
        <ele>75</ele>
        <time>2020-10-17T09:35:53.000Z</time>
      </trkpt>
      <trkpt lat="47.17038" lon="-1.61976">
        <ele>74</ele>
        <time>2020-10-17T09:35:55.000Z</time>
      </trkpt>
      <trkpt lat="47.17048" lon="-1.61962">
        <ele>75</ele>
        <time>2020-10-17T09:35:57.000Z</time>
      </trkpt>
      <trkpt lat="47.17057" lon="-1.61948">
        <ele>74</ele>
        <time>2020-10-17T09:35:59.000Z</time>
      </trkpt>
      <trkpt lat="47.17067" lon="-1.61936">
        <ele>74</ele>
        <time>2020-10-17T09:36:01.000Z</time>
      </trkpt>
      <trkpt lat="47.17078" lon="-1.61924">
        <ele>74</ele>
        <time>2020-10-17T09:36:03.000Z</time>
      </trkpt>
      <trkpt lat="47.17089" lon="-1.61913">
        <ele>74</ele>
        <time>2020-10-17T09:36:05.000Z</time>
      </trkpt>
      <trkpt lat="47.17101" lon="-1.61902">
        <ele>74</ele>
        <time>2020-10-17T09:36:07.000Z</time>
      </trkpt>
      <trkpt lat="47.17112" lon="-1.61891">
        <ele>74</ele>
        <time>2020-10-17T09:36:09.000Z</time>
      </trkpt>
      <trkpt lat="47.17124" lon="-1.61881">
        <ele>73</ele>
        <time>2020-10-17T09:36:11.000Z</time>
      </trkpt>
      <trkpt lat="47.17135" lon="-1.6187">
        <ele>73</ele>
        <time>2020-10-17T09:36:13.000Z</time>
      </trkpt>
      <trkpt lat="47.17146" lon="-1.61858">
        <ele>74</ele>
        <time>2020-10-17T09:36:15.000Z</time>
      </trkpt>
      <trkpt lat="47.17157" lon="-1.61847">
        <ele>74</ele>
        <time>2020-10-17T09:36:17.000Z</time>
      </trkpt>
      <trkpt lat="47.17168" lon="-1.61836">
        <ele>74</ele>
        <time>2020-10-17T09:36:19.000Z</time>
      </trkpt>
      <trkpt lat="47.17179" lon="-1.61825">
        <ele>73</ele>
        <time>2020-10-17T09:36:21.000Z</time>
      </trkpt>
      <trkpt lat="47.1719" lon="-1.61815">
        <ele>73</ele>
        <time>2020-10-17T09:36:23.000Z</time>
      </trkpt>
      <trkpt lat="47.17201" lon="-1.61804">
        <ele>72</ele>
        <time>2020-10-17T09:36:25.000Z</time>
      </trkpt>
      <trkpt lat="47.17211" lon="-1.61792">
        <ele>72</ele>
        <time>2020-10-17T09:36:27.000Z</time>
      </trkpt>
      <trkpt lat="47.1722" lon="-1.61778">
        <ele>71</ele>
        <time>2020-10-17T09:36:29.000Z</time>
      </trkpt>
      <trkpt lat="47.17226" lon="-1.61759">
        <ele>71</ele>
        <time>2020-10-17T09:36:31.000Z</time>
      </trkpt>
      <trkpt lat="47.17236" lon="-1.61744">
        <ele>71</ele>
        <time>2020-10-17T09:36:33.000Z</time>
      </trkpt>
      <trkpt lat="47.17246" lon="-1.61731">
        <ele>71</ele>
        <time>2020-10-17T09:36:35.000Z</time>
      </trkpt>
      <trkpt lat="47.17255" lon="-1.61715">
        <ele>71</ele>
        <time>2020-10-17T09:36:37.000Z</time>
      </trkpt>
      <trkpt lat="47.17262" lon="-1.61698">
        <ele>71</ele>
        <time>2020-10-17T09:36:39.000Z</time>
      </trkpt>
      <trkpt lat="47.1727" lon="-1.61681">
        <ele>72</ele>
        <time>2020-10-17T09:36:41.000Z</time>
      </trkpt>
      <trkpt lat="47.17278" lon="-1.61665">
        <ele>72</ele>
        <time>2020-10-17T09:36:43.000Z</time>
      </trkpt>
      <trkpt lat="47.17286" lon="-1.61649">
        <ele>72</ele>
        <time>2020-10-17T09:36:45.000Z</time>
      </trkpt>
      <trkpt lat="47.17294" lon="-1.61635">
        <ele>73</ele>
        <time>2020-10-17T09:36:47.000Z</time>
      </trkpt>
      <trkpt lat="47.17303" lon="-1.61619">
        <ele>72</ele>
        <time>2020-10-17T09:36:49.000Z</time>
      </trkpt>
      <trkpt lat="47.17313" lon="-1.61606">
        <ele>73</ele>
        <time>2020-10-17T09:36:51.000Z</time>
      </trkpt>
      <trkpt lat="47.17322" lon="-1.61593">
        <ele>73</ele>
        <time>2020-10-17T09:36:53.000Z</time>
      </trkpt>
      <trkpt lat="47.17332" lon="-1.6158">
        <ele>74</ele>
        <time>2020-10-17T09:36:55.000Z</time>
      </trkpt>
      <trkpt lat="47.17342" lon="-1.61569">
        <ele>74</ele>
        <time>2020-10-17T09:36:57.000Z</time>
      </trkpt>
      <trkpt lat="47.17353" lon="-1.61557">
        <ele>74</ele>
        <time>2020-10-17T09:36:59.000Z</time>
      </trkpt>
      <trkpt lat="47.17364" lon="-1.61546">
        <ele>75</ele>
        <time>2020-10-17T09:37:01.000Z</time>
      </trkpt>
      <trkpt lat="47.17375" lon="-1.61534">
        <ele>74</ele>
        <time>2020-10-17T09:37:03.000Z</time>
      </trkpt>
      <trkpt lat="47.17387" lon="-1.61524">
        <ele>74</ele>
        <time>2020-10-17T09:37:05.000Z</time>
      </trkpt>
      <trkpt lat="47.17398" lon="-1.61514">
        <ele>74</ele>
        <time>2020-10-17T09:37:07.000Z</time>
      </trkpt>
      <trkpt lat="47.17411" lon="-1.61504">
        <ele>73</ele>
        <time>2020-10-17T09:37:09.000Z</time>
      </trkpt>
      <trkpt lat="47.17424" lon="-1.61495">
        <ele>73</ele>
        <time>2020-10-17T09:37:11.000Z</time>
      </trkpt>
      <trkpt lat="47.17437" lon="-1.61487">
        <ele>72</ele>
        <time>2020-10-17T09:37:13.000Z</time>
      </trkpt>
      <trkpt lat="47.17451" lon="-1.61479">
        <ele>71</ele>
        <time>2020-10-17T09:37:15.000Z</time>
      </trkpt>
      <trkpt lat="47.17464" lon="-1.61471">
        <ele>71</ele>
        <time>2020-10-17T09:37:17.000Z</time>
      </trkpt>
      <trkpt lat="47.17477" lon="-1.61464">
        <ele>70</ele>
        <time>2020-10-17T09:37:19.000Z</time>
      </trkpt>
      <trkpt lat="47.1749" lon="-1.61459">
        <ele>70</ele>
        <time>2020-10-17T09:37:21.000Z</time>
      </trkpt>
      <trkpt lat="47.17501" lon="-1.61454">
        <ele>69</ele>
        <time>2020-10-17T09:37:23.000Z</time>
      </trkpt>
      <trkpt lat="47.1751" lon="-1.61447">
        <ele>68</ele>
        <time>2020-10-17T09:37:25.000Z</time>
      </trkpt>
      <trkpt lat="47.17514" lon="-1.6143">
        <ele>66</ele>
        <time>2020-10-17T09:37:27.000Z</time>
      </trkpt>
      <trkpt lat="47.17517" lon="-1.61409">
        <ele>65</ele>
        <time>2020-10-17T09:37:29.000Z</time>
      </trkpt>
      <trkpt lat="47.17522" lon="-1.61388">
        <ele>64</ele>
        <time>2020-10-17T09:37:31.000Z</time>
      </trkpt>
      <trkpt lat="47.17527" lon="-1.61368">
        <ele>64</ele>
        <time>2020-10-17T09:37:33.000Z</time>
      </trkpt>
      <trkpt lat="47.17527" lon="-1.61348">
        <ele>64</ele>
        <time>2020-10-17T09:37:35.000Z</time>
      </trkpt>
      <trkpt lat="47.17521" lon="-1.61329">
        <ele>64</ele>
        <time>2020-10-17T09:37:37.000Z</time>
      </trkpt>
      <trkpt lat="47.17519" lon="-1.6131">
        <ele>64</ele>
        <time>2020-10-17T09:37:39.000Z</time>
      </trkpt>
      <trkpt lat="47.17516" lon="-1.61291">
        <ele>64</ele>
        <time>2020-10-17T09:37:41.000Z</time>
      </trkpt>
      <trkpt lat="47.17507" lon="-1.61275">
        <ele>64</ele>
        <time>2020-10-17T09:37:43.000Z</time>
      </trkpt>
      <trkpt lat="47.17499" lon="-1.61258">
        <ele>63</ele>
        <time>2020-10-17T09:37:45.000Z</time>
      </trkpt>
      <trkpt lat="47.17492" lon="-1.61241">
        <ele>63</ele>
        <time>2020-10-17T09:37:47.000Z</time>
      </trkpt>
      <trkpt lat="47.17485" lon="-1.61224">
        <ele>63</ele>
        <time>2020-10-17T09:37:49.000Z</time>
      </trkpt>
      <trkpt lat="47.17478" lon="-1.61207">
        <ele>63</ele>
        <time>2020-10-17T09:37:51.000Z</time>
      </trkpt>
      <trkpt lat="47.17471" lon="-1.6119">
        <ele>63</ele>
        <time>2020-10-17T09:37:53.000Z</time>
      </trkpt>
      <trkpt lat="47.17464" lon="-1.61174">
        <ele>63</ele>
        <time>2020-10-17T09:37:55.000Z</time>
      </trkpt>
      <trkpt lat="47.17457" lon="-1.61156">
        <ele>63</ele>
        <time>2020-10-17T09:37:57.000Z</time>
      </trkpt>
      <trkpt lat="47.1745" lon="-1.61139">
        <ele>62</ele>
        <time>2020-10-17T09:37:59.000Z</time>
      </trkpt>
      <trkpt lat="47.17443" lon="-1.61122">
        <ele>61</ele>
        <time>2020-10-17T09:38:01.000Z</time>
      </trkpt>
      <trkpt lat="47.17436" lon="-1.61103">
        <ele>61</ele>
        <time>2020-10-17T09:38:03.000Z</time>
      </trkpt>
      <trkpt lat="47.17431" lon="-1.61083">
        <ele>60</ele>
        <time>2020-10-17T09:38:05.000Z</time>
      </trkpt>
      <trkpt lat="47.17427" lon="-1.61062">
        <ele>60</ele>
        <time>2020-10-17T09:38:07.000Z</time>
      </trkpt>
      <trkpt lat="47.17422" lon="-1.61042">
        <ele>60</ele>
        <time>2020-10-17T09:38:09.000Z</time>
      </trkpt>
      <trkpt lat="47.1742" lon="-1.61025">
        <ele>59</ele>
        <time>2020-10-17T09:38:11.000Z</time>
      </trkpt>
      <trkpt lat="47.17431" lon="-1.6102">
        <ele>59</ele>
        <time>2020-10-17T09:38:14.000Z</time>
      </trkpt>
      <trkpt lat="47.17434" lon="-1.61034">
        <ele>58</ele>
        <time>2020-10-17T09:38:16.000Z</time>
      </trkpt>
      <trkpt lat="47.17439" lon="-1.6105">
        <ele>58</ele>
        <time>2020-10-17T09:38:18.000Z</time>
      </trkpt>
      <trkpt lat="47.17446" lon="-1.61067">
        <ele>58</ele>
        <time>2020-10-17T09:38:20.000Z</time>
      </trkpt>
      <trkpt lat="47.17455" lon="-1.61082">
        <ele>58</ele>
        <time>2020-10-17T09:38:22.000Z</time>
      </trkpt>
      <trkpt lat="47.17467" lon="-1.61095">
        <ele>58</ele>
        <time>2020-10-17T09:38:24.000Z</time>
      </trkpt>
      <trkpt lat="47.17481" lon="-1.61105">
        <ele>57</ele>
        <time>2020-10-17T09:38:26.000Z</time>
      </trkpt>
      <trkpt lat="47.17496" lon="-1.61106">
        <ele>56</ele>
        <time>2020-10-17T09:38:28.000Z</time>
      </trkpt>
      <trkpt lat="47.1751" lon="-1.61101">
        <ele>57</ele>
        <time>2020-10-17T09:38:30.000Z</time>
      </trkpt>
      <trkpt lat="47.17523" lon="-1.6109">
        <ele>57</ele>
        <time>2020-10-17T09:38:32.000Z</time>
      </trkpt>
      <trkpt lat="47.17536" lon="-1.61079">
        <ele>56</ele>
        <time>2020-10-17T09:38:34.000Z</time>
      </trkpt>
      <trkpt lat="47.17549" lon="-1.61068">
        <ele>56</ele>
        <time>2020-10-17T09:38:36.000Z</time>
      </trkpt>
      <trkpt lat="47.17561" lon="-1.61057">
        <ele>56</ele>
        <time>2020-10-17T09:38:38.000Z</time>
      </trkpt>
      <trkpt lat="47.17573" lon="-1.61047">
        <ele>56</ele>
        <time>2020-10-17T09:38:40.000Z</time>
      </trkpt>
      <trkpt lat="47.17586" lon="-1.61036">
        <ele>55</ele>
        <time>2020-10-17T09:38:42.000Z</time>
      </trkpt>
      <trkpt lat="47.17599" lon="-1.61025">
        <ele>55</ele>
        <time>2020-10-17T09:38:44.000Z</time>
      </trkpt>
      <trkpt lat="47.17611" lon="-1.61014">
        <ele>55</ele>
        <time>2020-10-17T09:38:46.000Z</time>
      </trkpt>
      <trkpt lat="47.17623" lon="-1.61003">
        <ele>56</ele>
        <time>2020-10-17T09:38:48.000Z</time>
      </trkpt>
      <trkpt lat="47.17635" lon="-1.60992">
        <ele>56</ele>
        <time>2020-10-17T09:38:50.000Z</time>
      </trkpt>
      <trkpt lat="47.17647" lon="-1.60981">
        <ele>55</ele>
        <time>2020-10-17T09:38:52.000Z</time>
      </trkpt>
      <trkpt lat="47.17659" lon="-1.60972">
        <ele>56</ele>
        <time>2020-10-17T09:38:54.000Z</time>
      </trkpt>
      <trkpt lat="47.17673" lon="-1.6097">
        <ele>56</ele>
        <time>2020-10-17T09:38:56.000Z</time>
      </trkpt>
      <trkpt lat="47.17686" lon="-1.60972">
        <ele>57</ele>
        <time>2020-10-17T09:38:58.000Z</time>
      </trkpt>
      <trkpt lat="47.17698" lon="-1.60971">
        <ele>57</ele>
        <time>2020-10-17T09:39:00.000Z</time>
      </trkpt>
      <trkpt lat="47.1771" lon="-1.60964">
        <ele>57</ele>
        <time>2020-10-17T09:39:02.000Z</time>
      </trkpt>
      <trkpt lat="47.17723" lon="-1.60955">
        <ele>57</ele>
        <time>2020-10-17T09:39:04.000Z</time>
      </trkpt>
      <trkpt lat="47.17735" lon="-1.60946">
        <ele>57</ele>
        <time>2020-10-17T09:39:06.000Z</time>
      </trkpt>
      <trkpt lat="47.17748" lon="-1.60937">
        <ele>57</ele>
        <time>2020-10-17T09:39:08.000Z</time>
      </trkpt>
      <trkpt lat="47.1776" lon="-1.60928">
        <ele>57</ele>
        <time>2020-10-17T09:39:10.000Z</time>
      </trkpt>
      <trkpt lat="47.17772" lon="-1.60919">
        <ele>57</ele>
        <time>2020-10-17T09:39:12.000Z</time>
      </trkpt>
      <trkpt lat="47.17784" lon="-1.60908">
        <ele>56</ele>
        <time>2020-10-17T09:39:14.000Z</time>
      </trkpt>
      <trkpt lat="47.17798" lon="-1.60899">
        <ele>57</ele>
        <time>2020-10-17T09:39:16.000Z</time>
      </trkpt>
      <trkpt lat="47.17811" lon="-1.60888">
        <ele>56</ele>
        <time>2020-10-17T09:39:18.000Z</time>
      </trkpt>
      <trkpt lat="47.17821" lon="-1.60874">
        <ele>56</ele>
        <time>2020-10-17T09:39:20.000Z</time>
      </trkpt>
      <trkpt lat="47.17831" lon="-1.60858">
        <ele>56</ele>
        <time>2020-10-17T09:39:22.000Z</time>
      </trkpt>
      <trkpt lat="47.1784" lon="-1.60841">
        <ele>56</ele>
        <time>2020-10-17T09:39:24.000Z</time>
      </trkpt>
      <trkpt lat="47.17846" lon="-1.60821">
        <ele>57</ele>
        <time>2020-10-17T09:39:26.000Z</time>
      </trkpt>
      <trkpt lat="47.17852" lon="-1.608">
        <ele>56</ele>
        <time>2020-10-17T09:39:28.000Z</time>
      </trkpt>
      <trkpt lat="47.17857" lon="-1.60779">
        <ele>56</ele>
        <time>2020-10-17T09:39:30.000Z</time>
      </trkpt>
      <trkpt lat="47.17862" lon="-1.60758">
        <ele>56</ele>
        <time>2020-10-17T09:39:32.000Z</time>
      </trkpt>
      <trkpt lat="47.17867" lon="-1.60737">
        <ele>56</ele>
        <time>2020-10-17T09:39:34.000Z</time>
      </trkpt>
      <trkpt lat="47.17871" lon="-1.60717">
        <ele>56</ele>
        <time>2020-10-17T09:39:36.000Z</time>
      </trkpt>
      <trkpt lat="47.17876" lon="-1.60697">
        <ele>56</ele>
        <time>2020-10-17T09:39:38.000Z</time>
      </trkpt>
      <trkpt lat="47.17881" lon="-1.60678">
        <ele>56</ele>
        <time>2020-10-17T09:39:40.000Z</time>
      </trkpt>
      <trkpt lat="47.17887" lon="-1.6066">
        <ele>56</ele>
        <time>2020-10-17T09:39:42.000Z</time>
      </trkpt>
      <trkpt lat="47.17893" lon="-1.60643">
        <ele>57</ele>
        <time>2020-10-17T09:39:44.000Z</time>
      </trkpt>
      <trkpt lat="47.17898" lon="-1.60626">
        <ele>58</ele>
        <time>2020-10-17T09:39:46.000Z</time>
      </trkpt>
      <trkpt lat="47.17902" lon="-1.6061">
        <ele>58</ele>
        <time>2020-10-17T09:39:48.000Z</time>
      </trkpt>
      <trkpt lat="47.17906" lon="-1.60595">
        <ele>59</ele>
        <time>2020-10-17T09:39:50.000Z</time>
      </trkpt>
      <trkpt lat="47.17912" lon="-1.60584">
        <ele>60</ele>
        <time>2020-10-17T09:39:52.000Z</time>
      </trkpt>
      <trkpt lat="47.17922" lon="-1.60582">
        <ele>61</ele>
        <time>2020-10-17T09:39:54.000Z</time>
      </trkpt>
      <trkpt lat="47.17933" lon="-1.60581">
        <ele>60</ele>
        <time>2020-10-17T09:39:56.000Z</time>
      </trkpt>
      <trkpt lat="47.17945" lon="-1.60578">
        <ele>59</ele>
        <time>2020-10-17T09:39:58.000Z</time>
      </trkpt>
      <trkpt lat="47.17958" lon="-1.60572">
        <ele>59</ele>
        <time>2020-10-17T09:40:00.000Z</time>
      </trkpt>
      <trkpt lat="47.17971" lon="-1.60567">
        <ele>58</ele>
        <time>2020-10-17T09:40:02.000Z</time>
      </trkpt>
      <trkpt lat="47.17984" lon="-1.60561">
        <ele>58</ele>
        <time>2020-10-17T09:40:04.000Z</time>
      </trkpt>
      <trkpt lat="47.17998" lon="-1.60556">
        <ele>57</ele>
        <time>2020-10-17T09:40:06.000Z</time>
      </trkpt>
      <trkpt lat="47.18012" lon="-1.60554">
        <ele>55</ele>
        <time>2020-10-17T09:40:08.000Z</time>
      </trkpt>
      <trkpt lat="47.18027" lon="-1.60553">
        <ele>55</ele>
        <time>2020-10-17T09:40:10.000Z</time>
      </trkpt>
      <trkpt lat="47.18041" lon="-1.60557">
        <ele>56</ele>
        <time>2020-10-17T09:40:12.000Z</time>
      </trkpt>
      <trkpt lat="47.18055" lon="-1.60564">
        <ele>56</ele>
        <time>2020-10-17T09:40:14.000Z</time>
      </trkpt>
      <trkpt lat="47.18068" lon="-1.60572">
        <ele>56</ele>
        <time>2020-10-17T09:40:16.000Z</time>
      </trkpt>
      <trkpt lat="47.18082" lon="-1.60579">
        <ele>56</ele>
        <time>2020-10-17T09:40:18.000Z</time>
      </trkpt>
      <trkpt lat="47.18095" lon="-1.60586">
        <ele>55</ele>
        <time>2020-10-17T09:40:20.000Z</time>
      </trkpt>
      <trkpt lat="47.18109" lon="-1.60592">
        <ele>55</ele>
        <time>2020-10-17T09:40:22.000Z</time>
      </trkpt>
      <trkpt lat="47.18122" lon="-1.60596">
        <ele>55</ele>
        <time>2020-10-17T09:40:24.000Z</time>
      </trkpt>
      <trkpt lat="47.18134" lon="-1.606">
        <ele>55</ele>
        <time>2020-10-17T09:40:26.000Z</time>
      </trkpt>
      <trkpt lat="47.18147" lon="-1.60603">
        <ele>55</ele>
        <time>2020-10-17T09:40:28.000Z</time>
      </trkpt>
      <trkpt lat="47.18159" lon="-1.60604">
        <ele>55</ele>
        <time>2020-10-17T09:40:30.000Z</time>
      </trkpt>
      <trkpt lat="47.18171" lon="-1.60604">
        <ele>55</ele>
        <time>2020-10-17T09:40:32.000Z</time>
      </trkpt>
      <trkpt lat="47.18181" lon="-1.60602">
        <ele>55</ele>
        <time>2020-10-17T09:40:34.000Z</time>
      </trkpt>
      <trkpt lat="47.1819" lon="-1.60587">
        <ele>56</ele>
        <time>2020-10-17T09:40:37.000Z</time>
      </trkpt>
      <trkpt lat="47.18197" lon="-1.60574">
        <ele>55</ele>
        <time>2020-10-17T09:40:39.000Z</time>
      </trkpt>
      <trkpt lat="47.1821" lon="-1.60569">
        <ele>56</ele>
        <time>2020-10-17T09:40:41.000Z</time>
      </trkpt>
      <trkpt lat="47.18224" lon="-1.60564">
        <ele>56</ele>
        <time>2020-10-17T09:40:43.000Z</time>
      </trkpt>
      <trkpt lat="47.18237" lon="-1.60556">
        <ele>56</ele>
        <time>2020-10-17T09:40:45.000Z</time>
      </trkpt>
      <trkpt lat="47.1825" lon="-1.60547">
        <ele>57</ele>
        <time>2020-10-17T09:40:47.000Z</time>
      </trkpt>
      <trkpt lat="47.18263" lon="-1.60537">
        <ele>56</ele>
        <time>2020-10-17T09:40:49.000Z</time>
      </trkpt>
      <trkpt lat="47.18276" lon="-1.60525">
        <ele>56</ele>
        <time>2020-10-17T09:40:51.000Z</time>
      </trkpt>
      <trkpt lat="47.18287" lon="-1.60514">
        <ele>56</ele>
        <time>2020-10-17T09:40:53.000Z</time>
      </trkpt>
      <trkpt lat="47.18298" lon="-1.60501">
        <ele>56</ele>
        <time>2020-10-17T09:40:55.000Z</time>
      </trkpt>
      <trkpt lat="47.18309" lon="-1.60489">
        <ele>56</ele>
        <time>2020-10-17T09:40:57.000Z</time>
      </trkpt>
      <trkpt lat="47.18319" lon="-1.60476">
        <ele>56</ele>
        <time>2020-10-17T09:40:59.000Z</time>
      </trkpt>
      <trkpt lat="47.1833" lon="-1.60463">
        <ele>56</ele>
        <time>2020-10-17T09:41:01.000Z</time>
      </trkpt>
      <trkpt lat="47.1834" lon="-1.6045">
        <ele>56</ele>
        <time>2020-10-17T09:41:03.000Z</time>
      </trkpt>
      <trkpt lat="47.18351" lon="-1.60437">
        <ele>57</ele>
        <time>2020-10-17T09:41:05.000Z</time>
      </trkpt>
      <trkpt lat="47.18361" lon="-1.60423">
        <ele>57</ele>
        <time>2020-10-17T09:41:07.000Z</time>
      </trkpt>
      <trkpt lat="47.18372" lon="-1.6041">
        <ele>57</ele>
        <time>2020-10-17T09:41:09.000Z</time>
      </trkpt>
      <trkpt lat="47.18382" lon="-1.60396">
        <ele>57</ele>
        <time>2020-10-17T09:41:11.000Z</time>
      </trkpt>
      <trkpt lat="47.18393" lon="-1.60381">
        <ele>57</ele>
        <time>2020-10-17T09:41:13.000Z</time>
      </trkpt>
      <trkpt lat="47.18403" lon="-1.60368">
        <ele>57</ele>
        <time>2020-10-17T09:41:15.000Z</time>
      </trkpt>
      <trkpt lat="47.18413" lon="-1.60354">
        <ele>57</ele>
        <time>2020-10-17T09:41:17.000Z</time>
      </trkpt>
      <trkpt lat="47.18423" lon="-1.60339">
        <ele>58</ele>
        <time>2020-10-17T09:41:19.000Z</time>
      </trkpt>
      <trkpt lat="47.18432" lon="-1.60324">
        <ele>58</ele>
        <time>2020-10-17T09:41:21.000Z</time>
      </trkpt>
      <trkpt lat="47.18442" lon="-1.60309">
        <ele>58</ele>
        <time>2020-10-17T09:41:23.000Z</time>
      </trkpt>
      <trkpt lat="47.18451" lon="-1.60294">
        <ele>58</ele>
        <time>2020-10-17T09:41:25.000Z</time>
      </trkpt>
      <trkpt lat="47.1846" lon="-1.60278">
        <ele>57</ele>
        <time>2020-10-17T09:41:27.000Z</time>
      </trkpt>
      <trkpt lat="47.18469" lon="-1.60263">
        <ele>58</ele>
        <time>2020-10-17T09:41:29.000Z</time>
      </trkpt>
      <trkpt lat="47.18478" lon="-1.60247">
        <ele>58</ele>
        <time>2020-10-17T09:41:31.000Z</time>
      </trkpt>
      <trkpt lat="47.18486" lon="-1.60231">
        <ele>58</ele>
        <time>2020-10-17T09:41:33.000Z</time>
      </trkpt>
      <trkpt lat="47.18494" lon="-1.60215">
        <ele>58</ele>
        <time>2020-10-17T09:41:35.000Z</time>
      </trkpt>
      <trkpt lat="47.18503" lon="-1.60198">
        <ele>58</ele>
        <time>2020-10-17T09:41:37.000Z</time>
      </trkpt>
      <trkpt lat="47.18511" lon="-1.60182">
        <ele>58</ele>
        <time>2020-10-17T09:41:39.000Z</time>
      </trkpt>
      <trkpt lat="47.18519" lon="-1.60165">
        <ele>58</ele>
        <time>2020-10-17T09:41:41.000Z</time>
      </trkpt>
      <trkpt lat="47.18527" lon="-1.60149">
        <ele>58</ele>
        <time>2020-10-17T09:41:43.000Z</time>
      </trkpt>
      <trkpt lat="47.18535" lon="-1.60132">
        <ele>58</ele>
        <time>2020-10-17T09:41:45.000Z</time>
      </trkpt>
      <trkpt lat="47.18542" lon="-1.60114">
        <ele>58</ele>
        <time>2020-10-17T09:41:47.000Z</time>
      </trkpt>
      <trkpt lat="47.18549" lon="-1.60097">
        <ele>58</ele>
        <time>2020-10-17T09:41:49.000Z</time>
      </trkpt>
      <trkpt lat="47.18557" lon="-1.60078">
        <ele>58</ele>
        <time>2020-10-17T09:41:51.000Z</time>
      </trkpt>
      <trkpt lat="47.18564" lon="-1.6006">
        <ele>58</ele>
        <time>2020-10-17T09:41:53.000Z</time>
      </trkpt>
      <trkpt lat="47.18571" lon="-1.60042">
        <ele>58</ele>
        <time>2020-10-17T09:41:55.000Z</time>
      </trkpt>
      <trkpt lat="47.18578" lon="-1.60024">
        <ele>58</ele>
        <time>2020-10-17T09:41:57.000Z</time>
      </trkpt>
      <trkpt lat="47.18585" lon="-1.60006">
        <ele>58</ele>
        <time>2020-10-17T09:41:59.000Z</time>
      </trkpt>
      <trkpt lat="47.1859" lon="-1.59988">
        <ele>58</ele>
        <time>2020-10-17T09:42:01.000Z</time>
      </trkpt>
      <trkpt lat="47.18595" lon="-1.5997">
        <ele>58</ele>
        <time>2020-10-17T09:42:03.000Z</time>
      </trkpt>
      <trkpt lat="47.18601" lon="-1.59952">
        <ele>58</ele>
        <time>2020-10-17T09:42:05.000Z</time>
      </trkpt>
      <trkpt lat="47.18606" lon="-1.59935">
        <ele>58</ele>
        <time>2020-10-17T09:42:07.000Z</time>
      </trkpt>
      <trkpt lat="47.1861" lon="-1.59917">
        <ele>57</ele>
        <time>2020-10-17T09:42:09.000Z</time>
      </trkpt>
      <trkpt lat="47.18615" lon="-1.59899">
        <ele>57</ele>
        <time>2020-10-17T09:42:11.000Z</time>
      </trkpt>
      <trkpt lat="47.18619" lon="-1.59882">
        <ele>57</ele>
        <time>2020-10-17T09:42:13.000Z</time>
      </trkpt>
      <trkpt lat="47.18622" lon="-1.59864">
        <ele>56</ele>
        <time>2020-10-17T09:42:15.000Z</time>
      </trkpt>
      <trkpt lat="47.18617" lon="-1.59848">
        <ele>56</ele>
        <time>2020-10-17T09:42:17.000Z</time>
      </trkpt>
      <trkpt lat="47.18614" lon="-1.59832">
        <ele>56</ele>
        <time>2020-10-17T09:42:19.000Z</time>
      </trkpt>
      <trkpt lat="47.1862" lon="-1.5982">
        <ele>56</ele>
        <time>2020-10-17T09:42:21.000Z</time>
      </trkpt>
      <trkpt lat="47.18626" lon="-1.59807">
        <ele>56</ele>
        <time>2020-10-17T09:42:24.000Z</time>
      </trkpt>
      <trkpt lat="47.18629" lon="-1.59789">
        <ele>56</ele>
        <time>2020-10-17T09:42:26.000Z</time>
      </trkpt>
      <trkpt lat="47.18635" lon="-1.59772">
        <ele>56</ele>
        <time>2020-10-17T09:42:28.000Z</time>
      </trkpt>
      <trkpt lat="47.18645" lon="-1.59757">
        <ele>56</ele>
        <time>2020-10-17T09:42:30.000Z</time>
      </trkpt>
      <trkpt lat="47.18653" lon="-1.59739">
        <ele>56</ele>
        <time>2020-10-17T09:42:32.000Z</time>
      </trkpt>
      <trkpt lat="47.18657" lon="-1.59717">
        <ele>56</ele>
        <time>2020-10-17T09:42:34.000Z</time>
      </trkpt>
      <trkpt lat="47.18661" lon="-1.59696">
        <ele>55</ele>
        <time>2020-10-17T09:42:36.000Z</time>
      </trkpt>
      <trkpt lat="47.18665" lon="-1.59676">
        <ele>55</ele>
        <time>2020-10-17T09:42:38.000Z</time>
      </trkpt>
      <trkpt lat="47.1867" lon="-1.59657">
        <ele>56</ele>
        <time>2020-10-17T09:42:40.000Z</time>
      </trkpt>
      <trkpt lat="47.18674" lon="-1.59638">
        <ele>56</ele>
        <time>2020-10-17T09:42:42.000Z</time>
      </trkpt>
      <trkpt lat="47.18676" lon="-1.59617">
        <ele>56</ele>
        <time>2020-10-17T09:42:44.000Z</time>
      </trkpt>
      <trkpt lat="47.18679" lon="-1.59597">
        <ele>56</ele>
        <time>2020-10-17T09:42:46.000Z</time>
      </trkpt>
      <trkpt lat="47.18682" lon="-1.59576">
        <ele>56</ele>
        <time>2020-10-17T09:42:48.000Z</time>
      </trkpt>
      <trkpt lat="47.18684" lon="-1.59557">
        <ele>56</ele>
        <time>2020-10-17T09:42:50.000Z</time>
      </trkpt>
      <trkpt lat="47.18686" lon="-1.59537">
        <ele>56</ele>
        <time>2020-10-17T09:42:52.000Z</time>
      </trkpt>
      <trkpt lat="47.18688" lon="-1.59517">
        <ele>56</ele>
        <time>2020-10-17T09:42:54.000Z</time>
      </trkpt>
      <trkpt lat="47.18691" lon="-1.59497">
        <ele>56</ele>
        <time>2020-10-17T09:42:56.000Z</time>
      </trkpt>
      <trkpt lat="47.18693" lon="-1.59476">
        <ele>56</ele>
        <time>2020-10-17T09:42:58.000Z</time>
      </trkpt>
      <trkpt lat="47.18696" lon="-1.59457">
        <ele>56</ele>
        <time>2020-10-17T09:43:00.000Z</time>
      </trkpt>
      <trkpt lat="47.18698" lon="-1.59438">
        <ele>56</ele>
        <time>2020-10-17T09:43:02.000Z</time>
      </trkpt>
      <trkpt lat="47.187" lon="-1.59417">
        <ele>56</ele>
        <time>2020-10-17T09:43:04.000Z</time>
      </trkpt>
      <trkpt lat="47.18702" lon="-1.59398">
        <ele>56</ele>
        <time>2020-10-17T09:43:06.000Z</time>
      </trkpt>
      <trkpt lat="47.18704" lon="-1.59379">
        <ele>55</ele>
        <time>2020-10-17T09:43:08.000Z</time>
      </trkpt>
      <trkpt lat="47.18706" lon="-1.59359">
        <ele>55</ele>
        <time>2020-10-17T09:43:10.000Z</time>
      </trkpt>
      <trkpt lat="47.18708" lon="-1.5934">
        <ele>55</ele>
        <time>2020-10-17T09:43:12.000Z</time>
      </trkpt>
      <trkpt lat="47.1871" lon="-1.59321">
        <ele>54</ele>
        <time>2020-10-17T09:43:14.000Z</time>
      </trkpt>
      <trkpt lat="47.18713" lon="-1.59302">
        <ele>54</ele>
        <time>2020-10-17T09:43:16.000Z</time>
      </trkpt>
      <trkpt lat="47.18715" lon="-1.59284">
        <ele>54</ele>
        <time>2020-10-17T09:43:18.000Z</time>
      </trkpt>
      <trkpt lat="47.18717" lon="-1.59266">
        <ele>54</ele>
        <time>2020-10-17T09:43:20.000Z</time>
      </trkpt>
      <trkpt lat="47.18719" lon="-1.59247">
        <ele>54</ele>
        <time>2020-10-17T09:43:22.000Z</time>
      </trkpt>
      <trkpt lat="47.18721" lon="-1.59229">
        <ele>54</ele>
        <time>2020-10-17T09:43:24.000Z</time>
      </trkpt>
      <trkpt lat="47.18723" lon="-1.59211">
        <ele>54</ele>
        <time>2020-10-17T09:43:26.000Z</time>
      </trkpt>
      <trkpt lat="47.18725" lon="-1.59192">
        <ele>54</ele>
        <time>2020-10-17T09:43:28.000Z</time>
      </trkpt>
      <trkpt lat="47.18726" lon="-1.59174">
        <ele>54</ele>
        <time>2020-10-17T09:43:30.000Z</time>
      </trkpt>
      <trkpt lat="47.18729" lon="-1.59155">
        <ele>54</ele>
        <time>2020-10-17T09:43:32.000Z</time>
      </trkpt>
      <trkpt lat="47.18731" lon="-1.59136">
        <ele>54</ele>
        <time>2020-10-17T09:43:34.000Z</time>
      </trkpt>
      <trkpt lat="47.18733" lon="-1.59116">
        <ele>54</ele>
        <time>2020-10-17T09:43:36.000Z</time>
      </trkpt>
      <trkpt lat="47.18735" lon="-1.59096">
        <ele>54</ele>
        <time>2020-10-17T09:43:38.000Z</time>
      </trkpt>
      <trkpt lat="47.18738" lon="-1.59076">
        <ele>54</ele>
        <time>2020-10-17T09:43:40.000Z</time>
      </trkpt>
      <trkpt lat="47.1874" lon="-1.59057">
        <ele>54</ele>
        <time>2020-10-17T09:43:42.000Z</time>
      </trkpt>
      <trkpt lat="47.18741" lon="-1.59037">
        <ele>54</ele>
        <time>2020-10-17T09:43:44.000Z</time>
      </trkpt>
      <trkpt lat="47.18743" lon="-1.59018">
        <ele>54</ele>
        <time>2020-10-17T09:43:46.000Z</time>
      </trkpt>
      <trkpt lat="47.18745" lon="-1.58999">
        <ele>54</ele>
        <time>2020-10-17T09:43:48.000Z</time>
      </trkpt>
      <trkpt lat="47.18747" lon="-1.58979">
        <ele>55</ele>
        <time>2020-10-17T09:43:50.000Z</time>
      </trkpt>
      <trkpt lat="47.18749" lon="-1.58959">
        <ele>55</ele>
        <time>2020-10-17T09:43:52.000Z</time>
      </trkpt>
      <trkpt lat="47.18751" lon="-1.5894">
        <ele>55</ele>
        <time>2020-10-17T09:43:54.000Z</time>
      </trkpt>
      <trkpt lat="47.18753" lon="-1.58921">
        <ele>55</ele>
        <time>2020-10-17T09:43:56.000Z</time>
      </trkpt>
      <trkpt lat="47.18756" lon="-1.58901">
        <ele>55</ele>
        <time>2020-10-17T09:43:58.000Z</time>
      </trkpt>
      <trkpt lat="47.18757" lon="-1.58883">
        <ele>55</ele>
        <time>2020-10-17T09:44:00.000Z</time>
      </trkpt>
      <trkpt lat="47.18759" lon="-1.58865">
        <ele>54</ele>
        <time>2020-10-17T09:44:02.000Z</time>
      </trkpt>
      <trkpt lat="47.18761" lon="-1.58847">
        <ele>54</ele>
        <time>2020-10-17T09:44:04.000Z</time>
      </trkpt>
      <trkpt lat="47.18763" lon="-1.58829">
        <ele>54</ele>
        <time>2020-10-17T09:44:06.000Z</time>
      </trkpt>
      <trkpt lat="47.18764" lon="-1.5881">
        <ele>54</ele>
        <time>2020-10-17T09:44:08.000Z</time>
      </trkpt>
      <trkpt lat="47.18765" lon="-1.58791">
        <ele>54</ele>
        <time>2020-10-17T09:44:10.000Z</time>
      </trkpt>
      <trkpt lat="47.18761" lon="-1.58772">
        <ele>54</ele>
        <time>2020-10-17T09:44:12.000Z</time>
      </trkpt>
      <trkpt lat="47.18758" lon="-1.58753">
        <ele>55</ele>
        <time>2020-10-17T09:44:14.000Z</time>
      </trkpt>
      <trkpt lat="47.18761" lon="-1.58733">
        <ele>55</ele>
        <time>2020-10-17T09:44:16.000Z</time>
      </trkpt>
      <trkpt lat="47.18767" lon="-1.58716">
        <ele>54</ele>
        <time>2020-10-17T09:44:18.000Z</time>
      </trkpt>
      <trkpt lat="47.18777" lon="-1.58702">
        <ele>55</ele>
        <time>2020-10-17T09:44:20.000Z</time>
      </trkpt>
      <trkpt lat="47.18785" lon="-1.58688">
        <ele>55</ele>
        <time>2020-10-17T09:44:22.000Z</time>
      </trkpt>
      <trkpt lat="47.18789" lon="-1.58669">
        <ele>54</ele>
        <time>2020-10-17T09:44:24.000Z</time>
      </trkpt>
      <trkpt lat="47.18794" lon="-1.58649">
        <ele>55</ele>
        <time>2020-10-17T09:44:26.000Z</time>
      </trkpt>
      <trkpt lat="47.18798" lon="-1.58631">
        <ele>55</ele>
        <time>2020-10-17T09:44:28.000Z</time>
      </trkpt>
      <trkpt lat="47.18803" lon="-1.58612">
        <ele>55</ele>
        <time>2020-10-17T09:44:30.000Z</time>
      </trkpt>
      <trkpt lat="47.18808" lon="-1.58593">
        <ele>55</ele>
        <time>2020-10-17T09:44:32.000Z</time>
      </trkpt>
      <trkpt lat="47.18814" lon="-1.58574">
        <ele>55</ele>
        <time>2020-10-17T09:44:34.000Z</time>
      </trkpt>
      <trkpt lat="47.18819" lon="-1.58554">
        <ele>55</ele>
        <time>2020-10-17T09:44:36.000Z</time>
      </trkpt>
      <trkpt lat="47.18824" lon="-1.58535">
        <ele>54</ele>
        <time>2020-10-17T09:44:38.000Z</time>
      </trkpt>
      <trkpt lat="47.1883" lon="-1.58516">
        <ele>55</ele>
        <time>2020-10-17T09:44:40.000Z</time>
      </trkpt>
      <trkpt lat="47.18835" lon="-1.58497">
        <ele>54</ele>
        <time>2020-10-17T09:44:42.000Z</time>
      </trkpt>
      <trkpt lat="47.18841" lon="-1.58478">
        <ele>55</ele>
        <time>2020-10-17T09:44:44.000Z</time>
      </trkpt>
      <trkpt lat="47.18846" lon="-1.58459">
        <ele>55</ele>
        <time>2020-10-17T09:44:46.000Z</time>
      </trkpt>
      <trkpt lat="47.18851" lon="-1.5844">
        <ele>55</ele>
        <time>2020-10-17T09:44:48.000Z</time>
      </trkpt>
      <trkpt lat="47.18857" lon="-1.58422">
        <ele>56</ele>
        <time>2020-10-17T09:44:50.000Z</time>
      </trkpt>
      <trkpt lat="47.18863" lon="-1.58404">
        <ele>55</ele>
        <time>2020-10-17T09:44:52.000Z</time>
      </trkpt>
      <trkpt lat="47.18869" lon="-1.58386">
        <ele>56</ele>
        <time>2020-10-17T09:44:54.000Z</time>
      </trkpt>
      <trkpt lat="47.18875" lon="-1.58368">
        <ele>55</ele>
        <time>2020-10-17T09:44:56.000Z</time>
      </trkpt>
      <trkpt lat="47.18882" lon="-1.5835">
        <ele>55</ele>
        <time>2020-10-17T09:44:58.000Z</time>
      </trkpt>
      <trkpt lat="47.18887" lon="-1.58331">
        <ele>55</ele>
        <time>2020-10-17T09:45:00.000Z</time>
      </trkpt>
      <trkpt lat="47.18893" lon="-1.58313">
        <ele>56</ele>
        <time>2020-10-17T09:45:02.000Z</time>
      </trkpt>
      <trkpt lat="47.18899" lon="-1.58296">
        <ele>56</ele>
        <time>2020-10-17T09:45:04.000Z</time>
      </trkpt>
      <trkpt lat="47.18906" lon="-1.58277">
        <ele>56</ele>
        <time>2020-10-17T09:45:06.000Z</time>
      </trkpt>
      <trkpt lat="47.18912" lon="-1.58259">
        <ele>56</ele>
        <time>2020-10-17T09:45:08.000Z</time>
      </trkpt>
      <trkpt lat="47.18919" lon="-1.58241">
        <ele>56</ele>
        <time>2020-10-17T09:45:10.000Z</time>
      </trkpt>
      <trkpt lat="47.18926" lon="-1.58223">
        <ele>56</ele>
        <time>2020-10-17T09:45:12.000Z</time>
      </trkpt>
      <trkpt lat="47.18933" lon="-1.58205">
        <ele>56</ele>
        <time>2020-10-17T09:45:14.000Z</time>
      </trkpt>
      <trkpt lat="47.18939" lon="-1.58188">
        <ele>56</ele>
        <time>2020-10-17T09:45:16.000Z</time>
      </trkpt>
      <trkpt lat="47.18944" lon="-1.5817">
        <ele>56</ele>
        <time>2020-10-17T09:45:18.000Z</time>
      </trkpt>
      <trkpt lat="47.18951" lon="-1.58152">
        <ele>55</ele>
        <time>2020-10-17T09:45:20.000Z</time>
      </trkpt>
      <trkpt lat="47.18957" lon="-1.58133">
        <ele>56</ele>
        <time>2020-10-17T09:45:22.000Z</time>
      </trkpt>
      <trkpt lat="47.18964" lon="-1.58116">
        <ele>56</ele>
        <time>2020-10-17T09:45:24.000Z</time>
      </trkpt>
      <trkpt lat="47.1897" lon="-1.58098">
        <ele>56</ele>
        <time>2020-10-17T09:45:26.000Z</time>
      </trkpt>
      <trkpt lat="47.18976" lon="-1.58081">
        <ele>56</ele>
        <time>2020-10-17T09:45:28.000Z</time>
      </trkpt>
      <trkpt lat="47.18983" lon="-1.58063">
        <ele>57</ele>
        <time>2020-10-17T09:45:30.000Z</time>
      </trkpt>
      <trkpt lat="47.18989" lon="-1.58045">
        <ele>57</ele>
        <time>2020-10-17T09:45:32.000Z</time>
      </trkpt>
      <trkpt lat="47.18996" lon="-1.58027">
        <ele>57</ele>
        <time>2020-10-17T09:45:34.000Z</time>
      </trkpt>
      <trkpt lat="47.19002" lon="-1.58009">
        <ele>57</ele>
        <time>2020-10-17T09:45:36.000Z</time>
      </trkpt>
      <trkpt lat="47.19007" lon="-1.57991">
        <ele>57</ele>
        <time>2020-10-17T09:45:38.000Z</time>
      </trkpt>
      <trkpt lat="47.19014" lon="-1.57973">
        <ele>57</ele>
        <time>2020-10-17T09:45:40.000Z</time>
      </trkpt>
      <trkpt lat="47.19021" lon="-1.57955">
        <ele>56</ele>
        <time>2020-10-17T09:45:42.000Z</time>
      </trkpt>
      <trkpt lat="47.19027" lon="-1.57937">
        <ele>56</ele>
        <time>2020-10-17T09:45:44.000Z</time>
      </trkpt>
      <trkpt lat="47.19033" lon="-1.57919">
        <ele>56</ele>
        <time>2020-10-17T09:45:46.000Z</time>
      </trkpt>
      <trkpt lat="47.19039" lon="-1.57901">
        <ele>56</ele>
        <time>2020-10-17T09:45:48.000Z</time>
      </trkpt>
      <trkpt lat="47.19046" lon="-1.57883">
        <ele>56</ele>
        <time>2020-10-17T09:45:50.000Z</time>
      </trkpt>
      <trkpt lat="47.19052" lon="-1.57865">
        <ele>56</ele>
        <time>2020-10-17T09:45:52.000Z</time>
      </trkpt>
      <trkpt lat="47.19059" lon="-1.57846">
        <ele>56</ele>
        <time>2020-10-17T09:45:54.000Z</time>
      </trkpt>
      <trkpt lat="47.19066" lon="-1.57828">
        <ele>56</ele>
        <time>2020-10-17T09:45:56.000Z</time>
      </trkpt>
      <trkpt lat="47.19073" lon="-1.57809">
        <ele>56</ele>
        <time>2020-10-17T09:45:58.000Z</time>
      </trkpt>
      <trkpt lat="47.1908" lon="-1.5779">
        <ele>56</ele>
        <time>2020-10-17T09:46:00.000Z</time>
      </trkpt>
      <trkpt lat="47.19087" lon="-1.57771">
        <ele>56</ele>
        <time>2020-10-17T09:46:02.000Z</time>
      </trkpt>
      <trkpt lat="47.19093" lon="-1.57753">
        <ele>57</ele>
        <time>2020-10-17T09:46:04.000Z</time>
      </trkpt>
      <trkpt lat="47.19099" lon="-1.57735">
        <ele>56</ele>
        <time>2020-10-17T09:46:06.000Z</time>
      </trkpt>
      <trkpt lat="47.19105" lon="-1.57717">
        <ele>56</ele>
        <time>2020-10-17T09:46:08.000Z</time>
      </trkpt>
      <trkpt lat="47.19112" lon="-1.57699">
        <ele>56</ele>
        <time>2020-10-17T09:46:10.000Z</time>
      </trkpt>
      <trkpt lat="47.19119" lon="-1.5768">
        <ele>57</ele>
        <time>2020-10-17T09:46:12.000Z</time>
      </trkpt>
      <trkpt lat="47.19125" lon="-1.57662">
        <ele>57</ele>
        <time>2020-10-17T09:46:14.000Z</time>
      </trkpt>
      <trkpt lat="47.19131" lon="-1.57645">
        <ele>57</ele>
        <time>2020-10-17T09:46:16.000Z</time>
      </trkpt>
      <trkpt lat="47.19138" lon="-1.57626">
        <ele>57</ele>
        <time>2020-10-17T09:46:18.000Z</time>
      </trkpt>
      <trkpt lat="47.19144" lon="-1.57608">
        <ele>57</ele>
        <time>2020-10-17T09:46:20.000Z</time>
      </trkpt>
      <trkpt lat="47.19151" lon="-1.57589">
        <ele>57</ele>
        <time>2020-10-17T09:46:22.000Z</time>
      </trkpt>
      <trkpt lat="47.19157" lon="-1.57571">
        <ele>57</ele>
        <time>2020-10-17T09:46:24.000Z</time>
      </trkpt>
      <trkpt lat="47.19163" lon="-1.57552">
        <ele>57</ele>
        <time>2020-10-17T09:46:26.000Z</time>
      </trkpt>
      <trkpt lat="47.1917" lon="-1.57533">
        <ele>57</ele>
        <time>2020-10-17T09:46:28.000Z</time>
      </trkpt>
      <trkpt lat="47.19177" lon="-1.57515">
        <ele>57</ele>
        <time>2020-10-17T09:46:30.000Z</time>
      </trkpt>
      <trkpt lat="47.19183" lon="-1.57496">
        <ele>57</ele>
        <time>2020-10-17T09:46:32.000Z</time>
      </trkpt>
      <trkpt lat="47.19189" lon="-1.57477">
        <ele>57</ele>
        <time>2020-10-17T09:46:34.000Z</time>
      </trkpt>
      <trkpt lat="47.19195" lon="-1.57457">
        <ele>57</ele>
        <time>2020-10-17T09:46:36.000Z</time>
      </trkpt>
      <trkpt lat="47.192" lon="-1.57437">
        <ele>57</ele>
        <time>2020-10-17T09:46:38.000Z</time>
      </trkpt>
      <trkpt lat="47.19206" lon="-1.57418">
        <ele>57</ele>
        <time>2020-10-17T09:46:40.000Z</time>
      </trkpt>
      <trkpt lat="47.19211" lon="-1.57399">
        <ele>57</ele>
        <time>2020-10-17T09:46:42.000Z</time>
      </trkpt>
      <trkpt lat="47.19215" lon="-1.57379">
        <ele>57</ele>
        <time>2020-10-17T09:46:44.000Z</time>
      </trkpt>
      <trkpt lat="47.19221" lon="-1.5736">
        <ele>57</ele>
        <time>2020-10-17T09:46:46.000Z</time>
      </trkpt>
      <trkpt lat="47.19225" lon="-1.5734">
        <ele>57</ele>
        <time>2020-10-17T09:46:48.000Z</time>
      </trkpt>
      <trkpt lat="47.19229" lon="-1.57321">
        <ele>57</ele>
        <time>2020-10-17T09:46:50.000Z</time>
      </trkpt>
      <trkpt lat="47.19233" lon="-1.57301">
        <ele>57</ele>
        <time>2020-10-17T09:46:52.000Z</time>
      </trkpt>
      <trkpt lat="47.19235" lon="-1.5728">
        <ele>57</ele>
        <time>2020-10-17T09:46:54.000Z</time>
      </trkpt>
      <trkpt lat="47.19237" lon="-1.5726">
        <ele>57</ele>
        <time>2020-10-17T09:46:56.000Z</time>
      </trkpt>
      <trkpt lat="47.1924" lon="-1.5724">
        <ele>56</ele>
        <time>2020-10-17T09:46:58.000Z</time>
      </trkpt>
      <trkpt lat="47.19243" lon="-1.57219">
        <ele>56</ele>
        <time>2020-10-17T09:47:00.000Z</time>
      </trkpt>
      <trkpt lat="47.19246" lon="-1.57199">
        <ele>56</ele>
        <time>2020-10-17T09:47:02.000Z</time>
      </trkpt>
      <trkpt lat="47.19249" lon="-1.57181">
        <ele>57</ele>
        <time>2020-10-17T09:47:04.000Z</time>
      </trkpt>
      <trkpt lat="47.19252" lon="-1.57162">
        <ele>57</ele>
        <time>2020-10-17T09:47:06.000Z</time>
      </trkpt>
      <trkpt lat="47.19255" lon="-1.57142">
        <ele>57</ele>
        <time>2020-10-17T09:47:08.000Z</time>
      </trkpt>
      <trkpt lat="47.19257" lon="-1.57122">
        <ele>56</ele>
        <time>2020-10-17T09:47:10.000Z</time>
      </trkpt>
      <trkpt lat="47.1926" lon="-1.57103">
        <ele>56</ele>
        <time>2020-10-17T09:47:12.000Z</time>
      </trkpt>
      <trkpt lat="47.19262" lon="-1.57086">
        <ele>56</ele>
        <time>2020-10-17T09:47:14.000Z</time>
      </trkpt>
      <trkpt lat="47.19262" lon="-1.57073">
        <ele>56</ele>
        <time>2020-10-17T09:47:18.000Z</time>
      </trkpt>
      <trkpt lat="47.19256" lon="-1.57061">
        <ele>56</ele>
        <time>2020-10-17T09:47:24.000Z</time>
      </trkpt>
      <trkpt lat="47.19253" lon="-1.57045">
        <ele>56</ele>
        <time>2020-10-17T09:47:26.000Z</time>
      </trkpt>
      <trkpt lat="47.19259" lon="-1.57029">
        <ele>55</ele>
        <time>2020-10-17T09:47:28.000Z</time>
      </trkpt>
      <trkpt lat="47.19268" lon="-1.57014">
        <ele>55</ele>
        <time>2020-10-17T09:47:30.000Z</time>
      </trkpt>
      <trkpt lat="47.19273" lon="-1.56993">
        <ele>55</ele>
        <time>2020-10-17T09:47:32.000Z</time>
      </trkpt>
      <trkpt lat="47.19276" lon="-1.56973">
        <ele>55</ele>
        <time>2020-10-17T09:47:34.000Z</time>
      </trkpt>
      <trkpt lat="47.19278" lon="-1.56953">
        <ele>55</ele>
        <time>2020-10-17T09:47:36.000Z</time>
      </trkpt>
      <trkpt lat="47.1928" lon="-1.56933">
        <ele>55</ele>
        <time>2020-10-17T09:47:38.000Z</time>
      </trkpt>
      <trkpt lat="47.1928" lon="-1.56914">
        <ele>55</ele>
        <time>2020-10-17T09:47:40.000Z</time>
      </trkpt>
      <trkpt lat="47.19281" lon="-1.56895">
        <ele>56</ele>
        <time>2020-10-17T09:47:42.000Z</time>
      </trkpt>
      <trkpt lat="47.19283" lon="-1.56875">
        <ele>56</ele>
        <time>2020-10-17T09:47:44.000Z</time>
      </trkpt>
      <trkpt lat="47.19284" lon="-1.56856">
        <ele>56</ele>
        <time>2020-10-17T09:47:46.000Z</time>
      </trkpt>
      <trkpt lat="47.19285" lon="-1.56838">
        <ele>56</ele>
        <time>2020-10-17T09:47:48.000Z</time>
      </trkpt>
      <trkpt lat="47.19286" lon="-1.56818">
        <ele>56</ele>
        <time>2020-10-17T09:47:50.000Z</time>
      </trkpt>
      <trkpt lat="47.19287" lon="-1.56798">
        <ele>57</ele>
        <time>2020-10-17T09:47:52.000Z</time>
      </trkpt>
      <trkpt lat="47.19289" lon="-1.56778">
        <ele>57</ele>
        <time>2020-10-17T09:47:54.000Z</time>
      </trkpt>
      <trkpt lat="47.1929" lon="-1.56759">
        <ele>57</ele>
        <time>2020-10-17T09:47:56.000Z</time>
      </trkpt>
      <trkpt lat="47.19289" lon="-1.56739">
        <ele>57</ele>
        <time>2020-10-17T09:47:58.000Z</time>
      </trkpt>
      <trkpt lat="47.19289" lon="-1.5672">
        <ele>57</ele>
        <time>2020-10-17T09:48:00.000Z</time>
      </trkpt>
      <trkpt lat="47.19288" lon="-1.56702">
        <ele>57</ele>
        <time>2020-10-17T09:48:02.000Z</time>
      </trkpt>
      <trkpt lat="47.19287" lon="-1.56683">
        <ele>57</ele>
        <time>2020-10-17T09:48:04.000Z</time>
      </trkpt>
      <trkpt lat="47.19287" lon="-1.56664">
        <ele>57</ele>
        <time>2020-10-17T09:48:06.000Z</time>
      </trkpt>
      <trkpt lat="47.19285" lon="-1.56646">
        <ele>56</ele>
        <time>2020-10-17T09:48:08.000Z</time>
      </trkpt>
      <trkpt lat="47.19283" lon="-1.56628">
        <ele>56</ele>
        <time>2020-10-17T09:48:10.000Z</time>
      </trkpt>
      <trkpt lat="47.19282" lon="-1.5661">
        <ele>56</ele>
        <time>2020-10-17T09:48:12.000Z</time>
      </trkpt>
      <trkpt lat="47.1928" lon="-1.56592">
        <ele>57</ele>
        <time>2020-10-17T09:48:14.000Z</time>
      </trkpt>
      <trkpt lat="47.19278" lon="-1.56574">
        <ele>57</ele>
        <time>2020-10-17T09:48:16.000Z</time>
      </trkpt>
      <trkpt lat="47.19277" lon="-1.56555">
        <ele>57</ele>
        <time>2020-10-17T09:48:18.000Z</time>
      </trkpt>
      <trkpt lat="47.19276" lon="-1.56537">
        <ele>57</ele>
        <time>2020-10-17T09:48:20.000Z</time>
      </trkpt>
      <trkpt lat="47.19274" lon="-1.56519">
        <ele>57</ele>
        <time>2020-10-17T09:48:22.000Z</time>
      </trkpt>
      <trkpt lat="47.19272" lon="-1.56501">
        <ele>57</ele>
        <time>2020-10-17T09:48:24.000Z</time>
      </trkpt>
      <trkpt lat="47.1927" lon="-1.56483">
        <ele>57</ele>
        <time>2020-10-17T09:48:26.000Z</time>
      </trkpt>
      <trkpt lat="47.19268" lon="-1.56465">
        <ele>56</ele>
        <time>2020-10-17T09:48:28.000Z</time>
      </trkpt>
      <trkpt lat="47.19266" lon="-1.56447">
        <ele>56</ele>
        <time>2020-10-17T09:48:30.000Z</time>
      </trkpt>
      <trkpt lat="47.19265" lon="-1.56428">
        <ele>56</ele>
        <time>2020-10-17T09:48:32.000Z</time>
      </trkpt>
      <trkpt lat="47.19264" lon="-1.5641">
        <ele>56</ele>
        <time>2020-10-17T09:48:34.000Z</time>
      </trkpt>
      <trkpt lat="47.19263" lon="-1.56392">
        <ele>57</ele>
        <time>2020-10-17T09:48:36.000Z</time>
      </trkpt>
      <trkpt lat="47.19261" lon="-1.56375">
        <ele>56</ele>
        <time>2020-10-17T09:48:38.000Z</time>
      </trkpt>
      <trkpt lat="47.19259" lon="-1.56357">
        <ele>57</ele>
        <time>2020-10-17T09:48:40.000Z</time>
      </trkpt>
      <trkpt lat="47.19255" lon="-1.56341">
        <ele>57</ele>
        <time>2020-10-17T09:48:42.000Z</time>
      </trkpt>
      <trkpt lat="47.19248" lon="-1.56326">
        <ele>57</ele>
        <time>2020-10-17T09:48:44.000Z</time>
      </trkpt>
      <trkpt lat="47.19239" lon="-1.56314">
        <ele>57</ele>
        <time>2020-10-17T09:48:46.000Z</time>
      </trkpt>
      <trkpt lat="47.19233" lon="-1.56299">
        <ele>57</ele>
        <time>2020-10-17T09:48:48.000Z</time>
      </trkpt>
      <trkpt lat="47.19233" lon="-1.56281">
        <ele>57</ele>
        <time>2020-10-17T09:48:50.000Z</time>
      </trkpt>
      <trkpt lat="47.19237" lon="-1.56264">
        <ele>57</ele>
        <time>2020-10-17T09:48:52.000Z</time>
      </trkpt>
      <trkpt lat="47.19244" lon="-1.56248">
        <ele>57</ele>
        <time>2020-10-17T09:48:54.000Z</time>
      </trkpt>
      <trkpt lat="47.19245" lon="-1.5623">
        <ele>57</ele>
        <time>2020-10-17T09:48:56.000Z</time>
      </trkpt>
      <trkpt lat="47.19243" lon="-1.56211">
        <ele>57</ele>
        <time>2020-10-17T09:48:58.000Z</time>
      </trkpt>
      <trkpt lat="47.19243" lon="-1.56192">
        <ele>57</ele>
        <time>2020-10-17T09:49:00.000Z</time>
      </trkpt>
      <trkpt lat="47.19244" lon="-1.56173">
        <ele>57</ele>
        <time>2020-10-17T09:49:02.000Z</time>
      </trkpt>
      <trkpt lat="47.19244" lon="-1.56155">
        <ele>56</ele>
        <time>2020-10-17T09:49:04.000Z</time>
      </trkpt>
      <trkpt lat="47.19243" lon="-1.56136">
        <ele>57</ele>
        <time>2020-10-17T09:49:06.000Z</time>
      </trkpt>
      <trkpt lat="47.19243" lon="-1.56118">
        <ele>56</ele>
        <time>2020-10-17T09:49:08.000Z</time>
      </trkpt>
      <trkpt lat="47.19242" lon="-1.56099">
        <ele>56</ele>
        <time>2020-10-17T09:49:10.000Z</time>
      </trkpt>
      <trkpt lat="47.19241" lon="-1.5608">
        <ele>56</ele>
        <time>2020-10-17T09:49:12.000Z</time>
      </trkpt>
      <trkpt lat="47.1924" lon="-1.56061">
        <ele>56</ele>
        <time>2020-10-17T09:49:14.000Z</time>
      </trkpt>
      <trkpt lat="47.19238" lon="-1.56042">
        <ele>56</ele>
        <time>2020-10-17T09:49:16.000Z</time>
      </trkpt>
      <trkpt lat="47.19237" lon="-1.56024">
        <ele>56</ele>
        <time>2020-10-17T09:49:18.000Z</time>
      </trkpt>
      <trkpt lat="47.19235" lon="-1.56005">
        <ele>56</ele>
        <time>2020-10-17T09:49:20.000Z</time>
      </trkpt>
      <trkpt lat="47.19233" lon="-1.55987">
        <ele>56</ele>
        <time>2020-10-17T09:49:22.000Z</time>
      </trkpt>
      <trkpt lat="47.1923" lon="-1.55969">
        <ele>56</ele>
        <time>2020-10-17T09:49:24.000Z</time>
      </trkpt>
      <trkpt lat="47.19228" lon="-1.55951">
        <ele>56</ele>
        <time>2020-10-17T09:49:26.000Z</time>
      </trkpt>
      <trkpt lat="47.19226" lon="-1.55932">
        <ele>56</ele>
        <time>2020-10-17T09:49:28.000Z</time>
      </trkpt>
      <trkpt lat="47.19225" lon="-1.55915">
        <ele>56</ele>
        <time>2020-10-17T09:49:30.000Z</time>
      </trkpt>
      <trkpt lat="47.19223" lon="-1.55896">
        <ele>57</ele>
        <time>2020-10-17T09:49:32.000Z</time>
      </trkpt>
      <trkpt lat="47.19221" lon="-1.55878">
        <ele>57</ele>
        <time>2020-10-17T09:49:34.000Z</time>
      </trkpt>
      <trkpt lat="47.19221" lon="-1.55859">
        <ele>57</ele>
        <time>2020-10-17T09:49:36.000Z</time>
      </trkpt>
      <trkpt lat="47.1922" lon="-1.55839">
        <ele>57</ele>
        <time>2020-10-17T09:49:38.000Z</time>
      </trkpt>
      <trkpt lat="47.19219" lon="-1.5582">
        <ele>57</ele>
        <time>2020-10-17T09:49:40.000Z</time>
      </trkpt>
      <trkpt lat="47.19218" lon="-1.55801">
        <ele>57</ele>
        <time>2020-10-17T09:49:42.000Z</time>
      </trkpt>
      <trkpt lat="47.19217" lon="-1.55782">
        <ele>57</ele>
        <time>2020-10-17T09:49:44.000Z</time>
      </trkpt>
      <trkpt lat="47.19217" lon="-1.55762">
        <ele>57</ele>
        <time>2020-10-17T09:49:46.000Z</time>
      </trkpt>
      <trkpt lat="47.19216" lon="-1.55743">
        <ele>57</ele>
        <time>2020-10-17T09:49:48.000Z</time>
      </trkpt>
      <trkpt lat="47.19217" lon="-1.55724">
        <ele>57</ele>
        <time>2020-10-17T09:49:50.000Z</time>
      </trkpt>
      <trkpt lat="47.19217" lon="-1.55704">
        <ele>57</ele>
        <time>2020-10-17T09:49:52.000Z</time>
      </trkpt>
      <trkpt lat="47.19218" lon="-1.55684">
        <ele>57</ele>
        <time>2020-10-17T09:49:54.000Z</time>
      </trkpt>
      <trkpt lat="47.19219" lon="-1.55665">
        <ele>57</ele>
        <time>2020-10-17T09:49:56.000Z</time>
      </trkpt>
      <trkpt lat="47.19219" lon="-1.55646">
        <ele>57</ele>
        <time>2020-10-17T09:49:58.000Z</time>
      </trkpt>
      <trkpt lat="47.19221" lon="-1.55626">
        <ele>57</ele>
        <time>2020-10-17T09:50:00.000Z</time>
      </trkpt>
      <trkpt lat="47.19222" lon="-1.55606">
        <ele>57</ele>
        <time>2020-10-17T09:50:02.000Z</time>
      </trkpt>
      <trkpt lat="47.19224" lon="-1.55587">
        <ele>57</ele>
        <time>2020-10-17T09:50:04.000Z</time>
      </trkpt>
      <trkpt lat="47.19226" lon="-1.55568">
        <ele>57</ele>
        <time>2020-10-17T09:50:06.000Z</time>
      </trkpt>
      <trkpt lat="47.19228" lon="-1.55549">
        <ele>57</ele>
        <time>2020-10-17T09:50:08.000Z</time>
      </trkpt>
      <trkpt lat="47.1923" lon="-1.5553">
        <ele>57</ele>
        <time>2020-10-17T09:50:10.000Z</time>
      </trkpt>
      <trkpt lat="47.19231" lon="-1.55512">
        <ele>57</ele>
        <time>2020-10-17T09:50:12.000Z</time>
      </trkpt>
      <trkpt lat="47.19232" lon="-1.55493">
        <ele>57</ele>
        <time>2020-10-17T09:50:14.000Z</time>
      </trkpt>
      <trkpt lat="47.19231" lon="-1.55475">
        <ele>57</ele>
        <time>2020-10-17T09:50:16.000Z</time>
      </trkpt>
      <trkpt lat="47.19225" lon="-1.5546">
        <ele>57</ele>
        <time>2020-10-17T09:50:18.000Z</time>
      </trkpt>
      <trkpt lat="47.19216" lon="-1.55445">
        <ele>56</ele>
        <time>2020-10-17T09:50:20.000Z</time>
      </trkpt>
      <trkpt lat="47.19215" lon="-1.55426">
        <ele>57</ele>
        <time>2020-10-17T09:50:22.000Z</time>
      </trkpt>
      <trkpt lat="47.19223" lon="-1.55409">
        <ele>57</ele>
        <time>2020-10-17T09:50:24.000Z</time>
      </trkpt>
      <trkpt lat="47.19234" lon="-1.55398">
        <ele>57</ele>
        <time>2020-10-17T09:50:26.000Z</time>
      </trkpt>
      <trkpt lat="47.19242" lon="-1.55384">
        <ele>58</ele>
        <time>2020-10-17T09:50:28.000Z</time>
      </trkpt>
      <trkpt lat="47.19247" lon="-1.55366">
        <ele>57</ele>
        <time>2020-10-17T09:50:30.000Z</time>
      </trkpt>
      <trkpt lat="47.19252" lon="-1.55349">
        <ele>57</ele>
        <time>2020-10-17T09:50:32.000Z</time>
      </trkpt>
      <trkpt lat="47.19257" lon="-1.55331">
        <ele>57</ele>
        <time>2020-10-17T09:50:34.000Z</time>
      </trkpt>
      <trkpt lat="47.19261" lon="-1.55313">
        <ele>57</ele>
        <time>2020-10-17T09:50:36.000Z</time>
      </trkpt>
      <trkpt lat="47.19265" lon="-1.55296">
        <ele>57</ele>
        <time>2020-10-17T09:50:38.000Z</time>
      </trkpt>
      <trkpt lat="47.19269" lon="-1.55278">
        <ele>57</ele>
        <time>2020-10-17T09:50:40.000Z</time>
      </trkpt>
      <trkpt lat="47.19273" lon="-1.55259">
        <ele>56</ele>
        <time>2020-10-17T09:50:42.000Z</time>
      </trkpt>
      <trkpt lat="47.19277" lon="-1.55242">
        <ele>57</ele>
        <time>2020-10-17T09:50:44.000Z</time>
      </trkpt>
      <trkpt lat="47.19281" lon="-1.55224">
        <ele>56</ele>
        <time>2020-10-17T09:50:46.000Z</time>
      </trkpt>
      <trkpt lat="47.19285" lon="-1.55206">
        <ele>56</ele>
        <time>2020-10-17T09:50:48.000Z</time>
      </trkpt>
      <trkpt lat="47.1929" lon="-1.55188">
        <ele>57</ele>
        <time>2020-10-17T09:50:50.000Z</time>
      </trkpt>
      <trkpt lat="47.19295" lon="-1.55172">
        <ele>57</ele>
        <time>2020-10-17T09:50:52.000Z</time>
      </trkpt>
      <trkpt lat="47.193" lon="-1.55155">
        <ele>57</ele>
        <time>2020-10-17T09:50:54.000Z</time>
      </trkpt>
      <trkpt lat="47.19304" lon="-1.55138">
        <ele>58</ele>
        <time>2020-10-17T09:50:56.000Z</time>
      </trkpt>
      <trkpt lat="47.19308" lon="-1.55122">
        <ele>59</ele>
        <time>2020-10-17T09:50:58.000Z</time>
      </trkpt>
      <trkpt lat="47.19312" lon="-1.55105">
        <ele>59</ele>
        <time>2020-10-17T09:51:00.000Z</time>
      </trkpt>
      <trkpt lat="47.19316" lon="-1.55088">
        <ele>59</ele>
        <time>2020-10-17T09:51:02.000Z</time>
      </trkpt>
      <trkpt lat="47.1932" lon="-1.55072">
        <ele>59</ele>
        <time>2020-10-17T09:51:04.000Z</time>
      </trkpt>
      <trkpt lat="47.19324" lon="-1.55055">
        <ele>60</ele>
        <time>2020-10-17T09:51:06.000Z</time>
      </trkpt>
      <trkpt lat="47.19329" lon="-1.55038">
        <ele>60</ele>
        <time>2020-10-17T09:51:08.000Z</time>
      </trkpt>
      <trkpt lat="47.19333" lon="-1.55022">
        <ele>61</ele>
        <time>2020-10-17T09:51:10.000Z</time>
      </trkpt>
      <trkpt lat="47.19337" lon="-1.55005">
        <ele>62</ele>
        <time>2020-10-17T09:51:12.000Z</time>
      </trkpt>
      <trkpt lat="47.19341" lon="-1.54988">
        <ele>62</ele>
        <time>2020-10-17T09:51:14.000Z</time>
      </trkpt>
      <trkpt lat="47.19345" lon="-1.54972">
        <ele>62</ele>
        <time>2020-10-17T09:51:16.000Z</time>
      </trkpt>
      <trkpt lat="47.19349" lon="-1.54956">
        <ele>63</ele>
        <time>2020-10-17T09:51:18.000Z</time>
      </trkpt>
      <trkpt lat="47.19353" lon="-1.5494">
        <ele>63</ele>
        <time>2020-10-17T09:51:20.000Z</time>
      </trkpt>
      <trkpt lat="47.19357" lon="-1.54924">
        <ele>63</ele>
        <time>2020-10-17T09:51:22.000Z</time>
      </trkpt>
      <trkpt lat="47.19361" lon="-1.54906">
        <ele>62</ele>
        <time>2020-10-17T09:51:24.000Z</time>
      </trkpt>
      <trkpt lat="47.19365" lon="-1.54889">
        <ele>62</ele>
        <time>2020-10-17T09:51:26.000Z</time>
      </trkpt>
      <trkpt lat="47.19369" lon="-1.5487">
        <ele>62</ele>
        <time>2020-10-17T09:51:28.000Z</time>
      </trkpt>
      <trkpt lat="47.19374" lon="-1.54852">
        <ele>62</ele>
        <time>2020-10-17T09:51:30.000Z</time>
      </trkpt>
      <trkpt lat="47.19378" lon="-1.54832">
        <ele>61</ele>
        <time>2020-10-17T09:51:32.000Z</time>
      </trkpt>
      <trkpt lat="47.19383" lon="-1.54812">
        <ele>61</ele>
        <time>2020-10-17T09:51:34.000Z</time>
      </trkpt>
      <trkpt lat="47.19388" lon="-1.54792">
        <ele>61</ele>
        <time>2020-10-17T09:51:36.000Z</time>
      </trkpt>
      <trkpt lat="47.19394" lon="-1.5477">
        <ele>60</ele>
        <time>2020-10-17T09:51:38.000Z</time>
      </trkpt>
      <trkpt lat="47.19399" lon="-1.54749">
        <ele>59</ele>
        <time>2020-10-17T09:51:40.000Z</time>
      </trkpt>
      <trkpt lat="47.19405" lon="-1.54726">
        <ele>59</ele>
        <time>2020-10-17T09:51:42.000Z</time>
      </trkpt>
      <trkpt lat="47.1941" lon="-1.54704">
        <ele>58</ele>
        <time>2020-10-17T09:51:44.000Z</time>
      </trkpt>
      <trkpt lat="47.19415" lon="-1.54682">
        <ele>58</ele>
        <time>2020-10-17T09:51:46.000Z</time>
      </trkpt>
      <trkpt lat="47.19421" lon="-1.54664">
        <ele>58</ele>
        <time>2020-10-17T09:51:48.000Z</time>
      </trkpt>
      <trkpt lat="47.19426" lon="-1.54647">
        <ele>58</ele>
        <time>2020-10-17T09:51:50.000Z</time>
      </trkpt>
      <trkpt lat="47.1943" lon="-1.54633">
        <ele>57</ele>
        <time>2020-10-17T09:51:53.000Z</time>
      </trkpt>
      <trkpt lat="47.19429" lon="-1.54615">
        <ele>57</ele>
        <time>2020-10-17T09:51:56.000Z</time>
      </trkpt>
      <trkpt lat="47.19421" lon="-1.54602">
        <ele>57</ele>
        <time>2020-10-17T09:51:58.000Z</time>
      </trkpt>
      <trkpt lat="47.1942" lon="-1.54586">
        <ele>58</ele>
        <time>2020-10-17T09:52:00.000Z</time>
      </trkpt>
      <trkpt lat="47.19427" lon="-1.5457">
        <ele>58</ele>
        <time>2020-10-17T09:52:02.000Z</time>
      </trkpt>
      <trkpt lat="47.19438" lon="-1.54557">
        <ele>58</ele>
        <time>2020-10-17T09:52:04.000Z</time>
      </trkpt>
      <trkpt lat="47.19448" lon="-1.54547">
        <ele>57</ele>
        <time>2020-10-17T09:52:06.000Z</time>
      </trkpt>
      <trkpt lat="47.19455" lon="-1.5453">
        <ele>57</ele>
        <time>2020-10-17T09:52:08.000Z</time>
      </trkpt>
      <trkpt lat="47.19461" lon="-1.54512">
        <ele>57</ele>
        <time>2020-10-17T09:52:10.000Z</time>
      </trkpt>
      <trkpt lat="47.19467" lon="-1.54494">
        <ele>57</ele>
        <time>2020-10-17T09:52:12.000Z</time>
      </trkpt>
      <trkpt lat="47.19472" lon="-1.54477">
        <ele>57</ele>
        <time>2020-10-17T09:52:14.000Z</time>
      </trkpt>
      <trkpt lat="47.19479" lon="-1.54463">
        <ele>58</ele>
        <time>2020-10-17T09:52:16.000Z</time>
      </trkpt>
      <trkpt lat="47.19491" lon="-1.54454">
        <ele>58</ele>
        <time>2020-10-17T09:52:18.000Z</time>
      </trkpt>
      <trkpt lat="47.19503" lon="-1.54445">
        <ele>58</ele>
        <time>2020-10-17T09:52:20.000Z</time>
      </trkpt>
      <trkpt lat="47.19515" lon="-1.54436">
        <ele>58</ele>
        <time>2020-10-17T09:52:22.000Z</time>
      </trkpt>
      <trkpt lat="47.19526" lon="-1.54428">
        <ele>59</ele>
        <time>2020-10-17T09:52:24.000Z</time>
      </trkpt>
      <trkpt lat="47.19536" lon="-1.54419">
        <ele>58</ele>
        <time>2020-10-17T09:52:26.000Z</time>
      </trkpt>
      <trkpt lat="47.19548" lon="-1.54409">
        <ele>58</ele>
        <time>2020-10-17T09:52:28.000Z</time>
      </trkpt>
      <trkpt lat="47.19559" lon="-1.544">
        <ele>58</ele>
        <time>2020-10-17T09:52:30.000Z</time>
      </trkpt>
      <trkpt lat="47.1957" lon="-1.54392">
        <ele>58</ele>
        <time>2020-10-17T09:52:32.000Z</time>
      </trkpt>
      <trkpt lat="47.19582" lon="-1.54383">
        <ele>58</ele>
        <time>2020-10-17T09:52:34.000Z</time>
      </trkpt>
      <trkpt lat="47.19593" lon="-1.54373">
        <ele>57</ele>
        <time>2020-10-17T09:52:36.000Z</time>
      </trkpt>
      <trkpt lat="47.19605" lon="-1.54362">
        <ele>57</ele>
        <time>2020-10-17T09:52:38.000Z</time>
      </trkpt>
      <trkpt lat="47.19615" lon="-1.5435">
        <ele>57</ele>
        <time>2020-10-17T09:52:40.000Z</time>
      </trkpt>
      <trkpt lat="47.19625" lon="-1.54336">
        <ele>57</ele>
        <time>2020-10-17T09:52:42.000Z</time>
      </trkpt>
      <trkpt lat="47.19635" lon="-1.54321">
        <ele>57</ele>
        <time>2020-10-17T09:52:44.000Z</time>
      </trkpt>
      <trkpt lat="47.19646" lon="-1.54308">
        <ele>57</ele>
        <time>2020-10-17T09:52:46.000Z</time>
      </trkpt>
      <trkpt lat="47.19658" lon="-1.54299">
        <ele>57</ele>
        <time>2020-10-17T09:52:48.000Z</time>
      </trkpt>
      <trkpt lat="47.1967" lon="-1.54289">
        <ele>56</ele>
        <time>2020-10-17T09:52:50.000Z</time>
      </trkpt>
      <trkpt lat="47.19681" lon="-1.5428">
        <ele>56</ele>
        <time>2020-10-17T09:52:52.000Z</time>
      </trkpt>
      <trkpt lat="47.19693" lon="-1.54271">
        <ele>56</ele>
        <time>2020-10-17T09:52:54.000Z</time>
      </trkpt>
      <trkpt lat="47.19706" lon="-1.54263">
        <ele>56</ele>
        <time>2020-10-17T09:52:56.000Z</time>
      </trkpt>
      <trkpt lat="47.19718" lon="-1.54255">
        <ele>56</ele>
        <time>2020-10-17T09:52:58.000Z</time>
      </trkpt>
      <trkpt lat="47.1973" lon="-1.54246">
        <ele>56</ele>
        <time>2020-10-17T09:53:00.000Z</time>
      </trkpt>
      <trkpt lat="47.1974" lon="-1.54237">
        <ele>56</ele>
        <time>2020-10-17T09:53:02.000Z</time>
      </trkpt>
      <trkpt lat="47.1975" lon="-1.54226">
        <ele>56</ele>
        <time>2020-10-17T09:53:04.000Z</time>
      </trkpt>
      <trkpt lat="47.19759" lon="-1.54218">
        <ele>57</ele>
        <time>2020-10-17T09:53:06.000Z</time>
      </trkpt>
      <trkpt lat="47.19767" lon="-1.54208">
        <ele>57</ele>
        <time>2020-10-17T09:53:08.000Z</time>
      </trkpt>
      <trkpt lat="47.19776" lon="-1.542">
        <ele>58</ele>
        <time>2020-10-17T09:53:10.000Z</time>
      </trkpt>
      <trkpt lat="47.19784" lon="-1.54191">
        <ele>58</ele>
        <time>2020-10-17T09:53:12.000Z</time>
      </trkpt>
      <trkpt lat="47.19789" lon="-1.54176">
        <ele>58</ele>
        <time>2020-10-17T09:53:14.000Z</time>
      </trkpt>
      <trkpt lat="47.19793" lon="-1.54161">
        <ele>58</ele>
        <time>2020-10-17T09:53:16.000Z</time>
      </trkpt>
      <trkpt lat="47.19795" lon="-1.54144">
        <ele>58</ele>
        <time>2020-10-17T09:53:18.000Z</time>
      </trkpt>
      <trkpt lat="47.19798" lon="-1.54125">
        <ele>57</ele>
        <time>2020-10-17T09:53:20.000Z</time>
      </trkpt>
      <trkpt lat="47.19808" lon="-1.54111">
        <ele>57</ele>
        <time>2020-10-17T09:53:22.000Z</time>
      </trkpt>
      <trkpt lat="47.19821" lon="-1.54103">
        <ele>57</ele>
        <time>2020-10-17T09:53:24.000Z</time>
      </trkpt>
      <trkpt lat="47.19831" lon="-1.54087">
        <ele>57</ele>
        <time>2020-10-17T09:53:26.000Z</time>
      </trkpt>
      <trkpt lat="47.19836" lon="-1.54069">
        <ele>56</ele>
        <time>2020-10-17T09:53:28.000Z</time>
      </trkpt>
      <trkpt lat="47.19845" lon="-1.54051">
        <ele>56</ele>
        <time>2020-10-17T09:53:30.000Z</time>
      </trkpt>
      <trkpt lat="47.19852" lon="-1.54032">
        <ele>55</ele>
        <time>2020-10-17T09:53:32.000Z</time>
      </trkpt>
      <trkpt lat="47.19859" lon="-1.54011">
        <ele>55</ele>
        <time>2020-10-17T09:53:34.000Z</time>
      </trkpt>
      <trkpt lat="47.19866" lon="-1.5399">
        <ele>55</ele>
        <time>2020-10-17T09:53:36.000Z</time>
      </trkpt>
      <trkpt lat="47.19872" lon="-1.5397">
        <ele>54</ele>
        <time>2020-10-17T09:53:38.000Z</time>
      </trkpt>
      <trkpt lat="47.19879" lon="-1.5395">
        <ele>54</ele>
        <time>2020-10-17T09:53:40.000Z</time>
      </trkpt>
      <trkpt lat="47.19885" lon="-1.53929">
        <ele>54</ele>
        <time>2020-10-17T09:53:42.000Z</time>
      </trkpt>
      <trkpt lat="47.19891" lon="-1.53909">
        <ele>53</ele>
        <time>2020-10-17T09:53:44.000Z</time>
      </trkpt>
      <trkpt lat="47.19896" lon="-1.53889">
        <ele>53</ele>
        <time>2020-10-17T09:53:46.000Z</time>
      </trkpt>
      <trkpt lat="47.19901" lon="-1.53868">
        <ele>53</ele>
        <time>2020-10-17T09:53:48.000Z</time>
      </trkpt>
      <trkpt lat="47.19905" lon="-1.53848">
        <ele>53</ele>
        <time>2020-10-17T09:53:50.000Z</time>
      </trkpt>
      <trkpt lat="47.1991" lon="-1.53827">
        <ele>53</ele>
        <time>2020-10-17T09:53:52.000Z</time>
      </trkpt>
      <trkpt lat="47.19915" lon="-1.53807">
        <ele>53</ele>
        <time>2020-10-17T09:53:54.000Z</time>
      </trkpt>
      <trkpt lat="47.19918" lon="-1.53786">
        <ele>53</ele>
        <time>2020-10-17T09:53:56.000Z</time>
      </trkpt>
      <trkpt lat="47.19923" lon="-1.53765">
        <ele>53</ele>
        <time>2020-10-17T09:53:58.000Z</time>
      </trkpt>
      <trkpt lat="47.19927" lon="-1.53745">
        <ele>53</ele>
        <time>2020-10-17T09:54:00.000Z</time>
      </trkpt>
      <trkpt lat="47.19931" lon="-1.53724">
        <ele>53</ele>
        <time>2020-10-17T09:54:02.000Z</time>
      </trkpt>
      <trkpt lat="47.19935" lon="-1.53703">
        <ele>53</ele>
        <time>2020-10-17T09:54:04.000Z</time>
      </trkpt>
      <trkpt lat="47.1994" lon="-1.53684">
        <ele>53</ele>
        <time>2020-10-17T09:54:06.000Z</time>
      </trkpt>
      <trkpt lat="47.19944" lon="-1.53665">
        <ele>53</ele>
        <time>2020-10-17T09:54:08.000Z</time>
      </trkpt>
      <trkpt lat="47.19949" lon="-1.53646">
        <ele>53</ele>
        <time>2020-10-17T09:54:10.000Z</time>
      </trkpt>
      <trkpt lat="47.19954" lon="-1.53627">
        <ele>52</ele>
        <time>2020-10-17T09:54:12.000Z</time>
      </trkpt>
      <trkpt lat="47.19959" lon="-1.53608">
        <ele>52</ele>
        <time>2020-10-17T09:54:14.000Z</time>
      </trkpt>
      <trkpt lat="47.19964" lon="-1.53588">
        <ele>53</ele>
        <time>2020-10-17T09:54:16.000Z</time>
      </trkpt>
      <trkpt lat="47.19969" lon="-1.53569">
        <ele>53</ele>
        <time>2020-10-17T09:54:18.000Z</time>
      </trkpt>
      <trkpt lat="47.19974" lon="-1.5355">
        <ele>53</ele>
        <time>2020-10-17T09:54:20.000Z</time>
      </trkpt>
      <trkpt lat="47.1998" lon="-1.53532">
        <ele>53</ele>
        <time>2020-10-17T09:54:22.000Z</time>
      </trkpt>
      <trkpt lat="47.19985" lon="-1.53514">
        <ele>53</ele>
        <time>2020-10-17T09:54:24.000Z</time>
      </trkpt>
      <trkpt lat="47.19988" lon="-1.53496">
        <ele>54</ele>
        <time>2020-10-17T09:54:26.000Z</time>
      </trkpt>
      <trkpt lat="47.19988" lon="-1.53479">
        <ele>53</ele>
        <time>2020-10-17T09:54:28.000Z</time>
      </trkpt>
      <trkpt lat="47.19995" lon="-1.53467">
        <ele>53</ele>
        <time>2020-10-17T09:54:30.000Z</time>
      </trkpt>
      <trkpt lat="47.20008" lon="-1.53468">
        <ele>54</ele>
        <time>2020-10-17T09:54:32.000Z</time>
      </trkpt>
      <trkpt lat="47.20019" lon="-1.53465">
        <ele>54</ele>
        <time>2020-10-17T09:54:34.000Z</time>
      </trkpt>
      <trkpt lat="47.20027" lon="-1.5345">
        <ele>54</ele>
        <time>2020-10-17T09:54:36.000Z</time>
      </trkpt>
      <trkpt lat="47.20033" lon="-1.53433">
        <ele>55</ele>
        <time>2020-10-17T09:54:38.000Z</time>
      </trkpt>
      <trkpt lat="47.2004" lon="-1.53415">
        <ele>55</ele>
        <time>2020-10-17T09:54:40.000Z</time>
      </trkpt>
      <trkpt lat="47.20046" lon="-1.53398">
        <ele>55</ele>
        <time>2020-10-17T09:54:42.000Z</time>
      </trkpt>
      <trkpt lat="47.20054" lon="-1.53382">
        <ele>55</ele>
        <time>2020-10-17T09:54:44.000Z</time>
      </trkpt>
      <trkpt lat="47.20062" lon="-1.53368">
        <ele>55</ele>
        <time>2020-10-17T09:54:46.000Z</time>
      </trkpt>
      <trkpt lat="47.20069" lon="-1.53355">
        <ele>55</ele>
        <time>2020-10-17T09:54:48.000Z</time>
      </trkpt>
      <trkpt lat="47.20078" lon="-1.53347">
        <ele>55</ele>
        <time>2020-10-17T09:54:50.000Z</time>
      </trkpt>
      <trkpt lat="47.20085" lon="-1.53333">
        <ele>55</ele>
        <time>2020-10-17T09:54:52.000Z</time>
      </trkpt>
      <trkpt lat="47.20092" lon="-1.53316">
        <ele>55</ele>
        <time>2020-10-17T09:54:54.000Z</time>
      </trkpt>
      <trkpt lat="47.20098" lon="-1.53299">
        <ele>55</ele>
        <time>2020-10-17T09:54:56.000Z</time>
      </trkpt>
      <trkpt lat="47.20103" lon="-1.53281">
        <ele>55</ele>
        <time>2020-10-17T09:54:58.000Z</time>
      </trkpt>
      <trkpt lat="47.20109" lon="-1.53263">
        <ele>55</ele>
        <time>2020-10-17T09:55:00.000Z</time>
      </trkpt>
      <trkpt lat="47.20114" lon="-1.53245">
        <ele>55</ele>
        <time>2020-10-17T09:55:02.000Z</time>
      </trkpt>
      <trkpt lat="47.20119" lon="-1.53226">
        <ele>55</ele>
        <time>2020-10-17T09:55:04.000Z</time>
      </trkpt>
      <trkpt lat="47.20122" lon="-1.53208">
        <ele>55</ele>
        <time>2020-10-17T09:55:06.000Z</time>
      </trkpt>
      <trkpt lat="47.20127" lon="-1.53189">
        <ele>54</ele>
        <time>2020-10-17T09:55:08.000Z</time>
      </trkpt>
      <trkpt lat="47.20131" lon="-1.53171">
        <ele>54</ele>
        <time>2020-10-17T09:55:10.000Z</time>
      </trkpt>
      <trkpt lat="47.20138" lon="-1.53154">
        <ele>54</ele>
        <time>2020-10-17T09:55:12.000Z</time>
      </trkpt>
      <trkpt lat="47.20145" lon="-1.53138">
        <ele>54</ele>
        <time>2020-10-17T09:55:14.000Z</time>
      </trkpt>
      <trkpt lat="47.20152" lon="-1.53121">
        <ele>53</ele>
        <time>2020-10-17T09:55:16.000Z</time>
      </trkpt>
      <trkpt lat="47.20159" lon="-1.53104">
        <ele>53</ele>
        <time>2020-10-17T09:55:18.000Z</time>
      </trkpt>
      <trkpt lat="47.20167" lon="-1.53089">
        <ele>54</ele>
        <time>2020-10-17T09:55:20.000Z</time>
      </trkpt>
      <trkpt lat="47.20175" lon="-1.53074">
        <ele>54</ele>
        <time>2020-10-17T09:55:22.000Z</time>
      </trkpt>
      <trkpt lat="47.20183" lon="-1.53059">
        <ele>54</ele>
        <time>2020-10-17T09:55:24.000Z</time>
      </trkpt>
      <trkpt lat="47.20192" lon="-1.53044">
        <ele>54</ele>
        <time>2020-10-17T09:55:26.000Z</time>
      </trkpt>
      <trkpt lat="47.20203" lon="-1.53032">
        <ele>54</ele>
        <time>2020-10-17T09:55:28.000Z</time>
      </trkpt>
      <trkpt lat="47.20214" lon="-1.53021">
        <ele>54</ele>
        <time>2020-10-17T09:55:30.000Z</time>
      </trkpt>
      <trkpt lat="47.20224" lon="-1.53009">
        <ele>55</ele>
        <time>2020-10-17T09:55:32.000Z</time>
      </trkpt>
      <trkpt lat="47.20233" lon="-1.52996">
        <ele>55</ele>
        <time>2020-10-17T09:55:34.000Z</time>
      </trkpt>
      <trkpt lat="47.20241" lon="-1.52982">
        <ele>55</ele>
        <time>2020-10-17T09:55:36.000Z</time>
      </trkpt>
      <trkpt lat="47.20249" lon="-1.52966">
        <ele>55</ele>
        <time>2020-10-17T09:55:38.000Z</time>
      </trkpt>
      <trkpt lat="47.20258" lon="-1.52952">
        <ele>55</ele>
        <time>2020-10-17T09:55:40.000Z</time>
      </trkpt>
      <trkpt lat="47.20266" lon="-1.52937">
        <ele>56</ele>
        <time>2020-10-17T09:55:42.000Z</time>
      </trkpt>
      <trkpt lat="47.20274" lon="-1.52921">
        <ele>56</ele>
        <time>2020-10-17T09:55:44.000Z</time>
      </trkpt>
      <trkpt lat="47.20281" lon="-1.52905">
        <ele>55</ele>
        <time>2020-10-17T09:55:46.000Z</time>
      </trkpt>
      <trkpt lat="47.20288" lon="-1.52889">
        <ele>55</ele>
        <time>2020-10-17T09:55:48.000Z</time>
      </trkpt>
      <trkpt lat="47.20295" lon="-1.52871">
        <ele>55</ele>
        <time>2020-10-17T09:55:50.000Z</time>
      </trkpt>
      <trkpt lat="47.20302" lon="-1.52854">
        <ele>54</ele>
        <time>2020-10-17T09:55:52.000Z</time>
      </trkpt>
      <trkpt lat="47.20309" lon="-1.52836">
        <ele>54</ele>
        <time>2020-10-17T09:55:54.000Z</time>
      </trkpt>
      <trkpt lat="47.20317" lon="-1.5282">
        <ele>55</ele>
        <time>2020-10-17T09:55:56.000Z</time>
      </trkpt>
      <trkpt lat="47.20324" lon="-1.52802">
        <ele>55</ele>
        <time>2020-10-17T09:55:58.000Z</time>
      </trkpt>
      <trkpt lat="47.20332" lon="-1.52786">
        <ele>55</ele>
        <time>2020-10-17T09:56:00.000Z</time>
      </trkpt>
      <trkpt lat="47.20341" lon="-1.52768">
        <ele>55</ele>
        <time>2020-10-17T09:56:02.000Z</time>
      </trkpt>
      <trkpt lat="47.20349" lon="-1.52752">
        <ele>55</ele>
        <time>2020-10-17T09:56:04.000Z</time>
      </trkpt>
      <trkpt lat="47.20357" lon="-1.52735">
        <ele>55</ele>
        <time>2020-10-17T09:56:06.000Z</time>
      </trkpt>
      <trkpt lat="47.20365" lon="-1.52719">
        <ele>56</ele>
        <time>2020-10-17T09:56:08.000Z</time>
      </trkpt>
      <trkpt lat="47.20373" lon="-1.52704">
        <ele>56</ele>
        <time>2020-10-17T09:56:10.000Z</time>
      </trkpt>
      <trkpt lat="47.20383" lon="-1.52688">
        <ele>55</ele>
        <time>2020-10-17T09:56:12.000Z</time>
      </trkpt>
      <trkpt lat="47.20391" lon="-1.52672">
        <ele>55</ele>
        <time>2020-10-17T09:56:14.000Z</time>
      </trkpt>
      <trkpt lat="47.20398" lon="-1.52656">
        <ele>55</ele>
        <time>2020-10-17T09:56:16.000Z</time>
      </trkpt>
      <trkpt lat="47.20406" lon="-1.52639">
        <ele>55</ele>
        <time>2020-10-17T09:56:18.000Z</time>
      </trkpt>
      <trkpt lat="47.20412" lon="-1.52622">
        <ele>55</ele>
        <time>2020-10-17T09:56:20.000Z</time>
      </trkpt>
      <trkpt lat="47.20418" lon="-1.52605">
        <ele>55</ele>
        <time>2020-10-17T09:56:22.000Z</time>
      </trkpt>
      <trkpt lat="47.20422" lon="-1.52587">
        <ele>55</ele>
        <time>2020-10-17T09:56:24.000Z</time>
      </trkpt>
      <trkpt lat="47.20427" lon="-1.52569">
        <ele>55</ele>
        <time>2020-10-17T09:56:26.000Z</time>
      </trkpt>
      <trkpt lat="47.20433" lon="-1.5255">
        <ele>55</ele>
        <time>2020-10-17T09:56:28.000Z</time>
      </trkpt>
      <trkpt lat="47.20439" lon="-1.52534">
        <ele>55</ele>
        <time>2020-10-17T09:56:30.000Z</time>
      </trkpt>
      <trkpt lat="47.20446" lon="-1.52517">
        <ele>54</ele>
        <time>2020-10-17T09:56:32.000Z</time>
      </trkpt>
      <trkpt lat="47.20453" lon="-1.52502">
        <ele>54</ele>
        <time>2020-10-17T09:56:34.000Z</time>
      </trkpt>
      <trkpt lat="47.20459" lon="-1.52485">
        <ele>53</ele>
        <time>2020-10-17T09:56:36.000Z</time>
      </trkpt>
      <trkpt lat="47.20465" lon="-1.52469">
        <ele>53</ele>
        <time>2020-10-17T09:56:38.000Z</time>
      </trkpt>
      <trkpt lat="47.20471" lon="-1.52453">
        <ele>53</ele>
        <time>2020-10-17T09:56:40.000Z</time>
      </trkpt>
      <trkpt lat="47.20479" lon="-1.52437">
        <ele>53</ele>
        <time>2020-10-17T09:56:42.000Z</time>
      </trkpt>
      <trkpt lat="47.20485" lon="-1.52419">
        <ele>53</ele>
        <time>2020-10-17T09:56:44.000Z</time>
      </trkpt>
      <trkpt lat="47.2049" lon="-1.52402">
        <ele>52</ele>
        <time>2020-10-17T09:56:46.000Z</time>
      </trkpt>
      <trkpt lat="47.20497" lon="-1.52383">
        <ele>52</ele>
        <time>2020-10-17T09:56:48.000Z</time>
      </trkpt>
      <trkpt lat="47.20504" lon="-1.52364">
        <ele>52</ele>
        <time>2020-10-17T09:56:50.000Z</time>
      </trkpt>
      <trkpt lat="47.20508" lon="-1.52346">
        <ele>53</ele>
        <time>2020-10-17T09:56:52.000Z</time>
      </trkpt>
      <trkpt lat="47.20513" lon="-1.52329">
        <ele>53</ele>
        <time>2020-10-17T09:56:54.000Z</time>
      </trkpt>
      <trkpt lat="47.20516" lon="-1.52314">
        <ele>53</ele>
        <time>2020-10-17T09:56:56.000Z</time>
      </trkpt>
      <trkpt lat="47.20521" lon="-1.52299">
        <ele>53</ele>
        <time>2020-10-17T09:56:58.000Z</time>
      </trkpt>
      <trkpt lat="47.20524" lon="-1.52284">
        <ele>54</ele>
        <time>2020-10-17T09:57:00.000Z</time>
      </trkpt>
      <trkpt lat="47.20531" lon="-1.52268">
        <ele>54</ele>
        <time>2020-10-17T09:57:02.000Z</time>
      </trkpt>
      <trkpt lat="47.20536" lon="-1.5225">
        <ele>54</ele>
        <time>2020-10-17T09:57:04.000Z</time>
      </trkpt>
      <trkpt lat="47.20544" lon="-1.52233">
        <ele>54</ele>
        <time>2020-10-17T09:57:06.000Z</time>
      </trkpt>
      <trkpt lat="47.20552" lon="-1.52216">
        <ele>54</ele>
        <time>2020-10-17T09:57:08.000Z</time>
      </trkpt>
      <trkpt lat="47.20562" lon="-1.522">
        <ele>53</ele>
        <time>2020-10-17T09:57:10.000Z</time>
      </trkpt>
      <trkpt lat="47.20571" lon="-1.52184">
        <ele>53</ele>
        <time>2020-10-17T09:57:12.000Z</time>
      </trkpt>
      <trkpt lat="47.2058" lon="-1.52168">
        <ele>53</ele>
        <time>2020-10-17T09:57:14.000Z</time>
      </trkpt>
      <trkpt lat="47.20588" lon="-1.52153">
        <ele>53</ele>
        <time>2020-10-17T09:57:16.000Z</time>
      </trkpt>
      <trkpt lat="47.20597" lon="-1.52137">
        <ele>53</ele>
        <time>2020-10-17T09:57:18.000Z</time>
      </trkpt>
      <trkpt lat="47.20605" lon="-1.52122">
        <ele>53</ele>
        <time>2020-10-17T09:57:20.000Z</time>
      </trkpt>
      <trkpt lat="47.20613" lon="-1.52106">
        <ele>53</ele>
        <time>2020-10-17T09:57:22.000Z</time>
      </trkpt>
      <trkpt lat="47.20621" lon="-1.52091">
        <ele>54</ele>
        <time>2020-10-17T09:57:24.000Z</time>
      </trkpt>
      <trkpt lat="47.2063" lon="-1.52076">
        <ele>54</ele>
        <time>2020-10-17T09:57:26.000Z</time>
      </trkpt>
      <trkpt lat="47.20638" lon="-1.52062">
        <ele>54</ele>
        <time>2020-10-17T09:57:28.000Z</time>
      </trkpt>
      <trkpt lat="47.20647" lon="-1.52048">
        <ele>55</ele>
        <time>2020-10-17T09:57:30.000Z</time>
      </trkpt>
      <trkpt lat="47.20656" lon="-1.52035">
        <ele>55</ele>
        <time>2020-10-17T09:57:32.000Z</time>
      </trkpt>
      <trkpt lat="47.20665" lon="-1.52021">
        <ele>55</ele>
        <time>2020-10-17T09:57:34.000Z</time>
      </trkpt>
      <trkpt lat="47.20673" lon="-1.52006">
        <ele>55</ele>
        <time>2020-10-17T09:57:36.000Z</time>
      </trkpt>
      <trkpt lat="47.20681" lon="-1.51991">
        <ele>55</ele>
        <time>2020-10-17T09:57:38.000Z</time>
      </trkpt>
      <trkpt lat="47.20689" lon="-1.51977">
        <ele>55</ele>
        <time>2020-10-17T09:57:40.000Z</time>
      </trkpt>
      <trkpt lat="47.20698" lon="-1.51963">
        <ele>56</ele>
        <time>2020-10-17T09:57:42.000Z</time>
      </trkpt>
      <trkpt lat="47.20706" lon="-1.51948">
        <ele>55</ele>
        <time>2020-10-17T09:57:44.000Z</time>
      </trkpt>
      <trkpt lat="47.20714" lon="-1.51932">
        <ele>55</ele>
        <time>2020-10-17T09:57:46.000Z</time>
      </trkpt>
      <trkpt lat="47.20722" lon="-1.51916">
        <ele>54</ele>
        <time>2020-10-17T09:57:48.000Z</time>
      </trkpt>
      <trkpt lat="47.20729" lon="-1.51899">
        <ele>54</ele>
        <time>2020-10-17T09:57:50.000Z</time>
      </trkpt>
      <trkpt lat="47.20736" lon="-1.51883">
        <ele>55</ele>
        <time>2020-10-17T09:57:52.000Z</time>
      </trkpt>
      <trkpt lat="47.20743" lon="-1.51868">
        <ele>55</ele>
        <time>2020-10-17T09:57:54.000Z</time>
      </trkpt>
      <trkpt lat="47.20749" lon="-1.51851">
        <ele>55</ele>
        <time>2020-10-17T09:57:56.000Z</time>
      </trkpt>
      <trkpt lat="47.20755" lon="-1.51835">
        <ele>55</ele>
        <time>2020-10-17T09:57:58.000Z</time>
      </trkpt>
      <trkpt lat="47.2076" lon="-1.51817">
        <ele>55</ele>
        <time>2020-10-17T09:58:00.000Z</time>
      </trkpt>
      <trkpt lat="47.20765" lon="-1.51798">
        <ele>54</ele>
        <time>2020-10-17T09:58:02.000Z</time>
      </trkpt>
      <trkpt lat="47.20769" lon="-1.51779">
        <ele>54</ele>
        <time>2020-10-17T09:58:04.000Z</time>
      </trkpt>
      <trkpt lat="47.20773" lon="-1.5176">
        <ele>53</ele>
        <time>2020-10-17T09:58:06.000Z</time>
      </trkpt>
      <trkpt lat="47.20777" lon="-1.51741">
        <ele>53</ele>
        <time>2020-10-17T09:58:08.000Z</time>
      </trkpt>
      <trkpt lat="47.20782" lon="-1.51723">
        <ele>53</ele>
        <time>2020-10-17T09:58:10.000Z</time>
      </trkpt>
      <trkpt lat="47.20787" lon="-1.51704">
        <ele>53</ele>
        <time>2020-10-17T09:58:12.000Z</time>
      </trkpt>
      <trkpt lat="47.20789" lon="-1.51686">
        <ele>53</ele>
        <time>2020-10-17T09:58:14.000Z</time>
      </trkpt>
      <trkpt lat="47.20792" lon="-1.51668">
        <ele>53</ele>
        <time>2020-10-17T09:58:16.000Z</time>
      </trkpt>
      <trkpt lat="47.20795" lon="-1.5165">
        <ele>53</ele>
        <time>2020-10-17T09:58:18.000Z</time>
      </trkpt>
      <trkpt lat="47.20798" lon="-1.51632">
        <ele>54</ele>
        <time>2020-10-17T09:58:20.000Z</time>
      </trkpt>
      <trkpt lat="47.20802" lon="-1.51614">
        <ele>53</ele>
        <time>2020-10-17T09:58:22.000Z</time>
      </trkpt>
      <trkpt lat="47.20804" lon="-1.51595">
        <ele>54</ele>
        <time>2020-10-17T09:58:24.000Z</time>
      </trkpt>
      <trkpt lat="47.20806" lon="-1.51575">
        <ele>54</ele>
        <time>2020-10-17T09:58:26.000Z</time>
      </trkpt>
      <trkpt lat="47.20808" lon="-1.51555">
        <ele>54</ele>
        <time>2020-10-17T09:58:28.000Z</time>
      </trkpt>
      <trkpt lat="47.20811" lon="-1.51537">
        <ele>54</ele>
        <time>2020-10-17T09:58:30.000Z</time>
      </trkpt>
      <trkpt lat="47.20814" lon="-1.51518">
        <ele>53</ele>
        <time>2020-10-17T09:58:32.000Z</time>
      </trkpt>
      <trkpt lat="47.20816" lon="-1.515">
        <ele>53</ele>
        <time>2020-10-17T09:58:34.000Z</time>
      </trkpt>
      <trkpt lat="47.2082" lon="-1.51483">
        <ele>54</ele>
        <time>2020-10-17T09:58:36.000Z</time>
      </trkpt>
      <trkpt lat="47.20824" lon="-1.51464">
        <ele>54</ele>
        <time>2020-10-17T09:58:38.000Z</time>
      </trkpt>
      <trkpt lat="47.20828" lon="-1.51445">
        <ele>54</ele>
        <time>2020-10-17T09:58:40.000Z</time>
      </trkpt>
      <trkpt lat="47.2083" lon="-1.51425">
        <ele>54</ele>
        <time>2020-10-17T09:58:42.000Z</time>
      </trkpt>
      <trkpt lat="47.20833" lon="-1.51407">
        <ele>54</ele>
        <time>2020-10-17T09:58:44.000Z</time>
      </trkpt>
      <trkpt lat="47.20838" lon="-1.51389">
        <ele>54</ele>
        <time>2020-10-17T09:58:46.000Z</time>
      </trkpt>
      <trkpt lat="47.20843" lon="-1.51371">
        <ele>54</ele>
        <time>2020-10-17T09:58:48.000Z</time>
      </trkpt>
      <trkpt lat="47.20847" lon="-1.51354">
        <ele>54</ele>
        <time>2020-10-17T09:58:50.000Z</time>
      </trkpt>
      <trkpt lat="47.2085" lon="-1.51336">
        <ele>54</ele>
        <time>2020-10-17T09:58:52.000Z</time>
      </trkpt>
      <trkpt lat="47.20856" lon="-1.51318">
        <ele>55</ele>
        <time>2020-10-17T09:58:54.000Z</time>
      </trkpt>
      <trkpt lat="47.20863" lon="-1.51301">
        <ele>55</ele>
        <time>2020-10-17T09:58:56.000Z</time>
      </trkpt>
      <trkpt lat="47.20871" lon="-1.51285">
        <ele>55</ele>
        <time>2020-10-17T09:58:58.000Z</time>
      </trkpt>
      <trkpt lat="47.20878" lon="-1.51268">
        <ele>55</ele>
        <time>2020-10-17T09:59:00.000Z</time>
      </trkpt>
      <trkpt lat="47.20886" lon="-1.51252">
        <ele>54</ele>
        <time>2020-10-17T09:59:02.000Z</time>
      </trkpt>
      <trkpt lat="47.20892" lon="-1.51236">
        <ele>54</ele>
        <time>2020-10-17T09:59:04.000Z</time>
      </trkpt>
      <trkpt lat="47.20898" lon="-1.51219">
        <ele>53</ele>
        <time>2020-10-17T09:59:06.000Z</time>
      </trkpt>
      <trkpt lat="47.20905" lon="-1.51203">
        <ele>53</ele>
        <time>2020-10-17T09:59:08.000Z</time>
      </trkpt>
      <trkpt lat="47.20911" lon="-1.51186">
        <ele>53</ele>
        <time>2020-10-17T09:59:10.000Z</time>
      </trkpt>
      <trkpt lat="47.20916" lon="-1.5117">
        <ele>53</ele>
        <time>2020-10-17T09:59:12.000Z</time>
      </trkpt>
      <trkpt lat="47.20922" lon="-1.51153">
        <ele>53</ele>
        <time>2020-10-17T09:59:14.000Z</time>
      </trkpt>
      <trkpt lat="47.20927" lon="-1.51136">
        <ele>53</ele>
        <time>2020-10-17T09:59:16.000Z</time>
      </trkpt>
      <trkpt lat="47.20933" lon="-1.51118">
        <ele>53</ele>
        <time>2020-10-17T09:59:18.000Z</time>
      </trkpt>
      <trkpt lat="47.20938" lon="-1.51101">
        <ele>53</ele>
        <time>2020-10-17T09:59:20.000Z</time>
      </trkpt>
      <trkpt lat="47.20943" lon="-1.51083">
        <ele>54</ele>
        <time>2020-10-17T09:59:22.000Z</time>
      </trkpt>
      <trkpt lat="47.20947" lon="-1.51067">
        <ele>54</ele>
        <time>2020-10-17T09:59:24.000Z</time>
      </trkpt>
      <trkpt lat="47.20949" lon="-1.51049">
        <ele>54</ele>
        <time>2020-10-17T09:59:26.000Z</time>
      </trkpt>
      <trkpt lat="47.20952" lon="-1.51032">
        <ele>54</ele>
        <time>2020-10-17T09:59:28.000Z</time>
      </trkpt>
      <trkpt lat="47.20956" lon="-1.51016">
        <ele>55</ele>
        <time>2020-10-17T09:59:30.000Z</time>
      </trkpt>
      <trkpt lat="47.20963" lon="-1.51">
        <ele>54</ele>
        <time>2020-10-17T09:59:32.000Z</time>
      </trkpt>
      <trkpt lat="47.20967" lon="-1.50982">
        <ele>54</ele>
        <time>2020-10-17T09:59:34.000Z</time>
      </trkpt>
      <trkpt lat="47.20968" lon="-1.50964">
        <ele>54</ele>
        <time>2020-10-17T09:59:36.000Z</time>
      </trkpt>
      <trkpt lat="47.20969" lon="-1.50945">
        <ele>54</ele>
        <time>2020-10-17T09:59:38.000Z</time>
      </trkpt>
      <trkpt lat="47.20972" lon="-1.50926">
        <ele>54</ele>
        <time>2020-10-17T09:59:40.000Z</time>
      </trkpt>
      <trkpt lat="47.20974" lon="-1.50906">
        <ele>55</ele>
        <time>2020-10-17T09:59:42.000Z</time>
      </trkpt>
      <trkpt lat="47.20975" lon="-1.50887">
        <ele>56</ele>
        <time>2020-10-17T09:59:44.000Z</time>
      </trkpt>
      <trkpt lat="47.20978" lon="-1.50868">
        <ele>56</ele>
        <time>2020-10-17T09:59:46.000Z</time>
      </trkpt>
      <trkpt lat="47.2098" lon="-1.50848">
        <ele>56</ele>
        <time>2020-10-17T09:59:48.000Z</time>
      </trkpt>
      <trkpt lat="47.20982" lon="-1.50829">
        <ele>56</ele>
        <time>2020-10-17T09:59:50.000Z</time>
      </trkpt>
      <trkpt lat="47.20985" lon="-1.50809">
        <ele>56</ele>
        <time>2020-10-17T09:59:52.000Z</time>
      </trkpt>
      <trkpt lat="47.20987" lon="-1.5079">
        <ele>56</ele>
        <time>2020-10-17T09:59:54.000Z</time>
      </trkpt>
      <trkpt lat="47.20989" lon="-1.50771">
        <ele>56</ele>
        <time>2020-10-17T09:59:56.000Z</time>
      </trkpt>
      <trkpt lat="47.20991" lon="-1.50752">
        <ele>55</ele>
        <time>2020-10-17T09:59:58.000Z</time>
      </trkpt>
      <trkpt lat="47.20993" lon="-1.50733">
        <ele>56</ele>
        <time>2020-10-17T10:00:00.000Z</time>
      </trkpt>
      <trkpt lat="47.20995" lon="-1.50715">
        <ele>56</ele>
        <time>2020-10-17T10:00:02.000Z</time>
      </trkpt>
      <trkpt lat="47.20997" lon="-1.50697">
        <ele>55</ele>
        <time>2020-10-17T10:00:04.000Z</time>
      </trkpt>
      <trkpt lat="47.20998" lon="-1.50679">
        <ele>56</ele>
        <time>2020-10-17T10:00:06.000Z</time>
      </trkpt>
      <trkpt lat="47.20999" lon="-1.5066">
        <ele>56</ele>
        <time>2020-10-17T10:00:08.000Z</time>
      </trkpt>
      <trkpt lat="47.20999" lon="-1.50642">
        <ele>56</ele>
        <time>2020-10-17T10:00:10.000Z</time>
      </trkpt>
      <trkpt lat="47.20999" lon="-1.50623">
        <ele>57</ele>
        <time>2020-10-17T10:00:12.000Z</time>
      </trkpt>
      <trkpt lat="47.20999" lon="-1.50603">
        <ele>57</ele>
        <time>2020-10-17T10:00:14.000Z</time>
      </trkpt>
      <trkpt lat="47.21" lon="-1.50583">
        <ele>57</ele>
        <time>2020-10-17T10:00:16.000Z</time>
      </trkpt>
      <trkpt lat="47.21001" lon="-1.50564">
        <ele>57</ele>
        <time>2020-10-17T10:00:18.000Z</time>
      </trkpt>
      <trkpt lat="47.21001" lon="-1.50546">
        <ele>57</ele>
        <time>2020-10-17T10:00:20.000Z</time>
      </trkpt>
      <trkpt lat="47.21001" lon="-1.50527">
        <ele>56</ele>
        <time>2020-10-17T10:00:22.000Z</time>
      </trkpt>
      <trkpt lat="47.21" lon="-1.50509">
        <ele>56</ele>
        <time>2020-10-17T10:00:24.000Z</time>
      </trkpt>
      <trkpt lat="47.20999" lon="-1.50489">
        <ele>55</ele>
        <time>2020-10-17T10:00:26.000Z</time>
      </trkpt>
      <trkpt lat="47.20999" lon="-1.50469">
        <ele>55</ele>
        <time>2020-10-17T10:00:28.000Z</time>
      </trkpt>
      <trkpt lat="47.20999" lon="-1.50448">
        <ele>55</ele>
        <time>2020-10-17T10:00:30.000Z</time>
      </trkpt>
      <trkpt lat="47.20999" lon="-1.50428">
        <ele>55</ele>
        <time>2020-10-17T10:00:32.000Z</time>
      </trkpt>
      <trkpt lat="47.20999" lon="-1.50408">
        <ele>55</ele>
        <time>2020-10-17T10:00:34.000Z</time>
      </trkpt>
      <trkpt lat="47.20998" lon="-1.50389">
        <ele>55</ele>
        <time>2020-10-17T10:00:36.000Z</time>
      </trkpt>
      <trkpt lat="47.20998" lon="-1.50369">
        <ele>55</ele>
        <time>2020-10-17T10:00:38.000Z</time>
      </trkpt>
      <trkpt lat="47.20997" lon="-1.5035">
        <ele>55</ele>
        <time>2020-10-17T10:00:40.000Z</time>
      </trkpt>
      <trkpt lat="47.20998" lon="-1.50331">
        <ele>55</ele>
        <time>2020-10-17T10:00:42.000Z</time>
      </trkpt>
      <trkpt lat="47.20998" lon="-1.50312">
        <ele>55</ele>
        <time>2020-10-17T10:00:44.000Z</time>
      </trkpt>
      <trkpt lat="47.21" lon="-1.50294">
        <ele>55</ele>
        <time>2020-10-17T10:00:46.000Z</time>
      </trkpt>
      <trkpt lat="47.21001" lon="-1.50275">
        <ele>55</ele>
        <time>2020-10-17T10:00:48.000Z</time>
      </trkpt>
      <trkpt lat="47.21005" lon="-1.50257">
        <ele>55</ele>
        <time>2020-10-17T10:00:50.000Z</time>
      </trkpt>
      <trkpt lat="47.21013" lon="-1.50243">
        <ele>55</ele>
        <time>2020-10-17T10:00:52.000Z</time>
      </trkpt>
      <trkpt lat="47.21017" lon="-1.50225">
        <ele>55</ele>
        <time>2020-10-17T10:00:54.000Z</time>
      </trkpt>
      <trkpt lat="47.21014" lon="-1.50207">
        <ele>54</ele>
        <time>2020-10-17T10:00:56.000Z</time>
      </trkpt>
      <trkpt lat="47.21014" lon="-1.50188">
        <ele>54</ele>
        <time>2020-10-17T10:00:58.000Z</time>
      </trkpt>
      <trkpt lat="47.21019" lon="-1.50169">
        <ele>55</ele>
        <time>2020-10-17T10:01:00.000Z</time>
      </trkpt>
      <trkpt lat="47.21022" lon="-1.5015">
        <ele>55</ele>
        <time>2020-10-17T10:01:02.000Z</time>
      </trkpt>
      <trkpt lat="47.21026" lon="-1.50131">
        <ele>56</ele>
        <time>2020-10-17T10:01:04.000Z</time>
      </trkpt>
      <trkpt lat="47.21031" lon="-1.50113">
        <ele>56</ele>
        <time>2020-10-17T10:01:06.000Z</time>
      </trkpt>
      <trkpt lat="47.21036" lon="-1.50094">
        <ele>56</ele>
        <time>2020-10-17T10:01:08.000Z</time>
      </trkpt>
      <trkpt lat="47.2104" lon="-1.50076">
        <ele>56</ele>
        <time>2020-10-17T10:01:10.000Z</time>
      </trkpt>
      <trkpt lat="47.21045" lon="-1.50057">
        <ele>55</ele>
        <time>2020-10-17T10:01:12.000Z</time>
      </trkpt>
      <trkpt lat="47.2105" lon="-1.5004">
        <ele>55</ele>
        <time>2020-10-17T10:01:14.000Z</time>
      </trkpt>
      <trkpt lat="47.21055" lon="-1.50022">
        <ele>55</ele>
        <time>2020-10-17T10:01:16.000Z</time>
      </trkpt>
      <trkpt lat="47.2106" lon="-1.50003">
        <ele>55</ele>
        <time>2020-10-17T10:01:18.000Z</time>
      </trkpt>
      <trkpt lat="47.21065" lon="-1.49983">
        <ele>55</ele>
        <time>2020-10-17T10:01:20.000Z</time>
      </trkpt>
      <trkpt lat="47.21069" lon="-1.49963">
        <ele>55</ele>
        <time>2020-10-17T10:01:22.000Z</time>
      </trkpt>
      <trkpt lat="47.21074" lon="-1.49943">
        <ele>55</ele>
        <time>2020-10-17T10:01:24.000Z</time>
      </trkpt>
      <trkpt lat="47.21079" lon="-1.49923">
        <ele>55</ele>
        <time>2020-10-17T10:01:26.000Z</time>
      </trkpt>
      <trkpt lat="47.21085" lon="-1.49904">
        <ele>55</ele>
        <time>2020-10-17T10:01:28.000Z</time>
      </trkpt>
      <trkpt lat="47.21091" lon="-1.49886">
        <ele>55</ele>
        <time>2020-10-17T10:01:30.000Z</time>
      </trkpt>
      <trkpt lat="47.21097" lon="-1.49869">
        <ele>55</ele>
        <time>2020-10-17T10:01:32.000Z</time>
      </trkpt>
      <trkpt lat="47.21098" lon="-1.49848">
        <ele>55</ele>
        <time>2020-10-17T10:01:34.000Z</time>
      </trkpt>
      <trkpt lat="47.21102" lon="-1.49829">
        <ele>56</ele>
        <time>2020-10-17T10:01:36.000Z</time>
      </trkpt>
      <trkpt lat="47.21106" lon="-1.49809">
        <ele>56</ele>
        <time>2020-10-17T10:01:38.000Z</time>
      </trkpt>
      <trkpt lat="47.21108" lon="-1.49789">
        <ele>56</ele>
        <time>2020-10-17T10:01:40.000Z</time>
      </trkpt>
      <trkpt lat="47.2111" lon="-1.49769">
        <ele>56</ele>
        <time>2020-10-17T10:01:42.000Z</time>
      </trkpt>
      <trkpt lat="47.21112" lon="-1.4975">
        <ele>56</ele>
        <time>2020-10-17T10:01:44.000Z</time>
      </trkpt>
      <trkpt lat="47.21114" lon="-1.4973">
        <ele>55</ele>
        <time>2020-10-17T10:01:46.000Z</time>
      </trkpt>
      <trkpt lat="47.21115" lon="-1.4971">
        <ele>55</ele>
        <time>2020-10-17T10:01:48.000Z</time>
      </trkpt>
      <trkpt lat="47.21117" lon="-1.49692">
        <ele>55</ele>
        <time>2020-10-17T10:01:50.000Z</time>
      </trkpt>
      <trkpt lat="47.21118" lon="-1.49673">
        <ele>55</ele>
        <time>2020-10-17T10:01:52.000Z</time>
      </trkpt>
      <trkpt lat="47.21119" lon="-1.49653">
        <ele>55</ele>
        <time>2020-10-17T10:01:54.000Z</time>
      </trkpt>
      <trkpt lat="47.21121" lon="-1.49634">
        <ele>55</ele>
        <time>2020-10-17T10:01:56.000Z</time>
      </trkpt>
      <trkpt lat="47.21122" lon="-1.49615">
        <ele>55</ele>
        <time>2020-10-17T10:01:58.000Z</time>
      </trkpt>
      <trkpt lat="47.21126" lon="-1.49598">
        <ele>56</ele>
        <time>2020-10-17T10:02:00.000Z</time>
      </trkpt>
      <trkpt lat="47.21135" lon="-1.49584">
        <ele>56</ele>
        <time>2020-10-17T10:02:02.000Z</time>
      </trkpt>
      <trkpt lat="47.21135" lon="-1.49567">
        <ele>55</ele>
        <time>2020-10-17T10:02:04.000Z</time>
      </trkpt>
      <trkpt lat="47.2113" lon="-1.49553">
        <ele>55</ele>
        <time>2020-10-17T10:02:06.000Z</time>
      </trkpt>
      <trkpt lat="47.21126" lon="-1.49536">
        <ele>54</ele>
        <time>2020-10-17T10:02:08.000Z</time>
      </trkpt>
      <trkpt lat="47.21125" lon="-1.49516">
        <ele>54</ele>
        <time>2020-10-17T10:02:10.000Z</time>
      </trkpt>
      <trkpt lat="47.21124" lon="-1.49496">
        <ele>54</ele>
        <time>2020-10-17T10:02:12.000Z</time>
      </trkpt>
      <trkpt lat="47.21124" lon="-1.49476">
        <ele>55</ele>
        <time>2020-10-17T10:02:14.000Z</time>
      </trkpt>
      <trkpt lat="47.21124" lon="-1.49456">
        <ele>55</ele>
        <time>2020-10-17T10:02:16.000Z</time>
      </trkpt>
      <trkpt lat="47.21124" lon="-1.49436">
        <ele>55</ele>
        <time>2020-10-17T10:02:18.000Z</time>
      </trkpt>
      <trkpt lat="47.21125" lon="-1.49416">
        <ele>56</ele>
        <time>2020-10-17T10:02:20.000Z</time>
      </trkpt>
      <trkpt lat="47.21126" lon="-1.49397">
        <ele>55</ele>
        <time>2020-10-17T10:02:22.000Z</time>
      </trkpt>
      <trkpt lat="47.21127" lon="-1.49377">
        <ele>55</ele>
        <time>2020-10-17T10:02:24.000Z</time>
      </trkpt>
      <trkpt lat="47.21128" lon="-1.49358">
        <ele>56</ele>
        <time>2020-10-17T10:02:26.000Z</time>
      </trkpt>
      <trkpt lat="47.21129" lon="-1.49338">
        <ele>56</ele>
        <time>2020-10-17T10:02:28.000Z</time>
      </trkpt>
      <trkpt lat="47.2113" lon="-1.4932">
        <ele>57</ele>
        <time>2020-10-17T10:02:30.000Z</time>
      </trkpt>
      <trkpt lat="47.21131" lon="-1.49301">
        <ele>57</ele>
        <time>2020-10-17T10:02:32.000Z</time>
      </trkpt>
      <trkpt lat="47.21132" lon="-1.49282">
        <ele>57</ele>
        <time>2020-10-17T10:02:34.000Z</time>
      </trkpt>
      <trkpt lat="47.21133" lon="-1.49264">
        <ele>57</ele>
        <time>2020-10-17T10:02:36.000Z</time>
      </trkpt>
      <trkpt lat="47.21134" lon="-1.49244">
        <ele>57</ele>
        <time>2020-10-17T10:02:38.000Z</time>
      </trkpt>
      <trkpt lat="47.21136" lon="-1.49225">
        <ele>57</ele>
        <time>2020-10-17T10:02:40.000Z</time>
      </trkpt>
      <trkpt lat="47.21138" lon="-1.49206">
        <ele>57</ele>
        <time>2020-10-17T10:02:42.000Z</time>
      </trkpt>
      <trkpt lat="47.2114" lon="-1.49187">
        <ele>57</ele>
        <time>2020-10-17T10:02:44.000Z</time>
      </trkpt>
      <trkpt lat="47.21142" lon="-1.49168">
        <ele>57</ele>
        <time>2020-10-17T10:02:46.000Z</time>
      </trkpt>
      <trkpt lat="47.21145" lon="-1.4915">
        <ele>56</ele>
        <time>2020-10-17T10:02:48.000Z</time>
      </trkpt>
      <trkpt lat="47.21148" lon="-1.49132">
        <ele>56</ele>
        <time>2020-10-17T10:02:50.000Z</time>
      </trkpt>
      <trkpt lat="47.2115" lon="-1.49114">
        <ele>56</ele>
        <time>2020-10-17T10:02:52.000Z</time>
      </trkpt>
      <trkpt lat="47.21155" lon="-1.49098">
        <ele>55</ele>
        <time>2020-10-17T10:02:54.000Z</time>
      </trkpt>
      <trkpt lat="47.21159" lon="-1.49081">
        <ele>55</ele>
        <time>2020-10-17T10:02:56.000Z</time>
      </trkpt>
      <trkpt lat="47.21156" lon="-1.49064">
        <ele>56</ele>
        <time>2020-10-17T10:02:58.000Z</time>
      </trkpt>
      <trkpt lat="47.2115" lon="-1.49049">
        <ele>56</ele>
        <time>2020-10-17T10:03:00.000Z</time>
      </trkpt>
      <trkpt lat="47.21151" lon="-1.49033">
        <ele>56</ele>
        <time>2020-10-17T10:03:02.000Z</time>
      </trkpt>
      <trkpt lat="47.21154" lon="-1.49016">
        <ele>55</ele>
        <time>2020-10-17T10:03:04.000Z</time>
      </trkpt>
      <trkpt lat="47.21158" lon="-1.48997">
        <ele>55</ele>
        <time>2020-10-17T10:03:06.000Z</time>
      </trkpt>
      <trkpt lat="47.21161" lon="-1.48978">
        <ele>55</ele>
        <time>2020-10-17T10:03:08.000Z</time>
      </trkpt>
      <trkpt lat="47.21164" lon="-1.48959">
        <ele>55</ele>
        <time>2020-10-17T10:03:10.000Z</time>
      </trkpt>
      <trkpt lat="47.21168" lon="-1.48941">
        <ele>55</ele>
        <time>2020-10-17T10:03:12.000Z</time>
      </trkpt>
      <trkpt lat="47.21172" lon="-1.48923">
        <ele>55</ele>
        <time>2020-10-17T10:03:14.000Z</time>
      </trkpt>
      <trkpt lat="47.21176" lon="-1.48905">
        <ele>55</ele>
        <time>2020-10-17T10:03:16.000Z</time>
      </trkpt>
      <trkpt lat="47.2118" lon="-1.48887">
        <ele>55</ele>
        <time>2020-10-17T10:03:18.000Z</time>
      </trkpt>
      <trkpt lat="47.21184" lon="-1.48869">
        <ele>55</ele>
        <time>2020-10-17T10:03:20.000Z</time>
      </trkpt>
      <trkpt lat="47.21187" lon="-1.48852">
        <ele>55</ele>
        <time>2020-10-17T10:03:22.000Z</time>
      </trkpt>
      <trkpt lat="47.2119" lon="-1.48834">
        <ele>55</ele>
        <time>2020-10-17T10:03:24.000Z</time>
      </trkpt>
      <trkpt lat="47.21193" lon="-1.48817">
        <ele>54</ele>
        <time>2020-10-17T10:03:26.000Z</time>
      </trkpt>
      <trkpt lat="47.21197" lon="-1.488">
        <ele>54</ele>
        <time>2020-10-17T10:03:28.000Z</time>
      </trkpt>
      <trkpt lat="47.212" lon="-1.48782">
        <ele>55</ele>
        <time>2020-10-17T10:03:30.000Z</time>
      </trkpt>
      <trkpt lat="47.21204" lon="-1.48765">
        <ele>55</ele>
        <time>2020-10-17T10:03:32.000Z</time>
      </trkpt>
      <trkpt lat="47.21208" lon="-1.48747">
        <ele>55</ele>
        <time>2020-10-17T10:03:34.000Z</time>
      </trkpt>
      <trkpt lat="47.21212" lon="-1.4873">
        <ele>55</ele>
        <time>2020-10-17T10:03:36.000Z</time>
      </trkpt>
      <trkpt lat="47.21216" lon="-1.48712">
        <ele>55</ele>
        <time>2020-10-17T10:03:38.000Z</time>
      </trkpt>
      <trkpt lat="47.21221" lon="-1.48693">
        <ele>55</ele>
        <time>2020-10-17T10:03:40.000Z</time>
      </trkpt>
      <trkpt lat="47.21226" lon="-1.48675">
        <ele>55</ele>
        <time>2020-10-17T10:03:42.000Z</time>
      </trkpt>
      <trkpt lat="47.2123" lon="-1.48658">
        <ele>55</ele>
        <time>2020-10-17T10:03:44.000Z</time>
      </trkpt>
      <trkpt lat="47.21235" lon="-1.48639">
        <ele>55</ele>
        <time>2020-10-17T10:03:46.000Z</time>
      </trkpt>
      <trkpt lat="47.2124" lon="-1.48622">
        <ele>55</ele>
        <time>2020-10-17T10:03:48.000Z</time>
      </trkpt>
      <trkpt lat="47.21245" lon="-1.48604">
        <ele>55</ele>
        <time>2020-10-17T10:03:50.000Z</time>
      </trkpt>
      <trkpt lat="47.21249" lon="-1.48587">
        <ele>55</ele>
        <time>2020-10-17T10:03:52.000Z</time>
      </trkpt>
      <trkpt lat="47.21254" lon="-1.4857">
        <ele>55</ele>
        <time>2020-10-17T10:03:54.000Z</time>
      </trkpt>
      <trkpt lat="47.21259" lon="-1.48553">
        <ele>55</ele>
        <time>2020-10-17T10:03:56.000Z</time>
      </trkpt>
      <trkpt lat="47.21264" lon="-1.48536">
        <ele>54</ele>
        <time>2020-10-17T10:03:58.000Z</time>
      </trkpt>
      <trkpt lat="47.21271" lon="-1.48522">
        <ele>54</ele>
        <time>2020-10-17T10:04:00.000Z</time>
      </trkpt>
      <trkpt lat="47.21284" lon="-1.48515">
        <ele>54</ele>
        <time>2020-10-17T10:04:02.000Z</time>
      </trkpt>
      <trkpt lat="47.21296" lon="-1.48509">
        <ele>53</ele>
        <time>2020-10-17T10:04:04.000Z</time>
      </trkpt>
      <trkpt lat="47.21301" lon="-1.4849">
        <ele>54</ele>
        <time>2020-10-17T10:04:06.000Z</time>
      </trkpt>
      <trkpt lat="47.21303" lon="-1.48468">
        <ele>55</ele>
        <time>2020-10-17T10:04:08.000Z</time>
      </trkpt>
      <trkpt lat="47.21306" lon="-1.48448">
        <ele>55</ele>
        <time>2020-10-17T10:04:10.000Z</time>
      </trkpt>
      <trkpt lat="47.21311" lon="-1.48429">
        <ele>54</ele>
        <time>2020-10-17T10:04:12.000Z</time>
      </trkpt>
      <trkpt lat="47.21315" lon="-1.48411">
        <ele>54</ele>
        <time>2020-10-17T10:04:14.000Z</time>
      </trkpt>
      <trkpt lat="47.21321" lon="-1.48393">
        <ele>54</ele>
        <time>2020-10-17T10:04:16.000Z</time>
      </trkpt>
      <trkpt lat="47.21326" lon="-1.48376">
        <ele>54</ele>
        <time>2020-10-17T10:04:18.000Z</time>
      </trkpt>
      <trkpt lat="47.21331" lon="-1.4836">
        <ele>54</ele>
        <time>2020-10-17T10:04:20.000Z</time>
      </trkpt>
      <trkpt lat="47.21337" lon="-1.48343">
        <ele>54</ele>
        <time>2020-10-17T10:04:22.000Z</time>
      </trkpt>
      <trkpt lat="47.21343" lon="-1.48326">
        <ele>55</ele>
        <time>2020-10-17T10:04:24.000Z</time>
      </trkpt>
      <trkpt lat="47.21348" lon="-1.48309">
        <ele>55</ele>
        <time>2020-10-17T10:04:26.000Z</time>
      </trkpt>
      <trkpt lat="47.21353" lon="-1.48292">
        <ele>54</ele>
        <time>2020-10-17T10:04:28.000Z</time>
      </trkpt>
      <trkpt lat="47.21359" lon="-1.48274">
        <ele>54</ele>
        <time>2020-10-17T10:04:30.000Z</time>
      </trkpt>
      <trkpt lat="47.21365" lon="-1.48257">
        <ele>54</ele>
        <time>2020-10-17T10:04:32.000Z</time>
      </trkpt>
      <trkpt lat="47.2137" lon="-1.4824">
        <ele>54</ele>
        <time>2020-10-17T10:04:34.000Z</time>
      </trkpt>
      <trkpt lat="47.21376" lon="-1.48223">
        <ele>55</ele>
        <time>2020-10-17T10:04:36.000Z</time>
      </trkpt>
      <trkpt lat="47.21383" lon="-1.48207">
        <ele>55</ele>
        <time>2020-10-17T10:04:38.000Z</time>
      </trkpt>
      <trkpt lat="47.21389" lon="-1.48191">
        <ele>55</ele>
        <time>2020-10-17T10:04:40.000Z</time>
      </trkpt>
      <trkpt lat="47.21396" lon="-1.48176">
        <ele>56</ele>
        <time>2020-10-17T10:04:42.000Z</time>
      </trkpt>
      <trkpt lat="47.21404" lon="-1.48161">
        <ele>55</ele>
        <time>2020-10-17T10:04:44.000Z</time>
      </trkpt>
      <trkpt lat="47.21411" lon="-1.48146">
        <ele>56</ele>
        <time>2020-10-17T10:04:46.000Z</time>
      </trkpt>
      <trkpt lat="47.21419" lon="-1.48131">
        <ele>56</ele>
        <time>2020-10-17T10:04:48.000Z</time>
      </trkpt>
      <trkpt lat="47.21428" lon="-1.48115">
        <ele>56</ele>
        <time>2020-10-17T10:04:50.000Z</time>
      </trkpt>
      <trkpt lat="47.21436" lon="-1.481">
        <ele>55</ele>
        <time>2020-10-17T10:04:52.000Z</time>
      </trkpt>
      <trkpt lat="47.21445" lon="-1.48085">
        <ele>55</ele>
        <time>2020-10-17T10:04:54.000Z</time>
      </trkpt>
      <trkpt lat="47.21453" lon="-1.48071">
        <ele>55</ele>
        <time>2020-10-17T10:04:56.000Z</time>
      </trkpt>
      <trkpt lat="47.21462" lon="-1.48058">
        <ele>55</ele>
        <time>2020-10-17T10:04:58.000Z</time>
      </trkpt>
      <trkpt lat="47.21472" lon="-1.48046">
        <ele>55</ele>
        <time>2020-10-17T10:05:00.000Z</time>
      </trkpt>
      <trkpt lat="47.21482" lon="-1.48034">
        <ele>55</ele>
        <time>2020-10-17T10:05:02.000Z</time>
      </trkpt>
      <trkpt lat="47.21492" lon="-1.48023">
        <ele>55</ele>
        <time>2020-10-17T10:05:04.000Z</time>
      </trkpt>
      <trkpt lat="47.21501" lon="-1.48011">
        <ele>55</ele>
        <time>2020-10-17T10:05:06.000Z</time>
      </trkpt>
      <trkpt lat="47.21511" lon="-1.48">
        <ele>56</ele>
        <time>2020-10-17T10:05:08.000Z</time>
      </trkpt>
      <trkpt lat="47.21521" lon="-1.47989">
        <ele>56</ele>
        <time>2020-10-17T10:05:10.000Z</time>
      </trkpt>
      <trkpt lat="47.2153" lon="-1.47978">
        <ele>56</ele>
        <time>2020-10-17T10:05:12.000Z</time>
      </trkpt>
      <trkpt lat="47.21541" lon="-1.47966">
        <ele>55</ele>
        <time>2020-10-17T10:05:14.000Z</time>
      </trkpt>
      <trkpt lat="47.21551" lon="-1.47955">
        <ele>56</ele>
        <time>2020-10-17T10:05:16.000Z</time>
      </trkpt>
      <trkpt lat="47.21563" lon="-1.47945">
        <ele>56</ele>
        <time>2020-10-17T10:05:18.000Z</time>
      </trkpt>
      <trkpt lat="47.21574" lon="-1.47934">
        <ele>56</ele>
        <time>2020-10-17T10:05:20.000Z</time>
      </trkpt>
      <trkpt lat="47.21586" lon="-1.47924">
        <ele>56</ele>
        <time>2020-10-17T10:05:22.000Z</time>
      </trkpt>
      <trkpt lat="47.21596" lon="-1.47914">
        <ele>56</ele>
        <time>2020-10-17T10:05:24.000Z</time>
      </trkpt>
      <trkpt lat="47.21608" lon="-1.47903">
        <ele>55</ele>
        <time>2020-10-17T10:05:26.000Z</time>
      </trkpt>
      <trkpt lat="47.21619" lon="-1.47893">
        <ele>56</ele>
        <time>2020-10-17T10:05:28.000Z</time>
      </trkpt>
      <trkpt lat="47.2163" lon="-1.47884">
        <ele>56</ele>
        <time>2020-10-17T10:05:30.000Z</time>
      </trkpt>
      <trkpt lat="47.2164" lon="-1.47873">
        <ele>56</ele>
        <time>2020-10-17T10:05:32.000Z</time>
      </trkpt>
      <trkpt lat="47.21651" lon="-1.47863">
        <ele>56</ele>
        <time>2020-10-17T10:05:34.000Z</time>
      </trkpt>
      <trkpt lat="47.21662" lon="-1.47853">
        <ele>55</ele>
        <time>2020-10-17T10:05:36.000Z</time>
      </trkpt>
      <trkpt lat="47.21674" lon="-1.47843">
        <ele>55</ele>
        <time>2020-10-17T10:05:38.000Z</time>
      </trkpt>
      <trkpt lat="47.21685" lon="-1.47833">
        <ele>55</ele>
        <time>2020-10-17T10:05:40.000Z</time>
      </trkpt>
      <trkpt lat="47.21696" lon="-1.47823">
        <ele>54</ele>
        <time>2020-10-17T10:05:42.000Z</time>
      </trkpt>
      <trkpt lat="47.21706" lon="-1.47813">
        <ele>55</ele>
        <time>2020-10-17T10:05:44.000Z</time>
      </trkpt>
      <trkpt lat="47.21716" lon="-1.47803">
        <ele>55</ele>
        <time>2020-10-17T10:05:46.000Z</time>
      </trkpt>
      <trkpt lat="47.21727" lon="-1.47793">
        <ele>56</ele>
        <time>2020-10-17T10:05:48.000Z</time>
      </trkpt>
      <trkpt lat="47.21737" lon="-1.47783">
        <ele>56</ele>
        <time>2020-10-17T10:05:50.000Z</time>
      </trkpt>
      <trkpt lat="47.21747" lon="-1.47774">
        <ele>56</ele>
        <time>2020-10-17T10:05:52.000Z</time>
      </trkpt>
      <trkpt lat="47.21757" lon="-1.47764">
        <ele>56</ele>
        <time>2020-10-17T10:05:54.000Z</time>
      </trkpt>
      <trkpt lat="47.21768" lon="-1.47754">
        <ele>56</ele>
        <time>2020-10-17T10:05:56.000Z</time>
      </trkpt>
      <trkpt lat="47.21779" lon="-1.47746">
        <ele>56</ele>
        <time>2020-10-17T10:05:58.000Z</time>
      </trkpt>
      <trkpt lat="47.21789" lon="-1.47737">
        <ele>55</ele>
        <time>2020-10-17T10:06:00.000Z</time>
      </trkpt>
      <trkpt lat="47.218" lon="-1.47729">
        <ele>56</ele>
        <time>2020-10-17T10:06:02.000Z</time>
      </trkpt>
      <trkpt lat="47.21812" lon="-1.47721">
        <ele>55</ele>
        <time>2020-10-17T10:06:04.000Z</time>
      </trkpt>
      <trkpt lat="47.21823" lon="-1.47712">
        <ele>55</ele>
        <time>2020-10-17T10:06:06.000Z</time>
      </trkpt>
      <trkpt lat="47.21834" lon="-1.47703">
        <ele>55</ele>
        <time>2020-10-17T10:06:08.000Z</time>
      </trkpt>
      <trkpt lat="47.21845" lon="-1.47692">
        <ele>55</ele>
        <time>2020-10-17T10:06:10.000Z</time>
      </trkpt>
      <trkpt lat="47.21857" lon="-1.47681">
        <ele>54</ele>
        <time>2020-10-17T10:06:12.000Z</time>
      </trkpt>
      <trkpt lat="47.21869" lon="-1.4767">
        <ele>54</ele>
        <time>2020-10-17T10:06:14.000Z</time>
      </trkpt>
      <trkpt lat="47.21881" lon="-1.47659">
        <ele>54</ele>
        <time>2020-10-17T10:06:16.000Z</time>
      </trkpt>
      <trkpt lat="47.21893" lon="-1.47648">
        <ele>54</ele>
        <time>2020-10-17T10:06:18.000Z</time>
      </trkpt>
      <trkpt lat="47.21904" lon="-1.47638">
        <ele>54</ele>
        <time>2020-10-17T10:06:20.000Z</time>
      </trkpt>
      <trkpt lat="47.21916" lon="-1.47628">
        <ele>54</ele>
        <time>2020-10-17T10:06:22.000Z</time>
      </trkpt>
      <trkpt lat="47.21927" lon="-1.47618">
        <ele>54</ele>
        <time>2020-10-17T10:06:24.000Z</time>
      </trkpt>
      <trkpt lat="47.21938" lon="-1.47608">
        <ele>54</ele>
        <time>2020-10-17T10:06:26.000Z</time>
      </trkpt>
      <trkpt lat="47.21949" lon="-1.47597">
        <ele>54</ele>
        <time>2020-10-17T10:06:28.000Z</time>
      </trkpt>
      <trkpt lat="47.21961" lon="-1.47587">
        <ele>54</ele>
        <time>2020-10-17T10:06:30.000Z</time>
      </trkpt>
      <trkpt lat="47.21971" lon="-1.47576">
        <ele>54</ele>
        <time>2020-10-17T10:06:32.000Z</time>
      </trkpt>
      <trkpt lat="47.21982" lon="-1.47566">
        <ele>55</ele>
        <time>2020-10-17T10:06:34.000Z</time>
      </trkpt>
      <trkpt lat="47.21993" lon="-1.47556">
        <ele>54</ele>
        <time>2020-10-17T10:06:36.000Z</time>
      </trkpt>
      <trkpt lat="47.22003" lon="-1.47545">
        <ele>53</ele>
        <time>2020-10-17T10:06:38.000Z</time>
      </trkpt>
      <trkpt lat="47.22015" lon="-1.47535">
        <ele>54</ele>
        <time>2020-10-17T10:06:40.000Z</time>
      </trkpt>
      <trkpt lat="47.22027" lon="-1.47525">
        <ele>53</ele>
        <time>2020-10-17T10:06:42.000Z</time>
      </trkpt>
      <trkpt lat="47.22038" lon="-1.47515">
        <ele>53</ele>
        <time>2020-10-17T10:06:44.000Z</time>
      </trkpt>
      <trkpt lat="47.22049" lon="-1.47504">
        <ele>53</ele>
        <time>2020-10-17T10:06:46.000Z</time>
      </trkpt>
      <trkpt lat="47.2206" lon="-1.47495">
        <ele>53</ele>
        <time>2020-10-17T10:06:48.000Z</time>
      </trkpt>
      <trkpt lat="47.22071" lon="-1.47485">
        <ele>53</ele>
        <time>2020-10-17T10:06:50.000Z</time>
      </trkpt>
      <trkpt lat="47.22082" lon="-1.47475">
        <ele>53</ele>
        <time>2020-10-17T10:06:52.000Z</time>
      </trkpt>
      <trkpt lat="47.22093" lon="-1.47465">
        <ele>54</ele>
        <time>2020-10-17T10:06:54.000Z</time>
      </trkpt>
      <trkpt lat="47.22104" lon="-1.47456">
        <ele>54</ele>
        <time>2020-10-17T10:06:56.000Z</time>
      </trkpt>
      <trkpt lat="47.22115" lon="-1.47446">
        <ele>53</ele>
        <time>2020-10-17T10:06:58.000Z</time>
      </trkpt>
      <trkpt lat="47.22127" lon="-1.47437">
        <ele>53</ele>
        <time>2020-10-17T10:07:00.000Z</time>
      </trkpt>
      <trkpt lat="47.22138" lon="-1.47427">
        <ele>54</ele>
        <time>2020-10-17T10:07:02.000Z</time>
      </trkpt>
      <trkpt lat="47.22149" lon="-1.47418">
        <ele>54</ele>
        <time>2020-10-17T10:07:04.000Z</time>
      </trkpt>
      <trkpt lat="47.2216" lon="-1.47409">
        <ele>54</ele>
        <time>2020-10-17T10:07:06.000Z</time>
      </trkpt>
      <trkpt lat="47.2217" lon="-1.47399">
        <ele>54</ele>
        <time>2020-10-17T10:07:08.000Z</time>
      </trkpt>
      <trkpt lat="47.22181" lon="-1.4739">
        <ele>54</ele>
        <time>2020-10-17T10:07:10.000Z</time>
      </trkpt>
      <trkpt lat="47.22193" lon="-1.47381">
        <ele>54</ele>
        <time>2020-10-17T10:07:12.000Z</time>
      </trkpt>
      <trkpt lat="47.22204" lon="-1.47372">
        <ele>54</ele>
        <time>2020-10-17T10:07:14.000Z</time>
      </trkpt>
      <trkpt lat="47.22215" lon="-1.47363">
        <ele>54</ele>
        <time>2020-10-17T10:07:16.000Z</time>
      </trkpt>
      <trkpt lat="47.22227" lon="-1.47355">
        <ele>54</ele>
        <time>2020-10-17T10:07:18.000Z</time>
      </trkpt>
      <trkpt lat="47.22239" lon="-1.47348">
        <ele>54</ele>
        <time>2020-10-17T10:07:20.000Z</time>
      </trkpt>
      <trkpt lat="47.22252" lon="-1.47341">
        <ele>53</ele>
        <time>2020-10-17T10:07:22.000Z</time>
      </trkpt>
      <trkpt lat="47.22263" lon="-1.47333">
        <ele>53</ele>
        <time>2020-10-17T10:07:24.000Z</time>
      </trkpt>
      <trkpt lat="47.22275" lon="-1.47325">
        <ele>54</ele>
        <time>2020-10-17T10:07:26.000Z</time>
      </trkpt>
      <trkpt lat="47.22286" lon="-1.47316">
        <ele>54</ele>
        <time>2020-10-17T10:07:28.000Z</time>
      </trkpt>
      <trkpt lat="47.22298" lon="-1.47307">
        <ele>54</ele>
        <time>2020-10-17T10:07:30.000Z</time>
      </trkpt>
      <trkpt lat="47.22309" lon="-1.47297">
        <ele>54</ele>
        <time>2020-10-17T10:07:32.000Z</time>
      </trkpt>
      <trkpt lat="47.2232" lon="-1.47287">
        <ele>53</ele>
        <time>2020-10-17T10:07:34.000Z</time>
      </trkpt>
      <trkpt lat="47.22331" lon="-1.47278">
        <ele>53</ele>
        <time>2020-10-17T10:07:36.000Z</time>
      </trkpt>
      <trkpt lat="47.22342" lon="-1.47268">
        <ele>54</ele>
        <time>2020-10-17T10:07:38.000Z</time>
      </trkpt>
      <trkpt lat="47.22353" lon="-1.47259">
        <ele>54</ele>
        <time>2020-10-17T10:07:40.000Z</time>
      </trkpt>
      <trkpt lat="47.22363" lon="-1.47249">
        <ele>54</ele>
        <time>2020-10-17T10:07:42.000Z</time>
      </trkpt>
      <trkpt lat="47.22374" lon="-1.47239">
        <ele>54</ele>
        <time>2020-10-17T10:07:44.000Z</time>
      </trkpt>
      <trkpt lat="47.22384" lon="-1.4723">
        <ele>55</ele>
        <time>2020-10-17T10:07:46.000Z</time>
      </trkpt>
      <trkpt lat="47.22394" lon="-1.47219">
        <ele>55</ele>
        <time>2020-10-17T10:07:48.000Z</time>
      </trkpt>
      <trkpt lat="47.22404" lon="-1.47209">
        <ele>55</ele>
        <time>2020-10-17T10:07:50.000Z</time>
      </trkpt>
      <trkpt lat="47.22413" lon="-1.47198">
        <ele>55</ele>
        <time>2020-10-17T10:07:52.000Z</time>
      </trkpt>
      <trkpt lat="47.22423" lon="-1.47188">
        <ele>55</ele>
        <time>2020-10-17T10:07:54.000Z</time>
      </trkpt>
      <trkpt lat="47.22433" lon="-1.47178">
        <ele>56</ele>
        <time>2020-10-17T10:07:56.000Z</time>
      </trkpt>
      <trkpt lat="47.22443" lon="-1.47168">
        <ele>56</ele>
        <time>2020-10-17T10:07:58.000Z</time>
      </trkpt>
      <trkpt lat="47.22453" lon="-1.47158">
        <ele>56</ele>
        <time>2020-10-17T10:08:00.000Z</time>
      </trkpt>
      <trkpt lat="47.22464" lon="-1.4715">
        <ele>57</ele>
        <time>2020-10-17T10:08:02.000Z</time>
      </trkpt>
      <trkpt lat="47.22475" lon="-1.47142">
        <ele>57</ele>
        <time>2020-10-17T10:08:04.000Z</time>
      </trkpt>
      <trkpt lat="47.22487" lon="-1.47135">
        <ele>56</ele>
        <time>2020-10-17T10:08:06.000Z</time>
      </trkpt>
      <trkpt lat="47.22499" lon="-1.47131">
        <ele>57</ele>
        <time>2020-10-17T10:08:08.000Z</time>
      </trkpt>
      <trkpt lat="47.22512" lon="-1.47128">
        <ele>57</ele>
        <time>2020-10-17T10:08:10.000Z</time>
      </trkpt>
      <trkpt lat="47.22525" lon="-1.47124">
        <ele>57</ele>
        <time>2020-10-17T10:08:12.000Z</time>
      </trkpt>
      <trkpt lat="47.22539" lon="-1.47121">
        <ele>56</ele>
        <time>2020-10-17T10:08:14.000Z</time>
      </trkpt>
      <trkpt lat="47.22552" lon="-1.47118">
        <ele>55</ele>
        <time>2020-10-17T10:08:16.000Z</time>
      </trkpt>
      <trkpt lat="47.22565" lon="-1.47114">
        <ele>55</ele>
        <time>2020-10-17T10:08:18.000Z</time>
      </trkpt>
      <trkpt lat="47.22578" lon="-1.47107">
        <ele>55</ele>
        <time>2020-10-17T10:08:20.000Z</time>
      </trkpt>
      <trkpt lat="47.2259" lon="-1.47096">
        <ele>54</ele>
        <time>2020-10-17T10:08:22.000Z</time>
      </trkpt>
      <trkpt lat="47.226" lon="-1.47084">
        <ele>54</ele>
        <time>2020-10-17T10:08:24.000Z</time>
      </trkpt>
      <trkpt lat="47.22612" lon="-1.47063">
        <ele>53</ele>
        <time>2020-10-17T10:08:27.000Z</time>
      </trkpt>
      <trkpt lat="47.22621" lon="-1.47049">
        <ele>53</ele>
        <time>2020-10-17T10:08:29.000Z</time>
      </trkpt>
      <trkpt lat="47.22628" lon="-1.47035">
        <ele>53</ele>
        <time>2020-10-17T10:08:31.000Z</time>
      </trkpt>
      <trkpt lat="47.22636" lon="-1.47022">
        <ele>53</ele>
        <time>2020-10-17T10:08:33.000Z</time>
      </trkpt>
      <trkpt lat="47.22646" lon="-1.47011">
        <ele>53</ele>
        <time>2020-10-17T10:08:35.000Z</time>
      </trkpt>
      <trkpt lat="47.22656" lon="-1.47">
        <ele>53</ele>
        <time>2020-10-17T10:08:37.000Z</time>
      </trkpt>
      <trkpt lat="47.22667" lon="-1.4699">
        <ele>52</ele>
        <time>2020-10-17T10:08:39.000Z</time>
      </trkpt>
      <trkpt lat="47.22678" lon="-1.46981">
        <ele>53</ele>
        <time>2020-10-17T10:08:41.000Z</time>
      </trkpt>
      <trkpt lat="47.22689" lon="-1.46973">
        <ele>53</ele>
        <time>2020-10-17T10:08:43.000Z</time>
      </trkpt>
      <trkpt lat="47.22701" lon="-1.46966">
        <ele>53</ele>
        <time>2020-10-17T10:08:45.000Z</time>
      </trkpt>
      <trkpt lat="47.22713" lon="-1.4696">
        <ele>53</ele>
        <time>2020-10-17T10:08:47.000Z</time>
      </trkpt>
      <trkpt lat="47.22726" lon="-1.46955">
        <ele>54</ele>
        <time>2020-10-17T10:08:49.000Z</time>
      </trkpt>
      <trkpt lat="47.22738" lon="-1.46951">
        <ele>53</ele>
        <time>2020-10-17T10:08:51.000Z</time>
      </trkpt>
      <trkpt lat="47.22751" lon="-1.4695">
        <ele>54</ele>
        <time>2020-10-17T10:08:53.000Z</time>
      </trkpt>
      <trkpt lat="47.22765" lon="-1.4695">
        <ele>54</ele>
        <time>2020-10-17T10:08:55.000Z</time>
      </trkpt>
      <trkpt lat="47.22778" lon="-1.46951">
        <ele>54</ele>
        <time>2020-10-17T10:08:57.000Z</time>
      </trkpt>
      <trkpt lat="47.22791" lon="-1.46954">
        <ele>53</ele>
        <time>2020-10-17T10:08:59.000Z</time>
      </trkpt>
      <trkpt lat="47.22803" lon="-1.46958">
        <ele>54</ele>
        <time>2020-10-17T10:09:01.000Z</time>
      </trkpt>
      <trkpt lat="47.22815" lon="-1.46964">
        <ele>55</ele>
        <time>2020-10-17T10:09:03.000Z</time>
      </trkpt>
      <trkpt lat="47.22827" lon="-1.4697">
        <ele>55</ele>
        <time>2020-10-17T10:09:05.000Z</time>
      </trkpt>
      <trkpt lat="47.2284" lon="-1.46976">
        <ele>55</ele>
        <time>2020-10-17T10:09:07.000Z</time>
      </trkpt>
      <trkpt lat="47.22852" lon="-1.46983">
        <ele>55</ele>
        <time>2020-10-17T10:09:09.000Z</time>
      </trkpt>
      <trkpt lat="47.22866" lon="-1.46991">
        <ele>55</ele>
        <time>2020-10-17T10:09:11.000Z</time>
      </trkpt>
      <trkpt lat="47.22885" lon="-1.47001">
        <ele>54</ele>
        <time>2020-10-17T10:09:14.000Z</time>
      </trkpt>
      <trkpt lat="47.229" lon="-1.46997">
        <ele>55</ele>
        <time>2020-10-17T10:09:16.000Z</time>
      </trkpt>
      <trkpt lat="47.22908" lon="-1.4698">
        <ele>54</ele>
        <time>2020-10-17T10:09:18.000Z</time>
      </trkpt>
      <trkpt lat="47.22914" lon="-1.46962">
        <ele>53</ele>
        <time>2020-10-17T10:09:20.000Z</time>
      </trkpt>
      <trkpt lat="47.22918" lon="-1.46943">
        <ele>53</ele>
        <time>2020-10-17T10:09:22.000Z</time>
      </trkpt>
      <trkpt lat="47.22923" lon="-1.46924">
        <ele>53</ele>
        <time>2020-10-17T10:09:24.000Z</time>
      </trkpt>
      <trkpt lat="47.22926" lon="-1.46907">
        <ele>53</ele>
        <time>2020-10-17T10:09:26.000Z</time>
      </trkpt>
      <trkpt lat="47.22931" lon="-1.46888">
        <ele>52</ele>
        <time>2020-10-17T10:09:28.000Z</time>
      </trkpt>
      <trkpt lat="47.22938" lon="-1.4686">
        <ele>53</ele>
        <time>2020-10-17T10:09:31.000Z</time>
      </trkpt>
      <trkpt lat="47.22944" lon="-1.46845">
        <ele>52</ele>
        <time>2020-10-17T10:09:33.000Z</time>
      </trkpt>
      <trkpt lat="47.22951" lon="-1.46832">
        <ele>51</ele>
        <time>2020-10-17T10:09:35.000Z</time>
      </trkpt>
      <trkpt lat="47.22961" lon="-1.46824">
        <ele>52</ele>
        <time>2020-10-17T10:09:37.000Z</time>
      </trkpt>
      <trkpt lat="47.22971" lon="-1.46803">
        <ele>52</ele>
        <time>2020-10-17T10:09:40.000Z</time>
      </trkpt>
      <trkpt lat="47.22977" lon="-1.46786">
        <ele>52</ele>
        <time>2020-10-17T10:09:42.000Z</time>
      </trkpt>
      <trkpt lat="47.22985" lon="-1.46771">
        <ele>51</ele>
        <time>2020-10-17T10:09:44.000Z</time>
      </trkpt>
      <trkpt lat="47.22995" lon="-1.46761">
        <ele>51</ele>
        <time>2020-10-17T10:09:46.000Z</time>
      </trkpt>
      <trkpt lat="47.23005" lon="-1.46752">
        <ele>51</ele>
        <time>2020-10-17T10:09:48.000Z</time>
      </trkpt>
      <trkpt lat="47.23014" lon="-1.46746">
        <ele>51</ele>
        <time>2020-10-17T10:09:50.000Z</time>
      </trkpt>
      <trkpt lat="47.23023" lon="-1.46741">
        <ele>51</ele>
        <time>2020-10-17T10:09:52.000Z</time>
      </trkpt>
      <trkpt lat="47.23032" lon="-1.46739">
        <ele>51</ele>
        <time>2020-10-17T10:09:54.000Z</time>
      </trkpt>
      <trkpt lat="47.23041" lon="-1.46735">
        <ele>51</ele>
        <time>2020-10-17T10:09:56.000Z</time>
      </trkpt>
      <trkpt lat="47.23047" lon="-1.46721">
        <ele>52</ele>
        <time>2020-10-17T10:09:58.000Z</time>
      </trkpt>
      <trkpt lat="47.2305" lon="-1.46695">
        <ele>53</ele>
        <time>2020-10-17T10:10:01.000Z</time>
      </trkpt>
      <trkpt lat="47.23053" lon="-1.46678">
        <ele>54</ele>
        <time>2020-10-17T10:10:03.000Z</time>
      </trkpt>
      <trkpt lat="47.23059" lon="-1.46662">
        <ele>53</ele>
        <time>2020-10-17T10:10:05.000Z</time>
      </trkpt>
      <trkpt lat="47.23065" lon="-1.46645">
        <ele>54</ele>
        <time>2020-10-17T10:10:07.000Z</time>
      </trkpt>
      <trkpt lat="47.23071" lon="-1.46631">
        <ele>54</ele>
        <time>2020-10-17T10:10:09.000Z</time>
      </trkpt>
      <trkpt lat="47.2308" lon="-1.46619">
        <ele>54</ele>
        <time>2020-10-17T10:10:11.000Z</time>
      </trkpt>
      <trkpt lat="47.2309" lon="-1.46608">
        <ele>54</ele>
        <time>2020-10-17T10:10:13.000Z</time>
      </trkpt>
      <trkpt lat="47.23099" lon="-1.46598">
        <ele>54</ele>
        <time>2020-10-17T10:10:15.000Z</time>
      </trkpt>
      <trkpt lat="47.23107" lon="-1.46587">
        <ele>55</ele>
        <time>2020-10-17T10:10:17.000Z</time>
      </trkpt>
      <trkpt lat="47.23117" lon="-1.46578">
        <ele>54</ele>
        <time>2020-10-17T10:10:19.000Z</time>
      </trkpt>
      <trkpt lat="47.23126" lon="-1.46566">
        <ele>54</ele>
        <time>2020-10-17T10:10:21.000Z</time>
      </trkpt>
      <trkpt lat="47.23136" lon="-1.46556">
        <ele>53</ele>
        <time>2020-10-17T10:10:23.000Z</time>
      </trkpt>
      <trkpt lat="47.23144" lon="-1.46544">
        <ele>53</ele>
        <time>2020-10-17T10:10:25.000Z</time>
      </trkpt>
      <trkpt lat="47.23154" lon="-1.46534">
        <ele>53</ele>
        <time>2020-10-17T10:10:27.000Z</time>
      </trkpt>
      <trkpt lat="47.23164" lon="-1.46523">
        <ele>53</ele>
        <time>2020-10-17T10:10:29.000Z</time>
      </trkpt>
      <trkpt lat="47.23172" lon="-1.46511">
        <ele>53</ele>
        <time>2020-10-17T10:10:31.000Z</time>
      </trkpt>
      <trkpt lat="47.23181" lon="-1.465">
        <ele>53</ele>
        <time>2020-10-17T10:10:33.000Z</time>
      </trkpt>
      <trkpt lat="47.23191" lon="-1.46489">
        <ele>53</ele>
        <time>2020-10-17T10:10:35.000Z</time>
      </trkpt>
      <trkpt lat="47.23199" lon="-1.46478">
        <ele>53</ele>
        <time>2020-10-17T10:10:37.000Z</time>
      </trkpt>
      <trkpt lat="47.23208" lon="-1.46467">
        <ele>52</ele>
        <time>2020-10-17T10:10:39.000Z</time>
      </trkpt>
      <trkpt lat="47.23221" lon="-1.46448">
        <ele>53</ele>
        <time>2020-10-17T10:10:42.000Z</time>
      </trkpt>
      <trkpt lat="47.2323" lon="-1.46436">
        <ele>53</ele>
        <time>2020-10-17T10:10:44.000Z</time>
      </trkpt>
      <trkpt lat="47.2324" lon="-1.46425">
        <ele>53</ele>
        <time>2020-10-17T10:10:46.000Z</time>
      </trkpt>
      <trkpt lat="47.2325" lon="-1.46412">
        <ele>52</ele>
        <time>2020-10-17T10:10:48.000Z</time>
      </trkpt>
      <trkpt lat="47.23259" lon="-1.464">
        <ele>52</ele>
        <time>2020-10-17T10:10:50.000Z</time>
      </trkpt>
      <trkpt lat="47.23268" lon="-1.46389">
        <ele>53</ele>
        <time>2020-10-17T10:10:52.000Z</time>
      </trkpt>
      <trkpt lat="47.23278" lon="-1.46378">
        <ele>53</ele>
        <time>2020-10-17T10:10:54.000Z</time>
      </trkpt>
      <trkpt lat="47.23288" lon="-1.46367">
        <ele>53</ele>
        <time>2020-10-17T10:10:56.000Z</time>
      </trkpt>
      <trkpt lat="47.23297" lon="-1.46355">
        <ele>53</ele>
        <time>2020-10-17T10:10:58.000Z</time>
      </trkpt>
      <trkpt lat="47.23306" lon="-1.46341">
        <ele>53</ele>
        <time>2020-10-17T10:11:00.000Z</time>
      </trkpt>
      <trkpt lat="47.23315" lon="-1.46327">
        <ele>53</ele>
        <time>2020-10-17T10:11:02.000Z</time>
      </trkpt>
      <trkpt lat="47.23324" lon="-1.46314">
        <ele>53</ele>
        <time>2020-10-17T10:11:04.000Z</time>
      </trkpt>
      <trkpt lat="47.23334" lon="-1.46302">
        <ele>53</ele>
        <time>2020-10-17T10:11:06.000Z</time>
      </trkpt>
      <trkpt lat="47.23343" lon="-1.46289">
        <ele>53</ele>
        <time>2020-10-17T10:11:08.000Z</time>
      </trkpt>
      <trkpt lat="47.23353" lon="-1.46278">
        <ele>53</ele>
        <time>2020-10-17T10:11:10.000Z</time>
      </trkpt>
      <trkpt lat="47.23364" lon="-1.46265">
        <ele>53</ele>
        <time>2020-10-17T10:11:12.000Z</time>
      </trkpt>
      <trkpt lat="47.23373" lon="-1.46252">
        <ele>53</ele>
        <time>2020-10-17T10:11:14.000Z</time>
      </trkpt>
      <trkpt lat="47.23383" lon="-1.46239">
        <ele>53</ele>
        <time>2020-10-17T10:11:16.000Z</time>
      </trkpt>
      <trkpt lat="47.23393" lon="-1.46227">
        <ele>53</ele>
        <time>2020-10-17T10:11:18.000Z</time>
      </trkpt>
      <trkpt lat="47.23402" lon="-1.46215">
        <ele>53</ele>
        <time>2020-10-17T10:11:20.000Z</time>
      </trkpt>
      <trkpt lat="47.23412" lon="-1.46202">
        <ele>53</ele>
        <time>2020-10-17T10:11:22.000Z</time>
      </trkpt>
      <trkpt lat="47.23421" lon="-1.46191">
        <ele>53</ele>
        <time>2020-10-17T10:11:24.000Z</time>
      </trkpt>
      <trkpt lat="47.23431" lon="-1.46181">
        <ele>53</ele>
        <time>2020-10-17T10:11:26.000Z</time>
      </trkpt>
      <trkpt lat="47.2344" lon="-1.46169">
        <ele>53</ele>
        <time>2020-10-17T10:11:28.000Z</time>
      </trkpt>
      <trkpt lat="47.2345" lon="-1.46159">
        <ele>54</ele>
        <time>2020-10-17T10:11:30.000Z</time>
      </trkpt>
      <trkpt lat="47.2346" lon="-1.4615">
        <ele>54</ele>
        <time>2020-10-17T10:11:32.000Z</time>
      </trkpt>
      <trkpt lat="47.2347" lon="-1.4614">
        <ele>54</ele>
        <time>2020-10-17T10:11:34.000Z</time>
      </trkpt>
      <trkpt lat="47.23481" lon="-1.46131">
        <ele>54</ele>
        <time>2020-10-17T10:11:36.000Z</time>
      </trkpt>
      <trkpt lat="47.2349" lon="-1.46122">
        <ele>54</ele>
        <time>2020-10-17T10:11:38.000Z</time>
      </trkpt>
      <trkpt lat="47.23504" lon="-1.46107">
        <ele>54</ele>
        <time>2020-10-17T10:11:41.000Z</time>
      </trkpt>
      <trkpt lat="47.23512" lon="-1.46098">
        <ele>54</ele>
        <time>2020-10-17T10:11:43.000Z</time>
      </trkpt>
      <trkpt lat="47.23522" lon="-1.4609">
        <ele>55</ele>
        <time>2020-10-17T10:11:45.000Z</time>
      </trkpt>
      <trkpt lat="47.23532" lon="-1.46081">
        <ele>55</ele>
        <time>2020-10-17T10:11:47.000Z</time>
      </trkpt>
      <trkpt lat="47.23542" lon="-1.46072">
        <ele>55</ele>
        <time>2020-10-17T10:11:49.000Z</time>
      </trkpt>
      <trkpt lat="47.23553" lon="-1.46062">
        <ele>55</ele>
        <time>2020-10-17T10:11:51.000Z</time>
      </trkpt>
      <trkpt lat="47.23564" lon="-1.46055">
        <ele>54</ele>
        <time>2020-10-17T10:11:53.000Z</time>
      </trkpt>
      <trkpt lat="47.23577" lon="-1.46053">
        <ele>53</ele>
        <time>2020-10-17T10:11:55.000Z</time>
      </trkpt>
      <trkpt lat="47.23589" lon="-1.4604">
        <ele>53</ele>
        <time>2020-10-17T10:11:57.000Z</time>
      </trkpt>
      <trkpt lat="47.23601" lon="-1.46029">
        <ele>52</ele>
        <time>2020-10-17T10:11:59.000Z</time>
      </trkpt>
      <trkpt lat="47.23613" lon="-1.4602">
        <ele>53</ele>
        <time>2020-10-17T10:12:01.000Z</time>
      </trkpt>
      <trkpt lat="47.23625" lon="-1.46013">
        <ele>53</ele>
        <time>2020-10-17T10:12:03.000Z</time>
      </trkpt>
      <trkpt lat="47.23637" lon="-1.46008">
        <ele>53</ele>
        <time>2020-10-17T10:12:05.000Z</time>
      </trkpt>
      <trkpt lat="47.2365" lon="-1.46004">
        <ele>52</ele>
        <time>2020-10-17T10:12:07.000Z</time>
      </trkpt>
      <trkpt lat="47.23663" lon="-1.46">
        <ele>52</ele>
        <time>2020-10-17T10:12:09.000Z</time>
      </trkpt>
      <trkpt lat="47.23676" lon="-1.45997">
        <ele>52</ele>
        <time>2020-10-17T10:12:11.000Z</time>
      </trkpt>
      <trkpt lat="47.23689" lon="-1.45995">
        <ele>52</ele>
        <time>2020-10-17T10:12:13.000Z</time>
      </trkpt>
      <trkpt lat="47.23708" lon="-1.4599">
        <ele>52</ele>
        <time>2020-10-17T10:12:16.000Z</time>
      </trkpt>
      <trkpt lat="47.23721" lon="-1.45987">
        <ele>51</ele>
        <time>2020-10-17T10:12:18.000Z</time>
      </trkpt>
      <trkpt lat="47.23734" lon="-1.45984">
        <ele>51</ele>
        <time>2020-10-17T10:12:20.000Z</time>
      </trkpt>
      <trkpt lat="47.23746" lon="-1.4598">
        <ele>51</ele>
        <time>2020-10-17T10:12:22.000Z</time>
      </trkpt>
      <trkpt lat="47.23758" lon="-1.45978">
        <ele>51</ele>
        <time>2020-10-17T10:12:24.000Z</time>
      </trkpt>
      <trkpt lat="47.2377" lon="-1.45974">
        <ele>51</ele>
        <time>2020-10-17T10:12:26.000Z</time>
      </trkpt>
      <trkpt lat="47.23781" lon="-1.45969">
        <ele>51</ele>
        <time>2020-10-17T10:12:28.000Z</time>
      </trkpt>
      <trkpt lat="47.23793" lon="-1.45965">
        <ele>51</ele>
        <time>2020-10-17T10:12:30.000Z</time>
      </trkpt>
      <trkpt lat="47.23804" lon="-1.4596">
        <ele>52</ele>
        <time>2020-10-17T10:12:32.000Z</time>
      </trkpt>
      <trkpt lat="47.23817" lon="-1.45955">
        <ele>52</ele>
        <time>2020-10-17T10:12:34.000Z</time>
      </trkpt>
      <trkpt lat="47.23829" lon="-1.45952">
        <ele>52</ele>
        <time>2020-10-17T10:12:36.000Z</time>
      </trkpt>
      <trkpt lat="47.23842" lon="-1.45949">
        <ele>52</ele>
        <time>2020-10-17T10:12:38.000Z</time>
      </trkpt>
      <trkpt lat="47.23854" lon="-1.45946">
        <ele>52</ele>
        <time>2020-10-17T10:12:40.000Z</time>
      </trkpt>
      <trkpt lat="47.23867" lon="-1.45943">
        <ele>53</ele>
        <time>2020-10-17T10:12:42.000Z</time>
      </trkpt>
      <trkpt lat="47.2388" lon="-1.4594">
        <ele>53</ele>
        <time>2020-10-17T10:12:44.000Z</time>
      </trkpt>
      <trkpt lat="47.23893" lon="-1.45937">
        <ele>53</ele>
        <time>2020-10-17T10:12:46.000Z</time>
      </trkpt>
      <trkpt lat="47.23905" lon="-1.45934">
        <ele>53</ele>
        <time>2020-10-17T10:12:48.000Z</time>
      </trkpt>
      <trkpt lat="47.23918" lon="-1.4593">
        <ele>53</ele>
        <time>2020-10-17T10:12:50.000Z</time>
      </trkpt>
      <trkpt lat="47.2393" lon="-1.45927">
        <ele>53</ele>
        <time>2020-10-17T10:12:52.000Z</time>
      </trkpt>
      <trkpt lat="47.23942" lon="-1.45924">
        <ele>54</ele>
        <time>2020-10-17T10:12:54.000Z</time>
      </trkpt>
      <trkpt lat="47.23953" lon="-1.45915">
        <ele>54</ele>
        <time>2020-10-17T10:12:56.000Z</time>
      </trkpt>
      <trkpt lat="47.23963" lon="-1.45903">
        <ele>53</ele>
        <time>2020-10-17T10:12:58.000Z</time>
      </trkpt>
      <trkpt lat="47.23972" lon="-1.4589">
        <ele>53</ele>
        <time>2020-10-17T10:13:00.000Z</time>
      </trkpt>
      <trkpt lat="47.23981" lon="-1.45875">
        <ele>54</ele>
        <time>2020-10-17T10:13:02.000Z</time>
      </trkpt>
      <trkpt lat="47.2399" lon="-1.45861">
        <ele>53</ele>
        <time>2020-10-17T10:13:04.000Z</time>
      </trkpt>
      <trkpt lat="47.23999" lon="-1.45847">
        <ele>53</ele>
        <time>2020-10-17T10:13:06.000Z</time>
      </trkpt>
      <trkpt lat="47.24009" lon="-1.45833">
        <ele>53</ele>
        <time>2020-10-17T10:13:08.000Z</time>
      </trkpt>
      <trkpt lat="47.24018" lon="-1.45819">
        <ele>53</ele>
        <time>2020-10-17T10:13:10.000Z</time>
      </trkpt>
      <trkpt lat="47.24027" lon="-1.45804">
        <ele>53</ele>
        <time>2020-10-17T10:13:12.000Z</time>
      </trkpt>
      <trkpt lat="47.24036" lon="-1.4579">
        <ele>53</ele>
        <time>2020-10-17T10:13:14.000Z</time>
      </trkpt>
      <trkpt lat="47.24045" lon="-1.45776">
        <ele>53</ele>
        <time>2020-10-17T10:13:16.000Z</time>
      </trkpt>
      <trkpt lat="47.24054" lon="-1.45762">
        <ele>53</ele>
        <time>2020-10-17T10:13:18.000Z</time>
      </trkpt>
      <trkpt lat="47.24063" lon="-1.45749">
        <ele>53</ele>
        <time>2020-10-17T10:13:20.000Z</time>
      </trkpt>
      <trkpt lat="47.24071" lon="-1.45735">
        <ele>52</ele>
        <time>2020-10-17T10:13:22.000Z</time>
      </trkpt>
      <trkpt lat="47.2408" lon="-1.45721">
        <ele>52</ele>
        <time>2020-10-17T10:13:24.000Z</time>
      </trkpt>
      <trkpt lat="47.24089" lon="-1.45708">
        <ele>52</ele>
        <time>2020-10-17T10:13:26.000Z</time>
      </trkpt>
      <trkpt lat="47.24097" lon="-1.45694">
        <ele>52</ele>
        <time>2020-10-17T10:13:28.000Z</time>
      </trkpt>
      <trkpt lat="47.24105" lon="-1.45679">
        <ele>52</ele>
        <time>2020-10-17T10:13:30.000Z</time>
      </trkpt>
      <trkpt lat="47.24113" lon="-1.45665">
        <ele>52</ele>
        <time>2020-10-17T10:13:32.000Z</time>
      </trkpt>
      <trkpt lat="47.2412" lon="-1.45649">
        <ele>51</ele>
        <time>2020-10-17T10:13:34.000Z</time>
      </trkpt>
      <trkpt lat="47.24126" lon="-1.45634">
        <ele>51</ele>
        <time>2020-10-17T10:13:36.000Z</time>
      </trkpt>
      <trkpt lat="47.24132" lon="-1.45619">
        <ele>51</ele>
        <time>2020-10-17T10:13:38.000Z</time>
      </trkpt>
      <trkpt lat="47.24138" lon="-1.45604">
        <ele>51</ele>
        <time>2020-10-17T10:13:40.000Z</time>
      </trkpt>
      <trkpt lat="47.24143" lon="-1.45588">
        <ele>51</ele>
        <time>2020-10-17T10:13:42.000Z</time>
      </trkpt>
      <trkpt lat="47.24148" lon="-1.45573">
        <ele>52</ele>
        <time>2020-10-17T10:13:44.000Z</time>
      </trkpt>
      <trkpt lat="47.24153" lon="-1.45557">
        <ele>52</ele>
        <time>2020-10-17T10:13:46.000Z</time>
      </trkpt>
      <trkpt lat="47.24158" lon="-1.45541">
        <ele>51</ele>
        <time>2020-10-17T10:13:48.000Z</time>
      </trkpt>
      <trkpt lat="47.24163" lon="-1.45525">
        <ele>51</ele>
        <time>2020-10-17T10:13:50.000Z</time>
      </trkpt>
      <trkpt lat="47.24168" lon="-1.4551">
        <ele>50</ele>
        <time>2020-10-17T10:13:52.000Z</time>
      </trkpt>
      <trkpt lat="47.24172" lon="-1.45495">
        <ele>51</ele>
        <time>2020-10-17T10:13:54.000Z</time>
      </trkpt>
      <trkpt lat="47.24175" lon="-1.4548">
        <ele>51</ele>
        <time>2020-10-17T10:13:56.000Z</time>
      </trkpt>
      <trkpt lat="47.24179" lon="-1.45467">
        <ele>52</ele>
        <time>2020-10-17T10:13:58.000Z</time>
      </trkpt>
      <trkpt lat="47.24183" lon="-1.45454">
        <ele>53</ele>
        <time>2020-10-17T10:14:00.000Z</time>
      </trkpt>
      <trkpt lat="47.24188" lon="-1.45441">
        <ele>54</ele>
        <time>2020-10-17T10:14:02.000Z</time>
      </trkpt>
      <trkpt lat="47.24193" lon="-1.45424">
        <ele>53</ele>
        <time>2020-10-17T10:14:04.000Z</time>
      </trkpt>
      <trkpt lat="47.242" lon="-1.45407">
        <ele>53</ele>
        <time>2020-10-17T10:14:06.000Z</time>
      </trkpt>
      <trkpt lat="47.24206" lon="-1.45389">
        <ele>54</ele>
        <time>2020-10-17T10:14:08.000Z</time>
      </trkpt>
      <trkpt lat="47.24211" lon="-1.45372">
        <ele>53</ele>
        <time>2020-10-17T10:14:10.000Z</time>
      </trkpt>
      <trkpt lat="47.24216" lon="-1.45355">
        <ele>53</ele>
        <time>2020-10-17T10:14:12.000Z</time>
      </trkpt>
      <trkpt lat="47.24221" lon="-1.45339">
        <ele>53</ele>
        <time>2020-10-17T10:14:14.000Z</time>
      </trkpt>
      <trkpt lat="47.24227" lon="-1.45322">
        <ele>52</ele>
        <time>2020-10-17T10:14:16.000Z</time>
      </trkpt>
      <trkpt lat="47.24232" lon="-1.45306">
        <ele>52</ele>
        <time>2020-10-17T10:14:18.000Z</time>
      </trkpt>
      <trkpt lat="47.24237" lon="-1.4529">
        <ele>52</ele>
        <time>2020-10-17T10:14:20.000Z</time>
      </trkpt>
      <trkpt lat="47.24242" lon="-1.45276">
        <ele>51</ele>
        <time>2020-10-17T10:14:22.000Z</time>
      </trkpt>
      <trkpt lat="47.24249" lon="-1.45264">
        <ele>51</ele>
        <time>2020-10-17T10:14:24.000Z</time>
      </trkpt>
      <trkpt lat="47.24256" lon="-1.4525">
        <ele>51</ele>
        <time>2020-10-17T10:14:26.000Z</time>
      </trkpt>
      <trkpt lat="47.2426" lon="-1.45232">
        <ele>52</ele>
        <time>2020-10-17T10:14:28.000Z</time>
      </trkpt>
      <trkpt lat="47.24261" lon="-1.45212">
        <ele>52</ele>
        <time>2020-10-17T10:14:30.000Z</time>
      </trkpt>
      <trkpt lat="47.24262" lon="-1.45193">
        <ele>52</ele>
        <time>2020-10-17T10:14:32.000Z</time>
      </trkpt>
      <trkpt lat="47.24264" lon="-1.45173">
        <ele>52</ele>
        <time>2020-10-17T10:14:34.000Z</time>
      </trkpt>
      <trkpt lat="47.24265" lon="-1.45155">
        <ele>51</ele>
        <time>2020-10-17T10:14:36.000Z</time>
      </trkpt>
      <trkpt lat="47.24267" lon="-1.45136">
        <ele>51</ele>
        <time>2020-10-17T10:14:38.000Z</time>
      </trkpt>
      <trkpt lat="47.24267" lon="-1.45118">
        <ele>51</ele>
        <time>2020-10-17T10:14:40.000Z</time>
      </trkpt>
      <trkpt lat="47.24268" lon="-1.451">
        <ele>51</ele>
        <time>2020-10-17T10:14:42.000Z</time>
      </trkpt>
      <trkpt lat="47.24269" lon="-1.45082">
        <ele>51</ele>
        <time>2020-10-17T10:14:44.000Z</time>
      </trkpt>
      <trkpt lat="47.24271" lon="-1.45065">
        <ele>51</ele>
        <time>2020-10-17T10:14:46.000Z</time>
      </trkpt>
      <trkpt lat="47.24273" lon="-1.45047">
        <ele>51</ele>
        <time>2020-10-17T10:14:48.000Z</time>
      </trkpt>
      <trkpt lat="47.24274" lon="-1.45028">
        <ele>51</ele>
        <time>2020-10-17T10:14:50.000Z</time>
      </trkpt>
      <trkpt lat="47.24276" lon="-1.4501">
        <ele>51</ele>
        <time>2020-10-17T10:14:52.000Z</time>
      </trkpt>
      <trkpt lat="47.24277" lon="-1.44992">
        <ele>51</ele>
        <time>2020-10-17T10:14:54.000Z</time>
      </trkpt>
      <trkpt lat="47.24279" lon="-1.44973">
        <ele>51</ele>
        <time>2020-10-17T10:14:56.000Z</time>
      </trkpt>
      <trkpt lat="47.24281" lon="-1.44955">
        <ele>51</ele>
        <time>2020-10-17T10:14:58.000Z</time>
      </trkpt>
      <trkpt lat="47.24282" lon="-1.44938">
        <ele>50</ele>
        <time>2020-10-17T10:15:00.000Z</time>
      </trkpt>
      <trkpt lat="47.24284" lon="-1.4492">
        <ele>50</ele>
        <time>2020-10-17T10:15:02.000Z</time>
      </trkpt>
      <trkpt lat="47.24285" lon="-1.44902">
        <ele>50</ele>
        <time>2020-10-17T10:15:04.000Z</time>
      </trkpt>
      <trkpt lat="47.24287" lon="-1.44884">
        <ele>51</ele>
        <time>2020-10-17T10:15:06.000Z</time>
      </trkpt>
      <trkpt lat="47.24288" lon="-1.44866">
        <ele>50</ele>
        <time>2020-10-17T10:15:08.000Z</time>
      </trkpt>
      <trkpt lat="47.24289" lon="-1.44849">
        <ele>50</ele>
        <time>2020-10-17T10:15:10.000Z</time>
      </trkpt>
      <trkpt lat="47.24291" lon="-1.44831">
        <ele>50</ele>
        <time>2020-10-17T10:15:12.000Z</time>
      </trkpt>
      <trkpt lat="47.24292" lon="-1.44814">
        <ele>51</ele>
        <time>2020-10-17T10:15:14.000Z</time>
      </trkpt>
      <trkpt lat="47.24294" lon="-1.44796">
        <ele>50</ele>
        <time>2020-10-17T10:15:16.000Z</time>
      </trkpt>
      <trkpt lat="47.24296" lon="-1.44778">
        <ele>50</ele>
        <time>2020-10-17T10:15:18.000Z</time>
      </trkpt>
      <trkpt lat="47.24298" lon="-1.4476">
        <ele>50</ele>
        <time>2020-10-17T10:15:20.000Z</time>
      </trkpt>
      <trkpt lat="47.24299" lon="-1.44742">
        <ele>50</ele>
        <time>2020-10-17T10:15:22.000Z</time>
      </trkpt>
      <trkpt lat="47.243" lon="-1.44724">
        <ele>50</ele>
        <time>2020-10-17T10:15:24.000Z</time>
      </trkpt>
      <trkpt lat="47.24302" lon="-1.44706">
        <ele>50</ele>
        <time>2020-10-17T10:15:26.000Z</time>
      </trkpt>
      <trkpt lat="47.24303" lon="-1.44688">
        <ele>50</ele>
        <time>2020-10-17T10:15:28.000Z</time>
      </trkpt>
      <trkpt lat="47.24305" lon="-1.44671">
        <ele>49</ele>
        <time>2020-10-17T10:15:30.000Z</time>
      </trkpt>
      <trkpt lat="47.24306" lon="-1.44653">
        <ele>49</ele>
        <time>2020-10-17T10:15:32.000Z</time>
      </trkpt>
      <trkpt lat="47.24309" lon="-1.44636">
        <ele>49</ele>
        <time>2020-10-17T10:15:34.000Z</time>
      </trkpt>
      <trkpt lat="47.24312" lon="-1.44619">
        <ele>49</ele>
        <time>2020-10-17T10:15:36.000Z</time>
      </trkpt>
      <trkpt lat="47.24313" lon="-1.44602">
        <ele>50</ele>
        <time>2020-10-17T10:15:38.000Z</time>
      </trkpt>
      <trkpt lat="47.24313" lon="-1.44585">
        <ele>49</ele>
        <time>2020-10-17T10:15:40.000Z</time>
      </trkpt>
      <trkpt lat="47.24312" lon="-1.44567">
        <ele>49</ele>
        <time>2020-10-17T10:15:42.000Z</time>
      </trkpt>
      <trkpt lat="47.24313" lon="-1.44548">
        <ele>49</ele>
        <time>2020-10-17T10:15:44.000Z</time>
      </trkpt>
      <trkpt lat="47.24315" lon="-1.4453">
        <ele>49</ele>
        <time>2020-10-17T10:15:46.000Z</time>
      </trkpt>
      <trkpt lat="47.24316" lon="-1.44512">
        <ele>49</ele>
        <time>2020-10-17T10:15:48.000Z</time>
      </trkpt>
      <trkpt lat="47.24318" lon="-1.44494">
        <ele>49</ele>
        <time>2020-10-17T10:15:50.000Z</time>
      </trkpt>
      <trkpt lat="47.24319" lon="-1.44477">
        <ele>49</ele>
        <time>2020-10-17T10:15:52.000Z</time>
      </trkpt>
      <trkpt lat="47.24321" lon="-1.44459">
        <ele>49</ele>
        <time>2020-10-17T10:15:54.000Z</time>
      </trkpt>
      <trkpt lat="47.24323" lon="-1.44441">
        <ele>49</ele>
        <time>2020-10-17T10:15:56.000Z</time>
      </trkpt>
      <trkpt lat="47.24324" lon="-1.44423">
        <ele>49</ele>
        <time>2020-10-17T10:15:58.000Z</time>
      </trkpt>
      <trkpt lat="47.24325" lon="-1.44406">
        <ele>49</ele>
        <time>2020-10-17T10:16:00.000Z</time>
      </trkpt>
      <trkpt lat="47.24326" lon="-1.44389">
        <ele>50</ele>
        <time>2020-10-17T10:16:02.000Z</time>
      </trkpt>
      <trkpt lat="47.24327" lon="-1.4437">
        <ele>50</ele>
        <time>2020-10-17T10:16:04.000Z</time>
      </trkpt>
      <trkpt lat="47.24328" lon="-1.44353">
        <ele>50</ele>
        <time>2020-10-17T10:16:06.000Z</time>
      </trkpt>
      <trkpt lat="47.24329" lon="-1.44337">
        <ele>50</ele>
        <time>2020-10-17T10:16:08.000Z</time>
      </trkpt>
      <trkpt lat="47.24331" lon="-1.4432">
        <ele>51</ele>
        <time>2020-10-17T10:16:10.000Z</time>
      </trkpt>
      <trkpt lat="47.24334" lon="-1.44304">
        <ele>50</ele>
        <time>2020-10-17T10:16:12.000Z</time>
      </trkpt>
      <trkpt lat="47.24338" lon="-1.44288">
        <ele>50</ele>
        <time>2020-10-17T10:16:14.000Z</time>
      </trkpt>
      <trkpt lat="47.24339" lon="-1.4427">
        <ele>51</ele>
        <time>2020-10-17T10:16:16.000Z</time>
      </trkpt>
      <trkpt lat="47.24338" lon="-1.44253">
        <ele>51</ele>
        <time>2020-10-17T10:16:18.000Z</time>
      </trkpt>
      <trkpt lat="47.24337" lon="-1.44236">
        <ele>50</ele>
        <time>2020-10-17T10:16:20.000Z</time>
      </trkpt>
      <trkpt lat="47.24338" lon="-1.44218">
        <ele>50</ele>
        <time>2020-10-17T10:16:22.000Z</time>
      </trkpt>
      <trkpt lat="47.24341" lon="-1.44201">
        <ele>51</ele>
        <time>2020-10-17T10:16:24.000Z</time>
      </trkpt>
      <trkpt lat="47.24345" lon="-1.44185">
        <ele>50</ele>
        <time>2020-10-17T10:16:26.000Z</time>
      </trkpt>
      <trkpt lat="47.24351" lon="-1.44168">
        <ele>50</ele>
        <time>2020-10-17T10:16:28.000Z</time>
      </trkpt>
      <trkpt lat="47.24357" lon="-1.44151">
        <ele>50</ele>
        <time>2020-10-17T10:16:30.000Z</time>
      </trkpt>
      <trkpt lat="47.24364" lon="-1.44136">
        <ele>50</ele>
        <time>2020-10-17T10:16:32.000Z</time>
      </trkpt>
      <trkpt lat="47.24371" lon="-1.44122">
        <ele>49</ele>
        <time>2020-10-17T10:16:34.000Z</time>
      </trkpt>
      <trkpt lat="47.24377" lon="-1.44108">
        <ele>49</ele>
        <time>2020-10-17T10:16:36.000Z</time>
      </trkpt>
      <trkpt lat="47.24384" lon="-1.44093">
        <ele>49</ele>
        <time>2020-10-17T10:16:38.000Z</time>
      </trkpt>
      <trkpt lat="47.24391" lon="-1.44079">
        <ele>50</ele>
        <time>2020-10-17T10:16:40.000Z</time>
      </trkpt>
      <trkpt lat="47.24399" lon="-1.44064">
        <ele>50</ele>
        <time>2020-10-17T10:16:42.000Z</time>
      </trkpt>
      <trkpt lat="47.24406" lon="-1.44049">
        <ele>50</ele>
        <time>2020-10-17T10:16:44.000Z</time>
      </trkpt>
      <trkpt lat="47.24413" lon="-1.44034">
        <ele>50</ele>
        <time>2020-10-17T10:16:46.000Z</time>
      </trkpt>
      <trkpt lat="47.24422" lon="-1.44019">
        <ele>50</ele>
        <time>2020-10-17T10:16:48.000Z</time>
      </trkpt>
      <trkpt lat="47.24431" lon="-1.44005">
        <ele>50</ele>
        <time>2020-10-17T10:16:50.000Z</time>
      </trkpt>
      <trkpt lat="47.24441" lon="-1.43993">
        <ele>51</ele>
        <time>2020-10-17T10:16:52.000Z</time>
      </trkpt>
      <trkpt lat="47.24447" lon="-1.43979">
        <ele>51</ele>
        <time>2020-10-17T10:16:54.000Z</time>
      </trkpt>
      <trkpt lat="47.24454" lon="-1.43963">
        <ele>52</ele>
        <time>2020-10-17T10:16:56.000Z</time>
      </trkpt>
      <trkpt lat="47.24459" lon="-1.43947">
        <ele>53</ele>
        <time>2020-10-17T10:16:58.000Z</time>
      </trkpt>
      <trkpt lat="47.24465" lon="-1.43932">
        <ele>53</ele>
        <time>2020-10-17T10:17:00.000Z</time>
      </trkpt>
      <trkpt lat="47.24472" lon="-1.43916">
        <ele>53</ele>
        <time>2020-10-17T10:17:02.000Z</time>
      </trkpt>
      <trkpt lat="47.24478" lon="-1.439">
        <ele>53</ele>
        <time>2020-10-17T10:17:04.000Z</time>
      </trkpt>
      <trkpt lat="47.24484" lon="-1.43883">
        <ele>52</ele>
        <time>2020-10-17T10:17:06.000Z</time>
      </trkpt>
      <trkpt lat="47.2449" lon="-1.43866">
        <ele>52</ele>
        <time>2020-10-17T10:17:08.000Z</time>
      </trkpt>
      <trkpt lat="47.24494" lon="-1.43849">
        <ele>52</ele>
        <time>2020-10-17T10:17:10.000Z</time>
      </trkpt>
      <trkpt lat="47.24499" lon="-1.43832">
        <ele>52</ele>
        <time>2020-10-17T10:17:12.000Z</time>
      </trkpt>
      <trkpt lat="47.24504" lon="-1.43815">
        <ele>52</ele>
        <time>2020-10-17T10:17:14.000Z</time>
      </trkpt>
      <trkpt lat="47.24509" lon="-1.43799">
        <ele>52</ele>
        <time>2020-10-17T10:17:16.000Z</time>
      </trkpt>
      <trkpt lat="47.24514" lon="-1.43783">
        <ele>51</ele>
        <time>2020-10-17T10:17:18.000Z</time>
      </trkpt>
      <trkpt lat="47.24519" lon="-1.43766">
        <ele>51</ele>
        <time>2020-10-17T10:17:20.000Z</time>
      </trkpt>
      <trkpt lat="47.24524" lon="-1.4375">
        <ele>51</ele>
        <time>2020-10-17T10:17:22.000Z</time>
      </trkpt>
      <trkpt lat="47.24529" lon="-1.43734">
        <ele>51</ele>
        <time>2020-10-17T10:17:24.000Z</time>
      </trkpt>
      <trkpt lat="47.24535" lon="-1.43718">
        <ele>51</ele>
        <time>2020-10-17T10:17:26.000Z</time>
      </trkpt>
      <trkpt lat="47.24545" lon="-1.43705">
        <ele>51</ele>
        <time>2020-10-17T10:17:28.000Z</time>
      </trkpt>
      <trkpt lat="47.24556" lon="-1.43697">
        <ele>52</ele>
        <time>2020-10-17T10:17:30.000Z</time>
      </trkpt>
      <trkpt lat="47.24567" lon="-1.43687">
        <ele>52</ele>
        <time>2020-10-17T10:17:32.000Z</time>
      </trkpt>
      <trkpt lat="47.24577" lon="-1.43675">
        <ele>52</ele>
        <time>2020-10-17T10:17:34.000Z</time>
      </trkpt>
      <trkpt lat="47.24586" lon="-1.43663">
        <ele>52</ele>
        <time>2020-10-17T10:17:36.000Z</time>
      </trkpt>
      <trkpt lat="47.24595" lon="-1.43651">
        <ele>52</ele>
        <time>2020-10-17T10:17:38.000Z</time>
      </trkpt>
      <trkpt lat="47.24605" lon="-1.4364">
        <ele>52</ele>
        <time>2020-10-17T10:17:40.000Z</time>
      </trkpt>
      <trkpt lat="47.24615" lon="-1.4363">
        <ele>52</ele>
        <time>2020-10-17T10:17:42.000Z</time>
      </trkpt>
      <trkpt lat="47.24626" lon="-1.43622">
        <ele>52</ele>
        <time>2020-10-17T10:17:44.000Z</time>
      </trkpt>
      <trkpt lat="47.24637" lon="-1.43612">
        <ele>52</ele>
        <time>2020-10-17T10:17:46.000Z</time>
      </trkpt>
      <trkpt lat="47.24647" lon="-1.43602">
        <ele>52</ele>
        <time>2020-10-17T10:17:48.000Z</time>
      </trkpt>
      <trkpt lat="47.24657" lon="-1.43591">
        <ele>52</ele>
        <time>2020-10-17T10:17:50.000Z</time>
      </trkpt>
      <trkpt lat="47.24668" lon="-1.4358">
        <ele>52</ele>
        <time>2020-10-17T10:17:52.000Z</time>
      </trkpt>
      <trkpt lat="47.24677" lon="-1.43572">
        <ele>52</ele>
        <time>2020-10-17T10:17:54.000Z</time>
      </trkpt>
      <trkpt lat="47.24686" lon="-1.43558">
        <ele>51</ele>
        <time>2020-10-17T10:17:56.000Z</time>
      </trkpt>
      <trkpt lat="47.24693" lon="-1.43542">
        <ele>52</ele>
        <time>2020-10-17T10:17:58.000Z</time>
      </trkpt>
      <trkpt lat="47.24697" lon="-1.43525">
        <ele>53</ele>
        <time>2020-10-17T10:18:00.000Z</time>
      </trkpt>
      <trkpt lat="47.24701" lon="-1.43508">
        <ele>52</ele>
        <time>2020-10-17T10:18:02.000Z</time>
      </trkpt>
      <trkpt lat="47.24707" lon="-1.43493">
        <ele>52</ele>
        <time>2020-10-17T10:18:04.000Z</time>
      </trkpt>
      <trkpt lat="47.24713" lon="-1.43479">
        <ele>52</ele>
        <time>2020-10-17T10:18:06.000Z</time>
      </trkpt>
      <trkpt lat="47.2472" lon="-1.43465">
        <ele>51</ele>
        <time>2020-10-17T10:18:08.000Z</time>
      </trkpt>
      <trkpt lat="47.24727" lon="-1.43452">
        <ele>51</ele>
        <time>2020-10-17T10:18:10.000Z</time>
      </trkpt>
      <trkpt lat="47.24734" lon="-1.43439">
        <ele>52</ele>
        <time>2020-10-17T10:18:12.000Z</time>
      </trkpt>
      <trkpt lat="47.24743" lon="-1.43426">
        <ele>52</ele>
        <time>2020-10-17T10:18:14.000Z</time>
      </trkpt>
      <trkpt lat="47.24753" lon="-1.43414">
        <ele>52</ele>
        <time>2020-10-17T10:18:16.000Z</time>
      </trkpt>
      <trkpt lat="47.24762" lon="-1.43401">
        <ele>52</ele>
        <time>2020-10-17T10:18:18.000Z</time>
      </trkpt>
      <trkpt lat="47.24771" lon="-1.43391">
        <ele>52</ele>
        <time>2020-10-17T10:18:20.000Z</time>
      </trkpt>
      <trkpt lat="47.2478" lon="-1.4338">
        <ele>53</ele>
        <time>2020-10-17T10:18:22.000Z</time>
      </trkpt>
      <trkpt lat="47.24789" lon="-1.4337">
        <ele>54</ele>
        <time>2020-10-17T10:18:24.000Z</time>
      </trkpt>
      <trkpt lat="47.24797" lon="-1.43361">
        <ele>55</ele>
        <time>2020-10-17T10:18:26.000Z</time>
      </trkpt>
      <trkpt lat="47.24807" lon="-1.43355">
        <ele>56</ele>
        <time>2020-10-17T10:18:28.000Z</time>
      </trkpt>
      <trkpt lat="47.24818" lon="-1.43348">
        <ele>56</ele>
        <time>2020-10-17T10:18:30.000Z</time>
      </trkpt>
      <trkpt lat="47.24829" lon="-1.43341">
        <ele>57</ele>
        <time>2020-10-17T10:18:32.000Z</time>
      </trkpt>
      <trkpt lat="47.24841" lon="-1.43334">
        <ele>57</ele>
        <time>2020-10-17T10:18:34.000Z</time>
      </trkpt>
      <trkpt lat="47.24851" lon="-1.43327">
        <ele>57</ele>
        <time>2020-10-17T10:18:36.000Z</time>
      </trkpt>
      <trkpt lat="47.24862" lon="-1.43319">
        <ele>57</ele>
        <time>2020-10-17T10:18:38.000Z</time>
      </trkpt>
      <trkpt lat="47.24873" lon="-1.43312">
        <ele>57</ele>
        <time>2020-10-17T10:18:40.000Z</time>
      </trkpt>
      <trkpt lat="47.24884" lon="-1.43305">
        <ele>57</ele>
        <time>2020-10-17T10:18:42.000Z</time>
      </trkpt>
      <trkpt lat="47.24895" lon="-1.43298">
        <ele>57</ele>
        <time>2020-10-17T10:18:44.000Z</time>
      </trkpt>
      <trkpt lat="47.24906" lon="-1.4329">
        <ele>57</ele>
        <time>2020-10-17T10:18:46.000Z</time>
      </trkpt>
      <trkpt lat="47.24918" lon="-1.43282">
        <ele>57</ele>
        <time>2020-10-17T10:18:48.000Z</time>
      </trkpt>
      <trkpt lat="47.2493" lon="-1.43273">
        <ele>57</ele>
        <time>2020-10-17T10:18:50.000Z</time>
      </trkpt>
      <trkpt lat="47.24943" lon="-1.43265">
        <ele>58</ele>
        <time>2020-10-17T10:18:52.000Z</time>
      </trkpt>
      <trkpt lat="47.24957" lon="-1.43255">
        <ele>57</ele>
        <time>2020-10-17T10:18:54.000Z</time>
      </trkpt>
      <trkpt lat="47.2497" lon="-1.43248">
        <ele>57</ele>
        <time>2020-10-17T10:18:56.000Z</time>
      </trkpt>
      <trkpt lat="47.24982" lon="-1.43241">
        <ele>57</ele>
        <time>2020-10-17T10:18:58.000Z</time>
      </trkpt>
      <trkpt lat="47.24994" lon="-1.43232">
        <ele>57</ele>
        <time>2020-10-17T10:19:00.000Z</time>
      </trkpt>
      <trkpt lat="47.25006" lon="-1.43223">
        <ele>57</ele>
        <time>2020-10-17T10:19:02.000Z</time>
      </trkpt>
      <trkpt lat="47.25019" lon="-1.43213">
        <ele>57</ele>
        <time>2020-10-17T10:19:04.000Z</time>
      </trkpt>
      <trkpt lat="47.2503" lon="-1.43204">
        <ele>56</ele>
        <time>2020-10-17T10:19:06.000Z</time>
      </trkpt>
      <trkpt lat="47.2504" lon="-1.43195">
        <ele>56</ele>
        <time>2020-10-17T10:19:08.000Z</time>
      </trkpt>
      <trkpt lat="47.25051" lon="-1.43185">
        <ele>56</ele>
        <time>2020-10-17T10:19:10.000Z</time>
      </trkpt>
      <trkpt lat="47.25062" lon="-1.43174">
        <ele>57</ele>
        <time>2020-10-17T10:19:12.000Z</time>
      </trkpt>
      <trkpt lat="47.25072" lon="-1.43162">
        <ele>56</ele>
        <time>2020-10-17T10:19:14.000Z</time>
      </trkpt>
      <trkpt lat="47.25081" lon="-1.43149">
        <ele>57</ele>
        <time>2020-10-17T10:19:16.000Z</time>
      </trkpt>
      <trkpt lat="47.25091" lon="-1.43137">
        <ele>56</ele>
        <time>2020-10-17T10:19:18.000Z</time>
      </trkpt>
      <trkpt lat="47.251" lon="-1.43125">
        <ele>56</ele>
        <time>2020-10-17T10:19:20.000Z</time>
      </trkpt>
      <trkpt lat="47.25108" lon="-1.43113">
        <ele>56</ele>
        <time>2020-10-17T10:19:22.000Z</time>
      </trkpt>
      <trkpt lat="47.25117" lon="-1.43101">
        <ele>56</ele>
        <time>2020-10-17T10:19:24.000Z</time>
      </trkpt>
      <trkpt lat="47.25127" lon="-1.4309">
        <ele>56</ele>
        <time>2020-10-17T10:19:26.000Z</time>
      </trkpt>
      <trkpt lat="47.25135" lon="-1.43079">
        <ele>56</ele>
        <time>2020-10-17T10:19:28.000Z</time>
      </trkpt>
      <trkpt lat="47.25144" lon="-1.43067">
        <ele>56</ele>
        <time>2020-10-17T10:19:30.000Z</time>
      </trkpt>
      <trkpt lat="47.25153" lon="-1.43057">
        <ele>57</ele>
        <time>2020-10-17T10:19:32.000Z</time>
      </trkpt>
      <trkpt lat="47.25163" lon="-1.43046">
        <ele>57</ele>
        <time>2020-10-17T10:19:34.000Z</time>
      </trkpt>
      <trkpt lat="47.25174" lon="-1.43035">
        <ele>56</ele>
        <time>2020-10-17T10:19:36.000Z</time>
      </trkpt>
      <trkpt lat="47.25184" lon="-1.43023">
        <ele>56</ele>
        <time>2020-10-17T10:19:38.000Z</time>
      </trkpt>
      <trkpt lat="47.25195" lon="-1.43011">
        <ele>55</ele>
        <time>2020-10-17T10:19:40.000Z</time>
      </trkpt>
      <trkpt lat="47.25205" lon="-1.43">
        <ele>55</ele>
        <time>2020-10-17T10:19:42.000Z</time>
      </trkpt>
      <trkpt lat="47.25216" lon="-1.42989">
        <ele>55</ele>
        <time>2020-10-17T10:19:44.000Z</time>
      </trkpt>
      <trkpt lat="47.25227" lon="-1.4298">
        <ele>55</ele>
        <time>2020-10-17T10:19:46.000Z</time>
      </trkpt>
      <trkpt lat="47.25238" lon="-1.42972">
        <ele>56</ele>
        <time>2020-10-17T10:19:48.000Z</time>
      </trkpt>
      <trkpt lat="47.25249" lon="-1.42966">
        <ele>56</ele>
        <time>2020-10-17T10:19:50.000Z</time>
      </trkpt>
      <trkpt lat="47.25262" lon="-1.42959">
        <ele>56</ele>
        <time>2020-10-17T10:19:52.000Z</time>
      </trkpt>
      <trkpt lat="47.25273" lon="-1.42951">
        <ele>56</ele>
        <time>2020-10-17T10:19:54.000Z</time>
      </trkpt>
      <trkpt lat="47.25285" lon="-1.42945">
        <ele>57</ele>
        <time>2020-10-17T10:19:56.000Z</time>
      </trkpt>
      <trkpt lat="47.25297" lon="-1.42939">
        <ele>57</ele>
        <time>2020-10-17T10:19:58.000Z</time>
      </trkpt>
      <trkpt lat="47.25309" lon="-1.42932">
        <ele>57</ele>
        <time>2020-10-17T10:20:00.000Z</time>
      </trkpt>
      <trkpt lat="47.25321" lon="-1.42924">
        <ele>56</ele>
        <time>2020-10-17T10:20:02.000Z</time>
      </trkpt>
      <trkpt lat="47.25332" lon="-1.42918">
        <ele>56</ele>
        <time>2020-10-17T10:20:04.000Z</time>
      </trkpt>
      <trkpt lat="47.25342" lon="-1.42913">
        <ele>57</ele>
        <time>2020-10-17T10:20:06.000Z</time>
      </trkpt>
      <trkpt lat="47.25353" lon="-1.42907">
        <ele>57</ele>
        <time>2020-10-17T10:20:08.000Z</time>
      </trkpt>
      <trkpt lat="47.25365" lon="-1.429">
        <ele>57</ele>
        <time>2020-10-17T10:20:10.000Z</time>
      </trkpt>
      <trkpt lat="47.25376" lon="-1.42893">
        <ele>57</ele>
        <time>2020-10-17T10:20:12.000Z</time>
      </trkpt>
      <trkpt lat="47.25388" lon="-1.42884">
        <ele>57</ele>
        <time>2020-10-17T10:20:14.000Z</time>
      </trkpt>
      <trkpt lat="47.25398" lon="-1.42877">
        <ele>56</ele>
        <time>2020-10-17T10:20:16.000Z</time>
      </trkpt>
      <trkpt lat="47.25409" lon="-1.4287">
        <ele>56</ele>
        <time>2020-10-17T10:20:18.000Z</time>
      </trkpt>
      <trkpt lat="47.2542" lon="-1.42863">
        <ele>56</ele>
        <time>2020-10-17T10:20:20.000Z</time>
      </trkpt>
      <trkpt lat="47.25431" lon="-1.42857">
        <ele>56</ele>
        <time>2020-10-17T10:20:22.000Z</time>
      </trkpt>
      <trkpt lat="47.25441" lon="-1.4285">
        <ele>56</ele>
        <time>2020-10-17T10:20:24.000Z</time>
      </trkpt>
      <trkpt lat="47.25452" lon="-1.42842">
        <ele>56</ele>
        <time>2020-10-17T10:20:26.000Z</time>
      </trkpt>
      <trkpt lat="47.25463" lon="-1.42834">
        <ele>56</ele>
        <time>2020-10-17T10:20:28.000Z</time>
      </trkpt>
      <trkpt lat="47.25473" lon="-1.42825">
        <ele>56</ele>
        <time>2020-10-17T10:20:30.000Z</time>
      </trkpt>
      <trkpt lat="47.25484" lon="-1.42816">
        <ele>56</ele>
        <time>2020-10-17T10:20:32.000Z</time>
      </trkpt>
      <trkpt lat="47.25495" lon="-1.42807">
        <ele>56</ele>
        <time>2020-10-17T10:20:34.000Z</time>
      </trkpt>
      <trkpt lat="47.25505" lon="-1.42798">
        <ele>56</ele>
        <time>2020-10-17T10:20:36.000Z</time>
      </trkpt>
      <trkpt lat="47.25516" lon="-1.4279">
        <ele>56</ele>
        <time>2020-10-17T10:20:38.000Z</time>
      </trkpt>
      <trkpt lat="47.25527" lon="-1.42782">
        <ele>57</ele>
        <time>2020-10-17T10:20:40.000Z</time>
      </trkpt>
      <trkpt lat="47.25537" lon="-1.42774">
        <ele>56</ele>
        <time>2020-10-17T10:20:42.000Z</time>
      </trkpt>
      <trkpt lat="47.25548" lon="-1.42766">
        <ele>57</ele>
        <time>2020-10-17T10:20:44.000Z</time>
      </trkpt>
      <trkpt lat="47.25558" lon="-1.42757">
        <ele>57</ele>
        <time>2020-10-17T10:20:46.000Z</time>
      </trkpt>
      <trkpt lat="47.25568" lon="-1.42749">
        <ele>58</ele>
        <time>2020-10-17T10:20:48.000Z</time>
      </trkpt>
      <trkpt lat="47.25579" lon="-1.4274">
        <ele>58</ele>
        <time>2020-10-17T10:20:50.000Z</time>
      </trkpt>
      <trkpt lat="47.2559" lon="-1.42731">
        <ele>57</ele>
        <time>2020-10-17T10:20:52.000Z</time>
      </trkpt>
      <trkpt lat="47.256" lon="-1.42723">
        <ele>57</ele>
        <time>2020-10-17T10:20:54.000Z</time>
      </trkpt>
      <trkpt lat="47.2561" lon="-1.42715">
        <ele>58</ele>
        <time>2020-10-17T10:20:56.000Z</time>
      </trkpt>
      <trkpt lat="47.2562" lon="-1.42707">
        <ele>58</ele>
        <time>2020-10-17T10:20:58.000Z</time>
      </trkpt>
      <trkpt lat="47.25631" lon="-1.42699">
        <ele>57</ele>
        <time>2020-10-17T10:21:00.000Z</time>
      </trkpt>
      <trkpt lat="47.25641" lon="-1.42691">
        <ele>56</ele>
        <time>2020-10-17T10:21:02.000Z</time>
      </trkpt>
      <trkpt lat="47.25652" lon="-1.42683">
        <ele>56</ele>
        <time>2020-10-17T10:21:04.000Z</time>
      </trkpt>
      <trkpt lat="47.25661" lon="-1.42674">
        <ele>56</ele>
        <time>2020-10-17T10:21:06.000Z</time>
      </trkpt>
      <trkpt lat="47.25669" lon="-1.42666">
        <ele>56</ele>
        <time>2020-10-17T10:21:08.000Z</time>
      </trkpt>
      <trkpt lat="47.2568" lon="-1.42655">
        <ele>56</ele>
        <time>2020-10-17T10:21:11.000Z</time>
      </trkpt>
      <trkpt lat="47.25688" lon="-1.42648">
        <ele>56</ele>
        <time>2020-10-17T10:21:13.000Z</time>
      </trkpt>
      <trkpt lat="47.25697" lon="-1.42645">
        <ele>56</ele>
        <time>2020-10-17T10:21:15.000Z</time>
      </trkpt>
      <trkpt lat="47.25709" lon="-1.42645">
        <ele>56</ele>
        <time>2020-10-17T10:21:17.000Z</time>
      </trkpt>
      <trkpt lat="47.25722" lon="-1.42646">
        <ele>56</ele>
        <time>2020-10-17T10:21:19.000Z</time>
      </trkpt>
      <trkpt lat="47.25735" lon="-1.42644">
        <ele>56</ele>
        <time>2020-10-17T10:21:21.000Z</time>
      </trkpt>
      <trkpt lat="47.25744" lon="-1.42636">
        <ele>56</ele>
        <time>2020-10-17T10:21:23.000Z</time>
      </trkpt>
      <trkpt lat="47.2575" lon="-1.42623">
        <ele>56</ele>
        <time>2020-10-17T10:21:25.000Z</time>
      </trkpt>
      <trkpt lat="47.25757" lon="-1.42608">
        <ele>57</ele>
        <time>2020-10-17T10:21:27.000Z</time>
      </trkpt>
      <trkpt lat="47.25765" lon="-1.42595">
        <ele>57</ele>
        <time>2020-10-17T10:21:29.000Z</time>
      </trkpt>
      <trkpt lat="47.25775" lon="-1.42581">
        <ele>57</ele>
        <time>2020-10-17T10:21:31.000Z</time>
      </trkpt>
      <trkpt lat="47.25787" lon="-1.42571">
        <ele>57</ele>
        <time>2020-10-17T10:21:33.000Z</time>
      </trkpt>
      <trkpt lat="47.25798" lon="-1.42563">
        <ele>57</ele>
        <time>2020-10-17T10:21:35.000Z</time>
      </trkpt>
      <trkpt lat="47.2581" lon="-1.42554">
        <ele>57</ele>
        <time>2020-10-17T10:21:37.000Z</time>
      </trkpt>
      <trkpt lat="47.25821" lon="-1.42545">
        <ele>57</ele>
        <time>2020-10-17T10:21:39.000Z</time>
      </trkpt>
      <trkpt lat="47.25833" lon="-1.42534">
        <ele>57</ele>
        <time>2020-10-17T10:21:41.000Z</time>
      </trkpt>
      <trkpt lat="47.25844" lon="-1.42526">
        <ele>57</ele>
        <time>2020-10-17T10:21:43.000Z</time>
      </trkpt>
      <trkpt lat="47.25855" lon="-1.42516">
        <ele>57</ele>
        <time>2020-10-17T10:21:45.000Z</time>
      </trkpt>
      <trkpt lat="47.25866" lon="-1.42508">
        <ele>57</ele>
        <time>2020-10-17T10:21:47.000Z</time>
      </trkpt>
      <trkpt lat="47.25878" lon="-1.425">
        <ele>58</ele>
        <time>2020-10-17T10:21:49.000Z</time>
      </trkpt>
      <trkpt lat="47.25889" lon="-1.42493">
        <ele>58</ele>
        <time>2020-10-17T10:21:51.000Z</time>
      </trkpt>
      <trkpt lat="47.259" lon="-1.42483">
        <ele>58</ele>
        <time>2020-10-17T10:21:53.000Z</time>
      </trkpt>
      <trkpt lat="47.25909" lon="-1.42471">
        <ele>58</ele>
        <time>2020-10-17T10:21:55.000Z</time>
      </trkpt>
      <trkpt lat="47.25918" lon="-1.42456">
        <ele>57</ele>
        <time>2020-10-17T10:21:57.000Z</time>
      </trkpt>
      <trkpt lat="47.25927" lon="-1.42444">
        <ele>58</ele>
        <time>2020-10-17T10:21:59.000Z</time>
      </trkpt>
      <trkpt lat="47.25936" lon="-1.42431">
        <ele>58</ele>
        <time>2020-10-17T10:22:01.000Z</time>
      </trkpt>
      <trkpt lat="47.25945" lon="-1.4242">
        <ele>58</ele>
        <time>2020-10-17T10:22:03.000Z</time>
      </trkpt>
      <trkpt lat="47.25954" lon="-1.42407">
        <ele>58</ele>
        <time>2020-10-17T10:22:05.000Z</time>
      </trkpt>
      <trkpt lat="47.25963" lon="-1.42395">
        <ele>58</ele>
        <time>2020-10-17T10:22:07.000Z</time>
      </trkpt>
      <trkpt lat="47.25972" lon="-1.42384">
        <ele>57</ele>
        <time>2020-10-17T10:22:09.000Z</time>
      </trkpt>
      <trkpt lat="47.25982" lon="-1.42372">
        <ele>57</ele>
        <time>2020-10-17T10:22:11.000Z</time>
      </trkpt>
      <trkpt lat="47.25993" lon="-1.42361">
        <ele>57</ele>
        <time>2020-10-17T10:22:13.000Z</time>
      </trkpt>
      <trkpt lat="47.26002" lon="-1.4235">
        <ele>57</ele>
        <time>2020-10-17T10:22:15.000Z</time>
      </trkpt>
      <trkpt lat="47.26011" lon="-1.42336">
        <ele>56</ele>
        <time>2020-10-17T10:22:17.000Z</time>
      </trkpt>
      <trkpt lat="47.26019" lon="-1.42324">
        <ele>56</ele>
        <time>2020-10-17T10:22:19.000Z</time>
      </trkpt>
      <trkpt lat="47.26028" lon="-1.42312">
        <ele>57</ele>
        <time>2020-10-17T10:22:21.000Z</time>
      </trkpt>
      <trkpt lat="47.26037" lon="-1.42299">
        <ele>57</ele>
        <time>2020-10-17T10:22:23.000Z</time>
      </trkpt>
      <trkpt lat="47.26046" lon="-1.42287">
        <ele>57</ele>
        <time>2020-10-17T10:22:25.000Z</time>
      </trkpt>
      <trkpt lat="47.26055" lon="-1.42275">
        <ele>57</ele>
        <time>2020-10-17T10:22:27.000Z</time>
      </trkpt>
      <trkpt lat="47.26065" lon="-1.42263">
        <ele>57</ele>
        <time>2020-10-17T10:22:29.000Z</time>
      </trkpt>
      <trkpt lat="47.26074" lon="-1.42251">
        <ele>57</ele>
        <time>2020-10-17T10:22:31.000Z</time>
      </trkpt>
      <trkpt lat="47.26083" lon="-1.42239">
        <ele>57</ele>
        <time>2020-10-17T10:22:33.000Z</time>
      </trkpt>
      <trkpt lat="47.26092" lon="-1.42227">
        <ele>57</ele>
        <time>2020-10-17T10:22:35.000Z</time>
      </trkpt>
      <trkpt lat="47.26101" lon="-1.42215">
        <ele>57</ele>
        <time>2020-10-17T10:22:37.000Z</time>
      </trkpt>
      <trkpt lat="47.26111" lon="-1.42204">
        <ele>57</ele>
        <time>2020-10-17T10:22:39.000Z</time>
      </trkpt>
      <trkpt lat="47.2612" lon="-1.42193">
        <ele>56</ele>
        <time>2020-10-17T10:22:41.000Z</time>
      </trkpt>
      <trkpt lat="47.26129" lon="-1.42181">
        <ele>56</ele>
        <time>2020-10-17T10:22:43.000Z</time>
      </trkpt>
      <trkpt lat="47.26137" lon="-1.42169">
        <ele>56</ele>
        <time>2020-10-17T10:22:45.000Z</time>
      </trkpt>
      <trkpt lat="47.26144" lon="-1.42156">
        <ele>56</ele>
        <time>2020-10-17T10:22:47.000Z</time>
      </trkpt>
      <trkpt lat="47.26151" lon="-1.42143">
        <ele>56</ele>
        <time>2020-10-17T10:22:49.000Z</time>
      </trkpt>
      <trkpt lat="47.26157" lon="-1.42132">
        <ele>57</ele>
        <time>2020-10-17T10:22:51.000Z</time>
      </trkpt>
      <trkpt lat="47.26163" lon="-1.42121">
        <ele>57</ele>
        <time>2020-10-17T10:22:53.000Z</time>
      </trkpt>
      <trkpt lat="47.2617" lon="-1.4211">
        <ele>57</ele>
        <time>2020-10-17T10:22:55.000Z</time>
      </trkpt>
      <trkpt lat="47.26179" lon="-1.42095">
        <ele>56</ele>
        <time>2020-10-17T10:22:57.000Z</time>
      </trkpt>
      <trkpt lat="47.26187" lon="-1.42082">
        <ele>56</ele>
        <time>2020-10-17T10:22:59.000Z</time>
      </trkpt>
      <trkpt lat="47.26197" lon="-1.42073">
        <ele>56</ele>
        <time>2020-10-17T10:23:01.000Z</time>
      </trkpt>
      <trkpt lat="47.26206" lon="-1.42065">
        <ele>56</ele>
        <time>2020-10-17T10:23:03.000Z</time>
      </trkpt>
      <trkpt lat="47.26214" lon="-1.42048">
        <ele>56</ele>
        <time>2020-10-17T10:23:05.000Z</time>
      </trkpt>
      <trkpt lat="47.2622" lon="-1.42032">
        <ele>57</ele>
        <time>2020-10-17T10:23:07.000Z</time>
      </trkpt>
      <trkpt lat="47.26227" lon="-1.42016">
        <ele>56</ele>
        <time>2020-10-17T10:23:09.000Z</time>
      </trkpt>
      <trkpt lat="47.26235" lon="-1.42001">
        <ele>56</ele>
        <time>2020-10-17T10:23:11.000Z</time>
      </trkpt>
      <trkpt lat="47.26243" lon="-1.41987">
        <ele>56</ele>
        <time>2020-10-17T10:23:13.000Z</time>
      </trkpt>
      <trkpt lat="47.2625" lon="-1.41973">
        <ele>56</ele>
        <time>2020-10-17T10:23:15.000Z</time>
      </trkpt>
      <trkpt lat="47.26258" lon="-1.4196">
        <ele>56</ele>
        <time>2020-10-17T10:23:17.000Z</time>
      </trkpt>
      <trkpt lat="47.26267" lon="-1.41947">
        <ele>56</ele>
        <time>2020-10-17T10:23:19.000Z</time>
      </trkpt>
      <trkpt lat="47.26275" lon="-1.41934">
        <ele>56</ele>
        <time>2020-10-17T10:23:21.000Z</time>
      </trkpt>
      <trkpt lat="47.26283" lon="-1.4192">
        <ele>56</ele>
        <time>2020-10-17T10:23:23.000Z</time>
      </trkpt>
      <trkpt lat="47.26291" lon="-1.41905">
        <ele>56</ele>
        <time>2020-10-17T10:23:25.000Z</time>
      </trkpt>
      <trkpt lat="47.26299" lon="-1.41891">
        <ele>55</ele>
        <time>2020-10-17T10:23:27.000Z</time>
      </trkpt>
      <trkpt lat="47.26307" lon="-1.41877">
        <ele>56</ele>
        <time>2020-10-17T10:23:29.000Z</time>
      </trkpt>
      <trkpt lat="47.26315" lon="-1.41863">
        <ele>55</ele>
        <time>2020-10-17T10:23:31.000Z</time>
      </trkpt>
      <trkpt lat="47.26322" lon="-1.4185">
        <ele>56</ele>
        <time>2020-10-17T10:23:33.000Z</time>
      </trkpt>
      <trkpt lat="47.2633" lon="-1.41838">
        <ele>55</ele>
        <time>2020-10-17T10:23:35.000Z</time>
      </trkpt>
      <trkpt lat="47.26338" lon="-1.41823">
        <ele>55</ele>
        <time>2020-10-17T10:23:37.000Z</time>
      </trkpt>
      <trkpt lat="47.26346" lon="-1.4181">
        <ele>55</ele>
        <time>2020-10-17T10:23:39.000Z</time>
      </trkpt>
      <trkpt lat="47.26354" lon="-1.41795">
        <ele>54</ele>
        <time>2020-10-17T10:23:41.000Z</time>
      </trkpt>
      <trkpt lat="47.26363" lon="-1.41781">
        <ele>54</ele>
        <time>2020-10-17T10:23:43.000Z</time>
      </trkpt>
      <trkpt lat="47.26371" lon="-1.41767">
        <ele>54</ele>
        <time>2020-10-17T10:23:45.000Z</time>
      </trkpt>
      <trkpt lat="47.26379" lon="-1.41753">
        <ele>53</ele>
        <time>2020-10-17T10:23:47.000Z</time>
      </trkpt>
      <trkpt lat="47.26387" lon="-1.41739">
        <ele>53</ele>
        <time>2020-10-17T10:23:49.000Z</time>
      </trkpt>
      <trkpt lat="47.26395" lon="-1.41725">
        <ele>54</ele>
        <time>2020-10-17T10:23:51.000Z</time>
      </trkpt>
      <trkpt lat="47.26403" lon="-1.41711">
        <ele>54</ele>
        <time>2020-10-17T10:23:53.000Z</time>
      </trkpt>
      <trkpt lat="47.26411" lon="-1.41697">
        <ele>54</ele>
        <time>2020-10-17T10:23:55.000Z</time>
      </trkpt>
      <trkpt lat="47.26419" lon="-1.41683">
        <ele>54</ele>
        <time>2020-10-17T10:23:57.000Z</time>
      </trkpt>
      <trkpt lat="47.26427" lon="-1.41669">
        <ele>54</ele>
        <time>2020-10-17T10:23:59.000Z</time>
      </trkpt>
      <trkpt lat="47.26435" lon="-1.41655">
        <ele>54</ele>
        <time>2020-10-17T10:24:01.000Z</time>
      </trkpt>
      <trkpt lat="47.26443" lon="-1.41641">
        <ele>54</ele>
        <time>2020-10-17T10:24:03.000Z</time>
      </trkpt>
      <trkpt lat="47.26451" lon="-1.41627">
        <ele>54</ele>
        <time>2020-10-17T10:24:05.000Z</time>
      </trkpt>
      <trkpt lat="47.26459" lon="-1.41614">
        <ele>54</ele>
        <time>2020-10-17T10:24:07.000Z</time>
      </trkpt>
      <trkpt lat="47.26467" lon="-1.416">
        <ele>54</ele>
        <time>2020-10-17T10:24:09.000Z</time>
      </trkpt>
      <trkpt lat="47.26475" lon="-1.41588">
        <ele>54</ele>
        <time>2020-10-17T10:24:11.000Z</time>
      </trkpt>
      <trkpt lat="47.26482" lon="-1.41575">
        <ele>54</ele>
        <time>2020-10-17T10:24:13.000Z</time>
      </trkpt>
      <trkpt lat="47.2649" lon="-1.41562">
        <ele>54</ele>
        <time>2020-10-17T10:24:15.000Z</time>
      </trkpt>
      <trkpt lat="47.26497" lon="-1.41549">
        <ele>55</ele>
        <time>2020-10-17T10:24:17.000Z</time>
      </trkpt>
      <trkpt lat="47.26505" lon="-1.41536">
        <ele>55</ele>
        <time>2020-10-17T10:24:19.000Z</time>
      </trkpt>
      <trkpt lat="47.26513" lon="-1.41523">
        <ele>55</ele>
        <time>2020-10-17T10:24:21.000Z</time>
      </trkpt>
      <trkpt lat="47.26521" lon="-1.4151">
        <ele>55</ele>
        <time>2020-10-17T10:24:23.000Z</time>
      </trkpt>
      <trkpt lat="47.26529" lon="-1.41497">
        <ele>55</ele>
        <time>2020-10-17T10:24:25.000Z</time>
      </trkpt>
      <trkpt lat="47.26537" lon="-1.41484">
        <ele>55</ele>
        <time>2020-10-17T10:24:27.000Z</time>
      </trkpt>
      <trkpt lat="47.26546" lon="-1.41473">
        <ele>56</ele>
        <time>2020-10-17T10:24:29.000Z</time>
      </trkpt>
      <trkpt lat="47.26555" lon="-1.41461">
        <ele>55</ele>
        <time>2020-10-17T10:24:31.000Z</time>
      </trkpt>
      <trkpt lat="47.2656" lon="-1.41447">
        <ele>56</ele>
        <time>2020-10-17T10:24:33.000Z</time>
      </trkpt>
      <trkpt lat="47.26567" lon="-1.41432">
        <ele>56</ele>
        <time>2020-10-17T10:24:35.000Z</time>
      </trkpt>
      <trkpt lat="47.26574" lon="-1.41418">
        <ele>56</ele>
        <time>2020-10-17T10:24:37.000Z</time>
      </trkpt>
      <trkpt lat="47.2658" lon="-1.41402">
        <ele>55</ele>
        <time>2020-10-17T10:24:39.000Z</time>
      </trkpt>
      <trkpt lat="47.26586" lon="-1.41387">
        <ele>55</ele>
        <time>2020-10-17T10:24:41.000Z</time>
      </trkpt>
      <trkpt lat="47.26592" lon="-1.41371">
        <ele>55</ele>
        <time>2020-10-17T10:24:43.000Z</time>
      </trkpt>
      <trkpt lat="47.26598" lon="-1.41355">
        <ele>55</ele>
        <time>2020-10-17T10:24:45.000Z</time>
      </trkpt>
      <trkpt lat="47.26605" lon="-1.4134">
        <ele>54</ele>
        <time>2020-10-17T10:24:47.000Z</time>
      </trkpt>
      <trkpt lat="47.26612" lon="-1.41326">
        <ele>54</ele>
        <time>2020-10-17T10:24:49.000Z</time>
      </trkpt>
      <trkpt lat="47.26619" lon="-1.41311">
        <ele>54</ele>
        <time>2020-10-17T10:24:51.000Z</time>
      </trkpt>
      <trkpt lat="47.26627" lon="-1.41298">
        <ele>53</ele>
        <time>2020-10-17T10:24:53.000Z</time>
      </trkpt>
      <trkpt lat="47.26637" lon="-1.41286">
        <ele>53</ele>
        <time>2020-10-17T10:24:55.000Z</time>
      </trkpt>
      <trkpt lat="47.26646" lon="-1.41274">
        <ele>54</ele>
        <time>2020-10-17T10:24:57.000Z</time>
      </trkpt>
      <trkpt lat="47.26654" lon="-1.41259">
        <ele>54</ele>
        <time>2020-10-17T10:24:59.000Z</time>
      </trkpt>
      <trkpt lat="47.26663" lon="-1.41245">
        <ele>54</ele>
        <time>2020-10-17T10:25:01.000Z</time>
      </trkpt>
      <trkpt lat="47.26672" lon="-1.41232">
        <ele>53</ele>
        <time>2020-10-17T10:25:03.000Z</time>
      </trkpt>
      <trkpt lat="47.26681" lon="-1.41219">
        <ele>53</ele>
        <time>2020-10-17T10:25:05.000Z</time>
      </trkpt>
      <trkpt lat="47.2669" lon="-1.41208">
        <ele>53</ele>
        <time>2020-10-17T10:25:07.000Z</time>
      </trkpt>
      <trkpt lat="47.267" lon="-1.41197">
        <ele>53</ele>
        <time>2020-10-17T10:25:09.000Z</time>
      </trkpt>
      <trkpt lat="47.2671" lon="-1.41186">
        <ele>53</ele>
        <time>2020-10-17T10:25:11.000Z</time>
      </trkpt>
      <trkpt lat="47.26719" lon="-1.41174">
        <ele>53</ele>
        <time>2020-10-17T10:25:13.000Z</time>
      </trkpt>
      <trkpt lat="47.26728" lon="-1.41162">
        <ele>53</ele>
        <time>2020-10-17T10:25:15.000Z</time>
      </trkpt>
      <trkpt lat="47.26738" lon="-1.4115">
        <ele>53</ele>
        <time>2020-10-17T10:25:17.000Z</time>
      </trkpt>
      <trkpt lat="47.26748" lon="-1.41139">
        <ele>53</ele>
        <time>2020-10-17T10:25:19.000Z</time>
      </trkpt>
      <trkpt lat="47.26757" lon="-1.41129">
        <ele>52</ele>
        <time>2020-10-17T10:25:21.000Z</time>
      </trkpt>
      <trkpt lat="47.26766" lon="-1.41116">
        <ele>52</ele>
        <time>2020-10-17T10:25:23.000Z</time>
      </trkpt>
      <trkpt lat="47.26772" lon="-1.41101">
        <ele>52</ele>
        <time>2020-10-17T10:25:25.000Z</time>
      </trkpt>
      <trkpt lat="47.26776" lon="-1.41085">
        <ele>52</ele>
        <time>2020-10-17T10:25:27.000Z</time>
      </trkpt>
      <trkpt lat="47.26781" lon="-1.41069">
        <ele>52</ele>
        <time>2020-10-17T10:25:29.000Z</time>
      </trkpt>
      <trkpt lat="47.26786" lon="-1.41053">
        <ele>51</ele>
        <time>2020-10-17T10:25:31.000Z</time>
      </trkpt>
      <trkpt lat="47.26791" lon="-1.41038">
        <ele>51</ele>
        <time>2020-10-17T10:25:33.000Z</time>
      </trkpt>
      <trkpt lat="47.26798" lon="-1.41023">
        <ele>51</ele>
        <time>2020-10-17T10:25:35.000Z</time>
      </trkpt>
      <trkpt lat="47.26807" lon="-1.4101">
        <ele>50</ele>
        <time>2020-10-17T10:25:37.000Z</time>
      </trkpt>
      <trkpt lat="47.26817" lon="-1.40998">
        <ele>50</ele>
        <time>2020-10-17T10:25:39.000Z</time>
      </trkpt>
      <trkpt lat="47.26826" lon="-1.40985">
        <ele>51</ele>
        <time>2020-10-17T10:25:41.000Z</time>
      </trkpt>
      <trkpt lat="47.26831" lon="-1.4097">
        <ele>51</ele>
        <time>2020-10-17T10:25:43.000Z</time>
      </trkpt>
      <trkpt lat="47.26837" lon="-1.40957">
        <ele>53</ele>
        <time>2020-10-17T10:25:45.000Z</time>
      </trkpt>
      <trkpt lat="47.26842" lon="-1.40944">
        <ele>53</ele>
        <time>2020-10-17T10:25:47.000Z</time>
      </trkpt>
      <trkpt lat="47.26849" lon="-1.40934">
        <ele>53</ele>
        <time>2020-10-17T10:25:49.000Z</time>
      </trkpt>
      <trkpt lat="47.26858" lon="-1.40925">
        <ele>54</ele>
        <time>2020-10-17T10:25:51.000Z</time>
      </trkpt>
      <trkpt lat="47.26867" lon="-1.40912">
        <ele>53</ele>
        <time>2020-10-17T10:25:53.000Z</time>
      </trkpt>
      <trkpt lat="47.26873" lon="-1.40894">
        <ele>52</ele>
        <time>2020-10-17T10:25:55.000Z</time>
      </trkpt>
      <trkpt lat="47.26877" lon="-1.40876">
        <ele>52</ele>
        <time>2020-10-17T10:25:57.000Z</time>
      </trkpt>
      <trkpt lat="47.26887" lon="-1.40861">
        <ele>52</ele>
        <time>2020-10-17T10:25:59.000Z</time>
      </trkpt>
      <trkpt lat="47.26896" lon="-1.40847">
        <ele>53</ele>
        <time>2020-10-17T10:26:01.000Z</time>
      </trkpt>
      <trkpt lat="47.26903" lon="-1.40834">
        <ele>53</ele>
        <time>2020-10-17T10:26:03.000Z</time>
      </trkpt>
      <trkpt lat="47.2691" lon="-1.40819">
        <ele>53</ele>
        <time>2020-10-17T10:26:05.000Z</time>
      </trkpt>
      <trkpt lat="47.26918" lon="-1.40805">
        <ele>53</ele>
        <time>2020-10-17T10:26:07.000Z</time>
      </trkpt>
      <trkpt lat="47.26924" lon="-1.40791">
        <ele>53</ele>
        <time>2020-10-17T10:26:09.000Z</time>
      </trkpt>
      <trkpt lat="47.26926" lon="-1.40774">
        <ele>54</ele>
        <time>2020-10-17T10:26:11.000Z</time>
      </trkpt>
      <trkpt lat="47.26928" lon="-1.40756">
        <ele>53</ele>
        <time>2020-10-17T10:26:13.000Z</time>
      </trkpt>
      <trkpt lat="47.26929" lon="-1.40738">
        <ele>53</ele>
        <time>2020-10-17T10:26:15.000Z</time>
      </trkpt>
      <trkpt lat="47.26929" lon="-1.40719">
        <ele>53</ele>
        <time>2020-10-17T10:26:17.000Z</time>
      </trkpt>
      <trkpt lat="47.26928" lon="-1.407">
        <ele>53</ele>
        <time>2020-10-17T10:26:19.000Z</time>
      </trkpt>
      <trkpt lat="47.26929" lon="-1.40681">
        <ele>52</ele>
        <time>2020-10-17T10:26:21.000Z</time>
      </trkpt>
      <trkpt lat="47.26931" lon="-1.40663">
        <ele>52</ele>
        <time>2020-10-17T10:26:23.000Z</time>
      </trkpt>
      <trkpt lat="47.26932" lon="-1.40646">
        <ele>52</ele>
        <time>2020-10-17T10:26:25.000Z</time>
      </trkpt>
      <trkpt lat="47.26933" lon="-1.40629">
        <ele>53</ele>
        <time>2020-10-17T10:26:27.000Z</time>
      </trkpt>
      <trkpt lat="47.26936" lon="-1.40613">
        <ele>53</ele>
        <time>2020-10-17T10:26:29.000Z</time>
      </trkpt>
      <trkpt lat="47.2694" lon="-1.40595">
        <ele>53</ele>
        <time>2020-10-17T10:26:31.000Z</time>
      </trkpt>
      <trkpt lat="47.26945" lon="-1.40579">
        <ele>53</ele>
        <time>2020-10-17T10:26:33.000Z</time>
      </trkpt>
      <trkpt lat="47.26951" lon="-1.40563">
        <ele>53</ele>
        <time>2020-10-17T10:26:35.000Z</time>
      </trkpt>
      <trkpt lat="47.26957" lon="-1.40547">
        <ele>53</ele>
        <time>2020-10-17T10:26:37.000Z</time>
      </trkpt>
      <trkpt lat="47.26965" lon="-1.40532">
        <ele>53</ele>
        <time>2020-10-17T10:26:39.000Z</time>
      </trkpt>
      <trkpt lat="47.26974" lon="-1.40519">
        <ele>54</ele>
        <time>2020-10-17T10:26:41.000Z</time>
      </trkpt>
      <trkpt lat="47.26983" lon="-1.40506">
        <ele>54</ele>
        <time>2020-10-17T10:26:43.000Z</time>
      </trkpt>
      <trkpt lat="47.26991" lon="-1.40493">
        <ele>54</ele>
        <time>2020-10-17T10:26:45.000Z</time>
      </trkpt>
      <trkpt lat="47.27" lon="-1.40481">
        <ele>54</ele>
        <time>2020-10-17T10:26:47.000Z</time>
      </trkpt>
      <trkpt lat="47.27008" lon="-1.40468">
        <ele>54</ele>
        <time>2020-10-17T10:26:49.000Z</time>
      </trkpt>
      <trkpt lat="47.27016" lon="-1.40455">
        <ele>54</ele>
        <time>2020-10-17T10:26:51.000Z</time>
      </trkpt>
      <trkpt lat="47.27024" lon="-1.40442">
        <ele>54</ele>
        <time>2020-10-17T10:26:53.000Z</time>
      </trkpt>
      <trkpt lat="47.27032" lon="-1.4043">
        <ele>55</ele>
        <time>2020-10-17T10:26:55.000Z</time>
      </trkpt>
      <trkpt lat="47.2704" lon="-1.40418">
        <ele>55</ele>
        <time>2020-10-17T10:26:57.000Z</time>
      </trkpt>
      <trkpt lat="47.27047" lon="-1.40407">
        <ele>56</ele>
        <time>2020-10-17T10:26:59.000Z</time>
      </trkpt>
      <trkpt lat="47.27055" lon="-1.40395">
        <ele>56</ele>
        <time>2020-10-17T10:27:01.000Z</time>
      </trkpt>
      <trkpt lat="47.27063" lon="-1.40383">
        <ele>55</ele>
        <time>2020-10-17T10:27:03.000Z</time>
      </trkpt>
      <trkpt lat="47.27071" lon="-1.40371">
        <ele>56</ele>
        <time>2020-10-17T10:27:05.000Z</time>
      </trkpt>
      <trkpt lat="47.27079" lon="-1.40358">
        <ele>56</ele>
        <time>2020-10-17T10:27:07.000Z</time>
      </trkpt>
      <trkpt lat="47.27087" lon="-1.40346">
        <ele>57</ele>
        <time>2020-10-17T10:27:09.000Z</time>
      </trkpt>
      <trkpt lat="47.27095" lon="-1.40333">
        <ele>57</ele>
        <time>2020-10-17T10:27:11.000Z</time>
      </trkpt>
      <trkpt lat="47.27103" lon="-1.40321">
        <ele>57</ele>
        <time>2020-10-17T10:27:13.000Z</time>
      </trkpt>
      <trkpt lat="47.27111" lon="-1.40309">
        <ele>57</ele>
        <time>2020-10-17T10:27:15.000Z</time>
      </trkpt>
      <trkpt lat="47.2712" lon="-1.40297">
        <ele>58</ele>
        <time>2020-10-17T10:27:17.000Z</time>
      </trkpt>
      <trkpt lat="47.27128" lon="-1.40283">
        <ele>58</ele>
        <time>2020-10-17T10:27:19.000Z</time>
      </trkpt>
      <trkpt lat="47.27136" lon="-1.40269">
        <ele>57</ele>
        <time>2020-10-17T10:27:21.000Z</time>
      </trkpt>
      <trkpt lat="47.27144" lon="-1.40256">
        <ele>57</ele>
        <time>2020-10-17T10:27:23.000Z</time>
      </trkpt>
      <trkpt lat="47.27153" lon="-1.40242">
        <ele>57</ele>
        <time>2020-10-17T10:27:25.000Z</time>
      </trkpt>
      <trkpt lat="47.27161" lon="-1.40229">
        <ele>57</ele>
        <time>2020-10-17T10:27:27.000Z</time>
      </trkpt>
      <trkpt lat="47.27169" lon="-1.40216">
        <ele>57</ele>
        <time>2020-10-17T10:27:29.000Z</time>
      </trkpt>
      <trkpt lat="47.27178" lon="-1.40203">
        <ele>57</ele>
        <time>2020-10-17T10:27:31.000Z</time>
      </trkpt>
      <trkpt lat="47.27187" lon="-1.40191">
        <ele>57</ele>
        <time>2020-10-17T10:27:33.000Z</time>
      </trkpt>
      <trkpt lat="47.27197" lon="-1.40179">
        <ele>56</ele>
        <time>2020-10-17T10:27:35.000Z</time>
      </trkpt>
      <trkpt lat="47.27205" lon="-1.40165">
        <ele>56</ele>
        <time>2020-10-17T10:27:37.000Z</time>
      </trkpt>
      <trkpt lat="47.27211" lon="-1.40151">
        <ele>55</ele>
        <time>2020-10-17T10:27:39.000Z</time>
      </trkpt>
      <trkpt lat="47.27219" lon="-1.40137">
        <ele>55</ele>
        <time>2020-10-17T10:27:41.000Z</time>
      </trkpt>
      <trkpt lat="47.27227" lon="-1.40125">
        <ele>55</ele>
        <time>2020-10-17T10:27:43.000Z</time>
      </trkpt>
      <trkpt lat="47.27235" lon="-1.40112">
        <ele>55</ele>
        <time>2020-10-17T10:27:45.000Z</time>
      </trkpt>
      <trkpt lat="47.27244" lon="-1.40099">
        <ele>55</ele>
        <time>2020-10-17T10:27:47.000Z</time>
      </trkpt>
      <trkpt lat="47.27252" lon="-1.40086">
        <ele>54</ele>
        <time>2020-10-17T10:27:49.000Z</time>
      </trkpt>
      <trkpt lat="47.2726" lon="-1.40073">
        <ele>55</ele>
        <time>2020-10-17T10:27:51.000Z</time>
      </trkpt>
      <trkpt lat="47.27268" lon="-1.4006">
        <ele>55</ele>
        <time>2020-10-17T10:27:53.000Z</time>
      </trkpt>
      <trkpt lat="47.27276" lon="-1.40047">
        <ele>55</ele>
        <time>2020-10-17T10:27:55.000Z</time>
      </trkpt>
      <trkpt lat="47.27284" lon="-1.40035">
        <ele>55</ele>
        <time>2020-10-17T10:27:57.000Z</time>
      </trkpt>
      <trkpt lat="47.27292" lon="-1.40022">
        <ele>54</ele>
        <time>2020-10-17T10:27:59.000Z</time>
      </trkpt>
      <trkpt lat="47.273" lon="-1.40009">
        <ele>55</ele>
        <time>2020-10-17T10:28:01.000Z</time>
      </trkpt>
      <trkpt lat="47.27309" lon="-1.39996">
        <ele>55</ele>
        <time>2020-10-17T10:28:03.000Z</time>
      </trkpt>
      <trkpt lat="47.27317" lon="-1.39984">
        <ele>55</ele>
        <time>2020-10-17T10:28:05.000Z</time>
      </trkpt>
      <trkpt lat="47.27325" lon="-1.39971">
        <ele>54</ele>
        <time>2020-10-17T10:28:07.000Z</time>
      </trkpt>
      <trkpt lat="47.27333" lon="-1.39958">
        <ele>54</ele>
        <time>2020-10-17T10:28:09.000Z</time>
      </trkpt>
      <trkpt lat="47.27342" lon="-1.39946">
        <ele>54</ele>
        <time>2020-10-17T10:28:11.000Z</time>
      </trkpt>
      <trkpt lat="47.2735" lon="-1.39933">
        <ele>54</ele>
        <time>2020-10-17T10:28:13.000Z</time>
      </trkpt>
      <trkpt lat="47.27357" lon="-1.39919">
        <ele>54</ele>
        <time>2020-10-17T10:28:15.000Z</time>
      </trkpt>
      <trkpt lat="47.27366" lon="-1.39906">
        <ele>54</ele>
        <time>2020-10-17T10:28:17.000Z</time>
      </trkpt>
      <trkpt lat="47.27374" lon="-1.39894">
        <ele>55</ele>
        <time>2020-10-17T10:28:19.000Z</time>
      </trkpt>
      <trkpt lat="47.27385" lon="-1.39887">
        <ele>55</ele>
        <time>2020-10-17T10:28:21.000Z</time>
      </trkpt>
      <trkpt lat="47.27398" lon="-1.39888">
        <ele>55</ele>
        <time>2020-10-17T10:28:23.000Z</time>
      </trkpt>
      <trkpt lat="47.2741" lon="-1.39891">
        <ele>56</ele>
        <time>2020-10-17T10:28:25.000Z</time>
      </trkpt>
      <trkpt lat="47.27421" lon="-1.39887">
        <ele>56</ele>
        <time>2020-10-17T10:28:27.000Z</time>
      </trkpt>
      <trkpt lat="47.27426" lon="-1.39874">
        <ele>56</ele>
        <time>2020-10-17T10:28:29.000Z</time>
      </trkpt>
      <trkpt lat="47.2743" lon="-1.39857">
        <ele>56</ele>
        <time>2020-10-17T10:28:31.000Z</time>
      </trkpt>
      <trkpt lat="47.27435" lon="-1.39839">
        <ele>57</ele>
        <time>2020-10-17T10:28:33.000Z</time>
      </trkpt>
      <trkpt lat="47.27438" lon="-1.39821">
        <ele>56</ele>
        <time>2020-10-17T10:28:35.000Z</time>
      </trkpt>
      <trkpt lat="47.27446" lon="-1.39805">
        <ele>56</ele>
        <time>2020-10-17T10:28:37.000Z</time>
      </trkpt>
      <trkpt lat="47.27454" lon="-1.39789">
        <ele>55</ele>
        <time>2020-10-17T10:28:39.000Z</time>
      </trkpt>
      <trkpt lat="47.27462" lon="-1.39773">
        <ele>55</ele>
        <time>2020-10-17T10:28:41.000Z</time>
      </trkpt>
      <trkpt lat="47.2747" lon="-1.39758">
        <ele>56</ele>
        <time>2020-10-17T10:28:43.000Z</time>
      </trkpt>
      <trkpt lat="47.27477" lon="-1.39744">
        <ele>55</ele>
        <time>2020-10-17T10:28:45.000Z</time>
      </trkpt>
      <trkpt lat="47.27482" lon="-1.3973">
        <ele>56</ele>
        <time>2020-10-17T10:28:47.000Z</time>
      </trkpt>
      <trkpt lat="47.27488" lon="-1.39715">
        <ele>55</ele>
        <time>2020-10-17T10:28:49.000Z</time>
      </trkpt>
      <trkpt lat="47.27497" lon="-1.397">
        <ele>55</ele>
        <time>2020-10-17T10:28:51.000Z</time>
      </trkpt>
      <trkpt lat="47.27505" lon="-1.39687">
        <ele>55</ele>
        <time>2020-10-17T10:28:53.000Z</time>
      </trkpt>
      <trkpt lat="47.27514" lon="-1.39675">
        <ele>56</ele>
        <time>2020-10-17T10:28:55.000Z</time>
      </trkpt>
      <trkpt lat="47.27522" lon="-1.39662">
        <ele>56</ele>
        <time>2020-10-17T10:28:57.000Z</time>
      </trkpt>
      <trkpt lat="47.2753" lon="-1.39649">
        <ele>55</ele>
        <time>2020-10-17T10:28:59.000Z</time>
      </trkpt>
      <trkpt lat="47.27539" lon="-1.39636">
        <ele>55</ele>
        <time>2020-10-17T10:29:01.000Z</time>
      </trkpt>
      <trkpt lat="47.27547" lon="-1.39623">
        <ele>55</ele>
        <time>2020-10-17T10:29:03.000Z</time>
      </trkpt>
      <trkpt lat="47.27556" lon="-1.3961">
        <ele>55</ele>
        <time>2020-10-17T10:29:05.000Z</time>
      </trkpt>
      <trkpt lat="47.27564" lon="-1.39597">
        <ele>55</ele>
        <time>2020-10-17T10:29:07.000Z</time>
      </trkpt>
      <trkpt lat="47.27572" lon="-1.39584">
        <ele>56</ele>
        <time>2020-10-17T10:29:09.000Z</time>
      </trkpt>
      <trkpt lat="47.2758" lon="-1.39571">
        <ele>56</ele>
        <time>2020-10-17T10:29:11.000Z</time>
      </trkpt>
      <trkpt lat="47.27588" lon="-1.39558">
        <ele>56</ele>
        <time>2020-10-17T10:29:13.000Z</time>
      </trkpt>
      <trkpt lat="47.27596" lon="-1.39546">
        <ele>56</ele>
        <time>2020-10-17T10:29:15.000Z</time>
      </trkpt>
      <trkpt lat="47.27604" lon="-1.39533">
        <ele>55</ele>
        <time>2020-10-17T10:29:17.000Z</time>
      </trkpt>
      <trkpt lat="47.27613" lon="-1.39522">
        <ele>55</ele>
        <time>2020-10-17T10:29:19.000Z</time>
      </trkpt>
      <trkpt lat="47.27622" lon="-1.39513">
        <ele>54</ele>
        <time>2020-10-17T10:29:21.000Z</time>
      </trkpt>
      <trkpt lat="47.27629" lon="-1.39501">
        <ele>54</ele>
        <time>2020-10-17T10:29:23.000Z</time>
      </trkpt>
      <trkpt lat="47.27636" lon="-1.39487">
        <ele>55</ele>
        <time>2020-10-17T10:29:25.000Z</time>
      </trkpt>
      <trkpt lat="47.27642" lon="-1.39473">
        <ele>55</ele>
        <time>2020-10-17T10:29:27.000Z</time>
      </trkpt>
      <trkpt lat="47.2765" lon="-1.3946">
        <ele>55</ele>
        <time>2020-10-17T10:29:29.000Z</time>
      </trkpt>
      <trkpt lat="47.27658" lon="-1.39447">
        <ele>55</ele>
        <time>2020-10-17T10:29:31.000Z</time>
      </trkpt>
      <trkpt lat="47.27666" lon="-1.39433">
        <ele>55</ele>
        <time>2020-10-17T10:29:33.000Z</time>
      </trkpt>
      <trkpt lat="47.27673" lon="-1.39419">
        <ele>55</ele>
        <time>2020-10-17T10:29:35.000Z</time>
      </trkpt>
      <trkpt lat="47.27681" lon="-1.39405">
        <ele>54</ele>
        <time>2020-10-17T10:29:37.000Z</time>
      </trkpt>
      <trkpt lat="47.27688" lon="-1.39391">
        <ele>55</ele>
        <time>2020-10-17T10:29:39.000Z</time>
      </trkpt>
      <trkpt lat="47.27695" lon="-1.39375">
        <ele>55</ele>
        <time>2020-10-17T10:29:41.000Z</time>
      </trkpt>
      <trkpt lat="47.27702" lon="-1.3936">
        <ele>55</ele>
        <time>2020-10-17T10:29:43.000Z</time>
      </trkpt>
      <trkpt lat="47.27709" lon="-1.39346">
        <ele>55</ele>
        <time>2020-10-17T10:29:45.000Z</time>
      </trkpt>
      <trkpt lat="47.27717" lon="-1.39332">
        <ele>54</ele>
        <time>2020-10-17T10:29:47.000Z</time>
      </trkpt>
      <trkpt lat="47.27723" lon="-1.39317">
        <ele>54</ele>
        <time>2020-10-17T10:29:49.000Z</time>
      </trkpt>
      <trkpt lat="47.27729" lon="-1.39303">
        <ele>54</ele>
        <time>2020-10-17T10:29:51.000Z</time>
      </trkpt>
      <trkpt lat="47.27736" lon="-1.39287">
        <ele>54</ele>
        <time>2020-10-17T10:29:53.000Z</time>
      </trkpt>
      <trkpt lat="47.27743" lon="-1.39273">
        <ele>54</ele>
        <time>2020-10-17T10:29:55.000Z</time>
      </trkpt>
      <trkpt lat="47.2775" lon="-1.39258">
        <ele>54</ele>
        <time>2020-10-17T10:29:57.000Z</time>
      </trkpt>
      <trkpt lat="47.27757" lon="-1.39243">
        <ele>53</ele>
        <time>2020-10-17T10:29:59.000Z</time>
      </trkpt>
      <trkpt lat="47.27765" lon="-1.39227">
        <ele>53</ele>
        <time>2020-10-17T10:30:01.000Z</time>
      </trkpt>
      <trkpt lat="47.27772" lon="-1.39211">
        <ele>53</ele>
        <time>2020-10-17T10:30:03.000Z</time>
      </trkpt>
      <trkpt lat="47.27779" lon="-1.39197">
        <ele>53</ele>
        <time>2020-10-17T10:30:05.000Z</time>
      </trkpt>
      <trkpt lat="47.27785" lon="-1.39182">
        <ele>52</ele>
        <time>2020-10-17T10:30:07.000Z</time>
      </trkpt>
      <trkpt lat="47.27793" lon="-1.39169">
        <ele>52</ele>
        <time>2020-10-17T10:30:09.000Z</time>
      </trkpt>
      <trkpt lat="47.27801" lon="-1.39156">
        <ele>52</ele>
        <time>2020-10-17T10:30:11.000Z</time>
      </trkpt>
      <trkpt lat="47.27809" lon="-1.39143">
        <ele>52</ele>
        <time>2020-10-17T10:30:13.000Z</time>
      </trkpt>
      <trkpt lat="47.27817" lon="-1.39131">
        <ele>52</ele>
        <time>2020-10-17T10:30:15.000Z</time>
      </trkpt>
      <trkpt lat="47.27825" lon="-1.39118">
        <ele>52</ele>
        <time>2020-10-17T10:30:17.000Z</time>
      </trkpt>
      <trkpt lat="47.27833" lon="-1.39105">
        <ele>52</ele>
        <time>2020-10-17T10:30:19.000Z</time>
      </trkpt>
      <trkpt lat="47.27841" lon="-1.39091">
        <ele>52</ele>
        <time>2020-10-17T10:30:21.000Z</time>
      </trkpt>
      <trkpt lat="47.2785" lon="-1.39078">
        <ele>52</ele>
        <time>2020-10-17T10:30:23.000Z</time>
      </trkpt>
      <trkpt lat="47.27858" lon="-1.39064">
        <ele>52</ele>
        <time>2020-10-17T10:30:25.000Z</time>
      </trkpt>
      <trkpt lat="47.27866" lon="-1.3905">
        <ele>52</ele>
        <time>2020-10-17T10:30:27.000Z</time>
      </trkpt>
      <trkpt lat="47.27874" lon="-1.39036">
        <ele>52</ele>
        <time>2020-10-17T10:30:29.000Z</time>
      </trkpt>
      <trkpt lat="47.27882" lon="-1.39023">
        <ele>52</ele>
        <time>2020-10-17T10:30:31.000Z</time>
      </trkpt>
      <trkpt lat="47.2789" lon="-1.3901">
        <ele>52</ele>
        <time>2020-10-17T10:30:33.000Z</time>
      </trkpt>
      <trkpt lat="47.27898" lon="-1.38999">
        <ele>53</ele>
        <time>2020-10-17T10:30:35.000Z</time>
      </trkpt>
      <trkpt lat="47.27907" lon="-1.38987">
        <ele>53</ele>
        <time>2020-10-17T10:30:37.000Z</time>
      </trkpt>
      <trkpt lat="47.27914" lon="-1.38974">
        <ele>53</ele>
        <time>2020-10-17T10:30:39.000Z</time>
      </trkpt>
      <trkpt lat="47.27922" lon="-1.38961">
        <ele>53</ele>
        <time>2020-10-17T10:30:41.000Z</time>
      </trkpt>
      <trkpt lat="47.2793" lon="-1.38948">
        <ele>52</ele>
        <time>2020-10-17T10:30:43.000Z</time>
      </trkpt>
      <trkpt lat="47.27938" lon="-1.38935">
        <ele>52</ele>
        <time>2020-10-17T10:30:45.000Z</time>
      </trkpt>
      <trkpt lat="47.27946" lon="-1.38923">
        <ele>52</ele>
        <time>2020-10-17T10:30:47.000Z</time>
      </trkpt>
      <trkpt lat="47.27954" lon="-1.3891">
        <ele>52</ele>
        <time>2020-10-17T10:30:49.000Z</time>
      </trkpt>
      <trkpt lat="47.27962" lon="-1.38896">
        <ele>52</ele>
        <time>2020-10-17T10:30:51.000Z</time>
      </trkpt>
      <trkpt lat="47.27971" lon="-1.38884">
        <ele>52</ele>
        <time>2020-10-17T10:30:53.000Z</time>
      </trkpt>
      <trkpt lat="47.2798" lon="-1.38872">
        <ele>52</ele>
        <time>2020-10-17T10:30:55.000Z</time>
      </trkpt>
      <trkpt lat="47.27988" lon="-1.3886">
        <ele>52</ele>
        <time>2020-10-17T10:30:57.000Z</time>
      </trkpt>
      <trkpt lat="47.27998" lon="-1.3885">
        <ele>52</ele>
        <time>2020-10-17T10:30:59.000Z</time>
      </trkpt>
      <trkpt lat="47.28007" lon="-1.38839">
        <ele>52</ele>
        <time>2020-10-17T10:31:01.000Z</time>
      </trkpt>
      <trkpt lat="47.28016" lon="-1.3883">
        <ele>52</ele>
        <time>2020-10-17T10:31:03.000Z</time>
      </trkpt>
      <trkpt lat="47.28026" lon="-1.3882">
        <ele>53</ele>
        <time>2020-10-17T10:31:05.000Z</time>
      </trkpt>
      <trkpt lat="47.28036" lon="-1.38811">
        <ele>52</ele>
        <time>2020-10-17T10:31:07.000Z</time>
      </trkpt>
      <trkpt lat="47.28047" lon="-1.38803">
        <ele>53</ele>
        <time>2020-10-17T10:31:09.000Z</time>
      </trkpt>
      <trkpt lat="47.28058" lon="-1.38797">
        <ele>52</ele>
        <time>2020-10-17T10:31:11.000Z</time>
      </trkpt>
      <trkpt lat="47.28069" lon="-1.38787">
        <ele>51</ele>
        <time>2020-10-17T10:31:13.000Z</time>
      </trkpt>
      <trkpt lat="47.28081" lon="-1.38779">
        <ele>50</ele>
        <time>2020-10-17T10:31:15.000Z</time>
      </trkpt>
      <trkpt lat="47.28093" lon="-1.38778">
        <ele>50</ele>
        <time>2020-10-17T10:31:17.000Z</time>
      </trkpt>
      <trkpt lat="47.28104" lon="-1.38772">
        <ele>51</ele>
        <time>2020-10-17T10:31:19.000Z</time>
      </trkpt>
      <trkpt lat="47.28115" lon="-1.38765">
        <ele>51</ele>
        <time>2020-10-17T10:31:21.000Z</time>
      </trkpt>
      <trkpt lat="47.28125" lon="-1.38758">
        <ele>52</ele>
        <time>2020-10-17T10:31:23.000Z</time>
      </trkpt>
      <trkpt lat="47.28135" lon="-1.38749">
        <ele>51</ele>
        <time>2020-10-17T10:31:25.000Z</time>
      </trkpt>
      <trkpt lat="47.28145" lon="-1.38739">
        <ele>51</ele>
        <time>2020-10-17T10:31:27.000Z</time>
      </trkpt>
      <trkpt lat="47.28154" lon="-1.38731">
        <ele>52</ele>
        <time>2020-10-17T10:31:29.000Z</time>
      </trkpt>
      <trkpt lat="47.28163" lon="-1.38722">
        <ele>52</ele>
        <time>2020-10-17T10:31:31.000Z</time>
      </trkpt>
      <trkpt lat="47.28172" lon="-1.3871">
        <ele>52</ele>
        <time>2020-10-17T10:31:33.000Z</time>
      </trkpt>
      <trkpt lat="47.28177" lon="-1.38695">
        <ele>52</ele>
        <time>2020-10-17T10:31:35.000Z</time>
      </trkpt>
      <trkpt lat="47.2818" lon="-1.38679">
        <ele>52</ele>
        <time>2020-10-17T10:31:37.000Z</time>
      </trkpt>
      <trkpt lat="47.28185" lon="-1.38663">
        <ele>52</ele>
        <time>2020-10-17T10:31:39.000Z</time>
      </trkpt>
      <trkpt lat="47.28191" lon="-1.38648">
        <ele>51</ele>
        <time>2020-10-17T10:31:41.000Z</time>
      </trkpt>
      <trkpt lat="47.28196" lon="-1.38632">
        <ele>52</ele>
        <time>2020-10-17T10:31:43.000Z</time>
      </trkpt>
      <trkpt lat="47.28197" lon="-1.38615">
        <ele>52</ele>
        <time>2020-10-17T10:31:45.000Z</time>
      </trkpt>
      <trkpt lat="47.28198" lon="-1.38597">
        <ele>53</ele>
        <time>2020-10-17T10:31:47.000Z</time>
      </trkpt>
      <trkpt lat="47.28199" lon="-1.38579">
        <ele>53</ele>
        <time>2020-10-17T10:31:49.000Z</time>
      </trkpt>
      <trkpt lat="47.28199" lon="-1.38563">
        <ele>53</ele>
        <time>2020-10-17T10:31:51.000Z</time>
      </trkpt>
      <trkpt lat="47.28201" lon="-1.38546">
        <ele>53</ele>
        <time>2020-10-17T10:31:53.000Z</time>
      </trkpt>
      <trkpt lat="47.28202" lon="-1.38529">
        <ele>52</ele>
        <time>2020-10-17T10:31:55.000Z</time>
      </trkpt>
      <trkpt lat="47.28207" lon="-1.38512">
        <ele>53</ele>
        <time>2020-10-17T10:31:57.000Z</time>
      </trkpt>
      <trkpt lat="47.28212" lon="-1.38497">
        <ele>53</ele>
        <time>2020-10-17T10:31:59.000Z</time>
      </trkpt>
      <trkpt lat="47.28219" lon="-1.38482">
        <ele>53</ele>
        <time>2020-10-17T10:32:01.000Z</time>
      </trkpt>
      <trkpt lat="47.28225" lon="-1.38467">
        <ele>53</ele>
        <time>2020-10-17T10:32:03.000Z</time>
      </trkpt>
      <trkpt lat="47.28231" lon="-1.38451">
        <ele>53</ele>
        <time>2020-10-17T10:32:05.000Z</time>
      </trkpt>
      <trkpt lat="47.28237" lon="-1.38436">
        <ele>54</ele>
        <time>2020-10-17T10:32:07.000Z</time>
      </trkpt>
      <trkpt lat="47.28245" lon="-1.38422">
        <ele>53</ele>
        <time>2020-10-17T10:32:09.000Z</time>
      </trkpt>
      <trkpt lat="47.28252" lon="-1.38405">
        <ele>53</ele>
        <time>2020-10-17T10:32:11.000Z</time>
      </trkpt>
      <trkpt lat="47.28259" lon="-1.38388">
        <ele>53</ele>
        <time>2020-10-17T10:32:13.000Z</time>
      </trkpt>
      <trkpt lat="47.28266" lon="-1.38373">
        <ele>53</ele>
        <time>2020-10-17T10:32:15.000Z</time>
      </trkpt>
      <trkpt lat="47.28274" lon="-1.38358">
        <ele>53</ele>
        <time>2020-10-17T10:32:17.000Z</time>
      </trkpt>
      <trkpt lat="47.28281" lon="-1.38342">
        <ele>53</ele>
        <time>2020-10-17T10:32:19.000Z</time>
      </trkpt>
      <trkpt lat="47.28287" lon="-1.38327">
        <ele>53</ele>
        <time>2020-10-17T10:32:21.000Z</time>
      </trkpt>
      <trkpt lat="47.28294" lon="-1.38312">
        <ele>53</ele>
        <time>2020-10-17T10:32:23.000Z</time>
      </trkpt>
      <trkpt lat="47.28302" lon="-1.38299">
        <ele>53</ele>
        <time>2020-10-17T10:32:25.000Z</time>
      </trkpt>
      <trkpt lat="47.2831" lon="-1.38286">
        <ele>53</ele>
        <time>2020-10-17T10:32:27.000Z</time>
      </trkpt>
      <trkpt lat="47.28318" lon="-1.38274">
        <ele>53</ele>
        <time>2020-10-17T10:32:29.000Z</time>
      </trkpt>
      <trkpt lat="47.28329" lon="-1.38265">
        <ele>53</ele>
        <time>2020-10-17T10:32:31.000Z</time>
      </trkpt>
      <trkpt lat="47.28338" lon="-1.38252">
        <ele>53</ele>
        <time>2020-10-17T10:32:33.000Z</time>
      </trkpt>
      <trkpt lat="47.28345" lon="-1.38238">
        <ele>53</ele>
        <time>2020-10-17T10:32:35.000Z</time>
      </trkpt>
      <trkpt lat="47.2835" lon="-1.38222">
        <ele>53</ele>
        <time>2020-10-17T10:32:37.000Z</time>
      </trkpt>
      <trkpt lat="47.28352" lon="-1.38207">
        <ele>53</ele>
        <time>2020-10-17T10:32:39.000Z</time>
      </trkpt>
      <trkpt lat="47.28355" lon="-1.38191">
        <ele>52</ele>
        <time>2020-10-17T10:32:41.000Z</time>
      </trkpt>
      <trkpt lat="47.28359" lon="-1.38175">
        <ele>52</ele>
        <time>2020-10-17T10:32:43.000Z</time>
      </trkpt>
      <trkpt lat="47.28365" lon="-1.38159">
        <ele>52</ele>
        <time>2020-10-17T10:32:45.000Z</time>
      </trkpt>
      <trkpt lat="47.28371" lon="-1.38143">
        <ele>52</ele>
        <time>2020-10-17T10:32:47.000Z</time>
      </trkpt>
      <trkpt lat="47.28378" lon="-1.38128">
        <ele>51</ele>
        <time>2020-10-17T10:32:49.000Z</time>
      </trkpt>
      <trkpt lat="47.28386" lon="-1.38114">
        <ele>51</ele>
        <time>2020-10-17T10:32:51.000Z</time>
      </trkpt>
      <trkpt lat="47.28394" lon="-1.38103">
        <ele>52</ele>
        <time>2020-10-17T10:32:53.000Z</time>
      </trkpt>
      <trkpt lat="47.28404" lon="-1.38092">
        <ele>52</ele>
        <time>2020-10-17T10:32:55.000Z</time>
      </trkpt>
      <trkpt lat="47.28414" lon="-1.38082">
        <ele>52</ele>
        <time>2020-10-17T10:32:57.000Z</time>
      </trkpt>
      <trkpt lat="47.28423" lon="-1.38071">
        <ele>51</ele>
        <time>2020-10-17T10:32:59.000Z</time>
      </trkpt>
      <trkpt lat="47.28432" lon="-1.3806">
        <ele>51</ele>
        <time>2020-10-17T10:33:01.000Z</time>
      </trkpt>
      <trkpt lat="47.28442" lon="-1.3805">
        <ele>51</ele>
        <time>2020-10-17T10:33:03.000Z</time>
      </trkpt>
      <trkpt lat="47.28451" lon="-1.38039">
        <ele>50</ele>
        <time>2020-10-17T10:33:05.000Z</time>
      </trkpt>
      <trkpt lat="47.2846" lon="-1.38028">
        <ele>51</ele>
        <time>2020-10-17T10:33:07.000Z</time>
      </trkpt>
      <trkpt lat="47.2847" lon="-1.38025">
        <ele>51</ele>
        <time>2020-10-17T10:33:09.000Z</time>
      </trkpt>
      <trkpt lat="47.28482" lon="-1.38026">
        <ele>51</ele>
        <time>2020-10-17T10:33:11.000Z</time>
      </trkpt>
      <trkpt lat="47.28495" lon="-1.38024">
        <ele>52</ele>
        <time>2020-10-17T10:33:13.000Z</time>
      </trkpt>
      <trkpt lat="47.28505" lon="-1.38014">
        <ele>52</ele>
        <time>2020-10-17T10:33:15.000Z</time>
      </trkpt>
      <trkpt lat="47.28513" lon="-1.38002">
        <ele>51</ele>
        <time>2020-10-17T10:33:17.000Z</time>
      </trkpt>
      <trkpt lat="47.28522" lon="-1.3799">
        <ele>51</ele>
        <time>2020-10-17T10:33:19.000Z</time>
      </trkpt>
      <trkpt lat="47.28527" lon="-1.37976">
        <ele>50</ele>
        <time>2020-10-17T10:33:21.000Z</time>
      </trkpt>
      <trkpt lat="47.28526" lon="-1.37962">
        <ele>51</ele>
        <time>2020-10-17T10:33:23.000Z</time>
      </trkpt>
      <trkpt lat="47.28531" lon="-1.37949">
        <ele>51</ele>
        <time>2020-10-17T10:33:25.000Z</time>
      </trkpt>
      <trkpt lat="47.28539" lon="-1.37937">
        <ele>51</ele>
        <time>2020-10-17T10:33:27.000Z</time>
      </trkpt>
      <trkpt lat="47.2855" lon="-1.37926">
        <ele>52</ele>
        <time>2020-10-17T10:33:29.000Z</time>
      </trkpt>
      <trkpt lat="47.28558" lon="-1.37915">
        <ele>52</ele>
        <time>2020-10-17T10:33:31.000Z</time>
      </trkpt>
      <trkpt lat="47.28567" lon="-1.37903">
        <ele>51</ele>
        <time>2020-10-17T10:33:33.000Z</time>
      </trkpt>
      <trkpt lat="47.28576" lon="-1.37893">
        <ele>51</ele>
        <time>2020-10-17T10:33:35.000Z</time>
      </trkpt>
      <trkpt lat="47.28586" lon="-1.37881">
        <ele>51</ele>
        <time>2020-10-17T10:33:37.000Z</time>
      </trkpt>
      <trkpt lat="47.28596" lon="-1.37871">
        <ele>51</ele>
        <time>2020-10-17T10:33:39.000Z</time>
      </trkpt>
      <trkpt lat="47.28605" lon="-1.37861">
        <ele>52</ele>
        <time>2020-10-17T10:33:41.000Z</time>
      </trkpt>
      <trkpt lat="47.28614" lon="-1.37849">
        <ele>52</ele>
        <time>2020-10-17T10:33:43.000Z</time>
      </trkpt>
      <trkpt lat="47.28623" lon="-1.37839">
        <ele>51</ele>
        <time>2020-10-17T10:33:45.000Z</time>
      </trkpt>
      <trkpt lat="47.28632" lon="-1.37828">
        <ele>51</ele>
        <time>2020-10-17T10:33:47.000Z</time>
      </trkpt>
      <trkpt lat="47.28641" lon="-1.37818">
        <ele>52</ele>
        <time>2020-10-17T10:33:49.000Z</time>
      </trkpt>
      <trkpt lat="47.2865" lon="-1.37808">
        <ele>52</ele>
        <time>2020-10-17T10:33:51.000Z</time>
      </trkpt>
      <trkpt lat="47.28659" lon="-1.37798">
        <ele>52</ele>
        <time>2020-10-17T10:33:53.000Z</time>
      </trkpt>
      <trkpt lat="47.28667" lon="-1.37788">
        <ele>52</ele>
        <time>2020-10-17T10:33:55.000Z</time>
      </trkpt>
      <trkpt lat="47.28676" lon="-1.37779">
        <ele>52</ele>
        <time>2020-10-17T10:33:57.000Z</time>
      </trkpt>
      <trkpt lat="47.28685" lon="-1.37769">
        <ele>52</ele>
        <time>2020-10-17T10:33:59.000Z</time>
      </trkpt>
      <trkpt lat="47.28693" lon="-1.37758">
        <ele>52</ele>
        <time>2020-10-17T10:34:01.000Z</time>
      </trkpt>
      <trkpt lat="47.28702" lon="-1.37748">
        <ele>52</ele>
        <time>2020-10-17T10:34:03.000Z</time>
      </trkpt>
      <trkpt lat="47.28712" lon="-1.3774">
        <ele>52</ele>
        <time>2020-10-17T10:34:05.000Z</time>
      </trkpt>
      <trkpt lat="47.28721" lon="-1.37729">
        <ele>52</ele>
        <time>2020-10-17T10:34:07.000Z</time>
      </trkpt>
      <trkpt lat="47.2873" lon="-1.37718">
        <ele>52</ele>
        <time>2020-10-17T10:34:09.000Z</time>
      </trkpt>
      <trkpt lat="47.28739" lon="-1.37707">
        <ele>52</ele>
        <time>2020-10-17T10:34:11.000Z</time>
      </trkpt>
      <trkpt lat="47.28748" lon="-1.37695">
        <ele>53</ele>
        <time>2020-10-17T10:34:13.000Z</time>
      </trkpt>
      <trkpt lat="47.28757" lon="-1.37685">
        <ele>53</ele>
        <time>2020-10-17T10:34:15.000Z</time>
      </trkpt>
      <trkpt lat="47.28766" lon="-1.37674">
        <ele>53</ele>
        <time>2020-10-17T10:34:17.000Z</time>
      </trkpt>
      <trkpt lat="47.28774" lon="-1.37664">
        <ele>52</ele>
        <time>2020-10-17T10:34:19.000Z</time>
      </trkpt>
      <trkpt lat="47.28783" lon="-1.37655">
        <ele>52</ele>
        <time>2020-10-17T10:34:21.000Z</time>
      </trkpt>
      <trkpt lat="47.28793" lon="-1.37647">
        <ele>52</ele>
        <time>2020-10-17T10:34:23.000Z</time>
      </trkpt>
      <trkpt lat="47.28802" lon="-1.37639">
        <ele>52</ele>
        <time>2020-10-17T10:34:25.000Z</time>
      </trkpt>
      <trkpt lat="47.2881" lon="-1.3763">
        <ele>52</ele>
        <time>2020-10-17T10:34:27.000Z</time>
      </trkpt>
      <trkpt lat="47.28817" lon="-1.37622">
        <ele>52</ele>
        <time>2020-10-17T10:34:29.000Z</time>
      </trkpt>
      <trkpt lat="47.28825" lon="-1.3761">
        <ele>52</ele>
        <time>2020-10-17T10:34:32.000Z</time>
      </trkpt>
      <trkpt lat="47.28835" lon="-1.37606">
        <ele>52</ele>
        <time>2020-10-17T10:34:36.000Z</time>
      </trkpt>
      <trkpt lat="47.28844" lon="-1.37602">
        <ele>52</ele>
        <time>2020-10-17T10:34:38.000Z</time>
      </trkpt>
      <trkpt lat="47.28852" lon="-1.37588">
        <ele>53</ele>
        <time>2020-10-17T10:34:41.000Z</time>
      </trkpt>
      <trkpt lat="47.28851" lon="-1.37575">
        <ele>54</ele>
        <time>2020-10-17T10:34:44.000Z</time>
      </trkpt>
      <trkpt lat="47.28853" lon="-1.37557">
        <ele>54</ele>
        <time>2020-10-17T10:34:53.000Z</time>
      </trkpt>
      <trkpt lat="47.28859" lon="-1.3754">
        <ele>54</ele>
        <time>2020-10-17T10:34:55.000Z</time>
      </trkpt>
      <trkpt lat="47.28865" lon="-1.37522">
        <ele>53</ele>
        <time>2020-10-17T10:34:57.000Z</time>
      </trkpt>
      <trkpt lat="47.2887" lon="-1.37503">
        <ele>53</ele>
        <time>2020-10-17T10:34:59.000Z</time>
      </trkpt>
      <trkpt lat="47.28874" lon="-1.37483">
        <ele>53</ele>
        <time>2020-10-17T10:35:01.000Z</time>
      </trkpt>
      <trkpt lat="47.28879" lon="-1.37465">
        <ele>54</ele>
        <time>2020-10-17T10:35:03.000Z</time>
      </trkpt>
      <trkpt lat="47.28884" lon="-1.37449">
        <ele>54</ele>
        <time>2020-10-17T10:35:05.000Z</time>
      </trkpt>
      <trkpt lat="47.2889" lon="-1.37433">
        <ele>53</ele>
        <time>2020-10-17T10:35:07.000Z</time>
      </trkpt>
      <trkpt lat="47.28895" lon="-1.37416">
        <ele>52</ele>
        <time>2020-10-17T10:35:09.000Z</time>
      </trkpt>
      <trkpt lat="47.289" lon="-1.374">
        <ele>51</ele>
        <time>2020-10-17T10:35:11.000Z</time>
      </trkpt>
      <trkpt lat="47.28906" lon="-1.37384">
        <ele>51</ele>
        <time>2020-10-17T10:35:13.000Z</time>
      </trkpt>
      <trkpt lat="47.28911" lon="-1.37369">
        <ele>51</ele>
        <time>2020-10-17T10:35:15.000Z</time>
      </trkpt>
      <trkpt lat="47.28915" lon="-1.37352">
        <ele>51</ele>
        <time>2020-10-17T10:35:17.000Z</time>
      </trkpt>
      <trkpt lat="47.2892" lon="-1.37337">
        <ele>51</ele>
        <time>2020-10-17T10:35:19.000Z</time>
      </trkpt>
      <trkpt lat="47.28927" lon="-1.37321">
        <ele>50</ele>
        <time>2020-10-17T10:35:21.000Z</time>
      </trkpt>
      <trkpt lat="47.28932" lon="-1.37304">
        <ele>50</ele>
        <time>2020-10-17T10:35:23.000Z</time>
      </trkpt>
      <trkpt lat="47.28937" lon="-1.37288">
        <ele>50</ele>
        <time>2020-10-17T10:35:25.000Z</time>
      </trkpt>
      <trkpt lat="47.28941" lon="-1.37271">
        <ele>50</ele>
        <time>2020-10-17T10:35:27.000Z</time>
      </trkpt>
      <trkpt lat="47.28946" lon="-1.37255">
        <ele>50</ele>
        <time>2020-10-17T10:35:29.000Z</time>
      </trkpt>
      <trkpt lat="47.28951" lon="-1.37239">
        <ele>51</ele>
        <time>2020-10-17T10:35:31.000Z</time>
      </trkpt>
      <trkpt lat="47.28956" lon="-1.37223">
        <ele>51</ele>
        <time>2020-10-17T10:35:33.000Z</time>
      </trkpt>
      <trkpt lat="47.28961" lon="-1.37207">
        <ele>51</ele>
        <time>2020-10-17T10:35:35.000Z</time>
      </trkpt>
      <trkpt lat="47.28967" lon="-1.3719">
        <ele>50</ele>
        <time>2020-10-17T10:35:37.000Z</time>
      </trkpt>
      <trkpt lat="47.28973" lon="-1.37176">
        <ele>50</ele>
        <time>2020-10-17T10:35:39.000Z</time>
      </trkpt>
      <trkpt lat="47.28979" lon="-1.3716">
        <ele>50</ele>
        <time>2020-10-17T10:35:41.000Z</time>
      </trkpt>
      <trkpt lat="47.28986" lon="-1.37145">
        <ele>50</ele>
        <time>2020-10-17T10:35:43.000Z</time>
      </trkpt>
      <trkpt lat="47.28992" lon="-1.37131">
        <ele>50</ele>
        <time>2020-10-17T10:35:45.000Z</time>
      </trkpt>
      <trkpt lat="47.28999" lon="-1.37118">
        <ele>51</ele>
        <time>2020-10-17T10:35:47.000Z</time>
      </trkpt>
      <trkpt lat="47.29005" lon="-1.37103">
        <ele>50</ele>
        <time>2020-10-17T10:35:49.000Z</time>
      </trkpt>
      <trkpt lat="47.29011" lon="-1.37089">
        <ele>50</ele>
        <time>2020-10-17T10:35:51.000Z</time>
      </trkpt>
      <trkpt lat="47.29018" lon="-1.37075">
        <ele>51</ele>
        <time>2020-10-17T10:35:53.000Z</time>
      </trkpt>
      <trkpt lat="47.29024" lon="-1.37061">
        <ele>51</ele>
        <time>2020-10-17T10:35:55.000Z</time>
      </trkpt>
      <trkpt lat="47.29031" lon="-1.37048">
        <ele>50</ele>
        <time>2020-10-17T10:35:57.000Z</time>
      </trkpt>
      <trkpt lat="47.29037" lon="-1.37034">
        <ele>51</ele>
        <time>2020-10-17T10:35:59.000Z</time>
      </trkpt>
      <trkpt lat="47.29044" lon="-1.37021">
        <ele>51</ele>
        <time>2020-10-17T10:36:01.000Z</time>
      </trkpt>
      <trkpt lat="47.29051" lon="-1.37008">
        <ele>52</ele>
        <time>2020-10-17T10:36:03.000Z</time>
      </trkpt>
      <trkpt lat="47.29057" lon="-1.36995">
        <ele>53</ele>
        <time>2020-10-17T10:36:05.000Z</time>
      </trkpt>
      <trkpt lat="47.29066" lon="-1.36981">
        <ele>53</ele>
        <time>2020-10-17T10:36:08.000Z</time>
      </trkpt>
      <trkpt lat="47.29075" lon="-1.36975">
        <ele>53</ele>
        <time>2020-10-17T10:36:11.000Z</time>
      </trkpt>
      <trkpt lat="47.29083" lon="-1.36962">
        <ele>54</ele>
        <time>2020-10-17T10:36:14.000Z</time>
      </trkpt>
      <trkpt lat="47.29088" lon="-1.36946">
        <ele>54</ele>
        <time>2020-10-17T10:36:16.000Z</time>
      </trkpt>
      <trkpt lat="47.29093" lon="-1.3693">
        <ele>54</ele>
        <time>2020-10-17T10:36:18.000Z</time>
      </trkpt>
      <trkpt lat="47.29099" lon="-1.36915">
        <ele>54</ele>
        <time>2020-10-17T10:36:20.000Z</time>
      </trkpt>
      <trkpt lat="47.29107" lon="-1.36901">
        <ele>53</ele>
        <time>2020-10-17T10:36:22.000Z</time>
      </trkpt>
      <trkpt lat="47.29114" lon="-1.36887">
        <ele>54</ele>
        <time>2020-10-17T10:36:24.000Z</time>
      </trkpt>
      <trkpt lat="47.29121" lon="-1.36873">
        <ele>54</ele>
        <time>2020-10-17T10:36:26.000Z</time>
      </trkpt>
      <trkpt lat="47.29128" lon="-1.3686">
        <ele>54</ele>
        <time>2020-10-17T10:36:28.000Z</time>
      </trkpt>
      <trkpt lat="47.29135" lon="-1.36845">
        <ele>54</ele>
        <time>2020-10-17T10:36:30.000Z</time>
      </trkpt>
      <trkpt lat="47.29142" lon="-1.36831">
        <ele>54</ele>
        <time>2020-10-17T10:36:32.000Z</time>
      </trkpt>
      <trkpt lat="47.29149" lon="-1.36817">
        <ele>54</ele>
        <time>2020-10-17T10:36:34.000Z</time>
      </trkpt>
      <trkpt lat="47.29156" lon="-1.36803">
        <ele>54</ele>
        <time>2020-10-17T10:36:36.000Z</time>
      </trkpt>
      <trkpt lat="47.29163" lon="-1.3679">
        <ele>54</ele>
        <time>2020-10-17T10:36:38.000Z</time>
      </trkpt>
      <trkpt lat="47.2917" lon="-1.36776">
        <ele>54</ele>
        <time>2020-10-17T10:36:40.000Z</time>
      </trkpt>
      <trkpt lat="47.29178" lon="-1.36763">
        <ele>54</ele>
        <time>2020-10-17T10:36:42.000Z</time>
      </trkpt>
      <trkpt lat="47.29185" lon="-1.36749">
        <ele>54</ele>
        <time>2020-10-17T10:36:44.000Z</time>
      </trkpt>
      <trkpt lat="47.29192" lon="-1.36734">
        <ele>54</ele>
        <time>2020-10-17T10:36:46.000Z</time>
      </trkpt>
      <trkpt lat="47.29199" lon="-1.3672">
        <ele>53</ele>
        <time>2020-10-17T10:36:48.000Z</time>
      </trkpt>
      <trkpt lat="47.29207" lon="-1.36706">
        <ele>53</ele>
        <time>2020-10-17T10:36:50.000Z</time>
      </trkpt>
      <trkpt lat="47.29214" lon="-1.36692">
        <ele>53</ele>
        <time>2020-10-17T10:36:52.000Z</time>
      </trkpt>
      <trkpt lat="47.29221" lon="-1.36678">
        <ele>53</ele>
        <time>2020-10-17T10:36:54.000Z</time>
      </trkpt>
      <trkpt lat="47.29229" lon="-1.36665">
        <ele>53</ele>
        <time>2020-10-17T10:36:56.000Z</time>
      </trkpt>
      <trkpt lat="47.29236" lon="-1.36651">
        <ele>53</ele>
        <time>2020-10-17T10:36:58.000Z</time>
      </trkpt>
      <trkpt lat="47.29243" lon="-1.36637">
        <ele>53</ele>
        <time>2020-10-17T10:37:00.000Z</time>
      </trkpt>
      <trkpt lat="47.29251" lon="-1.36623">
        <ele>53</ele>
        <time>2020-10-17T10:37:02.000Z</time>
      </trkpt>
      <trkpt lat="47.29259" lon="-1.36608">
        <ele>52</ele>
        <time>2020-10-17T10:37:04.000Z</time>
      </trkpt>
      <trkpt lat="47.29266" lon="-1.36594">
        <ele>52</ele>
        <time>2020-10-17T10:37:06.000Z</time>
      </trkpt>
      <trkpt lat="47.29274" lon="-1.36579">
        <ele>52</ele>
        <time>2020-10-17T10:37:08.000Z</time>
      </trkpt>
      <trkpt lat="47.29281" lon="-1.36565">
        <ele>52</ele>
        <time>2020-10-17T10:37:10.000Z</time>
      </trkpt>
      <trkpt lat="47.29289" lon="-1.3655">
        <ele>52</ele>
        <time>2020-10-17T10:37:12.000Z</time>
      </trkpt>
      <trkpt lat="47.29296" lon="-1.36535">
        <ele>52</ele>
        <time>2020-10-17T10:37:14.000Z</time>
      </trkpt>
      <trkpt lat="47.29303" lon="-1.36521">
        <ele>52</ele>
        <time>2020-10-17T10:37:16.000Z</time>
      </trkpt>
      <trkpt lat="47.29311" lon="-1.36507">
        <ele>52</ele>
        <time>2020-10-17T10:37:18.000Z</time>
      </trkpt>
      <trkpt lat="47.29318" lon="-1.36492">
        <ele>52</ele>
        <time>2020-10-17T10:37:20.000Z</time>
      </trkpt>
      <trkpt lat="47.29326" lon="-1.36477">
        <ele>52</ele>
        <time>2020-10-17T10:37:22.000Z</time>
      </trkpt>
      <trkpt lat="47.29333" lon="-1.36463">
        <ele>52</ele>
        <time>2020-10-17T10:37:24.000Z</time>
      </trkpt>
      <trkpt lat="47.29343" lon="-1.3645">
        <ele>51</ele>
        <time>2020-10-17T10:37:26.000Z</time>
      </trkpt>
      <trkpt lat="47.2935" lon="-1.36436">
        <ele>52</ele>
        <time>2020-10-17T10:37:28.000Z</time>
      </trkpt>
      <trkpt lat="47.29356" lon="-1.3642">
        <ele>52</ele>
        <time>2020-10-17T10:37:30.000Z</time>
      </trkpt>
      <trkpt lat="47.29362" lon="-1.36405">
        <ele>52</ele>
        <time>2020-10-17T10:37:32.000Z</time>
      </trkpt>
      <trkpt lat="47.29369" lon="-1.36391">
        <ele>51</ele>
        <time>2020-10-17T10:37:34.000Z</time>
      </trkpt>
      <trkpt lat="47.29377" lon="-1.36377">
        <ele>52</ele>
        <time>2020-10-17T10:37:36.000Z</time>
      </trkpt>
      <trkpt lat="47.29384" lon="-1.36363">
        <ele>51</ele>
        <time>2020-10-17T10:37:38.000Z</time>
      </trkpt>
      <trkpt lat="47.2939" lon="-1.3635">
        <ele>52</ele>
        <time>2020-10-17T10:37:40.000Z</time>
      </trkpt>
      <trkpt lat="47.29397" lon="-1.36338">
        <ele>52</ele>
        <time>2020-10-17T10:37:42.000Z</time>
      </trkpt>
      <trkpt lat="47.29403" lon="-1.36324">
        <ele>52</ele>
        <time>2020-10-17T10:37:44.000Z</time>
      </trkpt>
      <trkpt lat="47.29411" lon="-1.3631">
        <ele>52</ele>
        <time>2020-10-17T10:37:46.000Z</time>
      </trkpt>
      <trkpt lat="47.29418" lon="-1.36297">
        <ele>52</ele>
        <time>2020-10-17T10:37:48.000Z</time>
      </trkpt>
      <trkpt lat="47.29425" lon="-1.36283">
        <ele>52</ele>
        <time>2020-10-17T10:37:50.000Z</time>
      </trkpt>
      <trkpt lat="47.29432" lon="-1.36269">
        <ele>53</ele>
        <time>2020-10-17T10:37:52.000Z</time>
      </trkpt>
      <trkpt lat="47.29439" lon="-1.36256">
        <ele>52</ele>
        <time>2020-10-17T10:37:54.000Z</time>
      </trkpt>
      <trkpt lat="47.29446" lon="-1.36242">
        <ele>53</ele>
        <time>2020-10-17T10:37:56.000Z</time>
      </trkpt>
      <trkpt lat="47.29453" lon="-1.3623">
        <ele>53</ele>
        <time>2020-10-17T10:37:58.000Z</time>
      </trkpt>
      <trkpt lat="47.29459" lon="-1.36216">
        <ele>53</ele>
        <time>2020-10-17T10:38:00.000Z</time>
      </trkpt>
      <trkpt lat="47.29467" lon="-1.36203">
        <ele>53</ele>
        <time>2020-10-17T10:38:02.000Z</time>
      </trkpt>
      <trkpt lat="47.29474" lon="-1.3619">
        <ele>53</ele>
        <time>2020-10-17T10:38:04.000Z</time>
      </trkpt>
      <trkpt lat="47.29481" lon="-1.36176">
        <ele>53</ele>
        <time>2020-10-17T10:38:06.000Z</time>
      </trkpt>
      <trkpt lat="47.29488" lon="-1.36163">
        <ele>53</ele>
        <time>2020-10-17T10:38:08.000Z</time>
      </trkpt>
      <trkpt lat="47.29494" lon="-1.3615">
        <ele>53</ele>
        <time>2020-10-17T10:38:10.000Z</time>
      </trkpt>
      <trkpt lat="47.29501" lon="-1.36137">
        <ele>53</ele>
        <time>2020-10-17T10:38:12.000Z</time>
      </trkpt>
      <trkpt lat="47.29508" lon="-1.36123">
        <ele>53</ele>
        <time>2020-10-17T10:38:14.000Z</time>
      </trkpt>
      <trkpt lat="47.29514" lon="-1.36109">
        <ele>53</ele>
        <time>2020-10-17T10:38:16.000Z</time>
      </trkpt>
      <trkpt lat="47.29521" lon="-1.36096">
        <ele>54</ele>
        <time>2020-10-17T10:38:18.000Z</time>
      </trkpt>
      <trkpt lat="47.29528" lon="-1.36083">
        <ele>54</ele>
        <time>2020-10-17T10:38:20.000Z</time>
      </trkpt>
      <trkpt lat="47.29535" lon="-1.3607">
        <ele>54</ele>
        <time>2020-10-17T10:38:22.000Z</time>
      </trkpt>
      <trkpt lat="47.29542" lon="-1.36057">
        <ele>53</ele>
        <time>2020-10-17T10:38:24.000Z</time>
      </trkpt>
      <trkpt lat="47.29549" lon="-1.36044">
        <ele>54</ele>
        <time>2020-10-17T10:38:26.000Z</time>
      </trkpt>
      <trkpt lat="47.29556" lon="-1.36031">
        <ele>54</ele>
        <time>2020-10-17T10:38:28.000Z</time>
      </trkpt>
      <trkpt lat="47.29563" lon="-1.36016">
        <ele>53</ele>
        <time>2020-10-17T10:38:30.000Z</time>
      </trkpt>
      <trkpt lat="47.2957" lon="-1.36002">
        <ele>53</ele>
        <time>2020-10-17T10:38:32.000Z</time>
      </trkpt>
      <trkpt lat="47.29577" lon="-1.35988">
        <ele>53</ele>
        <time>2020-10-17T10:38:34.000Z</time>
      </trkpt>
      <trkpt lat="47.29584" lon="-1.35975">
        <ele>53</ele>
        <time>2020-10-17T10:38:36.000Z</time>
      </trkpt>
      <trkpt lat="47.29591" lon="-1.35961">
        <ele>53</ele>
        <time>2020-10-17T10:38:38.000Z</time>
      </trkpt>
      <trkpt lat="47.29599" lon="-1.35947">
        <ele>53</ele>
        <time>2020-10-17T10:38:40.000Z</time>
      </trkpt>
      <trkpt lat="47.29606" lon="-1.35934">
        <ele>53</ele>
        <time>2020-10-17T10:38:42.000Z</time>
      </trkpt>
      <trkpt lat="47.29613" lon="-1.35919">
        <ele>54</ele>
        <time>2020-10-17T10:38:44.000Z</time>
      </trkpt>
      <trkpt lat="47.29621" lon="-1.35905">
        <ele>54</ele>
        <time>2020-10-17T10:38:46.000Z</time>
      </trkpt>
      <trkpt lat="47.29628" lon="-1.35891">
        <ele>54</ele>
        <time>2020-10-17T10:38:48.000Z</time>
      </trkpt>
      <trkpt lat="47.29635" lon="-1.35876">
        <ele>53</ele>
        <time>2020-10-17T10:38:50.000Z</time>
      </trkpt>
      <trkpt lat="47.29642" lon="-1.35861">
        <ele>53</ele>
        <time>2020-10-17T10:38:52.000Z</time>
      </trkpt>
      <trkpt lat="47.29649" lon="-1.35847">
        <ele>54</ele>
        <time>2020-10-17T10:38:54.000Z</time>
      </trkpt>
      <trkpt lat="47.29656" lon="-1.35834">
        <ele>54</ele>
        <time>2020-10-17T10:38:56.000Z</time>
      </trkpt>
      <trkpt lat="47.29664" lon="-1.35821">
        <ele>54</ele>
        <time>2020-10-17T10:38:58.000Z</time>
      </trkpt>
      <trkpt lat="47.29674" lon="-1.35812">
        <ele>54</ele>
        <time>2020-10-17T10:39:00.000Z</time>
      </trkpt>
      <trkpt lat="47.29683" lon="-1.35804">
        <ele>55</ele>
        <time>2020-10-17T10:39:02.000Z</time>
      </trkpt>
      <trkpt lat="47.29692" lon="-1.35794">
        <ele>55</ele>
        <time>2020-10-17T10:39:04.000Z</time>
      </trkpt>
      <trkpt lat="47.29697" lon="-1.35779">
        <ele>55</ele>
        <time>2020-10-17T10:39:06.000Z</time>
      </trkpt>
      <trkpt lat="47.297" lon="-1.35762">
        <ele>55</ele>
        <time>2020-10-17T10:39:08.000Z</time>
      </trkpt>
      <trkpt lat="47.29705" lon="-1.35745">
        <ele>55</ele>
        <time>2020-10-17T10:39:10.000Z</time>
      </trkpt>
      <trkpt lat="47.29712" lon="-1.3573">
        <ele>55</ele>
        <time>2020-10-17T10:39:12.000Z</time>
      </trkpt>
      <trkpt lat="47.29719" lon="-1.35716">
        <ele>54</ele>
        <time>2020-10-17T10:39:14.000Z</time>
      </trkpt>
      <trkpt lat="47.29727" lon="-1.35701">
        <ele>54</ele>
        <time>2020-10-17T10:39:16.000Z</time>
      </trkpt>
      <trkpt lat="47.29734" lon="-1.35688">
        <ele>53</ele>
        <time>2020-10-17T10:39:18.000Z</time>
      </trkpt>
      <trkpt lat="47.29744" lon="-1.35678">
        <ele>53</ele>
        <time>2020-10-17T10:39:20.000Z</time>
      </trkpt>
      <trkpt lat="47.29752" lon="-1.35667">
        <ele>54</ele>
        <time>2020-10-17T10:39:22.000Z</time>
      </trkpt>
      <trkpt lat="47.29759" lon="-1.35653">
        <ele>53</ele>
        <time>2020-10-17T10:39:24.000Z</time>
      </trkpt>
      <trkpt lat="47.29765" lon="-1.35639">
        <ele>53</ele>
        <time>2020-10-17T10:39:26.000Z</time>
      </trkpt>
      <trkpt lat="47.2977" lon="-1.35624">
        <ele>53</ele>
        <time>2020-10-17T10:39:28.000Z</time>
      </trkpt>
      <trkpt lat="47.29775" lon="-1.35608">
        <ele>54</ele>
        <time>2020-10-17T10:39:30.000Z</time>
      </trkpt>
      <trkpt lat="47.2978" lon="-1.35594">
        <ele>54</ele>
        <time>2020-10-17T10:39:32.000Z</time>
      </trkpt>
      <trkpt lat="47.29787" lon="-1.3558">
        <ele>54</ele>
        <time>2020-10-17T10:39:34.000Z</time>
      </trkpt>
      <trkpt lat="47.29794" lon="-1.35567">
        <ele>54</ele>
        <time>2020-10-17T10:39:36.000Z</time>
      </trkpt>
      <trkpt lat="47.298" lon="-1.35554">
        <ele>54</ele>
        <time>2020-10-17T10:39:38.000Z</time>
      </trkpt>
      <trkpt lat="47.29807" lon="-1.35541">
        <ele>54</ele>
        <time>2020-10-17T10:39:40.000Z</time>
      </trkpt>
      <trkpt lat="47.29814" lon="-1.35528">
        <ele>54</ele>
        <time>2020-10-17T10:39:42.000Z</time>
      </trkpt>
      <trkpt lat="47.29821" lon="-1.35515">
        <ele>54</ele>
        <time>2020-10-17T10:39:44.000Z</time>
      </trkpt>
      <trkpt lat="47.29828" lon="-1.35501">
        <ele>54</ele>
        <time>2020-10-17T10:39:46.000Z</time>
      </trkpt>
      <trkpt lat="47.29835" lon="-1.35488">
        <ele>54</ele>
        <time>2020-10-17T10:39:48.000Z</time>
      </trkpt>
      <trkpt lat="47.29842" lon="-1.35474">
        <ele>54</ele>
        <time>2020-10-17T10:39:50.000Z</time>
      </trkpt>
      <trkpt lat="47.29849" lon="-1.35461">
        <ele>54</ele>
        <time>2020-10-17T10:39:52.000Z</time>
      </trkpt>
      <trkpt lat="47.29856" lon="-1.35447">
        <ele>55</ele>
        <time>2020-10-17T10:39:54.000Z</time>
      </trkpt>
      <trkpt lat="47.29863" lon="-1.35432">
        <ele>55</ele>
        <time>2020-10-17T10:39:56.000Z</time>
      </trkpt>
      <trkpt lat="47.29871" lon="-1.35418">
        <ele>55</ele>
        <time>2020-10-17T10:39:58.000Z</time>
      </trkpt>
      <trkpt lat="47.29878" lon="-1.35404">
        <ele>55</ele>
        <time>2020-10-17T10:40:00.000Z</time>
      </trkpt>
      <trkpt lat="47.29885" lon="-1.35389">
        <ele>55</ele>
        <time>2020-10-17T10:40:02.000Z</time>
      </trkpt>
      <trkpt lat="47.29893" lon="-1.35376">
        <ele>55</ele>
        <time>2020-10-17T10:40:04.000Z</time>
      </trkpt>
      <trkpt lat="47.299" lon="-1.35362">
        <ele>55</ele>
        <time>2020-10-17T10:40:06.000Z</time>
      </trkpt>
      <trkpt lat="47.29908" lon="-1.35349">
        <ele>55</ele>
        <time>2020-10-17T10:40:08.000Z</time>
      </trkpt>
      <trkpt lat="47.29915" lon="-1.35335">
        <ele>55</ele>
        <time>2020-10-17T10:40:10.000Z</time>
      </trkpt>
      <trkpt lat="47.29921" lon="-1.35322">
        <ele>55</ele>
        <time>2020-10-17T10:40:12.000Z</time>
      </trkpt>
      <trkpt lat="47.29929" lon="-1.35307">
        <ele>54</ele>
        <time>2020-10-17T10:40:14.000Z</time>
      </trkpt>
      <trkpt lat="47.29935" lon="-1.35293">
        <ele>54</ele>
        <time>2020-10-17T10:40:16.000Z</time>
      </trkpt>
      <trkpt lat="47.29942" lon="-1.3528">
        <ele>54</ele>
        <time>2020-10-17T10:40:18.000Z</time>
      </trkpt>
      <trkpt lat="47.2995" lon="-1.35266">
        <ele>54</ele>
        <time>2020-10-17T10:40:20.000Z</time>
      </trkpt>
      <trkpt lat="47.29956" lon="-1.35253">
        <ele>54</ele>
        <time>2020-10-17T10:40:22.000Z</time>
      </trkpt>
      <trkpt lat="47.29964" lon="-1.35239">
        <ele>55</ele>
        <time>2020-10-17T10:40:24.000Z</time>
      </trkpt>
      <trkpt lat="47.2997" lon="-1.35226">
        <ele>54</ele>
        <time>2020-10-17T10:40:26.000Z</time>
      </trkpt>
      <trkpt lat="47.29978" lon="-1.35212">
        <ele>54</ele>
        <time>2020-10-17T10:40:28.000Z</time>
      </trkpt>
      <trkpt lat="47.29984" lon="-1.35198">
        <ele>54</ele>
        <time>2020-10-17T10:40:30.000Z</time>
      </trkpt>
      <trkpt lat="47.29991" lon="-1.35185">
        <ele>53</ele>
        <time>2020-10-17T10:40:32.000Z</time>
      </trkpt>
      <trkpt lat="47.29998" lon="-1.35171">
        <ele>54</ele>
        <time>2020-10-17T10:40:34.000Z</time>
      </trkpt>
      <trkpt lat="47.30006" lon="-1.35158">
        <ele>54</ele>
        <time>2020-10-17T10:40:36.000Z</time>
      </trkpt>
      <trkpt lat="47.30013" lon="-1.35144">
        <ele>54</ele>
        <time>2020-10-17T10:40:38.000Z</time>
      </trkpt>
      <trkpt lat="47.3002" lon="-1.35131">
        <ele>54</ele>
        <time>2020-10-17T10:40:40.000Z</time>
      </trkpt>
      <trkpt lat="47.30027" lon="-1.35117">
        <ele>54</ele>
        <time>2020-10-17T10:40:42.000Z</time>
      </trkpt>
      <trkpt lat="47.30033" lon="-1.35104">
        <ele>54</ele>
        <time>2020-10-17T10:40:44.000Z</time>
      </trkpt>
      <trkpt lat="47.3004" lon="-1.35089">
        <ele>54</ele>
        <time>2020-10-17T10:40:46.000Z</time>
      </trkpt>
      <trkpt lat="47.30046" lon="-1.35076">
        <ele>54</ele>
        <time>2020-10-17T10:40:48.000Z</time>
      </trkpt>
      <trkpt lat="47.30052" lon="-1.35062">
        <ele>54</ele>
        <time>2020-10-17T10:40:50.000Z</time>
      </trkpt>
      <trkpt lat="47.30058" lon="-1.35047">
        <ele>53</ele>
        <time>2020-10-17T10:40:52.000Z</time>
      </trkpt>
      <trkpt lat="47.30063" lon="-1.35032">
        <ele>54</ele>
        <time>2020-10-17T10:40:54.000Z</time>
      </trkpt>
      <trkpt lat="47.30067" lon="-1.35017">
        <ele>54</ele>
        <time>2020-10-17T10:40:56.000Z</time>
      </trkpt>
      <trkpt lat="47.30072" lon="-1.35002">
        <ele>54</ele>
        <time>2020-10-17T10:40:58.000Z</time>
      </trkpt>
      <trkpt lat="47.30077" lon="-1.34987">
        <ele>54</ele>
        <time>2020-10-17T10:41:00.000Z</time>
      </trkpt>
      <trkpt lat="47.30082" lon="-1.34974">
        <ele>54</ele>
        <time>2020-10-17T10:41:02.000Z</time>
      </trkpt>
      <trkpt lat="47.30086" lon="-1.34961">
        <ele>55</ele>
        <time>2020-10-17T10:41:04.000Z</time>
      </trkpt>
      <trkpt lat="47.30089" lon="-1.34948">
        <ele>55</ele>
        <time>2020-10-17T10:41:06.000Z</time>
      </trkpt>
      <trkpt lat="47.30091" lon="-1.34933">
        <ele>55</ele>
        <time>2020-10-17T10:41:08.000Z</time>
      </trkpt>
      <trkpt lat="47.30094" lon="-1.34917">
        <ele>55</ele>
        <time>2020-10-17T10:41:10.000Z</time>
      </trkpt>
      <trkpt lat="47.30096" lon="-1.349">
        <ele>55</ele>
        <time>2020-10-17T10:41:12.000Z</time>
      </trkpt>
      <trkpt lat="47.30099" lon="-1.34882">
        <ele>55</ele>
        <time>2020-10-17T10:41:14.000Z</time>
      </trkpt>
      <trkpt lat="47.30102" lon="-1.34865">
        <ele>54</ele>
        <time>2020-10-17T10:41:16.000Z</time>
      </trkpt>
      <trkpt lat="47.30105" lon="-1.34848">
        <ele>54</ele>
        <time>2020-10-17T10:41:18.000Z</time>
      </trkpt>
      <trkpt lat="47.30109" lon="-1.34833">
        <ele>54</ele>
        <time>2020-10-17T10:41:20.000Z</time>
      </trkpt>
      <trkpt lat="47.30119" lon="-1.34823">
        <ele>54</ele>
        <time>2020-10-17T10:41:22.000Z</time>
      </trkpt>
      <trkpt lat="47.30131" lon="-1.3482">
        <ele>54</ele>
        <time>2020-10-17T10:41:24.000Z</time>
      </trkpt>
      <trkpt lat="47.30143" lon="-1.34814">
        <ele>54</ele>
        <time>2020-10-17T10:41:26.000Z</time>
      </trkpt>
      <trkpt lat="47.30153" lon="-1.34804">
        <ele>54</ele>
        <time>2020-10-17T10:41:28.000Z</time>
      </trkpt>
      <trkpt lat="47.30159" lon="-1.3479">
        <ele>55</ele>
        <time>2020-10-17T10:41:30.000Z</time>
      </trkpt>
      <trkpt lat="47.3016" lon="-1.34772">
        <ele>55</ele>
        <time>2020-10-17T10:41:32.000Z</time>
      </trkpt>
      <trkpt lat="47.30158" lon="-1.34753">
        <ele>55</ele>
        <time>2020-10-17T10:41:34.000Z</time>
      </trkpt>
      <trkpt lat="47.30156" lon="-1.34736">
        <ele>56</ele>
        <time>2020-10-17T10:41:36.000Z</time>
      </trkpt>
      <trkpt lat="47.30156" lon="-1.34719">
        <ele>56</ele>
        <time>2020-10-17T10:41:38.000Z</time>
      </trkpt>
      <trkpt lat="47.30159" lon="-1.34704">
        <ele>56</ele>
        <time>2020-10-17T10:41:40.000Z</time>
      </trkpt>
      <trkpt lat="47.30159" lon="-1.3469">
        <ele>57</ele>
        <time>2020-10-17T10:41:42.000Z</time>
      </trkpt>
      <trkpt lat="47.30157" lon="-1.34677">
        <ele>57</ele>
        <time>2020-10-17T10:41:44.000Z</time>
      </trkpt>
      <trkpt lat="47.30154" lon="-1.3466">
        <ele>57</ele>
        <time>2020-10-17T10:41:46.000Z</time>
      </trkpt>
      <trkpt lat="47.30149" lon="-1.34644">
        <ele>57</ele>
        <time>2020-10-17T10:41:48.000Z</time>
      </trkpt>
      <trkpt lat="47.30148" lon="-1.34627">
        <ele>57</ele>
        <time>2020-10-17T10:41:50.000Z</time>
      </trkpt>
      <trkpt lat="47.30148" lon="-1.34611">
        <ele>58</ele>
        <time>2020-10-17T10:41:52.000Z</time>
      </trkpt>
      <trkpt lat="47.30149" lon="-1.34594">
        <ele>58</ele>
        <time>2020-10-17T10:41:54.000Z</time>
      </trkpt>
      <trkpt lat="47.3015" lon="-1.34577">
        <ele>58</ele>
        <time>2020-10-17T10:41:56.000Z</time>
      </trkpt>
      <trkpt lat="47.30151" lon="-1.34562">
        <ele>58</ele>
        <time>2020-10-17T10:41:58.000Z</time>
      </trkpt>
      <trkpt lat="47.30145" lon="-1.34552">
        <ele>59</ele>
        <time>2020-10-17T10:42:00.000Z</time>
      </trkpt>
      <trkpt lat="47.30134" lon="-1.34545">
        <ele>60</ele>
        <time>2020-10-17T10:42:03.000Z</time>
      </trkpt>
      <trkpt lat="47.30123" lon="-1.34541">
        <ele>59</ele>
        <time>2020-10-17T10:42:05.000Z</time>
      </trkpt>
      <trkpt lat="47.30111" lon="-1.3454">
        <ele>59</ele>
        <time>2020-10-17T10:42:07.000Z</time>
      </trkpt>
      <trkpt lat="47.301" lon="-1.34534">
        <ele>59</ele>
        <time>2020-10-17T10:42:09.000Z</time>
      </trkpt>
      <trkpt lat="47.30092" lon="-1.3452">
        <ele>58</ele>
        <time>2020-10-17T10:42:11.000Z</time>
      </trkpt>
      <trkpt lat="47.30084" lon="-1.34506">
        <ele>58</ele>
        <time>2020-10-17T10:42:13.000Z</time>
      </trkpt>
      <trkpt lat="47.30078" lon="-1.34493">
        <ele>58</ele>
        <time>2020-10-17T10:42:15.000Z</time>
      </trkpt>
      <trkpt lat="47.30076" lon="-1.34475">
        <ele>56</ele>
        <time>2020-10-17T10:42:17.000Z</time>
      </trkpt>
      <trkpt lat="47.30073" lon="-1.34457">
        <ele>56</ele>
        <time>2020-10-17T10:42:19.000Z</time>
      </trkpt>
      <trkpt lat="47.3007" lon="-1.34438">
        <ele>55</ele>
        <time>2020-10-17T10:42:21.000Z</time>
      </trkpt>
      <trkpt lat="47.30067" lon="-1.3442">
        <ele>54</ele>
        <time>2020-10-17T10:42:23.000Z</time>
      </trkpt>
      <trkpt lat="47.30063" lon="-1.34403">
        <ele>54</ele>
        <time>2020-10-17T10:42:25.000Z</time>
      </trkpt>
      <trkpt lat="47.30059" lon="-1.34385">
        <ele>53</ele>
        <time>2020-10-17T10:42:27.000Z</time>
      </trkpt>
      <trkpt lat="47.30055" lon="-1.34367">
        <ele>53</ele>
        <time>2020-10-17T10:42:29.000Z</time>
      </trkpt>
      <trkpt lat="47.30052" lon="-1.34349">
        <ele>52</ele>
        <time>2020-10-17T10:42:31.000Z</time>
      </trkpt>
      <trkpt lat="47.30049" lon="-1.34332">
        <ele>52</ele>
        <time>2020-10-17T10:42:33.000Z</time>
      </trkpt>
      <trkpt lat="47.30046" lon="-1.34316">
        <ele>52</ele>
        <time>2020-10-17T10:42:35.000Z</time>
      </trkpt>
      <trkpt lat="47.30043" lon="-1.34299">
        <ele>52</ele>
        <time>2020-10-17T10:42:37.000Z</time>
      </trkpt>
      <trkpt lat="47.3004" lon="-1.34284">
        <ele>52</ele>
        <time>2020-10-17T10:42:39.000Z</time>
      </trkpt>
      <trkpt lat="47.30036" lon="-1.34268">
        <ele>52</ele>
        <time>2020-10-17T10:42:41.000Z</time>
      </trkpt>
      <trkpt lat="47.30033" lon="-1.34251">
        <ele>52</ele>
        <time>2020-10-17T10:42:43.000Z</time>
      </trkpt>
      <trkpt lat="47.3003" lon="-1.34234">
        <ele>52</ele>
        <time>2020-10-17T10:42:45.000Z</time>
      </trkpt>
      <trkpt lat="47.30027" lon="-1.34217">
        <ele>51</ele>
        <time>2020-10-17T10:42:47.000Z</time>
      </trkpt>
      <trkpt lat="47.30024" lon="-1.342">
        <ele>51</ele>
        <time>2020-10-17T10:42:49.000Z</time>
      </trkpt>
      <trkpt lat="47.3002" lon="-1.34184">
        <ele>51</ele>
        <time>2020-10-17T10:42:51.000Z</time>
      </trkpt>
      <trkpt lat="47.30018" lon="-1.34167">
        <ele>50</ele>
        <time>2020-10-17T10:42:53.000Z</time>
      </trkpt>
      <trkpt lat="47.30014" lon="-1.34151">
        <ele>50</ele>
        <time>2020-10-17T10:42:55.000Z</time>
      </trkpt>
      <trkpt lat="47.30012" lon="-1.34135">
        <ele>51</ele>
        <time>2020-10-17T10:42:57.000Z</time>
      </trkpt>
      <trkpt lat="47.30018" lon="-1.34121">
        <ele>51</ele>
        <time>2020-10-17T10:42:59.000Z</time>
      </trkpt>
      <trkpt lat="47.30028" lon="-1.3411">
        <ele>52</ele>
        <time>2020-10-17T10:43:01.000Z</time>
      </trkpt>
      <trkpt lat="47.30039" lon="-1.34105">
        <ele>53</ele>
        <time>2020-10-17T10:43:03.000Z</time>
      </trkpt>
      <trkpt lat="47.3005" lon="-1.34101">
        <ele>53</ele>
        <time>2020-10-17T10:43:05.000Z</time>
      </trkpt>
      <trkpt lat="47.30062" lon="-1.34103">
        <ele>53</ele>
        <time>2020-10-17T10:43:07.000Z</time>
      </trkpt>
      <trkpt lat="47.30073" lon="-1.34112">
        <ele>53</ele>
        <time>2020-10-17T10:43:09.000Z</time>
      </trkpt>
      <trkpt lat="47.30082" lon="-1.34123">
        <ele>54</ele>
        <time>2020-10-17T10:43:11.000Z</time>
      </trkpt>
      <trkpt lat="47.3009" lon="-1.34133">
        <ele>54</ele>
        <time>2020-10-17T10:43:13.000Z</time>
      </trkpt>
      <trkpt lat="47.30097" lon="-1.34142">
        <ele>54</ele>
        <time>2020-10-17T10:43:15.000Z</time>
      </trkpt>
      <trkpt lat="47.30107" lon="-1.34132">
        <ele>55</ele>
        <time>2020-10-17T10:43:19.000Z</time>
      </trkpt>
      <trkpt lat="47.30111" lon="-1.34114">
        <ele>55</ele>
        <time>2020-10-17T10:43:21.000Z</time>
      </trkpt>
      <trkpt lat="47.30115" lon="-1.34096">
        <ele>56</ele>
        <time>2020-10-17T10:43:23.000Z</time>
      </trkpt>
      <trkpt lat="47.30123" lon="-1.34081">
        <ele>54</ele>
        <time>2020-10-17T10:43:25.000Z</time>
      </trkpt>
      <trkpt lat="47.30131" lon="-1.34069">
        <ele>54</ele>
        <time>2020-10-17T10:43:27.000Z</time>
      </trkpt>
      <trkpt lat="47.30142" lon="-1.34059">
        <ele>54</ele>
        <time>2020-10-17T10:43:29.000Z</time>
      </trkpt>
      <trkpt lat="47.30152" lon="-1.34049">
        <ele>54</ele>
        <time>2020-10-17T10:43:31.000Z</time>
      </trkpt>
      <trkpt lat="47.30162" lon="-1.34038">
        <ele>54</ele>
        <time>2020-10-17T10:43:33.000Z</time>
      </trkpt>
      <trkpt lat="47.30172" lon="-1.34028">
        <ele>54</ele>
        <time>2020-10-17T10:43:35.000Z</time>
      </trkpt>
      <trkpt lat="47.30182" lon="-1.34017">
        <ele>55</ele>
        <time>2020-10-17T10:43:37.000Z</time>
      </trkpt>
      <trkpt lat="47.30192" lon="-1.34008">
        <ele>55</ele>
        <time>2020-10-17T10:43:39.000Z</time>
      </trkpt>
      <trkpt lat="47.30201" lon="-1.33998">
        <ele>55</ele>
        <time>2020-10-17T10:43:41.000Z</time>
      </trkpt>
      <trkpt lat="47.3021" lon="-1.3399">
        <ele>55</ele>
        <time>2020-10-17T10:43:43.000Z</time>
      </trkpt>
      <trkpt lat="47.30218" lon="-1.33996">
        <ele>54</ele>
        <time>2020-10-17T10:43:46.000Z</time>
      </trkpt>
      <trkpt lat="47.30222" lon="-1.3401">
        <ele>56</ele>
        <time>2020-10-17T10:43:48.000Z</time>
      </trkpt>
      <trkpt lat="47.30227" lon="-1.34025">
        <ele>57</ele>
        <time>2020-10-17T10:43:50.000Z</time>
      </trkpt>
      <trkpt lat="47.30232" lon="-1.34042">
        <ele>58</ele>
        <time>2020-10-17T10:43:52.000Z</time>
      </trkpt>
      <trkpt lat="47.30237" lon="-1.3406">
        <ele>58</ele>
        <time>2020-10-17T10:43:54.000Z</time>
      </trkpt>
      <trkpt lat="47.30241" lon="-1.34077">
        <ele>60</ele>
        <time>2020-10-17T10:43:56.000Z</time>
      </trkpt>
      <trkpt lat="47.30248" lon="-1.3409">
        <ele>59</ele>
        <time>2020-10-17T10:43:58.000Z</time>
      </trkpt>
      <trkpt lat="47.30254" lon="-1.34101">
        <ele>58</ele>
        <time>2020-10-17T10:44:00.000Z</time>
      </trkpt>
      <trkpt lat="47.30268" lon="-1.341">
        <ele>58</ele>
        <time>2020-10-17T10:44:03.000Z</time>
      </trkpt>
      <trkpt lat="47.30277" lon="-1.34091">
        <ele>58</ele>
        <time>2020-10-17T10:44:05.000Z</time>
      </trkpt>
      <trkpt lat="47.30287" lon="-1.34078">
        <ele>58</ele>
        <time>2020-10-17T10:44:07.000Z</time>
      </trkpt>
      <trkpt lat="47.30297" lon="-1.34068">
        <ele>58</ele>
        <time>2020-10-17T10:44:09.000Z</time>
      </trkpt>
      <trkpt lat="47.30307" lon="-1.34057">
        <ele>57</ele>
        <time>2020-10-17T10:44:11.000Z</time>
      </trkpt>
      <trkpt lat="47.30316" lon="-1.34047">
        <ele>57</ele>
        <time>2020-10-17T10:44:13.000Z</time>
      </trkpt>
      <trkpt lat="47.30324" lon="-1.34035">
        <ele>58</ele>
        <time>2020-10-17T10:44:15.000Z</time>
      </trkpt>
      <trkpt lat="47.30331" lon="-1.34021">
        <ele>58</ele>
        <time>2020-10-17T10:44:17.000Z</time>
      </trkpt>
      <trkpt lat="47.30338" lon="-1.34008">
        <ele>57</ele>
        <time>2020-10-17T10:44:19.000Z</time>
      </trkpt>
      <trkpt lat="47.30346" lon="-1.33997">
        <ele>57</ele>
        <time>2020-10-17T10:44:21.000Z</time>
      </trkpt>
      <trkpt lat="47.30352" lon="-1.33984">
        <ele>57</ele>
        <time>2020-10-17T10:44:23.000Z</time>
      </trkpt>
      <trkpt lat="47.30358" lon="-1.3397">
        <ele>56</ele>
        <time>2020-10-17T10:44:25.000Z</time>
      </trkpt>
      <trkpt lat="47.30367" lon="-1.33957">
        <ele>55</ele>
        <time>2020-10-17T10:44:28.000Z</time>
      </trkpt>
      <trkpt lat="47.30378" lon="-1.33956">
        <ele>55</ele>
        <time>2020-10-17T10:44:30.000Z</time>
      </trkpt>
      <trkpt lat="47.30388" lon="-1.33947">
        <ele>55</ele>
        <time>2020-10-17T10:44:32.000Z</time>
      </trkpt>
      <trkpt lat="47.30396" lon="-1.33934">
        <ele>55</ele>
        <time>2020-10-17T10:44:34.000Z</time>
      </trkpt>
      <trkpt lat="47.30404" lon="-1.33922">
        <ele>56</ele>
        <time>2020-10-17T10:44:36.000Z</time>
      </trkpt>
      <trkpt lat="47.30412" lon="-1.3391">
        <ele>56</ele>
        <time>2020-10-17T10:44:38.000Z</time>
      </trkpt>
      <trkpt lat="47.30421" lon="-1.33898">
        <ele>56</ele>
        <time>2020-10-17T10:44:40.000Z</time>
      </trkpt>
      <trkpt lat="47.3043" lon="-1.33887">
        <ele>56</ele>
        <time>2020-10-17T10:44:42.000Z</time>
      </trkpt>
      <trkpt lat="47.30439" lon="-1.33878">
        <ele>55</ele>
        <time>2020-10-17T10:44:44.000Z</time>
      </trkpt>
      <trkpt lat="47.30448" lon="-1.33868">
        <ele>56</ele>
        <time>2020-10-17T10:44:46.000Z</time>
      </trkpt>
      <trkpt lat="47.30458" lon="-1.33859">
        <ele>56</ele>
        <time>2020-10-17T10:44:48.000Z</time>
      </trkpt>
      <trkpt lat="47.30468" lon="-1.33848">
        <ele>56</ele>
        <time>2020-10-17T10:44:50.000Z</time>
      </trkpt>
      <trkpt lat="47.30479" lon="-1.33841">
        <ele>56</ele>
        <time>2020-10-17T10:44:52.000Z</time>
      </trkpt>
      <trkpt lat="47.30489" lon="-1.33833">
        <ele>56</ele>
        <time>2020-10-17T10:44:54.000Z</time>
      </trkpt>
      <trkpt lat="47.305" lon="-1.33824">
        <ele>55</ele>
        <time>2020-10-17T10:44:56.000Z</time>
      </trkpt>
      <trkpt lat="47.30511" lon="-1.33816">
        <ele>55</ele>
        <time>2020-10-17T10:44:58.000Z</time>
      </trkpt>
      <trkpt lat="47.30521" lon="-1.33809">
        <ele>55</ele>
        <time>2020-10-17T10:45:00.000Z</time>
      </trkpt>
      <trkpt lat="47.30532" lon="-1.33803">
        <ele>55</ele>
        <time>2020-10-17T10:45:02.000Z</time>
      </trkpt>
      <trkpt lat="47.30543" lon="-1.33796">
        <ele>55</ele>
        <time>2020-10-17T10:45:04.000Z</time>
      </trkpt>
      <trkpt lat="47.30555" lon="-1.3379">
        <ele>56</ele>
        <time>2020-10-17T10:45:06.000Z</time>
      </trkpt>
      <trkpt lat="47.30565" lon="-1.33784">
        <ele>56</ele>
        <time>2020-10-17T10:45:08.000Z</time>
      </trkpt>
      <trkpt lat="47.30577" lon="-1.33779">
        <ele>57</ele>
        <time>2020-10-17T10:45:10.000Z</time>
      </trkpt>
      <trkpt lat="47.30589" lon="-1.33775">
        <ele>56</ele>
        <time>2020-10-17T10:45:12.000Z</time>
      </trkpt>
      <trkpt lat="47.30601" lon="-1.33771">
        <ele>57</ele>
        <time>2020-10-17T10:45:14.000Z</time>
      </trkpt>
      <trkpt lat="47.30613" lon="-1.33767">
        <ele>56</ele>
        <time>2020-10-17T10:45:16.000Z</time>
      </trkpt>
      <trkpt lat="47.30624" lon="-1.33763">
        <ele>56</ele>
        <time>2020-10-17T10:45:18.000Z</time>
      </trkpt>
      <trkpt lat="47.30635" lon="-1.33758">
        <ele>57</ele>
        <time>2020-10-17T10:45:20.000Z</time>
      </trkpt>
      <trkpt lat="47.30646" lon="-1.33753">
        <ele>57</ele>
        <time>2020-10-17T10:45:22.000Z</time>
      </trkpt>
      <trkpt lat="47.30658" lon="-1.33748">
        <ele>57</ele>
        <time>2020-10-17T10:45:24.000Z</time>
      </trkpt>
      <trkpt lat="47.30669" lon="-1.33742">
        <ele>57</ele>
        <time>2020-10-17T10:45:26.000Z</time>
      </trkpt>
      <trkpt lat="47.3068" lon="-1.33734">
        <ele>57</ele>
        <time>2020-10-17T10:45:28.000Z</time>
      </trkpt>
      <trkpt lat="47.3069" lon="-1.33725">
        <ele>57</ele>
        <time>2020-10-17T10:45:30.000Z</time>
      </trkpt>
      <trkpt lat="47.307" lon="-1.33713">
        <ele>58</ele>
        <time>2020-10-17T10:45:32.000Z</time>
      </trkpt>
      <trkpt lat="47.30707" lon="-1.33699">
        <ele>58</ele>
        <time>2020-10-17T10:45:34.000Z</time>
      </trkpt>
      <trkpt lat="47.30713" lon="-1.33685">
        <ele>57</ele>
        <time>2020-10-17T10:45:36.000Z</time>
      </trkpt>
      <trkpt lat="47.30719" lon="-1.3367">
        <ele>57</ele>
        <time>2020-10-17T10:45:38.000Z</time>
      </trkpt>
      <trkpt lat="47.30723" lon="-1.33654">
        <ele>57</ele>
        <time>2020-10-17T10:45:40.000Z</time>
      </trkpt>
      <trkpt lat="47.30725" lon="-1.33638">
        <ele>57</ele>
        <time>2020-10-17T10:45:42.000Z</time>
      </trkpt>
      <trkpt lat="47.30723" lon="-1.33622">
        <ele>56</ele>
        <time>2020-10-17T10:45:44.000Z</time>
      </trkpt>
      <trkpt lat="47.30718" lon="-1.33605">
        <ele>56</ele>
        <time>2020-10-17T10:45:46.000Z</time>
      </trkpt>
      <trkpt lat="47.30712" lon="-1.3359">
        <ele>56</ele>
        <time>2020-10-17T10:45:48.000Z</time>
      </trkpt>
      <trkpt lat="47.30707" lon="-1.33575">
        <ele>55</ele>
        <time>2020-10-17T10:45:50.000Z</time>
      </trkpt>
      <trkpt lat="47.30701" lon="-1.3356">
        <ele>56</ele>
        <time>2020-10-17T10:45:52.000Z</time>
      </trkpt>
      <trkpt lat="47.30696" lon="-1.33545">
        <ele>55</ele>
        <time>2020-10-17T10:45:54.000Z</time>
      </trkpt>
      <trkpt lat="47.30691" lon="-1.3353">
        <ele>55</ele>
        <time>2020-10-17T10:45:56.000Z</time>
      </trkpt>
      <trkpt lat="47.30686" lon="-1.33516">
        <ele>55</ele>
        <time>2020-10-17T10:45:58.000Z</time>
      </trkpt>
      <trkpt lat="47.30681" lon="-1.33501">
        <ele>55</ele>
        <time>2020-10-17T10:46:00.000Z</time>
      </trkpt>
      <trkpt lat="47.30676" lon="-1.33487">
        <ele>55</ele>
        <time>2020-10-17T10:46:02.000Z</time>
      </trkpt>
      <trkpt lat="47.30671" lon="-1.33472">
        <ele>55</ele>
        <time>2020-10-17T10:46:04.000Z</time>
      </trkpt>
      <trkpt lat="47.30666" lon="-1.33457">
        <ele>55</ele>
        <time>2020-10-17T10:46:06.000Z</time>
      </trkpt>
      <trkpt lat="47.30661" lon="-1.33441">
        <ele>55</ele>
        <time>2020-10-17T10:46:08.000Z</time>
      </trkpt>
      <trkpt lat="47.30656" lon="-1.33426">
        <ele>55</ele>
        <time>2020-10-17T10:46:10.000Z</time>
      </trkpt>
      <trkpt lat="47.30651" lon="-1.33412">
        <ele>55</ele>
        <time>2020-10-17T10:46:12.000Z</time>
      </trkpt>
      <trkpt lat="47.30645" lon="-1.33397">
        <ele>55</ele>
        <time>2020-10-17T10:46:14.000Z</time>
      </trkpt>
      <trkpt lat="47.3064" lon="-1.33382">
        <ele>55</ele>
        <time>2020-10-17T10:46:16.000Z</time>
      </trkpt>
      <trkpt lat="47.30635" lon="-1.33369">
        <ele>56</ele>
        <time>2020-10-17T10:46:18.000Z</time>
      </trkpt>
      <trkpt lat="47.30629" lon="-1.33354">
        <ele>56</ele>
        <time>2020-10-17T10:46:20.000Z</time>
      </trkpt>
      <trkpt lat="47.30623" lon="-1.3334">
        <ele>56</ele>
        <time>2020-10-17T10:46:22.000Z</time>
      </trkpt>
      <trkpt lat="47.30618" lon="-1.33325">
        <ele>56</ele>
        <time>2020-10-17T10:46:24.000Z</time>
      </trkpt>
      <trkpt lat="47.30613" lon="-1.3331">
        <ele>55</ele>
        <time>2020-10-17T10:46:26.000Z</time>
      </trkpt>
      <trkpt lat="47.30611" lon="-1.33293">
        <ele>55</ele>
        <time>2020-10-17T10:46:28.000Z</time>
      </trkpt>
      <trkpt lat="47.30612" lon="-1.33278">
        <ele>54</ele>
        <time>2020-10-17T10:46:30.000Z</time>
      </trkpt>
      <trkpt lat="47.30616" lon="-1.33263">
        <ele>54</ele>
        <time>2020-10-17T10:46:32.000Z</time>
      </trkpt>
      <trkpt lat="47.30621" lon="-1.33249">
        <ele>55</ele>
        <time>2020-10-17T10:46:34.000Z</time>
      </trkpt>
      <trkpt lat="47.30629" lon="-1.33237">
        <ele>55</ele>
        <time>2020-10-17T10:46:36.000Z</time>
      </trkpt>
      <trkpt lat="47.30639" lon="-1.33229">
        <ele>55</ele>
        <time>2020-10-17T10:46:38.000Z</time>
      </trkpt>
      <trkpt lat="47.30651" lon="-1.33223">
        <ele>55</ele>
        <time>2020-10-17T10:46:40.000Z</time>
      </trkpt>
      <trkpt lat="47.30663" lon="-1.33219">
        <ele>55</ele>
        <time>2020-10-17T10:46:42.000Z</time>
      </trkpt>
      <trkpt lat="47.30675" lon="-1.33215">
        <ele>55</ele>
        <time>2020-10-17T10:46:44.000Z</time>
      </trkpt>
      <trkpt lat="47.30685" lon="-1.33212">
        <ele>55</ele>
        <time>2020-10-17T10:46:46.000Z</time>
      </trkpt>
      <trkpt lat="47.30697" lon="-1.33208">
        <ele>55</ele>
        <time>2020-10-17T10:46:48.000Z</time>
      </trkpt>
      <trkpt lat="47.30708" lon="-1.33204">
        <ele>55</ele>
        <time>2020-10-17T10:46:50.000Z</time>
      </trkpt>
      <trkpt lat="47.30719" lon="-1.33199">
        <ele>55</ele>
        <time>2020-10-17T10:46:52.000Z</time>
      </trkpt>
      <trkpt lat="47.30731" lon="-1.33195">
        <ele>55</ele>
        <time>2020-10-17T10:46:54.000Z</time>
      </trkpt>
      <trkpt lat="47.30743" lon="-1.33191">
        <ele>54</ele>
        <time>2020-10-17T10:46:56.000Z</time>
      </trkpt>
      <trkpt lat="47.30754" lon="-1.33186">
        <ele>54</ele>
        <time>2020-10-17T10:46:58.000Z</time>
      </trkpt>
      <trkpt lat="47.30766" lon="-1.33181">
        <ele>54</ele>
        <time>2020-10-17T10:47:00.000Z</time>
      </trkpt>
      <trkpt lat="47.30777" lon="-1.33176">
        <ele>54</ele>
        <time>2020-10-17T10:47:02.000Z</time>
      </trkpt>
      <trkpt lat="47.30788" lon="-1.33172">
        <ele>54</ele>
        <time>2020-10-17T10:47:04.000Z</time>
      </trkpt>
      <trkpt lat="47.30799" lon="-1.33167">
        <ele>55</ele>
        <time>2020-10-17T10:47:06.000Z</time>
      </trkpt>
      <trkpt lat="47.3081" lon="-1.33163">
        <ele>55</ele>
        <time>2020-10-17T10:47:08.000Z</time>
      </trkpt>
      <trkpt lat="47.30821" lon="-1.33158">
        <ele>55</ele>
        <time>2020-10-17T10:47:10.000Z</time>
      </trkpt>
      <trkpt lat="47.30832" lon="-1.33152">
        <ele>55</ele>
        <time>2020-10-17T10:47:12.000Z</time>
      </trkpt>
      <trkpt lat="47.30843" lon="-1.33146">
        <ele>55</ele>
        <time>2020-10-17T10:47:14.000Z</time>
      </trkpt>
      <trkpt lat="47.30855" lon="-1.33141">
        <ele>55</ele>
        <time>2020-10-17T10:47:16.000Z</time>
      </trkpt>
      <trkpt lat="47.30866" lon="-1.33136">
        <ele>54</ele>
        <time>2020-10-17T10:47:18.000Z</time>
      </trkpt>
      <trkpt lat="47.30878" lon="-1.33131">
        <ele>54</ele>
        <time>2020-10-17T10:47:20.000Z</time>
      </trkpt>
      <trkpt lat="47.30889" lon="-1.33126">
        <ele>54</ele>
        <time>2020-10-17T10:47:22.000Z</time>
      </trkpt>
      <trkpt lat="47.309" lon="-1.33121">
        <ele>53</ele>
        <time>2020-10-17T10:47:24.000Z</time>
      </trkpt>
      <trkpt lat="47.30912" lon="-1.33116">
        <ele>54</ele>
        <time>2020-10-17T10:47:26.000Z</time>
      </trkpt>
      <trkpt lat="47.30924" lon="-1.33112">
        <ele>54</ele>
        <time>2020-10-17T10:47:28.000Z</time>
      </trkpt>
      <trkpt lat="47.30936" lon="-1.33107">
        <ele>54</ele>
        <time>2020-10-17T10:47:30.000Z</time>
      </trkpt>
      <trkpt lat="47.30948" lon="-1.33102">
        <ele>55</ele>
        <time>2020-10-17T10:47:32.000Z</time>
      </trkpt>
      <trkpt lat="47.3096" lon="-1.33098">
        <ele>55</ele>
        <time>2020-10-17T10:47:34.000Z</time>
      </trkpt>
      <trkpt lat="47.30971" lon="-1.33093">
        <ele>55</ele>
        <time>2020-10-17T10:47:36.000Z</time>
      </trkpt>
      <trkpt lat="47.30983" lon="-1.33088">
        <ele>55</ele>
        <time>2020-10-17T10:47:38.000Z</time>
      </trkpt>
      <trkpt lat="47.30996" lon="-1.33083">
        <ele>55</ele>
        <time>2020-10-17T10:47:40.000Z</time>
      </trkpt>
      <trkpt lat="47.31008" lon="-1.33078">
        <ele>55</ele>
        <time>2020-10-17T10:47:42.000Z</time>
      </trkpt>
      <trkpt lat="47.3102" lon="-1.33073">
        <ele>55</ele>
        <time>2020-10-17T10:47:44.000Z</time>
      </trkpt>
      <trkpt lat="47.31032" lon="-1.33067">
        <ele>55</ele>
        <time>2020-10-17T10:47:46.000Z</time>
      </trkpt>
      <trkpt lat="47.31044" lon="-1.33062">
        <ele>56</ele>
        <time>2020-10-17T10:47:48.000Z</time>
      </trkpt>
      <trkpt lat="47.31056" lon="-1.33057">
        <ele>56</ele>
        <time>2020-10-17T10:47:50.000Z</time>
      </trkpt>
      <trkpt lat="47.31068" lon="-1.33051">
        <ele>56</ele>
        <time>2020-10-17T10:47:52.000Z</time>
      </trkpt>
      <trkpt lat="47.3108" lon="-1.33045">
        <ele>56</ele>
        <time>2020-10-17T10:47:54.000Z</time>
      </trkpt>
      <trkpt lat="47.31092" lon="-1.3304">
        <ele>56</ele>
        <time>2020-10-17T10:47:56.000Z</time>
      </trkpt>
      <trkpt lat="47.31103" lon="-1.33035">
        <ele>56</ele>
        <time>2020-10-17T10:47:58.000Z</time>
      </trkpt>
      <trkpt lat="47.31115" lon="-1.3303">
        <ele>57</ele>
        <time>2020-10-17T10:48:00.000Z</time>
      </trkpt>
      <trkpt lat="47.31129" lon="-1.33025">
        <ele>57</ele>
        <time>2020-10-17T10:48:02.000Z</time>
      </trkpt>
      <trkpt lat="47.31141" lon="-1.3302">
        <ele>57</ele>
        <time>2020-10-17T10:48:04.000Z</time>
      </trkpt>
      <trkpt lat="47.31154" lon="-1.33016">
        <ele>57</ele>
        <time>2020-10-17T10:48:06.000Z</time>
      </trkpt>
      <trkpt lat="47.31166" lon="-1.33012">
        <ele>57</ele>
        <time>2020-10-17T10:48:08.000Z</time>
      </trkpt>
      <trkpt lat="47.31179" lon="-1.33008">
        <ele>57</ele>
        <time>2020-10-17T10:48:10.000Z</time>
      </trkpt>
      <trkpt lat="47.31191" lon="-1.33003">
        <ele>57</ele>
        <time>2020-10-17T10:48:12.000Z</time>
      </trkpt>
      <trkpt lat="47.31203" lon="-1.32998">
        <ele>57</ele>
        <time>2020-10-17T10:48:14.000Z</time>
      </trkpt>
      <trkpt lat="47.31215" lon="-1.32993">
        <ele>56</ele>
        <time>2020-10-17T10:48:16.000Z</time>
      </trkpt>
      <trkpt lat="47.31227" lon="-1.32988">
        <ele>56</ele>
        <time>2020-10-17T10:48:18.000Z</time>
      </trkpt>
      <trkpt lat="47.31239" lon="-1.32981">
        <ele>56</ele>
        <time>2020-10-17T10:48:20.000Z</time>
      </trkpt>
      <trkpt lat="47.3125" lon="-1.32974">
        <ele>56</ele>
        <time>2020-10-17T10:48:22.000Z</time>
      </trkpt>
      <trkpt lat="47.31261" lon="-1.32966">
        <ele>56</ele>
        <time>2020-10-17T10:48:24.000Z</time>
      </trkpt>
      <trkpt lat="47.31272" lon="-1.32957">
        <ele>56</ele>
        <time>2020-10-17T10:48:26.000Z</time>
      </trkpt>
      <trkpt lat="47.31282" lon="-1.32948">
        <ele>57</ele>
        <time>2020-10-17T10:48:28.000Z</time>
      </trkpt>
      <trkpt lat="47.31292" lon="-1.32938">
        <ele>57</ele>
        <time>2020-10-17T10:48:30.000Z</time>
      </trkpt>
      <trkpt lat="47.31303" lon="-1.32929">
        <ele>57</ele>
        <time>2020-10-17T10:48:32.000Z</time>
      </trkpt>
      <trkpt lat="47.31314" lon="-1.3292">
        <ele>57</ele>
        <time>2020-10-17T10:48:34.000Z</time>
      </trkpt>
      <trkpt lat="47.31324" lon="-1.32911">
        <ele>57</ele>
        <time>2020-10-17T10:48:36.000Z</time>
      </trkpt>
      <trkpt lat="47.31334" lon="-1.32902">
        <ele>57</ele>
        <time>2020-10-17T10:48:38.000Z</time>
      </trkpt>
      <trkpt lat="47.31344" lon="-1.32894">
        <ele>56</ele>
        <time>2020-10-17T10:48:40.000Z</time>
      </trkpt>
      <trkpt lat="47.31355" lon="-1.32886">
        <ele>56</ele>
        <time>2020-10-17T10:48:42.000Z</time>
      </trkpt>
      <trkpt lat="47.31365" lon="-1.32877">
        <ele>56</ele>
        <time>2020-10-17T10:48:44.000Z</time>
      </trkpt>
      <trkpt lat="47.31376" lon="-1.32867">
        <ele>56</ele>
        <time>2020-10-17T10:48:46.000Z</time>
      </trkpt>
      <trkpt lat="47.31387" lon="-1.32858">
        <ele>56</ele>
        <time>2020-10-17T10:48:48.000Z</time>
      </trkpt>
      <trkpt lat="47.31397" lon="-1.3285">
        <ele>56</ele>
        <time>2020-10-17T10:48:50.000Z</time>
      </trkpt>
      <trkpt lat="47.31408" lon="-1.32841">
        <ele>55</ele>
        <time>2020-10-17T10:48:52.000Z</time>
      </trkpt>
      <trkpt lat="47.31418" lon="-1.32833">
        <ele>55</ele>
        <time>2020-10-17T10:48:54.000Z</time>
      </trkpt>
      <trkpt lat="47.31429" lon="-1.32824">
        <ele>55</ele>
        <time>2020-10-17T10:48:56.000Z</time>
      </trkpt>
      <trkpt lat="47.31439" lon="-1.32816">
        <ele>55</ele>
        <time>2020-10-17T10:48:58.000Z</time>
      </trkpt>
      <trkpt lat="47.3145" lon="-1.32806">
        <ele>54</ele>
        <time>2020-10-17T10:49:00.000Z</time>
      </trkpt>
      <trkpt lat="47.31461" lon="-1.32798">
        <ele>54</ele>
        <time>2020-10-17T10:49:02.000Z</time>
      </trkpt>
      <trkpt lat="47.31472" lon="-1.32791">
        <ele>53</ele>
        <time>2020-10-17T10:49:04.000Z</time>
      </trkpt>
      <trkpt lat="47.31482" lon="-1.32783">
        <ele>53</ele>
        <time>2020-10-17T10:49:06.000Z</time>
      </trkpt>
      <trkpt lat="47.31495" lon="-1.32767">
        <ele>53</ele>
        <time>2020-10-17T10:49:09.000Z</time>
      </trkpt>
      <trkpt lat="47.31504" lon="-1.32756">
        <ele>53</ele>
        <time>2020-10-17T10:49:11.000Z</time>
      </trkpt>
      <trkpt lat="47.31512" lon="-1.32746">
        <ele>54</ele>
        <time>2020-10-17T10:49:13.000Z</time>
      </trkpt>
      <trkpt lat="47.3152" lon="-1.32736">
        <ele>54</ele>
        <time>2020-10-17T10:49:15.000Z</time>
      </trkpt>
      <trkpt lat="47.31528" lon="-1.32726">
        <ele>54</ele>
        <time>2020-10-17T10:49:17.000Z</time>
      </trkpt>
      <trkpt lat="47.31537" lon="-1.32715">
        <ele>54</ele>
        <time>2020-10-17T10:49:19.000Z</time>
      </trkpt>
      <trkpt lat="47.31546" lon="-1.32704">
        <ele>55</ele>
        <time>2020-10-17T10:49:21.000Z</time>
      </trkpt>
      <trkpt lat="47.31554" lon="-1.32693">
        <ele>55</ele>
        <time>2020-10-17T10:49:23.000Z</time>
      </trkpt>
      <trkpt lat="47.31562" lon="-1.32682">
        <ele>55</ele>
        <time>2020-10-17T10:49:25.000Z</time>
      </trkpt>
      <trkpt lat="47.31575" lon="-1.32666">
        <ele>55</ele>
        <time>2020-10-17T10:49:28.000Z</time>
      </trkpt>
      <trkpt lat="47.31585" lon="-1.32654">
        <ele>54</ele>
        <time>2020-10-17T10:49:30.000Z</time>
      </trkpt>
      <trkpt lat="47.31594" lon="-1.32642">
        <ele>54</ele>
        <time>2020-10-17T10:49:32.000Z</time>
      </trkpt>
      <trkpt lat="47.31608" lon="-1.32623">
        <ele>54</ele>
        <time>2020-10-17T10:49:35.000Z</time>
      </trkpt>
      <trkpt lat="47.31616" lon="-1.3261">
        <ele>55</ele>
        <time>2020-10-17T10:49:37.000Z</time>
      </trkpt>
      <trkpt lat="47.31624" lon="-1.32596">
        <ele>55</ele>
        <time>2020-10-17T10:49:39.000Z</time>
      </trkpt>
      <trkpt lat="47.31635" lon="-1.32576">
        <ele>55</ele>
        <time>2020-10-17T10:49:42.000Z</time>
      </trkpt>
      <trkpt lat="47.31642" lon="-1.32562">
        <ele>55</ele>
        <time>2020-10-17T10:49:44.000Z</time>
      </trkpt>
      <trkpt lat="47.31649" lon="-1.32547">
        <ele>54</ele>
        <time>2020-10-17T10:49:46.000Z</time>
      </trkpt>
      <trkpt lat="47.31656" lon="-1.32533">
        <ele>54</ele>
        <time>2020-10-17T10:49:48.000Z</time>
      </trkpt>
      <trkpt lat="47.31663" lon="-1.3252">
        <ele>54</ele>
        <time>2020-10-17T10:49:50.000Z</time>
      </trkpt>
      <trkpt lat="47.31669" lon="-1.32507">
        <ele>55</ele>
        <time>2020-10-17T10:49:52.000Z</time>
      </trkpt>
      <trkpt lat="47.31678" lon="-1.32484">
        <ele>55</ele>
        <time>2020-10-17T10:49:55.000Z</time>
      </trkpt>
      <trkpt lat="47.31682" lon="-1.32468">
        <ele>55</ele>
        <time>2020-10-17T10:49:57.000Z</time>
      </trkpt>
      <trkpt lat="47.31684" lon="-1.32451">
        <ele>55</ele>
        <time>2020-10-17T10:49:59.000Z</time>
      </trkpt>
      <trkpt lat="47.31685" lon="-1.32425">
        <ele>56</ele>
        <time>2020-10-17T10:50:03.000Z</time>
      </trkpt>
      <trkpt lat="47.31686" lon="-1.32407">
        <ele>55</ele>
        <time>2020-10-17T10:50:05.000Z</time>
      </trkpt>
      <trkpt lat="47.31688" lon="-1.32389">
        <ele>56</ele>
        <time>2020-10-17T10:50:07.000Z</time>
      </trkpt>
      <trkpt lat="47.3169" lon="-1.32372">
        <ele>55</ele>
        <time>2020-10-17T10:50:09.000Z</time>
      </trkpt>
      <trkpt lat="47.31693" lon="-1.32354">
        <ele>54</ele>
        <time>2020-10-17T10:50:11.000Z</time>
      </trkpt>
      <trkpt lat="47.31696" lon="-1.32337">
        <ele>54</ele>
        <time>2020-10-17T10:50:13.000Z</time>
      </trkpt>
      <trkpt lat="47.31699" lon="-1.3232">
        <ele>53</ele>
        <time>2020-10-17T10:50:15.000Z</time>
      </trkpt>
      <trkpt lat="47.31703" lon="-1.32303">
        <ele>53</ele>
        <time>2020-10-17T10:50:17.000Z</time>
      </trkpt>
      <trkpt lat="47.31706" lon="-1.32287">
        <ele>53</ele>
        <time>2020-10-17T10:50:19.000Z</time>
      </trkpt>
      <trkpt lat="47.31709" lon="-1.32271">
        <ele>53</ele>
        <time>2020-10-17T10:50:21.000Z</time>
      </trkpt>
      <trkpt lat="47.31713" lon="-1.32255">
        <ele>53</ele>
        <time>2020-10-17T10:50:23.000Z</time>
      </trkpt>
      <trkpt lat="47.31716" lon="-1.3224">
        <ele>52</ele>
        <time>2020-10-17T10:50:25.000Z</time>
      </trkpt>
      <trkpt lat="47.31718" lon="-1.32224">
        <ele>53</ele>
        <time>2020-10-17T10:50:27.000Z</time>
      </trkpt>
      <trkpt lat="47.3172" lon="-1.32208">
        <ele>53</ele>
        <time>2020-10-17T10:50:29.000Z</time>
      </trkpt>
      <trkpt lat="47.31722" lon="-1.32192">
        <ele>54</ele>
        <time>2020-10-17T10:50:31.000Z</time>
      </trkpt>
      <trkpt lat="47.31725" lon="-1.32167">
        <ele>54</ele>
        <time>2020-10-17T10:50:34.000Z</time>
      </trkpt>
      <trkpt lat="47.31729" lon="-1.32144">
        <ele>55</ele>
        <time>2020-10-17T10:50:37.000Z</time>
      </trkpt>
      <trkpt lat="47.31732" lon="-1.32129">
        <ele>55</ele>
        <time>2020-10-17T10:50:39.000Z</time>
      </trkpt>
      <trkpt lat="47.31736" lon="-1.32115">
        <ele>55</ele>
        <time>2020-10-17T10:50:41.000Z</time>
      </trkpt>
      <trkpt lat="47.31741" lon="-1.32101">
        <ele>55</ele>
        <time>2020-10-17T10:50:43.000Z</time>
      </trkpt>
      <trkpt lat="47.31746" lon="-1.32087">
        <ele>54</ele>
        <time>2020-10-17T10:50:45.000Z</time>
      </trkpt>
      <trkpt lat="47.31751" lon="-1.32074">
        <ele>54</ele>
        <time>2020-10-17T10:50:47.000Z</time>
      </trkpt>
      <trkpt lat="47.31757" lon="-1.3206">
        <ele>53</ele>
        <time>2020-10-17T10:50:49.000Z</time>
      </trkpt>
      <trkpt lat="47.31762" lon="-1.32047">
        <ele>53</ele>
        <time>2020-10-17T10:50:51.000Z</time>
      </trkpt>
      <trkpt lat="47.31767" lon="-1.32034">
        <ele>53</ele>
        <time>2020-10-17T10:50:53.000Z</time>
      </trkpt>
      <trkpt lat="47.31772" lon="-1.3202">
        <ele>54</ele>
        <time>2020-10-17T10:50:55.000Z</time>
      </trkpt>
      <trkpt lat="47.31777" lon="-1.32007">
        <ele>54</ele>
        <time>2020-10-17T10:50:57.000Z</time>
      </trkpt>
      <trkpt lat="47.31782" lon="-1.31993">
        <ele>55</ele>
        <time>2020-10-17T10:50:59.000Z</time>
      </trkpt>
      <trkpt lat="47.31787" lon="-1.3198">
        <ele>54</ele>
        <time>2020-10-17T10:51:01.000Z</time>
      </trkpt>
      <trkpt lat="47.31791" lon="-1.31967">
        <ele>55</ele>
        <time>2020-10-17T10:51:03.000Z</time>
      </trkpt>
      <trkpt lat="47.31796" lon="-1.31951">
        <ele>55</ele>
        <time>2020-10-17T10:51:06.000Z</time>
      </trkpt>
      <trkpt lat="47.31806" lon="-1.31947">
        <ele>55</ele>
        <time>2020-10-17T10:51:09.000Z</time>
      </trkpt>
      <trkpt lat="47.31817" lon="-1.31953">
        <ele>56</ele>
        <time>2020-10-17T10:51:11.000Z</time>
      </trkpt>
      <trkpt lat="47.31833" lon="-1.31965">
        <ele>56</ele>
        <time>2020-10-17T10:51:14.000Z</time>
      </trkpt>
      <trkpt lat="47.31845" lon="-1.31973">
        <ele>56</ele>
        <time>2020-10-17T10:51:16.000Z</time>
      </trkpt>
      <trkpt lat="47.31857" lon="-1.31981">
        <ele>56</ele>
        <time>2020-10-17T10:51:18.000Z</time>
      </trkpt>
      <trkpt lat="47.3187" lon="-1.31988">
        <ele>56</ele>
        <time>2020-10-17T10:51:20.000Z</time>
      </trkpt>
      <trkpt lat="47.31882" lon="-1.31995">
        <ele>56</ele>
        <time>2020-10-17T10:51:22.000Z</time>
      </trkpt>
      <trkpt lat="47.31895" lon="-1.32001">
        <ele>57</ele>
        <time>2020-10-17T10:51:24.000Z</time>
      </trkpt>
      <trkpt lat="47.31907" lon="-1.32006">
        <ele>57</ele>
        <time>2020-10-17T10:51:26.000Z</time>
      </trkpt>
      <trkpt lat="47.31918" lon="-1.32011">
        <ele>57</ele>
        <time>2020-10-17T10:51:28.000Z</time>
      </trkpt>
      <trkpt lat="47.31931" lon="-1.32013">
        <ele>57</ele>
        <time>2020-10-17T10:51:30.000Z</time>
      </trkpt>
      <trkpt lat="47.31943" lon="-1.32013">
        <ele>57</ele>
        <time>2020-10-17T10:51:32.000Z</time>
      </trkpt>
      <trkpt lat="47.31955" lon="-1.32008">
        <ele>57</ele>
        <time>2020-10-17T10:51:34.000Z</time>
      </trkpt>
      <trkpt lat="47.31969" lon="-1.31993">
        <ele>57</ele>
        <time>2020-10-17T10:51:37.000Z</time>
      </trkpt>
      <trkpt lat="47.31976" lon="-1.31976">
        <ele>58</ele>
        <time>2020-10-17T10:51:39.000Z</time>
      </trkpt>
      <trkpt lat="47.31982" lon="-1.31959">
        <ele>58</ele>
        <time>2020-10-17T10:51:41.000Z</time>
      </trkpt>
      <trkpt lat="47.31988" lon="-1.31943">
        <ele>58</ele>
        <time>2020-10-17T10:51:43.000Z</time>
      </trkpt>
      <trkpt lat="47.31995" lon="-1.31925">
        <ele>57</ele>
        <time>2020-10-17T10:51:45.000Z</time>
      </trkpt>
      <trkpt lat="47.32001" lon="-1.31908">
        <ele>58</ele>
        <time>2020-10-17T10:51:47.000Z</time>
      </trkpt>
      <trkpt lat="47.32006" lon="-1.31892">
        <ele>58</ele>
        <time>2020-10-17T10:51:49.000Z</time>
      </trkpt>
      <trkpt lat="47.32012" lon="-1.31875">
        <ele>58</ele>
        <time>2020-10-17T10:51:51.000Z</time>
      </trkpt>
      <trkpt lat="47.32021" lon="-1.31851">
        <ele>57</ele>
        <time>2020-10-17T10:51:54.000Z</time>
      </trkpt>
      <trkpt lat="47.32026" lon="-1.31834">
        <ele>58</ele>
        <time>2020-10-17T10:51:56.000Z</time>
      </trkpt>
      <trkpt lat="47.32032" lon="-1.31819">
        <ele>59</ele>
        <time>2020-10-17T10:51:58.000Z</time>
      </trkpt>
      <trkpt lat="47.32038" lon="-1.31803">
        <ele>59</ele>
        <time>2020-10-17T10:52:00.000Z</time>
      </trkpt>
      <trkpt lat="47.32043" lon="-1.31786">
        <ele>59</ele>
        <time>2020-10-17T10:52:02.000Z</time>
      </trkpt>
      <trkpt lat="47.32053" lon="-1.31763">
        <ele>60</ele>
        <time>2020-10-17T10:52:05.000Z</time>
      </trkpt>
      <trkpt lat="47.32059" lon="-1.31747">
        <ele>60</ele>
        <time>2020-10-17T10:52:07.000Z</time>
      </trkpt>
      <trkpt lat="47.32065" lon="-1.31732">
        <ele>60</ele>
        <time>2020-10-17T10:52:09.000Z</time>
      </trkpt>
      <trkpt lat="47.32073" lon="-1.31717">
        <ele>60</ele>
        <time>2020-10-17T10:52:11.000Z</time>
      </trkpt>
      <trkpt lat="47.32081" lon="-1.31703">
        <ele>60</ele>
        <time>2020-10-17T10:52:13.000Z</time>
      </trkpt>
      <trkpt lat="47.32089" lon="-1.3169">
        <ele>60</ele>
        <time>2020-10-17T10:52:15.000Z</time>
      </trkpt>
      <trkpt lat="47.32098" lon="-1.31676">
        <ele>60</ele>
        <time>2020-10-17T10:52:17.000Z</time>
      </trkpt>
      <trkpt lat="47.32107" lon="-1.31663">
        <ele>60</ele>
        <time>2020-10-17T10:52:19.000Z</time>
      </trkpt>
      <trkpt lat="47.32115" lon="-1.3165">
        <ele>60</ele>
        <time>2020-10-17T10:52:21.000Z</time>
      </trkpt>
      <trkpt lat="47.32123" lon="-1.31638">
        <ele>60</ele>
        <time>2020-10-17T10:52:23.000Z</time>
      </trkpt>
      <trkpt lat="47.32131" lon="-1.31625">
        <ele>60</ele>
        <time>2020-10-17T10:52:25.000Z</time>
      </trkpt>
      <trkpt lat="47.32141" lon="-1.31611">
        <ele>60</ele>
        <time>2020-10-17T10:52:27.000Z</time>
      </trkpt>
      <trkpt lat="47.32149" lon="-1.31597">
        <ele>60</ele>
        <time>2020-10-17T10:52:29.000Z</time>
      </trkpt>
      <trkpt lat="47.32158" lon="-1.31583">
        <ele>60</ele>
        <time>2020-10-17T10:52:31.000Z</time>
      </trkpt>
      <trkpt lat="47.32166" lon="-1.3157">
        <ele>60</ele>
        <time>2020-10-17T10:52:33.000Z</time>
      </trkpt>
      <trkpt lat="47.32173" lon="-1.31557">
        <ele>61</ele>
        <time>2020-10-17T10:52:35.000Z</time>
      </trkpt>
      <trkpt lat="47.3218" lon="-1.31544">
        <ele>61</ele>
        <time>2020-10-17T10:52:37.000Z</time>
      </trkpt>
      <trkpt lat="47.32188" lon="-1.31531">
        <ele>62</ele>
        <time>2020-10-17T10:52:39.000Z</time>
      </trkpt>
      <trkpt lat="47.32196" lon="-1.31518">
        <ele>62</ele>
        <time>2020-10-17T10:52:41.000Z</time>
      </trkpt>
      <trkpt lat="47.32204" lon="-1.31506">
        <ele>63</ele>
        <time>2020-10-17T10:52:43.000Z</time>
      </trkpt>
      <trkpt lat="47.32212" lon="-1.31493">
        <ele>63</ele>
        <time>2020-10-17T10:52:45.000Z</time>
      </trkpt>
      <trkpt lat="47.3222" lon="-1.31479">
        <ele>63</ele>
        <time>2020-10-17T10:52:47.000Z</time>
      </trkpt>
      <trkpt lat="47.32229" lon="-1.31466">
        <ele>64</ele>
        <time>2020-10-17T10:52:49.000Z</time>
      </trkpt>
      <trkpt lat="47.32237" lon="-1.31453">
        <ele>64</ele>
        <time>2020-10-17T10:52:51.000Z</time>
      </trkpt>
      <trkpt lat="47.32245" lon="-1.31441">
        <ele>64</ele>
        <time>2020-10-17T10:52:53.000Z</time>
      </trkpt>
      <trkpt lat="47.32253" lon="-1.31429">
        <ele>64</ele>
        <time>2020-10-17T10:52:55.000Z</time>
      </trkpt>
      <trkpt lat="47.32262" lon="-1.31416">
        <ele>64</ele>
        <time>2020-10-17T10:52:57.000Z</time>
      </trkpt>
      <trkpt lat="47.32269" lon="-1.31402">
        <ele>64</ele>
        <time>2020-10-17T10:52:59.000Z</time>
      </trkpt>
      <trkpt lat="47.32278" lon="-1.3139">
        <ele>64</ele>
        <time>2020-10-17T10:53:01.000Z</time>
      </trkpt>
      <trkpt lat="47.32286" lon="-1.31378">
        <ele>65</ele>
        <time>2020-10-17T10:53:03.000Z</time>
      </trkpt>
      <trkpt lat="47.32294" lon="-1.31365">
        <ele>65</ele>
        <time>2020-10-17T10:53:05.000Z</time>
      </trkpt>
      <trkpt lat="47.32303" lon="-1.3135">
        <ele>64</ele>
        <time>2020-10-17T10:53:07.000Z</time>
      </trkpt>
      <trkpt lat="47.32311" lon="-1.31337">
        <ele>64</ele>
        <time>2020-10-17T10:53:09.000Z</time>
      </trkpt>
      <trkpt lat="47.3232" lon="-1.31325">
        <ele>64</ele>
        <time>2020-10-17T10:53:11.000Z</time>
      </trkpt>
      <trkpt lat="47.32329" lon="-1.31312">
        <ele>64</ele>
        <time>2020-10-17T10:53:13.000Z</time>
      </trkpt>
      <trkpt lat="47.32337" lon="-1.31299">
        <ele>64</ele>
        <time>2020-10-17T10:53:15.000Z</time>
      </trkpt>
      <trkpt lat="47.32346" lon="-1.31285">
        <ele>63</ele>
        <time>2020-10-17T10:53:17.000Z</time>
      </trkpt>
      <trkpt lat="47.32354" lon="-1.31273">
        <ele>62</ele>
        <time>2020-10-17T10:53:19.000Z</time>
      </trkpt>
      <trkpt lat="47.32361" lon="-1.3126">
        <ele>62</ele>
        <time>2020-10-17T10:53:21.000Z</time>
      </trkpt>
      <trkpt lat="47.32368" lon="-1.31246">
        <ele>62</ele>
        <time>2020-10-17T10:53:23.000Z</time>
      </trkpt>
      <trkpt lat="47.32375" lon="-1.31231">
        <ele>63</ele>
        <time>2020-10-17T10:53:25.000Z</time>
      </trkpt>
      <trkpt lat="47.3238" lon="-1.31214">
        <ele>62</ele>
        <time>2020-10-17T10:53:27.000Z</time>
      </trkpt>
      <trkpt lat="47.32385" lon="-1.31198">
        <ele>62</ele>
        <time>2020-10-17T10:53:29.000Z</time>
      </trkpt>
      <trkpt lat="47.32391" lon="-1.31181">
        <ele>62</ele>
        <time>2020-10-17T10:53:31.000Z</time>
      </trkpt>
      <trkpt lat="47.32396" lon="-1.31165">
        <ele>62</ele>
        <time>2020-10-17T10:53:33.000Z</time>
      </trkpt>
      <trkpt lat="47.32401" lon="-1.31148">
        <ele>62</ele>
        <time>2020-10-17T10:53:35.000Z</time>
      </trkpt>
      <trkpt lat="47.32407" lon="-1.31131">
        <ele>61</ele>
        <time>2020-10-17T10:53:37.000Z</time>
      </trkpt>
      <trkpt lat="47.32412" lon="-1.31115">
        <ele>61</ele>
        <time>2020-10-17T10:53:39.000Z</time>
      </trkpt>
      <trkpt lat="47.32417" lon="-1.31099">
        <ele>62</ele>
        <time>2020-10-17T10:53:41.000Z</time>
      </trkpt>
      <trkpt lat="47.32421" lon="-1.31084">
        <ele>62</ele>
        <time>2020-10-17T10:53:43.000Z</time>
      </trkpt>
      <trkpt lat="47.32426" lon="-1.31067">
        <ele>62</ele>
        <time>2020-10-17T10:53:45.000Z</time>
      </trkpt>
      <trkpt lat="47.32431" lon="-1.31051">
        <ele>61</ele>
        <time>2020-10-17T10:53:47.000Z</time>
      </trkpt>
      <trkpt lat="47.32436" lon="-1.31036">
        <ele>61</ele>
        <time>2020-10-17T10:53:49.000Z</time>
      </trkpt>
      <trkpt lat="47.32441" lon="-1.31019">
        <ele>61</ele>
        <time>2020-10-17T10:53:51.000Z</time>
      </trkpt>
      <trkpt lat="47.32445" lon="-1.31001">
        <ele>61</ele>
        <time>2020-10-17T10:53:53.000Z</time>
      </trkpt>
      <trkpt lat="47.32448" lon="-1.30984">
        <ele>61</ele>
        <time>2020-10-17T10:53:55.000Z</time>
      </trkpt>
      <trkpt lat="47.32453" lon="-1.30967">
        <ele>60</ele>
        <time>2020-10-17T10:53:57.000Z</time>
      </trkpt>
      <trkpt lat="47.32458" lon="-1.3095">
        <ele>59</ele>
        <time>2020-10-17T10:53:59.000Z</time>
      </trkpt>
      <trkpt lat="47.32463" lon="-1.30934">
        <ele>59</ele>
        <time>2020-10-17T10:54:01.000Z</time>
      </trkpt>
      <trkpt lat="47.32469" lon="-1.30918">
        <ele>58</ele>
        <time>2020-10-17T10:54:03.000Z</time>
      </trkpt>
      <trkpt lat="47.32475" lon="-1.30901">
        <ele>58</ele>
        <time>2020-10-17T10:54:05.000Z</time>
      </trkpt>
      <trkpt lat="47.32481" lon="-1.30886">
        <ele>58</ele>
        <time>2020-10-17T10:54:07.000Z</time>
      </trkpt>
      <trkpt lat="47.32488" lon="-1.30869">
        <ele>58</ele>
        <time>2020-10-17T10:54:09.000Z</time>
      </trkpt>
      <trkpt lat="47.32493" lon="-1.30852">
        <ele>58</ele>
        <time>2020-10-17T10:54:11.000Z</time>
      </trkpt>
      <trkpt lat="47.32498" lon="-1.30836">
        <ele>57</ele>
        <time>2020-10-17T10:54:13.000Z</time>
      </trkpt>
      <trkpt lat="47.32504" lon="-1.3082">
        <ele>56</ele>
        <time>2020-10-17T10:54:15.000Z</time>
      </trkpt>
      <trkpt lat="47.32511" lon="-1.30805">
        <ele>56</ele>
        <time>2020-10-17T10:54:17.000Z</time>
      </trkpt>
      <trkpt lat="47.32517" lon="-1.3079">
        <ele>56</ele>
        <time>2020-10-17T10:54:19.000Z</time>
      </trkpt>
      <trkpt lat="47.32523" lon="-1.30774">
        <ele>55</ele>
        <time>2020-10-17T10:54:21.000Z</time>
      </trkpt>
      <trkpt lat="47.3253" lon="-1.30759">
        <ele>54</ele>
        <time>2020-10-17T10:54:23.000Z</time>
      </trkpt>
      <trkpt lat="47.32536" lon="-1.30745">
        <ele>54</ele>
        <time>2020-10-17T10:54:25.000Z</time>
      </trkpt>
      <trkpt lat="47.32543" lon="-1.30732">
        <ele>55</ele>
        <time>2020-10-17T10:54:27.000Z</time>
      </trkpt>
      <trkpt lat="47.32549" lon="-1.30716">
        <ele>55</ele>
        <time>2020-10-17T10:54:29.000Z</time>
      </trkpt>
      <trkpt lat="47.32555" lon="-1.30701">
        <ele>55</ele>
        <time>2020-10-17T10:54:31.000Z</time>
      </trkpt>
      <trkpt lat="47.32561" lon="-1.30686">
        <ele>55</ele>
        <time>2020-10-17T10:54:33.000Z</time>
      </trkpt>
      <trkpt lat="47.32567" lon="-1.30671">
        <ele>56</ele>
        <time>2020-10-17T10:54:35.000Z</time>
      </trkpt>
      <trkpt lat="47.32574" lon="-1.30656">
        <ele>56</ele>
        <time>2020-10-17T10:54:37.000Z</time>
      </trkpt>
      <trkpt lat="47.3258" lon="-1.3064">
        <ele>56</ele>
        <time>2020-10-17T10:54:39.000Z</time>
      </trkpt>
      <trkpt lat="47.32587" lon="-1.30625">
        <ele>56</ele>
        <time>2020-10-17T10:54:41.000Z</time>
      </trkpt>
      <trkpt lat="47.32594" lon="-1.30609">
        <ele>55</ele>
        <time>2020-10-17T10:54:43.000Z</time>
      </trkpt>
      <trkpt lat="47.32602" lon="-1.30594">
        <ele>55</ele>
        <time>2020-10-17T10:54:45.000Z</time>
      </trkpt>
      <trkpt lat="47.32608" lon="-1.30578">
        <ele>55</ele>
        <time>2020-10-17T10:54:47.000Z</time>
      </trkpt>
      <trkpt lat="47.32615" lon="-1.30562">
        <ele>55</ele>
        <time>2020-10-17T10:54:49.000Z</time>
      </trkpt>
      <trkpt lat="47.32623" lon="-1.30547">
        <ele>55</ele>
        <time>2020-10-17T10:54:51.000Z</time>
      </trkpt>
      <trkpt lat="47.3263" lon="-1.30531">
        <ele>55</ele>
        <time>2020-10-17T10:54:53.000Z</time>
      </trkpt>
      <trkpt lat="47.32637" lon="-1.30516">
        <ele>56</ele>
        <time>2020-10-17T10:54:55.000Z</time>
      </trkpt>
      <trkpt lat="47.32643" lon="-1.30502">
        <ele>56</ele>
        <time>2020-10-17T10:54:57.000Z</time>
      </trkpt>
      <trkpt lat="47.3265" lon="-1.30487">
        <ele>56</ele>
        <time>2020-10-17T10:54:59.000Z</time>
      </trkpt>
      <trkpt lat="47.32657" lon="-1.30473">
        <ele>56</ele>
        <time>2020-10-17T10:55:01.000Z</time>
      </trkpt>
      <trkpt lat="47.32664" lon="-1.30458">
        <ele>56</ele>
        <time>2020-10-17T10:55:03.000Z</time>
      </trkpt>
      <trkpt lat="47.32671" lon="-1.30442">
        <ele>56</ele>
        <time>2020-10-17T10:55:05.000Z</time>
      </trkpt>
      <trkpt lat="47.32677" lon="-1.30426">
        <ele>56</ele>
        <time>2020-10-17T10:55:07.000Z</time>
      </trkpt>
      <trkpt lat="47.32681" lon="-1.30408">
        <ele>55</ele>
        <time>2020-10-17T10:55:09.000Z</time>
      </trkpt>
      <trkpt lat="47.32684" lon="-1.30389">
        <ele>56</ele>
        <time>2020-10-17T10:55:11.000Z</time>
      </trkpt>
      <trkpt lat="47.32682" lon="-1.30372">
        <ele>56</ele>
        <time>2020-10-17T10:55:13.000Z</time>
      </trkpt>
      <trkpt lat="47.32678" lon="-1.30355">
        <ele>56</ele>
        <time>2020-10-17T10:55:15.000Z</time>
      </trkpt>
      <trkpt lat="47.32672" lon="-1.3034">
        <ele>56</ele>
        <time>2020-10-17T10:55:17.000Z</time>
      </trkpt>
      <trkpt lat="47.32666" lon="-1.30326">
        <ele>56</ele>
        <time>2020-10-17T10:55:19.000Z</time>
      </trkpt>
      <trkpt lat="47.3266" lon="-1.30312">
        <ele>56</ele>
        <time>2020-10-17T10:55:21.000Z</time>
      </trkpt>
      <trkpt lat="47.32654" lon="-1.30298">
        <ele>56</ele>
        <time>2020-10-17T10:55:23.000Z</time>
      </trkpt>
      <trkpt lat="47.32647" lon="-1.30283">
        <ele>56</ele>
        <time>2020-10-17T10:55:25.000Z</time>
      </trkpt>
      <trkpt lat="47.32641" lon="-1.30269">
        <ele>56</ele>
        <time>2020-10-17T10:55:27.000Z</time>
      </trkpt>
      <trkpt lat="47.32637" lon="-1.30254">
        <ele>56</ele>
        <time>2020-10-17T10:55:29.000Z</time>
      </trkpt>
      <trkpt lat="47.32642" lon="-1.3024">
        <ele>55</ele>
        <time>2020-10-17T10:55:31.000Z</time>
      </trkpt>
      <trkpt lat="47.32651" lon="-1.30227">
        <ele>55</ele>
        <time>2020-10-17T10:55:33.000Z</time>
      </trkpt>
      <trkpt lat="47.32659" lon="-1.30212">
        <ele>56</ele>
        <time>2020-10-17T10:55:35.000Z</time>
      </trkpt>
      <trkpt lat="47.32668" lon="-1.30199">
        <ele>57</ele>
        <time>2020-10-17T10:55:37.000Z</time>
      </trkpt>
      <trkpt lat="47.32675" lon="-1.30186">
        <ele>57</ele>
        <time>2020-10-17T10:55:39.000Z</time>
      </trkpt>
      <trkpt lat="47.32683" lon="-1.30174">
        <ele>56</ele>
        <time>2020-10-17T10:55:41.000Z</time>
      </trkpt>
      <trkpt lat="47.3269" lon="-1.30162">
        <ele>56</ele>
        <time>2020-10-17T10:55:43.000Z</time>
      </trkpt>
      <trkpt lat="47.32698" lon="-1.3015">
        <ele>56</ele>
        <time>2020-10-17T10:55:45.000Z</time>
      </trkpt>
      <trkpt lat="47.32706" lon="-1.30137">
        <ele>56</ele>
        <time>2020-10-17T10:55:47.000Z</time>
      </trkpt>
      <trkpt lat="47.32714" lon="-1.30124">
        <ele>56</ele>
        <time>2020-10-17T10:55:49.000Z</time>
      </trkpt>
      <trkpt lat="47.32723" lon="-1.30111">
        <ele>55</ele>
        <time>2020-10-17T10:55:51.000Z</time>
      </trkpt>
      <trkpt lat="47.32731" lon="-1.30098">
        <ele>54</ele>
        <time>2020-10-17T10:55:53.000Z</time>
      </trkpt>
      <trkpt lat="47.32738" lon="-1.30083">
        <ele>55</ele>
        <time>2020-10-17T10:55:55.000Z</time>
      </trkpt>
      <trkpt lat="47.32745" lon="-1.30069">
        <ele>55</ele>
        <time>2020-10-17T10:55:57.000Z</time>
      </trkpt>
      <trkpt lat="47.32752" lon="-1.30056">
        <ele>55</ele>
        <time>2020-10-17T10:55:59.000Z</time>
      </trkpt>
      <trkpt lat="47.32759" lon="-1.30041">
        <ele>55</ele>
        <time>2020-10-17T10:56:01.000Z</time>
      </trkpt>
      <trkpt lat="47.32766" lon="-1.30027">
        <ele>55</ele>
        <time>2020-10-17T10:56:03.000Z</time>
      </trkpt>
      <trkpt lat="47.32772" lon="-1.30013">
        <ele>55</ele>
        <time>2020-10-17T10:56:05.000Z</time>
      </trkpt>
      <trkpt lat="47.32779" lon="-1.29999">
        <ele>55</ele>
        <time>2020-10-17T10:56:07.000Z</time>
      </trkpt>
      <trkpt lat="47.32787" lon="-1.29985">
        <ele>55</ele>
        <time>2020-10-17T10:56:09.000Z</time>
      </trkpt>
      <trkpt lat="47.32794" lon="-1.29971">
        <ele>56</ele>
        <time>2020-10-17T10:56:11.000Z</time>
      </trkpt>
      <trkpt lat="47.328" lon="-1.29957">
        <ele>56</ele>
        <time>2020-10-17T10:56:13.000Z</time>
      </trkpt>
      <trkpt lat="47.32807" lon="-1.29943">
        <ele>55</ele>
        <time>2020-10-17T10:56:15.000Z</time>
      </trkpt>
      <trkpt lat="47.32815" lon="-1.29929">
        <ele>55</ele>
        <time>2020-10-17T10:56:17.000Z</time>
      </trkpt>
      <trkpt lat="47.32821" lon="-1.29915">
        <ele>55</ele>
        <time>2020-10-17T10:56:19.000Z</time>
      </trkpt>
      <trkpt lat="47.32828" lon="-1.29902">
        <ele>55</ele>
        <time>2020-10-17T10:56:21.000Z</time>
      </trkpt>
      <trkpt lat="47.32836" lon="-1.29888">
        <ele>56</ele>
        <time>2020-10-17T10:56:23.000Z</time>
      </trkpt>
      <trkpt lat="47.32844" lon="-1.29875">
        <ele>56</ele>
        <time>2020-10-17T10:56:25.000Z</time>
      </trkpt>
      <trkpt lat="47.32851" lon="-1.29862">
        <ele>55</ele>
        <time>2020-10-17T10:56:27.000Z</time>
      </trkpt>
      <trkpt lat="47.32859" lon="-1.29848">
        <ele>56</ele>
        <time>2020-10-17T10:56:29.000Z</time>
      </trkpt>
      <trkpt lat="47.32867" lon="-1.29834">
        <ele>55</ele>
        <time>2020-10-17T10:56:31.000Z</time>
      </trkpt>
      <trkpt lat="47.32875" lon="-1.2982">
        <ele>55</ele>
        <time>2020-10-17T10:56:33.000Z</time>
      </trkpt>
      <trkpt lat="47.32883" lon="-1.29807">
        <ele>56</ele>
        <time>2020-10-17T10:56:35.000Z</time>
      </trkpt>
      <trkpt lat="47.32891" lon="-1.29794">
        <ele>56</ele>
        <time>2020-10-17T10:56:37.000Z</time>
      </trkpt>
      <trkpt lat="47.32899" lon="-1.29782">
        <ele>57</ele>
        <time>2020-10-17T10:56:39.000Z</time>
      </trkpt>
      <trkpt lat="47.32906" lon="-1.29768">
        <ele>57</ele>
        <time>2020-10-17T10:56:41.000Z</time>
      </trkpt>
      <trkpt lat="47.32914" lon="-1.29754">
        <ele>57</ele>
        <time>2020-10-17T10:56:43.000Z</time>
      </trkpt>
      <trkpt lat="47.3292" lon="-1.2974">
        <ele>58</ele>
        <time>2020-10-17T10:56:45.000Z</time>
      </trkpt>
      <trkpt lat="47.32928" lon="-1.29726">
        <ele>58</ele>
        <time>2020-10-17T10:56:47.000Z</time>
      </trkpt>
      <trkpt lat="47.32935" lon="-1.29713">
        <ele>58</ele>
        <time>2020-10-17T10:56:49.000Z</time>
      </trkpt>
      <trkpt lat="47.32943" lon="-1.29699">
        <ele>58</ele>
        <time>2020-10-17T10:56:51.000Z</time>
      </trkpt>
      <trkpt lat="47.32951" lon="-1.29686">
        <ele>58</ele>
        <time>2020-10-17T10:56:53.000Z</time>
      </trkpt>
      <trkpt lat="47.32959" lon="-1.29673">
        <ele>59</ele>
        <time>2020-10-17T10:56:55.000Z</time>
      </trkpt>
      <trkpt lat="47.32967" lon="-1.29661">
        <ele>58</ele>
        <time>2020-10-17T10:56:57.000Z</time>
      </trkpt>
      <trkpt lat="47.32976" lon="-1.29648">
        <ele>58</ele>
        <time>2020-10-17T10:56:59.000Z</time>
      </trkpt>
      <trkpt lat="47.32985" lon="-1.29635">
        <ele>58</ele>
        <time>2020-10-17T10:57:01.000Z</time>
      </trkpt>
      <trkpt lat="47.32993" lon="-1.29621">
        <ele>57</ele>
        <time>2020-10-17T10:57:03.000Z</time>
      </trkpt>
      <trkpt lat="47.33001" lon="-1.29607">
        <ele>57</ele>
        <time>2020-10-17T10:57:05.000Z</time>
      </trkpt>
      <trkpt lat="47.33008" lon="-1.29593">
        <ele>57</ele>
        <time>2020-10-17T10:57:07.000Z</time>
      </trkpt>
      <trkpt lat="47.33016" lon="-1.29579">
        <ele>57</ele>
        <time>2020-10-17T10:57:09.000Z</time>
      </trkpt>
      <trkpt lat="47.33023" lon="-1.29565">
        <ele>57</ele>
        <time>2020-10-17T10:57:11.000Z</time>
      </trkpt>
      <trkpt lat="47.3303" lon="-1.2955">
        <ele>57</ele>
        <time>2020-10-17T10:57:13.000Z</time>
      </trkpt>
      <trkpt lat="47.33037" lon="-1.29536">
        <ele>57</ele>
        <time>2020-10-17T10:57:15.000Z</time>
      </trkpt>
      <trkpt lat="47.33046" lon="-1.29523">
        <ele>56</ele>
        <time>2020-10-17T10:57:17.000Z</time>
      </trkpt>
      <trkpt lat="47.33054" lon="-1.29509">
        <ele>56</ele>
        <time>2020-10-17T10:57:19.000Z</time>
      </trkpt>
      <trkpt lat="47.33062" lon="-1.29496">
        <ele>56</ele>
        <time>2020-10-17T10:57:21.000Z</time>
      </trkpt>
      <trkpt lat="47.3307" lon="-1.29484">
        <ele>57</ele>
        <time>2020-10-17T10:57:23.000Z</time>
      </trkpt>
      <trkpt lat="47.33079" lon="-1.29471">
        <ele>57</ele>
        <time>2020-10-17T10:57:25.000Z</time>
      </trkpt>
      <trkpt lat="47.33087" lon="-1.2946">
        <ele>57</ele>
        <time>2020-10-17T10:57:27.000Z</time>
      </trkpt>
      <trkpt lat="47.33096" lon="-1.29448">
        <ele>57</ele>
        <time>2020-10-17T10:57:29.000Z</time>
      </trkpt>
      <trkpt lat="47.33104" lon="-1.29437">
        <ele>57</ele>
        <time>2020-10-17T10:57:31.000Z</time>
      </trkpt>
      <trkpt lat="47.33112" lon="-1.29425">
        <ele>57</ele>
        <time>2020-10-17T10:57:33.000Z</time>
      </trkpt>
      <trkpt lat="47.33121" lon="-1.29412">
        <ele>57</ele>
        <time>2020-10-17T10:57:35.000Z</time>
      </trkpt>
      <trkpt lat="47.33129" lon="-1.294">
        <ele>57</ele>
        <time>2020-10-17T10:57:37.000Z</time>
      </trkpt>
      <trkpt lat="47.33137" lon="-1.29387">
        <ele>57</ele>
        <time>2020-10-17T10:57:39.000Z</time>
      </trkpt>
      <trkpt lat="47.33145" lon="-1.29375">
        <ele>57</ele>
        <time>2020-10-17T10:57:41.000Z</time>
      </trkpt>
      <trkpt lat="47.33151" lon="-1.29361">
        <ele>58</ele>
        <time>2020-10-17T10:57:43.000Z</time>
      </trkpt>
      <trkpt lat="47.33149" lon="-1.29347">
        <ele>58</ele>
        <time>2020-10-17T10:57:45.000Z</time>
      </trkpt>
      <trkpt lat="47.33139" lon="-1.29337">
        <ele>59</ele>
        <time>2020-10-17T10:57:47.000Z</time>
      </trkpt>
      <trkpt lat="47.3313" lon="-1.29328">
        <ele>60</ele>
        <time>2020-10-17T10:57:49.000Z</time>
      </trkpt>
      <trkpt lat="47.33125" lon="-1.29317">
        <ele>59</ele>
        <time>2020-10-17T10:57:51.000Z</time>
      </trkpt>
      <trkpt lat="47.33122" lon="-1.29302">
        <ele>59</ele>
        <time>2020-10-17T10:57:53.000Z</time>
      </trkpt>
      <trkpt lat="47.33123" lon="-1.29287">
        <ele>59</ele>
        <time>2020-10-17T10:57:55.000Z</time>
      </trkpt>
      <trkpt lat="47.33129" lon="-1.2927">
        <ele>59</ele>
        <time>2020-10-17T10:57:58.000Z</time>
      </trkpt>
      <trkpt lat="47.33136" lon="-1.29255">
        <ele>60</ele>
        <time>2020-10-17T10:58:01.000Z</time>
      </trkpt>
      <trkpt lat="47.33145" lon="-1.29244">
        <ele>61</ele>
        <time>2020-10-17T10:58:03.000Z</time>
      </trkpt>
      <trkpt lat="47.33151" lon="-1.2923">
        <ele>61</ele>
        <time>2020-10-17T10:58:05.000Z</time>
      </trkpt>
      <trkpt lat="47.33159" lon="-1.2922">
        <ele>60</ele>
        <time>2020-10-17T10:58:07.000Z</time>
      </trkpt>
      <trkpt lat="47.33167" lon="-1.29214">
        <ele>61</ele>
        <time>2020-10-17T10:58:09.000Z</time>
      </trkpt>
      <trkpt lat="47.3317" lon="-1.29197">
        <ele>61</ele>
        <time>2020-10-17T10:58:11.000Z</time>
      </trkpt>
      <trkpt lat="47.3317" lon="-1.29179">
        <ele>61</ele>
        <time>2020-10-17T10:58:13.000Z</time>
      </trkpt>
      <trkpt lat="47.33176" lon="-1.29166">
        <ele>60</ele>
        <time>2020-10-17T10:58:15.000Z</time>
      </trkpt>
      <trkpt lat="47.33185" lon="-1.29157">
        <ele>60</ele>
        <time>2020-10-17T10:58:17.000Z</time>
      </trkpt>
      <trkpt lat="47.33195" lon="-1.29148">
        <ele>60</ele>
        <time>2020-10-17T10:58:19.000Z</time>
      </trkpt>
      <trkpt lat="47.33206" lon="-1.29146">
        <ele>59</ele>
        <time>2020-10-17T10:58:21.000Z</time>
      </trkpt>
      <trkpt lat="47.33219" lon="-1.29152">
        <ele>58</ele>
        <time>2020-10-17T10:58:23.000Z</time>
      </trkpt>
      <trkpt lat="47.33232" lon="-1.29159">
        <ele>57</ele>
        <time>2020-10-17T10:58:25.000Z</time>
      </trkpt>
      <trkpt lat="47.33246" lon="-1.29166">
        <ele>56</ele>
        <time>2020-10-17T10:58:27.000Z</time>
      </trkpt>
      <trkpt lat="47.33259" lon="-1.29174">
        <ele>56</ele>
        <time>2020-10-17T10:58:29.000Z</time>
      </trkpt>
      <trkpt lat="47.33272" lon="-1.29182">
        <ele>58</ele>
        <time>2020-10-17T10:58:31.000Z</time>
      </trkpt>
      <trkpt lat="47.33284" lon="-1.2919">
        <ele>59</ele>
        <time>2020-10-17T10:58:33.000Z</time>
      </trkpt>
      <trkpt lat="47.33295" lon="-1.292">
        <ele>59</ele>
        <time>2020-10-17T10:58:35.000Z</time>
      </trkpt>
      <trkpt lat="47.33306" lon="-1.29209">
        <ele>58</ele>
        <time>2020-10-17T10:58:37.000Z</time>
      </trkpt>
      <trkpt lat="47.33317" lon="-1.29219">
        <ele>59</ele>
        <time>2020-10-17T10:58:39.000Z</time>
      </trkpt>
      <trkpt lat="47.33328" lon="-1.29228">
        <ele>59</ele>
        <time>2020-10-17T10:58:41.000Z</time>
      </trkpt>
      <trkpt lat="47.33338" lon="-1.29237">
        <ele>59</ele>
        <time>2020-10-17T10:58:43.000Z</time>
      </trkpt>
      <trkpt lat="47.33348" lon="-1.29246">
        <ele>59</ele>
        <time>2020-10-17T10:58:45.000Z</time>
      </trkpt>
      <trkpt lat="47.33358" lon="-1.29258">
        <ele>58</ele>
        <time>2020-10-17T10:58:47.000Z</time>
      </trkpt>
      <trkpt lat="47.33365" lon="-1.29271">
        <ele>58</ele>
        <time>2020-10-17T10:58:49.000Z</time>
      </trkpt>
      <trkpt lat="47.33373" lon="-1.29284">
        <ele>57</ele>
        <time>2020-10-17T10:58:51.000Z</time>
      </trkpt>
      <trkpt lat="47.3338" lon="-1.29297">
        <ele>58</ele>
        <time>2020-10-17T10:58:53.000Z</time>
      </trkpt>
      <trkpt lat="47.33387" lon="-1.29309">
        <ele>58</ele>
        <time>2020-10-17T10:58:55.000Z</time>
      </trkpt>
      <trkpt lat="47.33394" lon="-1.29323">
        <ele>57</ele>
        <time>2020-10-17T10:58:57.000Z</time>
      </trkpt>
      <trkpt lat="47.334" lon="-1.29337">
        <ele>57</ele>
        <time>2020-10-17T10:58:59.000Z</time>
      </trkpt>
      <trkpt lat="47.33405" lon="-1.2935">
        <ele>57</ele>
        <time>2020-10-17T10:59:01.000Z</time>
      </trkpt>
      <trkpt lat="47.33408" lon="-1.29366">
        <ele>57</ele>
        <time>2020-10-17T10:59:04.000Z</time>
      </trkpt>
      <trkpt lat="47.33413" lon="-1.29381">
        <ele>58</ele>
        <time>2020-10-17T10:59:07.000Z</time>
      </trkpt>
      <trkpt lat="47.33422" lon="-1.29386">
        <ele>58</ele>
        <time>2020-10-17T10:59:09.000Z</time>
      </trkpt>
      <trkpt lat="47.33433" lon="-1.29392">
        <ele>58</ele>
        <time>2020-10-17T10:59:11.000Z</time>
      </trkpt>
      <trkpt lat="47.33443" lon="-1.29401">
        <ele>57</ele>
        <time>2020-10-17T10:59:13.000Z</time>
      </trkpt>
      <trkpt lat="47.33454" lon="-1.2941">
        <ele>57</ele>
        <time>2020-10-17T10:59:15.000Z</time>
      </trkpt>
      <trkpt lat="47.33464" lon="-1.29418">
        <ele>57</ele>
        <time>2020-10-17T10:59:17.000Z</time>
      </trkpt>
      <trkpt lat="47.33474" lon="-1.29425">
        <ele>57</ele>
        <time>2020-10-17T10:59:19.000Z</time>
      </trkpt>
      <trkpt lat="47.33485" lon="-1.29434">
        <ele>57</ele>
        <time>2020-10-17T10:59:21.000Z</time>
      </trkpt>
      <trkpt lat="47.33495" lon="-1.29442">
        <ele>57</ele>
        <time>2020-10-17T10:59:23.000Z</time>
      </trkpt>
      <trkpt lat="47.33505" lon="-1.2945">
        <ele>57</ele>
        <time>2020-10-17T10:59:25.000Z</time>
      </trkpt>
      <trkpt lat="47.33516" lon="-1.29459">
        <ele>56</ele>
        <time>2020-10-17T10:59:27.000Z</time>
      </trkpt>
      <trkpt lat="47.33527" lon="-1.29468">
        <ele>56</ele>
        <time>2020-10-17T10:59:29.000Z</time>
      </trkpt>
      <trkpt lat="47.33538" lon="-1.29478">
        <ele>57</ele>
        <time>2020-10-17T10:59:31.000Z</time>
      </trkpt>
      <trkpt lat="47.33548" lon="-1.29486">
        <ele>57</ele>
        <time>2020-10-17T10:59:33.000Z</time>
      </trkpt>
      <trkpt lat="47.33558" lon="-1.29494">
        <ele>57</ele>
        <time>2020-10-17T10:59:35.000Z</time>
      </trkpt>
      <trkpt lat="47.33569" lon="-1.29504">
        <ele>56</ele>
        <time>2020-10-17T10:59:37.000Z</time>
      </trkpt>
      <trkpt lat="47.33579" lon="-1.29512">
        <ele>57</ele>
        <time>2020-10-17T10:59:39.000Z</time>
      </trkpt>
      <trkpt lat="47.3359" lon="-1.2952">
        <ele>57</ele>
        <time>2020-10-17T10:59:41.000Z</time>
      </trkpt>
      <trkpt lat="47.336" lon="-1.29529">
        <ele>57</ele>
        <time>2020-10-17T10:59:43.000Z</time>
      </trkpt>
      <trkpt lat="47.3361" lon="-1.29537">
        <ele>57</ele>
        <time>2020-10-17T10:59:45.000Z</time>
      </trkpt>
      <trkpt lat="47.3362" lon="-1.29545">
        <ele>57</ele>
        <time>2020-10-17T10:59:47.000Z</time>
      </trkpt>
      <trkpt lat="47.33632" lon="-1.29548">
        <ele>58</ele>
        <time>2020-10-17T10:59:49.000Z</time>
      </trkpt>
      <trkpt lat="47.33643" lon="-1.29543">
        <ele>58</ele>
        <time>2020-10-17T10:59:51.000Z</time>
      </trkpt>
      <trkpt lat="47.33648" lon="-1.29528">
        <ele>58</ele>
        <time>2020-10-17T10:59:53.000Z</time>
      </trkpt>
      <trkpt lat="47.33651" lon="-1.2951">
        <ele>58</ele>
        <time>2020-10-17T10:59:55.000Z</time>
      </trkpt>
      <trkpt lat="47.33655" lon="-1.29492">
        <ele>57</ele>
        <time>2020-10-17T10:59:57.000Z</time>
      </trkpt>
      <trkpt lat="47.33658" lon="-1.29474">
        <ele>57</ele>
        <time>2020-10-17T10:59:59.000Z</time>
      </trkpt>
      <trkpt lat="47.3366" lon="-1.29457">
        <ele>57</ele>
        <time>2020-10-17T11:00:01.000Z</time>
      </trkpt>
      <trkpt lat="47.33666" lon="-1.29442">
        <ele>57</ele>
        <time>2020-10-17T11:00:03.000Z</time>
      </trkpt>
      <trkpt lat="47.33673" lon="-1.29426">
        <ele>58</ele>
        <time>2020-10-17T11:00:05.000Z</time>
      </trkpt>
      <trkpt lat="47.3368" lon="-1.2941">
        <ele>58</ele>
        <time>2020-10-17T11:00:07.000Z</time>
      </trkpt>
      <trkpt lat="47.33687" lon="-1.29392">
        <ele>58</ele>
        <time>2020-10-17T11:00:09.000Z</time>
      </trkpt>
      <trkpt lat="47.33693" lon="-1.29373">
        <ele>58</ele>
        <time>2020-10-17T11:00:11.000Z</time>
      </trkpt>
      <trkpt lat="47.33699" lon="-1.29356">
        <ele>58</ele>
        <time>2020-10-17T11:00:13.000Z</time>
      </trkpt>
      <trkpt lat="47.33704" lon="-1.29338">
        <ele>58</ele>
        <time>2020-10-17T11:00:15.000Z</time>
      </trkpt>
      <trkpt lat="47.33709" lon="-1.2932">
        <ele>57</ele>
        <time>2020-10-17T11:00:17.000Z</time>
      </trkpt>
      <trkpt lat="47.33714" lon="-1.29303">
        <ele>56</ele>
        <time>2020-10-17T11:00:19.000Z</time>
      </trkpt>
      <trkpt lat="47.33719" lon="-1.29285">
        <ele>56</ele>
        <time>2020-10-17T11:00:21.000Z</time>
      </trkpt>
      <trkpt lat="47.33724" lon="-1.29268">
        <ele>56</ele>
        <time>2020-10-17T11:00:23.000Z</time>
      </trkpt>
      <trkpt lat="47.33729" lon="-1.2925">
        <ele>55</ele>
        <time>2020-10-17T11:00:25.000Z</time>
      </trkpt>
      <trkpt lat="47.33732" lon="-1.29232">
        <ele>55</ele>
        <time>2020-10-17T11:00:27.000Z</time>
      </trkpt>
      <trkpt lat="47.33736" lon="-1.29214">
        <ele>55</ele>
        <time>2020-10-17T11:00:29.000Z</time>
      </trkpt>
      <trkpt lat="47.33739" lon="-1.29197">
        <ele>55</ele>
        <time>2020-10-17T11:00:31.000Z</time>
      </trkpt>
      <trkpt lat="47.33744" lon="-1.29179">
        <ele>55</ele>
        <time>2020-10-17T11:00:33.000Z</time>
      </trkpt>
      <trkpt lat="47.33748" lon="-1.29161">
        <ele>55</ele>
        <time>2020-10-17T11:00:35.000Z</time>
      </trkpt>
      <trkpt lat="47.33751" lon="-1.29143">
        <ele>55</ele>
        <time>2020-10-17T11:00:37.000Z</time>
      </trkpt>
      <trkpt lat="47.33751" lon="-1.29125">
        <ele>55</ele>
        <time>2020-10-17T11:00:39.000Z</time>
      </trkpt>
      <trkpt lat="47.33751" lon="-1.29107">
        <ele>56</ele>
        <time>2020-10-17T11:00:41.000Z</time>
      </trkpt>
      <trkpt lat="47.33752" lon="-1.29088">
        <ele>57</ele>
        <time>2020-10-17T11:00:43.000Z</time>
      </trkpt>
      <trkpt lat="47.33753" lon="-1.2907">
        <ele>57</ele>
        <time>2020-10-17T11:00:45.000Z</time>
      </trkpt>
      <trkpt lat="47.33752" lon="-1.29052">
        <ele>58</ele>
        <time>2020-10-17T11:00:47.000Z</time>
      </trkpt>
      <trkpt lat="47.33752" lon="-1.29032">
        <ele>57</ele>
        <time>2020-10-17T11:00:49.000Z</time>
      </trkpt>
      <trkpt lat="47.33752" lon="-1.29015">
        <ele>58</ele>
        <time>2020-10-17T11:00:51.000Z</time>
      </trkpt>
      <trkpt lat="47.33752" lon="-1.28998">
        <ele>58</ele>
        <time>2020-10-17T11:00:53.000Z</time>
      </trkpt>
      <trkpt lat="47.33752" lon="-1.28981">
        <ele>59</ele>
        <time>2020-10-17T11:00:55.000Z</time>
      </trkpt>
      <trkpt lat="47.33752" lon="-1.28964">
        <ele>58</ele>
        <time>2020-10-17T11:00:57.000Z</time>
      </trkpt>
      <trkpt lat="47.33752" lon="-1.28946">
        <ele>59</ele>
        <time>2020-10-17T11:00:59.000Z</time>
      </trkpt>
      <trkpt lat="47.33754" lon="-1.28928">
        <ele>58</ele>
        <time>2020-10-17T11:01:01.000Z</time>
      </trkpt>
      <trkpt lat="47.33758" lon="-1.28911">
        <ele>59</ele>
        <time>2020-10-17T11:01:03.000Z</time>
      </trkpt>
      <trkpt lat="47.33765" lon="-1.28897">
        <ele>59</ele>
        <time>2020-10-17T11:01:05.000Z</time>
      </trkpt>
      <trkpt lat="47.33769" lon="-1.28879">
        <ele>59</ele>
        <time>2020-10-17T11:01:07.000Z</time>
      </trkpt>
      <trkpt lat="47.3377" lon="-1.28859">
        <ele>59</ele>
        <time>2020-10-17T11:01:09.000Z</time>
      </trkpt>
      <trkpt lat="47.33769" lon="-1.28841">
        <ele>60</ele>
        <time>2020-10-17T11:01:11.000Z</time>
      </trkpt>
      <trkpt lat="47.33769" lon="-1.28822">
        <ele>60</ele>
        <time>2020-10-17T11:01:13.000Z</time>
      </trkpt>
      <trkpt lat="47.33769" lon="-1.28804">
        <ele>59</ele>
        <time>2020-10-17T11:01:15.000Z</time>
      </trkpt>
      <trkpt lat="47.33771" lon="-1.28786">
        <ele>59</ele>
        <time>2020-10-17T11:01:17.000Z</time>
      </trkpt>
      <trkpt lat="47.33773" lon="-1.28768">
        <ele>59</ele>
        <time>2020-10-17T11:01:19.000Z</time>
      </trkpt>
      <trkpt lat="47.33774" lon="-1.2875">
        <ele>58</ele>
        <time>2020-10-17T11:01:21.000Z</time>
      </trkpt>
      <trkpt lat="47.33775" lon="-1.28731">
        <ele>59</ele>
        <time>2020-10-17T11:01:23.000Z</time>
      </trkpt>
      <trkpt lat="47.33776" lon="-1.28713">
        <ele>59</ele>
        <time>2020-10-17T11:01:25.000Z</time>
      </trkpt>
      <trkpt lat="47.33778" lon="-1.28694">
        <ele>59</ele>
        <time>2020-10-17T11:01:27.000Z</time>
      </trkpt>
      <trkpt lat="47.33782" lon="-1.28679">
        <ele>60</ele>
        <time>2020-10-17T11:01:29.000Z</time>
      </trkpt>
      <trkpt lat="47.33787" lon="-1.28662">
        <ele>60</ele>
        <time>2020-10-17T11:01:31.000Z</time>
      </trkpt>
      <trkpt lat="47.33789" lon="-1.28644">
        <ele>60</ele>
        <time>2020-10-17T11:01:33.000Z</time>
      </trkpt>
      <trkpt lat="47.33792" lon="-1.28624">
        <ele>61</ele>
        <time>2020-10-17T11:01:35.000Z</time>
      </trkpt>
      <trkpt lat="47.33795" lon="-1.28607">
        <ele>61</ele>
        <time>2020-10-17T11:01:37.000Z</time>
      </trkpt>
      <trkpt lat="47.33801" lon="-1.28593">
        <ele>61</ele>
        <time>2020-10-17T11:01:39.000Z</time>
      </trkpt>
      <trkpt lat="47.33808" lon="-1.28583">
        <ele>61</ele>
        <time>2020-10-17T11:01:41.000Z</time>
      </trkpt>
      <trkpt lat="47.33812" lon="-1.28571">
        <ele>61</ele>
        <time>2020-10-17T11:01:43.000Z</time>
      </trkpt>
      <trkpt lat="47.33807" lon="-1.28557">
        <ele>61</ele>
        <time>2020-10-17T11:01:45.000Z</time>
      </trkpt>
      <trkpt lat="47.338" lon="-1.28543">
        <ele>62</ele>
        <time>2020-10-17T11:01:47.000Z</time>
      </trkpt>
      <trkpt lat="47.33798" lon="-1.28529">
        <ele>63</ele>
        <time>2020-10-17T11:01:49.000Z</time>
      </trkpt>
      <trkpt lat="47.33801" lon="-1.28512">
        <ele>63</ele>
        <time>2020-10-17T11:01:51.000Z</time>
      </trkpt>
      <trkpt lat="47.33803" lon="-1.28494">
        <ele>62</ele>
        <time>2020-10-17T11:01:53.000Z</time>
      </trkpt>
      <trkpt lat="47.33804" lon="-1.28475">
        <ele>61</ele>
        <time>2020-10-17T11:01:55.000Z</time>
      </trkpt>
      <trkpt lat="47.33806" lon="-1.28455">
        <ele>61</ele>
        <time>2020-10-17T11:01:57.000Z</time>
      </trkpt>
      <trkpt lat="47.33807" lon="-1.28435">
        <ele>60</ele>
        <time>2020-10-17T11:01:59.000Z</time>
      </trkpt>
      <trkpt lat="47.33809" lon="-1.28417">
        <ele>60</ele>
        <time>2020-10-17T11:02:01.000Z</time>
      </trkpt>
      <trkpt lat="47.33812" lon="-1.28398">
        <ele>60</ele>
        <time>2020-10-17T11:02:03.000Z</time>
      </trkpt>
      <trkpt lat="47.33814" lon="-1.28381">
        <ele>61</ele>
        <time>2020-10-17T11:02:05.000Z</time>
      </trkpt>
      <trkpt lat="47.33817" lon="-1.28363">
        <ele>62</ele>
        <time>2020-10-17T11:02:07.000Z</time>
      </trkpt>
      <trkpt lat="47.3382" lon="-1.28346">
        <ele>62</ele>
        <time>2020-10-17T11:02:09.000Z</time>
      </trkpt>
      <trkpt lat="47.33823" lon="-1.2833">
        <ele>62</ele>
        <time>2020-10-17T11:02:11.000Z</time>
      </trkpt>
      <trkpt lat="47.33826" lon="-1.28312">
        <ele>62</ele>
        <time>2020-10-17T11:02:13.000Z</time>
      </trkpt>
      <trkpt lat="47.33829" lon="-1.28293">
        <ele>62</ele>
        <time>2020-10-17T11:02:15.000Z</time>
      </trkpt>
      <trkpt lat="47.33833" lon="-1.28276">
        <ele>62</ele>
        <time>2020-10-17T11:02:17.000Z</time>
      </trkpt>
      <trkpt lat="47.33836" lon="-1.28259">
        <ele>61</ele>
        <time>2020-10-17T11:02:19.000Z</time>
      </trkpt>
      <trkpt lat="47.33839" lon="-1.28242">
        <ele>61</ele>
        <time>2020-10-17T11:02:21.000Z</time>
      </trkpt>
      <trkpt lat="47.33841" lon="-1.28224">
        <ele>60</ele>
        <time>2020-10-17T11:02:23.000Z</time>
      </trkpt>
      <trkpt lat="47.33844" lon="-1.28206">
        <ele>59</ele>
        <time>2020-10-17T11:02:25.000Z</time>
      </trkpt>
      <trkpt lat="47.33847" lon="-1.28187">
        <ele>58</ele>
        <time>2020-10-17T11:02:27.000Z</time>
      </trkpt>
      <trkpt lat="47.33849" lon="-1.28169">
        <ele>58</ele>
        <time>2020-10-17T11:02:29.000Z</time>
      </trkpt>
      <trkpt lat="47.3385" lon="-1.28152">
        <ele>58</ele>
        <time>2020-10-17T11:02:31.000Z</time>
      </trkpt>
      <trkpt lat="47.33853" lon="-1.28136">
        <ele>59</ele>
        <time>2020-10-17T11:02:33.000Z</time>
      </trkpt>
      <trkpt lat="47.33855" lon="-1.28119">
        <ele>59</ele>
        <time>2020-10-17T11:02:35.000Z</time>
      </trkpt>
      <trkpt lat="47.33857" lon="-1.28103">
        <ele>59</ele>
        <time>2020-10-17T11:02:37.000Z</time>
      </trkpt>
      <trkpt lat="47.33859" lon="-1.28085">
        <ele>59</ele>
        <time>2020-10-17T11:02:39.000Z</time>
      </trkpt>
      <trkpt lat="47.3386" lon="-1.28066">
        <ele>59</ele>
        <time>2020-10-17T11:02:41.000Z</time>
      </trkpt>
      <trkpt lat="47.33863" lon="-1.28048">
        <ele>58</ele>
        <time>2020-10-17T11:02:43.000Z</time>
      </trkpt>
      <trkpt lat="47.33866" lon="-1.28031">
        <ele>58</ele>
        <time>2020-10-17T11:02:45.000Z</time>
      </trkpt>
      <trkpt lat="47.33868" lon="-1.28012">
        <ele>57</ele>
        <time>2020-10-17T11:02:47.000Z</time>
      </trkpt>
      <trkpt lat="47.33869" lon="-1.27993">
        <ele>57</ele>
        <time>2020-10-17T11:02:49.000Z</time>
      </trkpt>
      <trkpt lat="47.33871" lon="-1.27974">
        <ele>57</ele>
        <time>2020-10-17T11:02:51.000Z</time>
      </trkpt>
      <trkpt lat="47.33871" lon="-1.27956">
        <ele>56</ele>
        <time>2020-10-17T11:02:53.000Z</time>
      </trkpt>
      <trkpt lat="47.33872" lon="-1.27937">
        <ele>56</ele>
        <time>2020-10-17T11:02:55.000Z</time>
      </trkpt>
      <trkpt lat="47.33872" lon="-1.27918">
        <ele>55</ele>
        <time>2020-10-17T11:02:57.000Z</time>
      </trkpt>
      <trkpt lat="47.33874" lon="-1.27901">
        <ele>55</ele>
        <time>2020-10-17T11:02:59.000Z</time>
      </trkpt>
      <trkpt lat="47.33875" lon="-1.27884">
        <ele>54</ele>
        <time>2020-10-17T11:03:01.000Z</time>
      </trkpt>
      <trkpt lat="47.33874" lon="-1.27867">
        <ele>55</ele>
        <time>2020-10-17T11:03:03.000Z</time>
      </trkpt>
      <trkpt lat="47.33875" lon="-1.27851">
        <ele>54</ele>
        <time>2020-10-17T11:03:05.000Z</time>
      </trkpt>
      <trkpt lat="47.33876" lon="-1.27835">
        <ele>54</ele>
        <time>2020-10-17T11:03:07.000Z</time>
      </trkpt>
      <trkpt lat="47.33877" lon="-1.27818">
        <ele>53</ele>
        <time>2020-10-17T11:03:09.000Z</time>
      </trkpt>
      <trkpt lat="47.33877" lon="-1.27804">
        <ele>53</ele>
        <time>2020-10-17T11:03:11.000Z</time>
      </trkpt>
      <trkpt lat="47.33869" lon="-1.27789">
        <ele>54</ele>
        <time>2020-10-17T11:03:14.000Z</time>
      </trkpt>
      <trkpt lat="47.33858" lon="-1.27787">
        <ele>54</ele>
        <time>2020-10-17T11:03:16.000Z</time>
      </trkpt>
      <trkpt lat="47.33847" lon="-1.27783">
        <ele>54</ele>
        <time>2020-10-17T11:03:18.000Z</time>
      </trkpt>
      <trkpt lat="47.33835" lon="-1.2778">
        <ele>53</ele>
        <time>2020-10-17T11:03:20.000Z</time>
      </trkpt>
      <trkpt lat="47.33822" lon="-1.27776">
        <ele>53</ele>
        <time>2020-10-17T11:03:22.000Z</time>
      </trkpt>
      <trkpt lat="47.3381" lon="-1.27772">
        <ele>53</ele>
        <time>2020-10-17T11:03:24.000Z</time>
      </trkpt>
      <trkpt lat="47.33798" lon="-1.27768">
        <ele>52</ele>
        <time>2020-10-17T11:03:26.000Z</time>
      </trkpt>
      <trkpt lat="47.33786" lon="-1.27764">
        <ele>52</ele>
        <time>2020-10-17T11:03:28.000Z</time>
      </trkpt>
      <trkpt lat="47.33775" lon="-1.27759">
        <ele>52</ele>
        <time>2020-10-17T11:03:30.000Z</time>
      </trkpt>
      <trkpt lat="47.33765" lon="-1.27755">
        <ele>52</ele>
        <time>2020-10-17T11:03:32.000Z</time>
      </trkpt>
      <trkpt lat="47.33755" lon="-1.27751">
        <ele>53</ele>
        <time>2020-10-17T11:03:34.000Z</time>
      </trkpt>
      <trkpt lat="47.33746" lon="-1.27749">
        <ele>53</ele>
        <time>2020-10-17T11:03:36.000Z</time>
      </trkpt>
      <trkpt lat="47.33735" lon="-1.27745">
        <ele>54</ele>
        <time>2020-10-17T11:03:39.000Z</time>
      </trkpt>
      <trkpt lat="47.33738" lon="-1.27731">
        <ele>55</ele>
        <time>2020-10-17T11:03:42.000Z</time>
      </trkpt>
      <trkpt lat="47.33748" lon="-1.27724">
        <ele>55</ele>
        <time>2020-10-17T11:03:44.000Z</time>
      </trkpt>
      <trkpt lat="47.33759" lon="-1.27721">
        <ele>55</ele>
        <time>2020-10-17T11:03:46.000Z</time>
      </trkpt>
      <trkpt lat="47.33768" lon="-1.27732">
        <ele>56</ele>
        <time>2020-10-17T11:03:48.000Z</time>
      </trkpt>
      <trkpt lat="47.33778" lon="-1.27741">
        <ele>56</ele>
        <time>2020-10-17T11:03:50.000Z</time>
      </trkpt>
      <trkpt lat="47.3379" lon="-1.27744">
        <ele>56</ele>
        <time>2020-10-17T11:03:52.000Z</time>
      </trkpt>
      <trkpt lat="47.33801" lon="-1.27748">
        <ele>56</ele>
        <time>2020-10-17T11:03:54.000Z</time>
      </trkpt>
      <trkpt lat="47.33812" lon="-1.27751">
        <ele>57</ele>
        <time>2020-10-17T11:03:56.000Z</time>
      </trkpt>
      <trkpt lat="47.33822" lon="-1.27755">
        <ele>57</ele>
        <time>2020-10-17T11:03:58.000Z</time>
      </trkpt>
      <trkpt lat="47.33834" lon="-1.27759">
        <ele>57</ele>
        <time>2020-10-17T11:04:00.000Z</time>
      </trkpt>
      <trkpt lat="47.33844" lon="-1.27763">
        <ele>58</ele>
        <time>2020-10-17T11:04:02.000Z</time>
      </trkpt>
      <trkpt lat="47.33855" lon="-1.27766">
        <ele>58</ele>
        <time>2020-10-17T11:04:04.000Z</time>
      </trkpt>
      <trkpt lat="47.33867" lon="-1.27769">
        <ele>59</ele>
        <time>2020-10-17T11:04:06.000Z</time>
      </trkpt>
      <trkpt lat="47.33878" lon="-1.27773">
        <ele>59</ele>
        <time>2020-10-17T11:04:08.000Z</time>
      </trkpt>
      <trkpt lat="47.33889" lon="-1.27776">
        <ele>60</ele>
        <time>2020-10-17T11:04:10.000Z</time>
      </trkpt>
      <trkpt lat="47.339" lon="-1.2778">
        <ele>60</ele>
        <time>2020-10-17T11:04:12.000Z</time>
      </trkpt>
      <trkpt lat="47.33912" lon="-1.27783">
        <ele>60</ele>
        <time>2020-10-17T11:04:14.000Z</time>
      </trkpt>
      <trkpt lat="47.33923" lon="-1.27787">
        <ele>60</ele>
        <time>2020-10-17T11:04:16.000Z</time>
      </trkpt>
      <trkpt lat="47.33935" lon="-1.2779">
        <ele>60</ele>
        <time>2020-10-17T11:04:18.000Z</time>
      </trkpt>
      <trkpt lat="47.33946" lon="-1.27793">
        <ele>61</ele>
        <time>2020-10-17T11:04:20.000Z</time>
      </trkpt>
      <trkpt lat="47.33957" lon="-1.27797">
        <ele>61</ele>
        <time>2020-10-17T11:04:22.000Z</time>
      </trkpt>
      <trkpt lat="47.33967" lon="-1.27801">
        <ele>61</ele>
        <time>2020-10-17T11:04:24.000Z</time>
      </trkpt>
      <trkpt lat="47.33979" lon="-1.27805">
        <ele>61</ele>
        <time>2020-10-17T11:04:26.000Z</time>
      </trkpt>
      <trkpt lat="47.3399" lon="-1.27809">
        <ele>62</ele>
        <time>2020-10-17T11:04:28.000Z</time>
      </trkpt>
      <trkpt lat="47.34001" lon="-1.27813">
        <ele>62</ele>
        <time>2020-10-17T11:04:30.000Z</time>
      </trkpt>
      <trkpt lat="47.34013" lon="-1.27816">
        <ele>62</ele>
        <time>2020-10-17T11:04:32.000Z</time>
      </trkpt>
      <trkpt lat="47.34024" lon="-1.2782">
        <ele>62</ele>
        <time>2020-10-17T11:04:34.000Z</time>
      </trkpt>
      <trkpt lat="47.34035" lon="-1.27823">
        <ele>62</ele>
        <time>2020-10-17T11:04:36.000Z</time>
      </trkpt>
      <trkpt lat="47.34047" lon="-1.27827">
        <ele>62</ele>
        <time>2020-10-17T11:04:38.000Z</time>
      </trkpt>
      <trkpt lat="47.34058" lon="-1.2783">
        <ele>62</ele>
        <time>2020-10-17T11:04:40.000Z</time>
      </trkpt>
      <trkpt lat="47.34069" lon="-1.27833">
        <ele>62</ele>
        <time>2020-10-17T11:04:42.000Z</time>
      </trkpt>
      <trkpt lat="47.3408" lon="-1.27837">
        <ele>63</ele>
        <time>2020-10-17T11:04:44.000Z</time>
      </trkpt>
      <trkpt lat="47.3409" lon="-1.27841">
        <ele>63</ele>
        <time>2020-10-17T11:04:46.000Z</time>
      </trkpt>
      <trkpt lat="47.34102" lon="-1.27844">
        <ele>63</ele>
        <time>2020-10-17T11:04:48.000Z</time>
      </trkpt>
      <trkpt lat="47.34113" lon="-1.27848">
        <ele>63</ele>
        <time>2020-10-17T11:04:50.000Z</time>
      </trkpt>
      <trkpt lat="47.34124" lon="-1.27851">
        <ele>63</ele>
        <time>2020-10-17T11:04:52.000Z</time>
      </trkpt>
      <trkpt lat="47.34136" lon="-1.27854">
        <ele>64</ele>
        <time>2020-10-17T11:04:54.000Z</time>
      </trkpt>
      <trkpt lat="47.34148" lon="-1.27857">
        <ele>64</ele>
        <time>2020-10-17T11:04:56.000Z</time>
      </trkpt>
      <trkpt lat="47.34159" lon="-1.27861">
        <ele>64</ele>
        <time>2020-10-17T11:04:58.000Z</time>
      </trkpt>
      <trkpt lat="47.3417" lon="-1.27864">
        <ele>64</ele>
        <time>2020-10-17T11:05:00.000Z</time>
      </trkpt>
      <trkpt lat="47.34181" lon="-1.27868">
        <ele>64</ele>
        <time>2020-10-17T11:05:02.000Z</time>
      </trkpt>
      <trkpt lat="47.34193" lon="-1.27872">
        <ele>64</ele>
        <time>2020-10-17T11:05:04.000Z</time>
      </trkpt>
      <trkpt lat="47.34204" lon="-1.27875">
        <ele>64</ele>
        <time>2020-10-17T11:05:06.000Z</time>
      </trkpt>
      <trkpt lat="47.34216" lon="-1.27878">
        <ele>64</ele>
        <time>2020-10-17T11:05:08.000Z</time>
      </trkpt>
      <trkpt lat="47.34228" lon="-1.27882">
        <ele>63</ele>
        <time>2020-10-17T11:05:10.000Z</time>
      </trkpt>
      <trkpt lat="47.34239" lon="-1.27886">
        <ele>63</ele>
        <time>2020-10-17T11:05:12.000Z</time>
      </trkpt>
      <trkpt lat="47.34252" lon="-1.2789">
        <ele>63</ele>
        <time>2020-10-17T11:05:14.000Z</time>
      </trkpt>
      <trkpt lat="47.34264" lon="-1.27894">
        <ele>63</ele>
        <time>2020-10-17T11:05:16.000Z</time>
      </trkpt>
      <trkpt lat="47.34276" lon="-1.27898">
        <ele>62</ele>
        <time>2020-10-17T11:05:18.000Z</time>
      </trkpt>
      <trkpt lat="47.34288" lon="-1.27901">
        <ele>62</ele>
        <time>2020-10-17T11:05:20.000Z</time>
      </trkpt>
      <trkpt lat="47.34299" lon="-1.27905">
        <ele>62</ele>
        <time>2020-10-17T11:05:22.000Z</time>
      </trkpt>
      <trkpt lat="47.34311" lon="-1.27909">
        <ele>62</ele>
        <time>2020-10-17T11:05:24.000Z</time>
      </trkpt>
      <trkpt lat="47.34323" lon="-1.27912">
        <ele>62</ele>
        <time>2020-10-17T11:05:26.000Z</time>
      </trkpt>
      <trkpt lat="47.34335" lon="-1.27916">
        <ele>62</ele>
        <time>2020-10-17T11:05:28.000Z</time>
      </trkpt>
      <trkpt lat="47.34347" lon="-1.2792">
        <ele>62</ele>
        <time>2020-10-17T11:05:30.000Z</time>
      </trkpt>
      <trkpt lat="47.34359" lon="-1.27924">
        <ele>62</ele>
        <time>2020-10-17T11:05:32.000Z</time>
      </trkpt>
      <trkpt lat="47.3437" lon="-1.27928">
        <ele>62</ele>
        <time>2020-10-17T11:05:34.000Z</time>
      </trkpt>
      <trkpt lat="47.34382" lon="-1.27931">
        <ele>62</ele>
        <time>2020-10-17T11:05:36.000Z</time>
      </trkpt>
      <trkpt lat="47.34393" lon="-1.27935">
        <ele>62</ele>
        <time>2020-10-17T11:05:38.000Z</time>
      </trkpt>
      <trkpt lat="47.34405" lon="-1.27939">
        <ele>63</ele>
        <time>2020-10-17T11:05:40.000Z</time>
      </trkpt>
      <trkpt lat="47.34417" lon="-1.27945">
        <ele>63</ele>
        <time>2020-10-17T11:05:42.000Z</time>
      </trkpt>
      <trkpt lat="47.34428" lon="-1.27951">
        <ele>63</ele>
        <time>2020-10-17T11:05:44.000Z</time>
      </trkpt>
      <trkpt lat="47.34438" lon="-1.27958">
        <ele>64</ele>
        <time>2020-10-17T11:05:46.000Z</time>
      </trkpt>
      <trkpt lat="47.34448" lon="-1.27966">
        <ele>65</ele>
        <time>2020-10-17T11:05:48.000Z</time>
      </trkpt>
      <trkpt lat="47.34458" lon="-1.27974">
        <ele>65</ele>
        <time>2020-10-17T11:05:50.000Z</time>
      </trkpt>
      <trkpt lat="47.34467" lon="-1.27984">
        <ele>65</ele>
        <time>2020-10-17T11:05:52.000Z</time>
      </trkpt>
      <trkpt lat="47.34477" lon="-1.27996">
        <ele>65</ele>
        <time>2020-10-17T11:05:54.000Z</time>
      </trkpt>
      <trkpt lat="47.34486" lon="-1.28011">
        <ele>65</ele>
        <time>2020-10-17T11:05:56.000Z</time>
      </trkpt>
      <trkpt lat="47.34494" lon="-1.28027">
        <ele>65</ele>
        <time>2020-10-17T11:05:58.000Z</time>
      </trkpt>
      <trkpt lat="47.34502" lon="-1.28045">
        <ele>65</ele>
        <time>2020-10-17T11:06:00.000Z</time>
      </trkpt>
      <trkpt lat="47.34509" lon="-1.28065">
        <ele>65</ele>
        <time>2020-10-17T11:06:02.000Z</time>
      </trkpt>
      <trkpt lat="47.34515" lon="-1.28086">
        <ele>65</ele>
        <time>2020-10-17T11:06:04.000Z</time>
      </trkpt>
      <trkpt lat="47.3452" lon="-1.28108">
        <ele>64</ele>
        <time>2020-10-17T11:06:06.000Z</time>
      </trkpt>
      <trkpt lat="47.34523" lon="-1.28132">
        <ele>65</ele>
        <time>2020-10-17T11:06:08.000Z</time>
      </trkpt>
      <trkpt lat="47.34525" lon="-1.28156">
        <ele>65</ele>
        <time>2020-10-17T11:06:10.000Z</time>
      </trkpt>
      <trkpt lat="47.34526" lon="-1.28181">
        <ele>64</ele>
        <time>2020-10-17T11:06:12.000Z</time>
      </trkpt>
      <trkpt lat="47.34525" lon="-1.28205">
        <ele>63</ele>
        <time>2020-10-17T11:06:14.000Z</time>
      </trkpt>
      <trkpt lat="47.34523" lon="-1.28229">
        <ele>63</ele>
        <time>2020-10-17T11:06:16.000Z</time>
      </trkpt>
      <trkpt lat="47.3452" lon="-1.28253">
        <ele>62</ele>
        <time>2020-10-17T11:06:18.000Z</time>
      </trkpt>
      <trkpt lat="47.34519" lon="-1.28276">
        <ele>61</ele>
        <time>2020-10-17T11:06:20.000Z</time>
      </trkpt>
      <trkpt lat="47.34516" lon="-1.28298">
        <ele>60</ele>
        <time>2020-10-17T11:06:22.000Z</time>
      </trkpt>
      <trkpt lat="47.34515" lon="-1.28319">
        <ele>59</ele>
        <time>2020-10-17T11:06:24.000Z</time>
      </trkpt>
      <trkpt lat="47.34513" lon="-1.2834">
        <ele>60</ele>
        <time>2020-10-17T11:06:26.000Z</time>
      </trkpt>
      <trkpt lat="47.34512" lon="-1.28361">
        <ele>61</ele>
        <time>2020-10-17T11:06:28.000Z</time>
      </trkpt>
      <trkpt lat="47.34513" lon="-1.28382">
        <ele>61</ele>
        <time>2020-10-17T11:06:30.000Z</time>
      </trkpt>
      <trkpt lat="47.34516" lon="-1.28403">
        <ele>61</ele>
        <time>2020-10-17T11:06:32.000Z</time>
      </trkpt>
      <trkpt lat="47.3452" lon="-1.28424">
        <ele>61</ele>
        <time>2020-10-17T11:06:34.000Z</time>
      </trkpt>
      <trkpt lat="47.34525" lon="-1.28443">
        <ele>61</ele>
        <time>2020-10-17T11:06:36.000Z</time>
      </trkpt>
      <trkpt lat="47.34532" lon="-1.28461">
        <ele>61</ele>
        <time>2020-10-17T11:06:38.000Z</time>
      </trkpt>
      <trkpt lat="47.34539" lon="-1.28478">
        <ele>62</ele>
        <time>2020-10-17T11:06:40.000Z</time>
      </trkpt>
      <trkpt lat="47.34547" lon="-1.28494">
        <ele>62</ele>
        <time>2020-10-17T11:06:42.000Z</time>
      </trkpt>
      <trkpt lat="47.34556" lon="-1.28508">
        <ele>62</ele>
        <time>2020-10-17T11:06:44.000Z</time>
      </trkpt>
      <trkpt lat="47.34566" lon="-1.28521">
        <ele>61</ele>
        <time>2020-10-17T11:06:46.000Z</time>
      </trkpt>
      <trkpt lat="47.34576" lon="-1.28532">
        <ele>62</ele>
        <time>2020-10-17T11:06:48.000Z</time>
      </trkpt>
      <trkpt lat="47.34588" lon="-1.28542">
        <ele>62</ele>
        <time>2020-10-17T11:06:50.000Z</time>
      </trkpt>
      <trkpt lat="47.34599" lon="-1.28552">
        <ele>63</ele>
        <time>2020-10-17T11:06:52.000Z</time>
      </trkpt>
      <trkpt lat="47.34611" lon="-1.2856">
        <ele>63</ele>
        <time>2020-10-17T11:06:54.000Z</time>
      </trkpt>
      <trkpt lat="47.34622" lon="-1.28569">
        <ele>64</ele>
        <time>2020-10-17T11:06:56.000Z</time>
      </trkpt>
      <trkpt lat="47.34632" lon="-1.28576">
        <ele>64</ele>
        <time>2020-10-17T11:06:58.000Z</time>
      </trkpt>
      <trkpt lat="47.34641" lon="-1.28582">
        <ele>65</ele>
        <time>2020-10-17T11:07:00.000Z</time>
      </trkpt>
      <trkpt lat="47.34648" lon="-1.28598">
        <ele>65</ele>
        <time>2020-10-17T11:07:03.000Z</time>
      </trkpt>
      <trkpt lat="47.34642" lon="-1.28613">
        <ele>64</ele>
        <time>2020-10-17T11:07:05.000Z</time>
      </trkpt>
      <trkpt lat="47.34634" lon="-1.28627">
        <ele>63</ele>
        <time>2020-10-17T11:07:07.000Z</time>
      </trkpt>
      <trkpt lat="47.34625" lon="-1.28641">
        <ele>62</ele>
        <time>2020-10-17T11:07:09.000Z</time>
      </trkpt>
      <trkpt lat="47.34616" lon="-1.28659">
        <ele>63</ele>
        <time>2020-10-17T11:07:11.000Z</time>
      </trkpt>
      <trkpt lat="47.3461" lon="-1.28679">
        <ele>62</ele>
        <time>2020-10-17T11:07:13.000Z</time>
      </trkpt>
      <trkpt lat="47.34601" lon="-1.28697">
        <ele>62</ele>
        <time>2020-10-17T11:07:15.000Z</time>
      </trkpt>
      <trkpt lat="47.34594" lon="-1.28717">
        <ele>63</ele>
        <time>2020-10-17T11:07:17.000Z</time>
      </trkpt>
      <trkpt lat="47.34587" lon="-1.28735">
        <ele>63</ele>
        <time>2020-10-17T11:07:19.000Z</time>
      </trkpt>
      <trkpt lat="47.34581" lon="-1.28753">
        <ele>63</ele>
        <time>2020-10-17T11:07:21.000Z</time>
      </trkpt>
      <trkpt lat="47.34575" lon="-1.28771">
        <ele>64</ele>
        <time>2020-10-17T11:07:23.000Z</time>
      </trkpt>
      <trkpt lat="47.3457" lon="-1.28789">
        <ele>64</ele>
        <time>2020-10-17T11:07:25.000Z</time>
      </trkpt>
      <trkpt lat="47.34564" lon="-1.28807">
        <ele>64</ele>
        <time>2020-10-17T11:07:27.000Z</time>
      </trkpt>
      <trkpt lat="47.34559" lon="-1.28825">
        <ele>64</ele>
        <time>2020-10-17T11:07:29.000Z</time>
      </trkpt>
      <trkpt lat="47.34556" lon="-1.28843">
        <ele>65</ele>
        <time>2020-10-17T11:07:31.000Z</time>
      </trkpt>
      <trkpt lat="47.34554" lon="-1.2886">
        <ele>65</ele>
        <time>2020-10-17T11:07:33.000Z</time>
      </trkpt>
      <trkpt lat="47.34549" lon="-1.28877">
        <ele>65</ele>
        <time>2020-10-17T11:07:35.000Z</time>
      </trkpt>
      <trkpt lat="47.34544" lon="-1.28892">
        <ele>66</ele>
        <time>2020-10-17T11:07:37.000Z</time>
      </trkpt>
      <trkpt lat="47.34538" lon="-1.28906">
        <ele>66</ele>
        <time>2020-10-17T11:07:39.000Z</time>
      </trkpt>
      <trkpt lat="47.34532" lon="-1.2892">
        <ele>66</ele>
        <time>2020-10-17T11:07:41.000Z</time>
      </trkpt>
      <trkpt lat="47.34526" lon="-1.28933">
        <ele>68</ele>
        <time>2020-10-17T11:07:43.000Z</time>
      </trkpt>
      <trkpt lat="47.34518" lon="-1.28945">
        <ele>68</ele>
        <time>2020-10-17T11:07:45.000Z</time>
      </trkpt>
      <trkpt lat="47.34511" lon="-1.28958">
        <ele>69</ele>
        <time>2020-10-17T11:07:47.000Z</time>
      </trkpt>
      <trkpt lat="47.34505" lon="-1.2897">
        <ele>69</ele>
        <time>2020-10-17T11:07:49.000Z</time>
      </trkpt>
      <trkpt lat="47.34498" lon="-1.28984">
        <ele>69</ele>
        <time>2020-10-17T11:07:51.000Z</time>
      </trkpt>
      <trkpt lat="47.34491" lon="-1.29">
        <ele>69</ele>
        <time>2020-10-17T11:07:53.000Z</time>
      </trkpt>
      <trkpt lat="47.34484" lon="-1.29017">
        <ele>68</ele>
        <time>2020-10-17T11:07:55.000Z</time>
      </trkpt>
      <trkpt lat="47.34479" lon="-1.29035">
        <ele>68</ele>
        <time>2020-10-17T11:07:57.000Z</time>
      </trkpt>
      <trkpt lat="47.34473" lon="-1.29054">
        <ele>68</ele>
        <time>2020-10-17T11:07:59.000Z</time>
      </trkpt>
      <trkpt lat="47.34467" lon="-1.29073">
        <ele>68</ele>
        <time>2020-10-17T11:08:01.000Z</time>
      </trkpt>
      <trkpt lat="47.34462" lon="-1.29093">
        <ele>68</ele>
        <time>2020-10-17T11:08:03.000Z</time>
      </trkpt>
      <trkpt lat="47.34459" lon="-1.29111">
        <ele>68</ele>
        <time>2020-10-17T11:08:05.000Z</time>
      </trkpt>
      <trkpt lat="47.34452" lon="-1.29124">
        <ele>67</ele>
        <time>2020-10-17T11:08:07.000Z</time>
      </trkpt>
      <trkpt lat="47.34441" lon="-1.29134">
        <ele>66</ele>
        <time>2020-10-17T11:08:09.000Z</time>
      </trkpt>
      <trkpt lat="47.34439" lon="-1.29153">
        <ele>66</ele>
        <time>2020-10-17T11:08:11.000Z</time>
      </trkpt>
      <trkpt lat="47.34439" lon="-1.29173">
        <ele>65</ele>
        <time>2020-10-17T11:08:13.000Z</time>
      </trkpt>
      <trkpt lat="47.34438" lon="-1.29194">
        <ele>64</ele>
        <time>2020-10-17T11:08:15.000Z</time>
      </trkpt>
      <trkpt lat="47.34438" lon="-1.29214">
        <ele>64</ele>
        <time>2020-10-17T11:08:17.000Z</time>
      </trkpt>
      <trkpt lat="47.34438" lon="-1.29235">
        <ele>64</ele>
        <time>2020-10-17T11:08:19.000Z</time>
      </trkpt>
      <trkpt lat="47.34439" lon="-1.29257">
        <ele>64</ele>
        <time>2020-10-17T11:08:21.000Z</time>
      </trkpt>
      <trkpt lat="47.34439" lon="-1.29278">
        <ele>63</ele>
        <time>2020-10-17T11:08:23.000Z</time>
      </trkpt>
      <trkpt lat="47.3444" lon="-1.293">
        <ele>62</ele>
        <time>2020-10-17T11:08:25.000Z</time>
      </trkpt>
      <trkpt lat="47.3444" lon="-1.2932">
        <ele>63</ele>
        <time>2020-10-17T11:08:27.000Z</time>
      </trkpt>
      <trkpt lat="47.34441" lon="-1.29341">
        <ele>63</ele>
        <time>2020-10-17T11:08:29.000Z</time>
      </trkpt>
      <trkpt lat="47.34442" lon="-1.29363">
        <ele>63</ele>
        <time>2020-10-17T11:08:31.000Z</time>
      </trkpt>
      <trkpt lat="47.34443" lon="-1.29384">
        <ele>62</ele>
        <time>2020-10-17T11:08:33.000Z</time>
      </trkpt>
      <trkpt lat="47.34442" lon="-1.29405">
        <ele>61</ele>
        <time>2020-10-17T11:08:35.000Z</time>
      </trkpt>
      <trkpt lat="47.34441" lon="-1.29426">
        <ele>61</ele>
        <time>2020-10-17T11:08:37.000Z</time>
      </trkpt>
      <trkpt lat="47.3444" lon="-1.29448">
        <ele>61</ele>
        <time>2020-10-17T11:08:39.000Z</time>
      </trkpt>
      <trkpt lat="47.34437" lon="-1.29468">
        <ele>61</ele>
        <time>2020-10-17T11:08:41.000Z</time>
      </trkpt>
      <trkpt lat="47.34434" lon="-1.29488">
        <ele>60</ele>
        <time>2020-10-17T11:08:43.000Z</time>
      </trkpt>
      <trkpt lat="47.34431" lon="-1.29509">
        <ele>60</ele>
        <time>2020-10-17T11:08:45.000Z</time>
      </trkpt>
      <trkpt lat="47.34429" lon="-1.2953">
        <ele>60</ele>
        <time>2020-10-17T11:08:47.000Z</time>
      </trkpt>
      <trkpt lat="47.34426" lon="-1.29551">
        <ele>60</ele>
        <time>2020-10-17T11:08:49.000Z</time>
      </trkpt>
      <trkpt lat="47.34423" lon="-1.29572">
        <ele>60</ele>
        <time>2020-10-17T11:08:51.000Z</time>
      </trkpt>
      <trkpt lat="47.3442" lon="-1.29592">
        <ele>60</ele>
        <time>2020-10-17T11:08:53.000Z</time>
      </trkpt>
      <trkpt lat="47.34417" lon="-1.29613">
        <ele>59</ele>
        <time>2020-10-17T11:08:55.000Z</time>
      </trkpt>
      <trkpt lat="47.34413" lon="-1.29633">
        <ele>59</ele>
        <time>2020-10-17T11:08:57.000Z</time>
      </trkpt>
      <trkpt lat="47.34407" lon="-1.29651">
        <ele>59</ele>
        <time>2020-10-17T11:08:59.000Z</time>
      </trkpt>
      <trkpt lat="47.344" lon="-1.29668">
        <ele>59</ele>
        <time>2020-10-17T11:09:01.000Z</time>
      </trkpt>
      <trkpt lat="47.34391" lon="-1.29684">
        <ele>59</ele>
        <time>2020-10-17T11:09:03.000Z</time>
      </trkpt>
      <trkpt lat="47.34383" lon="-1.297">
        <ele>59</ele>
        <time>2020-10-17T11:09:05.000Z</time>
      </trkpt>
      <trkpt lat="47.34375" lon="-1.29716">
        <ele>59</ele>
        <time>2020-10-17T11:09:07.000Z</time>
      </trkpt>
      <trkpt lat="47.34366" lon="-1.29732">
        <ele>59</ele>
        <time>2020-10-17T11:09:09.000Z</time>
      </trkpt>
      <trkpt lat="47.34357" lon="-1.2975">
        <ele>59</ele>
        <time>2020-10-17T11:09:11.000Z</time>
      </trkpt>
      <trkpt lat="47.34349" lon="-1.29768">
        <ele>59</ele>
        <time>2020-10-17T11:09:13.000Z</time>
      </trkpt>
      <trkpt lat="47.34341" lon="-1.29785">
        <ele>59</ele>
        <time>2020-10-17T11:09:15.000Z</time>
      </trkpt>
      <trkpt lat="47.34333" lon="-1.29802">
        <ele>60</ele>
        <time>2020-10-17T11:09:17.000Z</time>
      </trkpt>
      <trkpt lat="47.34326" lon="-1.29819">
        <ele>60</ele>
        <time>2020-10-17T11:09:19.000Z</time>
      </trkpt>
      <trkpt lat="47.34319" lon="-1.29837">
        <ele>61</ele>
        <time>2020-10-17T11:09:21.000Z</time>
      </trkpt>
      <trkpt lat="47.34312" lon="-1.29855">
        <ele>61</ele>
        <time>2020-10-17T11:09:23.000Z</time>
      </trkpt>
      <trkpt lat="47.34306" lon="-1.29873">
        <ele>61</ele>
        <time>2020-10-17T11:09:25.000Z</time>
      </trkpt>
      <trkpt lat="47.343" lon="-1.29892">
        <ele>61</ele>
        <time>2020-10-17T11:09:27.000Z</time>
      </trkpt>
      <trkpt lat="47.34295" lon="-1.2991">
        <ele>61</ele>
        <time>2020-10-17T11:09:29.000Z</time>
      </trkpt>
      <trkpt lat="47.34289" lon="-1.29929">
        <ele>61</ele>
        <time>2020-10-17T11:09:31.000Z</time>
      </trkpt>
      <trkpt lat="47.34283" lon="-1.29946">
        <ele>60</ele>
        <time>2020-10-17T11:09:33.000Z</time>
      </trkpt>
      <trkpt lat="47.34277" lon="-1.29963">
        <ele>60</ele>
        <time>2020-10-17T11:09:35.000Z</time>
      </trkpt>
      <trkpt lat="47.34273" lon="-1.2998">
        <ele>60</ele>
        <time>2020-10-17T11:09:37.000Z</time>
      </trkpt>
      <trkpt lat="47.34269" lon="-1.29999">
        <ele>61</ele>
        <time>2020-10-17T11:09:39.000Z</time>
      </trkpt>
      <trkpt lat="47.34266" lon="-1.30016">
        <ele>61</ele>
        <time>2020-10-17T11:09:41.000Z</time>
      </trkpt>
      <trkpt lat="47.34261" lon="-1.30035">
        <ele>61</ele>
        <time>2020-10-17T11:09:43.000Z</time>
      </trkpt>
      <trkpt lat="47.34257" lon="-1.30054">
        <ele>61</ele>
        <time>2020-10-17T11:09:45.000Z</time>
      </trkpt>
      <trkpt lat="47.34253" lon="-1.30073">
        <ele>61</ele>
        <time>2020-10-17T11:09:47.000Z</time>
      </trkpt>
      <trkpt lat="47.34249" lon="-1.30092">
        <ele>61</ele>
        <time>2020-10-17T11:09:49.000Z</time>
      </trkpt>
      <trkpt lat="47.34243" lon="-1.30109">
        <ele>61</ele>
        <time>2020-10-17T11:09:51.000Z</time>
      </trkpt>
      <trkpt lat="47.34238" lon="-1.30128">
        <ele>61</ele>
        <time>2020-10-17T11:09:53.000Z</time>
      </trkpt>
      <trkpt lat="47.34233" lon="-1.30145">
        <ele>61</ele>
        <time>2020-10-17T11:09:55.000Z</time>
      </trkpt>
      <trkpt lat="47.34226" lon="-1.30161">
        <ele>62</ele>
        <time>2020-10-17T11:09:57.000Z</time>
      </trkpt>
      <trkpt lat="47.34221" lon="-1.30179">
        <ele>62</ele>
        <time>2020-10-17T11:09:59.000Z</time>
      </trkpt>
      <trkpt lat="47.34215" lon="-1.30196">
        <ele>61</ele>
        <time>2020-10-17T11:10:01.000Z</time>
      </trkpt>
      <trkpt lat="47.34209" lon="-1.30214">
        <ele>61</ele>
        <time>2020-10-17T11:10:03.000Z</time>
      </trkpt>
      <trkpt lat="47.34203" lon="-1.30231">
        <ele>61</ele>
        <time>2020-10-17T11:10:05.000Z</time>
      </trkpt>
      <trkpt lat="47.34197" lon="-1.30247">
        <ele>62</ele>
        <time>2020-10-17T11:10:07.000Z</time>
      </trkpt>
      <trkpt lat="47.3419" lon="-1.30264">
        <ele>62</ele>
        <time>2020-10-17T11:10:09.000Z</time>
      </trkpt>
      <trkpt lat="47.34184" lon="-1.30279">
        <ele>63</ele>
        <time>2020-10-17T11:10:11.000Z</time>
      </trkpt>
      <trkpt lat="47.34178" lon="-1.30295">
        <ele>63</ele>
        <time>2020-10-17T11:10:13.000Z</time>
      </trkpt>
      <trkpt lat="47.34171" lon="-1.3031">
        <ele>63</ele>
        <time>2020-10-17T11:10:15.000Z</time>
      </trkpt>
      <trkpt lat="47.34165" lon="-1.30323">
        <ele>64</ele>
        <time>2020-10-17T11:10:17.000Z</time>
      </trkpt>
      <trkpt lat="47.34159" lon="-1.30338">
        <ele>64</ele>
        <time>2020-10-17T11:10:19.000Z</time>
      </trkpt>
      <trkpt lat="47.34153" lon="-1.30352">
        <ele>65</ele>
        <time>2020-10-17T11:10:21.000Z</time>
      </trkpt>
      <trkpt lat="47.34147" lon="-1.30365">
        <ele>65</ele>
        <time>2020-10-17T11:10:23.000Z</time>
      </trkpt>
      <trkpt lat="47.34142" lon="-1.3038">
        <ele>65</ele>
        <time>2020-10-17T11:10:25.000Z</time>
      </trkpt>
      <trkpt lat="47.34136" lon="-1.30395">
        <ele>66</ele>
        <time>2020-10-17T11:10:27.000Z</time>
      </trkpt>
      <trkpt lat="47.3413" lon="-1.3041">
        <ele>66</ele>
        <time>2020-10-17T11:10:29.000Z</time>
      </trkpt>
      <trkpt lat="47.34124" lon="-1.30424">
        <ele>67</ele>
        <time>2020-10-17T11:10:31.000Z</time>
      </trkpt>
      <trkpt lat="47.34118" lon="-1.30438">
        <ele>67</ele>
        <time>2020-10-17T11:10:33.000Z</time>
      </trkpt>
      <trkpt lat="47.34112" lon="-1.30452">
        <ele>66</ele>
        <time>2020-10-17T11:10:35.000Z</time>
      </trkpt>
      <trkpt lat="47.34106" lon="-1.30468">
        <ele>66</ele>
        <time>2020-10-17T11:10:37.000Z</time>
      </trkpt>
      <trkpt lat="47.341" lon="-1.30482">
        <ele>66</ele>
        <time>2020-10-17T11:10:39.000Z</time>
      </trkpt>
      <trkpt lat="47.34093" lon="-1.30496">
        <ele>65</ele>
        <time>2020-10-17T11:10:41.000Z</time>
      </trkpt>
      <trkpt lat="47.34086" lon="-1.30511">
        <ele>65</ele>
        <time>2020-10-17T11:10:43.000Z</time>
      </trkpt>
      <trkpt lat="47.34078" lon="-1.3053">
        <ele>64</ele>
        <time>2020-10-17T11:10:45.000Z</time>
      </trkpt>
      <trkpt lat="47.3407" lon="-1.30548">
        <ele>63</ele>
        <time>2020-10-17T11:10:47.000Z</time>
      </trkpt>
      <trkpt lat="47.34062" lon="-1.30564">
        <ele>63</ele>
        <time>2020-10-17T11:10:49.000Z</time>
      </trkpt>
      <trkpt lat="47.34053" lon="-1.30579">
        <ele>63</ele>
        <time>2020-10-17T11:10:51.000Z</time>
      </trkpt>
      <trkpt lat="47.34044" lon="-1.30594">
        <ele>63</ele>
        <time>2020-10-17T11:10:53.000Z</time>
      </trkpt>
      <trkpt lat="47.34035" lon="-1.30609">
        <ele>64</ele>
        <time>2020-10-17T11:10:55.000Z</time>
      </trkpt>
      <trkpt lat="47.34027" lon="-1.30624">
        <ele>64</ele>
        <time>2020-10-17T11:10:57.000Z</time>
      </trkpt>
      <trkpt lat="47.34019" lon="-1.30638">
        <ele>65</ele>
        <time>2020-10-17T11:10:59.000Z</time>
      </trkpt>
      <trkpt lat="47.3401" lon="-1.3065">
        <ele>65</ele>
        <time>2020-10-17T11:11:01.000Z</time>
      </trkpt>
      <trkpt lat="47.34002" lon="-1.30661">
        <ele>65</ele>
        <time>2020-10-17T11:11:03.000Z</time>
      </trkpt>
      <trkpt lat="47.33994" lon="-1.30673">
        <ele>65</ele>
        <time>2020-10-17T11:11:05.000Z</time>
      </trkpt>
      <trkpt lat="47.33987" lon="-1.30682">
        <ele>64</ele>
        <time>2020-10-17T11:11:07.000Z</time>
      </trkpt>
      <trkpt lat="47.33979" lon="-1.30688">
        <ele>64</ele>
        <time>2020-10-17T11:11:09.000Z</time>
      </trkpt>
      <trkpt lat="47.3397" lon="-1.30683">
        <ele>63</ele>
        <time>2020-10-17T11:11:11.000Z</time>
      </trkpt>
      <trkpt lat="47.33959" lon="-1.30672">
        <ele>63</ele>
        <time>2020-10-17T11:11:14.000Z</time>
      </trkpt>
      <trkpt lat="47.33951" lon="-1.30678">
        <ele>60</ele>
        <time>2020-10-17T11:11:17.000Z</time>
      </trkpt>
      <trkpt lat="47.33943" lon="-1.30693">
        <ele>59</ele>
        <time>2020-10-17T11:11:20.000Z</time>
      </trkpt>
      <trkpt lat="47.33935" lon="-1.30703">
        <ele>59</ele>
        <time>2020-10-17T11:11:22.000Z</time>
      </trkpt>
      <trkpt lat="47.33927" lon="-1.30717">
        <ele>59</ele>
        <time>2020-10-17T11:11:24.000Z</time>
      </trkpt>
      <trkpt lat="47.33919" lon="-1.3073">
        <ele>59</ele>
        <time>2020-10-17T11:11:26.000Z</time>
      </trkpt>
      <trkpt lat="47.33911" lon="-1.30743">
        <ele>60</ele>
        <time>2020-10-17T11:11:28.000Z</time>
      </trkpt>
      <trkpt lat="47.33902" lon="-1.30754">
        <ele>59</ele>
        <time>2020-10-17T11:11:30.000Z</time>
      </trkpt>
      <trkpt lat="47.33893" lon="-1.30764">
        <ele>59</ele>
        <time>2020-10-17T11:11:32.000Z</time>
      </trkpt>
      <trkpt lat="47.33883" lon="-1.30774">
        <ele>59</ele>
        <time>2020-10-17T11:11:34.000Z</time>
      </trkpt>
      <trkpt lat="47.33873" lon="-1.30784">
        <ele>59</ele>
        <time>2020-10-17T11:11:36.000Z</time>
      </trkpt>
      <trkpt lat="47.33864" lon="-1.30793">
        <ele>58</ele>
        <time>2020-10-17T11:11:38.000Z</time>
      </trkpt>
      <trkpt lat="47.33854" lon="-1.30802">
        <ele>58</ele>
        <time>2020-10-17T11:11:40.000Z</time>
      </trkpt>
      <trkpt lat="47.33844" lon="-1.30811">
        <ele>58</ele>
        <time>2020-10-17T11:11:42.000Z</time>
      </trkpt>
      <trkpt lat="47.33834" lon="-1.30821">
        <ele>58</ele>
        <time>2020-10-17T11:11:44.000Z</time>
      </trkpt>
      <trkpt lat="47.33825" lon="-1.30831">
        <ele>58</ele>
        <time>2020-10-17T11:11:46.000Z</time>
      </trkpt>
      <trkpt lat="47.33816" lon="-1.30841">
        <ele>58</ele>
        <time>2020-10-17T11:11:48.000Z</time>
      </trkpt>
      <trkpt lat="47.33806" lon="-1.3085">
        <ele>58</ele>
        <time>2020-10-17T11:11:50.000Z</time>
      </trkpt>
      <trkpt lat="47.33796" lon="-1.30859">
        <ele>58</ele>
        <time>2020-10-17T11:11:52.000Z</time>
      </trkpt>
      <trkpt lat="47.33786" lon="-1.30869">
        <ele>58</ele>
        <time>2020-10-17T11:11:54.000Z</time>
      </trkpt>
      <trkpt lat="47.33777" lon="-1.30879">
        <ele>59</ele>
        <time>2020-10-17T11:11:56.000Z</time>
      </trkpt>
      <trkpt lat="47.33767" lon="-1.30889">
        <ele>60</ele>
        <time>2020-10-17T11:11:58.000Z</time>
      </trkpt>
      <trkpt lat="47.33757" lon="-1.30898">
        <ele>61</ele>
        <time>2020-10-17T11:12:00.000Z</time>
      </trkpt>
      <trkpt lat="47.33746" lon="-1.3091">
        <ele>61</ele>
        <time>2020-10-17T11:12:02.000Z</time>
      </trkpt>
      <trkpt lat="47.33736" lon="-1.30919">
        <ele>61</ele>
        <time>2020-10-17T11:12:04.000Z</time>
      </trkpt>
      <trkpt lat="47.33728" lon="-1.3093">
        <ele>61</ele>
        <time>2020-10-17T11:12:06.000Z</time>
      </trkpt>
      <trkpt lat="47.3372" lon="-1.30941">
        <ele>60</ele>
        <time>2020-10-17T11:12:08.000Z</time>
      </trkpt>
      <trkpt lat="47.33711" lon="-1.30952">
        <ele>60</ele>
        <time>2020-10-17T11:12:10.000Z</time>
      </trkpt>
      <trkpt lat="47.33702" lon="-1.30963">
        <ele>59</ele>
        <time>2020-10-17T11:12:12.000Z</time>
      </trkpt>
      <trkpt lat="47.33695" lon="-1.30972">
        <ele>60</ele>
        <time>2020-10-17T11:12:14.000Z</time>
      </trkpt>
      <trkpt lat="47.33685" lon="-1.3098">
        <ele>59</ele>
        <time>2020-10-17T11:12:17.000Z</time>
      </trkpt>
      <trkpt lat="47.33676" lon="-1.30986">
        <ele>60</ele>
        <time>2020-10-17T11:12:20.000Z</time>
      </trkpt>
      <trkpt lat="47.33669" lon="-1.31">
        <ele>60</ele>
        <time>2020-10-17T11:12:22.000Z</time>
      </trkpt>
      <trkpt lat="47.3366" lon="-1.31013">
        <ele>60</ele>
        <time>2020-10-17T11:12:24.000Z</time>
      </trkpt>
      <trkpt lat="47.33651" lon="-1.31027">
        <ele>60</ele>
        <time>2020-10-17T11:12:26.000Z</time>
      </trkpt>
      <trkpt lat="47.33641" lon="-1.31042">
        <ele>60</ele>
        <time>2020-10-17T11:12:28.000Z</time>
      </trkpt>
      <trkpt lat="47.33632" lon="-1.31056">
        <ele>60</ele>
        <time>2020-10-17T11:12:30.000Z</time>
      </trkpt>
      <trkpt lat="47.33623" lon="-1.31071">
        <ele>59</ele>
        <time>2020-10-17T11:12:32.000Z</time>
      </trkpt>
      <trkpt lat="47.33615" lon="-1.31085">
        <ele>60</ele>
        <time>2020-10-17T11:12:34.000Z</time>
      </trkpt>
      <trkpt lat="47.33607" lon="-1.31099">
        <ele>58</ele>
        <time>2020-10-17T11:12:36.000Z</time>
      </trkpt>
      <trkpt lat="47.33599" lon="-1.31113">
        <ele>58</ele>
        <time>2020-10-17T11:12:38.000Z</time>
      </trkpt>
      <trkpt lat="47.33591" lon="-1.31127">
        <ele>58</ele>
        <time>2020-10-17T11:12:40.000Z</time>
      </trkpt>
      <trkpt lat="47.33583" lon="-1.31141">
        <ele>57</ele>
        <time>2020-10-17T11:12:42.000Z</time>
      </trkpt>
      <trkpt lat="47.33574" lon="-1.31156">
        <ele>57</ele>
        <time>2020-10-17T11:12:44.000Z</time>
      </trkpt>
      <trkpt lat="47.33566" lon="-1.3117">
        <ele>57</ele>
        <time>2020-10-17T11:12:46.000Z</time>
      </trkpt>
      <trkpt lat="47.33559" lon="-1.31186">
        <ele>57</ele>
        <time>2020-10-17T11:12:48.000Z</time>
      </trkpt>
      <trkpt lat="47.33552" lon="-1.31201">
        <ele>57</ele>
        <time>2020-10-17T11:12:50.000Z</time>
      </trkpt>
      <trkpt lat="47.33545" lon="-1.31215">
        <ele>58</ele>
        <time>2020-10-17T11:12:52.000Z</time>
      </trkpt>
      <trkpt lat="47.33537" lon="-1.31229">
        <ele>58</ele>
        <time>2020-10-17T11:12:54.000Z</time>
      </trkpt>
      <trkpt lat="47.33529" lon="-1.31243">
        <ele>59</ele>
        <time>2020-10-17T11:12:56.000Z</time>
      </trkpt>
      <trkpt lat="47.33521" lon="-1.31257">
        <ele>58</ele>
        <time>2020-10-17T11:12:58.000Z</time>
      </trkpt>
      <trkpt lat="47.33514" lon="-1.3127">
        <ele>58</ele>
        <time>2020-10-17T11:13:00.000Z</time>
      </trkpt>
      <trkpt lat="47.33507" lon="-1.31282">
        <ele>58</ele>
        <time>2020-10-17T11:13:02.000Z</time>
      </trkpt>
      <trkpt lat="47.33502" lon="-1.31297">
        <ele>58</ele>
        <time>2020-10-17T11:13:04.000Z</time>
      </trkpt>
      <trkpt lat="47.33495" lon="-1.3131">
        <ele>58</ele>
        <time>2020-10-17T11:13:06.000Z</time>
      </trkpt>
      <trkpt lat="47.33487" lon="-1.31324">
        <ele>58</ele>
        <time>2020-10-17T11:13:08.000Z</time>
      </trkpt>
      <trkpt lat="47.33481" lon="-1.31337">
        <ele>58</ele>
        <time>2020-10-17T11:13:10.000Z</time>
      </trkpt>
      <trkpt lat="47.33473" lon="-1.31351">
        <ele>57</ele>
        <time>2020-10-17T11:13:12.000Z</time>
      </trkpt>
      <trkpt lat="47.33466" lon="-1.31363">
        <ele>57</ele>
        <time>2020-10-17T11:13:14.000Z</time>
      </trkpt>
      <trkpt lat="47.3346" lon="-1.31376">
        <ele>57</ele>
        <time>2020-10-17T11:13:16.000Z</time>
      </trkpt>
      <trkpt lat="47.33454" lon="-1.3139">
        <ele>57</ele>
        <time>2020-10-17T11:13:18.000Z</time>
      </trkpt>
      <trkpt lat="47.33447" lon="-1.31404">
        <ele>57</ele>
        <time>2020-10-17T11:13:20.000Z</time>
      </trkpt>
      <trkpt lat="47.33439" lon="-1.31418">
        <ele>58</ele>
        <time>2020-10-17T11:13:22.000Z</time>
      </trkpt>
      <trkpt lat="47.33433" lon="-1.31433">
        <ele>58</ele>
        <time>2020-10-17T11:13:24.000Z</time>
      </trkpt>
      <trkpt lat="47.33425" lon="-1.31448">
        <ele>59</ele>
        <time>2020-10-17T11:13:26.000Z</time>
      </trkpt>
      <trkpt lat="47.33418" lon="-1.31463">
        <ele>59</ele>
        <time>2020-10-17T11:13:28.000Z</time>
      </trkpt>
      <trkpt lat="47.3341" lon="-1.31477">
        <ele>59</ele>
        <time>2020-10-17T11:13:30.000Z</time>
      </trkpt>
      <trkpt lat="47.33403" lon="-1.31493">
        <ele>59</ele>
        <time>2020-10-17T11:13:32.000Z</time>
      </trkpt>
      <trkpt lat="47.33396" lon="-1.31507">
        <ele>59</ele>
        <time>2020-10-17T11:13:34.000Z</time>
      </trkpt>
      <trkpt lat="47.33389" lon="-1.3152">
        <ele>59</ele>
        <time>2020-10-17T11:13:36.000Z</time>
      </trkpt>
      <trkpt lat="47.33382" lon="-1.31535">
        <ele>59</ele>
        <time>2020-10-17T11:13:38.000Z</time>
      </trkpt>
      <trkpt lat="47.33374" lon="-1.31549">
        <ele>60</ele>
        <time>2020-10-17T11:13:40.000Z</time>
      </trkpt>
      <trkpt lat="47.33367" lon="-1.31563">
        <ele>60</ele>
        <time>2020-10-17T11:13:42.000Z</time>
      </trkpt>
      <trkpt lat="47.33358" lon="-1.31578">
        <ele>59</ele>
        <time>2020-10-17T11:13:44.000Z</time>
      </trkpt>
      <trkpt lat="47.33351" lon="-1.31593">
        <ele>59</ele>
        <time>2020-10-17T11:13:46.000Z</time>
      </trkpt>
      <trkpt lat="47.33343" lon="-1.31608">
        <ele>59</ele>
        <time>2020-10-17T11:13:48.000Z</time>
      </trkpt>
      <trkpt lat="47.33336" lon="-1.31622">
        <ele>59</ele>
        <time>2020-10-17T11:13:50.000Z</time>
      </trkpt>
      <trkpt lat="47.33328" lon="-1.31636">
        <ele>59</ele>
        <time>2020-10-17T11:13:52.000Z</time>
      </trkpt>
      <trkpt lat="47.3332" lon="-1.3165">
        <ele>59</ele>
        <time>2020-10-17T11:13:54.000Z</time>
      </trkpt>
      <trkpt lat="47.33313" lon="-1.31664">
        <ele>60</ele>
        <time>2020-10-17T11:13:56.000Z</time>
      </trkpt>
      <trkpt lat="47.33305" lon="-1.31679">
        <ele>60</ele>
        <time>2020-10-17T11:13:58.000Z</time>
      </trkpt>
      <trkpt lat="47.33297" lon="-1.31694">
        <ele>60</ele>
        <time>2020-10-17T11:14:00.000Z</time>
      </trkpt>
      <trkpt lat="47.33289" lon="-1.31709">
        <ele>60</ele>
        <time>2020-10-17T11:14:02.000Z</time>
      </trkpt>
      <trkpt lat="47.33282" lon="-1.31724">
        <ele>60</ele>
        <time>2020-10-17T11:14:04.000Z</time>
      </trkpt>
      <trkpt lat="47.33275" lon="-1.31737">
        <ele>60</ele>
        <time>2020-10-17T11:14:06.000Z</time>
      </trkpt>
      <trkpt lat="47.33267" lon="-1.31751">
        <ele>60</ele>
        <time>2020-10-17T11:14:08.000Z</time>
      </trkpt>
      <trkpt lat="47.3326" lon="-1.31767">
        <ele>60</ele>
        <time>2020-10-17T11:14:10.000Z</time>
      </trkpt>
      <trkpt lat="47.33252" lon="-1.31781">
        <ele>60</ele>
        <time>2020-10-17T11:14:12.000Z</time>
      </trkpt>
      <trkpt lat="47.33245" lon="-1.31795">
        <ele>60</ele>
        <time>2020-10-17T11:14:14.000Z</time>
      </trkpt>
      <trkpt lat="47.33238" lon="-1.31809">
        <ele>60</ele>
        <time>2020-10-17T11:14:16.000Z</time>
      </trkpt>
      <trkpt lat="47.33231" lon="-1.31824">
        <ele>61</ele>
        <time>2020-10-17T11:14:18.000Z</time>
      </trkpt>
      <trkpt lat="47.33223" lon="-1.31838">
        <ele>60</ele>
        <time>2020-10-17T11:14:20.000Z</time>
      </trkpt>
      <trkpt lat="47.33216" lon="-1.31852">
        <ele>60</ele>
        <time>2020-10-17T11:14:22.000Z</time>
      </trkpt>
      <trkpt lat="47.33208" lon="-1.31866">
        <ele>60</ele>
        <time>2020-10-17T11:14:24.000Z</time>
      </trkpt>
      <trkpt lat="47.332" lon="-1.3188">
        <ele>60</ele>
        <time>2020-10-17T11:14:26.000Z</time>
      </trkpt>
      <trkpt lat="47.33193" lon="-1.31895">
        <ele>60</ele>
        <time>2020-10-17T11:14:28.000Z</time>
      </trkpt>
      <trkpt lat="47.33186" lon="-1.3191">
        <ele>60</ele>
        <time>2020-10-17T11:14:30.000Z</time>
      </trkpt>
      <trkpt lat="47.3318" lon="-1.31924">
        <ele>60</ele>
        <time>2020-10-17T11:14:32.000Z</time>
      </trkpt>
      <trkpt lat="47.33173" lon="-1.31938">
        <ele>61</ele>
        <time>2020-10-17T11:14:34.000Z</time>
      </trkpt>
      <trkpt lat="47.33166" lon="-1.31951">
        <ele>61</ele>
        <time>2020-10-17T11:14:36.000Z</time>
      </trkpt>
      <trkpt lat="47.33159" lon="-1.31964">
        <ele>62</ele>
        <time>2020-10-17T11:14:38.000Z</time>
      </trkpt>
      <trkpt lat="47.33152" lon="-1.31974">
        <ele>63</ele>
        <time>2020-10-17T11:14:40.000Z</time>
      </trkpt>
      <trkpt lat="47.33142" lon="-1.3198">
        <ele>63</ele>
        <time>2020-10-17T11:14:42.000Z</time>
      </trkpt>
      <trkpt lat="47.33131" lon="-1.31987">
        <ele>62</ele>
        <time>2020-10-17T11:14:44.000Z</time>
      </trkpt>
      <trkpt lat="47.33121" lon="-1.31996">
        <ele>62</ele>
        <time>2020-10-17T11:14:46.000Z</time>
      </trkpt>
      <trkpt lat="47.33113" lon="-1.32007">
        <ele>62</ele>
        <time>2020-10-17T11:14:48.000Z</time>
      </trkpt>
      <trkpt lat="47.33107" lon="-1.32019">
        <ele>63</ele>
        <time>2020-10-17T11:14:50.000Z</time>
      </trkpt>
      <trkpt lat="47.331" lon="-1.32032">
        <ele>61</ele>
        <time>2020-10-17T11:14:52.000Z</time>
      </trkpt>
      <trkpt lat="47.33094" lon="-1.32042">
        <ele>61</ele>
        <time>2020-10-17T11:14:54.000Z</time>
      </trkpt>
      <trkpt lat="47.33096" lon="-1.32056">
        <ele>61</ele>
        <time>2020-10-17T11:14:56.000Z</time>
      </trkpt>
      <trkpt lat="47.33096" lon="-1.32073">
        <ele>59</ele>
        <time>2020-10-17T11:14:58.000Z</time>
      </trkpt>
      <trkpt lat="47.33091" lon="-1.3209">
        <ele>58</ele>
        <time>2020-10-17T11:15:00.000Z</time>
      </trkpt>
      <trkpt lat="47.33085" lon="-1.32105">
        <ele>58</ele>
        <time>2020-10-17T11:15:02.000Z</time>
      </trkpt>
      <trkpt lat="47.33077" lon="-1.3212">
        <ele>57</ele>
        <time>2020-10-17T11:15:04.000Z</time>
      </trkpt>
      <trkpt lat="47.33069" lon="-1.32133">
        <ele>56</ele>
        <time>2020-10-17T11:15:06.000Z</time>
      </trkpt>
      <trkpt lat="47.33061" lon="-1.32147">
        <ele>56</ele>
        <time>2020-10-17T11:15:08.000Z</time>
      </trkpt>
      <trkpt lat="47.33053" lon="-1.32162">
        <ele>56</ele>
        <time>2020-10-17T11:15:10.000Z</time>
      </trkpt>
      <trkpt lat="47.33047" lon="-1.32177">
        <ele>57</ele>
        <time>2020-10-17T11:15:12.000Z</time>
      </trkpt>
      <trkpt lat="47.33042" lon="-1.32192">
        <ele>57</ele>
        <time>2020-10-17T11:15:14.000Z</time>
      </trkpt>
      <trkpt lat="47.33034" lon="-1.32206">
        <ele>57</ele>
        <time>2020-10-17T11:15:16.000Z</time>
      </trkpt>
      <trkpt lat="47.33025" lon="-1.32221">
        <ele>56</ele>
        <time>2020-10-17T11:15:18.000Z</time>
      </trkpt>
      <trkpt lat="47.33018" lon="-1.32236">
        <ele>57</ele>
        <time>2020-10-17T11:15:20.000Z</time>
      </trkpt>
      <trkpt lat="47.3301" lon="-1.32251">
        <ele>57</ele>
        <time>2020-10-17T11:15:22.000Z</time>
      </trkpt>
      <trkpt lat="47.33002" lon="-1.32266">
        <ele>57</ele>
        <time>2020-10-17T11:15:24.000Z</time>
      </trkpt>
      <trkpt lat="47.32995" lon="-1.32281">
        <ele>57</ele>
        <time>2020-10-17T11:15:26.000Z</time>
      </trkpt>
      <trkpt lat="47.32987" lon="-1.32295">
        <ele>58</ele>
        <time>2020-10-17T11:15:28.000Z</time>
      </trkpt>
      <trkpt lat="47.3298" lon="-1.32309">
        <ele>58</ele>
        <time>2020-10-17T11:15:30.000Z</time>
      </trkpt>
      <trkpt lat="47.32972" lon="-1.32324">
        <ele>58</ele>
        <time>2020-10-17T11:15:32.000Z</time>
      </trkpt>
      <trkpt lat="47.32964" lon="-1.32339">
        <ele>58</ele>
        <time>2020-10-17T11:15:34.000Z</time>
      </trkpt>
      <trkpt lat="47.32957" lon="-1.32354">
        <ele>58</ele>
        <time>2020-10-17T11:15:36.000Z</time>
      </trkpt>
      <trkpt lat="47.32949" lon="-1.32368">
        <ele>58</ele>
        <time>2020-10-17T11:15:38.000Z</time>
      </trkpt>
      <trkpt lat="47.32942" lon="-1.32383">
        <ele>59</ele>
        <time>2020-10-17T11:15:40.000Z</time>
      </trkpt>
      <trkpt lat="47.32934" lon="-1.32397">
        <ele>58</ele>
        <time>2020-10-17T11:15:42.000Z</time>
      </trkpt>
      <trkpt lat="47.32926" lon="-1.32411">
        <ele>58</ele>
        <time>2020-10-17T11:15:44.000Z</time>
      </trkpt>
      <trkpt lat="47.32919" lon="-1.32426">
        <ele>59</ele>
        <time>2020-10-17T11:15:46.000Z</time>
      </trkpt>
      <trkpt lat="47.32911" lon="-1.3244">
        <ele>58</ele>
        <time>2020-10-17T11:15:48.000Z</time>
      </trkpt>
      <trkpt lat="47.32903" lon="-1.32455">
        <ele>59</ele>
        <time>2020-10-17T11:15:50.000Z</time>
      </trkpt>
      <trkpt lat="47.32895" lon="-1.32469">
        <ele>59</ele>
        <time>2020-10-17T11:15:52.000Z</time>
      </trkpt>
      <trkpt lat="47.32888" lon="-1.32484">
        <ele>59</ele>
        <time>2020-10-17T11:15:54.000Z</time>
      </trkpt>
      <trkpt lat="47.32881" lon="-1.32499">
        <ele>59</ele>
        <time>2020-10-17T11:15:56.000Z</time>
      </trkpt>
      <trkpt lat="47.32874" lon="-1.32514">
        <ele>59</ele>
        <time>2020-10-17T11:15:58.000Z</time>
      </trkpt>
      <trkpt lat="47.32866" lon="-1.32528">
        <ele>60</ele>
        <time>2020-10-17T11:16:00.000Z</time>
      </trkpt>
      <trkpt lat="47.3286" lon="-1.32542">
        <ele>60</ele>
        <time>2020-10-17T11:16:02.000Z</time>
      </trkpt>
      <trkpt lat="47.32853" lon="-1.32556">
        <ele>60</ele>
        <time>2020-10-17T11:16:04.000Z</time>
      </trkpt>
      <trkpt lat="47.32845" lon="-1.3257">
        <ele>59</ele>
        <time>2020-10-17T11:16:06.000Z</time>
      </trkpt>
      <trkpt lat="47.32838" lon="-1.32584">
        <ele>59</ele>
        <time>2020-10-17T11:16:08.000Z</time>
      </trkpt>
      <trkpt lat="47.3283" lon="-1.32598">
        <ele>59</ele>
        <time>2020-10-17T11:16:10.000Z</time>
      </trkpt>
      <trkpt lat="47.32823" lon="-1.32611">
        <ele>59</ele>
        <time>2020-10-17T11:16:12.000Z</time>
      </trkpt>
      <trkpt lat="47.32815" lon="-1.32624">
        <ele>59</ele>
        <time>2020-10-17T11:16:14.000Z</time>
      </trkpt>
      <trkpt lat="47.32807" lon="-1.32635">
        <ele>59</ele>
        <time>2020-10-17T11:16:16.000Z</time>
      </trkpt>
      <trkpt lat="47.32798" lon="-1.32646">
        <ele>60</ele>
        <time>2020-10-17T11:16:18.000Z</time>
      </trkpt>
      <trkpt lat="47.3279" lon="-1.3266">
        <ele>60</ele>
        <time>2020-10-17T11:16:20.000Z</time>
      </trkpt>
      <trkpt lat="47.32783" lon="-1.32675">
        <ele>59</ele>
        <time>2020-10-17T11:16:22.000Z</time>
      </trkpt>
      <trkpt lat="47.32778" lon="-1.32691">
        <ele>59</ele>
        <time>2020-10-17T11:16:24.000Z</time>
      </trkpt>
      <trkpt lat="47.32772" lon="-1.32707">
        <ele>59</ele>
        <time>2020-10-17T11:16:26.000Z</time>
      </trkpt>
      <trkpt lat="47.32766" lon="-1.32723">
        <ele>59</ele>
        <time>2020-10-17T11:16:28.000Z</time>
      </trkpt>
      <trkpt lat="47.32758" lon="-1.32737">
        <ele>59</ele>
        <time>2020-10-17T11:16:30.000Z</time>
      </trkpt>
      <trkpt lat="47.32751" lon="-1.32751">
        <ele>58</ele>
        <time>2020-10-17T11:16:32.000Z</time>
      </trkpt>
      <trkpt lat="47.32743" lon="-1.32765">
        <ele>58</ele>
        <time>2020-10-17T11:16:34.000Z</time>
      </trkpt>
      <trkpt lat="47.32736" lon="-1.32778">
        <ele>58</ele>
        <time>2020-10-17T11:16:36.000Z</time>
      </trkpt>
      <trkpt lat="47.32727" lon="-1.32792">
        <ele>58</ele>
        <time>2020-10-17T11:16:38.000Z</time>
      </trkpt>
      <trkpt lat="47.32719" lon="-1.32805">
        <ele>58</ele>
        <time>2020-10-17T11:16:40.000Z</time>
      </trkpt>
      <trkpt lat="47.32711" lon="-1.32818">
        <ele>58</ele>
        <time>2020-10-17T11:16:42.000Z</time>
      </trkpt>
      <trkpt lat="47.32703" lon="-1.32831">
        <ele>58</ele>
        <time>2020-10-17T11:16:44.000Z</time>
      </trkpt>
      <trkpt lat="47.32694" lon="-1.32845">
        <ele>58</ele>
        <time>2020-10-17T11:16:46.000Z</time>
      </trkpt>
      <trkpt lat="47.32686" lon="-1.32858">
        <ele>58</ele>
        <time>2020-10-17T11:16:48.000Z</time>
      </trkpt>
      <trkpt lat="47.32677" lon="-1.32871">
        <ele>58</ele>
        <time>2020-10-17T11:16:50.000Z</time>
      </trkpt>
      <trkpt lat="47.32668" lon="-1.32883">
        <ele>58</ele>
        <time>2020-10-17T11:16:52.000Z</time>
      </trkpt>
      <trkpt lat="47.3266" lon="-1.32896">
        <ele>58</ele>
        <time>2020-10-17T11:16:54.000Z</time>
      </trkpt>
      <trkpt lat="47.32651" lon="-1.32907">
        <ele>58</ele>
        <time>2020-10-17T11:16:56.000Z</time>
      </trkpt>
      <trkpt lat="47.32643" lon="-1.32918">
        <ele>57</ele>
        <time>2020-10-17T11:16:58.000Z</time>
      </trkpt>
      <trkpt lat="47.32634" lon="-1.32925">
        <ele>56</ele>
        <time>2020-10-17T11:17:00.000Z</time>
      </trkpt>
      <trkpt lat="47.32624" lon="-1.32931">
        <ele>56</ele>
        <time>2020-10-17T11:17:02.000Z</time>
      </trkpt>
      <trkpt lat="47.32617" lon="-1.32939">
        <ele>56</ele>
        <time>2020-10-17T11:17:04.000Z</time>
      </trkpt>
      <trkpt lat="47.32609" lon="-1.32954">
        <ele>56</ele>
        <time>2020-10-17T11:17:07.000Z</time>
      </trkpt>
      <trkpt lat="47.32602" lon="-1.32965">
        <ele>56</ele>
        <time>2020-10-17T11:17:09.000Z</time>
      </trkpt>
      <trkpt lat="47.32594" lon="-1.32978">
        <ele>56</ele>
        <time>2020-10-17T11:17:11.000Z</time>
      </trkpt>
      <trkpt lat="47.32586" lon="-1.32988">
        <ele>57</ele>
        <time>2020-10-17T11:17:13.000Z</time>
      </trkpt>
      <trkpt lat="47.32578" lon="-1.32997">
        <ele>59</ele>
        <time>2020-10-17T11:17:15.000Z</time>
      </trkpt>
      <trkpt lat="47.3257" lon="-1.33006">
        <ele>60</ele>
        <time>2020-10-17T11:17:17.000Z</time>
      </trkpt>
      <trkpt lat="47.32562" lon="-1.33015">
        <ele>60</ele>
        <time>2020-10-17T11:17:19.000Z</time>
      </trkpt>
      <trkpt lat="47.32554" lon="-1.33024">
        <ele>61</ele>
        <time>2020-10-17T11:17:21.000Z</time>
      </trkpt>
      <trkpt lat="47.32545" lon="-1.33032">
        <ele>60</ele>
        <time>2020-10-17T11:17:23.000Z</time>
      </trkpt>
      <trkpt lat="47.32534" lon="-1.3304">
        <ele>60</ele>
        <time>2020-10-17T11:17:25.000Z</time>
      </trkpt>
      <trkpt lat="47.32525" lon="-1.33049">
        <ele>59</ele>
        <time>2020-10-17T11:17:27.000Z</time>
      </trkpt>
      <trkpt lat="47.32516" lon="-1.33058">
        <ele>59</ele>
        <time>2020-10-17T11:17:29.000Z</time>
      </trkpt>
      <trkpt lat="47.32505" lon="-1.33068">
        <ele>59</ele>
        <time>2020-10-17T11:17:31.000Z</time>
      </trkpt>
      <trkpt lat="47.32495" lon="-1.33078">
        <ele>58</ele>
        <time>2020-10-17T11:17:33.000Z</time>
      </trkpt>
      <trkpt lat="47.32484" lon="-1.3309">
        <ele>58</ele>
        <time>2020-10-17T11:17:35.000Z</time>
      </trkpt>
      <trkpt lat="47.32474" lon="-1.33102">
        <ele>58</ele>
        <time>2020-10-17T11:17:37.000Z</time>
      </trkpt>
      <trkpt lat="47.32464" lon="-1.33112">
        <ele>59</ele>
        <time>2020-10-17T11:17:39.000Z</time>
      </trkpt>
      <trkpt lat="47.32455" lon="-1.33124">
        <ele>59</ele>
        <time>2020-10-17T11:17:41.000Z</time>
      </trkpt>
      <trkpt lat="47.32446" lon="-1.33133">
        <ele>59</ele>
        <time>2020-10-17T11:17:43.000Z</time>
      </trkpt>
      <trkpt lat="47.32437" lon="-1.33138">
        <ele>59</ele>
        <time>2020-10-17T11:17:45.000Z</time>
      </trkpt>
      <trkpt lat="47.32428" lon="-1.33138">
        <ele>59</ele>
        <time>2020-10-17T11:17:47.000Z</time>
      </trkpt>
      <trkpt lat="47.32415" lon="-1.33139">
        <ele>59</ele>
        <time>2020-10-17T11:17:50.000Z</time>
      </trkpt>
      <trkpt lat="47.32405" lon="-1.3315">
        <ele>59</ele>
        <time>2020-10-17T11:17:52.000Z</time>
      </trkpt>
      <trkpt lat="47.32397" lon="-1.33164">
        <ele>60</ele>
        <time>2020-10-17T11:17:54.000Z</time>
      </trkpt>
      <trkpt lat="47.32389" lon="-1.33177">
        <ele>61</ele>
        <time>2020-10-17T11:17:56.000Z</time>
      </trkpt>
      <trkpt lat="47.3238" lon="-1.33191">
        <ele>61</ele>
        <time>2020-10-17T11:17:58.000Z</time>
      </trkpt>
      <trkpt lat="47.32373" lon="-1.33205">
        <ele>61</ele>
        <time>2020-10-17T11:18:00.000Z</time>
      </trkpt>
      <trkpt lat="47.32365" lon="-1.33219">
        <ele>61</ele>
        <time>2020-10-17T11:18:02.000Z</time>
      </trkpt>
      <trkpt lat="47.32359" lon="-1.33233">
        <ele>60</ele>
        <time>2020-10-17T11:18:04.000Z</time>
      </trkpt>
      <trkpt lat="47.32353" lon="-1.33247">
        <ele>60</ele>
        <time>2020-10-17T11:18:06.000Z</time>
      </trkpt>
      <trkpt lat="47.32347" lon="-1.33262">
        <ele>59</ele>
        <time>2020-10-17T11:18:08.000Z</time>
      </trkpt>
      <trkpt lat="47.32341" lon="-1.33277">
        <ele>59</ele>
        <time>2020-10-17T11:18:10.000Z</time>
      </trkpt>
      <trkpt lat="47.32334" lon="-1.33292">
        <ele>59</ele>
        <time>2020-10-17T11:18:12.000Z</time>
      </trkpt>
      <trkpt lat="47.32328" lon="-1.33308">
        <ele>58</ele>
        <time>2020-10-17T11:18:14.000Z</time>
      </trkpt>
      <trkpt lat="47.32321" lon="-1.33322">
        <ele>58</ele>
        <time>2020-10-17T11:18:16.000Z</time>
      </trkpt>
      <trkpt lat="47.32315" lon="-1.33337">
        <ele>58</ele>
        <time>2020-10-17T11:18:18.000Z</time>
      </trkpt>
      <trkpt lat="47.32308" lon="-1.33351">
        <ele>58</ele>
        <time>2020-10-17T11:18:20.000Z</time>
      </trkpt>
      <trkpt lat="47.32301" lon="-1.33367">
        <ele>58</ele>
        <time>2020-10-17T11:18:22.000Z</time>
      </trkpt>
      <trkpt lat="47.32295" lon="-1.33382">
        <ele>58</ele>
        <time>2020-10-17T11:18:24.000Z</time>
      </trkpt>
      <trkpt lat="47.32288" lon="-1.33398">
        <ele>58</ele>
        <time>2020-10-17T11:18:26.000Z</time>
      </trkpt>
      <trkpt lat="47.3228" lon="-1.33411">
        <ele>58</ele>
        <time>2020-10-17T11:18:28.000Z</time>
      </trkpt>
      <trkpt lat="47.32273" lon="-1.33426">
        <ele>58</ele>
        <time>2020-10-17T11:18:30.000Z</time>
      </trkpt>
      <trkpt lat="47.32267" lon="-1.33441">
        <ele>58</ele>
        <time>2020-10-17T11:18:32.000Z</time>
      </trkpt>
      <trkpt lat="47.3226" lon="-1.33456">
        <ele>57</ele>
        <time>2020-10-17T11:18:34.000Z</time>
      </trkpt>
      <trkpt lat="47.32253" lon="-1.33471">
        <ele>58</ele>
        <time>2020-10-17T11:18:36.000Z</time>
      </trkpt>
      <trkpt lat="47.32246" lon="-1.33486">
        <ele>58</ele>
        <time>2020-10-17T11:18:38.000Z</time>
      </trkpt>
      <trkpt lat="47.32239" lon="-1.335">
        <ele>58</ele>
        <time>2020-10-17T11:18:40.000Z</time>
      </trkpt>
      <trkpt lat="47.32232" lon="-1.33515">
        <ele>58</ele>
        <time>2020-10-17T11:18:42.000Z</time>
      </trkpt>
      <trkpt lat="47.32225" lon="-1.33529">
        <ele>58</ele>
        <time>2020-10-17T11:18:44.000Z</time>
      </trkpt>
      <trkpt lat="47.32218" lon="-1.33543">
        <ele>57</ele>
        <time>2020-10-17T11:18:46.000Z</time>
      </trkpt>
      <trkpt lat="47.32213" lon="-1.33558">
        <ele>57</ele>
        <time>2020-10-17T11:18:48.000Z</time>
      </trkpt>
      <trkpt lat="47.32206" lon="-1.33574">
        <ele>58</ele>
        <time>2020-10-17T11:18:50.000Z</time>
      </trkpt>
      <trkpt lat="47.322" lon="-1.33588">
        <ele>57</ele>
        <time>2020-10-17T11:18:52.000Z</time>
      </trkpt>
      <trkpt lat="47.32194" lon="-1.33602">
        <ele>57</ele>
        <time>2020-10-17T11:18:54.000Z</time>
      </trkpt>
      <trkpt lat="47.32188" lon="-1.33616">
        <ele>57</ele>
        <time>2020-10-17T11:18:56.000Z</time>
      </trkpt>
      <trkpt lat="47.32183" lon="-1.33629">
        <ele>57</ele>
        <time>2020-10-17T11:18:58.000Z</time>
      </trkpt>
      <trkpt lat="47.32177" lon="-1.33645">
        <ele>57</ele>
        <time>2020-10-17T11:19:01.000Z</time>
      </trkpt>
      <trkpt lat="47.32173" lon="-1.33657">
        <ele>57</ele>
        <time>2020-10-17T11:19:03.000Z</time>
      </trkpt>
      <trkpt lat="47.32166" lon="-1.3367">
        <ele>57</ele>
        <time>2020-10-17T11:19:05.000Z</time>
      </trkpt>
      <trkpt lat="47.32161" lon="-1.33686">
        <ele>57</ele>
        <time>2020-10-17T11:19:07.000Z</time>
      </trkpt>
      <trkpt lat="47.32156" lon="-1.33701">
        <ele>57</ele>
        <time>2020-10-17T11:19:09.000Z</time>
      </trkpt>
      <trkpt lat="47.32149" lon="-1.33716">
        <ele>57</ele>
        <time>2020-10-17T11:19:11.000Z</time>
      </trkpt>
      <trkpt lat="47.32143" lon="-1.33731">
        <ele>57</ele>
        <time>2020-10-17T11:19:13.000Z</time>
      </trkpt>
      <trkpt lat="47.32137" lon="-1.33746">
        <ele>57</ele>
        <time>2020-10-17T11:19:15.000Z</time>
      </trkpt>
      <trkpt lat="47.32131" lon="-1.33761">
        <ele>57</ele>
        <time>2020-10-17T11:19:17.000Z</time>
      </trkpt>
      <trkpt lat="47.32125" lon="-1.33776">
        <ele>57</ele>
        <time>2020-10-17T11:19:19.000Z</time>
      </trkpt>
      <trkpt lat="47.32118" lon="-1.33792">
        <ele>56</ele>
        <time>2020-10-17T11:19:21.000Z</time>
      </trkpt>
      <trkpt lat="47.32111" lon="-1.33807">
        <ele>56</ele>
        <time>2020-10-17T11:19:23.000Z</time>
      </trkpt>
      <trkpt lat="47.32104" lon="-1.33821">
        <ele>56</ele>
        <time>2020-10-17T11:19:25.000Z</time>
      </trkpt>
      <trkpt lat="47.32097" lon="-1.33836">
        <ele>55</ele>
        <time>2020-10-17T11:19:27.000Z</time>
      </trkpt>
      <trkpt lat="47.3209" lon="-1.3385">
        <ele>55</ele>
        <time>2020-10-17T11:19:29.000Z</time>
      </trkpt>
      <trkpt lat="47.32083" lon="-1.33865">
        <ele>55</ele>
        <time>2020-10-17T11:19:31.000Z</time>
      </trkpt>
      <trkpt lat="47.32076" lon="-1.33878">
        <ele>55</ele>
        <time>2020-10-17T11:19:33.000Z</time>
      </trkpt>
      <trkpt lat="47.32069" lon="-1.33891">
        <ele>55</ele>
        <time>2020-10-17T11:19:35.000Z</time>
      </trkpt>
      <trkpt lat="47.32062" lon="-1.33904">
        <ele>56</ele>
        <time>2020-10-17T11:19:37.000Z</time>
      </trkpt>
      <trkpt lat="47.32054" lon="-1.33918">
        <ele>56</ele>
        <time>2020-10-17T11:19:39.000Z</time>
      </trkpt>
      <trkpt lat="47.32046" lon="-1.33931">
        <ele>56</ele>
        <time>2020-10-17T11:19:41.000Z</time>
      </trkpt>
      <trkpt lat="47.32039" lon="-1.33944">
        <ele>57</ele>
        <time>2020-10-17T11:19:43.000Z</time>
      </trkpt>
      <trkpt lat="47.32033" lon="-1.33957">
        <ele>58</ele>
        <time>2020-10-17T11:19:45.000Z</time>
      </trkpt>
      <trkpt lat="47.32027" lon="-1.33968">
        <ele>58</ele>
        <time>2020-10-17T11:19:47.000Z</time>
      </trkpt>
      <trkpt lat="47.32021" lon="-1.33979">
        <ele>58</ele>
        <time>2020-10-17T11:19:49.000Z</time>
      </trkpt>
      <trkpt lat="47.32012" lon="-1.33991">
        <ele>58</ele>
        <time>2020-10-17T11:19:51.000Z</time>
      </trkpt>
      <trkpt lat="47.32004" lon="-1.34004">
        <ele>58</ele>
        <time>2020-10-17T11:19:53.000Z</time>
      </trkpt>
      <trkpt lat="47.31996" lon="-1.34016">
        <ele>58</ele>
        <time>2020-10-17T11:19:55.000Z</time>
      </trkpt>
      <trkpt lat="47.31988" lon="-1.34029">
        <ele>58</ele>
        <time>2020-10-17T11:19:57.000Z</time>
      </trkpt>
      <trkpt lat="47.3198" lon="-1.34041">
        <ele>58</ele>
        <time>2020-10-17T11:19:59.000Z</time>
      </trkpt>
      <trkpt lat="47.31971" lon="-1.34055">
        <ele>57</ele>
        <time>2020-10-17T11:20:01.000Z</time>
      </trkpt>
      <trkpt lat="47.31963" lon="-1.34068">
        <ele>57</ele>
        <time>2020-10-17T11:20:03.000Z</time>
      </trkpt>
      <trkpt lat="47.31955" lon="-1.34081">
        <ele>56</ele>
        <time>2020-10-17T11:20:05.000Z</time>
      </trkpt>
      <trkpt lat="47.31947" lon="-1.34094">
        <ele>56</ele>
        <time>2020-10-17T11:20:07.000Z</time>
      </trkpt>
      <trkpt lat="47.31939" lon="-1.34107">
        <ele>56</ele>
        <time>2020-10-17T11:20:09.000Z</time>
      </trkpt>
      <trkpt lat="47.31931" lon="-1.3412">
        <ele>56</ele>
        <time>2020-10-17T11:20:11.000Z</time>
      </trkpt>
      <trkpt lat="47.31923" lon="-1.34133">
        <ele>56</ele>
        <time>2020-10-17T11:20:13.000Z</time>
      </trkpt>
      <trkpt lat="47.31915" lon="-1.34145">
        <ele>56</ele>
        <time>2020-10-17T11:20:15.000Z</time>
      </trkpt>
      <trkpt lat="47.31906" lon="-1.34157">
        <ele>55</ele>
        <time>2020-10-17T11:20:17.000Z</time>
      </trkpt>
      <trkpt lat="47.31897" lon="-1.34171">
        <ele>54</ele>
        <time>2020-10-17T11:20:19.000Z</time>
      </trkpt>
      <trkpt lat="47.31887" lon="-1.34184">
        <ele>53</ele>
        <time>2020-10-17T11:20:21.000Z</time>
      </trkpt>
      <trkpt lat="47.31876" lon="-1.34197">
        <ele>53</ele>
        <time>2020-10-17T11:20:23.000Z</time>
      </trkpt>
      <trkpt lat="47.31867" lon="-1.34211">
        <ele>53</ele>
        <time>2020-10-17T11:20:25.000Z</time>
      </trkpt>
      <trkpt lat="47.31858" lon="-1.34226">
        <ele>53</ele>
        <time>2020-10-17T11:20:27.000Z</time>
      </trkpt>
      <trkpt lat="47.31849" lon="-1.3424">
        <ele>53</ele>
        <time>2020-10-17T11:20:29.000Z</time>
      </trkpt>
      <trkpt lat="47.31841" lon="-1.34253">
        <ele>52</ele>
        <time>2020-10-17T11:20:31.000Z</time>
      </trkpt>
      <trkpt lat="47.31833" lon="-1.34267">
        <ele>52</ele>
        <time>2020-10-17T11:20:33.000Z</time>
      </trkpt>
      <trkpt lat="47.31824" lon="-1.34281">
        <ele>52</ele>
        <time>2020-10-17T11:20:35.000Z</time>
      </trkpt>
      <trkpt lat="47.31816" lon="-1.34294">
        <ele>52</ele>
        <time>2020-10-17T11:20:37.000Z</time>
      </trkpt>
      <trkpt lat="47.31807" lon="-1.34307">
        <ele>52</ele>
        <time>2020-10-17T11:20:39.000Z</time>
      </trkpt>
      <trkpt lat="47.31798" lon="-1.34321">
        <ele>52</ele>
        <time>2020-10-17T11:20:41.000Z</time>
      </trkpt>
      <trkpt lat="47.3179" lon="-1.34334">
        <ele>52</ele>
        <time>2020-10-17T11:20:43.000Z</time>
      </trkpt>
      <trkpt lat="47.31782" lon="-1.34346">
        <ele>52</ele>
        <time>2020-10-17T11:20:45.000Z</time>
      </trkpt>
      <trkpt lat="47.31773" lon="-1.34359">
        <ele>52</ele>
        <time>2020-10-17T11:20:47.000Z</time>
      </trkpt>
      <trkpt lat="47.31765" lon="-1.34372">
        <ele>52</ele>
        <time>2020-10-17T11:20:49.000Z</time>
      </trkpt>
      <trkpt lat="47.31757" lon="-1.34385">
        <ele>52</ele>
        <time>2020-10-17T11:20:51.000Z</time>
      </trkpt>
      <trkpt lat="47.3175" lon="-1.34398">
        <ele>52</ele>
        <time>2020-10-17T11:20:53.000Z</time>
      </trkpt>
      <trkpt lat="47.31742" lon="-1.34411">
        <ele>52</ele>
        <time>2020-10-17T11:20:55.000Z</time>
      </trkpt>
      <trkpt lat="47.31734" lon="-1.34424">
        <ele>53</ele>
        <time>2020-10-17T11:20:57.000Z</time>
      </trkpt>
      <trkpt lat="47.31726" lon="-1.34437">
        <ele>53</ele>
        <time>2020-10-17T11:20:59.000Z</time>
      </trkpt>
      <trkpt lat="47.31718" lon="-1.34451">
        <ele>54</ele>
        <time>2020-10-17T11:21:01.000Z</time>
      </trkpt>
      <trkpt lat="47.31708" lon="-1.34464">
        <ele>54</ele>
        <time>2020-10-17T11:21:03.000Z</time>
      </trkpt>
      <trkpt lat="47.317" lon="-1.34476">
        <ele>54</ele>
        <time>2020-10-17T11:21:05.000Z</time>
      </trkpt>
      <trkpt lat="47.31692" lon="-1.34489">
        <ele>54</ele>
        <time>2020-10-17T11:21:07.000Z</time>
      </trkpt>
      <trkpt lat="47.31684" lon="-1.34501">
        <ele>55</ele>
        <time>2020-10-17T11:21:09.000Z</time>
      </trkpt>
      <trkpt lat="47.31675" lon="-1.34515">
        <ele>55</ele>
        <time>2020-10-17T11:21:11.000Z</time>
      </trkpt>
      <trkpt lat="47.31666" lon="-1.34527">
        <ele>55</ele>
        <time>2020-10-17T11:21:13.000Z</time>
      </trkpt>
      <trkpt lat="47.31658" lon="-1.3454">
        <ele>55</ele>
        <time>2020-10-17T11:21:15.000Z</time>
      </trkpt>
      <trkpt lat="47.31651" lon="-1.34554">
        <ele>55</ele>
        <time>2020-10-17T11:21:17.000Z</time>
      </trkpt>
      <trkpt lat="47.31643" lon="-1.34567">
        <ele>55</ele>
        <time>2020-10-17T11:21:19.000Z</time>
      </trkpt>
      <trkpt lat="47.31635" lon="-1.34579">
        <ele>55</ele>
        <time>2020-10-17T11:21:21.000Z</time>
      </trkpt>
      <trkpt lat="47.31628" lon="-1.34592">
        <ele>56</ele>
        <time>2020-10-17T11:21:23.000Z</time>
      </trkpt>
      <trkpt lat="47.3162" lon="-1.34605">
        <ele>57</ele>
        <time>2020-10-17T11:21:25.000Z</time>
      </trkpt>
      <trkpt lat="47.31613" lon="-1.34619">
        <ele>57</ele>
        <time>2020-10-17T11:21:27.000Z</time>
      </trkpt>
      <trkpt lat="47.31604" lon="-1.34632">
        <ele>57</ele>
        <time>2020-10-17T11:21:29.000Z</time>
      </trkpt>
      <trkpt lat="47.31596" lon="-1.34645">
        <ele>58</ele>
        <time>2020-10-17T11:21:31.000Z</time>
      </trkpt>
      <trkpt lat="47.31589" lon="-1.34658">
        <ele>57</ele>
        <time>2020-10-17T11:21:33.000Z</time>
      </trkpt>
      <trkpt lat="47.31581" lon="-1.34671">
        <ele>58</ele>
        <time>2020-10-17T11:21:35.000Z</time>
      </trkpt>
      <trkpt lat="47.31573" lon="-1.34684">
        <ele>58</ele>
        <time>2020-10-17T11:21:37.000Z</time>
      </trkpt>
      <trkpt lat="47.31565" lon="-1.34696">
        <ele>57</ele>
        <time>2020-10-17T11:21:39.000Z</time>
      </trkpt>
      <trkpt lat="47.31557" lon="-1.34709">
        <ele>57</ele>
        <time>2020-10-17T11:21:41.000Z</time>
      </trkpt>
      <trkpt lat="47.31548" lon="-1.34721">
        <ele>57</ele>
        <time>2020-10-17T11:21:43.000Z</time>
      </trkpt>
      <trkpt lat="47.3154" lon="-1.34734">
        <ele>57</ele>
        <time>2020-10-17T11:21:45.000Z</time>
      </trkpt>
      <trkpt lat="47.31531" lon="-1.34746">
        <ele>57</ele>
        <time>2020-10-17T11:21:47.000Z</time>
      </trkpt>
      <trkpt lat="47.31523" lon="-1.34759">
        <ele>57</ele>
        <time>2020-10-17T11:21:49.000Z</time>
      </trkpt>
      <trkpt lat="47.31515" lon="-1.34772">
        <ele>57</ele>
        <time>2020-10-17T11:21:51.000Z</time>
      </trkpt>
      <trkpt lat="47.31506" lon="-1.34784">
        <ele>57</ele>
        <time>2020-10-17T11:21:53.000Z</time>
      </trkpt>
      <trkpt lat="47.31498" lon="-1.34796">
        <ele>57</ele>
        <time>2020-10-17T11:21:55.000Z</time>
      </trkpt>
      <trkpt lat="47.3149" lon="-1.34809">
        <ele>57</ele>
        <time>2020-10-17T11:21:57.000Z</time>
      </trkpt>
      <trkpt lat="47.31482" lon="-1.34822">
        <ele>57</ele>
        <time>2020-10-17T11:21:59.000Z</time>
      </trkpt>
      <trkpt lat="47.31474" lon="-1.34835">
        <ele>57</ele>
        <time>2020-10-17T11:22:01.000Z</time>
      </trkpt>
      <trkpt lat="47.31465" lon="-1.34848">
        <ele>56</ele>
        <time>2020-10-17T11:22:03.000Z</time>
      </trkpt>
      <trkpt lat="47.31457" lon="-1.34861">
        <ele>57</ele>
        <time>2020-10-17T11:22:05.000Z</time>
      </trkpt>
      <trkpt lat="47.31448" lon="-1.34876">
        <ele>56</ele>
        <time>2020-10-17T11:22:07.000Z</time>
      </trkpt>
      <trkpt lat="47.31441" lon="-1.3489">
        <ele>56</ele>
        <time>2020-10-17T11:22:09.000Z</time>
      </trkpt>
      <trkpt lat="47.31432" lon="-1.34903">
        <ele>57</ele>
        <time>2020-10-17T11:22:11.000Z</time>
      </trkpt>
      <trkpt lat="47.31424" lon="-1.34917">
        <ele>57</ele>
        <time>2020-10-17T11:22:13.000Z</time>
      </trkpt>
      <trkpt lat="47.31416" lon="-1.3493">
        <ele>56</ele>
        <time>2020-10-17T11:22:15.000Z</time>
      </trkpt>
      <trkpt lat="47.31407" lon="-1.34943">
        <ele>57</ele>
        <time>2020-10-17T11:22:17.000Z</time>
      </trkpt>
      <trkpt lat="47.31399" lon="-1.34956">
        <ele>57</ele>
        <time>2020-10-17T11:22:19.000Z</time>
      </trkpt>
      <trkpt lat="47.3139" lon="-1.34969">
        <ele>56</ele>
        <time>2020-10-17T11:22:21.000Z</time>
      </trkpt>
      <trkpt lat="47.31382" lon="-1.34982">
        <ele>56</ele>
        <time>2020-10-17T11:22:23.000Z</time>
      </trkpt>
      <trkpt lat="47.31374" lon="-1.34997">
        <ele>56</ele>
        <time>2020-10-17T11:22:25.000Z</time>
      </trkpt>
      <trkpt lat="47.31365" lon="-1.3501">
        <ele>56</ele>
        <time>2020-10-17T11:22:27.000Z</time>
      </trkpt>
      <trkpt lat="47.31358" lon="-1.35023">
        <ele>56</ele>
        <time>2020-10-17T11:22:29.000Z</time>
      </trkpt>
      <trkpt lat="47.31349" lon="-1.35037">
        <ele>56</ele>
        <time>2020-10-17T11:22:31.000Z</time>
      </trkpt>
      <trkpt lat="47.31341" lon="-1.3505">
        <ele>56</ele>
        <time>2020-10-17T11:22:33.000Z</time>
      </trkpt>
      <trkpt lat="47.31334" lon="-1.35063">
        <ele>56</ele>
        <time>2020-10-17T11:22:35.000Z</time>
      </trkpt>
      <trkpt lat="47.31327" lon="-1.35075">
        <ele>56</ele>
        <time>2020-10-17T11:22:37.000Z</time>
      </trkpt>
      <trkpt lat="47.31317" lon="-1.35081">
        <ele>55</ele>
        <time>2020-10-17T11:22:39.000Z</time>
      </trkpt>
      <trkpt lat="47.31306" lon="-1.35086">
        <ele>55</ele>
        <time>2020-10-17T11:22:41.000Z</time>
      </trkpt>
      <trkpt lat="47.31297" lon="-1.35099">
        <ele>55</ele>
        <time>2020-10-17T11:22:43.000Z</time>
      </trkpt>
      <trkpt lat="47.3129" lon="-1.35112">
        <ele>56</ele>
        <time>2020-10-17T11:22:45.000Z</time>
      </trkpt>
      <trkpt lat="47.31284" lon="-1.35127">
        <ele>55</ele>
        <time>2020-10-17T11:22:47.000Z</time>
      </trkpt>
      <trkpt lat="47.31277" lon="-1.35141">
        <ele>55</ele>
        <time>2020-10-17T11:22:49.000Z</time>
      </trkpt>
      <trkpt lat="47.3127" lon="-1.35156">
        <ele>55</ele>
        <time>2020-10-17T11:22:51.000Z</time>
      </trkpt>
      <trkpt lat="47.31262" lon="-1.3517">
        <ele>55</ele>
        <time>2020-10-17T11:22:53.000Z</time>
      </trkpt>
      <trkpt lat="47.31254" lon="-1.35184">
        <ele>55</ele>
        <time>2020-10-17T11:22:55.000Z</time>
      </trkpt>
      <trkpt lat="47.31246" lon="-1.35197">
        <ele>55</ele>
        <time>2020-10-17T11:22:57.000Z</time>
      </trkpt>
      <trkpt lat="47.31238" lon="-1.3521">
        <ele>55</ele>
        <time>2020-10-17T11:22:59.000Z</time>
      </trkpt>
      <trkpt lat="47.31229" lon="-1.35223">
        <ele>55</ele>
        <time>2020-10-17T11:23:01.000Z</time>
      </trkpt>
      <trkpt lat="47.31221" lon="-1.35237">
        <ele>55</ele>
        <time>2020-10-17T11:23:03.000Z</time>
      </trkpt>
      <trkpt lat="47.31212" lon="-1.35249">
        <ele>55</ele>
        <time>2020-10-17T11:23:05.000Z</time>
      </trkpt>
      <trkpt lat="47.31204" lon="-1.35263">
        <ele>56</ele>
        <time>2020-10-17T11:23:07.000Z</time>
      </trkpt>
      <trkpt lat="47.31195" lon="-1.35276">
        <ele>56</ele>
        <time>2020-10-17T11:23:09.000Z</time>
      </trkpt>
      <trkpt lat="47.31187" lon="-1.35289">
        <ele>56</ele>
        <time>2020-10-17T11:23:11.000Z</time>
      </trkpt>
      <trkpt lat="47.31179" lon="-1.35303">
        <ele>55</ele>
        <time>2020-10-17T11:23:13.000Z</time>
      </trkpt>
      <trkpt lat="47.31171" lon="-1.35316">
        <ele>55</ele>
        <time>2020-10-17T11:23:15.000Z</time>
      </trkpt>
      <trkpt lat="47.31162" lon="-1.3533">
        <ele>56</ele>
        <time>2020-10-17T11:23:17.000Z</time>
      </trkpt>
      <trkpt lat="47.31154" lon="-1.35343">
        <ele>56</ele>
        <time>2020-10-17T11:23:19.000Z</time>
      </trkpt>
      <trkpt lat="47.31146" lon="-1.35357">
        <ele>56</ele>
        <time>2020-10-17T11:23:21.000Z</time>
      </trkpt>
      <trkpt lat="47.31137" lon="-1.35371">
        <ele>56</ele>
        <time>2020-10-17T11:23:23.000Z</time>
      </trkpt>
      <trkpt lat="47.31128" lon="-1.35383">
        <ele>56</ele>
        <time>2020-10-17T11:23:25.000Z</time>
      </trkpt>
      <trkpt lat="47.31119" lon="-1.35397">
        <ele>56</ele>
        <time>2020-10-17T11:23:27.000Z</time>
      </trkpt>
      <trkpt lat="47.3111" lon="-1.35409">
        <ele>56</ele>
        <time>2020-10-17T11:23:29.000Z</time>
      </trkpt>
      <trkpt lat="47.31102" lon="-1.35422">
        <ele>56</ele>
        <time>2020-10-17T11:23:31.000Z</time>
      </trkpt>
      <trkpt lat="47.31093" lon="-1.35434">
        <ele>56</ele>
        <time>2020-10-17T11:23:33.000Z</time>
      </trkpt>
      <trkpt lat="47.31083" lon="-1.35447">
        <ele>56</ele>
        <time>2020-10-17T11:23:35.000Z</time>
      </trkpt>
      <trkpt lat="47.31074" lon="-1.35459">
        <ele>57</ele>
        <time>2020-10-17T11:23:37.000Z</time>
      </trkpt>
      <trkpt lat="47.31065" lon="-1.35471">
        <ele>57</ele>
        <time>2020-10-17T11:23:39.000Z</time>
      </trkpt>
      <trkpt lat="47.31056" lon="-1.35483">
        <ele>56</ele>
        <time>2020-10-17T11:23:41.000Z</time>
      </trkpt>
      <trkpt lat="47.31046" lon="-1.35495">
        <ele>57</ele>
        <time>2020-10-17T11:23:43.000Z</time>
      </trkpt>
      <trkpt lat="47.31036" lon="-1.35506">
        <ele>57</ele>
        <time>2020-10-17T11:23:45.000Z</time>
      </trkpt>
      <trkpt lat="47.31027" lon="-1.35517">
        <ele>57</ele>
        <time>2020-10-17T11:23:47.000Z</time>
      </trkpt>
      <trkpt lat="47.31017" lon="-1.35529">
        <ele>57</ele>
        <time>2020-10-17T11:23:49.000Z</time>
      </trkpt>
      <trkpt lat="47.31007" lon="-1.3554">
        <ele>56</ele>
        <time>2020-10-17T11:23:51.000Z</time>
      </trkpt>
      <trkpt lat="47.30996" lon="-1.35551">
        <ele>56</ele>
        <time>2020-10-17T11:23:53.000Z</time>
      </trkpt>
      <trkpt lat="47.30986" lon="-1.35562">
        <ele>56</ele>
        <time>2020-10-17T11:23:55.000Z</time>
      </trkpt>
      <trkpt lat="47.30976" lon="-1.35574">
        <ele>55</ele>
        <time>2020-10-17T11:23:57.000Z</time>
      </trkpt>
      <trkpt lat="47.30967" lon="-1.35585">
        <ele>56</ele>
        <time>2020-10-17T11:23:59.000Z</time>
      </trkpt>
      <trkpt lat="47.30956" lon="-1.35596">
        <ele>55</ele>
        <time>2020-10-17T11:24:01.000Z</time>
      </trkpt>
      <trkpt lat="47.30947" lon="-1.35607">
        <ele>55</ele>
        <time>2020-10-17T11:24:03.000Z</time>
      </trkpt>
      <trkpt lat="47.30937" lon="-1.35618">
        <ele>55</ele>
        <time>2020-10-17T11:24:05.000Z</time>
      </trkpt>
      <trkpt lat="47.30927" lon="-1.3563">
        <ele>55</ele>
        <time>2020-10-17T11:24:07.000Z</time>
      </trkpt>
      <trkpt lat="47.30917" lon="-1.35641">
        <ele>55</ele>
        <time>2020-10-17T11:24:09.000Z</time>
      </trkpt>
      <trkpt lat="47.30908" lon="-1.35652">
        <ele>55</ele>
        <time>2020-10-17T11:24:11.000Z</time>
      </trkpt>
      <trkpt lat="47.30898" lon="-1.35663">
        <ele>54</ele>
        <time>2020-10-17T11:24:13.000Z</time>
      </trkpt>
      <trkpt lat="47.30888" lon="-1.35673">
        <ele>54</ele>
        <time>2020-10-17T11:24:15.000Z</time>
      </trkpt>
      <trkpt lat="47.30878" lon="-1.35685">
        <ele>54</ele>
        <time>2020-10-17T11:24:17.000Z</time>
      </trkpt>
      <trkpt lat="47.30868" lon="-1.35697">
        <ele>54</ele>
        <time>2020-10-17T11:24:19.000Z</time>
      </trkpt>
      <trkpt lat="47.30859" lon="-1.35709">
        <ele>54</ele>
        <time>2020-10-17T11:24:21.000Z</time>
      </trkpt>
      <trkpt lat="47.3085" lon="-1.3572">
        <ele>54</ele>
        <time>2020-10-17T11:24:23.000Z</time>
      </trkpt>
      <trkpt lat="47.3084" lon="-1.35732">
        <ele>54</ele>
        <time>2020-10-17T11:24:25.000Z</time>
      </trkpt>
      <trkpt lat="47.3083" lon="-1.35743">
        <ele>54</ele>
        <time>2020-10-17T11:24:27.000Z</time>
      </trkpt>
      <trkpt lat="47.30821" lon="-1.35754">
        <ele>54</ele>
        <time>2020-10-17T11:24:29.000Z</time>
      </trkpt>
      <trkpt lat="47.30811" lon="-1.35765">
        <ele>54</ele>
        <time>2020-10-17T11:24:31.000Z</time>
      </trkpt>
      <trkpt lat="47.30802" lon="-1.35777">
        <ele>54</ele>
        <time>2020-10-17T11:24:33.000Z</time>
      </trkpt>
      <trkpt lat="47.30793" lon="-1.35788">
        <ele>54</ele>
        <time>2020-10-17T11:24:35.000Z</time>
      </trkpt>
      <trkpt lat="47.30783" lon="-1.35799">
        <ele>54</ele>
        <time>2020-10-17T11:24:37.000Z</time>
      </trkpt>
      <trkpt lat="47.30774" lon="-1.35809">
        <ele>54</ele>
        <time>2020-10-17T11:24:39.000Z</time>
      </trkpt>
      <trkpt lat="47.30765" lon="-1.35821">
        <ele>55</ele>
        <time>2020-10-17T11:24:41.000Z</time>
      </trkpt>
      <trkpt lat="47.30755" lon="-1.35832">
        <ele>55</ele>
        <time>2020-10-17T11:24:43.000Z</time>
      </trkpt>
      <trkpt lat="47.30746" lon="-1.35844">
        <ele>55</ele>
        <time>2020-10-17T11:24:45.000Z</time>
      </trkpt>
      <trkpt lat="47.30736" lon="-1.35854">
        <ele>55</ele>
        <time>2020-10-17T11:24:47.000Z</time>
      </trkpt>
      <trkpt lat="47.30727" lon="-1.35865">
        <ele>56</ele>
        <time>2020-10-17T11:24:49.000Z</time>
      </trkpt>
      <trkpt lat="47.30717" lon="-1.35875">
        <ele>56</ele>
        <time>2020-10-17T11:24:51.000Z</time>
      </trkpt>
      <trkpt lat="47.30707" lon="-1.35887">
        <ele>56</ele>
        <time>2020-10-17T11:24:53.000Z</time>
      </trkpt>
      <trkpt lat="47.30698" lon="-1.35898">
        <ele>56</ele>
        <time>2020-10-17T11:24:55.000Z</time>
      </trkpt>
      <trkpt lat="47.30689" lon="-1.35909">
        <ele>55</ele>
        <time>2020-10-17T11:24:57.000Z</time>
      </trkpt>
      <trkpt lat="47.30679" lon="-1.3592">
        <ele>55</ele>
        <time>2020-10-17T11:24:59.000Z</time>
      </trkpt>
      <trkpt lat="47.3067" lon="-1.35931">
        <ele>54</ele>
        <time>2020-10-17T11:25:01.000Z</time>
      </trkpt>
      <trkpt lat="47.3066" lon="-1.35942">
        <ele>54</ele>
        <time>2020-10-17T11:25:03.000Z</time>
      </trkpt>
      <trkpt lat="47.3065" lon="-1.35953">
        <ele>54</ele>
        <time>2020-10-17T11:25:05.000Z</time>
      </trkpt>
      <trkpt lat="47.30641" lon="-1.35965">
        <ele>54</ele>
        <time>2020-10-17T11:25:07.000Z</time>
      </trkpt>
      <trkpt lat="47.30631" lon="-1.35976">
        <ele>54</ele>
        <time>2020-10-17T11:25:09.000Z</time>
      </trkpt>
      <trkpt lat="47.30621" lon="-1.35988">
        <ele>54</ele>
        <time>2020-10-17T11:25:11.000Z</time>
      </trkpt>
      <trkpt lat="47.30611" lon="-1.35999">
        <ele>54</ele>
        <time>2020-10-17T11:25:13.000Z</time>
      </trkpt>
      <trkpt lat="47.30601" lon="-1.36009">
        <ele>54</ele>
        <time>2020-10-17T11:25:15.000Z</time>
      </trkpt>
      <trkpt lat="47.30592" lon="-1.36019">
        <ele>53</ele>
        <time>2020-10-17T11:25:17.000Z</time>
      </trkpt>
      <trkpt lat="47.30584" lon="-1.36027">
        <ele>53</ele>
        <time>2020-10-17T11:25:19.000Z</time>
      </trkpt>
      <trkpt lat="47.30582" lon="-1.3604">
        <ele>53</ele>
        <time>2020-10-17T11:25:21.000Z</time>
      </trkpt>
      <trkpt lat="47.30574" lon="-1.36051">
        <ele>54</ele>
        <time>2020-10-17T11:25:23.000Z</time>
      </trkpt>
      <trkpt lat="47.30565" lon="-1.36063">
        <ele>54</ele>
        <time>2020-10-17T11:25:25.000Z</time>
      </trkpt>
      <trkpt lat="47.30556" lon="-1.36076">
        <ele>54</ele>
        <time>2020-10-17T11:25:27.000Z</time>
      </trkpt>
      <trkpt lat="47.30547" lon="-1.36089">
        <ele>54</ele>
        <time>2020-10-17T11:25:29.000Z</time>
      </trkpt>
      <trkpt lat="47.30539" lon="-1.36102">
        <ele>54</ele>
        <time>2020-10-17T11:25:31.000Z</time>
      </trkpt>
      <trkpt lat="47.3053" lon="-1.36116">
        <ele>54</ele>
        <time>2020-10-17T11:25:33.000Z</time>
      </trkpt>
      <trkpt lat="47.30522" lon="-1.36129">
        <ele>54</ele>
        <time>2020-10-17T11:25:35.000Z</time>
      </trkpt>
      <trkpt lat="47.30514" lon="-1.36143">
        <ele>54</ele>
        <time>2020-10-17T11:25:37.000Z</time>
      </trkpt>
      <trkpt lat="47.30505" lon="-1.36157">
        <ele>54</ele>
        <time>2020-10-17T11:25:39.000Z</time>
      </trkpt>
      <trkpt lat="47.30497" lon="-1.36171">
        <ele>54</ele>
        <time>2020-10-17T11:25:41.000Z</time>
      </trkpt>
      <trkpt lat="47.3049" lon="-1.36185">
        <ele>54</ele>
        <time>2020-10-17T11:25:43.000Z</time>
      </trkpt>
      <trkpt lat="47.30482" lon="-1.362">
        <ele>54</ele>
        <time>2020-10-17T11:25:45.000Z</time>
      </trkpt>
      <trkpt lat="47.30475" lon="-1.36214">
        <ele>55</ele>
        <time>2020-10-17T11:25:47.000Z</time>
      </trkpt>
      <trkpt lat="47.30467" lon="-1.3623">
        <ele>55</ele>
        <time>2020-10-17T11:25:49.000Z</time>
      </trkpt>
      <trkpt lat="47.3046" lon="-1.36245">
        <ele>54</ele>
        <time>2020-10-17T11:25:51.000Z</time>
      </trkpt>
      <trkpt lat="47.30453" lon="-1.36261">
        <ele>54</ele>
        <time>2020-10-17T11:25:53.000Z</time>
      </trkpt>
      <trkpt lat="47.30445" lon="-1.36275">
        <ele>54</ele>
        <time>2020-10-17T11:25:55.000Z</time>
      </trkpt>
      <trkpt lat="47.30438" lon="-1.36289">
        <ele>54</ele>
        <time>2020-10-17T11:25:57.000Z</time>
      </trkpt>
      <trkpt lat="47.30431" lon="-1.36304">
        <ele>54</ele>
        <time>2020-10-17T11:25:59.000Z</time>
      </trkpt>
      <trkpt lat="47.30424" lon="-1.36318">
        <ele>54</ele>
        <time>2020-10-17T11:26:01.000Z</time>
      </trkpt>
      <trkpt lat="47.30417" lon="-1.36333">
        <ele>54</ele>
        <time>2020-10-17T11:26:03.000Z</time>
      </trkpt>
      <trkpt lat="47.3041" lon="-1.36347">
        <ele>54</ele>
        <time>2020-10-17T11:26:05.000Z</time>
      </trkpt>
      <trkpt lat="47.30404" lon="-1.36361">
        <ele>54</ele>
        <time>2020-10-17T11:26:07.000Z</time>
      </trkpt>
      <trkpt lat="47.30397" lon="-1.36375">
        <ele>54</ele>
        <time>2020-10-17T11:26:09.000Z</time>
      </trkpt>
      <trkpt lat="47.3039" lon="-1.3639">
        <ele>54</ele>
        <time>2020-10-17T11:26:11.000Z</time>
      </trkpt>
      <trkpt lat="47.30383" lon="-1.36405">
        <ele>54</ele>
        <time>2020-10-17T11:26:13.000Z</time>
      </trkpt>
      <trkpt lat="47.30376" lon="-1.3642">
        <ele>55</ele>
        <time>2020-10-17T11:26:15.000Z</time>
      </trkpt>
      <trkpt lat="47.30369" lon="-1.36434">
        <ele>55</ele>
        <time>2020-10-17T11:26:17.000Z</time>
      </trkpt>
      <trkpt lat="47.30362" lon="-1.36448">
        <ele>55</ele>
        <time>2020-10-17T11:26:19.000Z</time>
      </trkpt>
      <trkpt lat="47.30355" lon="-1.36463">
        <ele>56</ele>
        <time>2020-10-17T11:26:21.000Z</time>
      </trkpt>
      <trkpt lat="47.30348" lon="-1.36477">
        <ele>56</ele>
        <time>2020-10-17T11:26:23.000Z</time>
      </trkpt>
      <trkpt lat="47.30341" lon="-1.36492">
        <ele>55</ele>
        <time>2020-10-17T11:26:25.000Z</time>
      </trkpt>
      <trkpt lat="47.30333" lon="-1.36507">
        <ele>55</ele>
        <time>2020-10-17T11:26:27.000Z</time>
      </trkpt>
      <trkpt lat="47.30326" lon="-1.36521">
        <ele>55</ele>
        <time>2020-10-17T11:26:29.000Z</time>
      </trkpt>
      <trkpt lat="47.3032" lon="-1.36536">
        <ele>56</ele>
        <time>2020-10-17T11:26:31.000Z</time>
      </trkpt>
      <trkpt lat="47.30313" lon="-1.36551">
        <ele>56</ele>
        <time>2020-10-17T11:26:33.000Z</time>
      </trkpt>
      <trkpt lat="47.30305" lon="-1.36566">
        <ele>56</ele>
        <time>2020-10-17T11:26:35.000Z</time>
      </trkpt>
      <trkpt lat="47.30297" lon="-1.3658">
        <ele>55</ele>
        <time>2020-10-17T11:26:37.000Z</time>
      </trkpt>
      <trkpt lat="47.30291" lon="-1.36593">
        <ele>55</ele>
        <time>2020-10-17T11:26:39.000Z</time>
      </trkpt>
      <trkpt lat="47.30284" lon="-1.36607">
        <ele>55</ele>
        <time>2020-10-17T11:26:41.000Z</time>
      </trkpt>
      <trkpt lat="47.30277" lon="-1.36621">
        <ele>55</ele>
        <time>2020-10-17T11:26:43.000Z</time>
      </trkpt>
      <trkpt lat="47.3027" lon="-1.36636">
        <ele>54</ele>
        <time>2020-10-17T11:26:45.000Z</time>
      </trkpt>
      <trkpt lat="47.30262" lon="-1.36651">
        <ele>54</ele>
        <time>2020-10-17T11:26:47.000Z</time>
      </trkpt>
      <trkpt lat="47.30255" lon="-1.36667">
        <ele>54</ele>
        <time>2020-10-17T11:26:49.000Z</time>
      </trkpt>
      <trkpt lat="47.30248" lon="-1.36682">
        <ele>55</ele>
        <time>2020-10-17T11:26:51.000Z</time>
      </trkpt>
      <trkpt lat="47.30241" lon="-1.36697">
        <ele>55</ele>
        <time>2020-10-17T11:26:53.000Z</time>
      </trkpt>
      <trkpt lat="47.30233" lon="-1.36711">
        <ele>54</ele>
        <time>2020-10-17T11:26:55.000Z</time>
      </trkpt>
      <trkpt lat="47.30226" lon="-1.36725">
        <ele>54</ele>
        <time>2020-10-17T11:26:57.000Z</time>
      </trkpt>
      <trkpt lat="47.30219" lon="-1.3674">
        <ele>54</ele>
        <time>2020-10-17T11:26:59.000Z</time>
      </trkpt>
      <trkpt lat="47.30212" lon="-1.36755">
        <ele>53</ele>
        <time>2020-10-17T11:27:01.000Z</time>
      </trkpt>
      <trkpt lat="47.30205" lon="-1.36769">
        <ele>53</ele>
        <time>2020-10-17T11:27:03.000Z</time>
      </trkpt>
      <trkpt lat="47.30198" lon="-1.36784">
        <ele>53</ele>
        <time>2020-10-17T11:27:05.000Z</time>
      </trkpt>
      <trkpt lat="47.30191" lon="-1.36799">
        <ele>52</ele>
        <time>2020-10-17T11:27:07.000Z</time>
      </trkpt>
      <trkpt lat="47.30184" lon="-1.36813">
        <ele>52</ele>
        <time>2020-10-17T11:27:09.000Z</time>
      </trkpt>
      <trkpt lat="47.30176" lon="-1.36828">
        <ele>52</ele>
        <time>2020-10-17T11:27:11.000Z</time>
      </trkpt>
      <trkpt lat="47.3017" lon="-1.36843">
        <ele>53</ele>
        <time>2020-10-17T11:27:13.000Z</time>
      </trkpt>
      <trkpt lat="47.3016" lon="-1.36864">
        <ele>52</ele>
        <time>2020-10-17T11:27:16.000Z</time>
      </trkpt>
      <trkpt lat="47.30153" lon="-1.36877">
        <ele>52</ele>
        <time>2020-10-17T11:27:18.000Z</time>
      </trkpt>
      <trkpt lat="47.30146" lon="-1.36893">
        <ele>53</ele>
        <time>2020-10-17T11:27:20.000Z</time>
      </trkpt>
      <trkpt lat="47.30139" lon="-1.36908">
        <ele>53</ele>
        <time>2020-10-17T11:27:22.000Z</time>
      </trkpt>
      <trkpt lat="47.30131" lon="-1.36922">
        <ele>53</ele>
        <time>2020-10-17T11:27:24.000Z</time>
      </trkpt>
      <trkpt lat="47.30124" lon="-1.36937">
        <ele>53</ele>
        <time>2020-10-17T11:27:26.000Z</time>
      </trkpt>
      <trkpt lat="47.30119" lon="-1.36953">
        <ele>53</ele>
        <time>2020-10-17T11:27:28.000Z</time>
      </trkpt>
      <trkpt lat="47.30114" lon="-1.36968">
        <ele>53</ele>
        <time>2020-10-17T11:27:30.000Z</time>
      </trkpt>
      <trkpt lat="47.30107" lon="-1.36982">
        <ele>53</ele>
        <time>2020-10-17T11:27:32.000Z</time>
      </trkpt>
      <trkpt lat="47.30099" lon="-1.36996">
        <ele>52</ele>
        <time>2020-10-17T11:27:34.000Z</time>
      </trkpt>
      <trkpt lat="47.30091" lon="-1.3701">
        <ele>53</ele>
        <time>2020-10-17T11:27:36.000Z</time>
      </trkpt>
      <trkpt lat="47.30084" lon="-1.37024">
        <ele>53</ele>
        <time>2020-10-17T11:27:38.000Z</time>
      </trkpt>
      <trkpt lat="47.30076" lon="-1.37038">
        <ele>53</ele>
        <time>2020-10-17T11:27:40.000Z</time>
      </trkpt>
      <trkpt lat="47.30068" lon="-1.37052">
        <ele>53</ele>
        <time>2020-10-17T11:27:42.000Z</time>
      </trkpt>
      <trkpt lat="47.30061" lon="-1.37066">
        <ele>53</ele>
        <time>2020-10-17T11:27:44.000Z</time>
      </trkpt>
      <trkpt lat="47.30053" lon="-1.3708">
        <ele>53</ele>
        <time>2020-10-17T11:27:46.000Z</time>
      </trkpt>
      <trkpt lat="47.30045" lon="-1.37094">
        <ele>53</ele>
        <time>2020-10-17T11:27:48.000Z</time>
      </trkpt>
      <trkpt lat="47.30037" lon="-1.37107">
        <ele>54</ele>
        <time>2020-10-17T11:27:50.000Z</time>
      </trkpt>
      <trkpt lat="47.30028" lon="-1.3712">
        <ele>54</ele>
        <time>2020-10-17T11:27:52.000Z</time>
      </trkpt>
      <trkpt lat="47.3002" lon="-1.37133">
        <ele>54</ele>
        <time>2020-10-17T11:27:54.000Z</time>
      </trkpt>
      <trkpt lat="47.30012" lon="-1.37147">
        <ele>54</ele>
        <time>2020-10-17T11:27:56.000Z</time>
      </trkpt>
      <trkpt lat="47.30003" lon="-1.3716">
        <ele>54</ele>
        <time>2020-10-17T11:27:58.000Z</time>
      </trkpt>
      <trkpt lat="47.29995" lon="-1.37172">
        <ele>53</ele>
        <time>2020-10-17T11:28:00.000Z</time>
      </trkpt>
      <trkpt lat="47.29987" lon="-1.37186">
        <ele>53</ele>
        <time>2020-10-17T11:28:02.000Z</time>
      </trkpt>
      <trkpt lat="47.29973" lon="-1.37206">
        <ele>54</ele>
        <time>2020-10-17T11:28:05.000Z</time>
      </trkpt>
      <trkpt lat="47.29962" lon="-1.37224">
        <ele>54</ele>
        <time>2020-10-17T11:28:08.000Z</time>
      </trkpt>
      <trkpt lat="47.2995" lon="-1.37243">
        <ele>55</ele>
        <time>2020-10-17T11:28:11.000Z</time>
      </trkpt>
      <trkpt lat="47.29937" lon="-1.37262">
        <ele>54</ele>
        <time>2020-10-17T11:28:14.000Z</time>
      </trkpt>
      <trkpt lat="47.29929" lon="-1.37275">
        <ele>54</ele>
        <time>2020-10-17T11:28:16.000Z</time>
      </trkpt>
      <trkpt lat="47.29921" lon="-1.37288">
        <ele>55</ele>
        <time>2020-10-17T11:28:18.000Z</time>
      </trkpt>
      <trkpt lat="47.29912" lon="-1.37302">
        <ele>54</ele>
        <time>2020-10-17T11:28:20.000Z</time>
      </trkpt>
      <trkpt lat="47.29904" lon="-1.37314">
        <ele>54</ele>
        <time>2020-10-17T11:28:22.000Z</time>
      </trkpt>
      <trkpt lat="47.29895" lon="-1.37327">
        <ele>55</ele>
        <time>2020-10-17T11:28:24.000Z</time>
      </trkpt>
      <trkpt lat="47.29887" lon="-1.3734">
        <ele>55</ele>
        <time>2020-10-17T11:28:26.000Z</time>
      </trkpt>
      <trkpt lat="47.29878" lon="-1.37354">
        <ele>54</ele>
        <time>2020-10-17T11:28:28.000Z</time>
      </trkpt>
      <trkpt lat="47.2987" lon="-1.37368">
        <ele>54</ele>
        <time>2020-10-17T11:28:30.000Z</time>
      </trkpt>
      <trkpt lat="47.29862" lon="-1.3738">
        <ele>54</ele>
        <time>2020-10-17T11:28:32.000Z</time>
      </trkpt>
      <trkpt lat="47.29853" lon="-1.37393">
        <ele>54</ele>
        <time>2020-10-17T11:28:34.000Z</time>
      </trkpt>
      <trkpt lat="47.29845" lon="-1.37405">
        <ele>54</ele>
        <time>2020-10-17T11:28:36.000Z</time>
      </trkpt>
      <trkpt lat="47.29837" lon="-1.37418">
        <ele>54</ele>
        <time>2020-10-17T11:28:38.000Z</time>
      </trkpt>
      <trkpt lat="47.29829" lon="-1.37429">
        <ele>54</ele>
        <time>2020-10-17T11:28:40.000Z</time>
      </trkpt>
      <trkpt lat="47.29821" lon="-1.37441">
        <ele>54</ele>
        <time>2020-10-17T11:28:42.000Z</time>
      </trkpt>
      <trkpt lat="47.2981" lon="-1.37459">
        <ele>54</ele>
        <time>2020-10-17T11:28:45.000Z</time>
      </trkpt>
      <trkpt lat="47.29801" lon="-1.37472">
        <ele>55</ele>
        <time>2020-10-17T11:28:47.000Z</time>
      </trkpt>
      <trkpt lat="47.29793" lon="-1.37486">
        <ele>54</ele>
        <time>2020-10-17T11:28:49.000Z</time>
      </trkpt>
      <trkpt lat="47.29785" lon="-1.375">
        <ele>55</ele>
        <time>2020-10-17T11:28:51.000Z</time>
      </trkpt>
      <trkpt lat="47.29777" lon="-1.37514">
        <ele>54</ele>
        <time>2020-10-17T11:28:53.000Z</time>
      </trkpt>
      <trkpt lat="47.2977" lon="-1.37528">
        <ele>54</ele>
        <time>2020-10-17T11:28:55.000Z</time>
      </trkpt>
      <trkpt lat="47.29762" lon="-1.37542">
        <ele>54</ele>
        <time>2020-10-17T11:28:57.000Z</time>
      </trkpt>
      <trkpt lat="47.29755" lon="-1.37556">
        <ele>54</ele>
        <time>2020-10-17T11:28:59.000Z</time>
      </trkpt>
      <trkpt lat="47.29744" lon="-1.37579">
        <ele>54</ele>
        <time>2020-10-17T11:29:02.000Z</time>
      </trkpt>
      <trkpt lat="47.29736" lon="-1.37593">
        <ele>54</ele>
        <time>2020-10-17T11:29:04.000Z</time>
      </trkpt>
      <trkpt lat="47.29728" lon="-1.37607">
        <ele>54</ele>
        <time>2020-10-17T11:29:06.000Z</time>
      </trkpt>
      <trkpt lat="47.29721" lon="-1.37622">
        <ele>54</ele>
        <time>2020-10-17T11:29:08.000Z</time>
      </trkpt>
      <trkpt lat="47.29714" lon="-1.37636">
        <ele>54</ele>
        <time>2020-10-17T11:29:10.000Z</time>
      </trkpt>
      <trkpt lat="47.29707" lon="-1.37652">
        <ele>54</ele>
        <time>2020-10-17T11:29:12.000Z</time>
      </trkpt>
      <trkpt lat="47.297" lon="-1.37666">
        <ele>54</ele>
        <time>2020-10-17T11:29:14.000Z</time>
      </trkpt>
      <trkpt lat="47.29693" lon="-1.3768">
        <ele>54</ele>
        <time>2020-10-17T11:29:16.000Z</time>
      </trkpt>
      <trkpt lat="47.29683" lon="-1.37701">
        <ele>54</ele>
        <time>2020-10-17T11:29:19.000Z</time>
      </trkpt>
      <trkpt lat="47.29675" lon="-1.37715">
        <ele>54</ele>
        <time>2020-10-17T11:29:21.000Z</time>
      </trkpt>
      <trkpt lat="47.29668" lon="-1.37729">
        <ele>55</ele>
        <time>2020-10-17T11:29:23.000Z</time>
      </trkpt>
      <trkpt lat="47.2966" lon="-1.37743">
        <ele>54</ele>
        <time>2020-10-17T11:29:25.000Z</time>
      </trkpt>
      <trkpt lat="47.29653" lon="-1.37756">
        <ele>54</ele>
        <time>2020-10-17T11:29:27.000Z</time>
      </trkpt>
      <trkpt lat="47.29646" lon="-1.3777">
        <ele>54</ele>
        <time>2020-10-17T11:29:29.000Z</time>
      </trkpt>
      <trkpt lat="47.2964" lon="-1.37783">
        <ele>54</ele>
        <time>2020-10-17T11:29:31.000Z</time>
      </trkpt>
      <trkpt lat="47.29631" lon="-1.37796">
        <ele>54</ele>
        <time>2020-10-17T11:29:33.000Z</time>
      </trkpt>
      <trkpt lat="47.29624" lon="-1.37808">
        <ele>55</ele>
        <time>2020-10-17T11:29:35.000Z</time>
      </trkpt>
      <trkpt lat="47.29617" lon="-1.37822">
        <ele>54</ele>
        <time>2020-10-17T11:29:37.000Z</time>
      </trkpt>
      <trkpt lat="47.2961" lon="-1.37836">
        <ele>54</ele>
        <time>2020-10-17T11:29:39.000Z</time>
      </trkpt>
      <trkpt lat="47.29604" lon="-1.37851">
        <ele>54</ele>
        <time>2020-10-17T11:29:41.000Z</time>
      </trkpt>
      <trkpt lat="47.29598" lon="-1.37866">
        <ele>53</ele>
        <time>2020-10-17T11:29:43.000Z</time>
      </trkpt>
      <trkpt lat="47.29591" lon="-1.37881">
        <ele>54</ele>
        <time>2020-10-17T11:29:45.000Z</time>
      </trkpt>
      <trkpt lat="47.29584" lon="-1.37896">
        <ele>54</ele>
        <time>2020-10-17T11:29:47.000Z</time>
      </trkpt>
      <trkpt lat="47.29579" lon="-1.3791">
        <ele>55</ele>
        <time>2020-10-17T11:29:49.000Z</time>
      </trkpt>
      <trkpt lat="47.29572" lon="-1.37925">
        <ele>55</ele>
        <time>2020-10-17T11:29:51.000Z</time>
      </trkpt>
      <trkpt lat="47.29565" lon="-1.37939">
        <ele>55</ele>
        <time>2020-10-17T11:29:53.000Z</time>
      </trkpt>
      <trkpt lat="47.29559" lon="-1.37954">
        <ele>55</ele>
        <time>2020-10-17T11:29:55.000Z</time>
      </trkpt>
      <trkpt lat="47.29554" lon="-1.37969">
        <ele>54</ele>
        <time>2020-10-17T11:29:57.000Z</time>
      </trkpt>
      <trkpt lat="47.29548" lon="-1.37985">
        <ele>55</ele>
        <time>2020-10-17T11:29:59.000Z</time>
      </trkpt>
      <trkpt lat="47.29543" lon="-1.38">
        <ele>55</ele>
        <time>2020-10-17T11:30:01.000Z</time>
      </trkpt>
      <trkpt lat="47.29537" lon="-1.38015">
        <ele>55</ele>
        <time>2020-10-17T11:30:03.000Z</time>
      </trkpt>
      <trkpt lat="47.29531" lon="-1.3803">
        <ele>55</ele>
        <time>2020-10-17T11:30:05.000Z</time>
      </trkpt>
      <trkpt lat="47.29526" lon="-1.38046">
        <ele>54</ele>
        <time>2020-10-17T11:30:07.000Z</time>
      </trkpt>
      <trkpt lat="47.2952" lon="-1.38061">
        <ele>54</ele>
        <time>2020-10-17T11:30:09.000Z</time>
      </trkpt>
      <trkpt lat="47.29516" lon="-1.38077">
        <ele>54</ele>
        <time>2020-10-17T11:30:11.000Z</time>
      </trkpt>
      <trkpt lat="47.29511" lon="-1.38093">
        <ele>55</ele>
        <time>2020-10-17T11:30:13.000Z</time>
      </trkpt>
      <trkpt lat="47.29507" lon="-1.3811">
        <ele>55</ele>
        <time>2020-10-17T11:30:15.000Z</time>
      </trkpt>
      <trkpt lat="47.29503" lon="-1.38126">
        <ele>55</ele>
        <time>2020-10-17T11:30:17.000Z</time>
      </trkpt>
      <trkpt lat="47.29499" lon="-1.38143">
        <ele>55</ele>
        <time>2020-10-17T11:30:19.000Z</time>
      </trkpt>
      <trkpt lat="47.29495" lon="-1.38159">
        <ele>55</ele>
        <time>2020-10-17T11:30:21.000Z</time>
      </trkpt>
      <trkpt lat="47.2949" lon="-1.38175">
        <ele>55</ele>
        <time>2020-10-17T11:30:23.000Z</time>
      </trkpt>
      <trkpt lat="47.29486" lon="-1.38191">
        <ele>55</ele>
        <time>2020-10-17T11:30:25.000Z</time>
      </trkpt>
      <trkpt lat="47.29482" lon="-1.38207">
        <ele>55</ele>
        <time>2020-10-17T11:30:27.000Z</time>
      </trkpt>
      <trkpt lat="47.29477" lon="-1.38223">
        <ele>54</ele>
        <time>2020-10-17T11:30:29.000Z</time>
      </trkpt>
      <trkpt lat="47.29473" lon="-1.38239">
        <ele>54</ele>
        <time>2020-10-17T11:30:31.000Z</time>
      </trkpt>
      <trkpt lat="47.29469" lon="-1.38255">
        <ele>54</ele>
        <time>2020-10-17T11:30:33.000Z</time>
      </trkpt>
      <trkpt lat="47.29464" lon="-1.38271">
        <ele>55</ele>
        <time>2020-10-17T11:30:35.000Z</time>
      </trkpt>
      <trkpt lat="47.2946" lon="-1.38287">
        <ele>55</ele>
        <time>2020-10-17T11:30:37.000Z</time>
      </trkpt>
      <trkpt lat="47.29455" lon="-1.38302">
        <ele>55</ele>
        <time>2020-10-17T11:30:39.000Z</time>
      </trkpt>
      <trkpt lat="47.2945" lon="-1.38316">
        <ele>56</ele>
        <time>2020-10-17T11:30:41.000Z</time>
      </trkpt>
      <trkpt lat="47.29444" lon="-1.38328">
        <ele>56</ele>
        <time>2020-10-17T11:30:43.000Z</time>
      </trkpt>
      <trkpt lat="47.29439" lon="-1.38342">
        <ele>56</ele>
        <time>2020-10-17T11:30:45.000Z</time>
      </trkpt>
      <trkpt lat="47.29437" lon="-1.38359">
        <ele>55</ele>
        <time>2020-10-17T11:30:47.000Z</time>
      </trkpt>
      <trkpt lat="47.29434" lon="-1.38377">
        <ele>55</ele>
        <time>2020-10-17T11:30:49.000Z</time>
      </trkpt>
      <trkpt lat="47.2943" lon="-1.38395">
        <ele>54</ele>
        <time>2020-10-17T11:30:51.000Z</time>
      </trkpt>
      <trkpt lat="47.29425" lon="-1.38413">
        <ele>54</ele>
        <time>2020-10-17T11:30:53.000Z</time>
      </trkpt>
      <trkpt lat="47.2942" lon="-1.38433">
        <ele>54</ele>
        <time>2020-10-17T11:30:55.000Z</time>
      </trkpt>
      <trkpt lat="47.29415" lon="-1.38453">
        <ele>53</ele>
        <time>2020-10-17T11:30:57.000Z</time>
      </trkpt>
      <trkpt lat="47.2941" lon="-1.38471">
        <ele>54</ele>
        <time>2020-10-17T11:30:59.000Z</time>
      </trkpt>
      <trkpt lat="47.29405" lon="-1.3849">
        <ele>54</ele>
        <time>2020-10-17T11:31:01.000Z</time>
      </trkpt>
      <trkpt lat="47.29399" lon="-1.38508">
        <ele>54</ele>
        <time>2020-10-17T11:31:03.000Z</time>
      </trkpt>
      <trkpt lat="47.29394" lon="-1.38527">
        <ele>54</ele>
        <time>2020-10-17T11:31:05.000Z</time>
      </trkpt>
      <trkpt lat="47.29389" lon="-1.38545">
        <ele>54</ele>
        <time>2020-10-17T11:31:07.000Z</time>
      </trkpt>
      <trkpt lat="47.29384" lon="-1.38564">
        <ele>54</ele>
        <time>2020-10-17T11:31:09.000Z</time>
      </trkpt>
      <trkpt lat="47.29378" lon="-1.38582">
        <ele>54</ele>
        <time>2020-10-17T11:31:11.000Z</time>
      </trkpt>
      <trkpt lat="47.29373" lon="-1.38601">
        <ele>54</ele>
        <time>2020-10-17T11:31:13.000Z</time>
      </trkpt>
      <trkpt lat="47.29368" lon="-1.3862">
        <ele>55</ele>
        <time>2020-10-17T11:31:15.000Z</time>
      </trkpt>
      <trkpt lat="47.29362" lon="-1.38638">
        <ele>55</ele>
        <time>2020-10-17T11:31:17.000Z</time>
      </trkpt>
      <trkpt lat="47.29358" lon="-1.38657">
        <ele>55</ele>
        <time>2020-10-17T11:31:19.000Z</time>
      </trkpt>
      <trkpt lat="47.29352" lon="-1.38676">
        <ele>55</ele>
        <time>2020-10-17T11:31:21.000Z</time>
      </trkpt>
      <trkpt lat="47.29347" lon="-1.38694">
        <ele>55</ele>
        <time>2020-10-17T11:31:23.000Z</time>
      </trkpt>
      <trkpt lat="47.29341" lon="-1.38712">
        <ele>55</ele>
        <time>2020-10-17T11:31:25.000Z</time>
      </trkpt>
      <trkpt lat="47.29336" lon="-1.38731">
        <ele>55</ele>
        <time>2020-10-17T11:31:27.000Z</time>
      </trkpt>
      <trkpt lat="47.29331" lon="-1.3875">
        <ele>55</ele>
        <time>2020-10-17T11:31:29.000Z</time>
      </trkpt>
      <trkpt lat="47.29323" lon="-1.38778">
        <ele>55</ele>
        <time>2020-10-17T11:31:32.000Z</time>
      </trkpt>
      <trkpt lat="47.29318" lon="-1.38797">
        <ele>55</ele>
        <time>2020-10-17T11:31:34.000Z</time>
      </trkpt>
      <trkpt lat="47.29313" lon="-1.38815">
        <ele>55</ele>
        <time>2020-10-17T11:31:36.000Z</time>
      </trkpt>
      <trkpt lat="47.29308" lon="-1.38833">
        <ele>56</ele>
        <time>2020-10-17T11:31:38.000Z</time>
      </trkpt>
      <trkpt lat="47.29303" lon="-1.38852">
        <ele>55</ele>
        <time>2020-10-17T11:31:40.000Z</time>
      </trkpt>
      <trkpt lat="47.29297" lon="-1.38871">
        <ele>55</ele>
        <time>2020-10-17T11:31:42.000Z</time>
      </trkpt>
      <trkpt lat="47.29292" lon="-1.3889">
        <ele>55</ele>
        <time>2020-10-17T11:31:44.000Z</time>
      </trkpt>
      <trkpt lat="47.29287" lon="-1.38908">
        <ele>55</ele>
        <time>2020-10-17T11:31:46.000Z</time>
      </trkpt>
      <trkpt lat="47.29282" lon="-1.38926">
        <ele>56</ele>
        <time>2020-10-17T11:31:48.000Z</time>
      </trkpt>
      <trkpt lat="47.29277" lon="-1.38944">
        <ele>56</ele>
        <time>2020-10-17T11:31:50.000Z</time>
      </trkpt>
      <trkpt lat="47.29273" lon="-1.38962">
        <ele>56</ele>
        <time>2020-10-17T11:31:52.000Z</time>
      </trkpt>
      <trkpt lat="47.29267" lon="-1.3898">
        <ele>56</ele>
        <time>2020-10-17T11:31:54.000Z</time>
      </trkpt>
      <trkpt lat="47.29263" lon="-1.38998">
        <ele>56</ele>
        <time>2020-10-17T11:31:56.000Z</time>
      </trkpt>
      <trkpt lat="47.29257" lon="-1.39017">
        <ele>56</ele>
        <time>2020-10-17T11:31:58.000Z</time>
      </trkpt>
      <trkpt lat="47.29252" lon="-1.39036">
        <ele>56</ele>
        <time>2020-10-17T11:32:00.000Z</time>
      </trkpt>
      <trkpt lat="47.29247" lon="-1.39053">
        <ele>56</ele>
        <time>2020-10-17T11:32:02.000Z</time>
      </trkpt>
      <trkpt lat="47.29242" lon="-1.39071">
        <ele>56</ele>
        <time>2020-10-17T11:32:04.000Z</time>
      </trkpt>
      <trkpt lat="47.29237" lon="-1.39089">
        <ele>56</ele>
        <time>2020-10-17T11:32:06.000Z</time>
      </trkpt>
      <trkpt lat="47.2923" lon="-1.39105">
        <ele>56</ele>
        <time>2020-10-17T11:32:08.000Z</time>
      </trkpt>
      <trkpt lat="47.29222" lon="-1.3912">
        <ele>56</ele>
        <time>2020-10-17T11:32:10.000Z</time>
      </trkpt>
      <trkpt lat="47.29212" lon="-1.39134">
        <ele>56</ele>
        <time>2020-10-17T11:32:12.000Z</time>
      </trkpt>
      <trkpt lat="47.29203" lon="-1.39147">
        <ele>56</ele>
        <time>2020-10-17T11:32:14.000Z</time>
      </trkpt>
      <trkpt lat="47.29192" lon="-1.3916">
        <ele>56</ele>
        <time>2020-10-17T11:32:16.000Z</time>
      </trkpt>
      <trkpt lat="47.29181" lon="-1.39172">
        <ele>56</ele>
        <time>2020-10-17T11:32:18.000Z</time>
      </trkpt>
      <trkpt lat="47.29171" lon="-1.39185">
        <ele>56</ele>
        <time>2020-10-17T11:32:20.000Z</time>
      </trkpt>
      <trkpt lat="47.2916" lon="-1.39198">
        <ele>56</ele>
        <time>2020-10-17T11:32:22.000Z</time>
      </trkpt>
      <trkpt lat="47.2915" lon="-1.39211">
        <ele>55</ele>
        <time>2020-10-17T11:32:24.000Z</time>
      </trkpt>
      <trkpt lat="47.29139" lon="-1.39225">
        <ele>55</ele>
        <time>2020-10-17T11:32:26.000Z</time>
      </trkpt>
      <trkpt lat="47.29129" lon="-1.39238">
        <ele>55</ele>
        <time>2020-10-17T11:32:28.000Z</time>
      </trkpt>
      <trkpt lat="47.29119" lon="-1.39252">
        <ele>55</ele>
        <time>2020-10-17T11:32:30.000Z</time>
      </trkpt>
      <trkpt lat="47.2911" lon="-1.39266">
        <ele>55</ele>
        <time>2020-10-17T11:32:32.000Z</time>
      </trkpt>
      <trkpt lat="47.29102" lon="-1.39281">
        <ele>55</ele>
        <time>2020-10-17T11:32:34.000Z</time>
      </trkpt>
      <trkpt lat="47.29095" lon="-1.39296">
        <ele>55</ele>
        <time>2020-10-17T11:32:36.000Z</time>
      </trkpt>
      <trkpt lat="47.29088" lon="-1.3931">
        <ele>56</ele>
        <time>2020-10-17T11:32:38.000Z</time>
      </trkpt>
      <trkpt lat="47.29077" lon="-1.39317">
        <ele>57</ele>
        <time>2020-10-17T11:32:40.000Z</time>
      </trkpt>
      <trkpt lat="47.29065" lon="-1.39322">
        <ele>56</ele>
        <time>2020-10-17T11:32:42.000Z</time>
      </trkpt>
      <trkpt lat="47.29052" lon="-1.3933">
        <ele>55</ele>
        <time>2020-10-17T11:32:44.000Z</time>
      </trkpt>
      <trkpt lat="47.2904" lon="-1.39344">
        <ele>54</ele>
        <time>2020-10-17T11:32:46.000Z</time>
      </trkpt>
      <trkpt lat="47.29028" lon="-1.39358">
        <ele>55</ele>
        <time>2020-10-17T11:32:48.000Z</time>
      </trkpt>
      <trkpt lat="47.29017" lon="-1.39373">
        <ele>54</ele>
        <time>2020-10-17T11:32:50.000Z</time>
      </trkpt>
      <trkpt lat="47.29006" lon="-1.39386">
        <ele>55</ele>
        <time>2020-10-17T11:32:52.000Z</time>
      </trkpt>
      <trkpt lat="47.28995" lon="-1.39398">
        <ele>55</ele>
        <time>2020-10-17T11:32:54.000Z</time>
      </trkpt>
      <trkpt lat="47.28983" lon="-1.39411">
        <ele>55</ele>
        <time>2020-10-17T11:32:56.000Z</time>
      </trkpt>
      <trkpt lat="47.28973" lon="-1.39425">
        <ele>55</ele>
        <time>2020-10-17T11:32:58.000Z</time>
      </trkpt>
      <trkpt lat="47.28962" lon="-1.39438">
        <ele>55</ele>
        <time>2020-10-17T11:33:00.000Z</time>
      </trkpt>
      <trkpt lat="47.28952" lon="-1.3945">
        <ele>55</ele>
        <time>2020-10-17T11:33:02.000Z</time>
      </trkpt>
      <trkpt lat="47.28941" lon="-1.39463">
        <ele>55</ele>
        <time>2020-10-17T11:33:04.000Z</time>
      </trkpt>
      <trkpt lat="47.28931" lon="-1.39477">
        <ele>55</ele>
        <time>2020-10-17T11:33:06.000Z</time>
      </trkpt>
      <trkpt lat="47.2892" lon="-1.39489">
        <ele>55</ele>
        <time>2020-10-17T11:33:08.000Z</time>
      </trkpt>
      <trkpt lat="47.2891" lon="-1.39501">
        <ele>55</ele>
        <time>2020-10-17T11:33:10.000Z</time>
      </trkpt>
      <trkpt lat="47.289" lon="-1.39513">
        <ele>55</ele>
        <time>2020-10-17T11:33:12.000Z</time>
      </trkpt>
      <trkpt lat="47.2889" lon="-1.39526">
        <ele>55</ele>
        <time>2020-10-17T11:33:14.000Z</time>
      </trkpt>
      <trkpt lat="47.28879" lon="-1.39538">
        <ele>55</ele>
        <time>2020-10-17T11:33:16.000Z</time>
      </trkpt>
      <trkpt lat="47.28869" lon="-1.39551">
        <ele>55</ele>
        <time>2020-10-17T11:33:18.000Z</time>
      </trkpt>
      <trkpt lat="47.28858" lon="-1.39563">
        <ele>55</ele>
        <time>2020-10-17T11:33:20.000Z</time>
      </trkpt>
      <trkpt lat="47.28848" lon="-1.39575">
        <ele>55</ele>
        <time>2020-10-17T11:33:22.000Z</time>
      </trkpt>
      <trkpt lat="47.28838" lon="-1.39587">
        <ele>55</ele>
        <time>2020-10-17T11:33:24.000Z</time>
      </trkpt>
      <trkpt lat="47.28828" lon="-1.39598">
        <ele>55</ele>
        <time>2020-10-17T11:33:26.000Z</time>
      </trkpt>
      <trkpt lat="47.28818" lon="-1.39611">
        <ele>55</ele>
        <time>2020-10-17T11:33:28.000Z</time>
      </trkpt>
      <trkpt lat="47.28808" lon="-1.39623">
        <ele>55</ele>
        <time>2020-10-17T11:33:30.000Z</time>
      </trkpt>
      <trkpt lat="47.28798" lon="-1.39635">
        <ele>55</ele>
        <time>2020-10-17T11:33:32.000Z</time>
      </trkpt>
      <trkpt lat="47.28788" lon="-1.39647">
        <ele>55</ele>
        <time>2020-10-17T11:33:34.000Z</time>
      </trkpt>
      <trkpt lat="47.28778" lon="-1.3966">
        <ele>55</ele>
        <time>2020-10-17T11:33:36.000Z</time>
      </trkpt>
      <trkpt lat="47.28768" lon="-1.39672">
        <ele>56</ele>
        <time>2020-10-17T11:33:38.000Z</time>
      </trkpt>
      <trkpt lat="47.28759" lon="-1.39683">
        <ele>55</ele>
        <time>2020-10-17T11:33:40.000Z</time>
      </trkpt>
      <trkpt lat="47.28749" lon="-1.39696">
        <ele>55</ele>
        <time>2020-10-17T11:33:42.000Z</time>
      </trkpt>
      <trkpt lat="47.28739" lon="-1.39708">
        <ele>55</ele>
        <time>2020-10-17T11:33:44.000Z</time>
      </trkpt>
      <trkpt lat="47.28729" lon="-1.39719">
        <ele>55</ele>
        <time>2020-10-17T11:33:46.000Z</time>
      </trkpt>
      <trkpt lat="47.28719" lon="-1.39731">
        <ele>55</ele>
        <time>2020-10-17T11:33:48.000Z</time>
      </trkpt>
      <trkpt lat="47.28709" lon="-1.39744">
        <ele>55</ele>
        <time>2020-10-17T11:33:50.000Z</time>
      </trkpt>
      <trkpt lat="47.28698" lon="-1.39756">
        <ele>55</ele>
        <time>2020-10-17T11:33:52.000Z</time>
      </trkpt>
      <trkpt lat="47.28688" lon="-1.39768">
        <ele>55</ele>
        <time>2020-10-17T11:33:54.000Z</time>
      </trkpt>
      <trkpt lat="47.28678" lon="-1.3978">
        <ele>55</ele>
        <time>2020-10-17T11:33:56.000Z</time>
      </trkpt>
      <trkpt lat="47.28668" lon="-1.39794">
        <ele>54</ele>
        <time>2020-10-17T11:33:58.000Z</time>
      </trkpt>
      <trkpt lat="47.28659" lon="-1.39807">
        <ele>54</ele>
        <time>2020-10-17T11:34:00.000Z</time>
      </trkpt>
      <trkpt lat="47.2865" lon="-1.3982">
        <ele>54</ele>
        <time>2020-10-17T11:34:02.000Z</time>
      </trkpt>
      <trkpt lat="47.2864" lon="-1.39834">
        <ele>54</ele>
        <time>2020-10-17T11:34:04.000Z</time>
      </trkpt>
      <trkpt lat="47.28631" lon="-1.39848">
        <ele>54</ele>
        <time>2020-10-17T11:34:06.000Z</time>
      </trkpt>
      <trkpt lat="47.28623" lon="-1.39862">
        <ele>53</ele>
        <time>2020-10-17T11:34:08.000Z</time>
      </trkpt>
      <trkpt lat="47.28614" lon="-1.39876">
        <ele>53</ele>
        <time>2020-10-17T11:34:10.000Z</time>
      </trkpt>
      <trkpt lat="47.28605" lon="-1.3989">
        <ele>53</ele>
        <time>2020-10-17T11:34:12.000Z</time>
      </trkpt>
      <trkpt lat="47.28597" lon="-1.39903">
        <ele>53</ele>
        <time>2020-10-17T11:34:14.000Z</time>
      </trkpt>
      <trkpt lat="47.28588" lon="-1.39916">
        <ele>53</ele>
        <time>2020-10-17T11:34:16.000Z</time>
      </trkpt>
      <trkpt lat="47.28579" lon="-1.3993">
        <ele>53</ele>
        <time>2020-10-17T11:34:18.000Z</time>
      </trkpt>
      <trkpt lat="47.2857" lon="-1.39944">
        <ele>52</ele>
        <time>2020-10-17T11:34:20.000Z</time>
      </trkpt>
      <trkpt lat="47.28561" lon="-1.39958">
        <ele>52</ele>
        <time>2020-10-17T11:34:22.000Z</time>
      </trkpt>
      <trkpt lat="47.28552" lon="-1.39971">
        <ele>52</ele>
        <time>2020-10-17T11:34:24.000Z</time>
      </trkpt>
      <trkpt lat="47.28542" lon="-1.39984">
        <ele>53</ele>
        <time>2020-10-17T11:34:26.000Z</time>
      </trkpt>
      <trkpt lat="47.28533" lon="-1.39997">
        <ele>53</ele>
        <time>2020-10-17T11:34:28.000Z</time>
      </trkpt>
      <trkpt lat="47.28523" lon="-1.40009">
        <ele>53</ele>
        <time>2020-10-17T11:34:30.000Z</time>
      </trkpt>
      <trkpt lat="47.28515" lon="-1.40021">
        <ele>53</ele>
        <time>2020-10-17T11:34:32.000Z</time>
      </trkpt>
      <trkpt lat="47.28507" lon="-1.40035">
        <ele>53</ele>
        <time>2020-10-17T11:34:34.000Z</time>
      </trkpt>
      <trkpt lat="47.28499" lon="-1.4005">
        <ele>54</ele>
        <time>2020-10-17T11:34:36.000Z</time>
      </trkpt>
      <trkpt lat="47.28492" lon="-1.40065">
        <ele>53</ele>
        <time>2020-10-17T11:34:38.000Z</time>
      </trkpt>
      <trkpt lat="47.28485" lon="-1.4008">
        <ele>54</ele>
        <time>2020-10-17T11:34:40.000Z</time>
      </trkpt>
      <trkpt lat="47.28478" lon="-1.40097">
        <ele>54</ele>
        <time>2020-10-17T11:34:42.000Z</time>
      </trkpt>
      <trkpt lat="47.28471" lon="-1.40113">
        <ele>54</ele>
        <time>2020-10-17T11:34:44.000Z</time>
      </trkpt>
      <trkpt lat="47.28465" lon="-1.4013">
        <ele>54</ele>
        <time>2020-10-17T11:34:46.000Z</time>
      </trkpt>
      <trkpt lat="47.28459" lon="-1.40146">
        <ele>54</ele>
        <time>2020-10-17T11:34:48.000Z</time>
      </trkpt>
      <trkpt lat="47.28452" lon="-1.40162">
        <ele>54</ele>
        <time>2020-10-17T11:34:50.000Z</time>
      </trkpt>
      <trkpt lat="47.28446" lon="-1.40179">
        <ele>54</ele>
        <time>2020-10-17T11:34:52.000Z</time>
      </trkpt>
      <trkpt lat="47.2844" lon="-1.40195">
        <ele>54</ele>
        <time>2020-10-17T11:34:54.000Z</time>
      </trkpt>
      <trkpt lat="47.28434" lon="-1.40211">
        <ele>54</ele>
        <time>2020-10-17T11:34:56.000Z</time>
      </trkpt>
      <trkpt lat="47.28427" lon="-1.40228">
        <ele>54</ele>
        <time>2020-10-17T11:34:58.000Z</time>
      </trkpt>
      <trkpt lat="47.2842" lon="-1.40244">
        <ele>54</ele>
        <time>2020-10-17T11:35:00.000Z</time>
      </trkpt>
      <trkpt lat="47.28413" lon="-1.4026">
        <ele>54</ele>
        <time>2020-10-17T11:35:02.000Z</time>
      </trkpt>
      <trkpt lat="47.28406" lon="-1.40276">
        <ele>54</ele>
        <time>2020-10-17T11:35:04.000Z</time>
      </trkpt>
      <trkpt lat="47.28399" lon="-1.40291">
        <ele>53</ele>
        <time>2020-10-17T11:35:06.000Z</time>
      </trkpt>
      <trkpt lat="47.28391" lon="-1.40306">
        <ele>53</ele>
        <time>2020-10-17T11:35:08.000Z</time>
      </trkpt>
      <trkpt lat="47.28383" lon="-1.40319">
        <ele>53</ele>
        <time>2020-10-17T11:35:10.000Z</time>
      </trkpt>
      <trkpt lat="47.28374" lon="-1.40333">
        <ele>53</ele>
        <time>2020-10-17T11:35:12.000Z</time>
      </trkpt>
      <trkpt lat="47.28365" lon="-1.40347">
        <ele>53</ele>
        <time>2020-10-17T11:35:14.000Z</time>
      </trkpt>
      <trkpt lat="47.28355" lon="-1.4036">
        <ele>53</ele>
        <time>2020-10-17T11:35:16.000Z</time>
      </trkpt>
      <trkpt lat="47.28346" lon="-1.40372">
        <ele>53</ele>
        <time>2020-10-17T11:35:18.000Z</time>
      </trkpt>
      <trkpt lat="47.28337" lon="-1.40385">
        <ele>53</ele>
        <time>2020-10-17T11:35:20.000Z</time>
      </trkpt>
      <trkpt lat="47.28328" lon="-1.40398">
        <ele>53</ele>
        <time>2020-10-17T11:35:22.000Z</time>
      </trkpt>
      <trkpt lat="47.28318" lon="-1.4041">
        <ele>53</ele>
        <time>2020-10-17T11:35:24.000Z</time>
      </trkpt>
      <trkpt lat="47.28308" lon="-1.40421">
        <ele>53</ele>
        <time>2020-10-17T11:35:26.000Z</time>
      </trkpt>
      <trkpt lat="47.28297" lon="-1.40432">
        <ele>53</ele>
        <time>2020-10-17T11:35:28.000Z</time>
      </trkpt>
      <trkpt lat="47.28287" lon="-1.40442">
        <ele>53</ele>
        <time>2020-10-17T11:35:30.000Z</time>
      </trkpt>
      <trkpt lat="47.28276" lon="-1.40452">
        <ele>53</ele>
        <time>2020-10-17T11:35:32.000Z</time>
      </trkpt>
      <trkpt lat="47.28266" lon="-1.40463">
        <ele>53</ele>
        <time>2020-10-17T11:35:34.000Z</time>
      </trkpt>
      <trkpt lat="47.28255" lon="-1.40473">
        <ele>53</ele>
        <time>2020-10-17T11:35:36.000Z</time>
      </trkpt>
      <trkpt lat="47.28244" lon="-1.40484">
        <ele>53</ele>
        <time>2020-10-17T11:35:38.000Z</time>
      </trkpt>
      <trkpt lat="47.28233" lon="-1.40494">
        <ele>53</ele>
        <time>2020-10-17T11:35:40.000Z</time>
      </trkpt>
      <trkpt lat="47.28222" lon="-1.40504">
        <ele>53</ele>
        <time>2020-10-17T11:35:42.000Z</time>
      </trkpt>
      <trkpt lat="47.28212" lon="-1.40515">
        <ele>53</ele>
        <time>2020-10-17T11:35:44.000Z</time>
      </trkpt>
      <trkpt lat="47.28201" lon="-1.40527">
        <ele>53</ele>
        <time>2020-10-17T11:35:46.000Z</time>
      </trkpt>
      <trkpt lat="47.2819" lon="-1.40536">
        <ele>54</ele>
        <time>2020-10-17T11:35:48.000Z</time>
      </trkpt>
      <trkpt lat="47.2818" lon="-1.40546">
        <ele>54</ele>
        <time>2020-10-17T11:35:50.000Z</time>
      </trkpt>
      <trkpt lat="47.28169" lon="-1.40557">
        <ele>54</ele>
        <time>2020-10-17T11:35:52.000Z</time>
      </trkpt>
      <trkpt lat="47.28159" lon="-1.40567">
        <ele>54</ele>
        <time>2020-10-17T11:35:54.000Z</time>
      </trkpt>
      <trkpt lat="47.28148" lon="-1.40577">
        <ele>53</ele>
        <time>2020-10-17T11:35:56.000Z</time>
      </trkpt>
      <trkpt lat="47.28137" lon="-1.40587">
        <ele>53</ele>
        <time>2020-10-17T11:35:58.000Z</time>
      </trkpt>
      <trkpt lat="47.28126" lon="-1.40598">
        <ele>53</ele>
        <time>2020-10-17T11:36:00.000Z</time>
      </trkpt>
      <trkpt lat="47.28116" lon="-1.40608">
        <ele>53</ele>
        <time>2020-10-17T11:36:02.000Z</time>
      </trkpt>
      <trkpt lat="47.28105" lon="-1.40618">
        <ele>53</ele>
        <time>2020-10-17T11:36:04.000Z</time>
      </trkpt>
      <trkpt lat="47.28095" lon="-1.40628">
        <ele>53</ele>
        <time>2020-10-17T11:36:06.000Z</time>
      </trkpt>
      <trkpt lat="47.28084" lon="-1.40639">
        <ele>53</ele>
        <time>2020-10-17T11:36:08.000Z</time>
      </trkpt>
      <trkpt lat="47.28074" lon="-1.40649">
        <ele>53</ele>
        <time>2020-10-17T11:36:10.000Z</time>
      </trkpt>
      <trkpt lat="47.28063" lon="-1.40659">
        <ele>53</ele>
        <time>2020-10-17T11:36:12.000Z</time>
      </trkpt>
      <trkpt lat="47.28052" lon="-1.4067">
        <ele>53</ele>
        <time>2020-10-17T11:36:14.000Z</time>
      </trkpt>
      <trkpt lat="47.28042" lon="-1.4068">
        <ele>53</ele>
        <time>2020-10-17T11:36:16.000Z</time>
      </trkpt>
      <trkpt lat="47.28031" lon="-1.4069">
        <ele>53</ele>
        <time>2020-10-17T11:36:18.000Z</time>
      </trkpt>
      <trkpt lat="47.2802" lon="-1.40702">
        <ele>53</ele>
        <time>2020-10-17T11:36:20.000Z</time>
      </trkpt>
      <trkpt lat="47.2801" lon="-1.40713">
        <ele>53</ele>
        <time>2020-10-17T11:36:22.000Z</time>
      </trkpt>
      <trkpt lat="47.27999" lon="-1.40723">
        <ele>53</ele>
        <time>2020-10-17T11:36:24.000Z</time>
      </trkpt>
      <trkpt lat="47.27988" lon="-1.40734">
        <ele>53</ele>
        <time>2020-10-17T11:36:26.000Z</time>
      </trkpt>
      <trkpt lat="47.27977" lon="-1.40744">
        <ele>53</ele>
        <time>2020-10-17T11:36:28.000Z</time>
      </trkpt>
      <trkpt lat="47.27966" lon="-1.40754">
        <ele>53</ele>
        <time>2020-10-17T11:36:30.000Z</time>
      </trkpt>
      <trkpt lat="47.27955" lon="-1.40765">
        <ele>53</ele>
        <time>2020-10-17T11:36:32.000Z</time>
      </trkpt>
      <trkpt lat="47.27944" lon="-1.40774">
        <ele>53</ele>
        <time>2020-10-17T11:36:34.000Z</time>
      </trkpt>
      <trkpt lat="47.27932" lon="-1.40784">
        <ele>54</ele>
        <time>2020-10-17T11:36:36.000Z</time>
      </trkpt>
      <trkpt lat="47.27921" lon="-1.40795">
        <ele>54</ele>
        <time>2020-10-17T11:36:38.000Z</time>
      </trkpt>
      <trkpt lat="47.2791" lon="-1.40806">
        <ele>54</ele>
        <time>2020-10-17T11:36:40.000Z</time>
      </trkpt>
      <trkpt lat="47.27899" lon="-1.40816">
        <ele>53</ele>
        <time>2020-10-17T11:36:42.000Z</time>
      </trkpt>
      <trkpt lat="47.27888" lon="-1.40827">
        <ele>54</ele>
        <time>2020-10-17T11:36:44.000Z</time>
      </trkpt>
      <trkpt lat="47.2788" lon="-1.40841">
        <ele>54</ele>
        <time>2020-10-17T11:36:46.000Z</time>
      </trkpt>
      <trkpt lat="47.27872" lon="-1.40856">
        <ele>54</ele>
        <time>2020-10-17T11:36:48.000Z</time>
      </trkpt>
      <trkpt lat="47.27865" lon="-1.40872">
        <ele>53</ele>
        <time>2020-10-17T11:36:50.000Z</time>
      </trkpt>
      <trkpt lat="47.27858" lon="-1.40887">
        <ele>54</ele>
        <time>2020-10-17T11:36:52.000Z</time>
      </trkpt>
      <trkpt lat="47.27852" lon="-1.40902">
        <ele>54</ele>
        <time>2020-10-17T11:36:54.000Z</time>
      </trkpt>
      <trkpt lat="47.27844" lon="-1.40917">
        <ele>54</ele>
        <time>2020-10-17T11:36:56.000Z</time>
      </trkpt>
      <trkpt lat="47.27837" lon="-1.40933">
        <ele>54</ele>
        <time>2020-10-17T11:36:58.000Z</time>
      </trkpt>
      <trkpt lat="47.2783" lon="-1.40948">
        <ele>54</ele>
        <time>2020-10-17T11:37:00.000Z</time>
      </trkpt>
      <trkpt lat="47.27822" lon="-1.40963">
        <ele>54</ele>
        <time>2020-10-17T11:37:02.000Z</time>
      </trkpt>
      <trkpt lat="47.27814" lon="-1.40977">
        <ele>54</ele>
        <time>2020-10-17T11:37:04.000Z</time>
      </trkpt>
      <trkpt lat="47.27805" lon="-1.40991">
        <ele>54</ele>
        <time>2020-10-17T11:37:06.000Z</time>
      </trkpt>
      <trkpt lat="47.27796" lon="-1.41004">
        <ele>54</ele>
        <time>2020-10-17T11:37:08.000Z</time>
      </trkpt>
      <trkpt lat="47.27787" lon="-1.41017">
        <ele>55</ele>
        <time>2020-10-17T11:37:10.000Z</time>
      </trkpt>
      <trkpt lat="47.27779" lon="-1.41031">
        <ele>55</ele>
        <time>2020-10-17T11:37:12.000Z</time>
      </trkpt>
      <trkpt lat="47.27773" lon="-1.41048">
        <ele>54</ele>
        <time>2020-10-17T11:37:14.000Z</time>
      </trkpt>
      <trkpt lat="47.27766" lon="-1.41065">
        <ele>54</ele>
        <time>2020-10-17T11:37:16.000Z</time>
      </trkpt>
      <trkpt lat="47.27757" lon="-1.41078">
        <ele>53</ele>
        <time>2020-10-17T11:37:18.000Z</time>
      </trkpt>
      <trkpt lat="47.27746" lon="-1.41089">
        <ele>53</ele>
        <time>2020-10-17T11:37:20.000Z</time>
      </trkpt>
      <trkpt lat="47.27735" lon="-1.411">
        <ele>53</ele>
        <time>2020-10-17T11:37:22.000Z</time>
      </trkpt>
      <trkpt lat="47.27724" lon="-1.41111">
        <ele>52</ele>
        <time>2020-10-17T11:37:24.000Z</time>
      </trkpt>
      <trkpt lat="47.27713" lon="-1.41121">
        <ele>53</ele>
        <time>2020-10-17T11:37:26.000Z</time>
      </trkpt>
      <trkpt lat="47.27703" lon="-1.41133">
        <ele>53</ele>
        <time>2020-10-17T11:37:28.000Z</time>
      </trkpt>
      <trkpt lat="47.27693" lon="-1.41144">
        <ele>53</ele>
        <time>2020-10-17T11:37:30.000Z</time>
      </trkpt>
      <trkpt lat="47.27682" lon="-1.41156">
        <ele>53</ele>
        <time>2020-10-17T11:37:32.000Z</time>
      </trkpt>
      <trkpt lat="47.27671" lon="-1.41169">
        <ele>53</ele>
        <time>2020-10-17T11:37:34.000Z</time>
      </trkpt>
      <trkpt lat="47.27661" lon="-1.4118">
        <ele>53</ele>
        <time>2020-10-17T11:37:36.000Z</time>
      </trkpt>
      <trkpt lat="47.2765" lon="-1.41191">
        <ele>53</ele>
        <time>2020-10-17T11:37:38.000Z</time>
      </trkpt>
      <trkpt lat="47.27639" lon="-1.41202">
        <ele>53</ele>
        <time>2020-10-17T11:37:40.000Z</time>
      </trkpt>
      <trkpt lat="47.27628" lon="-1.41213">
        <ele>54</ele>
        <time>2020-10-17T11:37:42.000Z</time>
      </trkpt>
      <trkpt lat="47.27616" lon="-1.41224">
        <ele>53</ele>
        <time>2020-10-17T11:37:44.000Z</time>
      </trkpt>
      <trkpt lat="47.27605" lon="-1.41236">
        <ele>53</ele>
        <time>2020-10-17T11:37:46.000Z</time>
      </trkpt>
      <trkpt lat="47.27594" lon="-1.41248">
        <ele>53</ele>
        <time>2020-10-17T11:37:48.000Z</time>
      </trkpt>
      <trkpt lat="47.27583" lon="-1.41261">
        <ele>54</ele>
        <time>2020-10-17T11:37:50.000Z</time>
      </trkpt>
      <trkpt lat="47.27572" lon="-1.41273">
        <ele>54</ele>
        <time>2020-10-17T11:37:52.000Z</time>
      </trkpt>
      <trkpt lat="47.27562" lon="-1.41286">
        <ele>54</ele>
        <time>2020-10-17T11:37:54.000Z</time>
      </trkpt>
      <trkpt lat="47.27551" lon="-1.413">
        <ele>54</ele>
        <time>2020-10-17T11:37:56.000Z</time>
      </trkpt>
      <trkpt lat="47.27541" lon="-1.41314">
        <ele>54</ele>
        <time>2020-10-17T11:37:58.000Z</time>
      </trkpt>
      <trkpt lat="47.27532" lon="-1.41326">
        <ele>54</ele>
        <time>2020-10-17T11:38:00.000Z</time>
      </trkpt>
      <trkpt lat="47.27522" lon="-1.41339">
        <ele>54</ele>
        <time>2020-10-17T11:38:02.000Z</time>
      </trkpt>
      <trkpt lat="47.27512" lon="-1.41352">
        <ele>54</ele>
        <time>2020-10-17T11:38:04.000Z</time>
      </trkpt>
      <trkpt lat="47.27503" lon="-1.41366">
        <ele>54</ele>
        <time>2020-10-17T11:38:06.000Z</time>
      </trkpt>
      <trkpt lat="47.27494" lon="-1.4138">
        <ele>54</ele>
        <time>2020-10-17T11:38:08.000Z</time>
      </trkpt>
      <trkpt lat="47.27486" lon="-1.41395">
        <ele>53</ele>
        <time>2020-10-17T11:38:10.000Z</time>
      </trkpt>
      <trkpt lat="47.27477" lon="-1.41409">
        <ele>54</ele>
        <time>2020-10-17T11:38:12.000Z</time>
      </trkpt>
      <trkpt lat="47.27469" lon="-1.41424">
        <ele>53</ele>
        <time>2020-10-17T11:38:14.000Z</time>
      </trkpt>
      <trkpt lat="47.2746" lon="-1.4144">
        <ele>53</ele>
        <time>2020-10-17T11:38:16.000Z</time>
      </trkpt>
      <trkpt lat="47.27452" lon="-1.41455">
        <ele>53</ele>
        <time>2020-10-17T11:38:18.000Z</time>
      </trkpt>
      <trkpt lat="47.27444" lon="-1.41469">
        <ele>54</ele>
        <time>2020-10-17T11:38:20.000Z</time>
      </trkpt>
      <trkpt lat="47.27436" lon="-1.41484">
        <ele>54</ele>
        <time>2020-10-17T11:38:22.000Z</time>
      </trkpt>
      <trkpt lat="47.27427" lon="-1.41499">
        <ele>54</ele>
        <time>2020-10-17T11:38:24.000Z</time>
      </trkpt>
      <trkpt lat="47.27418" lon="-1.41514">
        <ele>54</ele>
        <time>2020-10-17T11:38:26.000Z</time>
      </trkpt>
      <trkpt lat="47.2741" lon="-1.41529">
        <ele>55</ele>
        <time>2020-10-17T11:38:28.000Z</time>
      </trkpt>
      <trkpt lat="47.27401" lon="-1.41543">
        <ele>55</ele>
        <time>2020-10-17T11:38:30.000Z</time>
      </trkpt>
      <trkpt lat="47.27391" lon="-1.41557">
        <ele>54</ele>
        <time>2020-10-17T11:38:32.000Z</time>
      </trkpt>
      <trkpt lat="47.27382" lon="-1.41571">
        <ele>54</ele>
        <time>2020-10-17T11:38:34.000Z</time>
      </trkpt>
      <trkpt lat="47.27372" lon="-1.41587">
        <ele>54</ele>
        <time>2020-10-17T11:38:36.000Z</time>
      </trkpt>
      <trkpt lat="47.27363" lon="-1.41601">
        <ele>54</ele>
        <time>2020-10-17T11:38:38.000Z</time>
      </trkpt>
      <trkpt lat="47.27354" lon="-1.41615">
        <ele>54</ele>
        <time>2020-10-17T11:38:40.000Z</time>
      </trkpt>
      <trkpt lat="47.27344" lon="-1.41629">
        <ele>54</ele>
        <time>2020-10-17T11:38:42.000Z</time>
      </trkpt>
      <trkpt lat="47.27335" lon="-1.41644">
        <ele>54</ele>
        <time>2020-10-17T11:38:44.000Z</time>
      </trkpt>
      <trkpt lat="47.27325" lon="-1.41659">
        <ele>54</ele>
        <time>2020-10-17T11:38:46.000Z</time>
      </trkpt>
      <trkpt lat="47.27317" lon="-1.41673">
        <ele>54</ele>
        <time>2020-10-17T11:38:48.000Z</time>
      </trkpt>
      <trkpt lat="47.27309" lon="-1.41688">
        <ele>55</ele>
        <time>2020-10-17T11:38:50.000Z</time>
      </trkpt>
      <trkpt lat="47.27302" lon="-1.41703">
        <ele>55</ele>
        <time>2020-10-17T11:38:52.000Z</time>
      </trkpt>
      <trkpt lat="47.27294" lon="-1.4172">
        <ele>55</ele>
        <time>2020-10-17T11:38:54.000Z</time>
      </trkpt>
      <trkpt lat="47.27286" lon="-1.41736">
        <ele>54</ele>
        <time>2020-10-17T11:38:56.000Z</time>
      </trkpt>
      <trkpt lat="47.27278" lon="-1.41751">
        <ele>54</ele>
        <time>2020-10-17T11:38:58.000Z</time>
      </trkpt>
      <trkpt lat="47.2727" lon="-1.41766">
        <ele>55</ele>
        <time>2020-10-17T11:39:00.000Z</time>
      </trkpt>
      <trkpt lat="47.27262" lon="-1.41782">
        <ele>55</ele>
        <time>2020-10-17T11:39:02.000Z</time>
      </trkpt>
      <trkpt lat="47.27255" lon="-1.41796">
        <ele>55</ele>
        <time>2020-10-17T11:39:04.000Z</time>
      </trkpt>
      <trkpt lat="47.27246" lon="-1.41811">
        <ele>55</ele>
        <time>2020-10-17T11:39:06.000Z</time>
      </trkpt>
      <trkpt lat="47.27238" lon="-1.41826">
        <ele>55</ele>
        <time>2020-10-17T11:39:08.000Z</time>
      </trkpt>
      <trkpt lat="47.2723" lon="-1.41841">
        <ele>55</ele>
        <time>2020-10-17T11:39:10.000Z</time>
      </trkpt>
      <trkpt lat="47.27222" lon="-1.41856">
        <ele>55</ele>
        <time>2020-10-17T11:39:12.000Z</time>
      </trkpt>
      <trkpt lat="47.27214" lon="-1.41871">
        <ele>55</ele>
        <time>2020-10-17T11:39:14.000Z</time>
      </trkpt>
      <trkpt lat="47.27205" lon="-1.41886">
        <ele>55</ele>
        <time>2020-10-17T11:39:16.000Z</time>
      </trkpt>
      <trkpt lat="47.27196" lon="-1.419">
        <ele>55</ele>
        <time>2020-10-17T11:39:18.000Z</time>
      </trkpt>
      <trkpt lat="47.27188" lon="-1.41915">
        <ele>55</ele>
        <time>2020-10-17T11:39:20.000Z</time>
      </trkpt>
      <trkpt lat="47.27179" lon="-1.4193">
        <ele>56</ele>
        <time>2020-10-17T11:39:22.000Z</time>
      </trkpt>
      <trkpt lat="47.2717" lon="-1.41945">
        <ele>56</ele>
        <time>2020-10-17T11:39:24.000Z</time>
      </trkpt>
      <trkpt lat="47.27161" lon="-1.4196">
        <ele>56</ele>
        <time>2020-10-17T11:39:26.000Z</time>
      </trkpt>
      <trkpt lat="47.27152" lon="-1.41976">
        <ele>56</ele>
        <time>2020-10-17T11:39:28.000Z</time>
      </trkpt>
      <trkpt lat="47.27144" lon="-1.41991">
        <ele>56</ele>
        <time>2020-10-17T11:39:30.000Z</time>
      </trkpt>
      <trkpt lat="47.27136" lon="-1.42006">
        <ele>55</ele>
        <time>2020-10-17T11:39:32.000Z</time>
      </trkpt>
      <trkpt lat="47.27127" lon="-1.4202">
        <ele>55</ele>
        <time>2020-10-17T11:39:34.000Z</time>
      </trkpt>
      <trkpt lat="47.27118" lon="-1.42034">
        <ele>54</ele>
        <time>2020-10-17T11:39:36.000Z</time>
      </trkpt>
      <trkpt lat="47.27109" lon="-1.42048">
        <ele>54</ele>
        <time>2020-10-17T11:39:38.000Z</time>
      </trkpt>
      <trkpt lat="47.271" lon="-1.42062">
        <ele>54</ele>
        <time>2020-10-17T11:39:40.000Z</time>
      </trkpt>
      <trkpt lat="47.27091" lon="-1.42075">
        <ele>54</ele>
        <time>2020-10-17T11:39:42.000Z</time>
      </trkpt>
      <trkpt lat="47.27082" lon="-1.42089">
        <ele>54</ele>
        <time>2020-10-17T11:39:44.000Z</time>
      </trkpt>
      <trkpt lat="47.27073" lon="-1.42104">
        <ele>54</ele>
        <time>2020-10-17T11:39:46.000Z</time>
      </trkpt>
      <trkpt lat="47.27065" lon="-1.42119">
        <ele>54</ele>
        <time>2020-10-17T11:39:48.000Z</time>
      </trkpt>
      <trkpt lat="47.27058" lon="-1.42135">
        <ele>54</ele>
        <time>2020-10-17T11:39:50.000Z</time>
      </trkpt>
      <trkpt lat="47.2705" lon="-1.42149">
        <ele>54</ele>
        <time>2020-10-17T11:39:52.000Z</time>
      </trkpt>
      <trkpt lat="47.27042" lon="-1.42164">
        <ele>55</ele>
        <time>2020-10-17T11:39:54.000Z</time>
      </trkpt>
      <trkpt lat="47.27033" lon="-1.42178">
        <ele>55</ele>
        <time>2020-10-17T11:39:56.000Z</time>
      </trkpt>
      <trkpt lat="47.27025" lon="-1.42193">
        <ele>56</ele>
        <time>2020-10-17T11:39:58.000Z</time>
      </trkpt>
      <trkpt lat="47.27017" lon="-1.42207">
        <ele>56</ele>
        <time>2020-10-17T11:40:00.000Z</time>
      </trkpt>
      <trkpt lat="47.27008" lon="-1.42223">
        <ele>55</ele>
        <time>2020-10-17T11:40:02.000Z</time>
      </trkpt>
      <trkpt lat="47.26999" lon="-1.42238">
        <ele>56</ele>
        <time>2020-10-17T11:40:04.000Z</time>
      </trkpt>
      <trkpt lat="47.26991" lon="-1.42253">
        <ele>55</ele>
        <time>2020-10-17T11:40:06.000Z</time>
      </trkpt>
      <trkpt lat="47.26983" lon="-1.42269">
        <ele>55</ele>
        <time>2020-10-17T11:40:08.000Z</time>
      </trkpt>
      <trkpt lat="47.26974" lon="-1.42284">
        <ele>55</ele>
        <time>2020-10-17T11:40:10.000Z</time>
      </trkpt>
      <trkpt lat="47.26966" lon="-1.42299">
        <ele>55</ele>
        <time>2020-10-17T11:40:12.000Z</time>
      </trkpt>
      <trkpt lat="47.26958" lon="-1.42314">
        <ele>55</ele>
        <time>2020-10-17T11:40:14.000Z</time>
      </trkpt>
      <trkpt lat="47.26951" lon="-1.42329">
        <ele>55</ele>
        <time>2020-10-17T11:40:16.000Z</time>
      </trkpt>
      <trkpt lat="47.26943" lon="-1.42343">
        <ele>55</ele>
        <time>2020-10-17T11:40:18.000Z</time>
      </trkpt>
      <trkpt lat="47.26935" lon="-1.42359">
        <ele>54</ele>
        <time>2020-10-17T11:40:20.000Z</time>
      </trkpt>
      <trkpt lat="47.26928" lon="-1.42375">
        <ele>55</ele>
        <time>2020-10-17T11:40:22.000Z</time>
      </trkpt>
      <trkpt lat="47.26921" lon="-1.4239">
        <ele>55</ele>
        <time>2020-10-17T11:40:24.000Z</time>
      </trkpt>
      <trkpt lat="47.26913" lon="-1.42405">
        <ele>55</ele>
        <time>2020-10-17T11:40:26.000Z</time>
      </trkpt>
      <trkpt lat="47.26905" lon="-1.4242">
        <ele>55</ele>
        <time>2020-10-17T11:40:28.000Z</time>
      </trkpt>
      <trkpt lat="47.26897" lon="-1.42435">
        <ele>55</ele>
        <time>2020-10-17T11:40:30.000Z</time>
      </trkpt>
      <trkpt lat="47.26888" lon="-1.42449">
        <ele>55</ele>
        <time>2020-10-17T11:40:32.000Z</time>
      </trkpt>
      <trkpt lat="47.2688" lon="-1.42465">
        <ele>55</ele>
        <time>2020-10-17T11:40:34.000Z</time>
      </trkpt>
      <trkpt lat="47.26872" lon="-1.4248">
        <ele>56</ele>
        <time>2020-10-17T11:40:36.000Z</time>
      </trkpt>
      <trkpt lat="47.26863" lon="-1.42495">
        <ele>56</ele>
        <time>2020-10-17T11:40:38.000Z</time>
      </trkpt>
      <trkpt lat="47.26855" lon="-1.4251">
        <ele>56</ele>
        <time>2020-10-17T11:40:40.000Z</time>
      </trkpt>
      <trkpt lat="47.26847" lon="-1.42525">
        <ele>56</ele>
        <time>2020-10-17T11:40:42.000Z</time>
      </trkpt>
      <trkpt lat="47.26839" lon="-1.4254">
        <ele>56</ele>
        <time>2020-10-17T11:40:44.000Z</time>
      </trkpt>
      <trkpt lat="47.26831" lon="-1.42556">
        <ele>56</ele>
        <time>2020-10-17T11:40:46.000Z</time>
      </trkpt>
      <trkpt lat="47.26824" lon="-1.42572">
        <ele>56</ele>
        <time>2020-10-17T11:40:48.000Z</time>
      </trkpt>
      <trkpt lat="47.26816" lon="-1.42588">
        <ele>56</ele>
        <time>2020-10-17T11:40:50.000Z</time>
      </trkpt>
      <trkpt lat="47.26809" lon="-1.42605">
        <ele>57</ele>
        <time>2020-10-17T11:40:52.000Z</time>
      </trkpt>
      <trkpt lat="47.26803" lon="-1.42622">
        <ele>57</ele>
        <time>2020-10-17T11:40:54.000Z</time>
      </trkpt>
      <trkpt lat="47.26797" lon="-1.42639">
        <ele>57</ele>
        <time>2020-10-17T11:40:56.000Z</time>
      </trkpt>
      <trkpt lat="47.2679" lon="-1.42656">
        <ele>57</ele>
        <time>2020-10-17T11:40:58.000Z</time>
      </trkpt>
      <trkpt lat="47.26784" lon="-1.42673">
        <ele>57</ele>
        <time>2020-10-17T11:41:00.000Z</time>
      </trkpt>
      <trkpt lat="47.26777" lon="-1.42691">
        <ele>57</ele>
        <time>2020-10-17T11:41:02.000Z</time>
      </trkpt>
      <trkpt lat="47.26771" lon="-1.42708">
        <ele>57</ele>
        <time>2020-10-17T11:41:04.000Z</time>
      </trkpt>
      <trkpt lat="47.26763" lon="-1.42724">
        <ele>57</ele>
        <time>2020-10-17T11:41:06.000Z</time>
      </trkpt>
      <trkpt lat="47.26755" lon="-1.42739">
        <ele>57</ele>
        <time>2020-10-17T11:41:08.000Z</time>
      </trkpt>
      <trkpt lat="47.26747" lon="-1.42754">
        <ele>57</ele>
        <time>2020-10-17T11:41:10.000Z</time>
      </trkpt>
      <trkpt lat="47.26738" lon="-1.4277">
        <ele>56</ele>
        <time>2020-10-17T11:41:12.000Z</time>
      </trkpt>
      <trkpt lat="47.26733" lon="-1.42787">
        <ele>57</ele>
        <time>2020-10-17T11:41:14.000Z</time>
      </trkpt>
      <trkpt lat="47.2673" lon="-1.42805">
        <ele>58</ele>
        <time>2020-10-17T11:41:16.000Z</time>
      </trkpt>
      <trkpt lat="47.26726" lon="-1.42821">
        <ele>57</ele>
        <time>2020-10-17T11:41:18.000Z</time>
      </trkpt>
      <trkpt lat="47.26718" lon="-1.42838">
        <ele>57</ele>
        <time>2020-10-17T11:41:20.000Z</time>
      </trkpt>
      <trkpt lat="47.26711" lon="-1.42855">
        <ele>57</ele>
        <time>2020-10-17T11:41:22.000Z</time>
      </trkpt>
      <trkpt lat="47.26704" lon="-1.42871">
        <ele>56</ele>
        <time>2020-10-17T11:41:24.000Z</time>
      </trkpt>
      <trkpt lat="47.26697" lon="-1.42888">
        <ele>56</ele>
        <time>2020-10-17T11:41:26.000Z</time>
      </trkpt>
      <trkpt lat="47.26689" lon="-1.42904">
        <ele>56</ele>
        <time>2020-10-17T11:41:28.000Z</time>
      </trkpt>
      <trkpt lat="47.26681" lon="-1.4292">
        <ele>56</ele>
        <time>2020-10-17T11:41:30.000Z</time>
      </trkpt>
      <trkpt lat="47.26673" lon="-1.42937">
        <ele>56</ele>
        <time>2020-10-17T11:41:32.000Z</time>
      </trkpt>
      <trkpt lat="47.26665" lon="-1.42953">
        <ele>56</ele>
        <time>2020-10-17T11:41:34.000Z</time>
      </trkpt>
      <trkpt lat="47.26656" lon="-1.42968">
        <ele>56</ele>
        <time>2020-10-17T11:41:36.000Z</time>
      </trkpt>
      <trkpt lat="47.26649" lon="-1.42984">
        <ele>55</ele>
        <time>2020-10-17T11:41:38.000Z</time>
      </trkpt>
      <trkpt lat="47.26641" lon="-1.43">
        <ele>55</ele>
        <time>2020-10-17T11:41:40.000Z</time>
      </trkpt>
      <trkpt lat="47.26634" lon="-1.43017">
        <ele>55</ele>
        <time>2020-10-17T11:41:42.000Z</time>
      </trkpt>
      <trkpt lat="47.26626" lon="-1.43032">
        <ele>55</ele>
        <time>2020-10-17T11:41:44.000Z</time>
      </trkpt>
      <trkpt lat="47.26618" lon="-1.43047">
        <ele>55</ele>
        <time>2020-10-17T11:41:46.000Z</time>
      </trkpt>
      <trkpt lat="47.2661" lon="-1.43063">
        <ele>55</ele>
        <time>2020-10-17T11:41:48.000Z</time>
      </trkpt>
      <trkpt lat="47.26602" lon="-1.43078">
        <ele>55</ele>
        <time>2020-10-17T11:41:50.000Z</time>
      </trkpt>
      <trkpt lat="47.26593" lon="-1.43093">
        <ele>55</ele>
        <time>2020-10-17T11:41:52.000Z</time>
      </trkpt>
      <trkpt lat="47.26585" lon="-1.43108">
        <ele>55</ele>
        <time>2020-10-17T11:41:54.000Z</time>
      </trkpt>
      <trkpt lat="47.26575" lon="-1.43122">
        <ele>55</ele>
        <time>2020-10-17T11:41:56.000Z</time>
      </trkpt>
      <trkpt lat="47.26567" lon="-1.43137">
        <ele>55</ele>
        <time>2020-10-17T11:41:58.000Z</time>
      </trkpt>
      <trkpt lat="47.26559" lon="-1.43151">
        <ele>55</ele>
        <time>2020-10-17T11:42:00.000Z</time>
      </trkpt>
      <trkpt lat="47.2655" lon="-1.43165">
        <ele>55</ele>
        <time>2020-10-17T11:42:02.000Z</time>
      </trkpt>
      <trkpt lat="47.2654" lon="-1.43178">
        <ele>54</ele>
        <time>2020-10-17T11:42:04.000Z</time>
      </trkpt>
      <trkpt lat="47.26531" lon="-1.43192">
        <ele>55</ele>
        <time>2020-10-17T11:42:06.000Z</time>
      </trkpt>
      <trkpt lat="47.26522" lon="-1.43205">
        <ele>55</ele>
        <time>2020-10-17T11:42:08.000Z</time>
      </trkpt>
      <trkpt lat="47.26512" lon="-1.43218">
        <ele>55</ele>
        <time>2020-10-17T11:42:10.000Z</time>
      </trkpt>
      <trkpt lat="47.26502" lon="-1.4323">
        <ele>55</ele>
        <time>2020-10-17T11:42:12.000Z</time>
      </trkpt>
      <trkpt lat="47.26493" lon="-1.43243">
        <ele>55</ele>
        <time>2020-10-17T11:42:14.000Z</time>
      </trkpt>
      <trkpt lat="47.26484" lon="-1.43256">
        <ele>56</ele>
        <time>2020-10-17T11:42:16.000Z</time>
      </trkpt>
      <trkpt lat="47.26475" lon="-1.4327">
        <ele>56</ele>
        <time>2020-10-17T11:42:18.000Z</time>
      </trkpt>
      <trkpt lat="47.26465" lon="-1.43283">
        <ele>56</ele>
        <time>2020-10-17T11:42:20.000Z</time>
      </trkpt>
      <trkpt lat="47.26456" lon="-1.43296">
        <ele>56</ele>
        <time>2020-10-17T11:42:22.000Z</time>
      </trkpt>
      <trkpt lat="47.26447" lon="-1.43311">
        <ele>55</ele>
        <time>2020-10-17T11:42:24.000Z</time>
      </trkpt>
      <trkpt lat="47.26439" lon="-1.43325">
        <ele>55</ele>
        <time>2020-10-17T11:42:26.000Z</time>
      </trkpt>
      <trkpt lat="47.2643" lon="-1.43338">
        <ele>55</ele>
        <time>2020-10-17T11:42:28.000Z</time>
      </trkpt>
      <trkpt lat="47.2642" lon="-1.43349">
        <ele>55</ele>
        <time>2020-10-17T11:42:30.000Z</time>
      </trkpt>
      <trkpt lat="47.26411" lon="-1.43361">
        <ele>55</ele>
        <time>2020-10-17T11:42:32.000Z</time>
      </trkpt>
      <trkpt lat="47.26401" lon="-1.43373">
        <ele>56</ele>
        <time>2020-10-17T11:42:34.000Z</time>
      </trkpt>
      <trkpt lat="47.2639" lon="-1.43385">
        <ele>56</ele>
        <time>2020-10-17T11:42:36.000Z</time>
      </trkpt>
      <trkpt lat="47.2638" lon="-1.43396">
        <ele>55</ele>
        <time>2020-10-17T11:42:38.000Z</time>
      </trkpt>
      <trkpt lat="47.2637" lon="-1.43407">
        <ele>55</ele>
        <time>2020-10-17T11:42:40.000Z</time>
      </trkpt>
      <trkpt lat="47.26359" lon="-1.43418">
        <ele>55</ele>
        <time>2020-10-17T11:42:42.000Z</time>
      </trkpt>
      <trkpt lat="47.26349" lon="-1.43429">
        <ele>56</ele>
        <time>2020-10-17T11:42:44.000Z</time>
      </trkpt>
      <trkpt lat="47.26339" lon="-1.43441">
        <ele>56</ele>
        <time>2020-10-17T11:42:46.000Z</time>
      </trkpt>
      <trkpt lat="47.26329" lon="-1.43452">
        <ele>56</ele>
        <time>2020-10-17T11:42:48.000Z</time>
      </trkpt>
      <trkpt lat="47.26318" lon="-1.43462">
        <ele>56</ele>
        <time>2020-10-17T11:42:50.000Z</time>
      </trkpt>
      <trkpt lat="47.26308" lon="-1.43471">
        <ele>57</ele>
        <time>2020-10-17T11:42:52.000Z</time>
      </trkpt>
      <trkpt lat="47.26299" lon="-1.4348">
        <ele>57</ele>
        <time>2020-10-17T11:42:54.000Z</time>
      </trkpt>
      <trkpt lat="47.2629" lon="-1.43485">
        <ele>57</ele>
        <time>2020-10-17T11:42:56.000Z</time>
      </trkpt>
      <trkpt lat="47.2628" lon="-1.4349">
        <ele>57</ele>
        <time>2020-10-17T11:42:58.000Z</time>
      </trkpt>
      <trkpt lat="47.26269" lon="-1.43494">
        <ele>57</ele>
        <time>2020-10-17T11:43:00.000Z</time>
      </trkpt>
      <trkpt lat="47.26258" lon="-1.43501">
        <ele>57</ele>
        <time>2020-10-17T11:43:02.000Z</time>
      </trkpt>
      <trkpt lat="47.26247" lon="-1.43512">
        <ele>57</ele>
        <time>2020-10-17T11:43:04.000Z</time>
      </trkpt>
      <trkpt lat="47.26237" lon="-1.43522">
        <ele>57</ele>
        <time>2020-10-17T11:43:06.000Z</time>
      </trkpt>
      <trkpt lat="47.26228" lon="-1.43534">
        <ele>57</ele>
        <time>2020-10-17T11:43:08.000Z</time>
      </trkpt>
      <trkpt lat="47.2622" lon="-1.43548">
        <ele>57</ele>
        <time>2020-10-17T11:43:10.000Z</time>
      </trkpt>
      <trkpt lat="47.26217" lon="-1.43565">
        <ele>56</ele>
        <time>2020-10-17T11:43:12.000Z</time>
      </trkpt>
      <trkpt lat="47.26212" lon="-1.43582">
        <ele>56</ele>
        <time>2020-10-17T11:43:14.000Z</time>
      </trkpt>
      <trkpt lat="47.26203" lon="-1.43596">
        <ele>56</ele>
        <time>2020-10-17T11:43:16.000Z</time>
      </trkpt>
      <trkpt lat="47.26193" lon="-1.4361">
        <ele>56</ele>
        <time>2020-10-17T11:43:18.000Z</time>
      </trkpt>
      <trkpt lat="47.26184" lon="-1.43624">
        <ele>56</ele>
        <time>2020-10-17T11:43:20.000Z</time>
      </trkpt>
      <trkpt lat="47.26177" lon="-1.43639">
        <ele>56</ele>
        <time>2020-10-17T11:43:22.000Z</time>
      </trkpt>
      <trkpt lat="47.26169" lon="-1.43654">
        <ele>56</ele>
        <time>2020-10-17T11:43:24.000Z</time>
      </trkpt>
      <trkpt lat="47.2616" lon="-1.43668">
        <ele>55</ele>
        <time>2020-10-17T11:43:26.000Z</time>
      </trkpt>
      <trkpt lat="47.26151" lon="-1.43681">
        <ele>55</ele>
        <time>2020-10-17T11:43:28.000Z</time>
      </trkpt>
      <trkpt lat="47.26143" lon="-1.43694">
        <ele>54</ele>
        <time>2020-10-17T11:43:30.000Z</time>
      </trkpt>
      <trkpt lat="47.26134" lon="-1.43707">
        <ele>55</ele>
        <time>2020-10-17T11:43:32.000Z</time>
      </trkpt>
      <trkpt lat="47.26125" lon="-1.43721">
        <ele>55</ele>
        <time>2020-10-17T11:43:34.000Z</time>
      </trkpt>
      <trkpt lat="47.26116" lon="-1.43734">
        <ele>55</ele>
        <time>2020-10-17T11:43:36.000Z</time>
      </trkpt>
      <trkpt lat="47.26107" lon="-1.43747">
        <ele>56</ele>
        <time>2020-10-17T11:43:38.000Z</time>
      </trkpt>
      <trkpt lat="47.26098" lon="-1.43759">
        <ele>56</ele>
        <time>2020-10-17T11:43:40.000Z</time>
      </trkpt>
      <trkpt lat="47.26087" lon="-1.43771">
        <ele>57</ele>
        <time>2020-10-17T11:43:42.000Z</time>
      </trkpt>
      <trkpt lat="47.26076" lon="-1.43783">
        <ele>57</ele>
        <time>2020-10-17T11:43:44.000Z</time>
      </trkpt>
      <trkpt lat="47.26067" lon="-1.43795">
        <ele>57</ele>
        <time>2020-10-17T11:43:46.000Z</time>
      </trkpt>
      <trkpt lat="47.26057" lon="-1.4381">
        <ele>57</ele>
        <time>2020-10-17T11:43:48.000Z</time>
      </trkpt>
      <trkpt lat="47.26049" lon="-1.43826">
        <ele>57</ele>
        <time>2020-10-17T11:43:50.000Z</time>
      </trkpt>
      <trkpt lat="47.26043" lon="-1.43843">
        <ele>56</ele>
        <time>2020-10-17T11:43:52.000Z</time>
      </trkpt>
      <trkpt lat="47.26036" lon="-1.43861">
        <ele>56</ele>
        <time>2020-10-17T11:43:54.000Z</time>
      </trkpt>
      <trkpt lat="47.26026" lon="-1.43874">
        <ele>57</ele>
        <time>2020-10-17T11:43:56.000Z</time>
      </trkpt>
      <trkpt lat="47.26014" lon="-1.43885">
        <ele>56</ele>
        <time>2020-10-17T11:43:58.000Z</time>
      </trkpt>
      <trkpt lat="47.26003" lon="-1.43897">
        <ele>56</ele>
        <time>2020-10-17T11:44:00.000Z</time>
      </trkpt>
      <trkpt lat="47.25992" lon="-1.43908">
        <ele>56</ele>
        <time>2020-10-17T11:44:02.000Z</time>
      </trkpt>
      <trkpt lat="47.25981" lon="-1.43921">
        <ele>57</ele>
        <time>2020-10-17T11:44:04.000Z</time>
      </trkpt>
      <trkpt lat="47.2597" lon="-1.43934">
        <ele>57</ele>
        <time>2020-10-17T11:44:06.000Z</time>
      </trkpt>
      <trkpt lat="47.25959" lon="-1.43946">
        <ele>57</ele>
        <time>2020-10-17T11:44:08.000Z</time>
      </trkpt>
      <trkpt lat="47.25949" lon="-1.43958">
        <ele>58</ele>
        <time>2020-10-17T11:44:10.000Z</time>
      </trkpt>
      <trkpt lat="47.25939" lon="-1.4397">
        <ele>58</ele>
        <time>2020-10-17T11:44:12.000Z</time>
      </trkpt>
      <trkpt lat="47.25929" lon="-1.43981">
        <ele>59</ele>
        <time>2020-10-17T11:44:14.000Z</time>
      </trkpt>
      <trkpt lat="47.25919" lon="-1.43993">
        <ele>59</ele>
        <time>2020-10-17T11:44:16.000Z</time>
      </trkpt>
      <trkpt lat="47.25908" lon="-1.44006">
        <ele>58</ele>
        <time>2020-10-17T11:44:18.000Z</time>
      </trkpt>
      <trkpt lat="47.25897" lon="-1.44019">
        <ele>58</ele>
        <time>2020-10-17T11:44:20.000Z</time>
      </trkpt>
      <trkpt lat="47.25885" lon="-1.44031">
        <ele>58</ele>
        <time>2020-10-17T11:44:22.000Z</time>
      </trkpt>
      <trkpt lat="47.25876" lon="-1.44046">
        <ele>58</ele>
        <time>2020-10-17T11:44:24.000Z</time>
      </trkpt>
      <trkpt lat="47.2587" lon="-1.44065">
        <ele>57</ele>
        <time>2020-10-17T11:44:26.000Z</time>
      </trkpt>
      <trkpt lat="47.25864" lon="-1.44082">
        <ele>56</ele>
        <time>2020-10-17T11:44:28.000Z</time>
      </trkpt>
      <trkpt lat="47.25856" lon="-1.44095">
        <ele>55</ele>
        <time>2020-10-17T11:44:30.000Z</time>
      </trkpt>
      <trkpt lat="47.25846" lon="-1.44107">
        <ele>55</ele>
        <time>2020-10-17T11:44:32.000Z</time>
      </trkpt>
      <trkpt lat="47.25836" lon="-1.44118">
        <ele>55</ele>
        <time>2020-10-17T11:44:34.000Z</time>
      </trkpt>
      <trkpt lat="47.25825" lon="-1.4413">
        <ele>55</ele>
        <time>2020-10-17T11:44:36.000Z</time>
      </trkpt>
      <trkpt lat="47.25815" lon="-1.4414">
        <ele>55</ele>
        <time>2020-10-17T11:44:38.000Z</time>
      </trkpt>
      <trkpt lat="47.25804" lon="-1.44152">
        <ele>55</ele>
        <time>2020-10-17T11:44:40.000Z</time>
      </trkpt>
      <trkpt lat="47.25794" lon="-1.44164">
        <ele>55</ele>
        <time>2020-10-17T11:44:42.000Z</time>
      </trkpt>
      <trkpt lat="47.25784" lon="-1.44176">
        <ele>55</ele>
        <time>2020-10-17T11:44:44.000Z</time>
      </trkpt>
      <trkpt lat="47.25775" lon="-1.44187">
        <ele>56</ele>
        <time>2020-10-17T11:44:46.000Z</time>
      </trkpt>
      <trkpt lat="47.25765" lon="-1.44198">
        <ele>56</ele>
        <time>2020-10-17T11:44:48.000Z</time>
      </trkpt>
      <trkpt lat="47.25755" lon="-1.4421">
        <ele>56</ele>
        <time>2020-10-17T11:44:50.000Z</time>
      </trkpt>
      <trkpt lat="47.25745" lon="-1.44222">
        <ele>56</ele>
        <time>2020-10-17T11:44:52.000Z</time>
      </trkpt>
      <trkpt lat="47.25735" lon="-1.44234">
        <ele>56</ele>
        <time>2020-10-17T11:44:54.000Z</time>
      </trkpt>
      <trkpt lat="47.25725" lon="-1.44246">
        <ele>56</ele>
        <time>2020-10-17T11:44:56.000Z</time>
      </trkpt>
      <trkpt lat="47.25716" lon="-1.44259">
        <ele>56</ele>
        <time>2020-10-17T11:44:58.000Z</time>
      </trkpt>
      <trkpt lat="47.25705" lon="-1.4427">
        <ele>55</ele>
        <time>2020-10-17T11:45:00.000Z</time>
      </trkpt>
      <trkpt lat="47.25695" lon="-1.44282">
        <ele>55</ele>
        <time>2020-10-17T11:45:02.000Z</time>
      </trkpt>
      <trkpt lat="47.25685" lon="-1.44294">
        <ele>56</ele>
        <time>2020-10-17T11:45:04.000Z</time>
      </trkpt>
      <trkpt lat="47.25675" lon="-1.44307">
        <ele>56</ele>
        <time>2020-10-17T11:45:06.000Z</time>
      </trkpt>
      <trkpt lat="47.25666" lon="-1.4432">
        <ele>55</ele>
        <time>2020-10-17T11:45:08.000Z</time>
      </trkpt>
      <trkpt lat="47.25657" lon="-1.44332">
        <ele>56</ele>
        <time>2020-10-17T11:45:10.000Z</time>
      </trkpt>
      <trkpt lat="47.25646" lon="-1.44343">
        <ele>56</ele>
        <time>2020-10-17T11:45:12.000Z</time>
      </trkpt>
      <trkpt lat="47.25636" lon="-1.44355">
        <ele>56</ele>
        <time>2020-10-17T11:45:14.000Z</time>
      </trkpt>
      <trkpt lat="47.25625" lon="-1.44366">
        <ele>56</ele>
        <time>2020-10-17T11:45:16.000Z</time>
      </trkpt>
      <trkpt lat="47.25615" lon="-1.44379">
        <ele>55</ele>
        <time>2020-10-17T11:45:18.000Z</time>
      </trkpt>
      <trkpt lat="47.25604" lon="-1.44391">
        <ele>55</ele>
        <time>2020-10-17T11:45:20.000Z</time>
      </trkpt>
      <trkpt lat="47.25594" lon="-1.44403">
        <ele>55</ele>
        <time>2020-10-17T11:45:22.000Z</time>
      </trkpt>
      <trkpt lat="47.25584" lon="-1.44416">
        <ele>54</ele>
        <time>2020-10-17T11:45:24.000Z</time>
      </trkpt>
      <trkpt lat="47.25573" lon="-1.44428">
        <ele>54</ele>
        <time>2020-10-17T11:45:26.000Z</time>
      </trkpt>
      <trkpt lat="47.25562" lon="-1.44441">
        <ele>55</ele>
        <time>2020-10-17T11:45:28.000Z</time>
      </trkpt>
      <trkpt lat="47.25552" lon="-1.44456">
        <ele>55</ele>
        <time>2020-10-17T11:45:30.000Z</time>
      </trkpt>
      <trkpt lat="47.25543" lon="-1.44471">
        <ele>55</ele>
        <time>2020-10-17T11:45:32.000Z</time>
      </trkpt>
      <trkpt lat="47.25533" lon="-1.44485">
        <ele>55</ele>
        <time>2020-10-17T11:45:34.000Z</time>
      </trkpt>
      <trkpt lat="47.25524" lon="-1.44499">
        <ele>55</ele>
        <time>2020-10-17T11:45:36.000Z</time>
      </trkpt>
      <trkpt lat="47.25515" lon="-1.44514">
        <ele>54</ele>
        <time>2020-10-17T11:45:38.000Z</time>
      </trkpt>
      <trkpt lat="47.25506" lon="-1.44527">
        <ele>54</ele>
        <time>2020-10-17T11:45:40.000Z</time>
      </trkpt>
      <trkpt lat="47.25496" lon="-1.44541">
        <ele>54</ele>
        <time>2020-10-17T11:45:42.000Z</time>
      </trkpt>
      <trkpt lat="47.25486" lon="-1.44555">
        <ele>53</ele>
        <time>2020-10-17T11:45:44.000Z</time>
      </trkpt>
      <trkpt lat="47.25476" lon="-1.4457">
        <ele>53</ele>
        <time>2020-10-17T11:45:46.000Z</time>
      </trkpt>
      <trkpt lat="47.25467" lon="-1.44585">
        <ele>53</ele>
        <time>2020-10-17T11:45:48.000Z</time>
      </trkpt>
      <trkpt lat="47.25458" lon="-1.44599">
        <ele>53</ele>
        <time>2020-10-17T11:45:50.000Z</time>
      </trkpt>
      <trkpt lat="47.25449" lon="-1.44613">
        <ele>53</ele>
        <time>2020-10-17T11:45:52.000Z</time>
      </trkpt>
      <trkpt lat="47.25439" lon="-1.44626">
        <ele>53</ele>
        <time>2020-10-17T11:45:54.000Z</time>
      </trkpt>
      <trkpt lat="47.2543" lon="-1.44638">
        <ele>53</ele>
        <time>2020-10-17T11:45:56.000Z</time>
      </trkpt>
      <trkpt lat="47.2542" lon="-1.44652">
        <ele>53</ele>
        <time>2020-10-17T11:45:58.000Z</time>
      </trkpt>
      <trkpt lat="47.2541" lon="-1.44666">
        <ele>53</ele>
        <time>2020-10-17T11:46:00.000Z</time>
      </trkpt>
      <trkpt lat="47.25399" lon="-1.44679">
        <ele>54</ele>
        <time>2020-10-17T11:46:02.000Z</time>
      </trkpt>
      <trkpt lat="47.25389" lon="-1.44693">
        <ele>53</ele>
        <time>2020-10-17T11:46:04.000Z</time>
      </trkpt>
      <trkpt lat="47.25379" lon="-1.44706">
        <ele>53</ele>
        <time>2020-10-17T11:46:06.000Z</time>
      </trkpt>
      <trkpt lat="47.25368" lon="-1.44718">
        <ele>54</ele>
        <time>2020-10-17T11:46:08.000Z</time>
      </trkpt>
      <trkpt lat="47.25357" lon="-1.44729">
        <ele>54</ele>
        <time>2020-10-17T11:46:10.000Z</time>
      </trkpt>
      <trkpt lat="47.25346" lon="-1.4474">
        <ele>54</ele>
        <time>2020-10-17T11:46:12.000Z</time>
      </trkpt>
      <trkpt lat="47.25335" lon="-1.4475">
        <ele>54</ele>
        <time>2020-10-17T11:46:14.000Z</time>
      </trkpt>
      <trkpt lat="47.25324" lon="-1.4476">
        <ele>53</ele>
        <time>2020-10-17T11:46:16.000Z</time>
      </trkpt>
      <trkpt lat="47.25312" lon="-1.44772">
        <ele>53</ele>
        <time>2020-10-17T11:46:18.000Z</time>
      </trkpt>
      <trkpt lat="47.25301" lon="-1.44783">
        <ele>53</ele>
        <time>2020-10-17T11:46:20.000Z</time>
      </trkpt>
      <trkpt lat="47.25291" lon="-1.44795">
        <ele>53</ele>
        <time>2020-10-17T11:46:22.000Z</time>
      </trkpt>
      <trkpt lat="47.25281" lon="-1.44807">
        <ele>53</ele>
        <time>2020-10-17T11:46:24.000Z</time>
      </trkpt>
      <trkpt lat="47.2527" lon="-1.4482">
        <ele>54</ele>
        <time>2020-10-17T11:46:26.000Z</time>
      </trkpt>
      <trkpt lat="47.25259" lon="-1.44833">
        <ele>54</ele>
        <time>2020-10-17T11:46:28.000Z</time>
      </trkpt>
      <trkpt lat="47.25248" lon="-1.44845">
        <ele>54</ele>
        <time>2020-10-17T11:46:30.000Z</time>
      </trkpt>
      <trkpt lat="47.25236" lon="-1.44859">
        <ele>54</ele>
        <time>2020-10-17T11:46:32.000Z</time>
      </trkpt>
      <trkpt lat="47.25225" lon="-1.4487">
        <ele>54</ele>
        <time>2020-10-17T11:46:34.000Z</time>
      </trkpt>
      <trkpt lat="47.25213" lon="-1.4488">
        <ele>55</ele>
        <time>2020-10-17T11:46:36.000Z</time>
      </trkpt>
      <trkpt lat="47.25201" lon="-1.44889">
        <ele>55</ele>
        <time>2020-10-17T11:46:38.000Z</time>
      </trkpt>
      <trkpt lat="47.25188" lon="-1.44899">
        <ele>54</ele>
        <time>2020-10-17T11:46:40.000Z</time>
      </trkpt>
      <trkpt lat="47.25176" lon="-1.44909">
        <ele>54</ele>
        <time>2020-10-17T11:46:42.000Z</time>
      </trkpt>
      <trkpt lat="47.25164" lon="-1.44919">
        <ele>53</ele>
        <time>2020-10-17T11:46:44.000Z</time>
      </trkpt>
      <trkpt lat="47.25153" lon="-1.4493">
        <ele>53</ele>
        <time>2020-10-17T11:46:46.000Z</time>
      </trkpt>
      <trkpt lat="47.25141" lon="-1.44941">
        <ele>53</ele>
        <time>2020-10-17T11:46:48.000Z</time>
      </trkpt>
      <trkpt lat="47.2513" lon="-1.44952">
        <ele>53</ele>
        <time>2020-10-17T11:46:50.000Z</time>
      </trkpt>
      <trkpt lat="47.25118" lon="-1.44961">
        <ele>53</ele>
        <time>2020-10-17T11:46:52.000Z</time>
      </trkpt>
      <trkpt lat="47.25106" lon="-1.44972">
        <ele>53</ele>
        <time>2020-10-17T11:46:54.000Z</time>
      </trkpt>
      <trkpt lat="47.25095" lon="-1.44983">
        <ele>53</ele>
        <time>2020-10-17T11:46:56.000Z</time>
      </trkpt>
      <trkpt lat="47.25084" lon="-1.44993">
        <ele>53</ele>
        <time>2020-10-17T11:46:58.000Z</time>
      </trkpt>
      <trkpt lat="47.25072" lon="-1.45002">
        <ele>54</ele>
        <time>2020-10-17T11:47:00.000Z</time>
      </trkpt>
      <trkpt lat="47.25061" lon="-1.45011">
        <ele>55</ele>
        <time>2020-10-17T11:47:02.000Z</time>
      </trkpt>
      <trkpt lat="47.25049" lon="-1.4502">
        <ele>55</ele>
        <time>2020-10-17T11:47:04.000Z</time>
      </trkpt>
      <trkpt lat="47.25037" lon="-1.45029">
        <ele>55</ele>
        <time>2020-10-17T11:47:06.000Z</time>
      </trkpt>
      <trkpt lat="47.25025" lon="-1.45038">
        <ele>55</ele>
        <time>2020-10-17T11:47:08.000Z</time>
      </trkpt>
      <trkpt lat="47.25013" lon="-1.45048">
        <ele>55</ele>
        <time>2020-10-17T11:47:10.000Z</time>
      </trkpt>
      <trkpt lat="47.25003" lon="-1.45058">
        <ele>55</ele>
        <time>2020-10-17T11:47:12.000Z</time>
      </trkpt>
      <trkpt lat="47.24993" lon="-1.4507">
        <ele>55</ele>
        <time>2020-10-17T11:47:14.000Z</time>
      </trkpt>
      <trkpt lat="47.24984" lon="-1.45083">
        <ele>55</ele>
        <time>2020-10-17T11:47:16.000Z</time>
      </trkpt>
      <trkpt lat="47.24973" lon="-1.45094">
        <ele>55</ele>
        <time>2020-10-17T11:47:18.000Z</time>
      </trkpt>
      <trkpt lat="47.24961" lon="-1.45105">
        <ele>54</ele>
        <time>2020-10-17T11:47:20.000Z</time>
      </trkpt>
      <trkpt lat="47.24951" lon="-1.45116">
        <ele>54</ele>
        <time>2020-10-17T11:47:22.000Z</time>
      </trkpt>
      <trkpt lat="47.24941" lon="-1.45128">
        <ele>54</ele>
        <time>2020-10-17T11:47:24.000Z</time>
      </trkpt>
      <trkpt lat="47.2493" lon="-1.45139">
        <ele>54</ele>
        <time>2020-10-17T11:47:26.000Z</time>
      </trkpt>
      <trkpt lat="47.2492" lon="-1.4515">
        <ele>54</ele>
        <time>2020-10-17T11:47:28.000Z</time>
      </trkpt>
      <trkpt lat="47.2491" lon="-1.45161">
        <ele>54</ele>
        <time>2020-10-17T11:47:30.000Z</time>
      </trkpt>
      <trkpt lat="47.24901" lon="-1.45172">
        <ele>54</ele>
        <time>2020-10-17T11:47:32.000Z</time>
      </trkpt>
      <trkpt lat="47.24893" lon="-1.45185">
        <ele>54</ele>
        <time>2020-10-17T11:47:34.000Z</time>
      </trkpt>
      <trkpt lat="47.24884" lon="-1.45196">
        <ele>55</ele>
        <time>2020-10-17T11:47:36.000Z</time>
      </trkpt>
      <trkpt lat="47.24877" lon="-1.45206">
        <ele>55</ele>
        <time>2020-10-17T11:47:38.000Z</time>
      </trkpt>
      <trkpt lat="47.24869" lon="-1.45218">
        <ele>55</ele>
        <time>2020-10-17T11:47:40.000Z</time>
      </trkpt>
      <trkpt lat="47.24859" lon="-1.45231">
        <ele>55</ele>
        <time>2020-10-17T11:47:42.000Z</time>
      </trkpt>
      <trkpt lat="47.2485" lon="-1.45245">
        <ele>54</ele>
        <time>2020-10-17T11:47:44.000Z</time>
      </trkpt>
      <trkpt lat="47.24842" lon="-1.4526">
        <ele>54</ele>
        <time>2020-10-17T11:47:46.000Z</time>
      </trkpt>
      <trkpt lat="47.24834" lon="-1.45273">
        <ele>54</ele>
        <time>2020-10-17T11:47:48.000Z</time>
      </trkpt>
      <trkpt lat="47.24825" lon="-1.45286">
        <ele>55</ele>
        <time>2020-10-17T11:47:50.000Z</time>
      </trkpt>
      <trkpt lat="47.24818" lon="-1.453">
        <ele>55</ele>
        <time>2020-10-17T11:47:52.000Z</time>
      </trkpt>
      <trkpt lat="47.24811" lon="-1.45316">
        <ele>56</ele>
        <time>2020-10-17T11:47:54.000Z</time>
      </trkpt>
      <trkpt lat="47.24803" lon="-1.4533">
        <ele>56</ele>
        <time>2020-10-17T11:47:56.000Z</time>
      </trkpt>
      <trkpt lat="47.24796" lon="-1.45345">
        <ele>56</ele>
        <time>2020-10-17T11:47:58.000Z</time>
      </trkpt>
      <trkpt lat="47.2479" lon="-1.45362">
        <ele>56</ele>
        <time>2020-10-17T11:48:00.000Z</time>
      </trkpt>
      <trkpt lat="47.24784" lon="-1.45379">
        <ele>56</ele>
        <time>2020-10-17T11:48:02.000Z</time>
      </trkpt>
      <trkpt lat="47.24778" lon="-1.45396">
        <ele>56</ele>
        <time>2020-10-17T11:48:04.000Z</time>
      </trkpt>
      <trkpt lat="47.24772" lon="-1.45413">
        <ele>56</ele>
        <time>2020-10-17T11:48:06.000Z</time>
      </trkpt>
      <trkpt lat="47.24765" lon="-1.4543">
        <ele>58</ele>
        <time>2020-10-17T11:48:08.000Z</time>
      </trkpt>
      <trkpt lat="47.24758" lon="-1.45447">
        <ele>56</ele>
        <time>2020-10-17T11:48:10.000Z</time>
      </trkpt>
      <trkpt lat="47.24753" lon="-1.45465">
        <ele>56</ele>
        <time>2020-10-17T11:48:12.000Z</time>
      </trkpt>
      <trkpt lat="47.24746" lon="-1.45482">
        <ele>55</ele>
        <time>2020-10-17T11:48:14.000Z</time>
      </trkpt>
      <trkpt lat="47.24738" lon="-1.45498">
        <ele>54</ele>
        <time>2020-10-17T11:48:16.000Z</time>
      </trkpt>
      <trkpt lat="47.24731" lon="-1.45515">
        <ele>54</ele>
        <time>2020-10-17T11:48:18.000Z</time>
      </trkpt>
      <trkpt lat="47.24724" lon="-1.45532">
        <ele>54</ele>
        <time>2020-10-17T11:48:20.000Z</time>
      </trkpt>
      <trkpt lat="47.24718" lon="-1.4555">
        <ele>55</ele>
        <time>2020-10-17T11:48:22.000Z</time>
      </trkpt>
      <trkpt lat="47.24712" lon="-1.45567">
        <ele>54</ele>
        <time>2020-10-17T11:48:24.000Z</time>
      </trkpt>
      <trkpt lat="47.24707" lon="-1.45586">
        <ele>54</ele>
        <time>2020-10-17T11:48:26.000Z</time>
      </trkpt>
      <trkpt lat="47.24701" lon="-1.45603">
        <ele>55</ele>
        <time>2020-10-17T11:48:28.000Z</time>
      </trkpt>
      <trkpt lat="47.24695" lon="-1.4562">
        <ele>55</ele>
        <time>2020-10-17T11:48:30.000Z</time>
      </trkpt>
      <trkpt lat="47.24689" lon="-1.45637">
        <ele>55</ele>
        <time>2020-10-17T11:48:32.000Z</time>
      </trkpt>
      <trkpt lat="47.24683" lon="-1.45654">
        <ele>55</ele>
        <time>2020-10-17T11:48:34.000Z</time>
      </trkpt>
      <trkpt lat="47.24677" lon="-1.45671">
        <ele>55</ele>
        <time>2020-10-17T11:48:36.000Z</time>
      </trkpt>
      <trkpt lat="47.24674" lon="-1.45689">
        <ele>56</ele>
        <time>2020-10-17T11:48:38.000Z</time>
      </trkpt>
      <trkpt lat="47.2467" lon="-1.45706">
        <ele>56</ele>
        <time>2020-10-17T11:48:40.000Z</time>
      </trkpt>
      <trkpt lat="47.24666" lon="-1.45724">
        <ele>56</ele>
        <time>2020-10-17T11:48:42.000Z</time>
      </trkpt>
      <trkpt lat="47.24662" lon="-1.45743">
        <ele>55</ele>
        <time>2020-10-17T11:48:44.000Z</time>
      </trkpt>
      <trkpt lat="47.24658" lon="-1.45761">
        <ele>55</ele>
        <time>2020-10-17T11:48:46.000Z</time>
      </trkpt>
      <trkpt lat="47.24654" lon="-1.45779">
        <ele>56</ele>
        <time>2020-10-17T11:48:48.000Z</time>
      </trkpt>
      <trkpt lat="47.24648" lon="-1.45796">
        <ele>57</ele>
        <time>2020-10-17T11:48:50.000Z</time>
      </trkpt>
      <trkpt lat="47.24643" lon="-1.45813">
        <ele>57</ele>
        <time>2020-10-17T11:48:52.000Z</time>
      </trkpt>
      <trkpt lat="47.24638" lon="-1.45831">
        <ele>57</ele>
        <time>2020-10-17T11:48:54.000Z</time>
      </trkpt>
      <trkpt lat="47.24633" lon="-1.45848">
        <ele>57</ele>
        <time>2020-10-17T11:48:56.000Z</time>
      </trkpt>
      <trkpt lat="47.24628" lon="-1.45866">
        <ele>56</ele>
        <time>2020-10-17T11:48:58.000Z</time>
      </trkpt>
      <trkpt lat="47.24624" lon="-1.45883">
        <ele>56</ele>
        <time>2020-10-17T11:49:00.000Z</time>
      </trkpt>
      <trkpt lat="47.24618" lon="-1.459">
        <ele>56</ele>
        <time>2020-10-17T11:49:02.000Z</time>
      </trkpt>
      <trkpt lat="47.24613" lon="-1.45916">
        <ele>56</ele>
        <time>2020-10-17T11:49:04.000Z</time>
      </trkpt>
      <trkpt lat="47.24607" lon="-1.45933">
        <ele>57</ele>
        <time>2020-10-17T11:49:06.000Z</time>
      </trkpt>
      <trkpt lat="47.24601" lon="-1.45949">
        <ele>56</ele>
        <time>2020-10-17T11:49:08.000Z</time>
      </trkpt>
      <trkpt lat="47.24593" lon="-1.45964">
        <ele>55</ele>
        <time>2020-10-17T11:49:10.000Z</time>
      </trkpt>
      <trkpt lat="47.24586" lon="-1.45979">
        <ele>55</ele>
        <time>2020-10-17T11:49:12.000Z</time>
      </trkpt>
      <trkpt lat="47.24579" lon="-1.45996">
        <ele>55</ele>
        <time>2020-10-17T11:49:14.000Z</time>
      </trkpt>
      <trkpt lat="47.24572" lon="-1.46012">
        <ele>54</ele>
        <time>2020-10-17T11:49:16.000Z</time>
      </trkpt>
      <trkpt lat="47.24565" lon="-1.46028">
        <ele>54</ele>
        <time>2020-10-17T11:49:18.000Z</time>
      </trkpt>
      <trkpt lat="47.24557" lon="-1.46045">
        <ele>54</ele>
        <time>2020-10-17T11:49:20.000Z</time>
      </trkpt>
      <trkpt lat="47.24548" lon="-1.4606">
        <ele>54</ele>
        <time>2020-10-17T11:49:22.000Z</time>
      </trkpt>
      <trkpt lat="47.2454" lon="-1.46076">
        <ele>54</ele>
        <time>2020-10-17T11:49:24.000Z</time>
      </trkpt>
      <trkpt lat="47.24532" lon="-1.46092">
        <ele>53</ele>
        <time>2020-10-17T11:49:26.000Z</time>
      </trkpt>
      <trkpt lat="47.24523" lon="-1.46106">
        <ele>53</ele>
        <time>2020-10-17T11:49:28.000Z</time>
      </trkpt>
      <trkpt lat="47.24512" lon="-1.46119">
        <ele>53</ele>
        <time>2020-10-17T11:49:30.000Z</time>
      </trkpt>
      <trkpt lat="47.24501" lon="-1.46132">
        <ele>55</ele>
        <time>2020-10-17T11:49:32.000Z</time>
      </trkpt>
      <trkpt lat="47.24491" lon="-1.46144">
        <ele>55</ele>
        <time>2020-10-17T11:49:34.000Z</time>
      </trkpt>
      <trkpt lat="47.24481" lon="-1.46157">
        <ele>54</ele>
        <time>2020-10-17T11:49:36.000Z</time>
      </trkpt>
      <trkpt lat="47.24471" lon="-1.46169">
        <ele>55</ele>
        <time>2020-10-17T11:49:38.000Z</time>
      </trkpt>
      <trkpt lat="47.24461" lon="-1.46181">
        <ele>55</ele>
        <time>2020-10-17T11:49:40.000Z</time>
      </trkpt>
      <trkpt lat="47.2445" lon="-1.46193">
        <ele>55</ele>
        <time>2020-10-17T11:49:42.000Z</time>
      </trkpt>
      <trkpt lat="47.2444" lon="-1.46205">
        <ele>54</ele>
        <time>2020-10-17T11:49:44.000Z</time>
      </trkpt>
      <trkpt lat="47.24431" lon="-1.46217">
        <ele>54</ele>
        <time>2020-10-17T11:49:46.000Z</time>
      </trkpt>
      <trkpt lat="47.24422" lon="-1.4623">
        <ele>55</ele>
        <time>2020-10-17T11:49:48.000Z</time>
      </trkpt>
      <trkpt lat="47.24411" lon="-1.46243">
        <ele>54</ele>
        <time>2020-10-17T11:49:50.000Z</time>
      </trkpt>
      <trkpt lat="47.24402" lon="-1.46256">
        <ele>54</ele>
        <time>2020-10-17T11:49:52.000Z</time>
      </trkpt>
      <trkpt lat="47.24392" lon="-1.46268">
        <ele>53</ele>
        <time>2020-10-17T11:49:54.000Z</time>
      </trkpt>
      <trkpt lat="47.24384" lon="-1.46282">
        <ele>53</ele>
        <time>2020-10-17T11:49:56.000Z</time>
      </trkpt>
      <trkpt lat="47.24375" lon="-1.46294">
        <ele>52</ele>
        <time>2020-10-17T11:49:58.000Z</time>
      </trkpt>
      <trkpt lat="47.24366" lon="-1.46307">
        <ele>51</ele>
        <time>2020-10-17T11:50:00.000Z</time>
      </trkpt>
      <trkpt lat="47.24358" lon="-1.46321">
        <ele>52</ele>
        <time>2020-10-17T11:50:02.000Z</time>
      </trkpt>
      <trkpt lat="47.2435" lon="-1.46334">
        <ele>52</ele>
        <time>2020-10-17T11:50:04.000Z</time>
      </trkpt>
      <trkpt lat="47.24342" lon="-1.46348">
        <ele>52</ele>
        <time>2020-10-17T11:50:06.000Z</time>
      </trkpt>
      <trkpt lat="47.24334" lon="-1.46362">
        <ele>52</ele>
        <time>2020-10-17T11:50:08.000Z</time>
      </trkpt>
      <trkpt lat="47.24326" lon="-1.46378">
        <ele>52</ele>
        <time>2020-10-17T11:50:10.000Z</time>
      </trkpt>
      <trkpt lat="47.24317" lon="-1.46391">
        <ele>53</ele>
        <time>2020-10-17T11:50:12.000Z</time>
      </trkpt>
      <trkpt lat="47.24309" lon="-1.46405">
        <ele>53</ele>
        <time>2020-10-17T11:50:14.000Z</time>
      </trkpt>
      <trkpt lat="47.24301" lon="-1.46419">
        <ele>54</ele>
        <time>2020-10-17T11:50:16.000Z</time>
      </trkpt>
      <trkpt lat="47.24292" lon="-1.46433">
        <ele>55</ele>
        <time>2020-10-17T11:50:18.000Z</time>
      </trkpt>
      <trkpt lat="47.24282" lon="-1.46447">
        <ele>54</ele>
        <time>2020-10-17T11:50:20.000Z</time>
      </trkpt>
      <trkpt lat="47.24273" lon="-1.4646">
        <ele>54</ele>
        <time>2020-10-17T11:50:22.000Z</time>
      </trkpt>
      <trkpt lat="47.24264" lon="-1.46472">
        <ele>54</ele>
        <time>2020-10-17T11:50:24.000Z</time>
      </trkpt>
      <trkpt lat="47.24255" lon="-1.46484">
        <ele>55</ele>
        <time>2020-10-17T11:50:26.000Z</time>
      </trkpt>
      <trkpt lat="47.24246" lon="-1.46497">
        <ele>55</ele>
        <time>2020-10-17T11:50:28.000Z</time>
      </trkpt>
      <trkpt lat="47.24236" lon="-1.46509">
        <ele>54</ele>
        <time>2020-10-17T11:50:30.000Z</time>
      </trkpt>
      <trkpt lat="47.24226" lon="-1.46522">
        <ele>54</ele>
        <time>2020-10-17T11:50:32.000Z</time>
      </trkpt>
      <trkpt lat="47.24217" lon="-1.46534">
        <ele>54</ele>
        <time>2020-10-17T11:50:34.000Z</time>
      </trkpt>
      <trkpt lat="47.24207" lon="-1.46545">
        <ele>54</ele>
        <time>2020-10-17T11:50:36.000Z</time>
      </trkpt>
      <trkpt lat="47.24197" lon="-1.46556">
        <ele>54</ele>
        <time>2020-10-17T11:50:38.000Z</time>
      </trkpt>
      <trkpt lat="47.24188" lon="-1.46568">
        <ele>54</ele>
        <time>2020-10-17T11:50:40.000Z</time>
      </trkpt>
      <trkpt lat="47.24178" lon="-1.4658">
        <ele>53</ele>
        <time>2020-10-17T11:50:42.000Z</time>
      </trkpt>
      <trkpt lat="47.24169" lon="-1.46591">
        <ele>53</ele>
        <time>2020-10-17T11:50:44.000Z</time>
      </trkpt>
      <trkpt lat="47.24159" lon="-1.46603">
        <ele>53</ele>
        <time>2020-10-17T11:50:46.000Z</time>
      </trkpt>
      <trkpt lat="47.2415" lon="-1.46615">
        <ele>53</ele>
        <time>2020-10-17T11:50:48.000Z</time>
      </trkpt>
      <trkpt lat="47.24142" lon="-1.46627">
        <ele>54</ele>
        <time>2020-10-17T11:50:50.000Z</time>
      </trkpt>
      <trkpt lat="47.24133" lon="-1.4664">
        <ele>54</ele>
        <time>2020-10-17T11:50:52.000Z</time>
      </trkpt>
      <trkpt lat="47.24124" lon="-1.46653">
        <ele>54</ele>
        <time>2020-10-17T11:50:54.000Z</time>
      </trkpt>
      <trkpt lat="47.24115" lon="-1.46665">
        <ele>54</ele>
        <time>2020-10-17T11:50:56.000Z</time>
      </trkpt>
      <trkpt lat="47.24105" lon="-1.46678">
        <ele>54</ele>
        <time>2020-10-17T11:50:58.000Z</time>
      </trkpt>
      <trkpt lat="47.24096" lon="-1.46691">
        <ele>54</ele>
        <time>2020-10-17T11:51:00.000Z</time>
      </trkpt>
      <trkpt lat="47.24087" lon="-1.46704">
        <ele>54</ele>
        <time>2020-10-17T11:51:02.000Z</time>
      </trkpt>
      <trkpt lat="47.24082" lon="-1.46718">
        <ele>54</ele>
        <time>2020-10-17T11:51:04.000Z</time>
      </trkpt>
      <trkpt lat="47.24077" lon="-1.46731">
        <ele>54</ele>
        <time>2020-10-17T11:51:06.000Z</time>
      </trkpt>
      <trkpt lat="47.24065" lon="-1.46737">
        <ele>54</ele>
        <time>2020-10-17T11:51:08.000Z</time>
      </trkpt>
      <trkpt lat="47.24055" lon="-1.4675">
        <ele>54</ele>
        <time>2020-10-17T11:51:10.000Z</time>
      </trkpt>
      <trkpt lat="47.24044" lon="-1.46761">
        <ele>54</ele>
        <time>2020-10-17T11:51:12.000Z</time>
      </trkpt>
      <trkpt lat="47.24033" lon="-1.46773">
        <ele>54</ele>
        <time>2020-10-17T11:51:14.000Z</time>
      </trkpt>
      <trkpt lat="47.24022" lon="-1.46785">
        <ele>54</ele>
        <time>2020-10-17T11:51:16.000Z</time>
      </trkpt>
      <trkpt lat="47.24012" lon="-1.46797">
        <ele>55</ele>
        <time>2020-10-17T11:51:18.000Z</time>
      </trkpt>
      <trkpt lat="47.24001" lon="-1.46808">
        <ele>55</ele>
        <time>2020-10-17T11:51:20.000Z</time>
      </trkpt>
      <trkpt lat="47.23991" lon="-1.46819">
        <ele>55</ele>
        <time>2020-10-17T11:51:22.000Z</time>
      </trkpt>
      <trkpt lat="47.2398" lon="-1.4683">
        <ele>55</ele>
        <time>2020-10-17T11:51:24.000Z</time>
      </trkpt>
      <trkpt lat="47.23969" lon="-1.46841">
        <ele>55</ele>
        <time>2020-10-17T11:51:26.000Z</time>
      </trkpt>
      <trkpt lat="47.23959" lon="-1.46851">
        <ele>55</ele>
        <time>2020-10-17T11:51:28.000Z</time>
      </trkpt>
      <trkpt lat="47.23949" lon="-1.46861">
        <ele>55</ele>
        <time>2020-10-17T11:51:30.000Z</time>
      </trkpt>
      <trkpt lat="47.23938" lon="-1.46868">
        <ele>55</ele>
        <time>2020-10-17T11:51:32.000Z</time>
      </trkpt>
      <trkpt lat="47.23927" lon="-1.46878">
        <ele>56</ele>
        <time>2020-10-17T11:51:34.000Z</time>
      </trkpt>
      <trkpt lat="47.23917" lon="-1.4689">
        <ele>56</ele>
        <time>2020-10-17T11:51:36.000Z</time>
      </trkpt>
      <trkpt lat="47.23908" lon="-1.46904">
        <ele>56</ele>
        <time>2020-10-17T11:51:38.000Z</time>
      </trkpt>
      <trkpt lat="47.23898" lon="-1.46917">
        <ele>56</ele>
        <time>2020-10-17T11:51:40.000Z</time>
      </trkpt>
      <trkpt lat="47.23889" lon="-1.46929">
        <ele>56</ele>
        <time>2020-10-17T11:51:42.000Z</time>
      </trkpt>
      <trkpt lat="47.2388" lon="-1.46941">
        <ele>56</ele>
        <time>2020-10-17T11:51:44.000Z</time>
      </trkpt>
      <trkpt lat="47.2387" lon="-1.46954">
        <ele>55</ele>
        <time>2020-10-17T11:51:46.000Z</time>
      </trkpt>
      <trkpt lat="47.23861" lon="-1.46966">
        <ele>55</ele>
        <time>2020-10-17T11:51:48.000Z</time>
      </trkpt>
      <trkpt lat="47.23851" lon="-1.4698">
        <ele>55</ele>
        <time>2020-10-17T11:51:50.000Z</time>
      </trkpt>
      <trkpt lat="47.23842" lon="-1.46994">
        <ele>55</ele>
        <time>2020-10-17T11:51:52.000Z</time>
      </trkpt>
      <trkpt lat="47.23832" lon="-1.47008">
        <ele>55</ele>
        <time>2020-10-17T11:51:54.000Z</time>
      </trkpt>
      <trkpt lat="47.23822" lon="-1.47021">
        <ele>55</ele>
        <time>2020-10-17T11:51:56.000Z</time>
      </trkpt>
      <trkpt lat="47.23813" lon="-1.47034">
        <ele>55</ele>
        <time>2020-10-17T11:51:58.000Z</time>
      </trkpt>
      <trkpt lat="47.23804" lon="-1.47047">
        <ele>55</ele>
        <time>2020-10-17T11:52:00.000Z</time>
      </trkpt>
      <trkpt lat="47.23794" lon="-1.4706">
        <ele>55</ele>
        <time>2020-10-17T11:52:02.000Z</time>
      </trkpt>
      <trkpt lat="47.23785" lon="-1.47074">
        <ele>56</ele>
        <time>2020-10-17T11:52:04.000Z</time>
      </trkpt>
      <trkpt lat="47.23775" lon="-1.47087">
        <ele>56</ele>
        <time>2020-10-17T11:52:06.000Z</time>
      </trkpt>
      <trkpt lat="47.23765" lon="-1.471">
        <ele>56</ele>
        <time>2020-10-17T11:52:08.000Z</time>
      </trkpt>
      <trkpt lat="47.23755" lon="-1.47113">
        <ele>55</ele>
        <time>2020-10-17T11:52:10.000Z</time>
      </trkpt>
      <trkpt lat="47.23745" lon="-1.47126">
        <ele>55</ele>
        <time>2020-10-17T11:52:12.000Z</time>
      </trkpt>
      <trkpt lat="47.23734" lon="-1.47138">
        <ele>55</ele>
        <time>2020-10-17T11:52:14.000Z</time>
      </trkpt>
      <trkpt lat="47.23725" lon="-1.47151">
        <ele>55</ele>
        <time>2020-10-17T11:52:16.000Z</time>
      </trkpt>
      <trkpt lat="47.23715" lon="-1.47164">
        <ele>55</ele>
        <time>2020-10-17T11:52:18.000Z</time>
      </trkpt>
      <trkpt lat="47.23705" lon="-1.47178">
        <ele>55</ele>
        <time>2020-10-17T11:52:20.000Z</time>
      </trkpt>
      <trkpt lat="47.23695" lon="-1.47192">
        <ele>54</ele>
        <time>2020-10-17T11:52:22.000Z</time>
      </trkpt>
      <trkpt lat="47.23686" lon="-1.47207">
        <ele>53</ele>
        <time>2020-10-17T11:52:24.000Z</time>
      </trkpt>
      <trkpt lat="47.23678" lon="-1.47221">
        <ele>54</ele>
        <time>2020-10-17T11:52:26.000Z</time>
      </trkpt>
      <trkpt lat="47.23668" lon="-1.47234">
        <ele>53</ele>
        <time>2020-10-17T11:52:28.000Z</time>
      </trkpt>
      <trkpt lat="47.23658" lon="-1.47246">
        <ele>53</ele>
        <time>2020-10-17T11:52:30.000Z</time>
      </trkpt>
      <trkpt lat="47.23646" lon="-1.47257">
        <ele>54</ele>
        <time>2020-10-17T11:52:32.000Z</time>
      </trkpt>
      <trkpt lat="47.23635" lon="-1.47269">
        <ele>54</ele>
        <time>2020-10-17T11:52:34.000Z</time>
      </trkpt>
      <trkpt lat="47.23624" lon="-1.47282">
        <ele>54</ele>
        <time>2020-10-17T11:52:36.000Z</time>
      </trkpt>
      <trkpt lat="47.23613" lon="-1.47294">
        <ele>54</ele>
        <time>2020-10-17T11:52:38.000Z</time>
      </trkpt>
      <trkpt lat="47.23602" lon="-1.47306">
        <ele>55</ele>
        <time>2020-10-17T11:52:40.000Z</time>
      </trkpt>
      <trkpt lat="47.23591" lon="-1.47317">
        <ele>55</ele>
        <time>2020-10-17T11:52:42.000Z</time>
      </trkpt>
      <trkpt lat="47.2358" lon="-1.47327">
        <ele>55</ele>
        <time>2020-10-17T11:52:44.000Z</time>
      </trkpt>
      <trkpt lat="47.23568" lon="-1.47337">
        <ele>56</ele>
        <time>2020-10-17T11:52:46.000Z</time>
      </trkpt>
      <trkpt lat="47.23557" lon="-1.47347">
        <ele>55</ele>
        <time>2020-10-17T11:52:48.000Z</time>
      </trkpt>
      <trkpt lat="47.23545" lon="-1.47358">
        <ele>56</ele>
        <time>2020-10-17T11:52:50.000Z</time>
      </trkpt>
      <trkpt lat="47.23533" lon="-1.47368">
        <ele>55</ele>
        <time>2020-10-17T11:52:52.000Z</time>
      </trkpt>
      <trkpt lat="47.23521" lon="-1.47377">
        <ele>55</ele>
        <time>2020-10-17T11:52:54.000Z</time>
      </trkpt>
      <trkpt lat="47.23509" lon="-1.47387">
        <ele>55</ele>
        <time>2020-10-17T11:52:56.000Z</time>
      </trkpt>
      <trkpt lat="47.23497" lon="-1.47396">
        <ele>55</ele>
        <time>2020-10-17T11:52:58.000Z</time>
      </trkpt>
      <trkpt lat="47.23485" lon="-1.47404">
        <ele>56</ele>
        <time>2020-10-17T11:53:00.000Z</time>
      </trkpt>
      <trkpt lat="47.23472" lon="-1.4741">
        <ele>56</ele>
        <time>2020-10-17T11:53:02.000Z</time>
      </trkpt>
      <trkpt lat="47.23459" lon="-1.47415">
        <ele>56</ele>
        <time>2020-10-17T11:53:04.000Z</time>
      </trkpt>
      <trkpt lat="47.23447" lon="-1.47419">
        <ele>56</ele>
        <time>2020-10-17T11:53:06.000Z</time>
      </trkpt>
      <trkpt lat="47.23435" lon="-1.47424">
        <ele>56</ele>
        <time>2020-10-17T11:53:08.000Z</time>
      </trkpt>
      <trkpt lat="47.23423" lon="-1.4743">
        <ele>57</ele>
        <time>2020-10-17T11:53:10.000Z</time>
      </trkpt>
      <trkpt lat="47.23411" lon="-1.4744">
        <ele>57</ele>
        <time>2020-10-17T11:53:12.000Z</time>
      </trkpt>
      <trkpt lat="47.23399" lon="-1.47449">
        <ele>58</ele>
        <time>2020-10-17T11:53:14.000Z</time>
      </trkpt>
      <trkpt lat="47.23386" lon="-1.47457">
        <ele>58</ele>
        <time>2020-10-17T11:53:16.000Z</time>
      </trkpt>
      <trkpt lat="47.23372" lon="-1.47464">
        <ele>58</ele>
        <time>2020-10-17T11:53:18.000Z</time>
      </trkpt>
      <trkpt lat="47.23359" lon="-1.4747">
        <ele>58</ele>
        <time>2020-10-17T11:53:20.000Z</time>
      </trkpt>
      <trkpt lat="47.23346" lon="-1.47476">
        <ele>57</ele>
        <time>2020-10-17T11:53:22.000Z</time>
      </trkpt>
      <trkpt lat="47.23334" lon="-1.47483">
        <ele>57</ele>
        <time>2020-10-17T11:53:24.000Z</time>
      </trkpt>
      <trkpt lat="47.23322" lon="-1.47493">
        <ele>57</ele>
        <time>2020-10-17T11:53:26.000Z</time>
      </trkpt>
      <trkpt lat="47.23312" lon="-1.47501">
        <ele>58</ele>
        <time>2020-10-17T11:53:28.000Z</time>
      </trkpt>
      <trkpt lat="47.233" lon="-1.47509">
        <ele>58</ele>
        <time>2020-10-17T11:53:30.000Z</time>
      </trkpt>
      <trkpt lat="47.23288" lon="-1.47515">
        <ele>58</ele>
        <time>2020-10-17T11:53:32.000Z</time>
      </trkpt>
      <trkpt lat="47.23276" lon="-1.47521">
        <ele>58</ele>
        <time>2020-10-17T11:53:34.000Z</time>
      </trkpt>
      <trkpt lat="47.23265" lon="-1.4753">
        <ele>58</ele>
        <time>2020-10-17T11:53:36.000Z</time>
      </trkpt>
      <trkpt lat="47.23256" lon="-1.47545">
        <ele>57</ele>
        <time>2020-10-17T11:53:38.000Z</time>
      </trkpt>
      <trkpt lat="47.23248" lon="-1.4756">
        <ele>57</ele>
        <time>2020-10-17T11:53:40.000Z</time>
      </trkpt>
      <trkpt lat="47.2324" lon="-1.47575">
        <ele>56</ele>
        <time>2020-10-17T11:53:42.000Z</time>
      </trkpt>
      <trkpt lat="47.23232" lon="-1.47589">
        <ele>56</ele>
        <time>2020-10-17T11:53:44.000Z</time>
      </trkpt>
      <trkpt lat="47.23225" lon="-1.47604">
        <ele>56</ele>
        <time>2020-10-17T11:53:46.000Z</time>
      </trkpt>
      <trkpt lat="47.23218" lon="-1.47619">
        <ele>56</ele>
        <time>2020-10-17T11:53:48.000Z</time>
      </trkpt>
      <trkpt lat="47.23212" lon="-1.47634">
        <ele>56</ele>
        <time>2020-10-17T11:53:50.000Z</time>
      </trkpt>
      <trkpt lat="47.23206" lon="-1.47649">
        <ele>56</ele>
        <time>2020-10-17T11:53:52.000Z</time>
      </trkpt>
      <trkpt lat="47.232" lon="-1.47665">
        <ele>57</ele>
        <time>2020-10-17T11:53:54.000Z</time>
      </trkpt>
      <trkpt lat="47.23193" lon="-1.4768">
        <ele>57</ele>
        <time>2020-10-17T11:53:56.000Z</time>
      </trkpt>
      <trkpt lat="47.23186" lon="-1.47696">
        <ele>58</ele>
        <time>2020-10-17T11:53:58.000Z</time>
      </trkpt>
      <trkpt lat="47.23179" lon="-1.47713">
        <ele>58</ele>
        <time>2020-10-17T11:54:00.000Z</time>
      </trkpt>
      <trkpt lat="47.23171" lon="-1.47729">
        <ele>58</ele>
        <time>2020-10-17T11:54:02.000Z</time>
      </trkpt>
      <trkpt lat="47.23166" lon="-1.47745">
        <ele>58</ele>
        <time>2020-10-17T11:54:04.000Z</time>
      </trkpt>
      <trkpt lat="47.23158" lon="-1.47761">
        <ele>57</ele>
        <time>2020-10-17T11:54:06.000Z</time>
      </trkpt>
      <trkpt lat="47.23151" lon="-1.47777">
        <ele>57</ele>
        <time>2020-10-17T11:54:08.000Z</time>
      </trkpt>
      <trkpt lat="47.23146" lon="-1.47794">
        <ele>57</ele>
        <time>2020-10-17T11:54:10.000Z</time>
      </trkpt>
      <trkpt lat="47.23141" lon="-1.4781">
        <ele>57</ele>
        <time>2020-10-17T11:54:12.000Z</time>
      </trkpt>
      <trkpt lat="47.23134" lon="-1.47826">
        <ele>57</ele>
        <time>2020-10-17T11:54:14.000Z</time>
      </trkpt>
      <trkpt lat="47.23128" lon="-1.47842">
        <ele>57</ele>
        <time>2020-10-17T11:54:16.000Z</time>
      </trkpt>
      <trkpt lat="47.2312" lon="-1.47859">
        <ele>56</ele>
        <time>2020-10-17T11:54:18.000Z</time>
      </trkpt>
      <trkpt lat="47.23111" lon="-1.47873">
        <ele>56</ele>
        <time>2020-10-17T11:54:20.000Z</time>
      </trkpt>
      <trkpt lat="47.23102" lon="-1.47886">
        <ele>55</ele>
        <time>2020-10-17T11:54:22.000Z</time>
      </trkpt>
      <trkpt lat="47.23092" lon="-1.47899">
        <ele>55</ele>
        <time>2020-10-17T11:54:24.000Z</time>
      </trkpt>
      <trkpt lat="47.23083" lon="-1.47911">
        <ele>56</ele>
        <time>2020-10-17T11:54:26.000Z</time>
      </trkpt>
      <trkpt lat="47.23073" lon="-1.47923">
        <ele>56</ele>
        <time>2020-10-17T11:54:28.000Z</time>
      </trkpt>
      <trkpt lat="47.23064" lon="-1.47937">
        <ele>56</ele>
        <time>2020-10-17T11:54:30.000Z</time>
      </trkpt>
      <trkpt lat="47.23054" lon="-1.4795">
        <ele>56</ele>
        <time>2020-10-17T11:54:32.000Z</time>
      </trkpt>
      <trkpt lat="47.23044" lon="-1.47962">
        <ele>56</ele>
        <time>2020-10-17T11:54:34.000Z</time>
      </trkpt>
      <trkpt lat="47.23035" lon="-1.47975">
        <ele>57</ele>
        <time>2020-10-17T11:54:36.000Z</time>
      </trkpt>
      <trkpt lat="47.23025" lon="-1.47988">
        <ele>57</ele>
        <time>2020-10-17T11:54:38.000Z</time>
      </trkpt>
      <trkpt lat="47.23016" lon="-1.48002">
        <ele>57</ele>
        <time>2020-10-17T11:54:40.000Z</time>
      </trkpt>
      <trkpt lat="47.23007" lon="-1.48016">
        <ele>58</ele>
        <time>2020-10-17T11:54:42.000Z</time>
      </trkpt>
      <trkpt lat="47.22999" lon="-1.4803">
        <ele>59</ele>
        <time>2020-10-17T11:54:44.000Z</time>
      </trkpt>
      <trkpt lat="47.2299" lon="-1.48045">
        <ele>59</ele>
        <time>2020-10-17T11:54:46.000Z</time>
      </trkpt>
      <trkpt lat="47.22982" lon="-1.48058">
        <ele>58</ele>
        <time>2020-10-17T11:54:48.000Z</time>
      </trkpt>
      <trkpt lat="47.22974" lon="-1.48072">
        <ele>58</ele>
        <time>2020-10-17T11:54:50.000Z</time>
      </trkpt>
      <trkpt lat="47.22967" lon="-1.48083">
        <ele>58</ele>
        <time>2020-10-17T11:54:52.000Z</time>
      </trkpt>
      <trkpt lat="47.22956" lon="-1.48094">
        <ele>57</ele>
        <time>2020-10-17T11:54:55.000Z</time>
      </trkpt>
      <trkpt lat="47.2295" lon="-1.48105">
        <ele>57</ele>
        <time>2020-10-17T11:54:57.000Z</time>
      </trkpt>
      <trkpt lat="47.22939" lon="-1.48111">
        <ele>57</ele>
        <time>2020-10-17T11:54:59.000Z</time>
      </trkpt>
      <trkpt lat="47.22926" lon="-1.48112">
        <ele>56</ele>
        <time>2020-10-17T11:55:01.000Z</time>
      </trkpt>
      <trkpt lat="47.22914" lon="-1.48117">
        <ele>57</ele>
        <time>2020-10-17T11:55:03.000Z</time>
      </trkpt>
      <trkpt lat="47.22903" lon="-1.48127">
        <ele>57</ele>
        <time>2020-10-17T11:55:05.000Z</time>
      </trkpt>
      <trkpt lat="47.22893" lon="-1.4814">
        <ele>57</ele>
        <time>2020-10-17T11:55:07.000Z</time>
      </trkpt>
      <trkpt lat="47.22883" lon="-1.48154">
        <ele>57</ele>
        <time>2020-10-17T11:55:09.000Z</time>
      </trkpt>
      <trkpt lat="47.22874" lon="-1.48169">
        <ele>57</ele>
        <time>2020-10-17T11:55:11.000Z</time>
      </trkpt>
      <trkpt lat="47.22865" lon="-1.48183">
        <ele>58</ele>
        <time>2020-10-17T11:55:13.000Z</time>
      </trkpt>
      <trkpt lat="47.22857" lon="-1.48198">
        <ele>58</ele>
        <time>2020-10-17T11:55:15.000Z</time>
      </trkpt>
      <trkpt lat="47.22848" lon="-1.48212">
        <ele>58</ele>
        <time>2020-10-17T11:55:17.000Z</time>
      </trkpt>
      <trkpt lat="47.2284" lon="-1.48226">
        <ele>58</ele>
        <time>2020-10-17T11:55:19.000Z</time>
      </trkpt>
      <trkpt lat="47.22831" lon="-1.4824">
        <ele>57</ele>
        <time>2020-10-17T11:55:21.000Z</time>
      </trkpt>
      <trkpt lat="47.22822" lon="-1.48253">
        <ele>57</ele>
        <time>2020-10-17T11:55:23.000Z</time>
      </trkpt>
      <trkpt lat="47.22812" lon="-1.48266">
        <ele>57</ele>
        <time>2020-10-17T11:55:25.000Z</time>
      </trkpt>
      <trkpt lat="47.22802" lon="-1.4828">
        <ele>56</ele>
        <time>2020-10-17T11:55:27.000Z</time>
      </trkpt>
      <trkpt lat="47.22794" lon="-1.48295">
        <ele>56</ele>
        <time>2020-10-17T11:55:29.000Z</time>
      </trkpt>
      <trkpt lat="47.22785" lon="-1.4831">
        <ele>56</ele>
        <time>2020-10-17T11:55:31.000Z</time>
      </trkpt>
      <trkpt lat="47.22776" lon="-1.48323">
        <ele>56</ele>
        <time>2020-10-17T11:55:33.000Z</time>
      </trkpt>
      <trkpt lat="47.22767" lon="-1.48337">
        <ele>56</ele>
        <time>2020-10-17T11:55:35.000Z</time>
      </trkpt>
      <trkpt lat="47.22758" lon="-1.4835">
        <ele>56</ele>
        <time>2020-10-17T11:55:37.000Z</time>
      </trkpt>
      <trkpt lat="47.22749" lon="-1.48363">
        <ele>56</ele>
        <time>2020-10-17T11:55:39.000Z</time>
      </trkpt>
      <trkpt lat="47.22739" lon="-1.48376">
        <ele>56</ele>
        <time>2020-10-17T11:55:41.000Z</time>
      </trkpt>
      <trkpt lat="47.2273" lon="-1.48388">
        <ele>55</ele>
        <time>2020-10-17T11:55:43.000Z</time>
      </trkpt>
      <trkpt lat="47.2272" lon="-1.48401">
        <ele>55</ele>
        <time>2020-10-17T11:55:45.000Z</time>
      </trkpt>
      <trkpt lat="47.22711" lon="-1.48414">
        <ele>55</ele>
        <time>2020-10-17T11:55:47.000Z</time>
      </trkpt>
      <trkpt lat="47.22705" lon="-1.48432">
        <ele>54</ele>
        <time>2020-10-17T11:55:49.000Z</time>
      </trkpt>
      <trkpt lat="47.22699" lon="-1.4845">
        <ele>55</ele>
        <time>2020-10-17T11:55:51.000Z</time>
      </trkpt>
      <trkpt lat="47.22693" lon="-1.48467">
        <ele>54</ele>
        <time>2020-10-17T11:55:53.000Z</time>
      </trkpt>
      <trkpt lat="47.22687" lon="-1.48484">
        <ele>54</ele>
        <time>2020-10-17T11:55:55.000Z</time>
      </trkpt>
      <trkpt lat="47.22679" lon="-1.48501">
        <ele>55</ele>
        <time>2020-10-17T11:55:57.000Z</time>
      </trkpt>
      <trkpt lat="47.22672" lon="-1.48517">
        <ele>55</ele>
        <time>2020-10-17T11:55:59.000Z</time>
      </trkpt>
      <trkpt lat="47.22666" lon="-1.48534">
        <ele>54</ele>
        <time>2020-10-17T11:56:01.000Z</time>
      </trkpt>
      <trkpt lat="47.22661" lon="-1.48552">
        <ele>54</ele>
        <time>2020-10-17T11:56:03.000Z</time>
      </trkpt>
      <trkpt lat="47.22654" lon="-1.48571">
        <ele>54</ele>
        <time>2020-10-17T11:56:05.000Z</time>
      </trkpt>
      <trkpt lat="47.22647" lon="-1.48587">
        <ele>54</ele>
        <time>2020-10-17T11:56:07.000Z</time>
      </trkpt>
      <trkpt lat="47.22641" lon="-1.48603">
        <ele>54</ele>
        <time>2020-10-17T11:56:09.000Z</time>
      </trkpt>
      <trkpt lat="47.22634" lon="-1.48619">
        <ele>55</ele>
        <time>2020-10-17T11:56:11.000Z</time>
      </trkpt>
      <trkpt lat="47.22628" lon="-1.48635">
        <ele>56</ele>
        <time>2020-10-17T11:56:13.000Z</time>
      </trkpt>
      <trkpt lat="47.22622" lon="-1.48652">
        <ele>55</ele>
        <time>2020-10-17T11:56:15.000Z</time>
      </trkpt>
      <trkpt lat="47.22616" lon="-1.48668">
        <ele>56</ele>
        <time>2020-10-17T11:56:17.000Z</time>
      </trkpt>
      <trkpt lat="47.2261" lon="-1.48686">
        <ele>56</ele>
        <time>2020-10-17T11:56:19.000Z</time>
      </trkpt>
      <trkpt lat="47.22605" lon="-1.48704">
        <ele>55</ele>
        <time>2020-10-17T11:56:21.000Z</time>
      </trkpt>
      <trkpt lat="47.226" lon="-1.48722">
        <ele>55</ele>
        <time>2020-10-17T11:56:23.000Z</time>
      </trkpt>
      <trkpt lat="47.22595" lon="-1.4874">
        <ele>55</ele>
        <time>2020-10-17T11:56:25.000Z</time>
      </trkpt>
      <trkpt lat="47.22591" lon="-1.48757">
        <ele>55</ele>
        <time>2020-10-17T11:56:27.000Z</time>
      </trkpt>
      <trkpt lat="47.22586" lon="-1.48775">
        <ele>55</ele>
        <time>2020-10-17T11:56:29.000Z</time>
      </trkpt>
      <trkpt lat="47.22581" lon="-1.48793">
        <ele>54</ele>
        <time>2020-10-17T11:56:31.000Z</time>
      </trkpt>
      <trkpt lat="47.22575" lon="-1.4881">
        <ele>54</ele>
        <time>2020-10-17T11:56:33.000Z</time>
      </trkpt>
      <trkpt lat="47.22569" lon="-1.48827">
        <ele>53</ele>
        <time>2020-10-17T11:56:35.000Z</time>
      </trkpt>
      <trkpt lat="47.22564" lon="-1.48843">
        <ele>53</ele>
        <time>2020-10-17T11:56:37.000Z</time>
      </trkpt>
      <trkpt lat="47.22559" lon="-1.48859">
        <ele>53</ele>
        <time>2020-10-17T11:56:39.000Z</time>
      </trkpt>
      <trkpt lat="47.22554" lon="-1.48875">
        <ele>53</ele>
        <time>2020-10-17T11:56:41.000Z</time>
      </trkpt>
      <trkpt lat="47.22549" lon="-1.48893">
        <ele>53</ele>
        <time>2020-10-17T11:56:43.000Z</time>
      </trkpt>
      <trkpt lat="47.22543" lon="-1.4891">
        <ele>53</ele>
        <time>2020-10-17T11:56:45.000Z</time>
      </trkpt>
      <trkpt lat="47.22538" lon="-1.48928">
        <ele>53</ele>
        <time>2020-10-17T11:56:47.000Z</time>
      </trkpt>
      <trkpt lat="47.22533" lon="-1.48945">
        <ele>53</ele>
        <time>2020-10-17T11:56:49.000Z</time>
      </trkpt>
      <trkpt lat="47.22528" lon="-1.48962">
        <ele>53</ele>
        <time>2020-10-17T11:56:51.000Z</time>
      </trkpt>
      <trkpt lat="47.22521" lon="-1.48979">
        <ele>54</ele>
        <time>2020-10-17T11:56:53.000Z</time>
      </trkpt>
      <trkpt lat="47.22515" lon="-1.48995">
        <ele>54</ele>
        <time>2020-10-17T11:56:55.000Z</time>
      </trkpt>
      <trkpt lat="47.2251" lon="-1.49013">
        <ele>54</ele>
        <time>2020-10-17T11:56:57.000Z</time>
      </trkpt>
      <trkpt lat="47.22505" lon="-1.49029">
        <ele>53</ele>
        <time>2020-10-17T11:56:59.000Z</time>
      </trkpt>
      <trkpt lat="47.225" lon="-1.49045">
        <ele>53</ele>
        <time>2020-10-17T11:57:01.000Z</time>
      </trkpt>
      <trkpt lat="47.22494" lon="-1.49062">
        <ele>53</ele>
        <time>2020-10-17T11:57:03.000Z</time>
      </trkpt>
      <trkpt lat="47.22489" lon="-1.49079">
        <ele>53</ele>
        <time>2020-10-17T11:57:05.000Z</time>
      </trkpt>
      <trkpt lat="47.22482" lon="-1.49097">
        <ele>53</ele>
        <time>2020-10-17T11:57:07.000Z</time>
      </trkpt>
      <trkpt lat="47.22477" lon="-1.49115">
        <ele>54</ele>
        <time>2020-10-17T11:57:09.000Z</time>
      </trkpt>
      <trkpt lat="47.22473" lon="-1.49133">
        <ele>54</ele>
        <time>2020-10-17T11:57:11.000Z</time>
      </trkpt>
      <trkpt lat="47.22467" lon="-1.49153">
        <ele>53</ele>
        <time>2020-10-17T11:57:13.000Z</time>
      </trkpt>
      <trkpt lat="47.22462" lon="-1.49172">
        <ele>52</ele>
        <time>2020-10-17T11:57:15.000Z</time>
      </trkpt>
      <trkpt lat="47.22455" lon="-1.49188">
        <ele>53</ele>
        <time>2020-10-17T11:57:17.000Z</time>
      </trkpt>
      <trkpt lat="47.22448" lon="-1.49205">
        <ele>53</ele>
        <time>2020-10-17T11:57:19.000Z</time>
      </trkpt>
      <trkpt lat="47.22442" lon="-1.49223">
        <ele>52</ele>
        <time>2020-10-17T11:57:21.000Z</time>
      </trkpt>
      <trkpt lat="47.22436" lon="-1.49241">
        <ele>52</ele>
        <time>2020-10-17T11:57:23.000Z</time>
      </trkpt>
      <trkpt lat="47.2243" lon="-1.49258">
        <ele>51</ele>
        <time>2020-10-17T11:57:25.000Z</time>
      </trkpt>
      <trkpt lat="47.22423" lon="-1.49273">
        <ele>51</ele>
        <time>2020-10-17T11:57:27.000Z</time>
      </trkpt>
      <trkpt lat="47.22415" lon="-1.49289">
        <ele>52</ele>
        <time>2020-10-17T11:57:29.000Z</time>
      </trkpt>
      <trkpt lat="47.22409" lon="-1.49306">
        <ele>53</ele>
        <time>2020-10-17T11:57:31.000Z</time>
      </trkpt>
      <trkpt lat="47.22404" lon="-1.49324">
        <ele>53</ele>
        <time>2020-10-17T11:57:33.000Z</time>
      </trkpt>
      <trkpt lat="47.22397" lon="-1.49342">
        <ele>52</ele>
        <time>2020-10-17T11:57:35.000Z</time>
      </trkpt>
      <trkpt lat="47.22391" lon="-1.49358">
        <ele>52</ele>
        <time>2020-10-17T11:57:37.000Z</time>
      </trkpt>
      <trkpt lat="47.22385" lon="-1.49374">
        <ele>52</ele>
        <time>2020-10-17T11:57:39.000Z</time>
      </trkpt>
      <trkpt lat="47.22379" lon="-1.49389">
        <ele>52</ele>
        <time>2020-10-17T11:57:41.000Z</time>
      </trkpt>
      <trkpt lat="47.22373" lon="-1.49404">
        <ele>52</ele>
        <time>2020-10-17T11:57:43.000Z</time>
      </trkpt>
      <trkpt lat="47.22367" lon="-1.49419">
        <ele>51</ele>
        <time>2020-10-17T11:57:45.000Z</time>
      </trkpt>
      <trkpt lat="47.22359" lon="-1.49435">
        <ele>51</ele>
        <time>2020-10-17T11:57:47.000Z</time>
      </trkpt>
      <trkpt lat="47.22353" lon="-1.49452">
        <ele>51</ele>
        <time>2020-10-17T11:57:49.000Z</time>
      </trkpt>
      <trkpt lat="47.22347" lon="-1.49468">
        <ele>52</ele>
        <time>2020-10-17T11:57:51.000Z</time>
      </trkpt>
      <trkpt lat="47.22342" lon="-1.49485">
        <ele>53</ele>
        <time>2020-10-17T11:57:53.000Z</time>
      </trkpt>
      <trkpt lat="47.22335" lon="-1.49502">
        <ele>54</ele>
        <time>2020-10-17T11:57:55.000Z</time>
      </trkpt>
      <trkpt lat="47.2233" lon="-1.4952">
        <ele>54</ele>
        <time>2020-10-17T11:57:57.000Z</time>
      </trkpt>
      <trkpt lat="47.22325" lon="-1.49538">
        <ele>54</ele>
        <time>2020-10-17T11:57:59.000Z</time>
      </trkpt>
      <trkpt lat="47.22319" lon="-1.49556">
        <ele>54</ele>
        <time>2020-10-17T11:58:01.000Z</time>
      </trkpt>
      <trkpt lat="47.22313" lon="-1.49573">
        <ele>54</ele>
        <time>2020-10-17T11:58:03.000Z</time>
      </trkpt>
      <trkpt lat="47.22307" lon="-1.49589">
        <ele>53</ele>
        <time>2020-10-17T11:58:05.000Z</time>
      </trkpt>
      <trkpt lat="47.22301" lon="-1.49607">
        <ele>53</ele>
        <time>2020-10-17T11:58:07.000Z</time>
      </trkpt>
      <trkpt lat="47.22296" lon="-1.49624">
        <ele>53</ele>
        <time>2020-10-17T11:58:09.000Z</time>
      </trkpt>
      <trkpt lat="47.22291" lon="-1.49641">
        <ele>53</ele>
        <time>2020-10-17T11:58:11.000Z</time>
      </trkpt>
      <trkpt lat="47.22286" lon="-1.49659">
        <ele>53</ele>
        <time>2020-10-17T11:58:13.000Z</time>
      </trkpt>
      <trkpt lat="47.2228" lon="-1.49677">
        <ele>53</ele>
        <time>2020-10-17T11:58:15.000Z</time>
      </trkpt>
      <trkpt lat="47.22273" lon="-1.49693">
        <ele>53</ele>
        <time>2020-10-17T11:58:17.000Z</time>
      </trkpt>
      <trkpt lat="47.22267" lon="-1.4971">
        <ele>53</ele>
        <time>2020-10-17T11:58:19.000Z</time>
      </trkpt>
      <trkpt lat="47.22261" lon="-1.49727">
        <ele>54</ele>
        <time>2020-10-17T11:58:21.000Z</time>
      </trkpt>
      <trkpt lat="47.22256" lon="-1.49745">
        <ele>55</ele>
        <time>2020-10-17T11:58:23.000Z</time>
      </trkpt>
      <trkpt lat="47.22253" lon="-1.49764">
        <ele>54</ele>
        <time>2020-10-17T11:58:25.000Z</time>
      </trkpt>
      <trkpt lat="47.2225" lon="-1.49783">
        <ele>54</ele>
        <time>2020-10-17T11:58:27.000Z</time>
      </trkpt>
      <trkpt lat="47.22246" lon="-1.49802">
        <ele>53</ele>
        <time>2020-10-17T11:58:29.000Z</time>
      </trkpt>
      <trkpt lat="47.22243" lon="-1.49821">
        <ele>54</ele>
        <time>2020-10-17T11:58:31.000Z</time>
      </trkpt>
      <trkpt lat="47.22238" lon="-1.49838">
        <ele>53</ele>
        <time>2020-10-17T11:58:33.000Z</time>
      </trkpt>
      <trkpt lat="47.22234" lon="-1.49855">
        <ele>53</ele>
        <time>2020-10-17T11:58:35.000Z</time>
      </trkpt>
      <trkpt lat="47.22231" lon="-1.49873">
        <ele>54</ele>
        <time>2020-10-17T11:58:37.000Z</time>
      </trkpt>
      <trkpt lat="47.22228" lon="-1.49892">
        <ele>53</ele>
        <time>2020-10-17T11:58:39.000Z</time>
      </trkpt>
      <trkpt lat="47.22223" lon="-1.49912">
        <ele>53</ele>
        <time>2020-10-17T11:58:41.000Z</time>
      </trkpt>
      <trkpt lat="47.22217" lon="-1.49932">
        <ele>53</ele>
        <time>2020-10-17T11:58:43.000Z</time>
      </trkpt>
      <trkpt lat="47.22211" lon="-1.49952">
        <ele>53</ele>
        <time>2020-10-17T11:58:45.000Z</time>
      </trkpt>
      <trkpt lat="47.22206" lon="-1.4997">
        <ele>53</ele>
        <time>2020-10-17T11:58:47.000Z</time>
      </trkpt>
      <trkpt lat="47.22202" lon="-1.49987">
        <ele>53</ele>
        <time>2020-10-17T11:58:49.000Z</time>
      </trkpt>
      <trkpt lat="47.22196" lon="-1.50005">
        <ele>53</ele>
        <time>2020-10-17T11:58:51.000Z</time>
      </trkpt>
      <trkpt lat="47.22191" lon="-1.50023">
        <ele>53</ele>
        <time>2020-10-17T11:58:53.000Z</time>
      </trkpt>
      <trkpt lat="47.22187" lon="-1.50042">
        <ele>53</ele>
        <time>2020-10-17T11:58:55.000Z</time>
      </trkpt>
      <trkpt lat="47.22183" lon="-1.5006">
        <ele>53</ele>
        <time>2020-10-17T11:58:57.000Z</time>
      </trkpt>
      <trkpt lat="47.22179" lon="-1.50078">
        <ele>52</ele>
        <time>2020-10-17T11:58:59.000Z</time>
      </trkpt>
      <trkpt lat="47.22174" lon="-1.50096">
        <ele>52</ele>
        <time>2020-10-17T11:59:01.000Z</time>
      </trkpt>
      <trkpt lat="47.2217" lon="-1.50115">
        <ele>52</ele>
        <time>2020-10-17T11:59:03.000Z</time>
      </trkpt>
      <trkpt lat="47.22164" lon="-1.50131">
        <ele>52</ele>
        <time>2020-10-17T11:59:05.000Z</time>
      </trkpt>
      <trkpt lat="47.22159" lon="-1.50148">
        <ele>51</ele>
        <time>2020-10-17T11:59:07.000Z</time>
      </trkpt>
      <trkpt lat="47.22153" lon="-1.50165">
        <ele>51</ele>
        <time>2020-10-17T11:59:09.000Z</time>
      </trkpt>
      <trkpt lat="47.22149" lon="-1.50183">
        <ele>51</ele>
        <time>2020-10-17T11:59:11.000Z</time>
      </trkpt>
      <trkpt lat="47.22146" lon="-1.50201">
        <ele>51</ele>
        <time>2020-10-17T11:59:13.000Z</time>
      </trkpt>
      <trkpt lat="47.22142" lon="-1.50219">
        <ele>51</ele>
        <time>2020-10-17T11:59:15.000Z</time>
      </trkpt>
      <trkpt lat="47.22136" lon="-1.50236">
        <ele>51</ele>
        <time>2020-10-17T11:59:17.000Z</time>
      </trkpt>
      <trkpt lat="47.22131" lon="-1.50252">
        <ele>51</ele>
        <time>2020-10-17T11:59:19.000Z</time>
      </trkpt>
      <trkpt lat="47.22127" lon="-1.50268">
        <ele>51</ele>
        <time>2020-10-17T11:59:21.000Z</time>
      </trkpt>
      <trkpt lat="47.2212" lon="-1.50285">
        <ele>51</ele>
        <time>2020-10-17T11:59:23.000Z</time>
      </trkpt>
      <trkpt lat="47.22113" lon="-1.50302">
        <ele>50</ele>
        <time>2020-10-17T11:59:25.000Z</time>
      </trkpt>
      <trkpt lat="47.22105" lon="-1.50317">
        <ele>51</ele>
        <time>2020-10-17T11:59:27.000Z</time>
      </trkpt>
      <trkpt lat="47.22098" lon="-1.50333">
        <ele>51</ele>
        <time>2020-10-17T11:59:29.000Z</time>
      </trkpt>
      <trkpt lat="47.22091" lon="-1.50348">
        <ele>52</ele>
        <time>2020-10-17T11:59:31.000Z</time>
      </trkpt>
      <trkpt lat="47.22086" lon="-1.50365">
        <ele>51</ele>
        <time>2020-10-17T11:59:33.000Z</time>
      </trkpt>
      <trkpt lat="47.22082" lon="-1.50384">
        <ele>51</ele>
        <time>2020-10-17T11:59:35.000Z</time>
      </trkpt>
      <trkpt lat="47.22078" lon="-1.50402">
        <ele>51</ele>
        <time>2020-10-17T11:59:37.000Z</time>
      </trkpt>
      <trkpt lat="47.22073" lon="-1.5042">
        <ele>51</ele>
        <time>2020-10-17T11:59:39.000Z</time>
      </trkpt>
      <trkpt lat="47.22069" lon="-1.50439">
        <ele>51</ele>
        <time>2020-10-17T11:59:41.000Z</time>
      </trkpt>
      <trkpt lat="47.22068" lon="-1.50459">
        <ele>52</ele>
        <time>2020-10-17T11:59:43.000Z</time>
      </trkpt>
      <trkpt lat="47.22065" lon="-1.50479">
        <ele>52</ele>
        <time>2020-10-17T11:59:45.000Z</time>
      </trkpt>
      <trkpt lat="47.22063" lon="-1.50497">
        <ele>52</ele>
        <time>2020-10-17T11:59:47.000Z</time>
      </trkpt>
      <trkpt lat="47.22063" lon="-1.50516">
        <ele>52</ele>
        <time>2020-10-17T11:59:49.000Z</time>
      </trkpt>
      <trkpt lat="47.22061" lon="-1.50535">
        <ele>52</ele>
        <time>2020-10-17T11:59:51.000Z</time>
      </trkpt>
      <trkpt lat="47.2206" lon="-1.50554">
        <ele>54</ele>
        <time>2020-10-17T11:59:53.000Z</time>
      </trkpt>
      <trkpt lat="47.22059" lon="-1.50572">
        <ele>54</ele>
        <time>2020-10-17T11:59:55.000Z</time>
      </trkpt>
      <trkpt lat="47.22056" lon="-1.5059">
        <ele>54</ele>
        <time>2020-10-17T11:59:57.000Z</time>
      </trkpt>
      <trkpt lat="47.22054" lon="-1.50609">
        <ele>53</ele>
        <time>2020-10-17T11:59:59.000Z</time>
      </trkpt>
      <trkpt lat="47.22052" lon="-1.50627">
        <ele>53</ele>
        <time>2020-10-17T12:00:01.000Z</time>
      </trkpt>
      <trkpt lat="47.22052" lon="-1.50646">
        <ele>55</ele>
        <time>2020-10-17T12:00:03.000Z</time>
      </trkpt>
      <trkpt lat="47.22053" lon="-1.50666">
        <ele>55</ele>
        <time>2020-10-17T12:00:05.000Z</time>
      </trkpt>
      <trkpt lat="47.22051" lon="-1.50682">
        <ele>55</ele>
        <time>2020-10-17T12:00:07.000Z</time>
      </trkpt>
      <trkpt lat="47.22047" lon="-1.50701">
        <ele>55</ele>
        <time>2020-10-17T12:00:09.000Z</time>
      </trkpt>
      <trkpt lat="47.22045" lon="-1.50719">
        <ele>55</ele>
        <time>2020-10-17T12:00:11.000Z</time>
      </trkpt>
      <trkpt lat="47.22043" lon="-1.50739">
        <ele>56</ele>
        <time>2020-10-17T12:00:13.000Z</time>
      </trkpt>
      <trkpt lat="47.2204" lon="-1.50759">
        <ele>56</ele>
        <time>2020-10-17T12:00:15.000Z</time>
      </trkpt>
      <trkpt lat="47.22037" lon="-1.50777">
        <ele>56</ele>
        <time>2020-10-17T12:00:17.000Z</time>
      </trkpt>
      <trkpt lat="47.22033" lon="-1.50795">
        <ele>55</ele>
        <time>2020-10-17T12:00:19.000Z</time>
      </trkpt>
      <trkpt lat="47.22027" lon="-1.50813">
        <ele>55</ele>
        <time>2020-10-17T12:00:21.000Z</time>
      </trkpt>
      <trkpt lat="47.2202" lon="-1.50829">
        <ele>55</ele>
        <time>2020-10-17T12:00:23.000Z</time>
      </trkpt>
      <trkpt lat="47.22016" lon="-1.50845">
        <ele>55</ele>
        <time>2020-10-17T12:00:25.000Z</time>
      </trkpt>
      <trkpt lat="47.22011" lon="-1.50861">
        <ele>54</ele>
        <time>2020-10-17T12:00:27.000Z</time>
      </trkpt>
      <trkpt lat="47.22004" lon="-1.50878">
        <ele>55</ele>
        <time>2020-10-17T12:00:29.000Z</time>
      </trkpt>
      <trkpt lat="47.21997" lon="-1.50897">
        <ele>55</ele>
        <time>2020-10-17T12:00:31.000Z</time>
      </trkpt>
      <trkpt lat="47.21991" lon="-1.50916">
        <ele>55</ele>
        <time>2020-10-17T12:00:33.000Z</time>
      </trkpt>
      <trkpt lat="47.21986" lon="-1.50934">
        <ele>55</ele>
        <time>2020-10-17T12:00:35.000Z</time>
      </trkpt>
      <trkpt lat="47.21981" lon="-1.50952">
        <ele>54</ele>
        <time>2020-10-17T12:00:37.000Z</time>
      </trkpt>
      <trkpt lat="47.21975" lon="-1.5097">
        <ele>55</ele>
        <time>2020-10-17T12:00:39.000Z</time>
      </trkpt>
      <trkpt lat="47.2197" lon="-1.50988">
        <ele>55</ele>
        <time>2020-10-17T12:00:41.000Z</time>
      </trkpt>
      <trkpt lat="47.21966" lon="-1.51005">
        <ele>54</ele>
        <time>2020-10-17T12:00:43.000Z</time>
      </trkpt>
      <trkpt lat="47.21961" lon="-1.51022">
        <ele>53</ele>
        <time>2020-10-17T12:00:45.000Z</time>
      </trkpt>
      <trkpt lat="47.21956" lon="-1.51038">
        <ele>53</ele>
        <time>2020-10-17T12:00:47.000Z</time>
      </trkpt>
      <trkpt lat="47.21952" lon="-1.51051">
        <ele>53</ele>
        <time>2020-10-17T12:00:49.000Z</time>
      </trkpt>
      <trkpt lat="47.21947" lon="-1.51064">
        <ele>53</ele>
        <time>2020-10-17T12:00:51.000Z</time>
      </trkpt>
      <trkpt lat="47.21938" lon="-1.51075">
        <ele>54</ele>
        <time>2020-10-17T12:00:53.000Z</time>
      </trkpt>
      <trkpt lat="47.21931" lon="-1.51092">
        <ele>54</ele>
        <time>2020-10-17T12:00:55.000Z</time>
      </trkpt>
      <trkpt lat="47.21925" lon="-1.51109">
        <ele>55</ele>
        <time>2020-10-17T12:00:57.000Z</time>
      </trkpt>
      <trkpt lat="47.2192" lon="-1.51127">
        <ele>55</ele>
        <time>2020-10-17T12:00:59.000Z</time>
      </trkpt>
      <trkpt lat="47.21914" lon="-1.51144">
        <ele>55</ele>
        <time>2020-10-17T12:01:01.000Z</time>
      </trkpt>
      <trkpt lat="47.21909" lon="-1.5116">
        <ele>55</ele>
        <time>2020-10-17T12:01:03.000Z</time>
      </trkpt>
      <trkpt lat="47.21904" lon="-1.51177">
        <ele>55</ele>
        <time>2020-10-17T12:01:05.000Z</time>
      </trkpt>
      <trkpt lat="47.21899" lon="-1.51194">
        <ele>55</ele>
        <time>2020-10-17T12:01:07.000Z</time>
      </trkpt>
      <trkpt lat="47.21893" lon="-1.51212">
        <ele>54</ele>
        <time>2020-10-17T12:01:09.000Z</time>
      </trkpt>
      <trkpt lat="47.21887" lon="-1.51229">
        <ele>53</ele>
        <time>2020-10-17T12:01:11.000Z</time>
      </trkpt>
      <trkpt lat="47.21882" lon="-1.51246">
        <ele>53</ele>
        <time>2020-10-17T12:01:13.000Z</time>
      </trkpt>
      <trkpt lat="47.21876" lon="-1.51263">
        <ele>53</ele>
        <time>2020-10-17T12:01:15.000Z</time>
      </trkpt>
      <trkpt lat="47.2187" lon="-1.5128">
        <ele>53</ele>
        <time>2020-10-17T12:01:17.000Z</time>
      </trkpt>
      <trkpt lat="47.21865" lon="-1.51296">
        <ele>53</ele>
        <time>2020-10-17T12:01:19.000Z</time>
      </trkpt>
      <trkpt lat="47.2186" lon="-1.51313">
        <ele>53</ele>
        <time>2020-10-17T12:01:21.000Z</time>
      </trkpt>
      <trkpt lat="47.21854" lon="-1.5133">
        <ele>54</ele>
        <time>2020-10-17T12:01:23.000Z</time>
      </trkpt>
      <trkpt lat="47.21849" lon="-1.51347">
        <ele>55</ele>
        <time>2020-10-17T12:01:25.000Z</time>
      </trkpt>
      <trkpt lat="47.21845" lon="-1.51364">
        <ele>55</ele>
        <time>2020-10-17T12:01:27.000Z</time>
      </trkpt>
      <trkpt lat="47.2184" lon="-1.51382">
        <ele>55</ele>
        <time>2020-10-17T12:01:29.000Z</time>
      </trkpt>
      <trkpt lat="47.21837" lon="-1.51399">
        <ele>55</ele>
        <time>2020-10-17T12:01:31.000Z</time>
      </trkpt>
      <trkpt lat="47.21832" lon="-1.51417">
        <ele>55</ele>
        <time>2020-10-17T12:01:33.000Z</time>
      </trkpt>
      <trkpt lat="47.21828" lon="-1.51434">
        <ele>54</ele>
        <time>2020-10-17T12:01:35.000Z</time>
      </trkpt>
      <trkpt lat="47.21824" lon="-1.5145">
        <ele>54</ele>
        <time>2020-10-17T12:01:37.000Z</time>
      </trkpt>
      <trkpt lat="47.21821" lon="-1.51467">
        <ele>54</ele>
        <time>2020-10-17T12:01:39.000Z</time>
      </trkpt>
      <trkpt lat="47.21817" lon="-1.51485">
        <ele>54</ele>
        <time>2020-10-17T12:01:41.000Z</time>
      </trkpt>
      <trkpt lat="47.21812" lon="-1.51502">
        <ele>54</ele>
        <time>2020-10-17T12:01:43.000Z</time>
      </trkpt>
      <trkpt lat="47.21805" lon="-1.51517">
        <ele>54</ele>
        <time>2020-10-17T12:01:45.000Z</time>
      </trkpt>
      <trkpt lat="47.21798" lon="-1.51534">
        <ele>55</ele>
        <time>2020-10-17T12:01:47.000Z</time>
      </trkpt>
      <trkpt lat="47.21791" lon="-1.5155">
        <ele>55</ele>
        <time>2020-10-17T12:01:49.000Z</time>
      </trkpt>
      <trkpt lat="47.21784" lon="-1.51565">
        <ele>55</ele>
        <time>2020-10-17T12:01:51.000Z</time>
      </trkpt>
      <trkpt lat="47.21777" lon="-1.51579">
        <ele>56</ele>
        <time>2020-10-17T12:01:53.000Z</time>
      </trkpt>
      <trkpt lat="47.21768" lon="-1.51593">
        <ele>56</ele>
        <time>2020-10-17T12:01:55.000Z</time>
      </trkpt>
      <trkpt lat="47.21759" lon="-1.51605">
        <ele>56</ele>
        <time>2020-10-17T12:01:57.000Z</time>
      </trkpt>
      <trkpt lat="47.21752" lon="-1.51618">
        <ele>56</ele>
        <time>2020-10-17T12:01:59.000Z</time>
      </trkpt>
      <trkpt lat="47.21744" lon="-1.51631">
        <ele>56</ele>
        <time>2020-10-17T12:02:01.000Z</time>
      </trkpt>
      <trkpt lat="47.21738" lon="-1.51647">
        <ele>57</ele>
        <time>2020-10-17T12:02:03.000Z</time>
      </trkpt>
      <trkpt lat="47.2173" lon="-1.51662">
        <ele>56</ele>
        <time>2020-10-17T12:02:05.000Z</time>
      </trkpt>
      <trkpt lat="47.21723" lon="-1.51678">
        <ele>56</ele>
        <time>2020-10-17T12:02:07.000Z</time>
      </trkpt>
      <trkpt lat="47.21716" lon="-1.51693">
        <ele>55</ele>
        <time>2020-10-17T12:02:09.000Z</time>
      </trkpt>
      <trkpt lat="47.2171" lon="-1.51709">
        <ele>55</ele>
        <time>2020-10-17T12:02:11.000Z</time>
      </trkpt>
      <trkpt lat="47.21704" lon="-1.51724">
        <ele>55</ele>
        <time>2020-10-17T12:02:13.000Z</time>
      </trkpt>
      <trkpt lat="47.21698" lon="-1.51739">
        <ele>55</ele>
        <time>2020-10-17T12:02:15.000Z</time>
      </trkpt>
      <trkpt lat="47.21691" lon="-1.51754">
        <ele>54</ele>
        <time>2020-10-17T12:02:17.000Z</time>
      </trkpt>
      <trkpt lat="47.21685" lon="-1.5177">
        <ele>54</ele>
        <time>2020-10-17T12:02:19.000Z</time>
      </trkpt>
      <trkpt lat="47.21678" lon="-1.51786">
        <ele>53</ele>
        <time>2020-10-17T12:02:21.000Z</time>
      </trkpt>
      <trkpt lat="47.21671" lon="-1.51801">
        <ele>53</ele>
        <time>2020-10-17T12:02:23.000Z</time>
      </trkpt>
      <trkpt lat="47.21665" lon="-1.51816">
        <ele>53</ele>
        <time>2020-10-17T12:02:25.000Z</time>
      </trkpt>
      <trkpt lat="47.21659" lon="-1.51831">
        <ele>53</ele>
        <time>2020-10-17T12:02:27.000Z</time>
      </trkpt>
      <trkpt lat="47.21653" lon="-1.51847">
        <ele>53</ele>
        <time>2020-10-17T12:02:29.000Z</time>
      </trkpt>
      <trkpt lat="47.21648" lon="-1.51864">
        <ele>53</ele>
        <time>2020-10-17T12:02:31.000Z</time>
      </trkpt>
      <trkpt lat="47.21647" lon="-1.51882">
        <ele>53</ele>
        <time>2020-10-17T12:02:33.000Z</time>
      </trkpt>
      <trkpt lat="47.21641" lon="-1.51897">
        <ele>53</ele>
        <time>2020-10-17T12:02:35.000Z</time>
      </trkpt>
      <trkpt lat="47.21632" lon="-1.51912">
        <ele>53</ele>
        <time>2020-10-17T12:02:37.000Z</time>
      </trkpt>
      <trkpt lat="47.21628" lon="-1.5193">
        <ele>53</ele>
        <time>2020-10-17T12:02:39.000Z</time>
      </trkpt>
      <trkpt lat="47.21624" lon="-1.51948">
        <ele>53</ele>
        <time>2020-10-17T12:02:41.000Z</time>
      </trkpt>
      <trkpt lat="47.21622" lon="-1.51966">
        <ele>53</ele>
        <time>2020-10-17T12:02:43.000Z</time>
      </trkpt>
      <trkpt lat="47.21617" lon="-1.51982">
        <ele>53</ele>
        <time>2020-10-17T12:02:45.000Z</time>
      </trkpt>
      <trkpt lat="47.21611" lon="-1.51997">
        <ele>53</ele>
        <time>2020-10-17T12:02:47.000Z</time>
      </trkpt>
      <trkpt lat="47.21603" lon="-1.52013">
        <ele>53</ele>
        <time>2020-10-17T12:02:49.000Z</time>
      </trkpt>
      <trkpt lat="47.21596" lon="-1.5203">
        <ele>53</ele>
        <time>2020-10-17T12:02:51.000Z</time>
      </trkpt>
      <trkpt lat="47.21591" lon="-1.52047">
        <ele>53</ele>
        <time>2020-10-17T12:02:53.000Z</time>
      </trkpt>
      <trkpt lat="47.21584" lon="-1.52065">
        <ele>53</ele>
        <time>2020-10-17T12:02:55.000Z</time>
      </trkpt>
      <trkpt lat="47.21578" lon="-1.52083">
        <ele>53</ele>
        <time>2020-10-17T12:02:57.000Z</time>
      </trkpt>
      <trkpt lat="47.21572" lon="-1.521">
        <ele>53</ele>
        <time>2020-10-17T12:02:59.000Z</time>
      </trkpt>
      <trkpt lat="47.21567" lon="-1.52117">
        <ele>53</ele>
        <time>2020-10-17T12:03:01.000Z</time>
      </trkpt>
      <trkpt lat="47.2156" lon="-1.52136">
        <ele>53</ele>
        <time>2020-10-17T12:03:03.000Z</time>
      </trkpt>
      <trkpt lat="47.21554" lon="-1.52153">
        <ele>53</ele>
        <time>2020-10-17T12:03:05.000Z</time>
      </trkpt>
      <trkpt lat="47.21549" lon="-1.5217">
        <ele>53</ele>
        <time>2020-10-17T12:03:07.000Z</time>
      </trkpt>
      <trkpt lat="47.21543" lon="-1.52187">
        <ele>53</ele>
        <time>2020-10-17T12:03:09.000Z</time>
      </trkpt>
      <trkpt lat="47.21537" lon="-1.52205">
        <ele>53</ele>
        <time>2020-10-17T12:03:11.000Z</time>
      </trkpt>
      <trkpt lat="47.21531" lon="-1.52222">
        <ele>54</ele>
        <time>2020-10-17T12:03:13.000Z</time>
      </trkpt>
      <trkpt lat="47.21526" lon="-1.5224">
        <ele>54</ele>
        <time>2020-10-17T12:03:15.000Z</time>
      </trkpt>
      <trkpt lat="47.2152" lon="-1.52257">
        <ele>54</ele>
        <time>2020-10-17T12:03:17.000Z</time>
      </trkpt>
      <trkpt lat="47.21515" lon="-1.52275">
        <ele>54</ele>
        <time>2020-10-17T12:03:19.000Z</time>
      </trkpt>
      <trkpt lat="47.2151" lon="-1.52294">
        <ele>55</ele>
        <time>2020-10-17T12:03:21.000Z</time>
      </trkpt>
      <trkpt lat="47.21504" lon="-1.52313">
        <ele>54</ele>
        <time>2020-10-17T12:03:23.000Z</time>
      </trkpt>
      <trkpt lat="47.21498" lon="-1.52331">
        <ele>54</ele>
        <time>2020-10-17T12:03:25.000Z</time>
      </trkpt>
      <trkpt lat="47.21492" lon="-1.52349">
        <ele>54</ele>
        <time>2020-10-17T12:03:27.000Z</time>
      </trkpt>
      <trkpt lat="47.21487" lon="-1.52367">
        <ele>54</ele>
        <time>2020-10-17T12:03:29.000Z</time>
      </trkpt>
      <trkpt lat="47.21481" lon="-1.52385">
        <ele>53</ele>
        <time>2020-10-17T12:03:31.000Z</time>
      </trkpt>
      <trkpt lat="47.21476" lon="-1.52404">
        <ele>53</ele>
        <time>2020-10-17T12:03:33.000Z</time>
      </trkpt>
      <trkpt lat="47.2147" lon="-1.52421">
        <ele>53</ele>
        <time>2020-10-17T12:03:35.000Z</time>
      </trkpt>
      <trkpt lat="47.21464" lon="-1.52439">
        <ele>53</ele>
        <time>2020-10-17T12:03:37.000Z</time>
      </trkpt>
      <trkpt lat="47.21458" lon="-1.52457">
        <ele>53</ele>
        <time>2020-10-17T12:03:39.000Z</time>
      </trkpt>
      <trkpt lat="47.21451" lon="-1.52474">
        <ele>53</ele>
        <time>2020-10-17T12:03:41.000Z</time>
      </trkpt>
      <trkpt lat="47.21444" lon="-1.52493">
        <ele>54</ele>
        <time>2020-10-17T12:03:43.000Z</time>
      </trkpt>
      <trkpt lat="47.21438" lon="-1.5251">
        <ele>55</ele>
        <time>2020-10-17T12:03:45.000Z</time>
      </trkpt>
      <trkpt lat="47.21432" lon="-1.52527">
        <ele>55</ele>
        <time>2020-10-17T12:03:47.000Z</time>
      </trkpt>
      <trkpt lat="47.21427" lon="-1.52545">
        <ele>55</ele>
        <time>2020-10-17T12:03:49.000Z</time>
      </trkpt>
      <trkpt lat="47.21421" lon="-1.52562">
        <ele>54</ele>
        <time>2020-10-17T12:03:51.000Z</time>
      </trkpt>
      <trkpt lat="47.21415" lon="-1.52579">
        <ele>54</ele>
        <time>2020-10-17T12:03:53.000Z</time>
      </trkpt>
      <trkpt lat="47.2141" lon="-1.52597">
        <ele>54</ele>
        <time>2020-10-17T12:03:55.000Z</time>
      </trkpt>
      <trkpt lat="47.21405" lon="-1.52616">
        <ele>55</ele>
        <time>2020-10-17T12:03:57.000Z</time>
      </trkpt>
      <trkpt lat="47.21399" lon="-1.52635">
        <ele>54</ele>
        <time>2020-10-17T12:03:59.000Z</time>
      </trkpt>
      <trkpt lat="47.21395" lon="-1.52654">
        <ele>54</ele>
        <time>2020-10-17T12:04:01.000Z</time>
      </trkpt>
      <trkpt lat="47.2139" lon="-1.52673">
        <ele>54</ele>
        <time>2020-10-17T12:04:03.000Z</time>
      </trkpt>
      <trkpt lat="47.21386" lon="-1.52694">
        <ele>54</ele>
        <time>2020-10-17T12:04:05.000Z</time>
      </trkpt>
      <trkpt lat="47.21381" lon="-1.52713">
        <ele>55</ele>
        <time>2020-10-17T12:04:07.000Z</time>
      </trkpt>
      <trkpt lat="47.21376" lon="-1.52732">
        <ele>55</ele>
        <time>2020-10-17T12:04:09.000Z</time>
      </trkpt>
      <trkpt lat="47.21373" lon="-1.52753">
        <ele>56</ele>
        <time>2020-10-17T12:04:11.000Z</time>
      </trkpt>
      <trkpt lat="47.21371" lon="-1.52773">
        <ele>55</ele>
        <time>2020-10-17T12:04:13.000Z</time>
      </trkpt>
      <trkpt lat="47.21369" lon="-1.52793">
        <ele>56</ele>
        <time>2020-10-17T12:04:15.000Z</time>
      </trkpt>
      <trkpt lat="47.21367" lon="-1.52811">
        <ele>56</ele>
        <time>2020-10-17T12:04:17.000Z</time>
      </trkpt>
      <trkpt lat="47.21361" lon="-1.52828">
        <ele>55</ele>
        <time>2020-10-17T12:04:19.000Z</time>
      </trkpt>
      <trkpt lat="47.21357" lon="-1.52847">
        <ele>54</ele>
        <time>2020-10-17T12:04:21.000Z</time>
      </trkpt>
      <trkpt lat="47.21352" lon="-1.52865">
        <ele>54</ele>
        <time>2020-10-17T12:04:23.000Z</time>
      </trkpt>
      <trkpt lat="47.21348" lon="-1.52884">
        <ele>54</ele>
        <time>2020-10-17T12:04:25.000Z</time>
      </trkpt>
      <trkpt lat="47.21345" lon="-1.52904">
        <ele>54</ele>
        <time>2020-10-17T12:04:27.000Z</time>
      </trkpt>
      <trkpt lat="47.21341" lon="-1.52924">
        <ele>54</ele>
        <time>2020-10-17T12:04:29.000Z</time>
      </trkpt>
      <trkpt lat="47.21338" lon="-1.52945">
        <ele>54</ele>
        <time>2020-10-17T12:04:31.000Z</time>
      </trkpt>
      <trkpt lat="47.21335" lon="-1.52963">
        <ele>54</ele>
        <time>2020-10-17T12:04:33.000Z</time>
      </trkpt>
      <trkpt lat="47.21332" lon="-1.52982">
        <ele>54</ele>
        <time>2020-10-17T12:04:35.000Z</time>
      </trkpt>
      <trkpt lat="47.21331" lon="-1.53005">
        <ele>54</ele>
        <time>2020-10-17T12:04:37.000Z</time>
      </trkpt>
      <trkpt lat="47.2133" lon="-1.53024">
        <ele>54</ele>
        <time>2020-10-17T12:04:39.000Z</time>
      </trkpt>
      <trkpt lat="47.2133" lon="-1.53044">
        <ele>54</ele>
        <time>2020-10-17T12:04:41.000Z</time>
      </trkpt>
      <trkpt lat="47.21328" lon="-1.53063">
        <ele>54</ele>
        <time>2020-10-17T12:04:43.000Z</time>
      </trkpt>
      <trkpt lat="47.21327" lon="-1.53082">
        <ele>55</ele>
        <time>2020-10-17T12:04:45.000Z</time>
      </trkpt>
      <trkpt lat="47.21326" lon="-1.531">
        <ele>56</ele>
        <time>2020-10-17T12:04:47.000Z</time>
      </trkpt>
      <trkpt lat="47.21323" lon="-1.53119">
        <ele>56</ele>
        <time>2020-10-17T12:04:49.000Z</time>
      </trkpt>
      <trkpt lat="47.21319" lon="-1.53138">
        <ele>56</ele>
        <time>2020-10-17T12:04:51.000Z</time>
      </trkpt>
      <trkpt lat="47.21317" lon="-1.53158">
        <ele>56</ele>
        <time>2020-10-17T12:04:53.000Z</time>
      </trkpt>
      <trkpt lat="47.21314" lon="-1.53178">
        <ele>56</ele>
        <time>2020-10-17T12:04:55.000Z</time>
      </trkpt>
      <trkpt lat="47.21312" lon="-1.53198">
        <ele>56</ele>
        <time>2020-10-17T12:04:57.000Z</time>
      </trkpt>
      <trkpt lat="47.2131" lon="-1.53217">
        <ele>56</ele>
        <time>2020-10-17T12:04:59.000Z</time>
      </trkpt>
      <trkpt lat="47.21309" lon="-1.53238">
        <ele>55</ele>
        <time>2020-10-17T12:05:01.000Z</time>
      </trkpt>
      <trkpt lat="47.21309" lon="-1.53258">
        <ele>55</ele>
        <time>2020-10-17T12:05:03.000Z</time>
      </trkpt>
      <trkpt lat="47.21309" lon="-1.53278">
        <ele>55</ele>
        <time>2020-10-17T12:05:05.000Z</time>
      </trkpt>
      <trkpt lat="47.21309" lon="-1.53297">
        <ele>55</ele>
        <time>2020-10-17T12:05:07.000Z</time>
      </trkpt>
      <trkpt lat="47.21307" lon="-1.53316">
        <ele>54</ele>
        <time>2020-10-17T12:05:09.000Z</time>
      </trkpt>
      <trkpt lat="47.21304" lon="-1.53335">
        <ele>54</ele>
        <time>2020-10-17T12:05:11.000Z</time>
      </trkpt>
      <trkpt lat="47.21301" lon="-1.53353">
        <ele>54</ele>
        <time>2020-10-17T12:05:13.000Z</time>
      </trkpt>
      <trkpt lat="47.21297" lon="-1.53372">
        <ele>55</ele>
        <time>2020-10-17T12:05:15.000Z</time>
      </trkpt>
      <trkpt lat="47.21295" lon="-1.53392">
        <ele>55</ele>
        <time>2020-10-17T12:05:17.000Z</time>
      </trkpt>
      <trkpt lat="47.21293" lon="-1.53411">
        <ele>55</ele>
        <time>2020-10-17T12:05:19.000Z</time>
      </trkpt>
      <trkpt lat="47.2129" lon="-1.53431">
        <ele>55</ele>
        <time>2020-10-17T12:05:21.000Z</time>
      </trkpt>
      <trkpt lat="47.2129" lon="-1.53451">
        <ele>54</ele>
        <time>2020-10-17T12:05:23.000Z</time>
      </trkpt>
      <trkpt lat="47.21294" lon="-1.53468">
        <ele>55</ele>
        <time>2020-10-17T12:05:25.000Z</time>
      </trkpt>
      <trkpt lat="47.213" lon="-1.53485">
        <ele>55</ele>
        <time>2020-10-17T12:05:27.000Z</time>
      </trkpt>
      <trkpt lat="47.21301" lon="-1.53505">
        <ele>56</ele>
        <time>2020-10-17T12:05:29.000Z</time>
      </trkpt>
      <trkpt lat="47.21302" lon="-1.53524">
        <ele>56</ele>
        <time>2020-10-17T12:05:31.000Z</time>
      </trkpt>
      <trkpt lat="47.21302" lon="-1.53543">
        <ele>57</ele>
        <time>2020-10-17T12:05:33.000Z</time>
      </trkpt>
      <trkpt lat="47.21303" lon="-1.5356">
        <ele>57</ele>
        <time>2020-10-17T12:05:35.000Z</time>
      </trkpt>
      <trkpt lat="47.21303" lon="-1.53579">
        <ele>57</ele>
        <time>2020-10-17T12:05:37.000Z</time>
      </trkpt>
      <trkpt lat="47.21304" lon="-1.53596">
        <ele>57</ele>
        <time>2020-10-17T12:05:39.000Z</time>
      </trkpt>
      <trkpt lat="47.21304" lon="-1.53612">
        <ele>58</ele>
        <time>2020-10-17T12:05:41.000Z</time>
      </trkpt>
      <trkpt lat="47.213" lon="-1.53626">
        <ele>58</ele>
        <time>2020-10-17T12:05:43.000Z</time>
      </trkpt>
      <trkpt lat="47.21295" lon="-1.53638">
        <ele>59</ele>
        <time>2020-10-17T12:05:47.000Z</time>
      </trkpt>
      <trkpt lat="47.21294" lon="-1.53655">
        <ele>59</ele>
        <time>2020-10-17T12:05:52.000Z</time>
      </trkpt>
      <trkpt lat="47.21291" lon="-1.53674">
        <ele>58</ele>
        <time>2020-10-17T12:05:55.000Z</time>
      </trkpt>
      <trkpt lat="47.21295" lon="-1.53686">
        <ele>58</ele>
        <time>2020-10-17T12:05:57.000Z</time>
      </trkpt>
      <trkpt lat="47.21301" lon="-1.53701">
        <ele>58</ele>
        <time>2020-10-17T12:05:59.000Z</time>
      </trkpt>
      <trkpt lat="47.21305" lon="-1.5372">
        <ele>57</ele>
        <time>2020-10-17T12:06:01.000Z</time>
      </trkpt>
      <trkpt lat="47.21309" lon="-1.53737">
        <ele>57</ele>
        <time>2020-10-17T12:06:03.000Z</time>
      </trkpt>
      <trkpt lat="47.21313" lon="-1.53757">
        <ele>57</ele>
        <time>2020-10-17T12:06:05.000Z</time>
      </trkpt>
      <trkpt lat="47.21317" lon="-1.53775">
        <ele>58</ele>
        <time>2020-10-17T12:06:07.000Z</time>
      </trkpt>
      <trkpt lat="47.21321" lon="-1.53794">
        <ele>58</ele>
        <time>2020-10-17T12:06:09.000Z</time>
      </trkpt>
      <trkpt lat="47.21324" lon="-1.53812">
        <ele>57</ele>
        <time>2020-10-17T12:06:11.000Z</time>
      </trkpt>
      <trkpt lat="47.21327" lon="-1.53831">
        <ele>57</ele>
        <time>2020-10-17T12:06:13.000Z</time>
      </trkpt>
      <trkpt lat="47.2133" lon="-1.53849">
        <ele>57</ele>
        <time>2020-10-17T12:06:15.000Z</time>
      </trkpt>
      <trkpt lat="47.21333" lon="-1.53866">
        <ele>57</ele>
        <time>2020-10-17T12:06:17.000Z</time>
      </trkpt>
      <trkpt lat="47.21336" lon="-1.53883">
        <ele>57</ele>
        <time>2020-10-17T12:06:19.000Z</time>
      </trkpt>
      <trkpt lat="47.21338" lon="-1.53899">
        <ele>56</ele>
        <time>2020-10-17T12:06:21.000Z</time>
      </trkpt>
      <trkpt lat="47.21339" lon="-1.53912">
        <ele>57</ele>
        <time>2020-10-17T12:06:23.000Z</time>
      </trkpt>
      <trkpt lat="47.21344" lon="-1.53924">
        <ele>57</ele>
        <time>2020-10-17T12:06:27.000Z</time>
      </trkpt>
      <trkpt lat="47.21354" lon="-1.53924">
        <ele>56</ele>
        <time>2020-10-17T12:06:30.000Z</time>
      </trkpt>
      <trkpt lat="47.21365" lon="-1.5393">
        <ele>57</ele>
        <time>2020-10-17T12:06:33.000Z</time>
      </trkpt>
      <trkpt lat="47.21374" lon="-1.53933">
        <ele>57</ele>
        <time>2020-10-17T12:06:35.000Z</time>
      </trkpt>
      <trkpt lat="47.21385" lon="-1.53945">
        <ele>58</ele>
        <time>2020-10-17T12:06:37.000Z</time>
      </trkpt>
      <trkpt lat="47.2139" lon="-1.53964">
        <ele>56</ele>
        <time>2020-10-17T12:06:39.000Z</time>
      </trkpt>
      <trkpt lat="47.21386" lon="-1.53982">
        <ele>56</ele>
        <time>2020-10-17T12:06:41.000Z</time>
      </trkpt>
      <trkpt lat="47.21385" lon="-1.54">
        <ele>56</ele>
        <time>2020-10-17T12:06:43.000Z</time>
      </trkpt>
      <trkpt lat="47.21399" lon="-1.5402">
        <ele>55</ele>
        <time>2020-10-17T12:06:46.000Z</time>
      </trkpt>
      <trkpt lat="47.21409" lon="-1.54033">
        <ele>55</ele>
        <time>2020-10-17T12:06:48.000Z</time>
      </trkpt>
      <trkpt lat="47.21418" lon="-1.54046">
        <ele>54</ele>
        <time>2020-10-17T12:06:50.000Z</time>
      </trkpt>
      <trkpt lat="47.21427" lon="-1.54059">
        <ele>54</ele>
        <time>2020-10-17T12:06:52.000Z</time>
      </trkpt>
      <trkpt lat="47.21436" lon="-1.54073">
        <ele>54</ele>
        <time>2020-10-17T12:06:54.000Z</time>
      </trkpt>
      <trkpt lat="47.21446" lon="-1.54086">
        <ele>55</ele>
        <time>2020-10-17T12:06:56.000Z</time>
      </trkpt>
      <trkpt lat="47.21455" lon="-1.541">
        <ele>55</ele>
        <time>2020-10-17T12:06:58.000Z</time>
      </trkpt>
      <trkpt lat="47.21464" lon="-1.54113">
        <ele>55</ele>
        <time>2020-10-17T12:07:00.000Z</time>
      </trkpt>
      <trkpt lat="47.21473" lon="-1.54127">
        <ele>55</ele>
        <time>2020-10-17T12:07:02.000Z</time>
      </trkpt>
      <trkpt lat="47.21482" lon="-1.54141">
        <ele>55</ele>
        <time>2020-10-17T12:07:04.000Z</time>
      </trkpt>
      <trkpt lat="47.21496" lon="-1.54161">
        <ele>55</ele>
        <time>2020-10-17T12:07:07.000Z</time>
      </trkpt>
      <trkpt lat="47.21505" lon="-1.54173">
        <ele>55</ele>
        <time>2020-10-17T12:07:09.000Z</time>
      </trkpt>
      <trkpt lat="47.21514" lon="-1.54188">
        <ele>55</ele>
        <time>2020-10-17T12:07:11.000Z</time>
      </trkpt>
      <trkpt lat="47.21522" lon="-1.54203">
        <ele>55</ele>
        <time>2020-10-17T12:07:13.000Z</time>
      </trkpt>
      <trkpt lat="47.21534" lon="-1.54223">
        <ele>55</ele>
        <time>2020-10-17T12:07:16.000Z</time>
      </trkpt>
      <trkpt lat="47.21541" lon="-1.54234">
        <ele>55</ele>
        <time>2020-10-17T12:07:19.000Z</time>
      </trkpt>
      <trkpt lat="47.21548" lon="-1.54244">
        <ele>57</ele>
        <time>2020-10-17T12:07:32.000Z</time>
      </trkpt>
      <trkpt lat="47.21563" lon="-1.54244">
        <ele>55</ele>
        <time>2020-10-17T12:07:35.000Z</time>
      </trkpt>
      <trkpt lat="47.21575" lon="-1.5425">
        <ele>55</ele>
        <time>2020-10-17T12:07:37.000Z</time>
      </trkpt>
      <trkpt lat="47.21578" lon="-1.5428">
        <ele>56</ele>
        <time>2020-10-17T12:07:40.000Z</time>
      </trkpt>
      <trkpt lat="47.21584" lon="-1.54299">
        <ele>56</ele>
        <time>2020-10-17T12:07:42.000Z</time>
      </trkpt>
      <trkpt lat="47.21592" lon="-1.54315">
        <ele>56</ele>
        <time>2020-10-17T12:07:44.000Z</time>
      </trkpt>
      <trkpt lat="47.216" lon="-1.54333">
        <ele>55</ele>
        <time>2020-10-17T12:07:46.000Z</time>
      </trkpt>
      <trkpt lat="47.21606" lon="-1.5435">
        <ele>55</ele>
        <time>2020-10-17T12:07:48.000Z</time>
      </trkpt>
      <trkpt lat="47.21611" lon="-1.5437">
        <ele>56</ele>
        <time>2020-10-17T12:07:50.000Z</time>
      </trkpt>
      <trkpt lat="47.21615" lon="-1.54391">
        <ele>56</ele>
        <time>2020-10-17T12:07:52.000Z</time>
      </trkpt>
      <trkpt lat="47.21615" lon="-1.54412">
        <ele>56</ele>
        <time>2020-10-17T12:07:54.000Z</time>
      </trkpt>
      <trkpt lat="47.21616" lon="-1.54431">
        <ele>56</ele>
        <time>2020-10-17T12:07:56.000Z</time>
      </trkpt>
      <trkpt lat="47.21616" lon="-1.54451">
        <ele>56</ele>
        <time>2020-10-17T12:07:58.000Z</time>
      </trkpt>
      <trkpt lat="47.21614" lon="-1.54471">
        <ele>56</ele>
        <time>2020-10-17T12:08:00.000Z</time>
      </trkpt>
      <trkpt lat="47.2161" lon="-1.5449">
        <ele>56</ele>
        <time>2020-10-17T12:08:02.000Z</time>
      </trkpt>
      <trkpt lat="47.21606" lon="-1.5451">
        <ele>57</ele>
        <time>2020-10-17T12:08:04.000Z</time>
      </trkpt>
      <trkpt lat="47.216" lon="-1.54529">
        <ele>57</ele>
        <time>2020-10-17T12:08:06.000Z</time>
      </trkpt>
      <trkpt lat="47.21594" lon="-1.54546">
        <ele>58</ele>
        <time>2020-10-17T12:08:08.000Z</time>
      </trkpt>
      <trkpt lat="47.21588" lon="-1.54563">
        <ele>58</ele>
        <time>2020-10-17T12:08:10.000Z</time>
      </trkpt>
      <trkpt lat="47.21581" lon="-1.54579">
        <ele>58</ele>
        <time>2020-10-17T12:08:12.000Z</time>
      </trkpt>
      <trkpt lat="47.21574" lon="-1.54597">
        <ele>58</ele>
        <time>2020-10-17T12:08:14.000Z</time>
      </trkpt>
      <trkpt lat="47.21567" lon="-1.54615">
        <ele>59</ele>
        <time>2020-10-17T12:08:16.000Z</time>
      </trkpt>
      <trkpt lat="47.2156" lon="-1.54633">
        <ele>59</ele>
        <time>2020-10-17T12:08:18.000Z</time>
      </trkpt>
      <trkpt lat="47.21552" lon="-1.54651">
        <ele>58</ele>
        <time>2020-10-17T12:08:20.000Z</time>
      </trkpt>
      <trkpt lat="47.21547" lon="-1.54666">
        <ele>58</ele>
        <time>2020-10-17T12:08:22.000Z</time>
      </trkpt>
      <trkpt lat="47.21539" lon="-1.54683">
        <ele>58</ele>
        <time>2020-10-17T12:08:24.000Z</time>
      </trkpt>
      <trkpt lat="47.21533" lon="-1.54713">
        <ele>57</ele>
        <time>2020-10-17T12:08:27.000Z</time>
      </trkpt>
      <trkpt lat="47.21526" lon="-1.54732">
        <ele>58</ele>
        <time>2020-10-17T12:08:29.000Z</time>
      </trkpt>
      <trkpt lat="47.21518" lon="-1.5475">
        <ele>58</ele>
        <time>2020-10-17T12:08:31.000Z</time>
      </trkpt>
      <trkpt lat="47.21512" lon="-1.54769">
        <ele>57</ele>
        <time>2020-10-17T12:08:33.000Z</time>
      </trkpt>
      <trkpt lat="47.21504" lon="-1.54786">
        <ele>57</ele>
        <time>2020-10-17T12:08:35.000Z</time>
      </trkpt>
      <trkpt lat="47.21497" lon="-1.54802">
        <ele>57</ele>
        <time>2020-10-17T12:08:37.000Z</time>
      </trkpt>
      <trkpt lat="47.21489" lon="-1.54818">
        <ele>58</ele>
        <time>2020-10-17T12:08:39.000Z</time>
      </trkpt>
      <trkpt lat="47.2148" lon="-1.54834">
        <ele>57</ele>
        <time>2020-10-17T12:08:41.000Z</time>
      </trkpt>
      <trkpt lat="47.21471" lon="-1.54851">
        <ele>57</ele>
        <time>2020-10-17T12:08:43.000Z</time>
      </trkpt>
      <trkpt lat="47.21462" lon="-1.54867">
        <ele>57</ele>
        <time>2020-10-17T12:08:45.000Z</time>
      </trkpt>
      <trkpt lat="47.21454" lon="-1.54884">
        <ele>57</ele>
        <time>2020-10-17T12:08:47.000Z</time>
      </trkpt>
      <trkpt lat="47.21445" lon="-1.549">
        <ele>56</ele>
        <time>2020-10-17T12:08:49.000Z</time>
      </trkpt>
      <trkpt lat="47.21438" lon="-1.54917">
        <ele>56</ele>
        <time>2020-10-17T12:08:51.000Z</time>
      </trkpt>
      <trkpt lat="47.2143" lon="-1.54934">
        <ele>57</ele>
        <time>2020-10-17T12:08:53.000Z</time>
      </trkpt>
      <trkpt lat="47.21422" lon="-1.54951">
        <ele>57</ele>
        <time>2020-10-17T12:08:55.000Z</time>
      </trkpt>
      <trkpt lat="47.21414" lon="-1.54967">
        <ele>57</ele>
        <time>2020-10-17T12:08:57.000Z</time>
      </trkpt>
      <trkpt lat="47.21407" lon="-1.54984">
        <ele>57</ele>
        <time>2020-10-17T12:08:59.000Z</time>
      </trkpt>
      <trkpt lat="47.21398" lon="-1.55009">
        <ele>56</ele>
        <time>2020-10-17T12:09:02.000Z</time>
      </trkpt>
      <trkpt lat="47.21392" lon="-1.55027">
        <ele>56</ele>
        <time>2020-10-17T12:09:04.000Z</time>
      </trkpt>
      <trkpt lat="47.21385" lon="-1.55047">
        <ele>56</ele>
        <time>2020-10-17T12:09:06.000Z</time>
      </trkpt>
      <trkpt lat="47.21377" lon="-1.55065">
        <ele>57</ele>
        <time>2020-10-17T12:09:08.000Z</time>
      </trkpt>
      <trkpt lat="47.2137" lon="-1.55083">
        <ele>57</ele>
        <time>2020-10-17T12:09:10.000Z</time>
      </trkpt>
      <trkpt lat="47.21362" lon="-1.55101">
        <ele>57</ele>
        <time>2020-10-17T12:09:12.000Z</time>
      </trkpt>
      <trkpt lat="47.21354" lon="-1.55118">
        <ele>57</ele>
        <time>2020-10-17T12:09:14.000Z</time>
      </trkpt>
      <trkpt lat="47.21347" lon="-1.55135">
        <ele>57</ele>
        <time>2020-10-17T12:09:16.000Z</time>
      </trkpt>
      <trkpt lat="47.2134" lon="-1.55151">
        <ele>57</ele>
        <time>2020-10-17T12:09:18.000Z</time>
      </trkpt>
      <trkpt lat="47.21334" lon="-1.55168">
        <ele>57</ele>
        <time>2020-10-17T12:09:20.000Z</time>
      </trkpt>
      <trkpt lat="47.21326" lon="-1.55185">
        <ele>57</ele>
        <time>2020-10-17T12:09:22.000Z</time>
      </trkpt>
      <trkpt lat="47.2132" lon="-1.55202">
        <ele>57</ele>
        <time>2020-10-17T12:09:24.000Z</time>
      </trkpt>
      <trkpt lat="47.21313" lon="-1.55219">
        <ele>57</ele>
        <time>2020-10-17T12:09:26.000Z</time>
      </trkpt>
      <trkpt lat="47.21307" lon="-1.55236">
        <ele>56</ele>
        <time>2020-10-17T12:09:28.000Z</time>
      </trkpt>
      <trkpt lat="47.21301" lon="-1.55252">
        <ele>56</ele>
        <time>2020-10-17T12:09:30.000Z</time>
      </trkpt>
      <trkpt lat="47.21295" lon="-1.55268">
        <ele>56</ele>
        <time>2020-10-17T12:09:32.000Z</time>
      </trkpt>
      <trkpt lat="47.21288" lon="-1.55283">
        <ele>56</ele>
        <time>2020-10-17T12:09:34.000Z</time>
      </trkpt>
      <trkpt lat="47.21283" lon="-1.55296">
        <ele>56</ele>
        <time>2020-10-17T12:09:36.000Z</time>
      </trkpt>
      <trkpt lat="47.21272" lon="-1.55298">
        <ele>56</ele>
        <time>2020-10-17T12:09:38.000Z</time>
      </trkpt>
      <trkpt lat="47.21261" lon="-1.55301">
        <ele>56</ele>
        <time>2020-10-17T12:09:40.000Z</time>
      </trkpt>
      <trkpt lat="47.21258" lon="-1.55315">
        <ele>58</ele>
        <time>2020-10-17T12:09:42.000Z</time>
      </trkpt>
      <trkpt lat="47.21262" lon="-1.5533">
        <ele>59</ele>
        <time>2020-10-17T12:09:44.000Z</time>
      </trkpt>
      <trkpt lat="47.21269" lon="-1.55344">
        <ele>59</ele>
        <time>2020-10-17T12:09:47.000Z</time>
      </trkpt>
      <trkpt lat="47.21278" lon="-1.55352">
        <ele>59</ele>
        <time>2020-10-17T12:09:50.000Z</time>
      </trkpt>
      <trkpt lat="47.21288" lon="-1.55362">
        <ele>58</ele>
        <time>2020-10-17T12:09:54.000Z</time>
      </trkpt>
      <trkpt lat="47.21288" lon="-1.55376">
        <ele>58</ele>
        <time>2020-10-17T12:09:56.000Z</time>
      </trkpt>
      <trkpt lat="47.21282" lon="-1.55386">
        <ele>60</ele>
        <time>2020-10-17T12:09:58.000Z</time>
      </trkpt>
      <trkpt lat="47.21274" lon="-1.55402">
        <ele>61</ele>
        <time>2020-10-17T12:10:02.000Z</time>
      </trkpt>
      <trkpt lat="47.21269" lon="-1.55413">
        <ele>62</ele>
        <time>2020-10-17T12:10:08.000Z</time>
      </trkpt>
      <trkpt lat="47.2126" lon="-1.55425">
        <ele>61</ele>
        <time>2020-10-17T12:10:10.000Z</time>
      </trkpt>
      <trkpt lat="47.21246" lon="-1.55446">
        <ele>61</ele>
        <time>2020-10-17T12:10:13.000Z</time>
      </trkpt>
      <trkpt lat="47.21236" lon="-1.5546">
        <ele>61</ele>
        <time>2020-10-17T12:10:15.000Z</time>
      </trkpt>
      <trkpt lat="47.21226" lon="-1.55477">
        <ele>60</ele>
        <time>2020-10-17T12:10:17.000Z</time>
      </trkpt>
      <trkpt lat="47.21217" lon="-1.55496">
        <ele>60</ele>
        <time>2020-10-17T12:10:19.000Z</time>
      </trkpt>
      <trkpt lat="47.21211" lon="-1.55517">
        <ele>59</ele>
        <time>2020-10-17T12:10:21.000Z</time>
      </trkpt>
      <trkpt lat="47.21207" lon="-1.55539">
        <ele>59</ele>
        <time>2020-10-17T12:10:23.000Z</time>
      </trkpt>
      <trkpt lat="47.212" lon="-1.5556">
        <ele>59</ele>
        <time>2020-10-17T12:10:25.000Z</time>
      </trkpt>
      <trkpt lat="47.21193" lon="-1.5558">
        <ele>59</ele>
        <time>2020-10-17T12:10:27.000Z</time>
      </trkpt>
      <trkpt lat="47.21183" lon="-1.55608">
        <ele>58</ele>
        <time>2020-10-17T12:10:30.000Z</time>
      </trkpt>
      <trkpt lat="47.21176" lon="-1.55623">
        <ele>57</ele>
        <time>2020-10-17T12:10:32.000Z</time>
      </trkpt>
      <trkpt lat="47.21169" lon="-1.55639">
        <ele>58</ele>
        <time>2020-10-17T12:10:34.000Z</time>
      </trkpt>
      <trkpt lat="47.21166" lon="-1.55659">
        <ele>58</ele>
        <time>2020-10-17T12:10:36.000Z</time>
      </trkpt>
      <trkpt lat="47.2116" lon="-1.55674">
        <ele>58</ele>
        <time>2020-10-17T12:10:38.000Z</time>
      </trkpt>
      <trkpt lat="47.21147" lon="-1.55674">
        <ele>58</ele>
        <time>2020-10-17T12:10:40.000Z</time>
      </trkpt>
      <trkpt lat="47.21136" lon="-1.55668">
        <ele>58</ele>
        <time>2020-10-17T12:10:42.000Z</time>
      </trkpt>
      <trkpt lat="47.21131" lon="-1.55685">
        <ele>58</ele>
        <time>2020-10-17T12:10:44.000Z</time>
      </trkpt>
      <trkpt lat="47.21128" lon="-1.55704">
        <ele>58</ele>
        <time>2020-10-17T12:10:46.000Z</time>
      </trkpt>
      <trkpt lat="47.21124" lon="-1.55722">
        <ele>57</ele>
        <time>2020-10-17T12:10:48.000Z</time>
      </trkpt>
      <trkpt lat="47.2112" lon="-1.5574">
        <ele>57</ele>
        <time>2020-10-17T12:10:50.000Z</time>
      </trkpt>
      <trkpt lat="47.21115" lon="-1.55758">
        <ele>57</ele>
        <time>2020-10-17T12:10:52.000Z</time>
      </trkpt>
      <trkpt lat="47.2111" lon="-1.55775">
        <ele>57</ele>
        <time>2020-10-17T12:10:54.000Z</time>
      </trkpt>
      <trkpt lat="47.21105" lon="-1.55792">
        <ele>57</ele>
        <time>2020-10-17T12:10:56.000Z</time>
      </trkpt>
      <trkpt lat="47.211" lon="-1.5581">
        <ele>57</ele>
        <time>2020-10-17T12:10:58.000Z</time>
      </trkpt>
      <trkpt lat="47.21094" lon="-1.55825">
        <ele>57</ele>
        <time>2020-10-17T12:11:00.000Z</time>
      </trkpt>
      <trkpt lat="47.21089" lon="-1.55841">
        <ele>57</ele>
        <time>2020-10-17T12:11:02.000Z</time>
      </trkpt>
      <trkpt lat="47.21083" lon="-1.55857">
        <ele>57</ele>
        <time>2020-10-17T12:11:04.000Z</time>
      </trkpt>
      <trkpt lat="47.21077" lon="-1.55873">
        <ele>57</ele>
        <time>2020-10-17T12:11:06.000Z</time>
      </trkpt>
      <trkpt lat="47.21071" lon="-1.55889">
        <ele>57</ele>
        <time>2020-10-17T12:11:08.000Z</time>
      </trkpt>
      <trkpt lat="47.21067" lon="-1.55902">
        <ele>58</ele>
        <time>2020-10-17T12:11:10.000Z</time>
      </trkpt>
      <trkpt lat="47.21063" lon="-1.55918">
        <ele>59</ele>
        <time>2020-10-17T12:11:13.000Z</time>
      </trkpt>
      <trkpt lat="47.21059" lon="-1.55932">
        <ele>59</ele>
        <time>2020-10-17T12:11:17.000Z</time>
      </trkpt>
      <trkpt lat="47.21053" lon="-1.55943">
        <ele>60</ele>
        <time>2020-10-17T12:11:19.000Z</time>
      </trkpt>
      <trkpt lat="47.21048" lon="-1.55956">
        <ele>60</ele>
        <time>2020-10-17T12:11:21.000Z</time>
      </trkpt>
      <trkpt lat="47.21042" lon="-1.55971">
        <ele>61</ele>
        <time>2020-10-17T12:11:23.000Z</time>
      </trkpt>
      <trkpt lat="47.21036" lon="-1.55988">
        <ele>61</ele>
        <time>2020-10-17T12:11:25.000Z</time>
      </trkpt>
      <trkpt lat="47.21029" lon="-1.56005">
        <ele>61</ele>
        <time>2020-10-17T12:11:27.000Z</time>
      </trkpt>
      <trkpt lat="47.21023" lon="-1.5602">
        <ele>61</ele>
        <time>2020-10-17T12:11:29.000Z</time>
      </trkpt>
      <trkpt lat="47.21017" lon="-1.56035">
        <ele>62</ele>
        <time>2020-10-17T12:11:31.000Z</time>
      </trkpt>
      <trkpt lat="47.2101" lon="-1.5605">
        <ele>62</ele>
        <time>2020-10-17T12:11:33.000Z</time>
      </trkpt>
      <trkpt lat="47.21004" lon="-1.56062">
        <ele>62</ele>
        <time>2020-10-17T12:11:35.000Z</time>
      </trkpt>
      <trkpt lat="47.20997" lon="-1.56073">
        <ele>61</ele>
        <time>2020-10-17T12:11:37.000Z</time>
      </trkpt>
      <trkpt lat="47.20989" lon="-1.56083">
        <ele>60</ele>
        <time>2020-10-17T12:11:39.000Z</time>
      </trkpt>
      <trkpt lat="47.20988" lon="-1.561">
        <ele>59</ele>
        <time>2020-10-17T12:11:42.000Z</time>
      </trkpt>
      <trkpt lat="47.20994" lon="-1.56112">
        <ele>59</ele>
        <time>2020-10-17T12:11:45.000Z</time>
      </trkpt>
      <trkpt lat="47.20988" lon="-1.56127">
        <ele>58</ele>
        <time>2020-10-17T12:11:51.000Z</time>
      </trkpt>
      <trkpt lat="47.20982" lon="-1.5614">
        <ele>58</ele>
        <time>2020-10-17T12:11:54.000Z</time>
      </trkpt>
      <trkpt lat="47.20986" lon="-1.56157">
        <ele>58</ele>
        <time>2020-10-17T12:11:57.000Z</time>
      </trkpt>
      <trkpt lat="47.20989" lon="-1.56172">
        <ele>57</ele>
        <time>2020-10-17T12:12:00.000Z</time>
      </trkpt>
      <trkpt lat="47.20978" lon="-1.5617">
        <ele>58</ele>
        <time>2020-10-17T12:12:04.000Z</time>
      </trkpt>
      <trkpt lat="47.20963" lon="-1.56167">
        <ele>60</ele>
        <time>2020-10-17T12:12:07.000Z</time>
      </trkpt>
      <trkpt lat="47.2095" lon="-1.56164">
        <ele>60</ele>
        <time>2020-10-17T12:12:09.000Z</time>
      </trkpt>
      <trkpt lat="47.20938" lon="-1.56161">
        <ele>61</ele>
        <time>2020-10-17T12:12:11.000Z</time>
      </trkpt>
      <trkpt lat="47.20926" lon="-1.56157">
        <ele>61</ele>
        <time>2020-10-17T12:12:13.000Z</time>
      </trkpt>
      <trkpt lat="47.20914" lon="-1.56154">
        <ele>61</ele>
        <time>2020-10-17T12:12:15.000Z</time>
      </trkpt>
      <trkpt lat="47.20902" lon="-1.56152">
        <ele>61</ele>
        <time>2020-10-17T12:12:17.000Z</time>
      </trkpt>
      <trkpt lat="47.20892" lon="-1.56151">
        <ele>61</ele>
        <time>2020-10-17T12:12:19.000Z</time>
      </trkpt>
      <trkpt lat="47.20881" lon="-1.56148">
        <ele>61</ele>
        <time>2020-10-17T12:12:21.000Z</time>
      </trkpt>
      <trkpt lat="47.20869" lon="-1.56146">
        <ele>60</ele>
        <time>2020-10-17T12:12:23.000Z</time>
      </trkpt>
      <trkpt lat="47.20857" lon="-1.56143">
        <ele>60</ele>
        <time>2020-10-17T12:12:25.000Z</time>
      </trkpt>
      <trkpt lat="47.20846" lon="-1.5614">
        <ele>58</ele>
        <time>2020-10-17T12:12:27.000Z</time>
      </trkpt>
      <trkpt lat="47.20838" lon="-1.56146">
        <ele>58</ele>
        <time>2020-10-17T12:12:29.000Z</time>
      </trkpt>
      <trkpt lat="47.20835" lon="-1.56162">
        <ele>58</ele>
        <time>2020-10-17T12:12:31.000Z</time>
      </trkpt>
      <trkpt lat="47.20835" lon="-1.56182">
        <ele>58</ele>
        <time>2020-10-17T12:12:33.000Z</time>
      </trkpt>
      <trkpt lat="47.20835" lon="-1.56202">
        <ele>58</ele>
        <time>2020-10-17T12:12:35.000Z</time>
      </trkpt>
      <trkpt lat="47.20834" lon="-1.56222">
        <ele>58</ele>
        <time>2020-10-17T12:12:37.000Z</time>
      </trkpt>
      <trkpt lat="47.20834" lon="-1.56242">
        <ele>59</ele>
        <time>2020-10-17T12:12:39.000Z</time>
      </trkpt>
      <trkpt lat="47.20834" lon="-1.56263">
        <ele>58</ele>
        <time>2020-10-17T12:12:41.000Z</time>
      </trkpt>
      <trkpt lat="47.20834" lon="-1.56284">
        <ele>58</ele>
        <time>2020-10-17T12:12:43.000Z</time>
      </trkpt>
      <trkpt lat="47.20832" lon="-1.56306">
        <ele>58</ele>
        <time>2020-10-17T12:12:45.000Z</time>
      </trkpt>
      <trkpt lat="47.20828" lon="-1.56326">
        <ele>58</ele>
        <time>2020-10-17T12:12:47.000Z</time>
      </trkpt>
      <trkpt lat="47.20823" lon="-1.56346">
        <ele>58</ele>
        <time>2020-10-17T12:12:49.000Z</time>
      </trkpt>
      <trkpt lat="47.20819" lon="-1.56367">
        <ele>58</ele>
        <time>2020-10-17T12:12:51.000Z</time>
      </trkpt>
      <trkpt lat="47.20815" lon="-1.56386">
        <ele>58</ele>
        <time>2020-10-17T12:12:53.000Z</time>
      </trkpt>
      <trkpt lat="47.20811" lon="-1.56405">
        <ele>58</ele>
        <time>2020-10-17T12:12:55.000Z</time>
      </trkpt>
      <trkpt lat="47.20805" lon="-1.56424">
        <ele>58</ele>
        <time>2020-10-17T12:12:57.000Z</time>
      </trkpt>
      <trkpt lat="47.20801" lon="-1.56444">
        <ele>59</ele>
        <time>2020-10-17T12:12:59.000Z</time>
      </trkpt>
      <trkpt lat="47.20796" lon="-1.56464">
        <ele>59</ele>
        <time>2020-10-17T12:13:01.000Z</time>
      </trkpt>
      <trkpt lat="47.20791" lon="-1.56482">
        <ele>59</ele>
        <time>2020-10-17T12:13:03.000Z</time>
      </trkpt>
      <trkpt lat="47.20787" lon="-1.565">
        <ele>58</ele>
        <time>2020-10-17T12:13:05.000Z</time>
      </trkpt>
      <trkpt lat="47.20782" lon="-1.56517">
        <ele>58</ele>
        <time>2020-10-17T12:13:07.000Z</time>
      </trkpt>
      <trkpt lat="47.20772" lon="-1.56518">
        <ele>58</ele>
        <time>2020-10-17T12:13:09.000Z</time>
      </trkpt>
      <trkpt lat="47.20764" lon="-1.56506">
        <ele>59</ele>
        <time>2020-10-17T12:13:11.000Z</time>
      </trkpt>
      <trkpt lat="47.20757" lon="-1.56495">
        <ele>59</ele>
        <time>2020-10-17T12:13:13.000Z</time>
      </trkpt>
      <trkpt lat="47.20747" lon="-1.56485">
        <ele>59</ele>
        <time>2020-10-17T12:13:16.000Z</time>
      </trkpt>
      <trkpt lat="47.20739" lon="-1.565">
        <ele>63</ele>
        <time>2020-10-17T12:13:21.000Z</time>
      </trkpt>
      <trkpt lat="47.20738" lon="-1.56516">
        <ele>64</ele>
        <time>2020-10-17T12:13:24.000Z</time>
      </trkpt>
      <trkpt lat="47.20729" lon="-1.56533">
        <ele>64</ele>
        <time>2020-10-17T12:13:26.000Z</time>
      </trkpt>
      <trkpt lat="47.2072" lon="-1.56552">
        <ele>60</ele>
        <time>2020-10-17T12:13:28.000Z</time>
      </trkpt>
      <trkpt lat="47.20709" lon="-1.56564">
        <ele>58</ele>
        <time>2020-10-17T12:13:30.000Z</time>
      </trkpt>
      <trkpt lat="47.20695" lon="-1.56571">
        <ele>58</ele>
        <time>2020-10-17T12:13:32.000Z</time>
      </trkpt>
      <trkpt lat="47.20682" lon="-1.56583">
        <ele>57</ele>
        <time>2020-10-17T12:13:34.000Z</time>
      </trkpt>
      <trkpt lat="47.20671" lon="-1.56598">
        <ele>57</ele>
        <time>2020-10-17T12:13:36.000Z</time>
      </trkpt>
      <trkpt lat="47.2066" lon="-1.56612">
        <ele>57</ele>
        <time>2020-10-17T12:13:38.000Z</time>
      </trkpt>
      <trkpt lat="47.20646" lon="-1.56623">
        <ele>57</ele>
        <time>2020-10-17T12:13:40.000Z</time>
      </trkpt>
      <trkpt lat="47.20632" lon="-1.56627">
        <ele>56</ele>
        <time>2020-10-17T12:13:42.000Z</time>
      </trkpt>
      <trkpt lat="47.20617" lon="-1.56626">
        <ele>55</ele>
        <time>2020-10-17T12:13:44.000Z</time>
      </trkpt>
      <trkpt lat="47.20603" lon="-1.56626">
        <ele>54</ele>
        <time>2020-10-17T12:13:46.000Z</time>
      </trkpt>
      <trkpt lat="47.20589" lon="-1.56634">
        <ele>54</ele>
        <time>2020-10-17T12:13:48.000Z</time>
      </trkpt>
      <trkpt lat="47.20578" lon="-1.56651">
        <ele>55</ele>
        <time>2020-10-17T12:13:50.000Z</time>
      </trkpt>
      <trkpt lat="47.2057" lon="-1.56671">
        <ele>55</ele>
        <time>2020-10-17T12:13:52.000Z</time>
      </trkpt>
      <trkpt lat="47.20561" lon="-1.56688">
        <ele>54</ele>
        <time>2020-10-17T12:13:54.000Z</time>
      </trkpt>
      <trkpt lat="47.20549" lon="-1.56702">
        <ele>54</ele>
        <time>2020-10-17T12:13:56.000Z</time>
      </trkpt>
      <trkpt lat="47.20536" lon="-1.56712">
        <ele>54</ele>
        <time>2020-10-17T12:13:58.000Z</time>
      </trkpt>
      <trkpt lat="47.20521" lon="-1.56716">
        <ele>54</ele>
        <time>2020-10-17T12:14:00.000Z</time>
      </trkpt>
      <trkpt lat="47.20508" lon="-1.56716">
        <ele>54</ele>
        <time>2020-10-17T12:14:02.000Z</time>
      </trkpt>
      <trkpt lat="47.20494" lon="-1.56715">
        <ele>54</ele>
        <time>2020-10-17T12:14:04.000Z</time>
      </trkpt>
      <trkpt lat="47.20479" lon="-1.56713">
        <ele>55</ele>
        <time>2020-10-17T12:14:06.000Z</time>
      </trkpt>
      <trkpt lat="47.20466" lon="-1.56711">
        <ele>55</ele>
        <time>2020-10-17T12:14:08.000Z</time>
      </trkpt>
      <trkpt lat="47.20454" lon="-1.56705">
        <ele>55</ele>
        <time>2020-10-17T12:14:10.000Z</time>
      </trkpt>
      <trkpt lat="47.20441" lon="-1.56703">
        <ele>56</ele>
        <time>2020-10-17T12:14:12.000Z</time>
      </trkpt>
      <trkpt lat="47.2043" lon="-1.567">
        <ele>58</ele>
        <time>2020-10-17T12:14:14.000Z</time>
      </trkpt>
      <trkpt lat="47.20418" lon="-1.56699">
        <ele>59</ele>
        <time>2020-10-17T12:14:16.000Z</time>
      </trkpt>
      <trkpt lat="47.20408" lon="-1.56703">
        <ele>59</ele>
        <time>2020-10-17T12:14:19.000Z</time>
      </trkpt>
      <trkpt lat="47.20403" lon="-1.56721">
        <ele>61</ele>
        <time>2020-10-17T12:14:22.000Z</time>
      </trkpt>
      <trkpt lat="47.204" lon="-1.56741">
        <ele>62</ele>
        <time>2020-10-17T12:14:24.000Z</time>
      </trkpt>
      <trkpt lat="47.204" lon="-1.56762">
        <ele>61</ele>
        <time>2020-10-17T12:14:26.000Z</time>
      </trkpt>
      <trkpt lat="47.20397" lon="-1.56781">
        <ele>61</ele>
        <time>2020-10-17T12:14:28.000Z</time>
      </trkpt>
      <trkpt lat="47.20393" lon="-1.56801">
        <ele>60</ele>
        <time>2020-10-17T12:14:30.000Z</time>
      </trkpt>
      <trkpt lat="47.20391" lon="-1.56821">
        <ele>61</ele>
        <time>2020-10-17T12:14:32.000Z</time>
      </trkpt>
      <trkpt lat="47.20389" lon="-1.56841">
        <ele>62</ele>
        <time>2020-10-17T12:14:34.000Z</time>
      </trkpt>
      <trkpt lat="47.20388" lon="-1.56861">
        <ele>62</ele>
        <time>2020-10-17T12:14:36.000Z</time>
      </trkpt>
      <trkpt lat="47.20388" lon="-1.56881">
        <ele>63</ele>
        <time>2020-10-17T12:14:38.000Z</time>
      </trkpt>
      <trkpt lat="47.20386" lon="-1.56901">
        <ele>63</ele>
        <time>2020-10-17T12:14:40.000Z</time>
      </trkpt>
      <trkpt lat="47.20385" lon="-1.56923">
        <ele>62</ele>
        <time>2020-10-17T12:14:42.000Z</time>
      </trkpt>
      <trkpt lat="47.20383" lon="-1.56944">
        <ele>61</ele>
        <time>2020-10-17T12:14:44.000Z</time>
      </trkpt>
      <trkpt lat="47.2038" lon="-1.56963">
        <ele>59</ele>
        <time>2020-10-17T12:14:46.000Z</time>
      </trkpt>
      <trkpt lat="47.20378" lon="-1.56982">
        <ele>59</ele>
        <time>2020-10-17T12:14:48.000Z</time>
      </trkpt>
      <trkpt lat="47.20375" lon="-1.57002">
        <ele>58</ele>
        <time>2020-10-17T12:14:50.000Z</time>
      </trkpt>
      <trkpt lat="47.20373" lon="-1.57021">
        <ele>58</ele>
        <time>2020-10-17T12:14:52.000Z</time>
      </trkpt>
      <trkpt lat="47.2037" lon="-1.5704">
        <ele>57</ele>
        <time>2020-10-17T12:14:54.000Z</time>
      </trkpt>
      <trkpt lat="47.20365" lon="-1.57057">
        <ele>58</ele>
        <time>2020-10-17T12:14:56.000Z</time>
      </trkpt>
      <trkpt lat="47.20357" lon="-1.57073">
        <ele>58</ele>
        <time>2020-10-17T12:14:58.000Z</time>
      </trkpt>
      <trkpt lat="47.2035" lon="-1.57088">
        <ele>58</ele>
        <time>2020-10-17T12:15:00.000Z</time>
      </trkpt>
      <trkpt lat="47.2034" lon="-1.57103">
        <ele>57</ele>
        <time>2020-10-17T12:15:02.000Z</time>
      </trkpt>
      <trkpt lat="47.20328" lon="-1.57113">
        <ele>55</ele>
        <time>2020-10-17T12:15:04.000Z</time>
      </trkpt>
      <trkpt lat="47.20315" lon="-1.57122">
        <ele>55</ele>
        <time>2020-10-17T12:15:06.000Z</time>
      </trkpt>
      <trkpt lat="47.20303" lon="-1.57131">
        <ele>55</ele>
        <time>2020-10-17T12:15:08.000Z</time>
      </trkpt>
      <trkpt lat="47.2029" lon="-1.5714">
        <ele>55</ele>
        <time>2020-10-17T12:15:10.000Z</time>
      </trkpt>
      <trkpt lat="47.20277" lon="-1.57149">
        <ele>54</ele>
        <time>2020-10-17T12:15:12.000Z</time>
      </trkpt>
      <trkpt lat="47.20263" lon="-1.57157">
        <ele>54</ele>
        <time>2020-10-17T12:15:14.000Z</time>
      </trkpt>
      <trkpt lat="47.20251" lon="-1.57165">
        <ele>54</ele>
        <time>2020-10-17T12:15:16.000Z</time>
      </trkpt>
      <trkpt lat="47.20238" lon="-1.57174">
        <ele>54</ele>
        <time>2020-10-17T12:15:18.000Z</time>
      </trkpt>
      <trkpt lat="47.20225" lon="-1.57182">
        <ele>54</ele>
        <time>2020-10-17T12:15:20.000Z</time>
      </trkpt>
      <trkpt lat="47.20212" lon="-1.57191">
        <ele>54</ele>
        <time>2020-10-17T12:15:22.000Z</time>
      </trkpt>
      <trkpt lat="47.20199" lon="-1.57199">
        <ele>54</ele>
        <time>2020-10-17T12:15:24.000Z</time>
      </trkpt>
      <trkpt lat="47.20187" lon="-1.57208">
        <ele>54</ele>
        <time>2020-10-17T12:15:26.000Z</time>
      </trkpt>
      <trkpt lat="47.20174" lon="-1.57216">
        <ele>54</ele>
        <time>2020-10-17T12:15:28.000Z</time>
      </trkpt>
      <trkpt lat="47.20162" lon="-1.57225">
        <ele>54</ele>
        <time>2020-10-17T12:15:30.000Z</time>
      </trkpt>
      <trkpt lat="47.2015" lon="-1.57233">
        <ele>54</ele>
        <time>2020-10-17T12:15:32.000Z</time>
      </trkpt>
      <trkpt lat="47.20137" lon="-1.57241">
        <ele>54</ele>
        <time>2020-10-17T12:15:34.000Z</time>
      </trkpt>
      <trkpt lat="47.20125" lon="-1.5725">
        <ele>53</ele>
        <time>2020-10-17T12:15:36.000Z</time>
      </trkpt>
      <trkpt lat="47.20112" lon="-1.57258">
        <ele>53</ele>
        <time>2020-10-17T12:15:38.000Z</time>
      </trkpt>
      <trkpt lat="47.201" lon="-1.57267">
        <ele>54</ele>
        <time>2020-10-17T12:15:40.000Z</time>
      </trkpt>
      <trkpt lat="47.20089" lon="-1.57275">
        <ele>54</ele>
        <time>2020-10-17T12:15:42.000Z</time>
      </trkpt>
      <trkpt lat="47.20077" lon="-1.57283">
        <ele>54</ele>
        <time>2020-10-17T12:15:44.000Z</time>
      </trkpt>
      <trkpt lat="47.20067" lon="-1.57294">
        <ele>54</ele>
        <time>2020-10-17T12:15:46.000Z</time>
      </trkpt>
      <trkpt lat="47.20056" lon="-1.57304">
        <ele>54</ele>
        <time>2020-10-17T12:15:48.000Z</time>
      </trkpt>
      <trkpt lat="47.20045" lon="-1.57313">
        <ele>54</ele>
        <time>2020-10-17T12:15:50.000Z</time>
      </trkpt>
      <trkpt lat="47.20034" lon="-1.57321">
        <ele>55</ele>
        <time>2020-10-17T12:15:52.000Z</time>
      </trkpt>
      <trkpt lat="47.20021" lon="-1.57328">
        <ele>55</ele>
        <time>2020-10-17T12:15:54.000Z</time>
      </trkpt>
      <trkpt lat="47.2001" lon="-1.57336">
        <ele>55</ele>
        <time>2020-10-17T12:15:56.000Z</time>
      </trkpt>
      <trkpt lat="47.19998" lon="-1.5734">
        <ele>55</ele>
        <time>2020-10-17T12:15:58.000Z</time>
      </trkpt>
      <trkpt lat="47.19989" lon="-1.57333">
        <ele>57</ele>
        <time>2020-10-17T12:16:00.000Z</time>
      </trkpt>
      <trkpt lat="47.19983" lon="-1.57314">
        <ele>56</ele>
        <time>2020-10-17T12:16:02.000Z</time>
      </trkpt>
      <trkpt lat="47.19982" lon="-1.57295">
        <ele>55</ele>
        <time>2020-10-17T12:16:04.000Z</time>
      </trkpt>
      <trkpt lat="47.19981" lon="-1.57276">
        <ele>56</ele>
        <time>2020-10-17T12:16:06.000Z</time>
      </trkpt>
      <trkpt lat="47.19981" lon="-1.57258">
        <ele>56</ele>
        <time>2020-10-17T12:16:08.000Z</time>
      </trkpt>
      <trkpt lat="47.19981" lon="-1.57239">
        <ele>56</ele>
        <time>2020-10-17T12:16:10.000Z</time>
      </trkpt>
      <trkpt lat="47.1998" lon="-1.57221">
        <ele>56</ele>
        <time>2020-10-17T12:16:12.000Z</time>
      </trkpt>
      <trkpt lat="47.1998" lon="-1.57204">
        <ele>56</ele>
        <time>2020-10-17T12:16:14.000Z</time>
      </trkpt>
      <trkpt lat="47.1998" lon="-1.57186">
        <ele>56</ele>
        <time>2020-10-17T12:16:16.000Z</time>
      </trkpt>
      <trkpt lat="47.1998" lon="-1.57167">
        <ele>57</ele>
        <time>2020-10-17T12:16:18.000Z</time>
      </trkpt>
      <trkpt lat="47.19978" lon="-1.57148">
        <ele>56</ele>
        <time>2020-10-17T12:16:20.000Z</time>
      </trkpt>
      <trkpt lat="47.19975" lon="-1.5713">
        <ele>55</ele>
        <time>2020-10-17T12:16:22.000Z</time>
      </trkpt>
      <trkpt lat="47.19971" lon="-1.57112">
        <ele>55</ele>
        <time>2020-10-17T12:16:24.000Z</time>
      </trkpt>
      <trkpt lat="47.19967" lon="-1.57094">
        <ele>55</ele>
        <time>2020-10-17T12:16:26.000Z</time>
      </trkpt>
      <trkpt lat="47.19963" lon="-1.57076">
        <ele>55</ele>
        <time>2020-10-17T12:16:28.000Z</time>
      </trkpt>
      <trkpt lat="47.19959" lon="-1.57058">
        <ele>55</ele>
        <time>2020-10-17T12:16:30.000Z</time>
      </trkpt>
      <trkpt lat="47.19954" lon="-1.57041">
        <ele>55</ele>
        <time>2020-10-17T12:16:32.000Z</time>
      </trkpt>
      <trkpt lat="47.19951" lon="-1.57023">
        <ele>55</ele>
        <time>2020-10-17T12:16:34.000Z</time>
      </trkpt>
      <trkpt lat="47.19951" lon="-1.57005">
        <ele>56</ele>
        <time>2020-10-17T12:16:36.000Z</time>
      </trkpt>
      <trkpt lat="47.19952" lon="-1.56986">
        <ele>56</ele>
        <time>2020-10-17T12:16:38.000Z</time>
      </trkpt>
      <trkpt lat="47.19951" lon="-1.56969">
        <ele>56</ele>
        <time>2020-10-17T12:16:40.000Z</time>
      </trkpt>
      <trkpt lat="47.19952" lon="-1.56951">
        <ele>56</ele>
        <time>2020-10-17T12:16:42.000Z</time>
      </trkpt>
      <trkpt lat="47.19952" lon="-1.56933">
        <ele>56</ele>
        <time>2020-10-17T12:16:44.000Z</time>
      </trkpt>
      <trkpt lat="47.19953" lon="-1.56915">
        <ele>56</ele>
        <time>2020-10-17T12:16:46.000Z</time>
      </trkpt>
      <trkpt lat="47.19952" lon="-1.56897">
        <ele>57</ele>
        <time>2020-10-17T12:16:48.000Z</time>
      </trkpt>
      <trkpt lat="47.19952" lon="-1.56879">
        <ele>57</ele>
        <time>2020-10-17T12:16:50.000Z</time>
      </trkpt>
      <trkpt lat="47.19953" lon="-1.5686">
        <ele>57</ele>
        <time>2020-10-17T12:16:52.000Z</time>
      </trkpt>
      <trkpt lat="47.19953" lon="-1.56841">
        <ele>57</ele>
        <time>2020-10-17T12:16:54.000Z</time>
      </trkpt>
      <trkpt lat="47.19953" lon="-1.56822">
        <ele>57</ele>
        <time>2020-10-17T12:16:56.000Z</time>
      </trkpt>
      <trkpt lat="47.19953" lon="-1.56803">
        <ele>57</ele>
        <time>2020-10-17T12:16:58.000Z</time>
      </trkpt>
      <trkpt lat="47.19953" lon="-1.56783">
        <ele>57</ele>
        <time>2020-10-17T12:17:00.000Z</time>
      </trkpt>
      <trkpt lat="47.19952" lon="-1.56764">
        <ele>57</ele>
        <time>2020-10-17T12:17:02.000Z</time>
      </trkpt>
      <trkpt lat="47.19953" lon="-1.56745">
        <ele>58</ele>
        <time>2020-10-17T12:17:04.000Z</time>
      </trkpt>
      <trkpt lat="47.19953" lon="-1.56726">
        <ele>58</ele>
        <time>2020-10-17T12:17:06.000Z</time>
      </trkpt>
      <trkpt lat="47.19953" lon="-1.56708">
        <ele>58</ele>
        <time>2020-10-17T12:17:08.000Z</time>
      </trkpt>
      <trkpt lat="47.19953" lon="-1.56689">
        <ele>58</ele>
        <time>2020-10-17T12:17:10.000Z</time>
      </trkpt>
      <trkpt lat="47.19953" lon="-1.56671">
        <ele>58</ele>
        <time>2020-10-17T12:17:12.000Z</time>
      </trkpt>
      <trkpt lat="47.19953" lon="-1.56653">
        <ele>58</ele>
        <time>2020-10-17T12:17:14.000Z</time>
      </trkpt>
      <trkpt lat="47.19953" lon="-1.56635">
        <ele>58</ele>
        <time>2020-10-17T12:17:16.000Z</time>
      </trkpt>
      <trkpt lat="47.19954" lon="-1.56617">
        <ele>58</ele>
        <time>2020-10-17T12:17:18.000Z</time>
      </trkpt>
      <trkpt lat="47.19954" lon="-1.56599">
        <ele>58</ele>
        <time>2020-10-17T12:17:20.000Z</time>
      </trkpt>
      <trkpt lat="47.19953" lon="-1.56582">
        <ele>58</ele>
        <time>2020-10-17T12:17:22.000Z</time>
      </trkpt>
      <trkpt lat="47.19953" lon="-1.56564">
        <ele>59</ele>
        <time>2020-10-17T12:17:24.000Z</time>
      </trkpt>
      <trkpt lat="47.19953" lon="-1.56546">
        <ele>59</ele>
        <time>2020-10-17T12:17:26.000Z</time>
      </trkpt>
      <trkpt lat="47.19953" lon="-1.56527">
        <ele>58</ele>
        <time>2020-10-17T12:17:28.000Z</time>
      </trkpt>
      <trkpt lat="47.19954" lon="-1.56509">
        <ele>58</ele>
        <time>2020-10-17T12:17:30.000Z</time>
      </trkpt>
      <trkpt lat="47.19955" lon="-1.56491">
        <ele>58</ele>
        <time>2020-10-17T12:17:32.000Z</time>
      </trkpt>
      <trkpt lat="47.19956" lon="-1.56474">
        <ele>58</ele>
        <time>2020-10-17T12:17:34.000Z</time>
      </trkpt>
      <trkpt lat="47.19958" lon="-1.56457">
        <ele>57</ele>
        <time>2020-10-17T12:17:36.000Z</time>
      </trkpt>
      <trkpt lat="47.19962" lon="-1.56439">
        <ele>58</ele>
        <time>2020-10-17T12:17:38.000Z</time>
      </trkpt>
      <trkpt lat="47.19967" lon="-1.56422">
        <ele>57</ele>
        <time>2020-10-17T12:17:40.000Z</time>
      </trkpt>
      <trkpt lat="47.1997" lon="-1.56405">
        <ele>57</ele>
        <time>2020-10-17T12:17:42.000Z</time>
      </trkpt>
      <trkpt lat="47.19972" lon="-1.56387">
        <ele>57</ele>
        <time>2020-10-17T12:17:44.000Z</time>
      </trkpt>
      <trkpt lat="47.19973" lon="-1.56369">
        <ele>57</ele>
        <time>2020-10-17T12:17:46.000Z</time>
      </trkpt>
      <trkpt lat="47.19975" lon="-1.5635">
        <ele>58</ele>
        <time>2020-10-17T12:17:48.000Z</time>
      </trkpt>
      <trkpt lat="47.19977" lon="-1.5633">
        <ele>58</ele>
        <time>2020-10-17T12:17:50.000Z</time>
      </trkpt>
      <trkpt lat="47.19978" lon="-1.56312">
        <ele>57</ele>
        <time>2020-10-17T12:17:52.000Z</time>
      </trkpt>
      <trkpt lat="47.19979" lon="-1.56293">
        <ele>58</ele>
        <time>2020-10-17T12:17:54.000Z</time>
      </trkpt>
      <trkpt lat="47.19979" lon="-1.56273">
        <ele>57</ele>
        <time>2020-10-17T12:17:56.000Z</time>
      </trkpt>
      <trkpt lat="47.19979" lon="-1.56254">
        <ele>56</ele>
        <time>2020-10-17T12:17:58.000Z</time>
      </trkpt>
      <trkpt lat="47.19979" lon="-1.56236">
        <ele>56</ele>
        <time>2020-10-17T12:18:00.000Z</time>
      </trkpt>
      <trkpt lat="47.19979" lon="-1.56218">
        <ele>57</ele>
        <time>2020-10-17T12:18:02.000Z</time>
      </trkpt>
      <trkpt lat="47.19979" lon="-1.56201">
        <ele>56</ele>
        <time>2020-10-17T12:18:04.000Z</time>
      </trkpt>
      <trkpt lat="47.19978" lon="-1.56185">
        <ele>56</ele>
        <time>2020-10-17T12:18:06.000Z</time>
      </trkpt>
      <trkpt lat="47.19975" lon="-1.56172">
        <ele>56</ele>
        <time>2020-10-17T12:18:08.000Z</time>
      </trkpt>
      <trkpt lat="47.19966" lon="-1.56168">
        <ele>57</ele>
        <time>2020-10-17T12:18:10.000Z</time>
      </trkpt>
      <trkpt lat="47.19956" lon="-1.56166">
        <ele>58</ele>
        <time>2020-10-17T12:18:12.000Z</time>
      </trkpt>
      <trkpt lat="47.19945" lon="-1.56171">
        <ele>58</ele>
        <time>2020-10-17T12:18:14.000Z</time>
      </trkpt>
      <trkpt lat="47.19932" lon="-1.56174">
        <ele>59</ele>
        <time>2020-10-17T12:18:16.000Z</time>
      </trkpt>
      <trkpt lat="47.19919" lon="-1.56175">
        <ele>60</ele>
        <time>2020-10-17T12:18:18.000Z</time>
      </trkpt>
      <trkpt lat="47.19905" lon="-1.56178">
        <ele>61</ele>
        <time>2020-10-17T12:18:20.000Z</time>
      </trkpt>
      <trkpt lat="47.19891" lon="-1.5618">
        <ele>62</ele>
        <time>2020-10-17T12:18:22.000Z</time>
      </trkpt>
      <trkpt lat="47.19878" lon="-1.56181">
        <ele>63</ele>
        <time>2020-10-17T12:18:24.000Z</time>
      </trkpt>
      <trkpt lat="47.19865" lon="-1.56184">
        <ele>64</ele>
        <time>2020-10-17T12:18:26.000Z</time>
      </trkpt>
      <trkpt lat="47.19852" lon="-1.56188">
        <ele>64</ele>
        <time>2020-10-17T12:18:28.000Z</time>
      </trkpt>
      <trkpt lat="47.19838" lon="-1.5619">
        <ele>64</ele>
        <time>2020-10-17T12:18:30.000Z</time>
      </trkpt>
      <trkpt lat="47.19825" lon="-1.56193">
        <ele>64</ele>
        <time>2020-10-17T12:18:32.000Z</time>
      </trkpt>
      <trkpt lat="47.19812" lon="-1.56195">
        <ele>64</ele>
        <time>2020-10-17T12:18:34.000Z</time>
      </trkpt>
      <trkpt lat="47.19799" lon="-1.56198">
        <ele>64</ele>
        <time>2020-10-17T12:18:36.000Z</time>
      </trkpt>
      <trkpt lat="47.19786" lon="-1.562">
        <ele>64</ele>
        <time>2020-10-17T12:18:38.000Z</time>
      </trkpt>
      <trkpt lat="47.19773" lon="-1.56201">
        <ele>63</ele>
        <time>2020-10-17T12:18:40.000Z</time>
      </trkpt>
      <trkpt lat="47.19761" lon="-1.56204">
        <ele>63</ele>
        <time>2020-10-17T12:18:42.000Z</time>
      </trkpt>
      <trkpt lat="47.19747" lon="-1.56206">
        <ele>63</ele>
        <time>2020-10-17T12:18:44.000Z</time>
      </trkpt>
      <trkpt lat="47.19733" lon="-1.56209">
        <ele>61</ele>
        <time>2020-10-17T12:18:46.000Z</time>
      </trkpt>
      <trkpt lat="47.19719" lon="-1.56212">
        <ele>60</ele>
        <time>2020-10-17T12:18:48.000Z</time>
      </trkpt>
      <trkpt lat="47.19704" lon="-1.56214">
        <ele>59</ele>
        <time>2020-10-17T12:18:50.000Z</time>
      </trkpt>
      <trkpt lat="47.19688" lon="-1.56217">
        <ele>59</ele>
        <time>2020-10-17T12:18:52.000Z</time>
      </trkpt>
      <trkpt lat="47.19672" lon="-1.56222">
        <ele>58</ele>
        <time>2020-10-17T12:18:54.000Z</time>
      </trkpt>
      <trkpt lat="47.19657" lon="-1.56228">
        <ele>57</ele>
        <time>2020-10-17T12:18:56.000Z</time>
      </trkpt>
      <trkpt lat="47.19642" lon="-1.56237">
        <ele>56</ele>
        <time>2020-10-17T12:18:58.000Z</time>
      </trkpt>
      <trkpt lat="47.19635" lon="-1.56259">
        <ele>56</ele>
        <time>2020-10-17T12:19:00.000Z</time>
      </trkpt>
      <trkpt lat="47.19635" lon="-1.56283">
        <ele>56</ele>
        <time>2020-10-17T12:19:02.000Z</time>
      </trkpt>
      <trkpt lat="47.19634" lon="-1.56306">
        <ele>56</ele>
        <time>2020-10-17T12:19:04.000Z</time>
      </trkpt>
      <trkpt lat="47.19633" lon="-1.56329">
        <ele>56</ele>
        <time>2020-10-17T12:19:06.000Z</time>
      </trkpt>
      <trkpt lat="47.19632" lon="-1.56351">
        <ele>57</ele>
        <time>2020-10-17T12:19:08.000Z</time>
      </trkpt>
      <trkpt lat="47.19632" lon="-1.56373">
        <ele>56</ele>
        <time>2020-10-17T12:19:10.000Z</time>
      </trkpt>
      <trkpt lat="47.19632" lon="-1.56395">
        <ele>56</ele>
        <time>2020-10-17T12:19:12.000Z</time>
      </trkpt>
      <trkpt lat="47.19632" lon="-1.56415">
        <ele>56</ele>
        <time>2020-10-17T12:19:14.000Z</time>
      </trkpt>
      <trkpt lat="47.19633" lon="-1.56437">
        <ele>55</ele>
        <time>2020-10-17T12:19:16.000Z</time>
      </trkpt>
      <trkpt lat="47.19634" lon="-1.56459">
        <ele>55</ele>
        <time>2020-10-17T12:19:18.000Z</time>
      </trkpt>
      <trkpt lat="47.19634" lon="-1.5648">
        <ele>55</ele>
        <time>2020-10-17T12:19:20.000Z</time>
      </trkpt>
      <trkpt lat="47.19634" lon="-1.56501">
        <ele>55</ele>
        <time>2020-10-17T12:19:22.000Z</time>
      </trkpt>
      <trkpt lat="47.19634" lon="-1.56522">
        <ele>55</ele>
        <time>2020-10-17T12:19:24.000Z</time>
      </trkpt>
      <trkpt lat="47.19633" lon="-1.56542">
        <ele>55</ele>
        <time>2020-10-17T12:19:26.000Z</time>
      </trkpt>
      <trkpt lat="47.19633" lon="-1.56564">
        <ele>55</ele>
        <time>2020-10-17T12:19:28.000Z</time>
      </trkpt>
      <trkpt lat="47.19633" lon="-1.56585">
        <ele>55</ele>
        <time>2020-10-17T12:19:30.000Z</time>
      </trkpt>
      <trkpt lat="47.19631" lon="-1.56606">
        <ele>54</ele>
        <time>2020-10-17T12:19:32.000Z</time>
      </trkpt>
      <trkpt lat="47.1963" lon="-1.56627">
        <ele>54</ele>
        <time>2020-10-17T12:19:34.000Z</time>
      </trkpt>
      <trkpt lat="47.19629" lon="-1.56648">
        <ele>54</ele>
        <time>2020-10-17T12:19:36.000Z</time>
      </trkpt>
      <trkpt lat="47.19628" lon="-1.56668">
        <ele>54</ele>
        <time>2020-10-17T12:19:38.000Z</time>
      </trkpt>
      <trkpt lat="47.19627" lon="-1.56689">
        <ele>54</ele>
        <time>2020-10-17T12:19:40.000Z</time>
      </trkpt>
      <trkpt lat="47.19626" lon="-1.5671">
        <ele>53</ele>
        <time>2020-10-17T12:19:42.000Z</time>
      </trkpt>
      <trkpt lat="47.19625" lon="-1.56731">
        <ele>53</ele>
        <time>2020-10-17T12:19:44.000Z</time>
      </trkpt>
      <trkpt lat="47.19623" lon="-1.56751">
        <ele>53</ele>
        <time>2020-10-17T12:19:46.000Z</time>
      </trkpt>
      <trkpt lat="47.19622" lon="-1.56771">
        <ele>53</ele>
        <time>2020-10-17T12:19:48.000Z</time>
      </trkpt>
      <trkpt lat="47.19621" lon="-1.56792">
        <ele>52</ele>
        <time>2020-10-17T12:19:50.000Z</time>
      </trkpt>
      <trkpt lat="47.1962" lon="-1.56813">
        <ele>52</ele>
        <time>2020-10-17T12:19:52.000Z</time>
      </trkpt>
      <trkpt lat="47.19618" lon="-1.56833">
        <ele>52</ele>
        <time>2020-10-17T12:19:54.000Z</time>
      </trkpt>
      <trkpt lat="47.19618" lon="-1.56854">
        <ele>52</ele>
        <time>2020-10-17T12:19:56.000Z</time>
      </trkpt>
      <trkpt lat="47.19617" lon="-1.56875">
        <ele>52</ele>
        <time>2020-10-17T12:19:58.000Z</time>
      </trkpt>
      <trkpt lat="47.19615" lon="-1.56895">
        <ele>52</ele>
        <time>2020-10-17T12:20:00.000Z</time>
      </trkpt>
      <trkpt lat="47.19613" lon="-1.56915">
        <ele>52</ele>
        <time>2020-10-17T12:20:02.000Z</time>
      </trkpt>
      <trkpt lat="47.19612" lon="-1.56936">
        <ele>52</ele>
        <time>2020-10-17T12:20:04.000Z</time>
      </trkpt>
      <trkpt lat="47.19611" lon="-1.56957">
        <ele>52</ele>
        <time>2020-10-17T12:20:06.000Z</time>
      </trkpt>
      <trkpt lat="47.1961" lon="-1.56977">
        <ele>52</ele>
        <time>2020-10-17T12:20:08.000Z</time>
      </trkpt>
      <trkpt lat="47.19608" lon="-1.56998">
        <ele>52</ele>
        <time>2020-10-17T12:20:10.000Z</time>
      </trkpt>
      <trkpt lat="47.19606" lon="-1.57018">
        <ele>52</ele>
        <time>2020-10-17T12:20:12.000Z</time>
      </trkpt>
      <trkpt lat="47.19604" lon="-1.57036">
        <ele>52</ele>
        <time>2020-10-17T12:20:14.000Z</time>
      </trkpt>
      <trkpt lat="47.19603" lon="-1.57057">
        <ele>53</ele>
        <time>2020-10-17T12:20:16.000Z</time>
      </trkpt>
      <trkpt lat="47.19603" lon="-1.57077">
        <ele>53</ele>
        <time>2020-10-17T12:20:18.000Z</time>
      </trkpt>
      <trkpt lat="47.19602" lon="-1.57097">
        <ele>53</ele>
        <time>2020-10-17T12:20:20.000Z</time>
      </trkpt>
      <trkpt lat="47.19601" lon="-1.57116">
        <ele>53</ele>
        <time>2020-10-17T12:20:22.000Z</time>
      </trkpt>
      <trkpt lat="47.196" lon="-1.57136">
        <ele>53</ele>
        <time>2020-10-17T12:20:24.000Z</time>
      </trkpt>
      <trkpt lat="47.19599" lon="-1.57153">
        <ele>53</ele>
        <time>2020-10-17T12:20:26.000Z</time>
      </trkpt>
      <trkpt lat="47.19598" lon="-1.57171">
        <ele>53</ele>
        <time>2020-10-17T12:20:28.000Z</time>
      </trkpt>
      <trkpt lat="47.19597" lon="-1.5719">
        <ele>54</ele>
        <time>2020-10-17T12:20:30.000Z</time>
      </trkpt>
      <trkpt lat="47.19595" lon="-1.5721">
        <ele>54</ele>
        <time>2020-10-17T12:20:32.000Z</time>
      </trkpt>
      <trkpt lat="47.19594" lon="-1.5723">
        <ele>54</ele>
        <time>2020-10-17T12:20:34.000Z</time>
      </trkpt>
      <trkpt lat="47.19592" lon="-1.57251">
        <ele>54</ele>
        <time>2020-10-17T12:20:36.000Z</time>
      </trkpt>
      <trkpt lat="47.1959" lon="-1.57271">
        <ele>53</ele>
        <time>2020-10-17T12:20:38.000Z</time>
      </trkpt>
      <trkpt lat="47.1959" lon="-1.57291">
        <ele>54</ele>
        <time>2020-10-17T12:20:40.000Z</time>
      </trkpt>
      <trkpt lat="47.19588" lon="-1.57311">
        <ele>54</ele>
        <time>2020-10-17T12:20:42.000Z</time>
      </trkpt>
      <trkpt lat="47.19585" lon="-1.57329">
        <ele>54</ele>
        <time>2020-10-17T12:20:44.000Z</time>
      </trkpt>
      <trkpt lat="47.19582" lon="-1.57349">
        <ele>53</ele>
        <time>2020-10-17T12:20:46.000Z</time>
      </trkpt>
      <trkpt lat="47.19577" lon="-1.57367">
        <ele>54</ele>
        <time>2020-10-17T12:20:48.000Z</time>
      </trkpt>
      <trkpt lat="47.19574" lon="-1.57385">
        <ele>54</ele>
        <time>2020-10-17T12:20:50.000Z</time>
      </trkpt>
      <trkpt lat="47.1957" lon="-1.57404">
        <ele>54</ele>
        <time>2020-10-17T12:20:52.000Z</time>
      </trkpt>
      <trkpt lat="47.19566" lon="-1.57422">
        <ele>55</ele>
        <time>2020-10-17T12:20:54.000Z</time>
      </trkpt>
      <trkpt lat="47.19562" lon="-1.57442">
        <ele>55</ele>
        <time>2020-10-17T12:20:56.000Z</time>
      </trkpt>
      <trkpt lat="47.19558" lon="-1.57461">
        <ele>56</ele>
        <time>2020-10-17T12:20:58.000Z</time>
      </trkpt>
      <trkpt lat="47.19556" lon="-1.57482">
        <ele>55</ele>
        <time>2020-10-17T12:21:00.000Z</time>
      </trkpt>
      <trkpt lat="47.19552" lon="-1.57501">
        <ele>55</ele>
        <time>2020-10-17T12:21:02.000Z</time>
      </trkpt>
      <trkpt lat="47.19548" lon="-1.57522">
        <ele>55</ele>
        <time>2020-10-17T12:21:04.000Z</time>
      </trkpt>
      <trkpt lat="47.19545" lon="-1.57542">
        <ele>55</ele>
        <time>2020-10-17T12:21:06.000Z</time>
      </trkpt>
      <trkpt lat="47.19541" lon="-1.57561">
        <ele>55</ele>
        <time>2020-10-17T12:21:08.000Z</time>
      </trkpt>
      <trkpt lat="47.19536" lon="-1.5758">
        <ele>55</ele>
        <time>2020-10-17T12:21:10.000Z</time>
      </trkpt>
      <trkpt lat="47.19533" lon="-1.57599">
        <ele>54</ele>
        <time>2020-10-17T12:21:12.000Z</time>
      </trkpt>
      <trkpt lat="47.19529" lon="-1.57619">
        <ele>53</ele>
        <time>2020-10-17T12:21:14.000Z</time>
      </trkpt>
      <trkpt lat="47.19525" lon="-1.57638">
        <ele>53</ele>
        <time>2020-10-17T12:21:16.000Z</time>
      </trkpt>
      <trkpt lat="47.19521" lon="-1.57657">
        <ele>53</ele>
        <time>2020-10-17T12:21:18.000Z</time>
      </trkpt>
      <trkpt lat="47.19517" lon="-1.57677">
        <ele>53</ele>
        <time>2020-10-17T12:21:20.000Z</time>
      </trkpt>
      <trkpt lat="47.19512" lon="-1.57696">
        <ele>53</ele>
        <time>2020-10-17T12:21:22.000Z</time>
      </trkpt>
      <trkpt lat="47.19508" lon="-1.57715">
        <ele>53</ele>
        <time>2020-10-17T12:21:24.000Z</time>
      </trkpt>
      <trkpt lat="47.19505" lon="-1.57734">
        <ele>54</ele>
        <time>2020-10-17T12:21:26.000Z</time>
      </trkpt>
      <trkpt lat="47.19501" lon="-1.57753">
        <ele>54</ele>
        <time>2020-10-17T12:21:28.000Z</time>
      </trkpt>
      <trkpt lat="47.19496" lon="-1.57772">
        <ele>53</ele>
        <time>2020-10-17T12:21:30.000Z</time>
      </trkpt>
      <trkpt lat="47.19492" lon="-1.57791">
        <ele>53</ele>
        <time>2020-10-17T12:21:32.000Z</time>
      </trkpt>
      <trkpt lat="47.19488" lon="-1.57811">
        <ele>53</ele>
        <time>2020-10-17T12:21:34.000Z</time>
      </trkpt>
      <trkpt lat="47.19484" lon="-1.57832">
        <ele>54</ele>
        <time>2020-10-17T12:21:36.000Z</time>
      </trkpt>
      <trkpt lat="47.19482" lon="-1.57852">
        <ele>54</ele>
        <time>2020-10-17T12:21:38.000Z</time>
      </trkpt>
      <trkpt lat="47.1948" lon="-1.57873">
        <ele>54</ele>
        <time>2020-10-17T12:21:40.000Z</time>
      </trkpt>
      <trkpt lat="47.19476" lon="-1.57893">
        <ele>53</ele>
        <time>2020-10-17T12:21:42.000Z</time>
      </trkpt>
      <trkpt lat="47.19473" lon="-1.57915">
        <ele>53</ele>
        <time>2020-10-17T12:21:44.000Z</time>
      </trkpt>
      <trkpt lat="47.19471" lon="-1.57935">
        <ele>53</ele>
        <time>2020-10-17T12:21:46.000Z</time>
      </trkpt>
      <trkpt lat="47.19469" lon="-1.57955">
        <ele>53</ele>
        <time>2020-10-17T12:21:48.000Z</time>
      </trkpt>
      <trkpt lat="47.19468" lon="-1.57974">
        <ele>53</ele>
        <time>2020-10-17T12:21:50.000Z</time>
      </trkpt>
      <trkpt lat="47.19467" lon="-1.57992">
        <ele>53</ele>
        <time>2020-10-17T12:21:52.000Z</time>
      </trkpt>
      <trkpt lat="47.19465" lon="-1.5801">
        <ele>54</ele>
        <time>2020-10-17T12:21:54.000Z</time>
      </trkpt>
      <trkpt lat="47.19464" lon="-1.58028">
        <ele>53</ele>
        <time>2020-10-17T12:21:56.000Z</time>
      </trkpt>
      <trkpt lat="47.19462" lon="-1.58046">
        <ele>53</ele>
        <time>2020-10-17T12:21:58.000Z</time>
      </trkpt>
      <trkpt lat="47.1946" lon="-1.58062">
        <ele>54</ele>
        <time>2020-10-17T12:22:00.000Z</time>
      </trkpt>
      <trkpt lat="47.19459" lon="-1.5808">
        <ele>53</ele>
        <time>2020-10-17T12:22:03.000Z</time>
      </trkpt>
      <trkpt lat="47.19453" lon="-1.58098">
        <ele>53</ele>
        <time>2020-10-17T12:22:06.000Z</time>
      </trkpt>
      <trkpt lat="47.19444" lon="-1.5811">
        <ele>53</ele>
        <time>2020-10-17T12:22:08.000Z</time>
      </trkpt>
      <trkpt lat="47.19434" lon="-1.5812">
        <ele>53</ele>
        <time>2020-10-17T12:22:10.000Z</time>
      </trkpt>
      <trkpt lat="47.19424" lon="-1.58133">
        <ele>53</ele>
        <time>2020-10-17T12:22:12.000Z</time>
      </trkpt>
      <trkpt lat="47.19414" lon="-1.58145">
        <ele>53</ele>
        <time>2020-10-17T12:22:14.000Z</time>
      </trkpt>
      <trkpt lat="47.19404" lon="-1.58158">
        <ele>53</ele>
        <time>2020-10-17T12:22:16.000Z</time>
      </trkpt>
      <trkpt lat="47.19396" lon="-1.58174">
        <ele>54</ele>
        <time>2020-10-17T12:22:18.000Z</time>
      </trkpt>
      <trkpt lat="47.19389" lon="-1.58191">
        <ele>54</ele>
        <time>2020-10-17T12:22:20.000Z</time>
      </trkpt>
      <trkpt lat="47.19382" lon="-1.58208">
        <ele>54</ele>
        <time>2020-10-17T12:22:22.000Z</time>
      </trkpt>
      <trkpt lat="47.19375" lon="-1.58225">
        <ele>54</ele>
        <time>2020-10-17T12:22:24.000Z</time>
      </trkpt>
      <trkpt lat="47.19368" lon="-1.58243">
        <ele>54</ele>
        <time>2020-10-17T12:22:26.000Z</time>
      </trkpt>
      <trkpt lat="47.19362" lon="-1.58261">
        <ele>54</ele>
        <time>2020-10-17T12:22:28.000Z</time>
      </trkpt>
      <trkpt lat="47.19355" lon="-1.58278">
        <ele>54</ele>
        <time>2020-10-17T12:22:30.000Z</time>
      </trkpt>
      <trkpt lat="47.19344" lon="-1.5829">
        <ele>54</ele>
        <time>2020-10-17T12:22:32.000Z</time>
      </trkpt>
      <trkpt lat="47.19332" lon="-1.58301">
        <ele>53</ele>
        <time>2020-10-17T12:22:34.000Z</time>
      </trkpt>
      <trkpt lat="47.1932" lon="-1.58313">
        <ele>53</ele>
        <time>2020-10-17T12:22:36.000Z</time>
      </trkpt>
      <trkpt lat="47.19308" lon="-1.58324">
        <ele>53</ele>
        <time>2020-10-17T12:22:38.000Z</time>
      </trkpt>
      <trkpt lat="47.19296" lon="-1.58334">
        <ele>53</ele>
        <time>2020-10-17T12:22:40.000Z</time>
      </trkpt>
      <trkpt lat="47.19284" lon="-1.58345">
        <ele>54</ele>
        <time>2020-10-17T12:22:42.000Z</time>
      </trkpt>
      <trkpt lat="47.19274" lon="-1.58356">
        <ele>53</ele>
        <time>2020-10-17T12:22:44.000Z</time>
      </trkpt>
      <trkpt lat="47.19263" lon="-1.58367">
        <ele>53</ele>
        <time>2020-10-17T12:22:46.000Z</time>
      </trkpt>
      <trkpt lat="47.19251" lon="-1.58378">
        <ele>53</ele>
        <time>2020-10-17T12:22:48.000Z</time>
      </trkpt>
      <trkpt lat="47.1924" lon="-1.58389">
        <ele>53</ele>
        <time>2020-10-17T12:22:50.000Z</time>
      </trkpt>
      <trkpt lat="47.19228" lon="-1.58399">
        <ele>54</ele>
        <time>2020-10-17T12:22:52.000Z</time>
      </trkpt>
      <trkpt lat="47.19217" lon="-1.5841">
        <ele>54</ele>
        <time>2020-10-17T12:22:54.000Z</time>
      </trkpt>
      <trkpt lat="47.19205" lon="-1.5842">
        <ele>54</ele>
        <time>2020-10-17T12:22:56.000Z</time>
      </trkpt>
      <trkpt lat="47.19194" lon="-1.5843">
        <ele>54</ele>
        <time>2020-10-17T12:22:58.000Z</time>
      </trkpt>
      <trkpt lat="47.19183" lon="-1.5844">
        <ele>54</ele>
        <time>2020-10-17T12:23:00.000Z</time>
      </trkpt>
      <trkpt lat="47.19174" lon="-1.58449">
        <ele>54</ele>
        <time>2020-10-17T12:23:02.000Z</time>
      </trkpt>
      <trkpt lat="47.19165" lon="-1.58458">
        <ele>54</ele>
        <time>2020-10-17T12:23:04.000Z</time>
      </trkpt>
      <trkpt lat="47.19156" lon="-1.58468">
        <ele>53</ele>
        <time>2020-10-17T12:23:06.000Z</time>
      </trkpt>
      <trkpt lat="47.19147" lon="-1.58477">
        <ele>53</ele>
        <time>2020-10-17T12:23:08.000Z</time>
      </trkpt>
      <trkpt lat="47.19137" lon="-1.58487">
        <ele>53</ele>
        <time>2020-10-17T12:23:10.000Z</time>
      </trkpt>
      <trkpt lat="47.19125" lon="-1.58499">
        <ele>53</ele>
        <time>2020-10-17T12:23:12.000Z</time>
      </trkpt>
      <trkpt lat="47.19112" lon="-1.5851">
        <ele>53</ele>
        <time>2020-10-17T12:23:14.000Z</time>
      </trkpt>
      <trkpt lat="47.191" lon="-1.58522">
        <ele>54</ele>
        <time>2020-10-17T12:23:16.000Z</time>
      </trkpt>
      <trkpt lat="47.19088" lon="-1.58534">
        <ele>53</ele>
        <time>2020-10-17T12:23:18.000Z</time>
      </trkpt>
      <trkpt lat="47.19077" lon="-1.58545">
        <ele>53</ele>
        <time>2020-10-17T12:23:20.000Z</time>
      </trkpt>
      <trkpt lat="47.19065" lon="-1.58557">
        <ele>53</ele>
        <time>2020-10-17T12:23:22.000Z</time>
      </trkpt>
      <trkpt lat="47.19054" lon="-1.58568">
        <ele>53</ele>
        <time>2020-10-17T12:23:24.000Z</time>
      </trkpt>
      <trkpt lat="47.19043" lon="-1.5858">
        <ele>54</ele>
        <time>2020-10-17T12:23:26.000Z</time>
      </trkpt>
      <trkpt lat="47.19033" lon="-1.58591">
        <ele>54</ele>
        <time>2020-10-17T12:23:28.000Z</time>
      </trkpt>
      <trkpt lat="47.19023" lon="-1.58602">
        <ele>55</ele>
        <time>2020-10-17T12:23:30.000Z</time>
      </trkpt>
      <trkpt lat="47.19012" lon="-1.58613">
        <ele>55</ele>
        <time>2020-10-17T12:23:32.000Z</time>
      </trkpt>
      <trkpt lat="47.19001" lon="-1.58623">
        <ele>56</ele>
        <time>2020-10-17T12:23:34.000Z</time>
      </trkpt>
      <trkpt lat="47.1899" lon="-1.58633">
        <ele>55</ele>
        <time>2020-10-17T12:23:36.000Z</time>
      </trkpt>
      <trkpt lat="47.18978" lon="-1.58644">
        <ele>55</ele>
        <time>2020-10-17T12:23:38.000Z</time>
      </trkpt>
      <trkpt lat="47.18967" lon="-1.58654">
        <ele>55</ele>
        <time>2020-10-17T12:23:40.000Z</time>
      </trkpt>
      <trkpt lat="47.18957" lon="-1.58665">
        <ele>54</ele>
        <time>2020-10-17T12:23:42.000Z</time>
      </trkpt>
      <trkpt lat="47.18946" lon="-1.58675">
        <ele>55</ele>
        <time>2020-10-17T12:23:44.000Z</time>
      </trkpt>
      <trkpt lat="47.18936" lon="-1.58685">
        <ele>54</ele>
        <time>2020-10-17T12:23:46.000Z</time>
      </trkpt>
      <trkpt lat="47.18925" lon="-1.58695">
        <ele>54</ele>
        <time>2020-10-17T12:23:48.000Z</time>
      </trkpt>
      <trkpt lat="47.18914" lon="-1.58705">
        <ele>54</ele>
        <time>2020-10-17T12:23:50.000Z</time>
      </trkpt>
      <trkpt lat="47.18903" lon="-1.58713">
        <ele>53</ele>
        <time>2020-10-17T12:23:52.000Z</time>
      </trkpt>
      <trkpt lat="47.18892" lon="-1.58719">
        <ele>54</ele>
        <time>2020-10-17T12:23:54.000Z</time>
      </trkpt>
      <trkpt lat="47.1888" lon="-1.58726">
        <ele>54</ele>
        <time>2020-10-17T12:23:56.000Z</time>
      </trkpt>
      <trkpt lat="47.18869" lon="-1.58732">
        <ele>54</ele>
        <time>2020-10-17T12:23:58.000Z</time>
      </trkpt>
      <trkpt lat="47.18858" lon="-1.58738">
        <ele>55</ele>
        <time>2020-10-17T12:24:00.000Z</time>
      </trkpt>
      <trkpt lat="47.18847" lon="-1.58742">
        <ele>55</ele>
        <time>2020-10-17T12:24:02.000Z</time>
      </trkpt>
      <trkpt lat="47.18837" lon="-1.58751">
        <ele>55</ele>
        <time>2020-10-17T12:24:04.000Z</time>
      </trkpt>
      <trkpt lat="47.18833" lon="-1.58769">
        <ele>54</ele>
        <time>2020-10-17T12:24:06.000Z</time>
      </trkpt>
      <trkpt lat="47.18829" lon="-1.58787">
        <ele>55</ele>
        <time>2020-10-17T12:24:08.000Z</time>
      </trkpt>
      <trkpt lat="47.18819" lon="-1.588">
        <ele>55</ele>
        <time>2020-10-17T12:24:10.000Z</time>
      </trkpt>
      <trkpt lat="47.18808" lon="-1.58809">
        <ele>54</ele>
        <time>2020-10-17T12:24:12.000Z</time>
      </trkpt>
      <trkpt lat="47.18796" lon="-1.58815">
        <ele>54</ele>
        <time>2020-10-17T12:24:14.000Z</time>
      </trkpt>
      <trkpt lat="47.18789" lon="-1.58832">
        <ele>55</ele>
        <time>2020-10-17T12:24:16.000Z</time>
      </trkpt>
      <trkpt lat="47.18784" lon="-1.58851">
        <ele>55</ele>
        <time>2020-10-17T12:24:18.000Z</time>
      </trkpt>
      <trkpt lat="47.18779" lon="-1.5887">
        <ele>55</ele>
        <time>2020-10-17T12:24:20.000Z</time>
      </trkpt>
      <trkpt lat="47.18776" lon="-1.58889">
        <ele>56</ele>
        <time>2020-10-17T12:24:22.000Z</time>
      </trkpt>
      <trkpt lat="47.18774" lon="-1.5891">
        <ele>56</ele>
        <time>2020-10-17T12:24:24.000Z</time>
      </trkpt>
      <trkpt lat="47.18772" lon="-1.5893">
        <ele>56</ele>
        <time>2020-10-17T12:24:26.000Z</time>
      </trkpt>
      <trkpt lat="47.1877" lon="-1.58951">
        <ele>56</ele>
        <time>2020-10-17T12:24:28.000Z</time>
      </trkpt>
      <trkpt lat="47.18768" lon="-1.58971">
        <ele>56</ele>
        <time>2020-10-17T12:24:30.000Z</time>
      </trkpt>
      <trkpt lat="47.18765" lon="-1.58991">
        <ele>56</ele>
        <time>2020-10-17T12:24:32.000Z</time>
      </trkpt>
      <trkpt lat="47.18764" lon="-1.5901">
        <ele>56</ele>
        <time>2020-10-17T12:24:34.000Z</time>
      </trkpt>
      <trkpt lat="47.18761" lon="-1.59031">
        <ele>56</ele>
        <time>2020-10-17T12:24:36.000Z</time>
      </trkpt>
      <trkpt lat="47.18759" lon="-1.59051">
        <ele>57</ele>
        <time>2020-10-17T12:24:38.000Z</time>
      </trkpt>
      <trkpt lat="47.18757" lon="-1.59071">
        <ele>57</ele>
        <time>2020-10-17T12:24:40.000Z</time>
      </trkpt>
      <trkpt lat="47.18754" lon="-1.5909">
        <ele>57</ele>
        <time>2020-10-17T12:24:42.000Z</time>
      </trkpt>
      <trkpt lat="47.18752" lon="-1.5911">
        <ele>57</ele>
        <time>2020-10-17T12:24:44.000Z</time>
      </trkpt>
      <trkpt lat="47.1875" lon="-1.59131">
        <ele>56</ele>
        <time>2020-10-17T12:24:46.000Z</time>
      </trkpt>
      <trkpt lat="47.18748" lon="-1.59151">
        <ele>56</ele>
        <time>2020-10-17T12:24:48.000Z</time>
      </trkpt>
      <trkpt lat="47.18746" lon="-1.59171">
        <ele>55</ele>
        <time>2020-10-17T12:24:50.000Z</time>
      </trkpt>
      <trkpt lat="47.18744" lon="-1.59191">
        <ele>55</ele>
        <time>2020-10-17T12:24:52.000Z</time>
      </trkpt>
      <trkpt lat="47.18741" lon="-1.5921">
        <ele>56</ele>
        <time>2020-10-17T12:24:54.000Z</time>
      </trkpt>
      <trkpt lat="47.18738" lon="-1.59231">
        <ele>56</ele>
        <time>2020-10-17T12:24:56.000Z</time>
      </trkpt>
      <trkpt lat="47.18737" lon="-1.59251">
        <ele>56</ele>
        <time>2020-10-17T12:24:58.000Z</time>
      </trkpt>
      <trkpt lat="47.18735" lon="-1.59272">
        <ele>56</ele>
        <time>2020-10-17T12:25:00.000Z</time>
      </trkpt>
      <trkpt lat="47.18733" lon="-1.59292">
        <ele>56</ele>
        <time>2020-10-17T12:25:02.000Z</time>
      </trkpt>
      <trkpt lat="47.1873" lon="-1.59312">
        <ele>56</ele>
        <time>2020-10-17T12:25:04.000Z</time>
      </trkpt>
      <trkpt lat="47.18728" lon="-1.59332">
        <ele>56</ele>
        <time>2020-10-17T12:25:06.000Z</time>
      </trkpt>
      <trkpt lat="47.18726" lon="-1.59353">
        <ele>56</ele>
        <time>2020-10-17T12:25:08.000Z</time>
      </trkpt>
      <trkpt lat="47.18724" lon="-1.59372">
        <ele>56</ele>
        <time>2020-10-17T12:25:10.000Z</time>
      </trkpt>
      <trkpt lat="47.18721" lon="-1.59391">
        <ele>56</ele>
        <time>2020-10-17T12:25:12.000Z</time>
      </trkpt>
      <trkpt lat="47.18719" lon="-1.59411">
        <ele>56</ele>
        <time>2020-10-17T12:25:14.000Z</time>
      </trkpt>
      <trkpt lat="47.18717" lon="-1.5943">
        <ele>56</ele>
        <time>2020-10-17T12:25:16.000Z</time>
      </trkpt>
      <trkpt lat="47.18714" lon="-1.59451">
        <ele>56</ele>
        <time>2020-10-17T12:25:18.000Z</time>
      </trkpt>
      <trkpt lat="47.18712" lon="-1.5947">
        <ele>56</ele>
        <time>2020-10-17T12:25:20.000Z</time>
      </trkpt>
      <trkpt lat="47.1871" lon="-1.5949">
        <ele>56</ele>
        <time>2020-10-17T12:25:22.000Z</time>
      </trkpt>
      <trkpt lat="47.18707" lon="-1.59511">
        <ele>56</ele>
        <time>2020-10-17T12:25:24.000Z</time>
      </trkpt>
      <trkpt lat="47.18705" lon="-1.59531">
        <ele>56</ele>
        <time>2020-10-17T12:25:26.000Z</time>
      </trkpt>
      <trkpt lat="47.18703" lon="-1.59552">
        <ele>56</ele>
        <time>2020-10-17T12:25:28.000Z</time>
      </trkpt>
      <trkpt lat="47.187" lon="-1.59572">
        <ele>56</ele>
        <time>2020-10-17T12:25:30.000Z</time>
      </trkpt>
      <trkpt lat="47.18698" lon="-1.59592">
        <ele>56</ele>
        <time>2020-10-17T12:25:32.000Z</time>
      </trkpt>
      <trkpt lat="47.18696" lon="-1.59613">
        <ele>56</ele>
        <time>2020-10-17T12:25:34.000Z</time>
      </trkpt>
      <trkpt lat="47.18693" lon="-1.59633">
        <ele>56</ele>
        <time>2020-10-17T12:25:36.000Z</time>
      </trkpt>
      <trkpt lat="47.18691" lon="-1.59653">
        <ele>56</ele>
        <time>2020-10-17T12:25:38.000Z</time>
      </trkpt>
      <trkpt lat="47.18688" lon="-1.59674">
        <ele>56</ele>
        <time>2020-10-17T12:25:40.000Z</time>
      </trkpt>
      <trkpt lat="47.18685" lon="-1.59694">
        <ele>56</ele>
        <time>2020-10-17T12:25:42.000Z</time>
      </trkpt>
      <trkpt lat="47.18683" lon="-1.59714">
        <ele>56</ele>
        <time>2020-10-17T12:25:44.000Z</time>
      </trkpt>
      <trkpt lat="47.18683" lon="-1.59734">
        <ele>56</ele>
        <time>2020-10-17T12:25:46.000Z</time>
      </trkpt>
      <trkpt lat="47.18683" lon="-1.59754">
        <ele>55</ele>
        <time>2020-10-17T12:25:48.000Z</time>
      </trkpt>
      <trkpt lat="47.18686" lon="-1.59773">
        <ele>55</ele>
        <time>2020-10-17T12:25:50.000Z</time>
      </trkpt>
      <trkpt lat="47.18688" lon="-1.59793">
        <ele>56</ele>
        <time>2020-10-17T12:25:52.000Z</time>
      </trkpt>
      <trkpt lat="47.18682" lon="-1.59815">
        <ele>56</ele>
        <time>2020-10-17T12:25:54.000Z</time>
      </trkpt>
      <trkpt lat="47.18673" lon="-1.59835">
        <ele>55</ele>
        <time>2020-10-17T12:25:56.000Z</time>
      </trkpt>
      <trkpt lat="47.1866" lon="-1.59844">
        <ele>55</ele>
        <time>2020-10-17T12:25:58.000Z</time>
      </trkpt>
      <trkpt lat="47.18646" lon="-1.59844">
        <ele>54</ele>
        <time>2020-10-17T12:26:00.000Z</time>
      </trkpt>
      <trkpt lat="47.18634" lon="-1.59835">
        <ele>54</ele>
        <time>2020-10-17T12:26:02.000Z</time>
      </trkpt>
      <trkpt lat="47.18621" lon="-1.59832">
        <ele>54</ele>
        <time>2020-10-17T12:26:04.000Z</time>
      </trkpt>
      <trkpt lat="47.18616" lon="-1.59845">
        <ele>54</ele>
        <time>2020-10-17T12:26:06.000Z</time>
      </trkpt>
      <trkpt lat="47.18623" lon="-1.5986">
        <ele>54</ele>
        <time>2020-10-17T12:26:08.000Z</time>
      </trkpt>
      <trkpt lat="47.18621" lon="-1.59881">
        <ele>54</ele>
        <time>2020-10-17T12:26:10.000Z</time>
      </trkpt>
      <trkpt lat="47.18616" lon="-1.599">
        <ele>54</ele>
        <time>2020-10-17T12:26:12.000Z</time>
      </trkpt>
      <trkpt lat="47.1861" lon="-1.5992">
        <ele>54</ele>
        <time>2020-10-17T12:26:14.000Z</time>
      </trkpt>
      <trkpt lat="47.18605" lon="-1.59939">
        <ele>54</ele>
        <time>2020-10-17T12:26:16.000Z</time>
      </trkpt>
      <trkpt lat="47.186" lon="-1.59958">
        <ele>54</ele>
        <time>2020-10-17T12:26:18.000Z</time>
      </trkpt>
      <trkpt lat="47.18594" lon="-1.59976">
        <ele>53</ele>
        <time>2020-10-17T12:26:20.000Z</time>
      </trkpt>
      <trkpt lat="47.18589" lon="-1.59994">
        <ele>53</ele>
        <time>2020-10-17T12:26:22.000Z</time>
      </trkpt>
      <trkpt lat="47.18583" lon="-1.60012">
        <ele>53</ele>
        <time>2020-10-17T12:26:24.000Z</time>
      </trkpt>
      <trkpt lat="47.18576" lon="-1.6003">
        <ele>54</ele>
        <time>2020-10-17T12:26:26.000Z</time>
      </trkpt>
      <trkpt lat="47.1857" lon="-1.60047">
        <ele>54</ele>
        <time>2020-10-17T12:26:28.000Z</time>
      </trkpt>
      <trkpt lat="47.18564" lon="-1.60064">
        <ele>54</ele>
        <time>2020-10-17T12:26:30.000Z</time>
      </trkpt>
      <trkpt lat="47.18557" lon="-1.6008">
        <ele>54</ele>
        <time>2020-10-17T12:26:32.000Z</time>
      </trkpt>
      <trkpt lat="47.18551" lon="-1.60097">
        <ele>54</ele>
        <time>2020-10-17T12:26:34.000Z</time>
      </trkpt>
      <trkpt lat="47.18545" lon="-1.60112">
        <ele>54</ele>
        <time>2020-10-17T12:26:36.000Z</time>
      </trkpt>
      <trkpt lat="47.18538" lon="-1.60128">
        <ele>55</ele>
        <time>2020-10-17T12:26:38.000Z</time>
      </trkpt>
      <trkpt lat="47.18531" lon="-1.60144">
        <ele>55</ele>
        <time>2020-10-17T12:26:40.000Z</time>
      </trkpt>
      <trkpt lat="47.18523" lon="-1.60158">
        <ele>55</ele>
        <time>2020-10-17T12:26:42.000Z</time>
      </trkpt>
      <trkpt lat="47.18516" lon="-1.60174">
        <ele>55</ele>
        <time>2020-10-17T12:26:44.000Z</time>
      </trkpt>
      <trkpt lat="47.18508" lon="-1.60189">
        <ele>55</ele>
        <time>2020-10-17T12:26:46.000Z</time>
      </trkpt>
      <trkpt lat="47.18501" lon="-1.60204">
        <ele>54</ele>
        <time>2020-10-17T12:26:48.000Z</time>
      </trkpt>
      <trkpt lat="47.18493" lon="-1.60219">
        <ele>54</ele>
        <time>2020-10-17T12:26:50.000Z</time>
      </trkpt>
      <trkpt lat="47.18485" lon="-1.60233">
        <ele>54</ele>
        <time>2020-10-17T12:26:52.000Z</time>
      </trkpt>
      <trkpt lat="47.18478" lon="-1.60248">
        <ele>54</ele>
        <time>2020-10-17T12:26:54.000Z</time>
      </trkpt>
      <trkpt lat="47.1847" lon="-1.60264">
        <ele>55</ele>
        <time>2020-10-17T12:26:56.000Z</time>
      </trkpt>
      <trkpt lat="47.18461" lon="-1.60278">
        <ele>55</ele>
        <time>2020-10-17T12:26:58.000Z</time>
      </trkpt>
      <trkpt lat="47.18453" lon="-1.60293">
        <ele>55</ele>
        <time>2020-10-17T12:27:00.000Z</time>
      </trkpt>
      <trkpt lat="47.18445" lon="-1.60307">
        <ele>55</ele>
        <time>2020-10-17T12:27:02.000Z</time>
      </trkpt>
      <trkpt lat="47.18436" lon="-1.60321">
        <ele>55</ele>
        <time>2020-10-17T12:27:04.000Z</time>
      </trkpt>
      <trkpt lat="47.18428" lon="-1.60336">
        <ele>55</ele>
        <time>2020-10-17T12:27:06.000Z</time>
      </trkpt>
      <trkpt lat="47.18419" lon="-1.60349">
        <ele>55</ele>
        <time>2020-10-17T12:27:08.000Z</time>
      </trkpt>
      <trkpt lat="47.1841" lon="-1.60362">
        <ele>55</ele>
        <time>2020-10-17T12:27:10.000Z</time>
      </trkpt>
      <trkpt lat="47.18401" lon="-1.60375">
        <ele>55</ele>
        <time>2020-10-17T12:27:12.000Z</time>
      </trkpt>
      <trkpt lat="47.18391" lon="-1.60388">
        <ele>55</ele>
        <time>2020-10-17T12:27:14.000Z</time>
      </trkpt>
      <trkpt lat="47.18381" lon="-1.60401">
        <ele>56</ele>
        <time>2020-10-17T12:27:16.000Z</time>
      </trkpt>
      <trkpt lat="47.18371" lon="-1.60413">
        <ele>56</ele>
        <time>2020-10-17T12:27:18.000Z</time>
      </trkpt>
      <trkpt lat="47.18362" lon="-1.60425">
        <ele>56</ele>
        <time>2020-10-17T12:27:20.000Z</time>
      </trkpt>
      <trkpt lat="47.18352" lon="-1.60437">
        <ele>56</ele>
        <time>2020-10-17T12:27:22.000Z</time>
      </trkpt>
      <trkpt lat="47.18342" lon="-1.6045">
        <ele>56</ele>
        <time>2020-10-17T12:27:24.000Z</time>
      </trkpt>
      <trkpt lat="47.18331" lon="-1.60461">
        <ele>55</ele>
        <time>2020-10-17T12:27:26.000Z</time>
      </trkpt>
      <trkpt lat="47.18321" lon="-1.60473">
        <ele>55</ele>
        <time>2020-10-17T12:27:28.000Z</time>
      </trkpt>
      <trkpt lat="47.18311" lon="-1.60484">
        <ele>55</ele>
        <time>2020-10-17T12:27:30.000Z</time>
      </trkpt>
      <trkpt lat="47.183" lon="-1.60495">
        <ele>54</ele>
        <time>2020-10-17T12:27:32.000Z</time>
      </trkpt>
      <trkpt lat="47.1829" lon="-1.60506">
        <ele>54</ele>
        <time>2020-10-17T12:27:34.000Z</time>
      </trkpt>
      <trkpt lat="47.1828" lon="-1.60518">
        <ele>53</ele>
        <time>2020-10-17T12:27:36.000Z</time>
      </trkpt>
      <trkpt lat="47.18269" lon="-1.60529">
        <ele>53</ele>
        <time>2020-10-17T12:27:38.000Z</time>
      </trkpt>
      <trkpt lat="47.18259" lon="-1.60539">
        <ele>53</ele>
        <time>2020-10-17T12:27:40.000Z</time>
      </trkpt>
      <trkpt lat="47.18249" lon="-1.60548">
        <ele>53</ele>
        <time>2020-10-17T12:27:42.000Z</time>
      </trkpt>
      <trkpt lat="47.18238" lon="-1.60556">
        <ele>53</ele>
        <time>2020-10-17T12:27:44.000Z</time>
      </trkpt>
      <trkpt lat="47.18227" lon="-1.60563">
        <ele>53</ele>
        <time>2020-10-17T12:27:46.000Z</time>
      </trkpt>
      <trkpt lat="47.18216" lon="-1.60569">
        <ele>53</ele>
        <time>2020-10-17T12:27:48.000Z</time>
      </trkpt>
      <trkpt lat="47.18206" lon="-1.60573">
        <ele>53</ele>
        <time>2020-10-17T12:27:50.000Z</time>
      </trkpt>
      <trkpt lat="47.18196" lon="-1.60576">
        <ele>52</ele>
        <time>2020-10-17T12:27:52.000Z</time>
      </trkpt>
      <trkpt lat="47.18191" lon="-1.60592">
        <ele>53</ele>
        <time>2020-10-17T12:27:55.000Z</time>
      </trkpt>
      <trkpt lat="47.18182" lon="-1.60602">
        <ele>52</ele>
        <time>2020-10-17T12:27:57.000Z</time>
      </trkpt>
      <trkpt lat="47.18168" lon="-1.60604">
        <ele>51</ele>
        <time>2020-10-17T12:27:59.000Z</time>
      </trkpt>
      <trkpt lat="47.18154" lon="-1.60605">
        <ele>51</ele>
        <time>2020-10-17T12:28:01.000Z</time>
      </trkpt>
      <trkpt lat="47.18141" lon="-1.60604">
        <ele>50</ele>
        <time>2020-10-17T12:28:03.000Z</time>
      </trkpt>
      <trkpt lat="47.18129" lon="-1.60602">
        <ele>50</ele>
        <time>2020-10-17T12:28:05.000Z</time>
      </trkpt>
      <trkpt lat="47.18115" lon="-1.60598">
        <ele>50</ele>
        <time>2020-10-17T12:28:07.000Z</time>
      </trkpt>
      <trkpt lat="47.18102" lon="-1.60592">
        <ele>51</ele>
        <time>2020-10-17T12:28:09.000Z</time>
      </trkpt>
      <trkpt lat="47.18088" lon="-1.60585">
        <ele>52</ele>
        <time>2020-10-17T12:28:11.000Z</time>
      </trkpt>
      <trkpt lat="47.18076" lon="-1.60577">
        <ele>52</ele>
        <time>2020-10-17T12:28:13.000Z</time>
      </trkpt>
      <trkpt lat="47.18064" lon="-1.6057">
        <ele>53</ele>
        <time>2020-10-17T12:28:15.000Z</time>
      </trkpt>
      <trkpt lat="47.18053" lon="-1.60564">
        <ele>53</ele>
        <time>2020-10-17T12:28:17.000Z</time>
      </trkpt>
      <trkpt lat="47.18041" lon="-1.60559">
        <ele>53</ele>
        <time>2020-10-17T12:28:19.000Z</time>
      </trkpt>
      <trkpt lat="47.18029" lon="-1.60553">
        <ele>54</ele>
        <time>2020-10-17T12:28:21.000Z</time>
      </trkpt>
      <trkpt lat="47.18017" lon="-1.60552">
        <ele>54</ele>
        <time>2020-10-17T12:28:23.000Z</time>
      </trkpt>
      <trkpt lat="47.18004" lon="-1.60554">
        <ele>54</ele>
        <time>2020-10-17T12:28:25.000Z</time>
      </trkpt>
      <trkpt lat="47.17993" lon="-1.60558">
        <ele>54</ele>
        <time>2020-10-17T12:28:27.000Z</time>
      </trkpt>
      <trkpt lat="47.17982" lon="-1.60562">
        <ele>55</ele>
        <time>2020-10-17T12:28:29.000Z</time>
      </trkpt>
      <trkpt lat="47.1797" lon="-1.60568">
        <ele>55</ele>
        <time>2020-10-17T12:28:31.000Z</time>
      </trkpt>
      <trkpt lat="47.17959" lon="-1.60574">
        <ele>55</ele>
        <time>2020-10-17T12:28:33.000Z</time>
      </trkpt>
      <trkpt lat="47.17948" lon="-1.60582">
        <ele>55</ele>
        <time>2020-10-17T12:28:35.000Z</time>
      </trkpt>
      <trkpt lat="47.17937" lon="-1.60587">
        <ele>55</ele>
        <time>2020-10-17T12:28:37.000Z</time>
      </trkpt>
      <trkpt lat="47.17928" lon="-1.6059">
        <ele>55</ele>
        <time>2020-10-17T12:28:39.000Z</time>
      </trkpt>
      <trkpt lat="47.17914" lon="-1.6059">
        <ele>54</ele>
        <time>2020-10-17T12:28:42.000Z</time>
      </trkpt>
      <trkpt lat="47.17907" lon="-1.60603">
        <ele>53</ele>
        <time>2020-10-17T12:28:44.000Z</time>
      </trkpt>
      <trkpt lat="47.17902" lon="-1.60621">
        <ele>53</ele>
        <time>2020-10-17T12:28:46.000Z</time>
      </trkpt>
      <trkpt lat="47.17896" lon="-1.6064">
        <ele>53</ele>
        <time>2020-10-17T12:28:48.000Z</time>
      </trkpt>
      <trkpt lat="47.17889" lon="-1.60659">
        <ele>54</ele>
        <time>2020-10-17T12:28:50.000Z</time>
      </trkpt>
      <trkpt lat="47.17883" lon="-1.60678">
        <ele>54</ele>
        <time>2020-10-17T12:28:52.000Z</time>
      </trkpt>
      <trkpt lat="47.17878" lon="-1.60698">
        <ele>54</ele>
        <time>2020-10-17T12:28:54.000Z</time>
      </trkpt>
      <trkpt lat="47.17874" lon="-1.60717">
        <ele>54</ele>
        <time>2020-10-17T12:28:56.000Z</time>
      </trkpt>
      <trkpt lat="47.17869" lon="-1.60735">
        <ele>54</ele>
        <time>2020-10-17T12:28:58.000Z</time>
      </trkpt>
      <trkpt lat="47.17865" lon="-1.60754">
        <ele>54</ele>
        <time>2020-10-17T12:29:00.000Z</time>
      </trkpt>
      <trkpt lat="47.17861" lon="-1.60771">
        <ele>54</ele>
        <time>2020-10-17T12:29:02.000Z</time>
      </trkpt>
      <trkpt lat="47.17857" lon="-1.60788">
        <ele>55</ele>
        <time>2020-10-17T12:29:04.000Z</time>
      </trkpt>
      <trkpt lat="47.17853" lon="-1.60805">
        <ele>55</ele>
        <time>2020-10-17T12:29:06.000Z</time>
      </trkpt>
      <trkpt lat="47.17849" lon="-1.60822">
        <ele>55</ele>
        <time>2020-10-17T12:29:08.000Z</time>
      </trkpt>
      <trkpt lat="47.17844" lon="-1.60839">
        <ele>55</ele>
        <time>2020-10-17T12:29:10.000Z</time>
      </trkpt>
      <trkpt lat="47.17838" lon="-1.60854">
        <ele>55</ele>
        <time>2020-10-17T12:29:12.000Z</time>
      </trkpt>
      <trkpt lat="47.1783" lon="-1.60869">
        <ele>55</ele>
        <time>2020-10-17T12:29:14.000Z</time>
      </trkpt>
      <trkpt lat="47.17822" lon="-1.60882">
        <ele>54</ele>
        <time>2020-10-17T12:29:16.000Z</time>
      </trkpt>
      <trkpt lat="47.17812" lon="-1.60894">
        <ele>55</ele>
        <time>2020-10-17T12:29:18.000Z</time>
      </trkpt>
      <trkpt lat="47.17801" lon="-1.60902">
        <ele>54</ele>
        <time>2020-10-17T12:29:20.000Z</time>
      </trkpt>
      <trkpt lat="47.17789" lon="-1.60911">
        <ele>54</ele>
        <time>2020-10-17T12:29:22.000Z</time>
      </trkpt>
      <trkpt lat="47.17778" lon="-1.60919">
        <ele>53</ele>
        <time>2020-10-17T12:29:24.000Z</time>
      </trkpt>
      <trkpt lat="47.17766" lon="-1.60928">
        <ele>53</ele>
        <time>2020-10-17T12:29:26.000Z</time>
      </trkpt>
      <trkpt lat="47.17755" lon="-1.60936">
        <ele>53</ele>
        <time>2020-10-17T12:29:28.000Z</time>
      </trkpt>
      <trkpt lat="47.17743" lon="-1.60945">
        <ele>53</ele>
        <time>2020-10-17T12:29:30.000Z</time>
      </trkpt>
      <trkpt lat="47.17731" lon="-1.60953">
        <ele>53</ele>
        <time>2020-10-17T12:29:32.000Z</time>
      </trkpt>
      <trkpt lat="47.17719" lon="-1.60961">
        <ele>53</ele>
        <time>2020-10-17T12:29:34.000Z</time>
      </trkpt>
      <trkpt lat="47.17707" lon="-1.60968">
        <ele>53</ele>
        <time>2020-10-17T12:29:36.000Z</time>
      </trkpt>
      <trkpt lat="47.17695" lon="-1.60974">
        <ele>53</ele>
        <time>2020-10-17T12:29:38.000Z</time>
      </trkpt>
      <trkpt lat="47.17683" lon="-1.60974">
        <ele>52</ele>
        <time>2020-10-17T12:29:40.000Z</time>
      </trkpt>
      <trkpt lat="47.1767" lon="-1.60971">
        <ele>51</ele>
        <time>2020-10-17T12:29:42.000Z</time>
      </trkpt>
      <trkpt lat="47.17657" lon="-1.60976">
        <ele>51</ele>
        <time>2020-10-17T12:29:44.000Z</time>
      </trkpt>
      <trkpt lat="47.17646" lon="-1.60987">
        <ele>51</ele>
        <time>2020-10-17T12:29:46.000Z</time>
      </trkpt>
      <trkpt lat="47.17635" lon="-1.60997">
        <ele>51</ele>
        <time>2020-10-17T12:29:48.000Z</time>
      </trkpt>
      <trkpt lat="47.17623" lon="-1.61007">
        <ele>51</ele>
        <time>2020-10-17T12:29:50.000Z</time>
      </trkpt>
      <trkpt lat="47.17612" lon="-1.61016">
        <ele>51</ele>
        <time>2020-10-17T12:29:52.000Z</time>
      </trkpt>
      <trkpt lat="47.17601" lon="-1.61026">
        <ele>51</ele>
        <time>2020-10-17T12:29:54.000Z</time>
      </trkpt>
      <trkpt lat="47.17591" lon="-1.61035">
        <ele>51</ele>
        <time>2020-10-17T12:29:56.000Z</time>
      </trkpt>
      <trkpt lat="47.1758" lon="-1.61044">
        <ele>52</ele>
        <time>2020-10-17T12:29:58.000Z</time>
      </trkpt>
      <trkpt lat="47.1757" lon="-1.61053">
        <ele>52</ele>
        <time>2020-10-17T12:30:00.000Z</time>
      </trkpt>
      <trkpt lat="47.17559" lon="-1.61062">
        <ele>51</ele>
        <time>2020-10-17T12:30:02.000Z</time>
      </trkpt>
      <trkpt lat="47.17548" lon="-1.61072">
        <ele>51</ele>
        <time>2020-10-17T12:30:04.000Z</time>
      </trkpt>
      <trkpt lat="47.17537" lon="-1.61081">
        <ele>51</ele>
        <time>2020-10-17T12:30:06.000Z</time>
      </trkpt>
      <trkpt lat="47.17525" lon="-1.61091">
        <ele>51</ele>
        <time>2020-10-17T12:30:08.000Z</time>
      </trkpt>
      <trkpt lat="47.17515" lon="-1.611">
        <ele>52</ele>
        <time>2020-10-17T12:30:10.000Z</time>
      </trkpt>
      <trkpt lat="47.17503" lon="-1.61105">
        <ele>52</ele>
        <time>2020-10-17T12:30:12.000Z</time>
      </trkpt>
      <trkpt lat="47.17491" lon="-1.61106">
        <ele>52</ele>
        <time>2020-10-17T12:30:14.000Z</time>
      </trkpt>
      <trkpt lat="47.1748" lon="-1.61105">
        <ele>52</ele>
        <time>2020-10-17T12:30:16.000Z</time>
      </trkpt>
      <trkpt lat="47.17469" lon="-1.61097">
        <ele>53</ele>
        <time>2020-10-17T12:30:18.000Z</time>
      </trkpt>
      <trkpt lat="47.1746" lon="-1.61088">
        <ele>53</ele>
        <time>2020-10-17T12:30:20.000Z</time>
      </trkpt>
      <trkpt lat="47.17451" lon="-1.61077">
        <ele>54</ele>
        <time>2020-10-17T12:30:22.000Z</time>
      </trkpt>
      <trkpt lat="47.17445" lon="-1.61065">
        <ele>54</ele>
        <time>2020-10-17T12:30:24.000Z</time>
      </trkpt>
      <trkpt lat="47.17439" lon="-1.61052">
        <ele>54</ele>
        <time>2020-10-17T12:30:26.000Z</time>
      </trkpt>
      <trkpt lat="47.17435" lon="-1.61038">
        <ele>54</ele>
        <time>2020-10-17T12:30:28.000Z</time>
      </trkpt>
      <trkpt lat="47.1743" lon="-1.61021">
        <ele>55</ele>
        <time>2020-10-17T12:30:31.000Z</time>
      </trkpt>
      <trkpt lat="47.17421" lon="-1.6103">
        <ele>55</ele>
        <time>2020-10-17T12:30:35.000Z</time>
      </trkpt>
      <trkpt lat="47.17424" lon="-1.61045">
        <ele>55</ele>
        <time>2020-10-17T12:30:37.000Z</time>
      </trkpt>
      <trkpt lat="47.17429" lon="-1.61057">
        <ele>56</ele>
        <time>2020-10-17T12:30:39.000Z</time>
      </trkpt>
      <trkpt lat="47.17435" lon="-1.61071">
        <ele>57</ele>
        <time>2020-10-17T12:30:41.000Z</time>
      </trkpt>
      <trkpt lat="47.1744" lon="-1.61085">
        <ele>57</ele>
        <time>2020-10-17T12:30:43.000Z</time>
      </trkpt>
      <trkpt lat="47.17446" lon="-1.611">
        <ele>57</ele>
        <time>2020-10-17T12:30:45.000Z</time>
      </trkpt>
      <trkpt lat="47.17452" lon="-1.61114">
        <ele>58</ele>
        <time>2020-10-17T12:30:47.000Z</time>
      </trkpt>
      <trkpt lat="47.17458" lon="-1.61127">
        <ele>58</ele>
        <time>2020-10-17T12:30:49.000Z</time>
      </trkpt>
      <trkpt lat="47.17463" lon="-1.6114">
        <ele>58</ele>
        <time>2020-10-17T12:30:51.000Z</time>
      </trkpt>
      <trkpt lat="47.17469" lon="-1.61152">
        <ele>58</ele>
        <time>2020-10-17T12:30:53.000Z</time>
      </trkpt>
      <trkpt lat="47.17474" lon="-1.61166">
        <ele>58</ele>
        <time>2020-10-17T12:30:55.000Z</time>
      </trkpt>
      <trkpt lat="47.1748" lon="-1.6118">
        <ele>58</ele>
        <time>2020-10-17T12:30:57.000Z</time>
      </trkpt>
      <trkpt lat="47.17486" lon="-1.61194">
        <ele>58</ele>
        <time>2020-10-17T12:30:59.000Z</time>
      </trkpt>
      <trkpt lat="47.17491" lon="-1.61209">
        <ele>58</ele>
        <time>2020-10-17T12:31:01.000Z</time>
      </trkpt>
      <trkpt lat="47.17496" lon="-1.61223">
        <ele>59</ele>
        <time>2020-10-17T12:31:03.000Z</time>
      </trkpt>
      <trkpt lat="47.17503" lon="-1.61237">
        <ele>59</ele>
        <time>2020-10-17T12:31:05.000Z</time>
      </trkpt>
      <trkpt lat="47.1751" lon="-1.6125">
        <ele>58</ele>
        <time>2020-10-17T12:31:07.000Z</time>
      </trkpt>
      <trkpt lat="47.17518" lon="-1.61264">
        <ele>58</ele>
        <time>2020-10-17T12:31:09.000Z</time>
      </trkpt>
      <trkpt lat="47.17526" lon="-1.61276">
        <ele>58</ele>
        <time>2020-10-17T12:31:11.000Z</time>
      </trkpt>
      <trkpt lat="47.17536" lon="-1.61285">
        <ele>58</ele>
        <time>2020-10-17T12:31:13.000Z</time>
      </trkpt>
      <trkpt lat="47.17547" lon="-1.61291">
        <ele>59</ele>
        <time>2020-10-17T12:31:15.000Z</time>
      </trkpt>
      <trkpt lat="47.17558" lon="-1.61301">
        <ele>58</ele>
        <time>2020-10-17T12:31:17.000Z</time>
      </trkpt>
      <trkpt lat="47.17563" lon="-1.61319">
        <ele>58</ele>
        <time>2020-10-17T12:31:19.000Z</time>
      </trkpt>
      <trkpt lat="47.17559" lon="-1.61341">
        <ele>59</ele>
        <time>2020-10-17T12:31:21.000Z</time>
      </trkpt>
      <trkpt lat="47.1755" lon="-1.61357">
        <ele>59</ele>
        <time>2020-10-17T12:31:23.000Z</time>
      </trkpt>
      <trkpt lat="47.17539" lon="-1.61366">
        <ele>58</ele>
        <time>2020-10-17T12:31:25.000Z</time>
      </trkpt>
      <trkpt lat="47.17531" lon="-1.61381">
        <ele>59</ele>
        <time>2020-10-17T12:31:27.000Z</time>
      </trkpt>
      <trkpt lat="47.17526" lon="-1.61397">
        <ele>59</ele>
        <time>2020-10-17T12:31:29.000Z</time>
      </trkpt>
      <trkpt lat="47.17521" lon="-1.61413">
        <ele>60</ele>
        <time>2020-10-17T12:31:31.000Z</time>
      </trkpt>
      <trkpt lat="47.17518" lon="-1.61429">
        <ele>61</ele>
        <time>2020-10-17T12:31:33.000Z</time>
      </trkpt>
      <trkpt lat="47.17515" lon="-1.61445">
        <ele>62</ele>
        <time>2020-10-17T12:31:35.000Z</time>
      </trkpt>
      <trkpt lat="47.17509" lon="-1.61457">
        <ele>62</ele>
        <time>2020-10-17T12:31:37.000Z</time>
      </trkpt>
      <trkpt lat="47.17498" lon="-1.61466">
        <ele>63</ele>
        <time>2020-10-17T12:31:39.000Z</time>
      </trkpt>
      <trkpt lat="47.17487" lon="-1.6147">
        <ele>62</ele>
        <time>2020-10-17T12:31:41.000Z</time>
      </trkpt>
      <trkpt lat="47.17475" lon="-1.61474">
        <ele>63</ele>
        <time>2020-10-17T12:31:43.000Z</time>
      </trkpt>
      <trkpt lat="47.17464" lon="-1.6148">
        <ele>63</ele>
        <time>2020-10-17T12:31:45.000Z</time>
      </trkpt>
      <trkpt lat="47.17454" lon="-1.61487">
        <ele>64</ele>
        <time>2020-10-17T12:31:47.000Z</time>
      </trkpt>
      <trkpt lat="47.17443" lon="-1.61492">
        <ele>64</ele>
        <time>2020-10-17T12:31:49.000Z</time>
      </trkpt>
      <trkpt lat="47.17433" lon="-1.61498">
        <ele>65</ele>
        <time>2020-10-17T12:31:51.000Z</time>
      </trkpt>
      <trkpt lat="47.17424" lon="-1.61505">
        <ele>65</ele>
        <time>2020-10-17T12:31:53.000Z</time>
      </trkpt>
      <trkpt lat="47.17414" lon="-1.61512">
        <ele>65</ele>
        <time>2020-10-17T12:31:55.000Z</time>
      </trkpt>
      <trkpt lat="47.17404" lon="-1.6152">
        <ele>66</ele>
        <time>2020-10-17T12:31:57.000Z</time>
      </trkpt>
      <trkpt lat="47.17394" lon="-1.61526">
        <ele>66</ele>
        <time>2020-10-17T12:31:59.000Z</time>
      </trkpt>
      <trkpt lat="47.17385" lon="-1.61534">
        <ele>67</ele>
        <time>2020-10-17T12:32:01.000Z</time>
      </trkpt>
      <trkpt lat="47.17376" lon="-1.61543">
        <ele>68</ele>
        <time>2020-10-17T12:32:03.000Z</time>
      </trkpt>
      <trkpt lat="47.17367" lon="-1.61551">
        <ele>68</ele>
        <time>2020-10-17T12:32:05.000Z</time>
      </trkpt>
      <trkpt lat="47.17359" lon="-1.61561">
        <ele>69</ele>
        <time>2020-10-17T12:32:07.000Z</time>
      </trkpt>
      <trkpt lat="47.17351" lon="-1.6157">
        <ele>70</ele>
        <time>2020-10-17T12:32:09.000Z</time>
      </trkpt>
      <trkpt lat="47.17343" lon="-1.61581">
        <ele>70</ele>
        <time>2020-10-17T12:32:11.000Z</time>
      </trkpt>
      <trkpt lat="47.17335" lon="-1.6159">
        <ele>70</ele>
        <time>2020-10-17T12:32:13.000Z</time>
      </trkpt>
      <trkpt lat="47.17326" lon="-1.61601">
        <ele>71</ele>
        <time>2020-10-17T12:32:15.000Z</time>
      </trkpt>
      <trkpt lat="47.17318" lon="-1.61612">
        <ele>71</ele>
        <time>2020-10-17T12:32:17.000Z</time>
      </trkpt>
      <trkpt lat="47.1731" lon="-1.61624">
        <ele>71</ele>
        <time>2020-10-17T12:32:19.000Z</time>
      </trkpt>
      <trkpt lat="47.17302" lon="-1.61635">
        <ele>71</ele>
        <time>2020-10-17T12:32:21.000Z</time>
      </trkpt>
      <trkpt lat="47.17295" lon="-1.61647">
        <ele>71</ele>
        <time>2020-10-17T12:32:23.000Z</time>
      </trkpt>
      <trkpt lat="47.17287" lon="-1.61661">
        <ele>71</ele>
        <time>2020-10-17T12:32:25.000Z</time>
      </trkpt>
      <trkpt lat="47.17281" lon="-1.61675">
        <ele>70</ele>
        <time>2020-10-17T12:32:27.000Z</time>
      </trkpt>
      <trkpt lat="47.17274" lon="-1.61688">
        <ele>70</ele>
        <time>2020-10-17T12:32:29.000Z</time>
      </trkpt>
      <trkpt lat="47.17267" lon="-1.61702">
        <ele>70</ele>
        <time>2020-10-17T12:32:31.000Z</time>
      </trkpt>
      <trkpt lat="47.1726" lon="-1.61717">
        <ele>70</ele>
        <time>2020-10-17T12:32:33.000Z</time>
      </trkpt>
      <trkpt lat="47.17253" lon="-1.6173">
        <ele>70</ele>
        <time>2020-10-17T12:32:35.000Z</time>
      </trkpt>
      <trkpt lat="47.17247" lon="-1.61746">
        <ele>69</ele>
        <time>2020-10-17T12:32:37.000Z</time>
      </trkpt>
      <trkpt lat="47.17245" lon="-1.61763">
        <ele>69</ele>
        <time>2020-10-17T12:32:39.000Z</time>
      </trkpt>
      <trkpt lat="47.17241" lon="-1.61779">
        <ele>69</ele>
        <time>2020-10-17T12:32:41.000Z</time>
      </trkpt>
      <trkpt lat="47.17232" lon="-1.6179">
        <ele>68</ele>
        <time>2020-10-17T12:32:43.000Z</time>
      </trkpt>
      <trkpt lat="47.17221" lon="-1.61799">
        <ele>68</ele>
        <time>2020-10-17T12:32:45.000Z</time>
      </trkpt>
      <trkpt lat="47.17212" lon="-1.61807">
        <ele>68</ele>
        <time>2020-10-17T12:32:47.000Z</time>
      </trkpt>
      <trkpt lat="47.17202" lon="-1.61815">
        <ele>67</ele>
        <time>2020-10-17T12:32:49.000Z</time>
      </trkpt>
      <trkpt lat="47.17192" lon="-1.61824">
        <ele>67</ele>
        <time>2020-10-17T12:32:51.000Z</time>
      </trkpt>
      <trkpt lat="47.17182" lon="-1.61832">
        <ele>67</ele>
        <time>2020-10-17T12:32:53.000Z</time>
      </trkpt>
      <trkpt lat="47.17173" lon="-1.6184">
        <ele>67</ele>
        <time>2020-10-17T12:32:55.000Z</time>
      </trkpt>
      <trkpt lat="47.17163" lon="-1.6185">
        <ele>66</ele>
        <time>2020-10-17T12:32:57.000Z</time>
      </trkpt>
      <trkpt lat="47.17152" lon="-1.61859">
        <ele>67</ele>
        <time>2020-10-17T12:32:59.000Z</time>
      </trkpt>
      <trkpt lat="47.17141" lon="-1.61868">
        <ele>66</ele>
        <time>2020-10-17T12:33:01.000Z</time>
      </trkpt>
      <trkpt lat="47.17131" lon="-1.61878">
        <ele>66</ele>
        <time>2020-10-17T12:33:03.000Z</time>
      </trkpt>
      <trkpt lat="47.1712" lon="-1.61889">
        <ele>67</ele>
        <time>2020-10-17T12:33:05.000Z</time>
      </trkpt>
      <trkpt lat="47.17109" lon="-1.619">
        <ele>67</ele>
        <time>2020-10-17T12:33:07.000Z</time>
      </trkpt>
      <trkpt lat="47.17098" lon="-1.61911">
        <ele>67</ele>
        <time>2020-10-17T12:33:09.000Z</time>
      </trkpt>
      <trkpt lat="47.17087" lon="-1.61921">
        <ele>67</ele>
        <time>2020-10-17T12:33:11.000Z</time>
      </trkpt>
      <trkpt lat="47.17078" lon="-1.61932">
        <ele>67</ele>
        <time>2020-10-17T12:33:13.000Z</time>
      </trkpt>
      <trkpt lat="47.17068" lon="-1.61941">
        <ele>67</ele>
        <time>2020-10-17T12:33:15.000Z</time>
      </trkpt>
      <trkpt lat="47.17058" lon="-1.61953">
        <ele>67</ele>
        <time>2020-10-17T12:33:17.000Z</time>
      </trkpt>
      <trkpt lat="47.17048" lon="-1.61967">
        <ele>67</ele>
        <time>2020-10-17T12:33:19.000Z</time>
      </trkpt>
      <trkpt lat="47.17039" lon="-1.6198">
        <ele>67</ele>
        <time>2020-10-17T12:33:21.000Z</time>
      </trkpt>
      <trkpt lat="47.1703" lon="-1.61994">
        <ele>67</ele>
        <time>2020-10-17T12:33:23.000Z</time>
      </trkpt>
      <trkpt lat="47.1702" lon="-1.62008">
        <ele>67</ele>
        <time>2020-10-17T12:33:25.000Z</time>
      </trkpt>
      <trkpt lat="47.17011" lon="-1.62022">
        <ele>67</ele>
        <time>2020-10-17T12:33:27.000Z</time>
      </trkpt>
      <trkpt lat="47.17002" lon="-1.62037">
        <ele>67</ele>
        <time>2020-10-17T12:33:29.000Z</time>
      </trkpt>
      <trkpt lat="47.16994" lon="-1.62052">
        <ele>67</ele>
        <time>2020-10-17T12:33:31.000Z</time>
      </trkpt>
      <trkpt lat="47.16985" lon="-1.62067">
        <ele>67</ele>
        <time>2020-10-17T12:33:33.000Z</time>
      </trkpt>
      <trkpt lat="47.16977" lon="-1.62082">
        <ele>67</ele>
        <time>2020-10-17T12:33:35.000Z</time>
      </trkpt>
      <trkpt lat="47.16969" lon="-1.62095">
        <ele>67</ele>
        <time>2020-10-17T12:33:37.000Z</time>
      </trkpt>
      <trkpt lat="47.16961" lon="-1.6211">
        <ele>68</ele>
        <time>2020-10-17T12:33:39.000Z</time>
      </trkpt>
      <trkpt lat="47.16953" lon="-1.62125">
        <ele>68</ele>
        <time>2020-10-17T12:33:41.000Z</time>
      </trkpt>
      <trkpt lat="47.16946" lon="-1.62141">
        <ele>68</ele>
        <time>2020-10-17T12:33:43.000Z</time>
      </trkpt>
      <trkpt lat="47.16938" lon="-1.62156">
        <ele>68</ele>
        <time>2020-10-17T12:33:45.000Z</time>
      </trkpt>
      <trkpt lat="47.16931" lon="-1.62171">
        <ele>68</ele>
        <time>2020-10-17T12:33:47.000Z</time>
      </trkpt>
      <trkpt lat="47.16923" lon="-1.62186">
        <ele>68</ele>
        <time>2020-10-17T12:33:49.000Z</time>
      </trkpt>
      <trkpt lat="47.16915" lon="-1.62201">
        <ele>68</ele>
        <time>2020-10-17T12:33:51.000Z</time>
      </trkpt>
      <trkpt lat="47.16906" lon="-1.62215">
        <ele>68</ele>
        <time>2020-10-17T12:33:53.000Z</time>
      </trkpt>
      <trkpt lat="47.16896" lon="-1.62227">
        <ele>68</ele>
        <time>2020-10-17T12:33:55.000Z</time>
      </trkpt>
      <trkpt lat="47.16886" lon="-1.62239">
        <ele>68</ele>
        <time>2020-10-17T12:33:57.000Z</time>
      </trkpt>
      <trkpt lat="47.16876" lon="-1.6225">
        <ele>67</ele>
        <time>2020-10-17T12:33:59.000Z</time>
      </trkpt>
      <trkpt lat="47.16867" lon="-1.62262">
        <ele>68</ele>
        <time>2020-10-17T12:34:01.000Z</time>
      </trkpt>
      <trkpt lat="47.16858" lon="-1.62276">
        <ele>67</ele>
        <time>2020-10-17T12:34:03.000Z</time>
      </trkpt>
      <trkpt lat="47.16848" lon="-1.62288">
        <ele>67</ele>
        <time>2020-10-17T12:34:05.000Z</time>
      </trkpt>
      <trkpt lat="47.16838" lon="-1.62301">
        <ele>67</ele>
        <time>2020-10-17T12:34:07.000Z</time>
      </trkpt>
      <trkpt lat="47.16828" lon="-1.62313">
        <ele>66</ele>
        <time>2020-10-17T12:34:09.000Z</time>
      </trkpt>
      <trkpt lat="47.16816" lon="-1.62321">
        <ele>66</ele>
        <time>2020-10-17T12:34:11.000Z</time>
      </trkpt>
      <trkpt lat="47.16804" lon="-1.62328">
        <ele>66</ele>
        <time>2020-10-17T12:34:13.000Z</time>
      </trkpt>
      <trkpt lat="47.16792" lon="-1.62335">
        <ele>66</ele>
        <time>2020-10-17T12:34:15.000Z</time>
      </trkpt>
      <trkpt lat="47.1678" lon="-1.62342">
        <ele>66</ele>
        <time>2020-10-17T12:34:17.000Z</time>
      </trkpt>
      <trkpt lat="47.16768" lon="-1.62349">
        <ele>66</ele>
        <time>2020-10-17T12:34:19.000Z</time>
      </trkpt>
      <trkpt lat="47.16756" lon="-1.62359">
        <ele>67</ele>
        <time>2020-10-17T12:34:21.000Z</time>
      </trkpt>
      <trkpt lat="47.16745" lon="-1.62372">
        <ele>67</ele>
        <time>2020-10-17T12:34:23.000Z</time>
      </trkpt>
      <trkpt lat="47.16737" lon="-1.62389">
        <ele>67</ele>
        <time>2020-10-17T12:34:25.000Z</time>
      </trkpt>
      <trkpt lat="47.16732" lon="-1.62405">
        <ele>67</ele>
        <time>2020-10-17T12:34:27.000Z</time>
      </trkpt>
      <trkpt lat="47.1673" lon="-1.62424">
        <ele>67</ele>
        <time>2020-10-17T12:34:29.000Z</time>
      </trkpt>
      <trkpt lat="47.16728" lon="-1.62442">
        <ele>67</ele>
        <time>2020-10-17T12:34:31.000Z</time>
      </trkpt>
      <trkpt lat="47.16723" lon="-1.62459">
        <ele>67</ele>
        <time>2020-10-17T12:34:33.000Z</time>
      </trkpt>
      <trkpt lat="47.16718" lon="-1.62477">
        <ele>67</ele>
        <time>2020-10-17T12:34:35.000Z</time>
      </trkpt>
      <trkpt lat="47.16719" lon="-1.62493">
        <ele>66</ele>
        <time>2020-10-17T12:34:37.000Z</time>
      </trkpt>
      <trkpt lat="47.16731" lon="-1.62498">
        <ele>66</ele>
        <time>2020-10-17T12:34:39.000Z</time>
      </trkpt>
      <trkpt lat="47.16744" lon="-1.62503">
        <ele>67</ele>
        <time>2020-10-17T12:34:41.000Z</time>
      </trkpt>
      <trkpt lat="47.16757" lon="-1.62508">
        <ele>67</ele>
        <time>2020-10-17T12:34:43.000Z</time>
      </trkpt>
      <trkpt lat="47.16769" lon="-1.62516">
        <ele>67</ele>
        <time>2020-10-17T12:34:45.000Z</time>
      </trkpt>
      <trkpt lat="47.1678" lon="-1.62523">
        <ele>68</ele>
        <time>2020-10-17T12:34:47.000Z</time>
      </trkpt>
      <trkpt lat="47.1679" lon="-1.6253">
        <ele>69</ele>
        <time>2020-10-17T12:34:49.000Z</time>
      </trkpt>
      <trkpt lat="47.16801" lon="-1.62537">
        <ele>69</ele>
        <time>2020-10-17T12:34:51.000Z</time>
      </trkpt>
      <trkpt lat="47.16811" lon="-1.62544">
        <ele>69</ele>
        <time>2020-10-17T12:34:53.000Z</time>
      </trkpt>
      <trkpt lat="47.16821" lon="-1.62554">
        <ele>69</ele>
        <time>2020-10-17T12:34:55.000Z</time>
      </trkpt>
      <trkpt lat="47.16831" lon="-1.62566">
        <ele>69</ele>
        <time>2020-10-17T12:34:57.000Z</time>
      </trkpt>
      <trkpt lat="47.16838" lon="-1.62582">
        <ele>71</ele>
        <time>2020-10-17T12:34:59.000Z</time>
      </trkpt>
      <trkpt lat="47.16831" lon="-1.626">
        <ele>71</ele>
        <time>2020-10-17T12:35:01.000Z</time>
      </trkpt>
      <trkpt lat="47.1682" lon="-1.62615">
        <ele>71</ele>
        <time>2020-10-17T12:35:03.000Z</time>
      </trkpt>
      <trkpt lat="47.16809" lon="-1.62627">
        <ele>71</ele>
        <time>2020-10-17T12:35:05.000Z</time>
      </trkpt>
      <trkpt lat="47.16801" lon="-1.62639">
        <ele>71</ele>
        <time>2020-10-17T12:35:07.000Z</time>
      </trkpt>
      <trkpt lat="47.16793" lon="-1.6265">
        <ele>71</ele>
        <time>2020-10-17T12:35:09.000Z</time>
      </trkpt>
      <trkpt lat="47.16786" lon="-1.6266">
        <ele>71</ele>
        <time>2020-10-17T12:35:11.000Z</time>
      </trkpt>
      <trkpt lat="47.16778" lon="-1.62654">
        <ele>72</ele>
        <time>2020-10-17T12:35:15.000Z</time>
      </trkpt>
    </trkseg>
  </trk>
</gpx>